<?xml version="1.0" encoding="UTF-8" standalone="no" ?>
<gpx xmlns="http://www.topografix.com/GPX/1/1" xmlns:xsi="http://www.w3.org/2001/XMLSchema-instance" xsi:schemaLocation="http://www.topografix.com/GPX/1/1 http://www.topografix.com/GPX/1/1/gpx.xsd" version="1.1" creator="VisuGPX - https://www.visugpx.com">
  <metadata>
    <name>2017-12-12 Bike ride-Amberieux en Dombes O via Toussieux</name>
    <desc><![CDATA[2017-12-12 Bike ride-Amberieux en Dombes O via Toussieux]]></desc>
  </metadata>
  <wpt lat="45.92458" lon="4.7371">
    <ele>174</ele>
    <name><![CDATA[2017-12-12 10:50 (Start)]]></name>
  </wpt>
  <wpt lat="45.92462" lon="4.73717">
    <ele>174</ele>
    <name><![CDATA[2017-12-12 10:50 (End)]]></name>
    <desc><![CDATA[Created by Google My Tracks on Android  Name: 2017-12-12 10:50 Activity type: biking Description: - Total distance: 42.01 km (26.1 mi) Total time: 2:18:10 Moving time: 2:13:09 Average speed: 18.24 km/h (11.3 mi/h) Average moving speed: 18.93 km/h (11.8 mi/h) Max speed: 54.14 km/h (33.6 mi/h) Average pace: 3:17 min/km (5:18 min/mi) Average moving pace: 3:10 min/km (5:06 min/mi) Fastest pace: 1:06 min/km (1:47 min/mi) Max elevation: 364 m (1195 ft) Min elevation: 207 m (680 ft) Elevation gain: 512 m (1679 ft) Max grade: 27 % Min grade: -28 % Recorded: 12/12/2017 10:50]]></desc>
  </wpt>
  <trk>
    <name><![CDATA[2017-12-12 10:50]]></name>
    <trkseg>
      <trkpt lat="45.92458" lon="4.7371">
        <ele>174</ele>
        <time>2017-12-12T09:50:44.784Z</time>
      </trkpt>
      <trkpt lat="45.92465" lon="4.73709">
        <ele>174</ele>
        <time>2017-12-12T09:51:15Z</time>
      </trkpt>
      <trkpt lat="45.92465" lon="4.73709">
        <ele>174</ele>
        <time>2017-12-12T09:51:16Z</time>
      </trkpt>
      <trkpt lat="45.92465" lon="4.73709">
        <ele>174</ele>
        <time>2017-12-12T09:51:17Z</time>
      </trkpt>
      <trkpt lat="45.9247" lon="4.73699">
        <ele>174</ele>
        <time>2017-12-12T09:51:28Z</time>
      </trkpt>
      <trkpt lat="45.9247" lon="4.73695">
        <ele>174</ele>
        <time>2017-12-12T09:51:29Z</time>
      </trkpt>
      <trkpt lat="45.92471" lon="4.73683">
        <ele>174</ele>
        <time>2017-12-12T09:51:32Z</time>
      </trkpt>
      <trkpt lat="45.92472" lon="4.73679">
        <ele>174</ele>
        <time>2017-12-12T09:51:33Z</time>
      </trkpt>
      <trkpt lat="45.92472" lon="4.73669">
        <ele>174</ele>
        <time>2017-12-12T09:51:35Z</time>
      </trkpt>
      <trkpt lat="45.92473" lon="4.73664">
        <ele>174</ele>
        <time>2017-12-12T09:51:36Z</time>
      </trkpt>
      <trkpt lat="45.92473" lon="4.73653">
        <ele>174</ele>
        <time>2017-12-12T09:51:38Z</time>
      </trkpt>
      <trkpt lat="45.92473" lon="4.73648">
        <ele>174</ele>
        <time>2017-12-12T09:51:39Z</time>
      </trkpt>
      <trkpt lat="45.92476" lon="4.73639">
        <ele>174</ele>
        <time>2017-12-12T09:51:41Z</time>
      </trkpt>
      <trkpt lat="45.92479" lon="4.73637">
        <ele>174</ele>
        <time>2017-12-12T09:51:42Z</time>
      </trkpt>
      <trkpt lat="45.92486" lon="4.73636">
        <ele>174</ele>
        <time>2017-12-12T09:51:44Z</time>
      </trkpt>
      <trkpt lat="45.92489" lon="4.73636">
        <ele>174</ele>
        <time>2017-12-12T09:51:45Z</time>
      </trkpt>
      <trkpt lat="45.92497" lon="4.73637">
        <ele>174</ele>
        <time>2017-12-12T09:51:47Z</time>
      </trkpt>
      <trkpt lat="45.92501" lon="4.73636">
        <ele>174</ele>
        <time>2017-12-12T09:51:48Z</time>
      </trkpt>
      <trkpt lat="45.92509" lon="4.73635">
        <ele>173</ele>
        <time>2017-12-12T09:51:50Z</time>
      </trkpt>
      <trkpt lat="45.92513" lon="4.73635">
        <ele>173</ele>
        <time>2017-12-12T09:51:51Z</time>
      </trkpt>
      <trkpt lat="45.92521" lon="4.73634">
        <ele>173</ele>
        <time>2017-12-12T09:51:53Z</time>
      </trkpt>
      <trkpt lat="45.92525" lon="4.73634">
        <ele>173</ele>
        <time>2017-12-12T09:51:54Z</time>
      </trkpt>
      <trkpt lat="45.92529" lon="4.73633">
        <ele>173</ele>
        <time>2017-12-12T09:51:55Z</time>
      </trkpt>
      <trkpt lat="45.92535" lon="4.73633">
        <ele>173</ele>
        <time>2017-12-12T09:51:56Z</time>
      </trkpt>
      <trkpt lat="45.92539" lon="4.73632">
        <ele>173</ele>
        <time>2017-12-12T09:51:57Z</time>
      </trkpt>
      <trkpt lat="45.92544" lon="4.73631">
        <ele>173</ele>
        <time>2017-12-12T09:51:58Z</time>
      </trkpt>
      <trkpt lat="45.92548" lon="4.73631">
        <ele>173</ele>
        <time>2017-12-12T09:51:59Z</time>
      </trkpt>
      <trkpt lat="45.92553" lon="4.7363">
        <ele>173</ele>
        <time>2017-12-12T09:52:00Z</time>
      </trkpt>
      <trkpt lat="45.92558" lon="4.73629">
        <ele>173</ele>
        <time>2017-12-12T09:52:01Z</time>
      </trkpt>
      <trkpt lat="45.92563" lon="4.73626">
        <ele>173</ele>
        <time>2017-12-12T09:52:02Z</time>
      </trkpt>
      <trkpt lat="45.92567" lon="4.73624">
        <ele>173</ele>
        <time>2017-12-12T09:52:03Z</time>
      </trkpt>
      <trkpt lat="45.92572" lon="4.73623">
        <ele>173</ele>
        <time>2017-12-12T09:52:04Z</time>
      </trkpt>
      <trkpt lat="45.92576" lon="4.73622">
        <ele>173</ele>
        <time>2017-12-12T09:52:05Z</time>
      </trkpt>
      <trkpt lat="45.92581" lon="4.73621">
        <ele>173</ele>
        <time>2017-12-12T09:52:06Z</time>
      </trkpt>
      <trkpt lat="45.92586" lon="4.73619">
        <ele>173</ele>
        <time>2017-12-12T09:52:07Z</time>
      </trkpt>
      <trkpt lat="45.9259" lon="4.73618">
        <ele>173</ele>
        <time>2017-12-12T09:52:08Z</time>
      </trkpt>
      <trkpt lat="45.92599" lon="4.73619">
        <ele>173</ele>
        <time>2017-12-12T09:52:10Z</time>
      </trkpt>
      <trkpt lat="45.92602" lon="4.73621">
        <ele>173</ele>
        <time>2017-12-12T09:52:11Z</time>
      </trkpt>
      <trkpt lat="45.92608" lon="4.73623">
        <ele>173</ele>
        <time>2017-12-12T09:52:12Z</time>
      </trkpt>
      <trkpt lat="45.92612" lon="4.73625">
        <ele>173</ele>
        <time>2017-12-12T09:52:13Z</time>
      </trkpt>
      <trkpt lat="45.92616" lon="4.7363">
        <ele>173</ele>
        <time>2017-12-12T09:52:14Z</time>
      </trkpt>
      <trkpt lat="45.92619" lon="4.73635">
        <ele>173</ele>
        <time>2017-12-12T09:52:15Z</time>
      </trkpt>
      <trkpt lat="45.92623" lon="4.73646">
        <ele>173</ele>
        <time>2017-12-12T09:52:17Z</time>
      </trkpt>
      <trkpt lat="45.92626" lon="4.73651">
        <ele>173</ele>
        <time>2017-12-12T09:52:18Z</time>
      </trkpt>
      <trkpt lat="45.92629" lon="4.73657">
        <ele>173</ele>
        <time>2017-12-12T09:52:19Z</time>
      </trkpt>
      <trkpt lat="45.92632" lon="4.73663">
        <ele>173</ele>
        <time>2017-12-12T09:52:20Z</time>
      </trkpt>
      <trkpt lat="45.92634" lon="4.73669">
        <ele>173</ele>
        <time>2017-12-12T09:52:21Z</time>
      </trkpt>
      <trkpt lat="45.92638" lon="4.73674">
        <ele>173</ele>
        <time>2017-12-12T09:52:22Z</time>
      </trkpt>
      <trkpt lat="45.92642" lon="4.73678">
        <ele>173</ele>
        <time>2017-12-12T09:52:23Z</time>
      </trkpt>
      <trkpt lat="45.92646" lon="4.73682">
        <ele>173</ele>
        <time>2017-12-12T09:52:24Z</time>
      </trkpt>
      <trkpt lat="45.9265" lon="4.73686">
        <ele>173</ele>
        <time>2017-12-12T09:52:25Z</time>
      </trkpt>
      <trkpt lat="45.92654" lon="4.73691">
        <ele>173</ele>
        <time>2017-12-12T09:52:26Z</time>
      </trkpt>
      <trkpt lat="45.92657" lon="4.73694">
        <ele>173</ele>
        <time>2017-12-12T09:52:27Z</time>
      </trkpt>
      <trkpt lat="45.92662" lon="4.73698">
        <ele>173</ele>
        <time>2017-12-12T09:52:28Z</time>
      </trkpt>
      <trkpt lat="45.92667" lon="4.73701">
        <ele>174</ele>
        <time>2017-12-12T09:52:29Z</time>
      </trkpt>
      <trkpt lat="45.92672" lon="4.73704">
        <ele>174</ele>
        <time>2017-12-12T09:52:30Z</time>
      </trkpt>
      <trkpt lat="45.92677" lon="4.73705">
        <ele>173</ele>
        <time>2017-12-12T09:52:31Z</time>
      </trkpt>
      <trkpt lat="45.92683" lon="4.73705">
        <ele>173</ele>
        <time>2017-12-12T09:52:32Z</time>
      </trkpt>
      <trkpt lat="45.92689" lon="4.73707">
        <ele>173</ele>
        <time>2017-12-12T09:52:33Z</time>
      </trkpt>
      <trkpt lat="45.92694" lon="4.73707">
        <ele>173</ele>
        <time>2017-12-12T09:52:34Z</time>
      </trkpt>
      <trkpt lat="45.92699" lon="4.73709">
        <ele>173</ele>
        <time>2017-12-12T09:52:35Z</time>
      </trkpt>
      <trkpt lat="45.92705" lon="4.73711">
        <ele>173</ele>
        <time>2017-12-12T09:52:36Z</time>
      </trkpt>
      <trkpt lat="45.9271" lon="4.73713">
        <ele>173</ele>
        <time>2017-12-12T09:52:37Z</time>
      </trkpt>
      <trkpt lat="45.92715" lon="4.73714">
        <ele>173</ele>
        <time>2017-12-12T09:52:38Z</time>
      </trkpt>
      <trkpt lat="45.9272" lon="4.73715">
        <ele>173</ele>
        <time>2017-12-12T09:52:39Z</time>
      </trkpt>
      <trkpt lat="45.92725" lon="4.73716">
        <ele>173</ele>
        <time>2017-12-12T09:52:40Z</time>
      </trkpt>
      <trkpt lat="45.92731" lon="4.73717">
        <ele>173</ele>
        <time>2017-12-12T09:52:41Z</time>
      </trkpt>
      <trkpt lat="45.92736" lon="4.73718">
        <ele>173</ele>
        <time>2017-12-12T09:52:42Z</time>
      </trkpt>
      <trkpt lat="45.92741" lon="4.73719">
        <ele>173</ele>
        <time>2017-12-12T09:52:43Z</time>
      </trkpt>
      <trkpt lat="45.92745" lon="4.7372">
        <ele>173</ele>
        <time>2017-12-12T09:52:44Z</time>
      </trkpt>
      <trkpt lat="45.92753" lon="4.73722">
        <ele>172</ele>
        <time>2017-12-12T09:52:46Z</time>
      </trkpt>
      <trkpt lat="45.92758" lon="4.73722">
        <ele>172</ele>
        <time>2017-12-12T09:52:47Z</time>
      </trkpt>
      <trkpt lat="45.92764" lon="4.73724">
        <ele>172</ele>
        <time>2017-12-12T09:52:49Z</time>
      </trkpt>
      <trkpt lat="45.92767" lon="4.73725">
        <ele>172</ele>
        <time>2017-12-12T09:52:50Z</time>
      </trkpt>
      <trkpt lat="45.92773" lon="4.73728">
        <ele>172</ele>
        <time>2017-12-12T09:52:52Z</time>
      </trkpt>
      <trkpt lat="45.92775" lon="4.73732">
        <ele>172</ele>
        <time>2017-12-12T09:52:53Z</time>
      </trkpt>
      <trkpt lat="45.92778" lon="4.7374">
        <ele>172</ele>
        <time>2017-12-12T09:52:55Z</time>
      </trkpt>
      <trkpt lat="45.92781" lon="4.73743">
        <ele>172</ele>
        <time>2017-12-12T09:52:56Z</time>
      </trkpt>
      <trkpt lat="45.92786" lon="4.73752">
        <ele>173</ele>
        <time>2017-12-12T09:52:58Z</time>
      </trkpt>
      <trkpt lat="45.9279" lon="4.73755">
        <ele>173</ele>
        <time>2017-12-12T09:52:59Z</time>
      </trkpt>
      <trkpt lat="45.92794" lon="4.73757">
        <ele>173</ele>
        <time>2017-12-12T09:53:00Z</time>
      </trkpt>
      <trkpt lat="45.92798" lon="4.7376">
        <ele>173</ele>
        <time>2017-12-12T09:53:01Z</time>
      </trkpt>
      <trkpt lat="45.92804" lon="4.73761">
        <ele>173</ele>
        <time>2017-12-12T09:53:02Z</time>
      </trkpt>
      <trkpt lat="45.92809" lon="4.73764">
        <ele>173</ele>
        <time>2017-12-12T09:53:03Z</time>
      </trkpt>
      <trkpt lat="45.92815" lon="4.73766">
        <ele>173</ele>
        <time>2017-12-12T09:53:04Z</time>
      </trkpt>
      <trkpt lat="45.9282" lon="4.73769">
        <ele>173</ele>
        <time>2017-12-12T09:53:05Z</time>
      </trkpt>
      <trkpt lat="45.92825" lon="4.73773">
        <ele>173</ele>
        <time>2017-12-12T09:53:06Z</time>
      </trkpt>
      <trkpt lat="45.92831" lon="4.73775">
        <ele>173</ele>
        <time>2017-12-12T09:53:07Z</time>
      </trkpt>
      <trkpt lat="45.92835" lon="4.73779">
        <ele>172</ele>
        <time>2017-12-12T09:53:08Z</time>
      </trkpt>
      <trkpt lat="45.92839" lon="4.73783">
        <ele>173</ele>
        <time>2017-12-12T09:53:09Z</time>
      </trkpt>
      <trkpt lat="45.92845" lon="4.73789">
        <ele>173</ele>
        <time>2017-12-12T09:53:11Z</time>
      </trkpt>
      <trkpt lat="45.92847" lon="4.73792">
        <ele>173</ele>
        <time>2017-12-12T09:53:12Z</time>
      </trkpt>
      <trkpt lat="45.92851" lon="4.73801">
        <ele>173</ele>
        <time>2017-12-12T09:53:14Z</time>
      </trkpt>
      <trkpt lat="45.92853" lon="4.73806">
        <ele>173</ele>
        <time>2017-12-12T09:53:15Z</time>
      </trkpt>
      <trkpt lat="45.92856" lon="4.73818">
        <ele>173</ele>
        <time>2017-12-12T09:53:17Z</time>
      </trkpt>
      <trkpt lat="45.92858" lon="4.73825">
        <ele>173</ele>
        <time>2017-12-12T09:53:18Z</time>
      </trkpt>
      <trkpt lat="45.9286" lon="4.73832">
        <ele>173</ele>
        <time>2017-12-12T09:53:19Z</time>
      </trkpt>
      <trkpt lat="45.92862" lon="4.73838">
        <ele>173</ele>
        <time>2017-12-12T09:53:20Z</time>
      </trkpt>
      <trkpt lat="45.92863" lon="4.73844">
        <ele>173</ele>
        <time>2017-12-12T09:53:21Z</time>
      </trkpt>
      <trkpt lat="45.92865" lon="4.73851">
        <ele>173</ele>
        <time>2017-12-12T09:53:22Z</time>
      </trkpt>
      <trkpt lat="45.92867" lon="4.73859">
        <ele>173</ele>
        <time>2017-12-12T09:53:23Z</time>
      </trkpt>
      <trkpt lat="45.92871" lon="4.73866">
        <ele>173</ele>
        <time>2017-12-12T09:53:24Z</time>
      </trkpt>
      <trkpt lat="45.92872" lon="4.73873">
        <ele>173</ele>
        <time>2017-12-12T09:53:25Z</time>
      </trkpt>
      <trkpt lat="45.92873" lon="4.7388">
        <ele>173</ele>
        <time>2017-12-12T09:53:26Z</time>
      </trkpt>
      <trkpt lat="45.92875" lon="4.73888">
        <ele>173</ele>
        <time>2017-12-12T09:53:27Z</time>
      </trkpt>
      <trkpt lat="45.92877" lon="4.73895">
        <ele>173</ele>
        <time>2017-12-12T09:53:28Z</time>
      </trkpt>
      <trkpt lat="45.92878" lon="4.73903">
        <ele>173</ele>
        <time>2017-12-12T09:53:29Z</time>
      </trkpt>
      <trkpt lat="45.92879" lon="4.7391">
        <ele>173</ele>
        <time>2017-12-12T09:53:30Z</time>
      </trkpt>
      <trkpt lat="45.9288" lon="4.73917">
        <ele>172</ele>
        <time>2017-12-12T09:53:31Z</time>
      </trkpt>
      <trkpt lat="45.92881" lon="4.73925">
        <ele>172</ele>
        <time>2017-12-12T09:53:32Z</time>
      </trkpt>
      <trkpt lat="45.92881" lon="4.73933">
        <ele>172</ele>
        <time>2017-12-12T09:53:33Z</time>
      </trkpt>
      <trkpt lat="45.92881" lon="4.7394">
        <ele>172</ele>
        <time>2017-12-12T09:53:34Z</time>
      </trkpt>
      <trkpt lat="45.92881" lon="4.73948">
        <ele>172</ele>
        <time>2017-12-12T09:53:35Z</time>
      </trkpt>
      <trkpt lat="45.92882" lon="4.73955">
        <ele>172</ele>
        <time>2017-12-12T09:53:36Z</time>
      </trkpt>
      <trkpt lat="45.92882" lon="4.73963">
        <ele>172</ele>
        <time>2017-12-12T09:53:37Z</time>
      </trkpt>
      <trkpt lat="45.92882" lon="4.7397">
        <ele>172</ele>
        <time>2017-12-12T09:53:38Z</time>
      </trkpt>
      <trkpt lat="45.92881" lon="4.73978">
        <ele>172</ele>
        <time>2017-12-12T09:53:39Z</time>
      </trkpt>
      <trkpt lat="45.9288" lon="4.73986">
        <ele>172</ele>
        <time>2017-12-12T09:53:40Z</time>
      </trkpt>
      <trkpt lat="45.92878" lon="4.73992">
        <ele>172</ele>
        <time>2017-12-12T09:53:41Z</time>
      </trkpt>
      <trkpt lat="45.92878" lon="4.73999">
        <ele>172</ele>
        <time>2017-12-12T09:53:42Z</time>
      </trkpt>
      <trkpt lat="45.92877" lon="4.74006">
        <ele>172</ele>
        <time>2017-12-12T09:53:43Z</time>
      </trkpt>
      <trkpt lat="45.92876" lon="4.74014">
        <ele>172</ele>
        <time>2017-12-12T09:53:44Z</time>
      </trkpt>
      <trkpt lat="45.92875" lon="4.74021">
        <ele>172</ele>
        <time>2017-12-12T09:53:45Z</time>
      </trkpt>
      <trkpt lat="45.92873" lon="4.74029">
        <ele>172</ele>
        <time>2017-12-12T09:53:46Z</time>
      </trkpt>
      <trkpt lat="45.92871" lon="4.74035">
        <ele>172</ele>
        <time>2017-12-12T09:53:47Z</time>
      </trkpt>
      <trkpt lat="45.9287" lon="4.74041">
        <ele>172</ele>
        <time>2017-12-12T09:53:48Z</time>
      </trkpt>
      <trkpt lat="45.92867" lon="4.74046">
        <ele>172</ele>
        <time>2017-12-12T09:53:49Z</time>
      </trkpt>
      <trkpt lat="45.92863" lon="4.74051">
        <ele>172</ele>
        <time>2017-12-12T09:53:50Z</time>
      </trkpt>
      <trkpt lat="45.92859" lon="4.74056">
        <ele>172</ele>
        <time>2017-12-12T09:53:51Z</time>
      </trkpt>
      <trkpt lat="45.92853" lon="4.74061">
        <ele>172</ele>
        <time>2017-12-12T09:53:52Z</time>
      </trkpt>
      <trkpt lat="45.9285" lon="4.74066">
        <ele>172</ele>
        <time>2017-12-12T09:53:53Z</time>
      </trkpt>
      <trkpt lat="45.92845" lon="4.74072">
        <ele>172</ele>
        <time>2017-12-12T09:53:54Z</time>
      </trkpt>
      <trkpt lat="45.92841" lon="4.74077">
        <ele>171</ele>
        <time>2017-12-12T09:53:55Z</time>
      </trkpt>
      <trkpt lat="45.92837" lon="4.74082">
        <ele>171</ele>
        <time>2017-12-12T09:53:56Z</time>
      </trkpt>
      <trkpt lat="45.92833" lon="4.74087">
        <ele>171</ele>
        <time>2017-12-12T09:53:57Z</time>
      </trkpt>
      <trkpt lat="45.92829" lon="4.74092">
        <ele>171</ele>
        <time>2017-12-12T09:53:58Z</time>
      </trkpt>
      <trkpt lat="45.92824" lon="4.74095">
        <ele>171</ele>
        <time>2017-12-12T09:53:59Z</time>
      </trkpt>
      <trkpt lat="45.92819" lon="4.741">
        <ele>171</ele>
        <time>2017-12-12T09:54:00Z</time>
      </trkpt>
      <trkpt lat="45.92815" lon="4.74105">
        <ele>172</ele>
        <time>2017-12-12T09:54:01Z</time>
      </trkpt>
      <trkpt lat="45.9281" lon="4.7411">
        <ele>172</ele>
        <time>2017-12-12T09:54:02Z</time>
      </trkpt>
      <trkpt lat="45.92805" lon="4.74113">
        <ele>172</ele>
        <time>2017-12-12T09:54:03Z</time>
      </trkpt>
      <trkpt lat="45.928" lon="4.74118">
        <ele>172</ele>
        <time>2017-12-12T09:54:04Z</time>
      </trkpt>
      <trkpt lat="45.92797" lon="4.74122">
        <ele>172</ele>
        <time>2017-12-12T09:54:05Z</time>
      </trkpt>
      <trkpt lat="45.92793" lon="4.74126">
        <ele>172</ele>
        <time>2017-12-12T09:54:06Z</time>
      </trkpt>
      <trkpt lat="45.92789" lon="4.74131">
        <ele>172</ele>
        <time>2017-12-12T09:54:07Z</time>
      </trkpt>
      <trkpt lat="45.92784" lon="4.74136">
        <ele>172</ele>
        <time>2017-12-12T09:54:08Z</time>
      </trkpt>
      <trkpt lat="45.92781" lon="4.7414">
        <ele>172</ele>
        <time>2017-12-12T09:54:09Z</time>
      </trkpt>
      <trkpt lat="45.92777" lon="4.74145">
        <ele>172</ele>
        <time>2017-12-12T09:54:10Z</time>
      </trkpt>
      <trkpt lat="45.92773" lon="4.74149">
        <ele>172</ele>
        <time>2017-12-12T09:54:11Z</time>
      </trkpt>
      <trkpt lat="45.92768" lon="4.74153">
        <ele>172</ele>
        <time>2017-12-12T09:54:12Z</time>
      </trkpt>
      <trkpt lat="45.92764" lon="4.74158">
        <ele>172</ele>
        <time>2017-12-12T09:54:13Z</time>
      </trkpt>
      <trkpt lat="45.9276" lon="4.74163">
        <ele>172</ele>
        <time>2017-12-12T09:54:14Z</time>
      </trkpt>
      <trkpt lat="45.92755" lon="4.74168">
        <ele>172</ele>
        <time>2017-12-12T09:54:15Z</time>
      </trkpt>
      <trkpt lat="45.92751" lon="4.74173">
        <ele>172</ele>
        <time>2017-12-12T09:54:16Z</time>
      </trkpt>
      <trkpt lat="45.92746" lon="4.74178">
        <ele>172</ele>
        <time>2017-12-12T09:54:17Z</time>
      </trkpt>
      <trkpt lat="45.92743" lon="4.74183">
        <ele>172</ele>
        <time>2017-12-12T09:54:18Z</time>
      </trkpt>
      <trkpt lat="45.92739" lon="4.74188">
        <ele>172</ele>
        <time>2017-12-12T09:54:19Z</time>
      </trkpt>
      <trkpt lat="45.92735" lon="4.74193">
        <ele>171</ele>
        <time>2017-12-12T09:54:20Z</time>
      </trkpt>
      <trkpt lat="45.92731" lon="4.74198">
        <ele>171</ele>
        <time>2017-12-12T09:54:21Z</time>
      </trkpt>
      <trkpt lat="45.92727" lon="4.74203">
        <ele>171</ele>
        <time>2017-12-12T09:54:22Z</time>
      </trkpt>
      <trkpt lat="45.92722" lon="4.74213">
        <ele>171</ele>
        <time>2017-12-12T09:54:24Z</time>
      </trkpt>
      <trkpt lat="45.92718" lon="4.74216">
        <ele>171</ele>
        <time>2017-12-12T09:54:25Z</time>
      </trkpt>
      <trkpt lat="45.92715" lon="4.74222">
        <ele>171</ele>
        <time>2017-12-12T09:54:26Z</time>
      </trkpt>
      <trkpt lat="45.92711" lon="4.74227">
        <ele>171</ele>
        <time>2017-12-12T09:54:27Z</time>
      </trkpt>
      <trkpt lat="45.92708" lon="4.74233">
        <ele>171</ele>
        <time>2017-12-12T09:54:28Z</time>
      </trkpt>
      <trkpt lat="45.92705" lon="4.7424">
        <ele>171</ele>
        <time>2017-12-12T09:54:29Z</time>
      </trkpt>
      <trkpt lat="45.92701" lon="4.74246">
        <ele>171</ele>
        <time>2017-12-12T09:54:30Z</time>
      </trkpt>
      <trkpt lat="45.92698" lon="4.74251">
        <ele>171</ele>
        <time>2017-12-12T09:54:31Z</time>
      </trkpt>
      <trkpt lat="45.92694" lon="4.74257">
        <ele>171</ele>
        <time>2017-12-12T09:54:32Z</time>
      </trkpt>
      <trkpt lat="45.92691" lon="4.74262">
        <ele>171</ele>
        <time>2017-12-12T09:54:33Z</time>
      </trkpt>
      <trkpt lat="45.92688" lon="4.74267">
        <ele>171</ele>
        <time>2017-12-12T09:54:34Z</time>
      </trkpt>
      <trkpt lat="45.92685" lon="4.74273">
        <ele>171</ele>
        <time>2017-12-12T09:54:35Z</time>
      </trkpt>
      <trkpt lat="45.92681" lon="4.74279">
        <ele>171</ele>
        <time>2017-12-12T09:54:36Z</time>
      </trkpt>
      <trkpt lat="45.92678" lon="4.74285">
        <ele>171</ele>
        <time>2017-12-12T09:54:37Z</time>
      </trkpt>
      <trkpt lat="45.92674" lon="4.74291">
        <ele>171</ele>
        <time>2017-12-12T09:54:38Z</time>
      </trkpt>
      <trkpt lat="45.9267" lon="4.74297">
        <ele>171</ele>
        <time>2017-12-12T09:54:39Z</time>
      </trkpt>
      <trkpt lat="45.92667" lon="4.74303">
        <ele>171</ele>
        <time>2017-12-12T09:54:40Z</time>
      </trkpt>
      <trkpt lat="45.92664" lon="4.74309">
        <ele>171</ele>
        <time>2017-12-12T09:54:41Z</time>
      </trkpt>
      <trkpt lat="45.92661" lon="4.74315">
        <ele>171</ele>
        <time>2017-12-12T09:54:42Z</time>
      </trkpt>
      <trkpt lat="45.92658" lon="4.74322">
        <ele>171</ele>
        <time>2017-12-12T09:54:43Z</time>
      </trkpt>
      <trkpt lat="45.92655" lon="4.74328">
        <ele>171</ele>
        <time>2017-12-12T09:54:44Z</time>
      </trkpt>
      <trkpt lat="45.92652" lon="4.74334">
        <ele>171</ele>
        <time>2017-12-12T09:54:45Z</time>
      </trkpt>
      <trkpt lat="45.92648" lon="4.74339">
        <ele>171</ele>
        <time>2017-12-12T09:54:46Z</time>
      </trkpt>
      <trkpt lat="45.92644" lon="4.74345">
        <ele>171</ele>
        <time>2017-12-12T09:54:47Z</time>
      </trkpt>
      <trkpt lat="45.9264" lon="4.74352">
        <ele>171</ele>
        <time>2017-12-12T09:54:48Z</time>
      </trkpt>
      <trkpt lat="45.92637" lon="4.74357">
        <ele>171</ele>
        <time>2017-12-12T09:54:49Z</time>
      </trkpt>
      <trkpt lat="45.92633" lon="4.74364">
        <ele>171</ele>
        <time>2017-12-12T09:54:50Z</time>
      </trkpt>
      <trkpt lat="45.9263" lon="4.7437">
        <ele>171</ele>
        <time>2017-12-12T09:54:51Z</time>
      </trkpt>
      <trkpt lat="45.92626" lon="4.74377">
        <ele>170</ele>
        <time>2017-12-12T09:54:52Z</time>
      </trkpt>
      <trkpt lat="45.92622" lon="4.74384">
        <ele>170</ele>
        <time>2017-12-12T09:54:53Z</time>
      </trkpt>
      <trkpt lat="45.92619" lon="4.7439">
        <ele>170</ele>
        <time>2017-12-12T09:54:54Z</time>
      </trkpt>
      <trkpt lat="45.92615" lon="4.74396">
        <ele>170</ele>
        <time>2017-12-12T09:54:55Z</time>
      </trkpt>
      <trkpt lat="45.92611" lon="4.74402">
        <ele>170</ele>
        <time>2017-12-12T09:54:56Z</time>
      </trkpt>
      <trkpt lat="45.92608" lon="4.74409">
        <ele>170</ele>
        <time>2017-12-12T09:54:57Z</time>
      </trkpt>
      <trkpt lat="45.92605" lon="4.74414">
        <ele>170</ele>
        <time>2017-12-12T09:54:58Z</time>
      </trkpt>
      <trkpt lat="45.92601" lon="4.7442">
        <ele>170</ele>
        <time>2017-12-12T09:54:59Z</time>
      </trkpt>
      <trkpt lat="45.92596" lon="4.74428">
        <ele>170</ele>
        <time>2017-12-12T09:55:00Z</time>
      </trkpt>
      <trkpt lat="45.92593" lon="4.74433">
        <ele>170</ele>
        <time>2017-12-12T09:55:01Z</time>
      </trkpt>
      <trkpt lat="45.9259" lon="4.7444">
        <ele>170</ele>
        <time>2017-12-12T09:55:02Z</time>
      </trkpt>
      <trkpt lat="45.92586" lon="4.74446">
        <ele>170</ele>
        <time>2017-12-12T09:55:03Z</time>
      </trkpt>
      <trkpt lat="45.92582" lon="4.74452">
        <ele>170</ele>
        <time>2017-12-12T09:55:04Z</time>
      </trkpt>
      <trkpt lat="45.92578" lon="4.7446">
        <ele>170</ele>
        <time>2017-12-12T09:55:05Z</time>
      </trkpt>
      <trkpt lat="45.92575" lon="4.74467">
        <ele>170</ele>
        <time>2017-12-12T09:55:06Z</time>
      </trkpt>
      <trkpt lat="45.92572" lon="4.74473">
        <ele>170</ele>
        <time>2017-12-12T09:55:07Z</time>
      </trkpt>
      <trkpt lat="45.92568" lon="4.74479">
        <ele>170</ele>
        <time>2017-12-12T09:55:08Z</time>
      </trkpt>
      <trkpt lat="45.92565" lon="4.74486">
        <ele>170</ele>
        <time>2017-12-12T09:55:09Z</time>
      </trkpt>
      <trkpt lat="45.92562" lon="4.74492">
        <ele>170</ele>
        <time>2017-12-12T09:55:10Z</time>
      </trkpt>
      <trkpt lat="45.92558" lon="4.74498">
        <ele>170</ele>
        <time>2017-12-12T09:55:11Z</time>
      </trkpt>
      <trkpt lat="45.92555" lon="4.74504">
        <ele>170</ele>
        <time>2017-12-12T09:55:12Z</time>
      </trkpt>
      <trkpt lat="45.92552" lon="4.7451">
        <ele>170</ele>
        <time>2017-12-12T09:55:13Z</time>
      </trkpt>
      <trkpt lat="45.92548" lon="4.74516">
        <ele>170</ele>
        <time>2017-12-12T09:55:14Z</time>
      </trkpt>
      <trkpt lat="45.92545" lon="4.74522">
        <ele>170</ele>
        <time>2017-12-12T09:55:15Z</time>
      </trkpt>
      <trkpt lat="45.92541" lon="4.74529">
        <ele>171</ele>
        <time>2017-12-12T09:55:16Z</time>
      </trkpt>
      <trkpt lat="45.92539" lon="4.74536">
        <ele>171</ele>
        <time>2017-12-12T09:55:17Z</time>
      </trkpt>
      <trkpt lat="45.92535" lon="4.74542">
        <ele>171</ele>
        <time>2017-12-12T09:55:18Z</time>
      </trkpt>
      <trkpt lat="45.92531" lon="4.74548">
        <ele>171</ele>
        <time>2017-12-12T09:55:19Z</time>
      </trkpt>
      <trkpt lat="45.92526" lon="4.74555">
        <ele>171</ele>
        <time>2017-12-12T09:55:20Z</time>
      </trkpt>
      <trkpt lat="45.92522" lon="4.74561">
        <ele>171</ele>
        <time>2017-12-12T09:55:21Z</time>
      </trkpt>
      <trkpt lat="45.92518" lon="4.74566">
        <ele>171</ele>
        <time>2017-12-12T09:55:22Z</time>
      </trkpt>
      <trkpt lat="45.92513" lon="4.7457">
        <ele>171</ele>
        <time>2017-12-12T09:55:23Z</time>
      </trkpt>
      <trkpt lat="45.92508" lon="4.74575">
        <ele>171</ele>
        <time>2017-12-12T09:55:24Z</time>
      </trkpt>
      <trkpt lat="45.92504" lon="4.74579">
        <ele>171</ele>
        <time>2017-12-12T09:55:25Z</time>
      </trkpt>
      <trkpt lat="45.925" lon="4.74584">
        <ele>171</ele>
        <time>2017-12-12T09:55:26Z</time>
      </trkpt>
      <trkpt lat="45.92497" lon="4.74589">
        <ele>171</ele>
        <time>2017-12-12T09:55:27Z</time>
      </trkpt>
      <trkpt lat="45.92492" lon="4.74594">
        <ele>171</ele>
        <time>2017-12-12T09:55:28Z</time>
      </trkpt>
      <trkpt lat="45.92488" lon="4.74599">
        <ele>171</ele>
        <time>2017-12-12T09:55:29Z</time>
      </trkpt>
      <trkpt lat="45.92484" lon="4.74605">
        <ele>171</ele>
        <time>2017-12-12T09:55:30Z</time>
      </trkpt>
      <trkpt lat="45.9248" lon="4.74612">
        <ele>171</ele>
        <time>2017-12-12T09:55:31Z</time>
      </trkpt>
      <trkpt lat="45.92475" lon="4.74618">
        <ele>171</ele>
        <time>2017-12-12T09:55:32Z</time>
      </trkpt>
      <trkpt lat="45.92471" lon="4.74624">
        <ele>171</ele>
        <time>2017-12-12T09:55:33Z</time>
      </trkpt>
      <trkpt lat="45.92467" lon="4.7463">
        <ele>171</ele>
        <time>2017-12-12T09:55:34Z</time>
      </trkpt>
      <trkpt lat="45.92463" lon="4.74637">
        <ele>171</ele>
        <time>2017-12-12T09:55:35Z</time>
      </trkpt>
      <trkpt lat="45.92459" lon="4.74643">
        <ele>171</ele>
        <time>2017-12-12T09:55:36Z</time>
      </trkpt>
      <trkpt lat="45.92455" lon="4.7465">
        <ele>171</ele>
        <time>2017-12-12T09:55:37Z</time>
      </trkpt>
      <trkpt lat="45.92451" lon="4.74657">
        <ele>171</ele>
        <time>2017-12-12T09:55:38Z</time>
      </trkpt>
      <trkpt lat="45.92448" lon="4.74664">
        <ele>171</ele>
        <time>2017-12-12T09:55:39Z</time>
      </trkpt>
      <trkpt lat="45.92446" lon="4.74669">
        <ele>171</ele>
        <time>2017-12-12T09:55:40Z</time>
      </trkpt>
      <trkpt lat="45.92442" lon="4.74675">
        <ele>171</ele>
        <time>2017-12-12T09:55:41Z</time>
      </trkpt>
      <trkpt lat="45.9244" lon="4.74683">
        <ele>171</ele>
        <time>2017-12-12T09:55:42Z</time>
      </trkpt>
      <trkpt lat="45.92437" lon="4.74689">
        <ele>171</ele>
        <time>2017-12-12T09:55:43Z</time>
      </trkpt>
      <trkpt lat="45.92433" lon="4.74695">
        <ele>171</ele>
        <time>2017-12-12T09:55:44Z</time>
      </trkpt>
      <trkpt lat="45.9243" lon="4.74703">
        <ele>171</ele>
        <time>2017-12-12T09:55:45Z</time>
      </trkpt>
      <trkpt lat="45.92427" lon="4.7471">
        <ele>171</ele>
        <time>2017-12-12T09:55:46Z</time>
      </trkpt>
      <trkpt lat="45.92424" lon="4.74718">
        <ele>171</ele>
        <time>2017-12-12T09:55:47Z</time>
      </trkpt>
      <trkpt lat="45.92422" lon="4.74725">
        <ele>171</ele>
        <time>2017-12-12T09:55:48Z</time>
      </trkpt>
      <trkpt lat="45.92419" lon="4.74733">
        <ele>171</ele>
        <time>2017-12-12T09:55:49Z</time>
      </trkpt>
      <trkpt lat="45.92417" lon="4.74742">
        <ele>172</ele>
        <time>2017-12-12T09:55:50Z</time>
      </trkpt>
      <trkpt lat="45.92415" lon="4.7475">
        <ele>172</ele>
        <time>2017-12-12T09:55:51Z</time>
      </trkpt>
      <trkpt lat="45.92412" lon="4.74759">
        <ele>172</ele>
        <time>2017-12-12T09:55:52Z</time>
      </trkpt>
      <trkpt lat="45.9241" lon="4.74767">
        <ele>172</ele>
        <time>2017-12-12T09:55:53Z</time>
      </trkpt>
      <trkpt lat="45.92408" lon="4.74775">
        <ele>171</ele>
        <time>2017-12-12T09:55:54Z</time>
      </trkpt>
      <trkpt lat="45.92406" lon="4.74784">
        <ele>171</ele>
        <time>2017-12-12T09:55:55Z</time>
      </trkpt>
      <trkpt lat="45.92403" lon="4.74792">
        <ele>171</ele>
        <time>2017-12-12T09:55:56Z</time>
      </trkpt>
      <trkpt lat="45.92402" lon="4.74801">
        <ele>171</ele>
        <time>2017-12-12T09:55:57Z</time>
      </trkpt>
      <trkpt lat="45.92401" lon="4.7481">
        <ele>171</ele>
        <time>2017-12-12T09:55:58Z</time>
      </trkpt>
      <trkpt lat="45.92399" lon="4.74817">
        <ele>171</ele>
        <time>2017-12-12T09:55:59Z</time>
      </trkpt>
      <trkpt lat="45.92397" lon="4.74826">
        <ele>171</ele>
        <time>2017-12-12T09:56:00Z</time>
      </trkpt>
      <trkpt lat="45.92395" lon="4.74835">
        <ele>171</ele>
        <time>2017-12-12T09:56:01Z</time>
      </trkpt>
      <trkpt lat="45.92393" lon="4.74843">
        <ele>171</ele>
        <time>2017-12-12T09:56:02Z</time>
      </trkpt>
      <trkpt lat="45.9239" lon="4.74851">
        <ele>171</ele>
        <time>2017-12-12T09:56:03Z</time>
      </trkpt>
      <trkpt lat="45.92388" lon="4.74858">
        <ele>171</ele>
        <time>2017-12-12T09:56:04Z</time>
      </trkpt>
      <trkpt lat="45.92386" lon="4.74866">
        <ele>171</ele>
        <time>2017-12-12T09:56:05Z</time>
      </trkpt>
      <trkpt lat="45.92384" lon="4.74874">
        <ele>171</ele>
        <time>2017-12-12T09:56:06Z</time>
      </trkpt>
      <trkpt lat="45.92381" lon="4.74881">
        <ele>171</ele>
        <time>2017-12-12T09:56:07Z</time>
      </trkpt>
      <trkpt lat="45.92379" lon="4.74889">
        <ele>171</ele>
        <time>2017-12-12T09:56:08Z</time>
      </trkpt>
      <trkpt lat="45.92375" lon="4.74895">
        <ele>171</ele>
        <time>2017-12-12T09:56:09Z</time>
      </trkpt>
      <trkpt lat="45.92372" lon="4.74903">
        <ele>171</ele>
        <time>2017-12-12T09:56:10Z</time>
      </trkpt>
      <trkpt lat="45.92369" lon="4.74911">
        <ele>171</ele>
        <time>2017-12-12T09:56:11Z</time>
      </trkpt>
      <trkpt lat="45.92367" lon="4.74919">
        <ele>170</ele>
        <time>2017-12-12T09:56:12Z</time>
      </trkpt>
      <trkpt lat="45.92364" lon="4.74926">
        <ele>170</ele>
        <time>2017-12-12T09:56:13Z</time>
      </trkpt>
      <trkpt lat="45.92361" lon="4.74934">
        <ele>170</ele>
        <time>2017-12-12T09:56:14Z</time>
      </trkpt>
      <trkpt lat="45.92358" lon="4.74942">
        <ele>170</ele>
        <time>2017-12-12T09:56:15Z</time>
      </trkpt>
      <trkpt lat="45.92355" lon="4.74949">
        <ele>170</ele>
        <time>2017-12-12T09:56:16Z</time>
      </trkpt>
      <trkpt lat="45.92352" lon="4.74957">
        <ele>170</ele>
        <time>2017-12-12T09:56:17Z</time>
      </trkpt>
      <trkpt lat="45.92349" lon="4.74963">
        <ele>170</ele>
        <time>2017-12-12T09:56:18Z</time>
      </trkpt>
      <trkpt lat="45.92346" lon="4.7497">
        <ele>170</ele>
        <time>2017-12-12T09:56:19Z</time>
      </trkpt>
      <trkpt lat="45.92344" lon="4.74976">
        <ele>170</ele>
        <time>2017-12-12T09:56:20Z</time>
      </trkpt>
      <trkpt lat="45.92344" lon="4.74984">
        <ele>170</ele>
        <time>2017-12-12T09:56:21Z</time>
      </trkpt>
      <trkpt lat="45.92341" lon="4.7499">
        <ele>170</ele>
        <time>2017-12-12T09:56:22Z</time>
      </trkpt>
      <trkpt lat="45.92338" lon="4.74996">
        <ele>170</ele>
        <time>2017-12-12T09:56:23Z</time>
      </trkpt>
      <trkpt lat="45.92335" lon="4.75004">
        <ele>170</ele>
        <time>2017-12-12T09:56:24Z</time>
      </trkpt>
      <trkpt lat="45.92333" lon="4.7501">
        <ele>171</ele>
        <time>2017-12-12T09:56:25Z</time>
      </trkpt>
      <trkpt lat="45.9233" lon="4.75017">
        <ele>171</ele>
        <time>2017-12-12T09:56:26Z</time>
      </trkpt>
      <trkpt lat="45.92327" lon="4.75024">
        <ele>171</ele>
        <time>2017-12-12T09:56:27Z</time>
      </trkpt>
      <trkpt lat="45.92323" lon="4.7503">
        <ele>171</ele>
        <time>2017-12-12T09:56:28Z</time>
      </trkpt>
      <trkpt lat="45.9232" lon="4.75036">
        <ele>171</ele>
        <time>2017-12-12T09:56:29Z</time>
      </trkpt>
      <trkpt lat="45.92316" lon="4.75043">
        <ele>172</ele>
        <time>2017-12-12T09:56:30Z</time>
      </trkpt>
      <trkpt lat="45.92312" lon="4.75049">
        <ele>172</ele>
        <time>2017-12-12T09:56:31Z</time>
      </trkpt>
      <trkpt lat="45.92308" lon="4.75054">
        <ele>172</ele>
        <time>2017-12-12T09:56:32Z</time>
      </trkpt>
      <trkpt lat="45.92304" lon="4.7506">
        <ele>172</ele>
        <time>2017-12-12T09:56:33Z</time>
      </trkpt>
      <trkpt lat="45.92299" lon="4.75065">
        <ele>172</ele>
        <time>2017-12-12T09:56:34Z</time>
      </trkpt>
      <trkpt lat="45.92295" lon="4.7507">
        <ele>172</ele>
        <time>2017-12-12T09:56:35Z</time>
      </trkpt>
      <trkpt lat="45.9229" lon="4.75075">
        <ele>172</ele>
        <time>2017-12-12T09:56:36Z</time>
      </trkpt>
      <trkpt lat="45.92286" lon="4.7508">
        <ele>172</ele>
        <time>2017-12-12T09:56:37Z</time>
      </trkpt>
      <trkpt lat="45.92282" lon="4.75085">
        <ele>173</ele>
        <time>2017-12-12T09:56:38Z</time>
      </trkpt>
      <trkpt lat="45.92279" lon="4.75088">
        <ele>173</ele>
        <time>2017-12-12T09:56:39Z</time>
      </trkpt>
      <trkpt lat="45.92274" lon="4.75093">
        <ele>173</ele>
        <time>2017-12-12T09:56:40Z</time>
      </trkpt>
      <trkpt lat="45.9227" lon="4.75097">
        <ele>173</ele>
        <time>2017-12-12T09:56:41Z</time>
      </trkpt>
      <trkpt lat="45.92265" lon="4.75101">
        <ele>173</ele>
        <time>2017-12-12T09:56:42Z</time>
      </trkpt>
      <trkpt lat="45.92261" lon="4.75106">
        <ele>174</ele>
        <time>2017-12-12T09:56:43Z</time>
      </trkpt>
      <trkpt lat="45.92256" lon="4.75111">
        <ele>174</ele>
        <time>2017-12-12T09:56:44Z</time>
      </trkpt>
      <trkpt lat="45.92251" lon="4.75115">
        <ele>174</ele>
        <time>2017-12-12T09:56:45Z</time>
      </trkpt>
      <trkpt lat="45.92248" lon="4.7512">
        <ele>174</ele>
        <time>2017-12-12T09:56:46Z</time>
      </trkpt>
      <trkpt lat="45.92244" lon="4.75125">
        <ele>174</ele>
        <time>2017-12-12T09:56:47Z</time>
      </trkpt>
      <trkpt lat="45.92239" lon="4.75131">
        <ele>174</ele>
        <time>2017-12-12T09:56:48Z</time>
      </trkpt>
      <trkpt lat="45.92237" lon="4.75137">
        <ele>174</ele>
        <time>2017-12-12T09:56:49Z</time>
      </trkpt>
      <trkpt lat="45.92233" lon="4.75144">
        <ele>174</ele>
        <time>2017-12-12T09:56:50Z</time>
      </trkpt>
      <trkpt lat="45.9223" lon="4.75151">
        <ele>174</ele>
        <time>2017-12-12T09:56:51Z</time>
      </trkpt>
      <trkpt lat="45.92227" lon="4.75158">
        <ele>174</ele>
        <time>2017-12-12T09:56:52Z</time>
      </trkpt>
      <trkpt lat="45.92225" lon="4.75165">
        <ele>174</ele>
        <time>2017-12-12T09:56:53Z</time>
      </trkpt>
      <trkpt lat="45.92222" lon="4.75172">
        <ele>175</ele>
        <time>2017-12-12T09:56:54Z</time>
      </trkpt>
      <trkpt lat="45.9222" lon="4.7518">
        <ele>175</ele>
        <time>2017-12-12T09:56:55Z</time>
      </trkpt>
      <trkpt lat="45.92218" lon="4.75187">
        <ele>175</ele>
        <time>2017-12-12T09:56:56Z</time>
      </trkpt>
      <trkpt lat="45.92216" lon="4.75194">
        <ele>175</ele>
        <time>2017-12-12T09:56:57Z</time>
      </trkpt>
      <trkpt lat="45.92214" lon="4.75201">
        <ele>175</ele>
        <time>2017-12-12T09:56:58Z</time>
      </trkpt>
      <trkpt lat="45.92212" lon="4.75209">
        <ele>175</ele>
        <time>2017-12-12T09:56:59Z</time>
      </trkpt>
      <trkpt lat="45.92211" lon="4.75216">
        <ele>175</ele>
        <time>2017-12-12T09:57:00Z</time>
      </trkpt>
      <trkpt lat="45.9221" lon="4.75224">
        <ele>175</ele>
        <time>2017-12-12T09:57:01Z</time>
      </trkpt>
      <trkpt lat="45.9221" lon="4.75231">
        <ele>175</ele>
        <time>2017-12-12T09:57:02Z</time>
      </trkpt>
      <trkpt lat="45.9221" lon="4.75238">
        <ele>175</ele>
        <time>2017-12-12T09:57:03Z</time>
      </trkpt>
      <trkpt lat="45.92209" lon="4.75245">
        <ele>175</ele>
        <time>2017-12-12T09:57:04Z</time>
      </trkpt>
      <trkpt lat="45.92211" lon="4.75253">
        <ele>175</ele>
        <time>2017-12-12T09:57:05Z</time>
      </trkpt>
      <trkpt lat="45.9221" lon="4.7526">
        <ele>176</ele>
        <time>2017-12-12T09:57:06Z</time>
      </trkpt>
      <trkpt lat="45.9221" lon="4.75267">
        <ele>176</ele>
        <time>2017-12-12T09:57:07Z</time>
      </trkpt>
      <trkpt lat="45.92211" lon="4.75273">
        <ele>176</ele>
        <time>2017-12-12T09:57:08Z</time>
      </trkpt>
      <trkpt lat="45.9221" lon="4.7528">
        <ele>176</ele>
        <time>2017-12-12T09:57:09Z</time>
      </trkpt>
      <trkpt lat="45.9221" lon="4.75286">
        <ele>176</ele>
        <time>2017-12-12T09:57:10Z</time>
      </trkpt>
      <trkpt lat="45.92209" lon="4.75293">
        <ele>176</ele>
        <time>2017-12-12T09:57:11Z</time>
      </trkpt>
      <trkpt lat="45.92209" lon="4.753">
        <ele>176</ele>
        <time>2017-12-12T09:57:12Z</time>
      </trkpt>
      <trkpt lat="45.92208" lon="4.75307">
        <ele>176</ele>
        <time>2017-12-12T09:57:13Z</time>
      </trkpt>
      <trkpt lat="45.92206" lon="4.75319">
        <ele>176</ele>
        <time>2017-12-12T09:57:15Z</time>
      </trkpt>
      <trkpt lat="45.92204" lon="4.75325">
        <ele>176</ele>
        <time>2017-12-12T09:57:16Z</time>
      </trkpt>
      <trkpt lat="45.92204" lon="4.75332">
        <ele>176</ele>
        <time>2017-12-12T09:57:17Z</time>
      </trkpt>
      <trkpt lat="45.92204" lon="4.75338">
        <ele>177</ele>
        <time>2017-12-12T09:57:18Z</time>
      </trkpt>
      <trkpt lat="45.922" lon="4.7535">
        <ele>177</ele>
        <time>2017-12-12T09:57:20Z</time>
      </trkpt>
      <trkpt lat="45.92197" lon="4.75356">
        <ele>177</ele>
        <time>2017-12-12T09:57:21Z</time>
      </trkpt>
      <trkpt lat="45.92195" lon="4.75362">
        <ele>177</ele>
        <time>2017-12-12T09:57:22Z</time>
      </trkpt>
      <trkpt lat="45.92193" lon="4.75368">
        <ele>177</ele>
        <time>2017-12-12T09:57:23Z</time>
      </trkpt>
      <trkpt lat="45.92191" lon="4.75375">
        <ele>177</ele>
        <time>2017-12-12T09:57:24Z</time>
      </trkpt>
      <trkpt lat="45.92189" lon="4.75382">
        <ele>177</ele>
        <time>2017-12-12T09:57:25Z</time>
      </trkpt>
      <trkpt lat="45.92187" lon="4.75389">
        <ele>177</ele>
        <time>2017-12-12T09:57:26Z</time>
      </trkpt>
      <trkpt lat="45.92185" lon="4.75396">
        <ele>177</ele>
        <time>2017-12-12T09:57:27Z</time>
      </trkpt>
      <trkpt lat="45.92182" lon="4.75403">
        <ele>177</ele>
        <time>2017-12-12T09:57:28Z</time>
      </trkpt>
      <trkpt lat="45.92179" lon="4.7541">
        <ele>177</ele>
        <time>2017-12-12T09:57:29Z</time>
      </trkpt>
      <trkpt lat="45.92177" lon="4.75416">
        <ele>178</ele>
        <time>2017-12-12T09:57:30Z</time>
      </trkpt>
      <trkpt lat="45.92175" lon="4.75423">
        <ele>177</ele>
        <time>2017-12-12T09:57:31Z</time>
      </trkpt>
      <trkpt lat="45.92172" lon="4.75431">
        <ele>177</ele>
        <time>2017-12-12T09:57:32Z</time>
      </trkpt>
      <trkpt lat="45.9217" lon="4.75438">
        <ele>177</ele>
        <time>2017-12-12T09:57:33Z</time>
      </trkpt>
      <trkpt lat="45.92167" lon="4.75445">
        <ele>176</ele>
        <time>2017-12-12T09:57:34Z</time>
      </trkpt>
      <trkpt lat="45.92163" lon="4.75451">
        <ele>176</ele>
        <time>2017-12-12T09:57:35Z</time>
      </trkpt>
      <trkpt lat="45.9216" lon="4.75457">
        <ele>176</ele>
        <time>2017-12-12T09:57:36Z</time>
      </trkpt>
      <trkpt lat="45.92156" lon="4.75464">
        <ele>176</ele>
        <time>2017-12-12T09:57:37Z</time>
      </trkpt>
      <trkpt lat="45.92154" lon="4.7547">
        <ele>176</ele>
        <time>2017-12-12T09:57:38Z</time>
      </trkpt>
      <trkpt lat="45.92151" lon="4.75476">
        <ele>176</ele>
        <time>2017-12-12T09:57:39Z</time>
      </trkpt>
      <trkpt lat="45.92147" lon="4.75481">
        <ele>176</ele>
        <time>2017-12-12T09:57:40Z</time>
      </trkpt>
      <trkpt lat="45.92144" lon="4.75488">
        <ele>176</ele>
        <time>2017-12-12T09:57:41Z</time>
      </trkpt>
      <trkpt lat="45.92141" lon="4.75495">
        <ele>176</ele>
        <time>2017-12-12T09:57:42Z</time>
      </trkpt>
      <trkpt lat="45.92139" lon="4.75501">
        <ele>174</ele>
        <time>2017-12-12T09:57:43Z</time>
      </trkpt>
      <trkpt lat="45.92136" lon="4.75507">
        <ele>174</ele>
        <time>2017-12-12T09:57:44Z</time>
      </trkpt>
      <trkpt lat="45.92132" lon="4.75514">
        <ele>174</ele>
        <time>2017-12-12T09:57:45Z</time>
      </trkpt>
      <trkpt lat="45.92129" lon="4.75521">
        <ele>174</ele>
        <time>2017-12-12T09:57:46Z</time>
      </trkpt>
      <trkpt lat="45.92126" lon="4.75527">
        <ele>174</ele>
        <time>2017-12-12T09:57:47Z</time>
      </trkpt>
      <trkpt lat="45.92123" lon="4.75533">
        <ele>174</ele>
        <time>2017-12-12T09:57:48Z</time>
      </trkpt>
      <trkpt lat="45.9212" lon="4.75541">
        <ele>174</ele>
        <time>2017-12-12T09:57:49Z</time>
      </trkpt>
      <trkpt lat="45.92118" lon="4.75547">
        <ele>174</ele>
        <time>2017-12-12T09:57:50Z</time>
      </trkpt>
      <trkpt lat="45.92114" lon="4.75553">
        <ele>174</ele>
        <time>2017-12-12T09:57:51Z</time>
      </trkpt>
      <trkpt lat="45.92112" lon="4.75559">
        <ele>174</ele>
        <time>2017-12-12T09:57:52Z</time>
      </trkpt>
      <trkpt lat="45.9211" lon="4.75566">
        <ele>174</ele>
        <time>2017-12-12T09:57:53Z</time>
      </trkpt>
      <trkpt lat="45.92108" lon="4.75573">
        <ele>174</ele>
        <time>2017-12-12T09:57:54Z</time>
      </trkpt>
      <trkpt lat="45.92108" lon="4.7558">
        <ele>174</ele>
        <time>2017-12-12T09:57:55Z</time>
      </trkpt>
      <trkpt lat="45.9211" lon="4.75586">
        <ele>174</ele>
        <time>2017-12-12T09:57:56Z</time>
      </trkpt>
      <trkpt lat="45.92114" lon="4.75591">
        <ele>174</ele>
        <time>2017-12-12T09:57:57Z</time>
      </trkpt>
      <trkpt lat="45.92118" lon="4.75595">
        <ele>174</ele>
        <time>2017-12-12T09:57:58Z</time>
      </trkpt>
      <trkpt lat="45.92122" lon="4.75599">
        <ele>174</ele>
        <time>2017-12-12T09:57:59Z</time>
      </trkpt>
      <trkpt lat="45.92127" lon="4.75603">
        <ele>174</ele>
        <time>2017-12-12T09:58:00Z</time>
      </trkpt>
      <trkpt lat="45.92131" lon="4.75607">
        <ele>174</ele>
        <time>2017-12-12T09:58:01Z</time>
      </trkpt>
      <trkpt lat="45.92136" lon="4.75612">
        <ele>174</ele>
        <time>2017-12-12T09:58:02Z</time>
      </trkpt>
      <trkpt lat="45.92142" lon="4.75616">
        <ele>174</ele>
        <time>2017-12-12T09:58:03Z</time>
      </trkpt>
      <trkpt lat="45.92147" lon="4.7562">
        <ele>174</ele>
        <time>2017-12-12T09:58:04Z</time>
      </trkpt>
      <trkpt lat="45.92152" lon="4.75624">
        <ele>174</ele>
        <time>2017-12-12T09:58:05Z</time>
      </trkpt>
      <trkpt lat="45.92156" lon="4.75629">
        <ele>174</ele>
        <time>2017-12-12T09:58:06Z</time>
      </trkpt>
      <trkpt lat="45.92161" lon="4.75633">
        <ele>174</ele>
        <time>2017-12-12T09:58:07Z</time>
      </trkpt>
      <trkpt lat="45.92165" lon="4.75638">
        <ele>174</ele>
        <time>2017-12-12T09:58:08Z</time>
      </trkpt>
      <trkpt lat="45.92169" lon="4.75642">
        <ele>174</ele>
        <time>2017-12-12T09:58:09Z</time>
      </trkpt>
      <trkpt lat="45.92174" lon="4.75646">
        <ele>174</ele>
        <time>2017-12-12T09:58:10Z</time>
      </trkpt>
      <trkpt lat="45.92178" lon="4.7565">
        <ele>174</ele>
        <time>2017-12-12T09:58:11Z</time>
      </trkpt>
      <trkpt lat="45.92182" lon="4.75654">
        <ele>174</ele>
        <time>2017-12-12T09:58:12Z</time>
      </trkpt>
      <trkpt lat="45.92186" lon="4.75659">
        <ele>174</ele>
        <time>2017-12-12T09:58:13Z</time>
      </trkpt>
      <trkpt lat="45.92191" lon="4.75663">
        <ele>174</ele>
        <time>2017-12-12T09:58:14Z</time>
      </trkpt>
      <trkpt lat="45.92195" lon="4.75667">
        <ele>174</ele>
        <time>2017-12-12T09:58:15Z</time>
      </trkpt>
      <trkpt lat="45.92203" lon="4.75674">
        <ele>174</ele>
        <time>2017-12-12T09:58:17Z</time>
      </trkpt>
      <trkpt lat="45.92207" lon="4.75678">
        <ele>174</ele>
        <time>2017-12-12T09:58:18Z</time>
      </trkpt>
      <trkpt lat="45.92211" lon="4.75682">
        <ele>174</ele>
        <time>2017-12-12T09:58:19Z</time>
      </trkpt>
      <trkpt lat="45.92215" lon="4.75686">
        <ele>174</ele>
        <time>2017-12-12T09:58:20Z</time>
      </trkpt>
      <trkpt lat="45.9222" lon="4.7569">
        <ele>174</ele>
        <time>2017-12-12T09:58:21Z</time>
      </trkpt>
      <trkpt lat="45.92224" lon="4.75694">
        <ele>174</ele>
        <time>2017-12-12T09:58:22Z</time>
      </trkpt>
      <trkpt lat="45.92229" lon="4.75698">
        <ele>174</ele>
        <time>2017-12-12T09:58:23Z</time>
      </trkpt>
      <trkpt lat="45.92233" lon="4.75703">
        <ele>174</ele>
        <time>2017-12-12T09:58:24Z</time>
      </trkpt>
      <trkpt lat="45.92237" lon="4.75708">
        <ele>174</ele>
        <time>2017-12-12T09:58:25Z</time>
      </trkpt>
      <trkpt lat="45.9224" lon="4.75713">
        <ele>174</ele>
        <time>2017-12-12T09:58:26Z</time>
      </trkpt>
      <trkpt lat="45.92244" lon="4.75718">
        <ele>174</ele>
        <time>2017-12-12T09:58:27Z</time>
      </trkpt>
      <trkpt lat="45.92245" lon="4.75726">
        <ele>174</ele>
        <time>2017-12-12T09:58:28Z</time>
      </trkpt>
      <trkpt lat="45.92247" lon="4.75732">
        <ele>174</ele>
        <time>2017-12-12T09:58:29Z</time>
      </trkpt>
      <trkpt lat="45.92248" lon="4.75741">
        <ele>174</ele>
        <time>2017-12-12T09:58:30Z</time>
      </trkpt>
      <trkpt lat="45.92249" lon="4.75748">
        <ele>174</ele>
        <time>2017-12-12T09:58:31Z</time>
      </trkpt>
      <trkpt lat="45.92251" lon="4.75754">
        <ele>174</ele>
        <time>2017-12-12T09:58:32Z</time>
      </trkpt>
      <trkpt lat="45.92252" lon="4.75761">
        <ele>174</ele>
        <time>2017-12-12T09:58:33Z</time>
      </trkpt>
      <trkpt lat="45.92253" lon="4.75768">
        <ele>174</ele>
        <time>2017-12-12T09:58:34Z</time>
      </trkpt>
      <trkpt lat="45.92254" lon="4.75775">
        <ele>174</ele>
        <time>2017-12-12T09:58:35Z</time>
      </trkpt>
      <trkpt lat="45.92255" lon="4.75782">
        <ele>174</ele>
        <time>2017-12-12T09:58:36Z</time>
      </trkpt>
      <trkpt lat="45.92256" lon="4.75789">
        <ele>174</ele>
        <time>2017-12-12T09:58:37Z</time>
      </trkpt>
      <trkpt lat="45.92257" lon="4.75795">
        <ele>174</ele>
        <time>2017-12-12T09:58:38Z</time>
      </trkpt>
      <trkpt lat="45.92259" lon="4.75801">
        <ele>174</ele>
        <time>2017-12-12T09:58:39Z</time>
      </trkpt>
      <trkpt lat="45.92262" lon="4.75807">
        <ele>174</ele>
        <time>2017-12-12T09:58:40Z</time>
      </trkpt>
      <trkpt lat="45.92264" lon="4.75814">
        <ele>174</ele>
        <time>2017-12-12T09:58:41Z</time>
      </trkpt>
      <trkpt lat="45.92268" lon="4.75819">
        <ele>174</ele>
        <time>2017-12-12T09:58:42Z</time>
      </trkpt>
      <trkpt lat="45.92274" lon="4.75828">
        <ele>174</ele>
        <time>2017-12-12T09:58:44Z</time>
      </trkpt>
      <trkpt lat="45.92278" lon="4.75831">
        <ele>174</ele>
        <time>2017-12-12T09:58:45Z</time>
      </trkpt>
      <trkpt lat="45.92283" lon="4.75834">
        <ele>173</ele>
        <time>2017-12-12T09:58:46Z</time>
      </trkpt>
      <trkpt lat="45.92287" lon="4.75836">
        <ele>173</ele>
        <time>2017-12-12T09:58:47Z</time>
      </trkpt>
      <trkpt lat="45.92294" lon="4.75842">
        <ele>173</ele>
        <time>2017-12-12T09:58:49Z</time>
      </trkpt>
      <trkpt lat="45.92299" lon="4.75846">
        <ele>173</ele>
        <time>2017-12-12T09:58:50Z</time>
      </trkpt>
      <trkpt lat="45.92304" lon="4.75849">
        <ele>173</ele>
        <time>2017-12-12T09:58:51Z</time>
      </trkpt>
      <trkpt lat="45.92309" lon="4.75851">
        <ele>173</ele>
        <time>2017-12-12T09:58:52Z</time>
      </trkpt>
      <trkpt lat="45.92315" lon="4.75855">
        <ele>173</ele>
        <time>2017-12-12T09:58:53Z</time>
      </trkpt>
      <trkpt lat="45.9232" lon="4.75858">
        <ele>173</ele>
        <time>2017-12-12T09:58:54Z</time>
      </trkpt>
      <trkpt lat="45.92325" lon="4.75861">
        <ele>173</ele>
        <time>2017-12-12T09:58:55Z</time>
      </trkpt>
      <trkpt lat="45.9233" lon="4.75863">
        <ele>173</ele>
        <time>2017-12-12T09:58:56Z</time>
      </trkpt>
      <trkpt lat="45.92336" lon="4.75867">
        <ele>173</ele>
        <time>2017-12-12T09:58:57Z</time>
      </trkpt>
      <trkpt lat="45.9234" lon="4.75871">
        <ele>173</ele>
        <time>2017-12-12T09:58:58Z</time>
      </trkpt>
      <trkpt lat="45.92345" lon="4.75874">
        <ele>173</ele>
        <time>2017-12-12T09:58:59Z</time>
      </trkpt>
      <trkpt lat="45.9235" lon="4.75877">
        <ele>173</ele>
        <time>2017-12-12T09:59:00Z</time>
      </trkpt>
      <trkpt lat="45.92357" lon="4.7588">
        <ele>173</ele>
        <time>2017-12-12T09:59:01Z</time>
      </trkpt>
      <trkpt lat="45.92362" lon="4.75883">
        <ele>173</ele>
        <time>2017-12-12T09:59:02Z</time>
      </trkpt>
      <trkpt lat="45.92367" lon="4.75886">
        <ele>173</ele>
        <time>2017-12-12T09:59:03Z</time>
      </trkpt>
      <trkpt lat="45.92371" lon="4.7589">
        <ele>173</ele>
        <time>2017-12-12T09:59:04Z</time>
      </trkpt>
      <trkpt lat="45.92376" lon="4.75893">
        <ele>173</ele>
        <time>2017-12-12T09:59:05Z</time>
      </trkpt>
      <trkpt lat="45.9238" lon="4.75896">
        <ele>173</ele>
        <time>2017-12-12T09:59:06Z</time>
      </trkpt>
      <trkpt lat="45.92385" lon="4.75899">
        <ele>173</ele>
        <time>2017-12-12T09:59:07Z</time>
      </trkpt>
      <trkpt lat="45.9239" lon="4.75902">
        <ele>173</ele>
        <time>2017-12-12T09:59:08Z</time>
      </trkpt>
      <trkpt lat="45.92394" lon="4.75907">
        <ele>173</ele>
        <time>2017-12-12T09:59:09Z</time>
      </trkpt>
      <trkpt lat="45.92399" lon="4.7591">
        <ele>173</ele>
        <time>2017-12-12T09:59:10Z</time>
      </trkpt>
      <trkpt lat="45.92403" lon="4.75914">
        <ele>172</ele>
        <time>2017-12-12T09:59:11Z</time>
      </trkpt>
      <trkpt lat="45.92408" lon="4.75917">
        <ele>172</ele>
        <time>2017-12-12T09:59:12Z</time>
      </trkpt>
      <trkpt lat="45.92414" lon="4.75921">
        <ele>172</ele>
        <time>2017-12-12T09:59:13Z</time>
      </trkpt>
      <trkpt lat="45.92418" lon="4.75925">
        <ele>172</ele>
        <time>2017-12-12T09:59:14Z</time>
      </trkpt>
      <trkpt lat="45.92424" lon="4.75929">
        <ele>172</ele>
        <time>2017-12-12T09:59:15Z</time>
      </trkpt>
      <trkpt lat="45.92428" lon="4.75932">
        <ele>172</ele>
        <time>2017-12-12T09:59:16Z</time>
      </trkpt>
      <trkpt lat="45.92432" lon="4.75935">
        <ele>172</ele>
        <time>2017-12-12T09:59:17Z</time>
      </trkpt>
      <trkpt lat="45.92438" lon="4.75939">
        <ele>172</ele>
        <time>2017-12-12T09:59:18Z</time>
      </trkpt>
      <trkpt lat="45.92443" lon="4.75942">
        <ele>172</ele>
        <time>2017-12-12T09:59:19Z</time>
      </trkpt>
      <trkpt lat="45.92448" lon="4.75945">
        <ele>172</ele>
        <time>2017-12-12T09:59:20Z</time>
      </trkpt>
      <trkpt lat="45.92453" lon="4.75949">
        <ele>172</ele>
        <time>2017-12-12T09:59:21Z</time>
      </trkpt>
      <trkpt lat="45.92457" lon="4.75953">
        <ele>172</ele>
        <time>2017-12-12T09:59:22Z</time>
      </trkpt>
      <trkpt lat="45.92462" lon="4.75957">
        <ele>172</ele>
        <time>2017-12-12T09:59:23Z</time>
      </trkpt>
      <trkpt lat="45.92466" lon="4.75961">
        <ele>172</ele>
        <time>2017-12-12T09:59:24Z</time>
      </trkpt>
      <trkpt lat="45.92471" lon="4.75965">
        <ele>172</ele>
        <time>2017-12-12T09:59:25Z</time>
      </trkpt>
      <trkpt lat="45.92475" lon="4.75968">
        <ele>172</ele>
        <time>2017-12-12T09:59:26Z</time>
      </trkpt>
      <trkpt lat="45.92481" lon="4.75972">
        <ele>172</ele>
        <time>2017-12-12T09:59:27Z</time>
      </trkpt>
      <trkpt lat="45.92485" lon="4.75976">
        <ele>172</ele>
        <time>2017-12-12T09:59:28Z</time>
      </trkpt>
      <trkpt lat="45.92489" lon="4.7598">
        <ele>172</ele>
        <time>2017-12-12T09:59:29Z</time>
      </trkpt>
      <trkpt lat="45.92494" lon="4.75985">
        <ele>172</ele>
        <time>2017-12-12T09:59:30Z</time>
      </trkpt>
      <trkpt lat="45.92499" lon="4.75988">
        <ele>172</ele>
        <time>2017-12-12T09:59:31Z</time>
      </trkpt>
      <trkpt lat="45.92503" lon="4.75991">
        <ele>172</ele>
        <time>2017-12-12T09:59:32Z</time>
      </trkpt>
      <trkpt lat="45.92509" lon="4.75994">
        <ele>172</ele>
        <time>2017-12-12T09:59:33Z</time>
      </trkpt>
      <trkpt lat="45.92514" lon="4.75998">
        <ele>172</ele>
        <time>2017-12-12T09:59:34Z</time>
      </trkpt>
      <trkpt lat="45.92519" lon="4.76">
        <ele>172</ele>
        <time>2017-12-12T09:59:35Z</time>
      </trkpt>
      <trkpt lat="45.92523" lon="4.76004">
        <ele>172</ele>
        <time>2017-12-12T09:59:36Z</time>
      </trkpt>
      <trkpt lat="45.92528" lon="4.76007">
        <ele>172</ele>
        <time>2017-12-12T09:59:37Z</time>
      </trkpt>
      <trkpt lat="45.92533" lon="4.7601">
        <ele>172</ele>
        <time>2017-12-12T09:59:38Z</time>
      </trkpt>
      <trkpt lat="45.92537" lon="4.76012">
        <ele>172</ele>
        <time>2017-12-12T09:59:39Z</time>
      </trkpt>
      <trkpt lat="45.92541" lon="4.76016">
        <ele>172</ele>
        <time>2017-12-12T09:59:40Z</time>
      </trkpt>
      <trkpt lat="45.92545" lon="4.76019">
        <ele>172</ele>
        <time>2017-12-12T09:59:41Z</time>
      </trkpt>
      <trkpt lat="45.92549" lon="4.76023">
        <ele>172</ele>
        <time>2017-12-12T09:59:42Z</time>
      </trkpt>
      <trkpt lat="45.92554" lon="4.76026">
        <ele>172</ele>
        <time>2017-12-12T09:59:43Z</time>
      </trkpt>
      <trkpt lat="45.92558" lon="4.76029">
        <ele>172</ele>
        <time>2017-12-12T09:59:44Z</time>
      </trkpt>
      <trkpt lat="45.92562" lon="4.76032">
        <ele>172</ele>
        <time>2017-12-12T09:59:45Z</time>
      </trkpt>
      <trkpt lat="45.92567" lon="4.76035">
        <ele>172</ele>
        <time>2017-12-12T09:59:46Z</time>
      </trkpt>
      <trkpt lat="45.92572" lon="4.76038">
        <ele>172</ele>
        <time>2017-12-12T09:59:47Z</time>
      </trkpt>
      <trkpt lat="45.92575" lon="4.76042">
        <ele>172</ele>
        <time>2017-12-12T09:59:48Z</time>
      </trkpt>
      <trkpt lat="45.9258" lon="4.76045">
        <ele>171</ele>
        <time>2017-12-12T09:59:49Z</time>
      </trkpt>
      <trkpt lat="45.92585" lon="4.76049">
        <ele>171</ele>
        <time>2017-12-12T09:59:50Z</time>
      </trkpt>
      <trkpt lat="45.9259" lon="4.76052">
        <ele>171</ele>
        <time>2017-12-12T09:59:51Z</time>
      </trkpt>
      <trkpt lat="45.92595" lon="4.76055">
        <ele>171</ele>
        <time>2017-12-12T09:59:52Z</time>
      </trkpt>
      <trkpt lat="45.926" lon="4.76058">
        <ele>171</ele>
        <time>2017-12-12T09:59:53Z</time>
      </trkpt>
      <trkpt lat="45.92604" lon="4.76062">
        <ele>171</ele>
        <time>2017-12-12T09:59:54Z</time>
      </trkpt>
      <trkpt lat="45.9261" lon="4.76065">
        <ele>171</ele>
        <time>2017-12-12T09:59:55Z</time>
      </trkpt>
      <trkpt lat="45.92615" lon="4.76068">
        <ele>171</ele>
        <time>2017-12-12T09:59:56Z</time>
      </trkpt>
      <trkpt lat="45.92621" lon="4.76072">
        <ele>171</ele>
        <time>2017-12-12T09:59:57Z</time>
      </trkpt>
      <trkpt lat="45.92626" lon="4.76076">
        <ele>170</ele>
        <time>2017-12-12T09:59:58Z</time>
      </trkpt>
      <trkpt lat="45.9263" lon="4.7608">
        <ele>170</ele>
        <time>2017-12-12T09:59:59Z</time>
      </trkpt>
      <trkpt lat="45.92637" lon="4.76085">
        <ele>170</ele>
        <time>2017-12-12T10:00:00Z</time>
      </trkpt>
      <trkpt lat="45.92642" lon="4.76089">
        <ele>170</ele>
        <time>2017-12-12T10:00:01Z</time>
      </trkpt>
      <trkpt lat="45.92648" lon="4.76093">
        <ele>170</ele>
        <time>2017-12-12T10:00:02Z</time>
      </trkpt>
      <trkpt lat="45.92655" lon="4.76097">
        <ele>170</ele>
        <time>2017-12-12T10:00:03Z</time>
      </trkpt>
      <trkpt lat="45.92662" lon="4.76102">
        <ele>170</ele>
        <time>2017-12-12T10:00:04Z</time>
      </trkpt>
      <trkpt lat="45.92669" lon="4.76106">
        <ele>169</ele>
        <time>2017-12-12T10:00:05Z</time>
      </trkpt>
      <trkpt lat="45.92675" lon="4.7611">
        <ele>169</ele>
        <time>2017-12-12T10:00:06Z</time>
      </trkpt>
      <trkpt lat="45.92683" lon="4.76114">
        <ele>169</ele>
        <time>2017-12-12T10:00:07Z</time>
      </trkpt>
      <trkpt lat="45.9269" lon="4.76118">
        <ele>169</ele>
        <time>2017-12-12T10:00:08Z</time>
      </trkpt>
      <trkpt lat="45.92697" lon="4.76122">
        <ele>169</ele>
        <time>2017-12-12T10:00:09Z</time>
      </trkpt>
      <trkpt lat="45.92704" lon="4.76127">
        <ele>169</ele>
        <time>2017-12-12T10:00:10Z</time>
      </trkpt>
      <trkpt lat="45.9271" lon="4.76132">
        <ele>168</ele>
        <time>2017-12-12T10:00:11Z</time>
      </trkpt>
      <trkpt lat="45.92717" lon="4.76136">
        <ele>168</ele>
        <time>2017-12-12T10:00:12Z</time>
      </trkpt>
      <trkpt lat="45.92724" lon="4.76141">
        <ele>168</ele>
        <time>2017-12-12T10:00:13Z</time>
      </trkpt>
      <trkpt lat="45.92731" lon="4.76145">
        <ele>168</ele>
        <time>2017-12-12T10:00:14Z</time>
      </trkpt>
      <trkpt lat="45.92738" lon="4.7615">
        <ele>168</ele>
        <time>2017-12-12T10:00:15Z</time>
      </trkpt>
      <trkpt lat="45.92744" lon="4.76154">
        <ele>168</ele>
        <time>2017-12-12T10:00:16Z</time>
      </trkpt>
      <trkpt lat="45.9275" lon="4.76158">
        <ele>167</ele>
        <time>2017-12-12T10:00:17Z</time>
      </trkpt>
      <trkpt lat="45.92756" lon="4.76164">
        <ele>167</ele>
        <time>2017-12-12T10:00:18Z</time>
      </trkpt>
      <trkpt lat="45.92762" lon="4.76168">
        <ele>167</ele>
        <time>2017-12-12T10:00:19Z</time>
      </trkpt>
      <trkpt lat="45.92767" lon="4.76174">
        <ele>167</ele>
        <time>2017-12-12T10:00:20Z</time>
      </trkpt>
      <trkpt lat="45.92773" lon="4.76178">
        <ele>167</ele>
        <time>2017-12-12T10:00:21Z</time>
      </trkpt>
      <trkpt lat="45.92778" lon="4.76183">
        <ele>168</ele>
        <time>2017-12-12T10:00:22Z</time>
      </trkpt>
      <trkpt lat="45.92783" lon="4.76188">
        <ele>168</ele>
        <time>2017-12-12T10:00:23Z</time>
      </trkpt>
      <trkpt lat="45.92787" lon="4.76191">
        <ele>168</ele>
        <time>2017-12-12T10:00:24Z</time>
      </trkpt>
      <trkpt lat="45.92793" lon="4.76197">
        <ele>168</ele>
        <time>2017-12-12T10:00:25Z</time>
      </trkpt>
      <trkpt lat="45.92797" lon="4.76202">
        <ele>168</ele>
        <time>2017-12-12T10:00:26Z</time>
      </trkpt>
      <trkpt lat="45.92802" lon="4.76207">
        <ele>168</ele>
        <time>2017-12-12T10:00:27Z</time>
      </trkpt>
      <trkpt lat="45.92807" lon="4.76211">
        <ele>168</ele>
        <time>2017-12-12T10:00:28Z</time>
      </trkpt>
      <trkpt lat="45.92811" lon="4.76216">
        <ele>168</ele>
        <time>2017-12-12T10:00:29Z</time>
      </trkpt>
      <trkpt lat="45.92816" lon="4.76221">
        <ele>168</ele>
        <time>2017-12-12T10:00:30Z</time>
      </trkpt>
      <trkpt lat="45.92821" lon="4.76225">
        <ele>168</ele>
        <time>2017-12-12T10:00:31Z</time>
      </trkpt>
      <trkpt lat="45.92826" lon="4.76229">
        <ele>168</ele>
        <time>2017-12-12T10:00:32Z</time>
      </trkpt>
      <trkpt lat="45.92831" lon="4.76234">
        <ele>168</ele>
        <time>2017-12-12T10:00:33Z</time>
      </trkpt>
      <trkpt lat="45.92835" lon="4.76238">
        <ele>169</ele>
        <time>2017-12-12T10:00:34Z</time>
      </trkpt>
      <trkpt lat="45.9284" lon="4.76243">
        <ele>169</ele>
        <time>2017-12-12T10:00:35Z</time>
      </trkpt>
      <trkpt lat="45.92844" lon="4.76247">
        <ele>169</ele>
        <time>2017-12-12T10:00:36Z</time>
      </trkpt>
      <trkpt lat="45.9285" lon="4.76251">
        <ele>169</ele>
        <time>2017-12-12T10:00:37Z</time>
      </trkpt>
      <trkpt lat="45.92854" lon="4.76256">
        <ele>169</ele>
        <time>2017-12-12T10:00:38Z</time>
      </trkpt>
      <trkpt lat="45.92859" lon="4.7626">
        <ele>169</ele>
        <time>2017-12-12T10:00:39Z</time>
      </trkpt>
      <trkpt lat="45.92863" lon="4.76265">
        <ele>169</ele>
        <time>2017-12-12T10:00:40Z</time>
      </trkpt>
      <trkpt lat="45.92868" lon="4.76269">
        <ele>169</ele>
        <time>2017-12-12T10:00:41Z</time>
      </trkpt>
      <trkpt lat="45.92872" lon="4.76274">
        <ele>169</ele>
        <time>2017-12-12T10:00:42Z</time>
      </trkpt>
      <trkpt lat="45.92878" lon="4.7628">
        <ele>169</ele>
        <time>2017-12-12T10:00:43Z</time>
      </trkpt>
      <trkpt lat="45.92883" lon="4.76285">
        <ele>169</ele>
        <time>2017-12-12T10:00:44Z</time>
      </trkpt>
      <trkpt lat="45.92888" lon="4.7629">
        <ele>169</ele>
        <time>2017-12-12T10:00:45Z</time>
      </trkpt>
      <trkpt lat="45.92892" lon="4.76294">
        <ele>169</ele>
        <time>2017-12-12T10:00:46Z</time>
      </trkpt>
      <trkpt lat="45.92896" lon="4.76298">
        <ele>169</ele>
        <time>2017-12-12T10:00:47Z</time>
      </trkpt>
      <trkpt lat="45.92902" lon="4.76304">
        <ele>169</ele>
        <time>2017-12-12T10:00:48Z</time>
      </trkpt>
      <trkpt lat="45.92907" lon="4.76308">
        <ele>169</ele>
        <time>2017-12-12T10:00:49Z</time>
      </trkpt>
      <trkpt lat="45.92911" lon="4.76312">
        <ele>169</ele>
        <time>2017-12-12T10:00:50Z</time>
      </trkpt>
      <trkpt lat="45.92915" lon="4.76316">
        <ele>169</ele>
        <time>2017-12-12T10:00:51Z</time>
      </trkpt>
      <trkpt lat="45.9292" lon="4.76319">
        <ele>169</ele>
        <time>2017-12-12T10:00:52Z</time>
      </trkpt>
      <trkpt lat="45.92923" lon="4.76323">
        <ele>169</ele>
        <time>2017-12-12T10:00:53Z</time>
      </trkpt>
      <trkpt lat="45.92928" lon="4.76327">
        <ele>169</ele>
        <time>2017-12-12T10:00:54Z</time>
      </trkpt>
      <trkpt lat="45.92933" lon="4.76331">
        <ele>169</ele>
        <time>2017-12-12T10:00:55Z</time>
      </trkpt>
      <trkpt lat="45.92937" lon="4.76335">
        <ele>169</ele>
        <time>2017-12-12T10:00:56Z</time>
      </trkpt>
      <trkpt lat="45.92941" lon="4.76339">
        <ele>169</ele>
        <time>2017-12-12T10:00:57Z</time>
      </trkpt>
      <trkpt lat="45.92946" lon="4.76345">
        <ele>169</ele>
        <time>2017-12-12T10:00:58Z</time>
      </trkpt>
      <trkpt lat="45.92951" lon="4.76349">
        <ele>169</ele>
        <time>2017-12-12T10:00:59Z</time>
      </trkpt>
      <trkpt lat="45.92956" lon="4.76354">
        <ele>169</ele>
        <time>2017-12-12T10:01:00Z</time>
      </trkpt>
      <trkpt lat="45.92961" lon="4.76359">
        <ele>169</ele>
        <time>2017-12-12T10:01:01Z</time>
      </trkpt>
      <trkpt lat="45.92966" lon="4.76364">
        <ele>169</ele>
        <time>2017-12-12T10:01:02Z</time>
      </trkpt>
      <trkpt lat="45.9297" lon="4.76369">
        <ele>169</ele>
        <time>2017-12-12T10:01:03Z</time>
      </trkpt>
      <trkpt lat="45.92973" lon="4.76374">
        <ele>169</ele>
        <time>2017-12-12T10:01:04Z</time>
      </trkpt>
      <trkpt lat="45.92978" lon="4.76378">
        <ele>169</ele>
        <time>2017-12-12T10:01:05Z</time>
      </trkpt>
      <trkpt lat="45.92983" lon="4.76381">
        <ele>169</ele>
        <time>2017-12-12T10:01:06Z</time>
      </trkpt>
      <trkpt lat="45.9299" lon="4.76389">
        <ele>169</ele>
        <time>2017-12-12T10:01:08Z</time>
      </trkpt>
      <trkpt lat="45.92994" lon="4.76393">
        <ele>169</ele>
        <time>2017-12-12T10:01:09Z</time>
      </trkpt>
      <trkpt lat="45.92998" lon="4.76397">
        <ele>169</ele>
        <time>2017-12-12T10:01:10Z</time>
      </trkpt>
      <trkpt lat="45.93003" lon="4.76401">
        <ele>169</ele>
        <time>2017-12-12T10:01:11Z</time>
      </trkpt>
      <trkpt lat="45.93006" lon="4.76406">
        <ele>169</ele>
        <time>2017-12-12T10:01:12Z</time>
      </trkpt>
      <trkpt lat="45.93011" lon="4.76411">
        <ele>169</ele>
        <time>2017-12-12T10:01:13Z</time>
      </trkpt>
      <trkpt lat="45.93015" lon="4.76416">
        <ele>169</ele>
        <time>2017-12-12T10:01:14Z</time>
      </trkpt>
      <trkpt lat="45.9302" lon="4.76421">
        <ele>169</ele>
        <time>2017-12-12T10:01:15Z</time>
      </trkpt>
      <trkpt lat="45.93025" lon="4.76425">
        <ele>169</ele>
        <time>2017-12-12T10:01:16Z</time>
      </trkpt>
      <trkpt lat="45.93029" lon="4.7643">
        <ele>169</ele>
        <time>2017-12-12T10:01:17Z</time>
      </trkpt>
      <trkpt lat="45.93035" lon="4.76434">
        <ele>169</ele>
        <time>2017-12-12T10:01:18Z</time>
      </trkpt>
      <trkpt lat="45.9304" lon="4.76439">
        <ele>169</ele>
        <time>2017-12-12T10:01:19Z</time>
      </trkpt>
      <trkpt lat="45.93045" lon="4.76444">
        <ele>169</ele>
        <time>2017-12-12T10:01:20Z</time>
      </trkpt>
      <trkpt lat="45.93048" lon="4.76448">
        <ele>169</ele>
        <time>2017-12-12T10:01:21Z</time>
      </trkpt>
      <trkpt lat="45.93053" lon="4.76452">
        <ele>169</ele>
        <time>2017-12-12T10:01:22Z</time>
      </trkpt>
      <trkpt lat="45.93058" lon="4.76455">
        <ele>169</ele>
        <time>2017-12-12T10:01:23Z</time>
      </trkpt>
      <trkpt lat="45.93062" lon="4.76459">
        <ele>169</ele>
        <time>2017-12-12T10:01:24Z</time>
      </trkpt>
      <trkpt lat="45.93067" lon="4.76462">
        <ele>169</ele>
        <time>2017-12-12T10:01:25Z</time>
      </trkpt>
      <trkpt lat="45.93071" lon="4.76466">
        <ele>169</ele>
        <time>2017-12-12T10:01:26Z</time>
      </trkpt>
      <trkpt lat="45.93075" lon="4.76471">
        <ele>169</ele>
        <time>2017-12-12T10:01:27Z</time>
      </trkpt>
      <trkpt lat="45.9308" lon="4.76476">
        <ele>169</ele>
        <time>2017-12-12T10:01:28Z</time>
      </trkpt>
      <trkpt lat="45.93084" lon="4.76481">
        <ele>169</ele>
        <time>2017-12-12T10:01:29Z</time>
      </trkpt>
      <trkpt lat="45.93089" lon="4.76486">
        <ele>170</ele>
        <time>2017-12-12T10:01:30Z</time>
      </trkpt>
      <trkpt lat="45.93094" lon="4.76492">
        <ele>170</ele>
        <time>2017-12-12T10:01:31Z</time>
      </trkpt>
      <trkpt lat="45.93099" lon="4.76498">
        <ele>170</ele>
        <time>2017-12-12T10:01:32Z</time>
      </trkpt>
      <trkpt lat="45.93104" lon="4.76503">
        <ele>170</ele>
        <time>2017-12-12T10:01:33Z</time>
      </trkpt>
      <trkpt lat="45.93109" lon="4.76508">
        <ele>170</ele>
        <time>2017-12-12T10:01:34Z</time>
      </trkpt>
      <trkpt lat="45.93114" lon="4.76513">
        <ele>170</ele>
        <time>2017-12-12T10:01:35Z</time>
      </trkpt>
      <trkpt lat="45.93119" lon="4.76518">
        <ele>170</ele>
        <time>2017-12-12T10:01:36Z</time>
      </trkpt>
      <trkpt lat="45.93124" lon="4.76523">
        <ele>170</ele>
        <time>2017-12-12T10:01:37Z</time>
      </trkpt>
      <trkpt lat="45.93128" lon="4.76527">
        <ele>170</ele>
        <time>2017-12-12T10:01:38Z</time>
      </trkpt>
      <trkpt lat="45.93133" lon="4.7653">
        <ele>170</ele>
        <time>2017-12-12T10:01:39Z</time>
      </trkpt>
      <trkpt lat="45.93138" lon="4.76534">
        <ele>170</ele>
        <time>2017-12-12T10:01:40Z</time>
      </trkpt>
      <trkpt lat="45.93142" lon="4.76538">
        <ele>170</ele>
        <time>2017-12-12T10:01:41Z</time>
      </trkpt>
      <trkpt lat="45.93146" lon="4.76543">
        <ele>170</ele>
        <time>2017-12-12T10:01:42Z</time>
      </trkpt>
      <trkpt lat="45.93149" lon="4.76547">
        <ele>170</ele>
        <time>2017-12-12T10:01:43Z</time>
      </trkpt>
      <trkpt lat="45.93153" lon="4.76552">
        <ele>170</ele>
        <time>2017-12-12T10:01:44Z</time>
      </trkpt>
      <trkpt lat="45.93157" lon="4.76556">
        <ele>170</ele>
        <time>2017-12-12T10:01:45Z</time>
      </trkpt>
      <trkpt lat="45.9316" lon="4.76561">
        <ele>170</ele>
        <time>2017-12-12T10:01:46Z</time>
      </trkpt>
      <trkpt lat="45.93165" lon="4.76565">
        <ele>170</ele>
        <time>2017-12-12T10:01:47Z</time>
      </trkpt>
      <trkpt lat="45.9317" lon="4.76569">
        <ele>170</ele>
        <time>2017-12-12T10:01:48Z</time>
      </trkpt>
      <trkpt lat="45.93174" lon="4.76573">
        <ele>170</ele>
        <time>2017-12-12T10:01:49Z</time>
      </trkpt>
      <trkpt lat="45.9318" lon="4.76578">
        <ele>170</ele>
        <time>2017-12-12T10:01:50Z</time>
      </trkpt>
      <trkpt lat="45.93184" lon="4.76584">
        <ele>171</ele>
        <time>2017-12-12T10:01:51Z</time>
      </trkpt>
      <trkpt lat="45.93189" lon="4.76588">
        <ele>170</ele>
        <time>2017-12-12T10:01:52Z</time>
      </trkpt>
      <trkpt lat="45.93194" lon="4.76594">
        <ele>170</ele>
        <time>2017-12-12T10:01:53Z</time>
      </trkpt>
      <trkpt lat="45.93199" lon="4.76598">
        <ele>170</ele>
        <time>2017-12-12T10:01:54Z</time>
      </trkpt>
      <trkpt lat="45.93204" lon="4.76602">
        <ele>170</ele>
        <time>2017-12-12T10:01:55Z</time>
      </trkpt>
      <trkpt lat="45.93208" lon="4.76606">
        <ele>170</ele>
        <time>2017-12-12T10:01:56Z</time>
      </trkpt>
      <trkpt lat="45.93213" lon="4.7661">
        <ele>170</ele>
        <time>2017-12-12T10:01:57Z</time>
      </trkpt>
      <trkpt lat="45.93217" lon="4.76614">
        <ele>170</ele>
        <time>2017-12-12T10:01:58Z</time>
      </trkpt>
      <trkpt lat="45.93221" lon="4.76617">
        <ele>170</ele>
        <time>2017-12-12T10:01:59Z</time>
      </trkpt>
      <trkpt lat="45.93224" lon="4.76621">
        <ele>170</ele>
        <time>2017-12-12T10:02:00Z</time>
      </trkpt>
      <trkpt lat="45.93229" lon="4.76626">
        <ele>170</ele>
        <time>2017-12-12T10:02:01Z</time>
      </trkpt>
      <trkpt lat="45.93232" lon="4.7663">
        <ele>170</ele>
        <time>2017-12-12T10:02:02Z</time>
      </trkpt>
      <trkpt lat="45.93237" lon="4.76634">
        <ele>171</ele>
        <time>2017-12-12T10:02:03Z</time>
      </trkpt>
      <trkpt lat="45.93242" lon="4.7664">
        <ele>171</ele>
        <time>2017-12-12T10:02:04Z</time>
      </trkpt>
      <trkpt lat="45.93247" lon="4.76645">
        <ele>171</ele>
        <time>2017-12-12T10:02:05Z</time>
      </trkpt>
      <trkpt lat="45.93251" lon="4.76649">
        <ele>171</ele>
        <time>2017-12-12T10:02:06Z</time>
      </trkpt>
      <trkpt lat="45.93255" lon="4.76653">
        <ele>171</ele>
        <time>2017-12-12T10:02:07Z</time>
      </trkpt>
      <trkpt lat="45.93259" lon="4.76658">
        <ele>171</ele>
        <time>2017-12-12T10:02:08Z</time>
      </trkpt>
      <trkpt lat="45.93264" lon="4.76662">
        <ele>171</ele>
        <time>2017-12-12T10:02:09Z</time>
      </trkpt>
      <trkpt lat="45.93268" lon="4.76666">
        <ele>171</ele>
        <time>2017-12-12T10:02:10Z</time>
      </trkpt>
      <trkpt lat="45.93272" lon="4.76672">
        <ele>172</ele>
        <time>2017-12-12T10:02:11Z</time>
      </trkpt>
      <trkpt lat="45.93276" lon="4.76676">
        <ele>172</ele>
        <time>2017-12-12T10:02:12Z</time>
      </trkpt>
      <trkpt lat="45.9328" lon="4.76679">
        <ele>172</ele>
        <time>2017-12-12T10:02:13Z</time>
      </trkpt>
      <trkpt lat="45.93285" lon="4.76685">
        <ele>172</ele>
        <time>2017-12-12T10:02:14Z</time>
      </trkpt>
      <trkpt lat="45.9329" lon="4.7669">
        <ele>172</ele>
        <time>2017-12-12T10:02:15Z</time>
      </trkpt>
      <trkpt lat="45.93294" lon="4.76694">
        <ele>172</ele>
        <time>2017-12-12T10:02:16Z</time>
      </trkpt>
      <trkpt lat="45.93299" lon="4.76698">
        <ele>172</ele>
        <time>2017-12-12T10:02:17Z</time>
      </trkpt>
      <trkpt lat="45.93303" lon="4.76702">
        <ele>172</ele>
        <time>2017-12-12T10:02:18Z</time>
      </trkpt>
      <trkpt lat="45.93308" lon="4.76706">
        <ele>172</ele>
        <time>2017-12-12T10:02:19Z</time>
      </trkpt>
      <trkpt lat="45.93313" lon="4.76711">
        <ele>172</ele>
        <time>2017-12-12T10:02:20Z</time>
      </trkpt>
      <trkpt lat="45.93318" lon="4.76716">
        <ele>172</ele>
        <time>2017-12-12T10:02:21Z</time>
      </trkpt>
      <trkpt lat="45.93323" lon="4.76722">
        <ele>172</ele>
        <time>2017-12-12T10:02:22Z</time>
      </trkpt>
      <trkpt lat="45.93328" lon="4.76726">
        <ele>172</ele>
        <time>2017-12-12T10:02:23Z</time>
      </trkpt>
      <trkpt lat="45.93332" lon="4.76731">
        <ele>172</ele>
        <time>2017-12-12T10:02:24Z</time>
      </trkpt>
      <trkpt lat="45.93336" lon="4.76734">
        <ele>172</ele>
        <time>2017-12-12T10:02:25Z</time>
      </trkpt>
      <trkpt lat="45.93341" lon="4.76738">
        <ele>172</ele>
        <time>2017-12-12T10:02:26Z</time>
      </trkpt>
      <trkpt lat="45.93345" lon="4.76742">
        <ele>172</ele>
        <time>2017-12-12T10:02:27Z</time>
      </trkpt>
      <trkpt lat="45.93351" lon="4.76749">
        <ele>172</ele>
        <time>2017-12-12T10:02:29Z</time>
      </trkpt>
      <trkpt lat="45.93355" lon="4.76754">
        <ele>172</ele>
        <time>2017-12-12T10:02:30Z</time>
      </trkpt>
      <trkpt lat="45.9336" lon="4.76759">
        <ele>172</ele>
        <time>2017-12-12T10:02:31Z</time>
      </trkpt>
      <trkpt lat="45.93364" lon="4.76764">
        <ele>172</ele>
        <time>2017-12-12T10:02:32Z</time>
      </trkpt>
      <trkpt lat="45.93369" lon="4.76769">
        <ele>172</ele>
        <time>2017-12-12T10:02:33Z</time>
      </trkpt>
      <trkpt lat="45.93373" lon="4.76773">
        <ele>172</ele>
        <time>2017-12-12T10:02:34Z</time>
      </trkpt>
      <trkpt lat="45.93377" lon="4.76778">
        <ele>172</ele>
        <time>2017-12-12T10:02:35Z</time>
      </trkpt>
      <trkpt lat="45.93381" lon="4.76783">
        <ele>172</ele>
        <time>2017-12-12T10:02:36Z</time>
      </trkpt>
      <trkpt lat="45.93386" lon="4.76789">
        <ele>172</ele>
        <time>2017-12-12T10:02:37Z</time>
      </trkpt>
      <trkpt lat="45.93391" lon="4.76795">
        <ele>172</ele>
        <time>2017-12-12T10:02:38Z</time>
      </trkpt>
      <trkpt lat="45.93395" lon="4.768">
        <ele>172</ele>
        <time>2017-12-12T10:02:39Z</time>
      </trkpt>
      <trkpt lat="45.93398" lon="4.76806">
        <ele>172</ele>
        <time>2017-12-12T10:02:40Z</time>
      </trkpt>
      <trkpt lat="45.93402" lon="4.76812">
        <ele>172</ele>
        <time>2017-12-12T10:02:41Z</time>
      </trkpt>
      <trkpt lat="45.93406" lon="4.76818">
        <ele>172</ele>
        <time>2017-12-12T10:02:42Z</time>
      </trkpt>
      <trkpt lat="45.9341" lon="4.76825">
        <ele>172</ele>
        <time>2017-12-12T10:02:43Z</time>
      </trkpt>
      <trkpt lat="45.93413" lon="4.76829">
        <ele>172</ele>
        <time>2017-12-12T10:02:44Z</time>
      </trkpt>
      <trkpt lat="45.93416" lon="4.76836">
        <ele>172</ele>
        <time>2017-12-12T10:02:45Z</time>
      </trkpt>
      <trkpt lat="45.9342" lon="4.76842">
        <ele>171</ele>
        <time>2017-12-12T10:02:46Z</time>
      </trkpt>
      <trkpt lat="45.93423" lon="4.76849">
        <ele>171</ele>
        <time>2017-12-12T10:02:47Z</time>
      </trkpt>
      <trkpt lat="45.93424" lon="4.76856">
        <ele>171</ele>
        <time>2017-12-12T10:02:48Z</time>
      </trkpt>
      <trkpt lat="45.93428" lon="4.76861">
        <ele>171</ele>
        <time>2017-12-12T10:02:49Z</time>
      </trkpt>
      <trkpt lat="45.9343" lon="4.76868">
        <ele>171</ele>
        <time>2017-12-12T10:02:50Z</time>
      </trkpt>
      <trkpt lat="45.93432" lon="4.76875">
        <ele>171</ele>
        <time>2017-12-12T10:02:51Z</time>
      </trkpt>
      <trkpt lat="45.93436" lon="4.76883">
        <ele>171</ele>
        <time>2017-12-12T10:02:52Z</time>
      </trkpt>
      <trkpt lat="45.93438" lon="4.7689">
        <ele>170</ele>
        <time>2017-12-12T10:02:53Z</time>
      </trkpt>
      <trkpt lat="45.9344" lon="4.76896">
        <ele>170</ele>
        <time>2017-12-12T10:02:54Z</time>
      </trkpt>
      <trkpt lat="45.93441" lon="4.76904">
        <ele>170</ele>
        <time>2017-12-12T10:02:55Z</time>
      </trkpt>
      <trkpt lat="45.93443" lon="4.76912">
        <ele>170</ele>
        <time>2017-12-12T10:02:56Z</time>
      </trkpt>
      <trkpt lat="45.93445" lon="4.76919">
        <ele>170</ele>
        <time>2017-12-12T10:02:57Z</time>
      </trkpt>
      <trkpt lat="45.93447" lon="4.76926">
        <ele>170</ele>
        <time>2017-12-12T10:02:58Z</time>
      </trkpt>
      <trkpt lat="45.93449" lon="4.76935">
        <ele>170</ele>
        <time>2017-12-12T10:02:59Z</time>
      </trkpt>
      <trkpt lat="45.9345" lon="4.76941">
        <ele>170</ele>
        <time>2017-12-12T10:03:00Z</time>
      </trkpt>
      <trkpt lat="45.93451" lon="4.76949">
        <ele>170</ele>
        <time>2017-12-12T10:03:01Z</time>
      </trkpt>
      <trkpt lat="45.93453" lon="4.76956">
        <ele>170</ele>
        <time>2017-12-12T10:03:02Z</time>
      </trkpt>
      <trkpt lat="45.93454" lon="4.76962">
        <ele>170</ele>
        <time>2017-12-12T10:03:03Z</time>
      </trkpt>
      <trkpt lat="45.93454" lon="4.7697">
        <ele>170</ele>
        <time>2017-12-12T10:03:04Z</time>
      </trkpt>
      <trkpt lat="45.93456" lon="4.76977">
        <ele>170</ele>
        <time>2017-12-12T10:03:05Z</time>
      </trkpt>
      <trkpt lat="45.93458" lon="4.76984">
        <ele>170</ele>
        <time>2017-12-12T10:03:06Z</time>
      </trkpt>
      <trkpt lat="45.93459" lon="4.76992">
        <ele>170</ele>
        <time>2017-12-12T10:03:07Z</time>
      </trkpt>
      <trkpt lat="45.93462" lon="4.76998">
        <ele>170</ele>
        <time>2017-12-12T10:03:08Z</time>
      </trkpt>
      <trkpt lat="45.93462" lon="4.77006">
        <ele>170</ele>
        <time>2017-12-12T10:03:09Z</time>
      </trkpt>
      <trkpt lat="45.93464" lon="4.77014">
        <ele>170</ele>
        <time>2017-12-12T10:03:10Z</time>
      </trkpt>
      <trkpt lat="45.93466" lon="4.77021">
        <ele>170</ele>
        <time>2017-12-12T10:03:11Z</time>
      </trkpt>
      <trkpt lat="45.93466" lon="4.77028">
        <ele>170</ele>
        <time>2017-12-12T10:03:12Z</time>
      </trkpt>
      <trkpt lat="45.93468" lon="4.77036">
        <ele>170</ele>
        <time>2017-12-12T10:03:13Z</time>
      </trkpt>
      <trkpt lat="45.93469" lon="4.77043">
        <ele>170</ele>
        <time>2017-12-12T10:03:14Z</time>
      </trkpt>
      <trkpt lat="45.9347" lon="4.7705">
        <ele>170</ele>
        <time>2017-12-12T10:03:15Z</time>
      </trkpt>
      <trkpt lat="45.93471" lon="4.77057">
        <ele>170</ele>
        <time>2017-12-12T10:03:16Z</time>
      </trkpt>
      <trkpt lat="45.93472" lon="4.77064">
        <ele>170</ele>
        <time>2017-12-12T10:03:17Z</time>
      </trkpt>
      <trkpt lat="45.93472" lon="4.77071">
        <ele>170</ele>
        <time>2017-12-12T10:03:18Z</time>
      </trkpt>
      <trkpt lat="45.93473" lon="4.77078">
        <ele>170</ele>
        <time>2017-12-12T10:03:19Z</time>
      </trkpt>
      <trkpt lat="45.93473" lon="4.77085">
        <ele>169</ele>
        <time>2017-12-12T10:03:20Z</time>
      </trkpt>
      <trkpt lat="45.93475" lon="4.77092">
        <ele>169</ele>
        <time>2017-12-12T10:03:21Z</time>
      </trkpt>
      <trkpt lat="45.93476" lon="4.77099">
        <ele>169</ele>
        <time>2017-12-12T10:03:22Z</time>
      </trkpt>
      <trkpt lat="45.93478" lon="4.77106">
        <ele>169</ele>
        <time>2017-12-12T10:03:23Z</time>
      </trkpt>
      <trkpt lat="45.93479" lon="4.77113">
        <ele>169</ele>
        <time>2017-12-12T10:03:24Z</time>
      </trkpt>
      <trkpt lat="45.93481" lon="4.7712">
        <ele>169</ele>
        <time>2017-12-12T10:03:25Z</time>
      </trkpt>
      <trkpt lat="45.93481" lon="4.77127">
        <ele>169</ele>
        <time>2017-12-12T10:03:26Z</time>
      </trkpt>
      <trkpt lat="45.93483" lon="4.77134">
        <ele>169</ele>
        <time>2017-12-12T10:03:27Z</time>
      </trkpt>
      <trkpt lat="45.93484" lon="4.77141">
        <ele>169</ele>
        <time>2017-12-12T10:03:28Z</time>
      </trkpt>
      <trkpt lat="45.93484" lon="4.77148">
        <ele>169</ele>
        <time>2017-12-12T10:03:29Z</time>
      </trkpt>
      <trkpt lat="45.93485" lon="4.77155">
        <ele>169</ele>
        <time>2017-12-12T10:03:30Z</time>
      </trkpt>
      <trkpt lat="45.93487" lon="4.77163">
        <ele>169</ele>
        <time>2017-12-12T10:03:31Z</time>
      </trkpt>
      <trkpt lat="45.93489" lon="4.77171">
        <ele>169</ele>
        <time>2017-12-12T10:03:32Z</time>
      </trkpt>
      <trkpt lat="45.93491" lon="4.77179">
        <ele>169</ele>
        <time>2017-12-12T10:03:33Z</time>
      </trkpt>
      <trkpt lat="45.93492" lon="4.77186">
        <ele>169</ele>
        <time>2017-12-12T10:03:34Z</time>
      </trkpt>
      <trkpt lat="45.93493" lon="4.77192">
        <ele>169</ele>
        <time>2017-12-12T10:03:35Z</time>
      </trkpt>
      <trkpt lat="45.93494" lon="4.772">
        <ele>169</ele>
        <time>2017-12-12T10:03:36Z</time>
      </trkpt>
      <trkpt lat="45.93497" lon="4.77212">
        <ele>169</ele>
        <time>2017-12-12T10:03:38Z</time>
      </trkpt>
      <trkpt lat="45.93499" lon="4.77217">
        <ele>169</ele>
        <time>2017-12-12T10:03:39Z</time>
      </trkpt>
      <trkpt lat="45.93501" lon="4.77222">
        <ele>169</ele>
        <time>2017-12-12T10:03:40Z</time>
      </trkpt>
      <trkpt lat="45.93503" lon="4.77229">
        <ele>169</ele>
        <time>2017-12-12T10:03:41Z</time>
      </trkpt>
      <trkpt lat="45.93505" lon="4.77236">
        <ele>169</ele>
        <time>2017-12-12T10:03:42Z</time>
      </trkpt>
      <trkpt lat="45.93506" lon="4.77243">
        <ele>170</ele>
        <time>2017-12-12T10:03:43Z</time>
      </trkpt>
      <trkpt lat="45.93507" lon="4.7725">
        <ele>170</ele>
        <time>2017-12-12T10:03:44Z</time>
      </trkpt>
      <trkpt lat="45.93509" lon="4.77257">
        <ele>170</ele>
        <time>2017-12-12T10:03:45Z</time>
      </trkpt>
      <trkpt lat="45.93511" lon="4.77264">
        <ele>170</ele>
        <time>2017-12-12T10:03:46Z</time>
      </trkpt>
      <trkpt lat="45.93512" lon="4.7727">
        <ele>170</ele>
        <time>2017-12-12T10:03:47Z</time>
      </trkpt>
      <trkpt lat="45.93514" lon="4.77282">
        <ele>170</ele>
        <time>2017-12-12T10:03:49Z</time>
      </trkpt>
      <trkpt lat="45.93514" lon="4.77287">
        <ele>170</ele>
        <time>2017-12-12T10:03:50Z</time>
      </trkpt>
      <trkpt lat="45.93516" lon="4.77294">
        <ele>170</ele>
        <time>2017-12-12T10:03:51Z</time>
      </trkpt>
      <trkpt lat="45.93517" lon="4.773">
        <ele>170</ele>
        <time>2017-12-12T10:03:52Z</time>
      </trkpt>
      <trkpt lat="45.93518" lon="4.77306">
        <ele>170</ele>
        <time>2017-12-12T10:03:53Z</time>
      </trkpt>
      <trkpt lat="45.9352" lon="4.77313">
        <ele>170</ele>
        <time>2017-12-12T10:03:54Z</time>
      </trkpt>
      <trkpt lat="45.93521" lon="4.7732">
        <ele>170</ele>
        <time>2017-12-12T10:03:55Z</time>
      </trkpt>
      <trkpt lat="45.93522" lon="4.77326">
        <ele>170</ele>
        <time>2017-12-12T10:03:56Z</time>
      </trkpt>
      <trkpt lat="45.93524" lon="4.77333">
        <ele>170</ele>
        <time>2017-12-12T10:03:57Z</time>
      </trkpt>
      <trkpt lat="45.93526" lon="4.7734">
        <ele>170</ele>
        <time>2017-12-12T10:03:58Z</time>
      </trkpt>
      <trkpt lat="45.93527" lon="4.77348">
        <ele>170</ele>
        <time>2017-12-12T10:03:59Z</time>
      </trkpt>
      <trkpt lat="45.93529" lon="4.77356">
        <ele>170</ele>
        <time>2017-12-12T10:04:00Z</time>
      </trkpt>
      <trkpt lat="45.93531" lon="4.77363">
        <ele>170</ele>
        <time>2017-12-12T10:04:01Z</time>
      </trkpt>
      <trkpt lat="45.93533" lon="4.7737">
        <ele>170</ele>
        <time>2017-12-12T10:04:02Z</time>
      </trkpt>
      <trkpt lat="45.93534" lon="4.77377">
        <ele>170</ele>
        <time>2017-12-12T10:04:03Z</time>
      </trkpt>
      <trkpt lat="45.93536" lon="4.77384">
        <ele>170</ele>
        <time>2017-12-12T10:04:04Z</time>
      </trkpt>
      <trkpt lat="45.93538" lon="4.77391">
        <ele>170</ele>
        <time>2017-12-12T10:04:05Z</time>
      </trkpt>
      <trkpt lat="45.93539" lon="4.77397">
        <ele>170</ele>
        <time>2017-12-12T10:04:06Z</time>
      </trkpt>
      <trkpt lat="45.93541" lon="4.77403">
        <ele>170</ele>
        <time>2017-12-12T10:04:07Z</time>
      </trkpt>
      <trkpt lat="45.93543" lon="4.77409">
        <ele>170</ele>
        <time>2017-12-12T10:04:08Z</time>
      </trkpt>
      <trkpt lat="45.93545" lon="4.77417">
        <ele>170</ele>
        <time>2017-12-12T10:04:09Z</time>
      </trkpt>
      <trkpt lat="45.93545" lon="4.77425">
        <ele>170</ele>
        <time>2017-12-12T10:04:10Z</time>
      </trkpt>
      <trkpt lat="45.93547" lon="4.77432">
        <ele>169</ele>
        <time>2017-12-12T10:04:11Z</time>
      </trkpt>
      <trkpt lat="45.93548" lon="4.77441">
        <ele>169</ele>
        <time>2017-12-12T10:04:12Z</time>
      </trkpt>
      <trkpt lat="45.93549" lon="4.77447">
        <ele>169</ele>
        <time>2017-12-12T10:04:13Z</time>
      </trkpt>
      <trkpt lat="45.93551" lon="4.77454">
        <ele>169</ele>
        <time>2017-12-12T10:04:14Z</time>
      </trkpt>
      <trkpt lat="45.93553" lon="4.77463">
        <ele>169</ele>
        <time>2017-12-12T10:04:15Z</time>
      </trkpt>
      <trkpt lat="45.93554" lon="4.77469">
        <ele>169</ele>
        <time>2017-12-12T10:04:16Z</time>
      </trkpt>
      <trkpt lat="45.93555" lon="4.77477">
        <ele>169</ele>
        <time>2017-12-12T10:04:17Z</time>
      </trkpt>
      <trkpt lat="45.93558" lon="4.77485">
        <ele>169</ele>
        <time>2017-12-12T10:04:18Z</time>
      </trkpt>
      <trkpt lat="45.9356" lon="4.77493">
        <ele>169</ele>
        <time>2017-12-12T10:04:19Z</time>
      </trkpt>
      <trkpt lat="45.93562" lon="4.775">
        <ele>169</ele>
        <time>2017-12-12T10:04:20Z</time>
      </trkpt>
      <trkpt lat="45.93564" lon="4.77507">
        <ele>169</ele>
        <time>2017-12-12T10:04:21Z</time>
      </trkpt>
      <trkpt lat="45.93565" lon="4.77513">
        <ele>169</ele>
        <time>2017-12-12T10:04:22Z</time>
      </trkpt>
      <trkpt lat="45.93567" lon="4.77519">
        <ele>169</ele>
        <time>2017-12-12T10:04:23Z</time>
      </trkpt>
      <trkpt lat="45.93569" lon="4.77526">
        <ele>169</ele>
        <time>2017-12-12T10:04:24Z</time>
      </trkpt>
      <trkpt lat="45.9357" lon="4.77534">
        <ele>169</ele>
        <time>2017-12-12T10:04:25Z</time>
      </trkpt>
      <trkpt lat="45.93571" lon="4.77541">
        <ele>169</ele>
        <time>2017-12-12T10:04:26Z</time>
      </trkpt>
      <trkpt lat="45.93573" lon="4.77548">
        <ele>169</ele>
        <time>2017-12-12T10:04:27Z</time>
      </trkpt>
      <trkpt lat="45.93575" lon="4.77554">
        <ele>169</ele>
        <time>2017-12-12T10:04:28Z</time>
      </trkpt>
      <trkpt lat="45.93578" lon="4.7756">
        <ele>169</ele>
        <time>2017-12-12T10:04:29Z</time>
      </trkpt>
      <trkpt lat="45.9358" lon="4.77567">
        <ele>170</ele>
        <time>2017-12-12T10:04:30Z</time>
      </trkpt>
      <trkpt lat="45.93582" lon="4.77574">
        <ele>170</ele>
        <time>2017-12-12T10:04:31Z</time>
      </trkpt>
      <trkpt lat="45.93583" lon="4.77581">
        <ele>170</ele>
        <time>2017-12-12T10:04:32Z</time>
      </trkpt>
      <trkpt lat="45.93584" lon="4.77589">
        <ele>170</ele>
        <time>2017-12-12T10:04:33Z</time>
      </trkpt>
      <trkpt lat="45.93588" lon="4.77595">
        <ele>170</ele>
        <time>2017-12-12T10:04:34Z</time>
      </trkpt>
      <trkpt lat="45.9359" lon="4.77602">
        <ele>170</ele>
        <time>2017-12-12T10:04:35Z</time>
      </trkpt>
      <trkpt lat="45.93592" lon="4.77608">
        <ele>170</ele>
        <time>2017-12-12T10:04:36Z</time>
      </trkpt>
      <trkpt lat="45.93593" lon="4.77614">
        <ele>170</ele>
        <time>2017-12-12T10:04:37Z</time>
      </trkpt>
      <trkpt lat="45.93595" lon="4.7762">
        <ele>170</ele>
        <time>2017-12-12T10:04:38Z</time>
      </trkpt>
      <trkpt lat="45.93598" lon="4.77628">
        <ele>169</ele>
        <time>2017-12-12T10:04:39Z</time>
      </trkpt>
      <trkpt lat="45.93601" lon="4.77633">
        <ele>169</ele>
        <time>2017-12-12T10:04:40Z</time>
      </trkpt>
      <trkpt lat="45.93603" lon="4.77639">
        <ele>169</ele>
        <time>2017-12-12T10:04:41Z</time>
      </trkpt>
      <trkpt lat="45.93606" lon="4.77646">
        <ele>169</ele>
        <time>2017-12-12T10:04:42Z</time>
      </trkpt>
      <trkpt lat="45.93609" lon="4.77651">
        <ele>169</ele>
        <time>2017-12-12T10:04:43Z</time>
      </trkpt>
      <trkpt lat="45.93612" lon="4.77658">
        <ele>169</ele>
        <time>2017-12-12T10:04:44Z</time>
      </trkpt>
      <trkpt lat="45.93615" lon="4.77664">
        <ele>169</ele>
        <time>2017-12-12T10:04:45Z</time>
      </trkpt>
      <trkpt lat="45.93618" lon="4.7767">
        <ele>169</ele>
        <time>2017-12-12T10:04:46Z</time>
      </trkpt>
      <trkpt lat="45.93621" lon="4.77677">
        <ele>169</ele>
        <time>2017-12-12T10:04:47Z</time>
      </trkpt>
      <trkpt lat="45.93623" lon="4.77682">
        <ele>169</ele>
        <time>2017-12-12T10:04:48Z</time>
      </trkpt>
      <trkpt lat="45.93625" lon="4.77688">
        <ele>169</ele>
        <time>2017-12-12T10:04:49Z</time>
      </trkpt>
      <trkpt lat="45.93627" lon="4.77694">
        <ele>169</ele>
        <time>2017-12-12T10:04:50Z</time>
      </trkpt>
      <trkpt lat="45.9363" lon="4.777">
        <ele>169</ele>
        <time>2017-12-12T10:04:51Z</time>
      </trkpt>
      <trkpt lat="45.93633" lon="4.77706">
        <ele>170</ele>
        <time>2017-12-12T10:04:52Z</time>
      </trkpt>
      <trkpt lat="45.93636" lon="4.77712">
        <ele>170</ele>
        <time>2017-12-12T10:04:53Z</time>
      </trkpt>
      <trkpt lat="45.93638" lon="4.77717">
        <ele>170</ele>
        <time>2017-12-12T10:04:54Z</time>
      </trkpt>
      <trkpt lat="45.93641" lon="4.77722">
        <ele>170</ele>
        <time>2017-12-12T10:04:55Z</time>
      </trkpt>
      <trkpt lat="45.93644" lon="4.77727">
        <ele>170</ele>
        <time>2017-12-12T10:04:56Z</time>
      </trkpt>
      <trkpt lat="45.93649" lon="4.77736">
        <ele>170</ele>
        <time>2017-12-12T10:04:58Z</time>
      </trkpt>
      <trkpt lat="45.93652" lon="4.7774">
        <ele>170</ele>
        <time>2017-12-12T10:04:59Z</time>
      </trkpt>
      <trkpt lat="45.93656" lon="4.77747">
        <ele>170</ele>
        <time>2017-12-12T10:05:01Z</time>
      </trkpt>
      <trkpt lat="45.93658" lon="4.77751">
        <ele>171</ele>
        <time>2017-12-12T10:05:02Z</time>
      </trkpt>
      <trkpt lat="45.93662" lon="4.77759">
        <ele>171</ele>
        <time>2017-12-12T10:05:04Z</time>
      </trkpt>
      <trkpt lat="45.93665" lon="4.77763">
        <ele>170</ele>
        <time>2017-12-12T10:05:05Z</time>
      </trkpt>
      <trkpt lat="45.9367" lon="4.77771">
        <ele>170</ele>
        <time>2017-12-12T10:05:07Z</time>
      </trkpt>
      <trkpt lat="45.93673" lon="4.77775">
        <ele>170</ele>
        <time>2017-12-12T10:05:08Z</time>
      </trkpt>
      <trkpt lat="45.93679" lon="4.77783">
        <ele>170</ele>
        <time>2017-12-12T10:05:10Z</time>
      </trkpt>
      <trkpt lat="45.93682" lon="4.77787">
        <ele>170</ele>
        <time>2017-12-12T10:05:11Z</time>
      </trkpt>
      <trkpt lat="45.93688" lon="4.77796">
        <ele>169</ele>
        <time>2017-12-12T10:05:13Z</time>
      </trkpt>
      <trkpt lat="45.93691" lon="4.778">
        <ele>169</ele>
        <time>2017-12-12T10:05:14Z</time>
      </trkpt>
      <trkpt lat="45.93698" lon="4.77807">
        <ele>169</ele>
        <time>2017-12-12T10:05:16Z</time>
      </trkpt>
      <trkpt lat="45.93701" lon="4.77811">
        <ele>169</ele>
        <time>2017-12-12T10:05:17Z</time>
      </trkpt>
      <trkpt lat="45.93708" lon="4.77819">
        <ele>169</ele>
        <time>2017-12-12T10:05:19Z</time>
      </trkpt>
      <trkpt lat="45.93711" lon="4.77823">
        <ele>169</ele>
        <time>2017-12-12T10:05:20Z</time>
      </trkpt>
      <trkpt lat="45.93717" lon="4.77831">
        <ele>168</ele>
        <time>2017-12-12T10:05:22Z</time>
      </trkpt>
      <trkpt lat="45.9372" lon="4.77835">
        <ele>167</ele>
        <time>2017-12-12T10:05:23Z</time>
      </trkpt>
      <trkpt lat="45.93726" lon="4.77843">
        <ele>167</ele>
        <time>2017-12-12T10:05:25Z</time>
      </trkpt>
      <trkpt lat="45.93729" lon="4.77847">
        <ele>167</ele>
        <time>2017-12-12T10:05:26Z</time>
      </trkpt>
      <trkpt lat="45.93735" lon="4.77854">
        <ele>167</ele>
        <time>2017-12-12T10:05:28Z</time>
      </trkpt>
      <trkpt lat="45.93738" lon="4.77858">
        <ele>167</ele>
        <time>2017-12-12T10:05:29Z</time>
      </trkpt>
      <trkpt lat="45.93744" lon="4.77867">
        <ele>167</ele>
        <time>2017-12-12T10:05:31Z</time>
      </trkpt>
      <trkpt lat="45.93748" lon="4.7787">
        <ele>167</ele>
        <time>2017-12-12T10:05:32Z</time>
      </trkpt>
      <trkpt lat="45.93754" lon="4.77879">
        <ele>166</ele>
        <time>2017-12-12T10:05:34Z</time>
      </trkpt>
      <trkpt lat="45.93757" lon="4.77882">
        <ele>166</ele>
        <time>2017-12-12T10:05:35Z</time>
      </trkpt>
      <trkpt lat="45.93763" lon="4.7789">
        <ele>166</ele>
        <time>2017-12-12T10:05:37Z</time>
      </trkpt>
      <trkpt lat="45.93765" lon="4.77893">
        <ele>166</ele>
        <time>2017-12-12T10:05:38Z</time>
      </trkpt>
      <trkpt lat="45.9377" lon="4.77901">
        <ele>166</ele>
        <time>2017-12-12T10:05:40Z</time>
      </trkpt>
      <trkpt lat="45.93773" lon="4.77905">
        <ele>166</ele>
        <time>2017-12-12T10:05:41Z</time>
      </trkpt>
      <trkpt lat="45.93776" lon="4.7791">
        <ele>166</ele>
        <time>2017-12-12T10:05:42Z</time>
      </trkpt>
      <trkpt lat="45.93779" lon="4.77914">
        <ele>166</ele>
        <time>2017-12-12T10:05:43Z</time>
      </trkpt>
      <trkpt lat="45.93786" lon="4.77923">
        <ele>168</ele>
        <time>2017-12-12T10:05:45Z</time>
      </trkpt>
      <trkpt lat="45.93789" lon="4.77927">
        <ele>168</ele>
        <time>2017-12-12T10:05:46Z</time>
      </trkpt>
      <trkpt lat="45.93792" lon="4.77932">
        <ele>168</ele>
        <time>2017-12-12T10:05:47Z</time>
      </trkpt>
      <trkpt lat="45.93796" lon="4.77937">
        <ele>169</ele>
        <time>2017-12-12T10:05:48Z</time>
      </trkpt>
      <trkpt lat="45.93799" lon="4.77942">
        <ele>169</ele>
        <time>2017-12-12T10:05:49Z</time>
      </trkpt>
      <trkpt lat="45.93802" lon="4.77947">
        <ele>169</ele>
        <time>2017-12-12T10:05:50Z</time>
      </trkpt>
      <trkpt lat="45.93807" lon="4.77952">
        <ele>169</ele>
        <time>2017-12-12T10:05:51Z</time>
      </trkpt>
      <trkpt lat="45.93811" lon="4.77957">
        <ele>170</ele>
        <time>2017-12-12T10:05:52Z</time>
      </trkpt>
      <trkpt lat="45.93815" lon="4.77962">
        <ele>170</ele>
        <time>2017-12-12T10:05:53Z</time>
      </trkpt>
      <trkpt lat="45.93819" lon="4.77966">
        <ele>171</ele>
        <time>2017-12-12T10:05:54Z</time>
      </trkpt>
      <trkpt lat="45.93824" lon="4.77971">
        <ele>172</ele>
        <time>2017-12-12T10:05:55Z</time>
      </trkpt>
      <trkpt lat="45.93827" lon="4.77975">
        <ele>172</ele>
        <time>2017-12-12T10:05:56Z</time>
      </trkpt>
      <trkpt lat="45.93831" lon="4.7798">
        <ele>173</ele>
        <time>2017-12-12T10:05:57Z</time>
      </trkpt>
      <trkpt lat="45.93833" lon="4.77987">
        <ele>175</ele>
        <time>2017-12-12T10:05:58Z</time>
      </trkpt>
      <trkpt lat="45.93838" lon="4.77997">
        <ele>179</ele>
        <time>2017-12-12T10:06:01Z</time>
      </trkpt>
      <trkpt lat="45.93837" lon="4.78001">
        <ele>180</ele>
        <time>2017-12-12T10:06:02Z</time>
      </trkpt>
      <trkpt lat="45.93839" lon="4.78013">
        <ele>181</ele>
        <time>2017-12-12T10:06:05Z</time>
      </trkpt>
      <trkpt lat="45.9384" lon="4.78019">
        <ele>181</ele>
        <time>2017-12-12T10:06:06Z</time>
      </trkpt>
      <trkpt lat="45.93845" lon="4.78027">
        <ele>182</ele>
        <time>2017-12-12T10:06:08Z</time>
      </trkpt>
      <trkpt lat="45.93849" lon="4.7803">
        <ele>182</ele>
        <time>2017-12-12T10:06:09Z</time>
      </trkpt>
      <trkpt lat="45.93857" lon="4.78032">
        <ele>183</ele>
        <time>2017-12-12T10:06:11Z</time>
      </trkpt>
      <trkpt lat="45.93861" lon="4.78031">
        <ele>183</ele>
        <time>2017-12-12T10:06:12Z</time>
      </trkpt>
      <trkpt lat="45.9387" lon="4.78028">
        <ele>183</ele>
        <time>2017-12-12T10:06:14Z</time>
      </trkpt>
      <trkpt lat="45.93874" lon="4.78026">
        <ele>183</ele>
        <time>2017-12-12T10:06:15Z</time>
      </trkpt>
      <trkpt lat="45.93881" lon="4.78022">
        <ele>184</ele>
        <time>2017-12-12T10:06:17Z</time>
      </trkpt>
      <trkpt lat="45.93884" lon="4.7802">
        <ele>184</ele>
        <time>2017-12-12T10:06:18Z</time>
      </trkpt>
      <trkpt lat="45.93889" lon="4.78014">
        <ele>184</ele>
        <time>2017-12-12T10:06:20Z</time>
      </trkpt>
      <trkpt lat="45.93891" lon="4.78012">
        <ele>184</ele>
        <time>2017-12-12T10:06:21Z</time>
      </trkpt>
      <trkpt lat="45.93897" lon="4.78004">
        <ele>185</ele>
        <time>2017-12-12T10:06:24Z</time>
      </trkpt>
      <trkpt lat="45.93899" lon="4.78002">
        <ele>185</ele>
        <time>2017-12-12T10:06:25Z</time>
      </trkpt>
      <trkpt lat="45.93906" lon="4.77993">
        <ele>183</ele>
        <time>2017-12-12T10:06:28Z</time>
      </trkpt>
      <trkpt lat="45.93908" lon="4.77991">
        <ele>183</ele>
        <time>2017-12-12T10:06:29Z</time>
      </trkpt>
      <trkpt lat="45.93913" lon="4.77984">
        <ele>183</ele>
        <time>2017-12-12T10:06:32Z</time>
      </trkpt>
      <trkpt lat="45.93915" lon="4.77982">
        <ele>183</ele>
        <time>2017-12-12T10:06:33Z</time>
      </trkpt>
      <trkpt lat="45.93921" lon="4.77977">
        <ele>188</ele>
        <time>2017-12-12T10:06:36Z</time>
      </trkpt>
      <trkpt lat="45.93923" lon="4.77975">
        <ele>188</ele>
        <time>2017-12-12T10:06:37Z</time>
      </trkpt>
      <trkpt lat="45.9393" lon="4.77969">
        <ele>189</ele>
        <time>2017-12-12T10:06:40Z</time>
      </trkpt>
      <trkpt lat="45.93932" lon="4.77967">
        <ele>189</ele>
        <time>2017-12-12T10:06:41Z</time>
      </trkpt>
      <trkpt lat="45.93939" lon="4.77961">
        <ele>189</ele>
        <time>2017-12-12T10:06:44Z</time>
      </trkpt>
      <trkpt lat="45.93941" lon="4.7796">
        <ele>189</ele>
        <time>2017-12-12T10:06:45Z</time>
      </trkpt>
      <trkpt lat="45.93948" lon="4.77956">
        <ele>189</ele>
        <time>2017-12-12T10:06:48Z</time>
      </trkpt>
      <trkpt lat="45.9395" lon="4.77955">
        <ele>189</ele>
        <time>2017-12-12T10:06:49Z</time>
      </trkpt>
      <trkpt lat="45.93957" lon="4.7795">
        <ele>190</ele>
        <time>2017-12-12T10:06:53Z</time>
      </trkpt>
      <trkpt lat="45.93959" lon="4.77949">
        <ele>190</ele>
        <time>2017-12-12T10:06:54Z</time>
      </trkpt>
      <trkpt lat="45.93966" lon="4.77944">
        <ele>190</ele>
        <time>2017-12-12T10:06:57Z</time>
      </trkpt>
      <trkpt lat="45.93968" lon="4.77943">
        <ele>190</ele>
        <time>2017-12-12T10:06:58Z</time>
      </trkpt>
      <trkpt lat="45.93975" lon="4.77939">
        <ele>191</ele>
        <time>2017-12-12T10:07:01Z</time>
      </trkpt>
      <trkpt lat="45.93977" lon="4.77937">
        <ele>191</ele>
        <time>2017-12-12T10:07:02Z</time>
      </trkpt>
      <trkpt lat="45.93984" lon="4.77934">
        <ele>192</ele>
        <time>2017-12-12T10:07:05Z</time>
      </trkpt>
      <trkpt lat="45.93986" lon="4.77933">
        <ele>192</ele>
        <time>2017-12-12T10:07:06Z</time>
      </trkpt>
      <trkpt lat="45.93994" lon="4.77928">
        <ele>192</ele>
        <time>2017-12-12T10:07:10Z</time>
      </trkpt>
      <trkpt lat="45.93997" lon="4.77927">
        <ele>193</ele>
        <time>2017-12-12T10:07:11Z</time>
      </trkpt>
      <trkpt lat="45.94004" lon="4.77925">
        <ele>196</ele>
        <time>2017-12-12T10:07:15Z</time>
      </trkpt>
      <trkpt lat="45.94006" lon="4.77925">
        <ele>196</ele>
        <time>2017-12-12T10:07:16Z</time>
      </trkpt>
      <trkpt lat="45.94011" lon="4.77933">
        <ele>198</ele>
        <time>2017-12-12T10:07:21Z</time>
      </trkpt>
      <trkpt lat="45.94012" lon="4.77935">
        <ele>198</ele>
        <time>2017-12-12T10:07:22Z</time>
      </trkpt>
      <trkpt lat="45.94016" lon="4.77943">
        <ele>199</ele>
        <time>2017-12-12T10:07:26Z</time>
      </trkpt>
      <trkpt lat="45.94017" lon="4.77946">
        <ele>199</ele>
        <time>2017-12-12T10:07:27Z</time>
      </trkpt>
      <trkpt lat="45.94017" lon="4.77957">
        <ele>200</ele>
        <time>2017-12-12T10:07:32Z</time>
      </trkpt>
      <trkpt lat="45.94017" lon="4.77962">
        <ele>200</ele>
        <time>2017-12-12T10:07:33Z</time>
      </trkpt>
      <trkpt lat="45.94016" lon="4.7797">
        <ele>200</ele>
        <time>2017-12-12T10:07:35Z</time>
      </trkpt>
      <trkpt lat="45.94015" lon="4.77975">
        <ele>200</ele>
        <time>2017-12-12T10:07:36Z</time>
      </trkpt>
      <trkpt lat="45.94014" lon="4.77983">
        <ele>199</ele>
        <time>2017-12-12T10:07:38Z</time>
      </trkpt>
      <trkpt lat="45.94013" lon="4.77988">
        <ele>199</ele>
        <time>2017-12-12T10:07:39Z</time>
      </trkpt>
      <trkpt lat="45.94011" lon="4.78">
        <ele>198</ele>
        <time>2017-12-12T10:07:42Z</time>
      </trkpt>
      <trkpt lat="45.94011" lon="4.78004">
        <ele>199</ele>
        <time>2017-12-12T10:07:43Z</time>
      </trkpt>
      <trkpt lat="45.9401" lon="4.78013">
        <ele>199</ele>
        <time>2017-12-12T10:07:45Z</time>
      </trkpt>
      <trkpt lat="45.94009" lon="4.78018">
        <ele>200</ele>
        <time>2017-12-12T10:07:46Z</time>
      </trkpt>
      <trkpt lat="45.94007" lon="4.78029">
        <ele>201</ele>
        <time>2017-12-12T10:07:49Z</time>
      </trkpt>
      <trkpt lat="45.94006" lon="4.78033">
        <ele>201</ele>
        <time>2017-12-12T10:07:50Z</time>
      </trkpt>
      <trkpt lat="45.94003" lon="4.78044">
        <ele>201</ele>
        <time>2017-12-12T10:07:53Z</time>
      </trkpt>
      <trkpt lat="45.94002" lon="4.78049">
        <ele>201</ele>
        <time>2017-12-12T10:07:54Z</time>
      </trkpt>
      <trkpt lat="45.94" lon="4.78057">
        <ele>201</ele>
        <time>2017-12-12T10:07:56Z</time>
      </trkpt>
      <trkpt lat="45.93999" lon="4.78061">
        <ele>196</ele>
        <time>2017-12-12T10:07:57Z</time>
      </trkpt>
      <trkpt lat="45.93998" lon="4.7807">
        <ele>196</ele>
        <time>2017-12-12T10:07:59Z</time>
      </trkpt>
      <trkpt lat="45.93997" lon="4.78074">
        <ele>197</ele>
        <time>2017-12-12T10:08:00Z</time>
      </trkpt>
      <trkpt lat="45.93996" lon="4.78084">
        <ele>199</ele>
        <time>2017-12-12T10:08:02Z</time>
      </trkpt>
      <trkpt lat="45.93996" lon="4.78089">
        <ele>198</ele>
        <time>2017-12-12T10:08:03Z</time>
      </trkpt>
      <trkpt lat="45.93995" lon="4.781">
        <ele>198</ele>
        <time>2017-12-12T10:08:05Z</time>
      </trkpt>
      <trkpt lat="45.93995" lon="4.78105">
        <ele>197</ele>
        <time>2017-12-12T10:08:06Z</time>
      </trkpt>
      <trkpt lat="45.93994" lon="4.78114">
        <ele>197</ele>
        <time>2017-12-12T10:08:08Z</time>
      </trkpt>
      <trkpt lat="45.93994" lon="4.78119">
        <ele>197</ele>
        <time>2017-12-12T10:08:09Z</time>
      </trkpt>
      <trkpt lat="45.93992" lon="4.7813">
        <ele>197</ele>
        <time>2017-12-12T10:08:11Z</time>
      </trkpt>
      <trkpt lat="45.93991" lon="4.78136">
        <ele>197</ele>
        <time>2017-12-12T10:08:12Z</time>
      </trkpt>
      <trkpt lat="45.9399" lon="4.78147">
        <ele>198</ele>
        <time>2017-12-12T10:08:14Z</time>
      </trkpt>
      <trkpt lat="45.9399" lon="4.78152">
        <ele>198</ele>
        <time>2017-12-12T10:08:15Z</time>
      </trkpt>
      <trkpt lat="45.93992" lon="4.7816">
        <ele>199</ele>
        <time>2017-12-12T10:08:17Z</time>
      </trkpt>
      <trkpt lat="45.93995" lon="4.78163">
        <ele>200</ele>
        <time>2017-12-12T10:08:18Z</time>
      </trkpt>
      <trkpt lat="45.94002" lon="4.78167">
        <ele>201</ele>
        <time>2017-12-12T10:08:21Z</time>
      </trkpt>
      <trkpt lat="45.94004" lon="4.78169">
        <ele>202</ele>
        <time>2017-12-12T10:08:22Z</time>
      </trkpt>
      <trkpt lat="45.9401" lon="4.78173">
        <ele>202</ele>
        <time>2017-12-12T10:08:25Z</time>
      </trkpt>
      <trkpt lat="45.94012" lon="4.78174">
        <ele>203</ele>
        <time>2017-12-12T10:08:26Z</time>
      </trkpt>
      <trkpt lat="45.94021" lon="4.78177">
        <ele>203</ele>
        <time>2017-12-12T10:08:30Z</time>
      </trkpt>
      <trkpt lat="45.94023" lon="4.78178">
        <ele>204</ele>
        <time>2017-12-12T10:08:31Z</time>
      </trkpt>
      <trkpt lat="45.9403" lon="4.78181">
        <ele>204</ele>
        <time>2017-12-12T10:08:34Z</time>
      </trkpt>
      <trkpt lat="45.94032" lon="4.78182">
        <ele>204</ele>
        <time>2017-12-12T10:08:35Z</time>
      </trkpt>
      <trkpt lat="45.9404" lon="4.78186">
        <ele>205</ele>
        <time>2017-12-12T10:08:38Z</time>
      </trkpt>
      <trkpt lat="45.94043" lon="4.78187">
        <ele>205</ele>
        <time>2017-12-12T10:08:39Z</time>
      </trkpt>
      <trkpt lat="45.94049" lon="4.78193">
        <ele>205</ele>
        <time>2017-12-12T10:08:42Z</time>
      </trkpt>
      <trkpt lat="45.94051" lon="4.78195">
        <ele>206</ele>
        <time>2017-12-12T10:08:43Z</time>
      </trkpt>
      <trkpt lat="45.94059" lon="4.78201">
        <ele>206</ele>
        <time>2017-12-12T10:08:47Z</time>
      </trkpt>
      <trkpt lat="45.94061" lon="4.78203">
        <ele>206</ele>
        <time>2017-12-12T10:08:48Z</time>
      </trkpt>
      <trkpt lat="45.94068" lon="4.78209">
        <ele>206</ele>
        <time>2017-12-12T10:08:52Z</time>
      </trkpt>
      <trkpt lat="45.94071" lon="4.78211">
        <ele>206</ele>
        <time>2017-12-12T10:08:53Z</time>
      </trkpt>
      <trkpt lat="45.94077" lon="4.78216">
        <ele>206</ele>
        <time>2017-12-12T10:08:56Z</time>
      </trkpt>
      <trkpt lat="45.9408" lon="4.78218">
        <ele>206</ele>
        <time>2017-12-12T10:08:57Z</time>
      </trkpt>
      <trkpt lat="45.94086" lon="4.78222">
        <ele>213</ele>
        <time>2017-12-12T10:09:00Z</time>
      </trkpt>
      <trkpt lat="45.94088" lon="4.78224">
        <ele>212</ele>
        <time>2017-12-12T10:09:01Z</time>
      </trkpt>
      <trkpt lat="45.94094" lon="4.78227">
        <ele>213</ele>
        <time>2017-12-12T10:09:04Z</time>
      </trkpt>
      <trkpt lat="45.94097" lon="4.78229">
        <ele>213</ele>
        <time>2017-12-12T10:09:05Z</time>
      </trkpt>
      <trkpt lat="45.94103" lon="4.78233">
        <ele>213</ele>
        <time>2017-12-12T10:09:08Z</time>
      </trkpt>
      <trkpt lat="45.94105" lon="4.78235">
        <ele>213</ele>
        <time>2017-12-12T10:09:09Z</time>
      </trkpt>
      <trkpt lat="45.94111" lon="4.78241">
        <ele>213</ele>
        <time>2017-12-12T10:09:12Z</time>
      </trkpt>
      <trkpt lat="45.94113" lon="4.78244">
        <ele>214</ele>
        <time>2017-12-12T10:09:13Z</time>
      </trkpt>
      <trkpt lat="45.9412" lon="4.78248">
        <ele>214</ele>
        <time>2017-12-12T10:09:16Z</time>
      </trkpt>
      <trkpt lat="45.94122" lon="4.7825">
        <ele>214</ele>
        <time>2017-12-12T10:09:17Z</time>
      </trkpt>
      <trkpt lat="45.94128" lon="4.78256">
        <ele>214</ele>
        <time>2017-12-12T10:09:20Z</time>
      </trkpt>
      <trkpt lat="45.94131" lon="4.78258">
        <ele>214</ele>
        <time>2017-12-12T10:09:21Z</time>
      </trkpt>
      <trkpt lat="45.94138" lon="4.78262">
        <ele>215</ele>
        <time>2017-12-12T10:09:24Z</time>
      </trkpt>
      <trkpt lat="45.9414" lon="4.78264">
        <ele>215</ele>
        <time>2017-12-12T10:09:25Z</time>
      </trkpt>
      <trkpt lat="45.94148" lon="4.78267">
        <ele>216</ele>
        <time>2017-12-12T10:09:28Z</time>
      </trkpt>
      <trkpt lat="45.94151" lon="4.78268">
        <ele>216</ele>
        <time>2017-12-12T10:09:29Z</time>
      </trkpt>
      <trkpt lat="45.94159" lon="4.78272">
        <ele>216</ele>
        <time>2017-12-12T10:09:32Z</time>
      </trkpt>
      <trkpt lat="45.94161" lon="4.78273">
        <ele>216</ele>
        <time>2017-12-12T10:09:33Z</time>
      </trkpt>
      <trkpt lat="45.94169" lon="4.78277">
        <ele>220</ele>
        <time>2017-12-12T10:09:36Z</time>
      </trkpt>
      <trkpt lat="45.94171" lon="4.78279">
        <ele>220</ele>
        <time>2017-12-12T10:09:37Z</time>
      </trkpt>
      <trkpt lat="45.94179" lon="4.78283">
        <ele>221</ele>
        <time>2017-12-12T10:09:40Z</time>
      </trkpt>
      <trkpt lat="45.94181" lon="4.78284">
        <ele>221</ele>
        <time>2017-12-12T10:09:41Z</time>
      </trkpt>
      <trkpt lat="45.94189" lon="4.78288">
        <ele>221</ele>
        <time>2017-12-12T10:09:44Z</time>
      </trkpt>
      <trkpt lat="45.94192" lon="4.78288">
        <ele>221</ele>
        <time>2017-12-12T10:09:45Z</time>
      </trkpt>
      <trkpt lat="45.94198" lon="4.78289">
        <ele>221</ele>
        <time>2017-12-12T10:09:47Z</time>
      </trkpt>
      <trkpt lat="45.94201" lon="4.7829">
        <ele>221</ele>
        <time>2017-12-12T10:09:48Z</time>
      </trkpt>
      <trkpt lat="45.94208" lon="4.78291">
        <ele>222</ele>
        <time>2017-12-12T10:09:51Z</time>
      </trkpt>
      <trkpt lat="45.94211" lon="4.78291">
        <ele>222</ele>
        <time>2017-12-12T10:09:52Z</time>
      </trkpt>
      <trkpt lat="45.94219" lon="4.78292">
        <ele>222</ele>
        <time>2017-12-12T10:09:55Z</time>
      </trkpt>
      <trkpt lat="45.94221" lon="4.78292">
        <ele>222</ele>
        <time>2017-12-12T10:09:56Z</time>
      </trkpt>
      <trkpt lat="45.9423" lon="4.78295">
        <ele>222</ele>
        <time>2017-12-12T10:09:59Z</time>
      </trkpt>
      <trkpt lat="45.94233" lon="4.78296">
        <ele>222</ele>
        <time>2017-12-12T10:10:00Z</time>
      </trkpt>
      <trkpt lat="45.94241" lon="4.78298">
        <ele>222</ele>
        <time>2017-12-12T10:10:03Z</time>
      </trkpt>
      <trkpt lat="45.94244" lon="4.78299">
        <ele>222</ele>
        <time>2017-12-12T10:10:04Z</time>
      </trkpt>
      <trkpt lat="45.94251" lon="4.78302">
        <ele>227</ele>
        <time>2017-12-12T10:10:07Z</time>
      </trkpt>
      <trkpt lat="45.94254" lon="4.78303">
        <ele>227</ele>
        <time>2017-12-12T10:10:08Z</time>
      </trkpt>
      <trkpt lat="45.94262" lon="4.78306">
        <ele>227</ele>
        <time>2017-12-12T10:10:11Z</time>
      </trkpt>
      <trkpt lat="45.94264" lon="4.78308">
        <ele>227</ele>
        <time>2017-12-12T10:10:12Z</time>
      </trkpt>
      <trkpt lat="45.94271" lon="4.78312">
        <ele>228</ele>
        <time>2017-12-12T10:10:15Z</time>
      </trkpt>
      <trkpt lat="45.94274" lon="4.78313">
        <ele>228</ele>
        <time>2017-12-12T10:10:16Z</time>
      </trkpt>
      <trkpt lat="45.94281" lon="4.78318">
        <ele>228</ele>
        <time>2017-12-12T10:10:19Z</time>
      </trkpt>
      <trkpt lat="45.94283" lon="4.7832">
        <ele>228</ele>
        <time>2017-12-12T10:10:20Z</time>
      </trkpt>
      <trkpt lat="45.94289" lon="4.78328">
        <ele>228</ele>
        <time>2017-12-12T10:10:23Z</time>
      </trkpt>
      <trkpt lat="45.94291" lon="4.78329">
        <ele>229</ele>
        <time>2017-12-12T10:10:24Z</time>
      </trkpt>
      <trkpt lat="45.94297" lon="4.78337">
        <ele>228</ele>
        <time>2017-12-12T10:10:27Z</time>
      </trkpt>
      <trkpt lat="45.94298" lon="4.7834">
        <ele>228</ele>
        <time>2017-12-12T10:10:28Z</time>
      </trkpt>
      <trkpt lat="45.94303" lon="4.78351">
        <ele>229</ele>
        <time>2017-12-12T10:10:31Z</time>
      </trkpt>
      <trkpt lat="45.94304" lon="4.78354">
        <ele>229</ele>
        <time>2017-12-12T10:10:32Z</time>
      </trkpt>
      <trkpt lat="45.94308" lon="4.78364">
        <ele>229</ele>
        <time>2017-12-12T10:10:35Z</time>
      </trkpt>
      <trkpt lat="45.94309" lon="4.78367">
        <ele>229</ele>
        <time>2017-12-12T10:10:36Z</time>
      </trkpt>
      <trkpt lat="45.94313" lon="4.78375">
        <ele>230</ele>
        <time>2017-12-12T10:10:39Z</time>
      </trkpt>
      <trkpt lat="45.94314" lon="4.78379">
        <ele>230</ele>
        <time>2017-12-12T10:10:40Z</time>
      </trkpt>
      <trkpt lat="45.94318" lon="4.78388">
        <ele>230</ele>
        <time>2017-12-12T10:10:43Z</time>
      </trkpt>
      <trkpt lat="45.94319" lon="4.78391">
        <ele>230</ele>
        <time>2017-12-12T10:10:44Z</time>
      </trkpt>
      <trkpt lat="45.94324" lon="4.784">
        <ele>230</ele>
        <time>2017-12-12T10:10:47Z</time>
      </trkpt>
      <trkpt lat="45.94325" lon="4.78402">
        <ele>230</ele>
        <time>2017-12-12T10:10:48Z</time>
      </trkpt>
      <trkpt lat="45.94331" lon="4.78413">
        <ele>229</ele>
        <time>2017-12-12T10:10:52Z</time>
      </trkpt>
      <trkpt lat="45.94332" lon="4.78416">
        <ele>229</ele>
        <time>2017-12-12T10:10:53Z</time>
      </trkpt>
      <trkpt lat="45.94336" lon="4.78426">
        <ele>231</ele>
        <time>2017-12-12T10:10:56Z</time>
      </trkpt>
      <trkpt lat="45.94337" lon="4.78428">
        <ele>232</ele>
        <time>2017-12-12T10:10:57Z</time>
      </trkpt>
      <trkpt lat="45.94342" lon="4.78435">
        <ele>233</ele>
        <time>2017-12-12T10:11:00Z</time>
      </trkpt>
      <trkpt lat="45.94344" lon="4.78438">
        <ele>234</ele>
        <time>2017-12-12T10:11:01Z</time>
      </trkpt>
      <trkpt lat="45.94349" lon="4.78447">
        <ele>235</ele>
        <time>2017-12-12T10:11:04Z</time>
      </trkpt>
      <trkpt lat="45.94351" lon="4.7845">
        <ele>235</ele>
        <time>2017-12-12T10:11:05Z</time>
      </trkpt>
      <trkpt lat="45.94357" lon="4.78458">
        <ele>235</ele>
        <time>2017-12-12T10:11:08Z</time>
      </trkpt>
      <trkpt lat="45.94359" lon="4.7846">
        <ele>236</ele>
        <time>2017-12-12T10:11:09Z</time>
      </trkpt>
      <trkpt lat="45.94365" lon="4.78467">
        <ele>236</ele>
        <time>2017-12-12T10:11:12Z</time>
      </trkpt>
      <trkpt lat="45.94367" lon="4.7847">
        <ele>236</ele>
        <time>2017-12-12T10:11:13Z</time>
      </trkpt>
      <trkpt lat="45.94373" lon="4.78477">
        <ele>236</ele>
        <time>2017-12-12T10:11:16Z</time>
      </trkpt>
      <trkpt lat="45.94375" lon="4.78479">
        <ele>236</ele>
        <time>2017-12-12T10:11:17Z</time>
      </trkpt>
      <trkpt lat="45.94381" lon="4.78487">
        <ele>236</ele>
        <time>2017-12-12T10:11:21Z</time>
      </trkpt>
      <trkpt lat="45.94382" lon="4.78489">
        <ele>236</ele>
        <time>2017-12-12T10:11:22Z</time>
      </trkpt>
      <trkpt lat="45.94387" lon="4.78497">
        <ele>235</ele>
        <time>2017-12-12T10:11:25Z</time>
      </trkpt>
      <trkpt lat="45.94389" lon="4.785">
        <ele>235</ele>
        <time>2017-12-12T10:11:26Z</time>
      </trkpt>
      <trkpt lat="45.94394" lon="4.78507">
        <ele>237</ele>
        <time>2017-12-12T10:11:29Z</time>
      </trkpt>
      <trkpt lat="45.94396" lon="4.7851">
        <ele>237</ele>
        <time>2017-12-12T10:11:30Z</time>
      </trkpt>
      <trkpt lat="45.94403" lon="4.78516">
        <ele>237</ele>
        <time>2017-12-12T10:11:33Z</time>
      </trkpt>
      <trkpt lat="45.94405" lon="4.78517">
        <ele>237</ele>
        <time>2017-12-12T10:11:34Z</time>
      </trkpt>
      <trkpt lat="45.94411" lon="4.78524">
        <ele>237</ele>
        <time>2017-12-12T10:11:37Z</time>
      </trkpt>
      <trkpt lat="45.94413" lon="4.78527">
        <ele>237</ele>
        <time>2017-12-12T10:11:38Z</time>
      </trkpt>
      <trkpt lat="45.94419" lon="4.78535">
        <ele>238</ele>
        <time>2017-12-12T10:11:41Z</time>
      </trkpt>
      <trkpt lat="45.9442" lon="4.78539">
        <ele>238</ele>
        <time>2017-12-12T10:11:42Z</time>
      </trkpt>
      <trkpt lat="45.94425" lon="4.78549">
        <ele>238</ele>
        <time>2017-12-12T10:11:45Z</time>
      </trkpt>
      <trkpt lat="45.94427" lon="4.78551">
        <ele>238</ele>
        <time>2017-12-12T10:11:46Z</time>
      </trkpt>
      <trkpt lat="45.94432" lon="4.78559">
        <ele>239</ele>
        <time>2017-12-12T10:11:49Z</time>
      </trkpt>
      <trkpt lat="45.94434" lon="4.78562">
        <ele>239</ele>
        <time>2017-12-12T10:11:50Z</time>
      </trkpt>
      <trkpt lat="45.94439" lon="4.78569">
        <ele>239</ele>
        <time>2017-12-12T10:11:53Z</time>
      </trkpt>
      <trkpt lat="45.94441" lon="4.78572">
        <ele>239</ele>
        <time>2017-12-12T10:11:54Z</time>
      </trkpt>
      <trkpt lat="45.94446" lon="4.78579">
        <ele>239</ele>
        <time>2017-12-12T10:11:57Z</time>
      </trkpt>
      <trkpt lat="45.94447" lon="4.78582">
        <ele>239</ele>
        <time>2017-12-12T10:11:58Z</time>
      </trkpt>
      <trkpt lat="45.9445" lon="4.78591">
        <ele>240</ele>
        <time>2017-12-12T10:12:01Z</time>
      </trkpt>
      <trkpt lat="45.94452" lon="4.78594">
        <ele>240</ele>
        <time>2017-12-12T10:12:02Z</time>
      </trkpt>
      <trkpt lat="45.94455" lon="4.78603">
        <ele>240</ele>
        <time>2017-12-12T10:12:05Z</time>
      </trkpt>
      <trkpt lat="45.94456" lon="4.78606">
        <ele>240</ele>
        <time>2017-12-12T10:12:06Z</time>
      </trkpt>
      <trkpt lat="45.9446" lon="4.78616">
        <ele>241</ele>
        <time>2017-12-12T10:12:09Z</time>
      </trkpt>
      <trkpt lat="45.94461" lon="4.78619">
        <ele>241</ele>
        <time>2017-12-12T10:12:10Z</time>
      </trkpt>
      <trkpt lat="45.94465" lon="4.78629">
        <ele>241</ele>
        <time>2017-12-12T10:12:13Z</time>
      </trkpt>
      <trkpt lat="45.94465" lon="4.78632">
        <ele>241</ele>
        <time>2017-12-12T10:12:14Z</time>
      </trkpt>
      <trkpt lat="45.94466" lon="4.78643">
        <ele>241</ele>
        <time>2017-12-12T10:12:17Z</time>
      </trkpt>
      <trkpt lat="45.94467" lon="4.78646">
        <ele>241</ele>
        <time>2017-12-12T10:12:18Z</time>
      </trkpt>
      <trkpt lat="45.94468" lon="4.78656">
        <ele>241</ele>
        <time>2017-12-12T10:12:21Z</time>
      </trkpt>
      <trkpt lat="45.94469" lon="4.78659">
        <ele>241</ele>
        <time>2017-12-12T10:12:22Z</time>
      </trkpt>
      <trkpt lat="45.94471" lon="4.78671">
        <ele>244</ele>
        <time>2017-12-12T10:12:26Z</time>
      </trkpt>
      <trkpt lat="45.94472" lon="4.78674">
        <ele>244</ele>
        <time>2017-12-12T10:12:27Z</time>
      </trkpt>
      <trkpt lat="45.94472" lon="4.78685">
        <ele>244</ele>
        <time>2017-12-12T10:12:30Z</time>
      </trkpt>
      <trkpt lat="45.94472" lon="4.78688">
        <ele>244</ele>
        <time>2017-12-12T10:12:31Z</time>
      </trkpt>
      <trkpt lat="45.94472" lon="4.78699">
        <ele>245</ele>
        <time>2017-12-12T10:12:34Z</time>
      </trkpt>
      <trkpt lat="45.94473" lon="4.78702">
        <ele>245</ele>
        <time>2017-12-12T10:12:35Z</time>
      </trkpt>
      <trkpt lat="45.94475" lon="4.78712">
        <ele>245</ele>
        <time>2017-12-12T10:12:38Z</time>
      </trkpt>
      <trkpt lat="45.94476" lon="4.78715">
        <ele>245</ele>
        <time>2017-12-12T10:12:39Z</time>
      </trkpt>
      <trkpt lat="45.94477" lon="4.78725">
        <ele>246</ele>
        <time>2017-12-12T10:12:42Z</time>
      </trkpt>
      <trkpt lat="45.94478" lon="4.78728">
        <ele>246</ele>
        <time>2017-12-12T10:12:43Z</time>
      </trkpt>
      <trkpt lat="45.94479" lon="4.78738">
        <ele>246</ele>
        <time>2017-12-12T10:12:46Z</time>
      </trkpt>
      <trkpt lat="45.94479" lon="4.78742">
        <ele>246</ele>
        <time>2017-12-12T10:12:47Z</time>
      </trkpt>
      <trkpt lat="45.94479" lon="4.78754">
        <ele>249</ele>
        <time>2017-12-12T10:12:51Z</time>
      </trkpt>
      <trkpt lat="45.94479" lon="4.78757">
        <ele>249</ele>
        <time>2017-12-12T10:12:52Z</time>
      </trkpt>
      <trkpt lat="45.94479" lon="4.78769">
        <ele>249</ele>
        <time>2017-12-12T10:12:56Z</time>
      </trkpt>
      <trkpt lat="45.94478" lon="4.7877">
        <ele>250</ele>
        <time>2017-12-12T10:12:57Z</time>
      </trkpt>
      <trkpt lat="45.94473" lon="4.78778">
        <ele>250</ele>
        <time>2017-12-12T10:13:01Z</time>
      </trkpt>
      <trkpt lat="45.94473" lon="4.78782">
        <ele>250</ele>
        <time>2017-12-12T10:13:02Z</time>
      </trkpt>
      <trkpt lat="45.94472" lon="4.78792">
        <ele>250</ele>
        <time>2017-12-12T10:13:05Z</time>
      </trkpt>
      <trkpt lat="45.94471" lon="4.78795">
        <ele>250</ele>
        <time>2017-12-12T10:13:06Z</time>
      </trkpt>
      <trkpt lat="45.94468" lon="4.78805">
        <ele>251</ele>
        <time>2017-12-12T10:13:10Z</time>
      </trkpt>
      <trkpt lat="45.94467" lon="4.78808">
        <ele>251</ele>
        <time>2017-12-12T10:13:11Z</time>
      </trkpt>
      <trkpt lat="45.94464" lon="4.78818">
        <ele>251</ele>
        <time>2017-12-12T10:13:15Z</time>
      </trkpt>
      <trkpt lat="45.94463" lon="4.78821">
        <ele>251</ele>
        <time>2017-12-12T10:13:16Z</time>
      </trkpt>
      <trkpt lat="45.94461" lon="4.78831">
        <ele>251</ele>
        <time>2017-12-12T10:13:19Z</time>
      </trkpt>
      <trkpt lat="45.94461" lon="4.78834">
        <ele>253</ele>
        <time>2017-12-12T10:13:20Z</time>
      </trkpt>
      <trkpt lat="45.94459" lon="4.78845">
        <ele>253</ele>
        <time>2017-12-12T10:13:23Z</time>
      </trkpt>
      <trkpt lat="45.94459" lon="4.78848">
        <ele>253</ele>
        <time>2017-12-12T10:13:24Z</time>
      </trkpt>
      <trkpt lat="45.94457" lon="4.78861">
        <ele>253</ele>
        <time>2017-12-12T10:13:28Z</time>
      </trkpt>
      <trkpt lat="45.94457" lon="4.78864">
        <ele>253</ele>
        <time>2017-12-12T10:13:29Z</time>
      </trkpt>
      <trkpt lat="45.94458" lon="4.78875">
        <ele>253</ele>
        <time>2017-12-12T10:13:33Z</time>
      </trkpt>
      <trkpt lat="45.94458" lon="4.78878">
        <ele>253</ele>
        <time>2017-12-12T10:13:34Z</time>
      </trkpt>
      <trkpt lat="45.94458" lon="4.78889">
        <ele>253</ele>
        <time>2017-12-12T10:13:37Z</time>
      </trkpt>
      <trkpt lat="45.94458" lon="4.78892">
        <ele>253</ele>
        <time>2017-12-12T10:13:38Z</time>
      </trkpt>
      <trkpt lat="45.94459" lon="4.78902">
        <ele>253</ele>
        <time>2017-12-12T10:13:41Z</time>
      </trkpt>
      <trkpt lat="45.94459" lon="4.78905">
        <ele>253</ele>
        <time>2017-12-12T10:13:42Z</time>
      </trkpt>
      <trkpt lat="45.94461" lon="4.78917">
        <ele>254</ele>
        <time>2017-12-12T10:13:46Z</time>
      </trkpt>
      <trkpt lat="45.94462" lon="4.7892">
        <ele>254</ele>
        <time>2017-12-12T10:13:47Z</time>
      </trkpt>
      <trkpt lat="45.94464" lon="4.7893">
        <ele>254</ele>
        <time>2017-12-12T10:13:50Z</time>
      </trkpt>
      <trkpt lat="45.94466" lon="4.78933">
        <ele>254</ele>
        <time>2017-12-12T10:13:51Z</time>
      </trkpt>
      <trkpt lat="45.94469" lon="4.78943">
        <ele>254</ele>
        <time>2017-12-12T10:13:54Z</time>
      </trkpt>
      <trkpt lat="45.9447" lon="4.78946">
        <ele>254</ele>
        <time>2017-12-12T10:13:55Z</time>
      </trkpt>
      <trkpt lat="45.94475" lon="4.78957">
        <ele>254</ele>
        <time>2017-12-12T10:13:59Z</time>
      </trkpt>
      <trkpt lat="45.94476" lon="4.7896">
        <ele>254</ele>
        <time>2017-12-12T10:14:00Z</time>
      </trkpt>
      <trkpt lat="45.94481" lon="4.78969">
        <ele>254</ele>
        <time>2017-12-12T10:14:03Z</time>
      </trkpt>
      <trkpt lat="45.94483" lon="4.78972">
        <ele>254</ele>
        <time>2017-12-12T10:14:04Z</time>
      </trkpt>
      <trkpt lat="45.94486" lon="4.78979">
        <ele>254</ele>
        <time>2017-12-12T10:14:06Z</time>
      </trkpt>
      <trkpt lat="45.94487" lon="4.78983">
        <ele>254</ele>
        <time>2017-12-12T10:14:07Z</time>
      </trkpt>
      <trkpt lat="45.94492" lon="4.78991">
        <ele>254</ele>
        <time>2017-12-12T10:14:10Z</time>
      </trkpt>
      <trkpt lat="45.94493" lon="4.78993">
        <ele>254</ele>
        <time>2017-12-12T10:14:11Z</time>
      </trkpt>
      <trkpt lat="45.94499" lon="4.79003">
        <ele>254</ele>
        <time>2017-12-12T10:14:14Z</time>
      </trkpt>
      <trkpt lat="45.945" lon="4.79006">
        <ele>254</ele>
        <time>2017-12-12T10:14:15Z</time>
      </trkpt>
      <trkpt lat="45.94504" lon="4.79016">
        <ele>255</ele>
        <time>2017-12-12T10:14:18Z</time>
      </trkpt>
      <trkpt lat="45.94505" lon="4.79019">
        <ele>255</ele>
        <time>2017-12-12T10:14:19Z</time>
      </trkpt>
      <trkpt lat="45.94511" lon="4.79028">
        <ele>255</ele>
        <time>2017-12-12T10:14:22Z</time>
      </trkpt>
      <trkpt lat="45.94513" lon="4.79032">
        <ele>255</ele>
        <time>2017-12-12T10:14:23Z</time>
      </trkpt>
      <trkpt lat="45.94518" lon="4.79042">
        <ele>255</ele>
        <time>2017-12-12T10:14:26Z</time>
      </trkpt>
      <trkpt lat="45.94519" lon="4.79046">
        <ele>255</ele>
        <time>2017-12-12T10:14:27Z</time>
      </trkpt>
      <trkpt lat="45.94523" lon="4.79053">
        <ele>255</ele>
        <time>2017-12-12T10:14:29Z</time>
      </trkpt>
      <trkpt lat="45.94525" lon="4.79057">
        <ele>255</ele>
        <time>2017-12-12T10:14:30Z</time>
      </trkpt>
      <trkpt lat="45.9453" lon="4.79066">
        <ele>255</ele>
        <time>2017-12-12T10:14:33Z</time>
      </trkpt>
      <trkpt lat="45.94532" lon="4.7907">
        <ele>255</ele>
        <time>2017-12-12T10:14:34Z</time>
      </trkpt>
      <trkpt lat="45.94536" lon="4.79079">
        <ele>255</ele>
        <time>2017-12-12T10:14:36Z</time>
      </trkpt>
      <trkpt lat="45.94538" lon="4.79082">
        <ele>256</ele>
        <time>2017-12-12T10:14:37Z</time>
      </trkpt>
      <trkpt lat="45.94541" lon="4.7909">
        <ele>256</ele>
        <time>2017-12-12T10:14:39Z</time>
      </trkpt>
      <trkpt lat="45.94543" lon="4.79094">
        <ele>256</ele>
        <time>2017-12-12T10:14:40Z</time>
      </trkpt>
      <trkpt lat="45.94548" lon="4.79104">
        <ele>256</ele>
        <time>2017-12-12T10:14:42Z</time>
      </trkpt>
      <trkpt lat="45.9455" lon="4.79108">
        <ele>256</ele>
        <time>2017-12-12T10:14:43Z</time>
      </trkpt>
      <trkpt lat="45.94555" lon="4.79118">
        <ele>257</ele>
        <time>2017-12-12T10:14:45Z</time>
      </trkpt>
      <trkpt lat="45.94558" lon="4.79123">
        <ele>257</ele>
        <time>2017-12-12T10:14:46Z</time>
      </trkpt>
      <trkpt lat="45.94563" lon="4.79132">
        <ele>257</ele>
        <time>2017-12-12T10:14:48Z</time>
      </trkpt>
      <trkpt lat="45.94565" lon="4.79137">
        <ele>257</ele>
        <time>2017-12-12T10:14:49Z</time>
      </trkpt>
      <trkpt lat="45.9457" lon="4.79147">
        <ele>257</ele>
        <time>2017-12-12T10:14:51Z</time>
      </trkpt>
      <trkpt lat="45.94572" lon="4.79152">
        <ele>258</ele>
        <time>2017-12-12T10:14:52Z</time>
      </trkpt>
      <trkpt lat="45.94576" lon="4.79162">
        <ele>258</ele>
        <time>2017-12-12T10:14:54Z</time>
      </trkpt>
      <trkpt lat="45.9458" lon="4.79166">
        <ele>259</ele>
        <time>2017-12-12T10:14:55Z</time>
      </trkpt>
      <trkpt lat="45.94586" lon="4.79176">
        <ele>258</ele>
        <time>2017-12-12T10:14:57Z</time>
      </trkpt>
      <trkpt lat="45.94589" lon="4.7918">
        <ele>258</ele>
        <time>2017-12-12T10:14:58Z</time>
      </trkpt>
      <trkpt lat="45.94592" lon="4.79192">
        <ele>257</ele>
        <time>2017-12-12T10:15:00Z</time>
      </trkpt>
      <trkpt lat="45.94594" lon="4.79196">
        <ele>257</ele>
        <time>2017-12-12T10:15:01Z</time>
      </trkpt>
      <trkpt lat="45.94599" lon="4.79205">
        <ele>257</ele>
        <time>2017-12-12T10:15:03Z</time>
      </trkpt>
      <trkpt lat="45.94602" lon="4.79211">
        <ele>257</ele>
        <time>2017-12-12T10:15:04Z</time>
      </trkpt>
      <trkpt lat="45.94606" lon="4.79215">
        <ele>257</ele>
        <time>2017-12-12T10:15:05Z</time>
      </trkpt>
      <trkpt lat="45.94608" lon="4.79222">
        <ele>256</ele>
        <time>2017-12-12T10:15:06Z</time>
      </trkpt>
      <trkpt lat="45.9461" lon="4.79227">
        <ele>256</ele>
        <time>2017-12-12T10:15:07Z</time>
      </trkpt>
      <trkpt lat="45.94613" lon="4.79232">
        <ele>256</ele>
        <time>2017-12-12T10:15:08Z</time>
      </trkpt>
      <trkpt lat="45.94616" lon="4.79238">
        <ele>256</ele>
        <time>2017-12-12T10:15:09Z</time>
      </trkpt>
      <trkpt lat="45.94619" lon="4.79244">
        <ele>256</ele>
        <time>2017-12-12T10:15:10Z</time>
      </trkpt>
      <trkpt lat="45.94622" lon="4.79252">
        <ele>255</ele>
        <time>2017-12-12T10:15:12Z</time>
      </trkpt>
      <trkpt lat="45.94624" lon="4.79257">
        <ele>255</ele>
        <time>2017-12-12T10:15:13Z</time>
      </trkpt>
      <trkpt lat="45.94629" lon="4.79267">
        <ele>254</ele>
        <time>2017-12-12T10:15:15Z</time>
      </trkpt>
      <trkpt lat="45.94632" lon="4.79271">
        <ele>254</ele>
        <time>2017-12-12T10:15:16Z</time>
      </trkpt>
      <trkpt lat="45.94634" lon="4.7928">
        <ele>254</ele>
        <time>2017-12-12T10:15:18Z</time>
      </trkpt>
      <trkpt lat="45.94636" lon="4.79285">
        <ele>254</ele>
        <time>2017-12-12T10:15:19Z</time>
      </trkpt>
      <trkpt lat="45.94639" lon="4.79291">
        <ele>254</ele>
        <time>2017-12-12T10:15:20Z</time>
      </trkpt>
      <trkpt lat="45.94642" lon="4.79296">
        <ele>254</ele>
        <time>2017-12-12T10:15:21Z</time>
      </trkpt>
      <trkpt lat="45.94646" lon="4.79302">
        <ele>254</ele>
        <time>2017-12-12T10:15:22Z</time>
      </trkpt>
      <trkpt lat="45.94649" lon="4.79307">
        <ele>254</ele>
        <time>2017-12-12T10:15:23Z</time>
      </trkpt>
      <trkpt lat="45.94652" lon="4.79314">
        <ele>254</ele>
        <time>2017-12-12T10:15:24Z</time>
      </trkpt>
      <trkpt lat="45.94654" lon="4.79319">
        <ele>254</ele>
        <time>2017-12-12T10:15:25Z</time>
      </trkpt>
      <trkpt lat="45.94656" lon="4.79325">
        <ele>254</ele>
        <time>2017-12-12T10:15:26Z</time>
      </trkpt>
      <trkpt lat="45.9466" lon="4.7933">
        <ele>254</ele>
        <time>2017-12-12T10:15:27Z</time>
      </trkpt>
      <trkpt lat="45.94662" lon="4.79335">
        <ele>254</ele>
        <time>2017-12-12T10:15:28Z</time>
      </trkpt>
      <trkpt lat="45.94666" lon="4.79341">
        <ele>254</ele>
        <time>2017-12-12T10:15:29Z</time>
      </trkpt>
      <trkpt lat="45.94669" lon="4.79346">
        <ele>254</ele>
        <time>2017-12-12T10:15:30Z</time>
      </trkpt>
      <trkpt lat="45.94672" lon="4.79352">
        <ele>253</ele>
        <time>2017-12-12T10:15:31Z</time>
      </trkpt>
      <trkpt lat="45.94675" lon="4.79358">
        <ele>253</ele>
        <time>2017-12-12T10:15:32Z</time>
      </trkpt>
      <trkpt lat="45.94678" lon="4.79364">
        <ele>253</ele>
        <time>2017-12-12T10:15:33Z</time>
      </trkpt>
      <trkpt lat="45.9468" lon="4.79369">
        <ele>253</ele>
        <time>2017-12-12T10:15:34Z</time>
      </trkpt>
      <trkpt lat="45.94684" lon="4.79375">
        <ele>253</ele>
        <time>2017-12-12T10:15:35Z</time>
      </trkpt>
      <trkpt lat="45.94686" lon="4.79381">
        <ele>253</ele>
        <time>2017-12-12T10:15:36Z</time>
      </trkpt>
      <trkpt lat="45.9469" lon="4.79386">
        <ele>253</ele>
        <time>2017-12-12T10:15:37Z</time>
      </trkpt>
      <trkpt lat="45.94693" lon="4.79392">
        <ele>253</ele>
        <time>2017-12-12T10:15:38Z</time>
      </trkpt>
      <trkpt lat="45.94694" lon="4.79398">
        <ele>253</ele>
        <time>2017-12-12T10:15:39Z</time>
      </trkpt>
      <trkpt lat="45.94696" lon="4.79403">
        <ele>253</ele>
        <time>2017-12-12T10:15:40Z</time>
      </trkpt>
      <trkpt lat="45.94699" lon="4.79409">
        <ele>253</ele>
        <time>2017-12-12T10:15:41Z</time>
      </trkpt>
      <trkpt lat="45.94702" lon="4.79415">
        <ele>253</ele>
        <time>2017-12-12T10:15:42Z</time>
      </trkpt>
      <trkpt lat="45.94705" lon="4.79422">
        <ele>253</ele>
        <time>2017-12-12T10:15:43Z</time>
      </trkpt>
      <trkpt lat="45.94707" lon="4.79427">
        <ele>253</ele>
        <time>2017-12-12T10:15:44Z</time>
      </trkpt>
      <trkpt lat="45.9471" lon="4.79434">
        <ele>253</ele>
        <time>2017-12-12T10:15:45Z</time>
      </trkpt>
      <trkpt lat="45.94714" lon="4.7944">
        <ele>253</ele>
        <time>2017-12-12T10:15:46Z</time>
      </trkpt>
      <trkpt lat="45.94716" lon="4.79447">
        <ele>253</ele>
        <time>2017-12-12T10:15:47Z</time>
      </trkpt>
      <trkpt lat="45.9472" lon="4.79453">
        <ele>253</ele>
        <time>2017-12-12T10:15:48Z</time>
      </trkpt>
      <trkpt lat="45.94722" lon="4.79459">
        <ele>253</ele>
        <time>2017-12-12T10:15:49Z</time>
      </trkpt>
      <trkpt lat="45.94723" lon="4.79465">
        <ele>253</ele>
        <time>2017-12-12T10:15:50Z</time>
      </trkpt>
      <trkpt lat="45.94726" lon="4.79471">
        <ele>253</ele>
        <time>2017-12-12T10:15:51Z</time>
      </trkpt>
      <trkpt lat="45.94729" lon="4.79478">
        <ele>253</ele>
        <time>2017-12-12T10:15:52Z</time>
      </trkpt>
      <trkpt lat="45.94732" lon="4.79485">
        <ele>253</ele>
        <time>2017-12-12T10:15:53Z</time>
      </trkpt>
      <trkpt lat="45.94735" lon="4.79492">
        <ele>253</ele>
        <time>2017-12-12T10:15:54Z</time>
      </trkpt>
      <trkpt lat="45.94737" lon="4.79498">
        <ele>252</ele>
        <time>2017-12-12T10:15:55Z</time>
      </trkpt>
      <trkpt lat="45.9474" lon="4.79505">
        <ele>252</ele>
        <time>2017-12-12T10:15:56Z</time>
      </trkpt>
      <trkpt lat="45.94743" lon="4.79511">
        <ele>252</ele>
        <time>2017-12-12T10:15:57Z</time>
      </trkpt>
      <trkpt lat="45.94746" lon="4.79519">
        <ele>252</ele>
        <time>2017-12-12T10:15:58Z</time>
      </trkpt>
      <trkpt lat="45.94749" lon="4.79526">
        <ele>253</ele>
        <time>2017-12-12T10:15:59Z</time>
      </trkpt>
      <trkpt lat="45.94752" lon="4.79533">
        <ele>252</ele>
        <time>2017-12-12T10:16:00Z</time>
      </trkpt>
      <trkpt lat="45.94754" lon="4.79541">
        <ele>252</ele>
        <time>2017-12-12T10:16:01Z</time>
      </trkpt>
      <trkpt lat="45.94757" lon="4.79548">
        <ele>252</ele>
        <time>2017-12-12T10:16:02Z</time>
      </trkpt>
      <trkpt lat="45.9476" lon="4.79554">
        <ele>252</ele>
        <time>2017-12-12T10:16:03Z</time>
      </trkpt>
      <trkpt lat="45.94761" lon="4.79565">
        <ele>252</ele>
        <time>2017-12-12T10:16:05Z</time>
      </trkpt>
      <trkpt lat="45.94761" lon="4.7957">
        <ele>252</ele>
        <time>2017-12-12T10:16:06Z</time>
      </trkpt>
      <trkpt lat="45.94761" lon="4.79582">
        <ele>252</ele>
        <time>2017-12-12T10:16:08Z</time>
      </trkpt>
      <trkpt lat="45.94761" lon="4.79588">
        <ele>253</ele>
        <time>2017-12-12T10:16:09Z</time>
      </trkpt>
      <trkpt lat="45.94764" lon="4.79598">
        <ele>253</ele>
        <time>2017-12-12T10:16:11Z</time>
      </trkpt>
      <trkpt lat="45.94764" lon="4.79604">
        <ele>253</ele>
        <time>2017-12-12T10:16:12Z</time>
      </trkpt>
      <trkpt lat="45.94766" lon="4.7961">
        <ele>253</ele>
        <time>2017-12-12T10:16:13Z</time>
      </trkpt>
      <trkpt lat="45.94767" lon="4.79617">
        <ele>253</ele>
        <time>2017-12-12T10:16:14Z</time>
      </trkpt>
      <trkpt lat="45.94769" lon="4.79624">
        <ele>253</ele>
        <time>2017-12-12T10:16:15Z</time>
      </trkpt>
      <trkpt lat="45.94771" lon="4.7963">
        <ele>253</ele>
        <time>2017-12-12T10:16:16Z</time>
      </trkpt>
      <trkpt lat="45.94774" lon="4.79637">
        <ele>253</ele>
        <time>2017-12-12T10:16:17Z</time>
      </trkpt>
      <trkpt lat="45.94776" lon="4.79643">
        <ele>254</ele>
        <time>2017-12-12T10:16:18Z</time>
      </trkpt>
      <trkpt lat="45.94777" lon="4.7965">
        <ele>254</ele>
        <time>2017-12-12T10:16:19Z</time>
      </trkpt>
      <trkpt lat="45.94778" lon="4.79656">
        <ele>254</ele>
        <time>2017-12-12T10:16:20Z</time>
      </trkpt>
      <trkpt lat="45.94779" lon="4.79662">
        <ele>254</ele>
        <time>2017-12-12T10:16:21Z</time>
      </trkpt>
      <trkpt lat="45.9478" lon="4.79669">
        <ele>254</ele>
        <time>2017-12-12T10:16:22Z</time>
      </trkpt>
      <trkpt lat="45.94784" lon="4.7968">
        <ele>254</ele>
        <time>2017-12-12T10:16:24Z</time>
      </trkpt>
      <trkpt lat="45.94787" lon="4.79685">
        <ele>254</ele>
        <time>2017-12-12T10:16:25Z</time>
      </trkpt>
      <trkpt lat="45.94788" lon="4.79697">
        <ele>254</ele>
        <time>2017-12-12T10:16:27Z</time>
      </trkpt>
      <trkpt lat="45.94792" lon="4.79703">
        <ele>254</ele>
        <time>2017-12-12T10:16:28Z</time>
      </trkpt>
      <trkpt lat="45.94794" lon="4.7971">
        <ele>254</ele>
        <time>2017-12-12T10:16:29Z</time>
      </trkpt>
      <trkpt lat="45.94795" lon="4.79717">
        <ele>254</ele>
        <time>2017-12-12T10:16:30Z</time>
      </trkpt>
      <trkpt lat="45.94798" lon="4.79723">
        <ele>254</ele>
        <time>2017-12-12T10:16:31Z</time>
      </trkpt>
      <trkpt lat="45.948" lon="4.79731">
        <ele>254</ele>
        <time>2017-12-12T10:16:32Z</time>
      </trkpt>
      <trkpt lat="45.94802" lon="4.79738">
        <ele>254</ele>
        <time>2017-12-12T10:16:33Z</time>
      </trkpt>
      <trkpt lat="45.94803" lon="4.79744">
        <ele>254</ele>
        <time>2017-12-12T10:16:34Z</time>
      </trkpt>
      <trkpt lat="45.94804" lon="4.79751">
        <ele>254</ele>
        <time>2017-12-12T10:16:35Z</time>
      </trkpt>
      <trkpt lat="45.94806" lon="4.79757">
        <ele>254</ele>
        <time>2017-12-12T10:16:36Z</time>
      </trkpt>
      <trkpt lat="45.94808" lon="4.79765">
        <ele>254</ele>
        <time>2017-12-12T10:16:37Z</time>
      </trkpt>
      <trkpt lat="45.9481" lon="4.79772">
        <ele>254</ele>
        <time>2017-12-12T10:16:38Z</time>
      </trkpt>
      <trkpt lat="45.94813" lon="4.7978">
        <ele>254</ele>
        <time>2017-12-12T10:16:39Z</time>
      </trkpt>
      <trkpt lat="45.94815" lon="4.79787">
        <ele>254</ele>
        <time>2017-12-12T10:16:40Z</time>
      </trkpt>
      <trkpt lat="45.94816" lon="4.79795">
        <ele>254</ele>
        <time>2017-12-12T10:16:41Z</time>
      </trkpt>
      <trkpt lat="45.94818" lon="4.79802">
        <ele>254</ele>
        <time>2017-12-12T10:16:42Z</time>
      </trkpt>
      <trkpt lat="45.94819" lon="4.7981">
        <ele>254</ele>
        <time>2017-12-12T10:16:43Z</time>
      </trkpt>
      <trkpt lat="45.94821" lon="4.79816">
        <ele>254</ele>
        <time>2017-12-12T10:16:44Z</time>
      </trkpt>
      <trkpt lat="45.94823" lon="4.79822">
        <ele>254</ele>
        <time>2017-12-12T10:16:45Z</time>
      </trkpt>
      <trkpt lat="45.94825" lon="4.79828">
        <ele>254</ele>
        <time>2017-12-12T10:16:46Z</time>
      </trkpt>
      <trkpt lat="45.94827" lon="4.79835">
        <ele>254</ele>
        <time>2017-12-12T10:16:47Z</time>
      </trkpt>
      <trkpt lat="45.94829" lon="4.7984">
        <ele>254</ele>
        <time>2017-12-12T10:16:48Z</time>
      </trkpt>
      <trkpt lat="45.9483" lon="4.79847">
        <ele>254</ele>
        <time>2017-12-12T10:16:49Z</time>
      </trkpt>
      <trkpt lat="45.94832" lon="4.79853">
        <ele>254</ele>
        <time>2017-12-12T10:16:50Z</time>
      </trkpt>
      <trkpt lat="45.94834" lon="4.79859">
        <ele>255</ele>
        <time>2017-12-12T10:16:51Z</time>
      </trkpt>
      <trkpt lat="45.94835" lon="4.79866">
        <ele>255</ele>
        <time>2017-12-12T10:16:52Z</time>
      </trkpt>
      <trkpt lat="45.94836" lon="4.79872">
        <ele>255</ele>
        <time>2017-12-12T10:16:53Z</time>
      </trkpt>
      <trkpt lat="45.94836" lon="4.79879">
        <ele>255</ele>
        <time>2017-12-12T10:16:54Z</time>
      </trkpt>
      <trkpt lat="45.94838" lon="4.79884">
        <ele>255</ele>
        <time>2017-12-12T10:16:55Z</time>
      </trkpt>
      <trkpt lat="45.94841" lon="4.79891">
        <ele>255</ele>
        <time>2017-12-12T10:16:56Z</time>
      </trkpt>
      <trkpt lat="45.94843" lon="4.79897">
        <ele>255</ele>
        <time>2017-12-12T10:16:57Z</time>
      </trkpt>
      <trkpt lat="45.94845" lon="4.79903">
        <ele>255</ele>
        <time>2017-12-12T10:16:58Z</time>
      </trkpt>
      <trkpt lat="45.94849" lon="4.79914">
        <ele>256</ele>
        <time>2017-12-12T10:17:00Z</time>
      </trkpt>
      <trkpt lat="45.94851" lon="4.79919">
        <ele>256</ele>
        <time>2017-12-12T10:17:01Z</time>
      </trkpt>
      <trkpt lat="45.94857" lon="4.79928">
        <ele>256</ele>
        <time>2017-12-12T10:17:03Z</time>
      </trkpt>
      <trkpt lat="45.94859" lon="4.79934">
        <ele>256</ele>
        <time>2017-12-12T10:17:04Z</time>
      </trkpt>
      <trkpt lat="45.94862" lon="4.79939">
        <ele>256</ele>
        <time>2017-12-12T10:17:05Z</time>
      </trkpt>
      <trkpt lat="45.94866" lon="4.79945">
        <ele>256</ele>
        <time>2017-12-12T10:17:06Z</time>
      </trkpt>
      <trkpt lat="45.94869" lon="4.79952">
        <ele>256</ele>
        <time>2017-12-12T10:17:07Z</time>
      </trkpt>
      <trkpt lat="45.94872" lon="4.79959">
        <ele>256</ele>
        <time>2017-12-12T10:17:08Z</time>
      </trkpt>
      <trkpt lat="45.94874" lon="4.79965">
        <ele>256</ele>
        <time>2017-12-12T10:17:09Z</time>
      </trkpt>
      <trkpt lat="45.94876" lon="4.79973">
        <ele>256</ele>
        <time>2017-12-12T10:17:10Z</time>
      </trkpt>
      <trkpt lat="45.94878" lon="4.79978">
        <ele>256</ele>
        <time>2017-12-12T10:17:11Z</time>
      </trkpt>
      <trkpt lat="45.94881" lon="4.79984">
        <ele>256</ele>
        <time>2017-12-12T10:17:12Z</time>
      </trkpt>
      <trkpt lat="45.94885" lon="4.79995">
        <ele>256</ele>
        <time>2017-12-12T10:17:14Z</time>
      </trkpt>
      <trkpt lat="45.94888" lon="4.8">
        <ele>256</ele>
        <time>2017-12-12T10:17:15Z</time>
      </trkpt>
      <trkpt lat="45.9489" lon="4.80006">
        <ele>256</ele>
        <time>2017-12-12T10:17:16Z</time>
      </trkpt>
      <trkpt lat="45.94892" lon="4.80013">
        <ele>256</ele>
        <time>2017-12-12T10:17:17Z</time>
      </trkpt>
      <trkpt lat="45.94894" lon="4.80019">
        <ele>256</ele>
        <time>2017-12-12T10:17:18Z</time>
      </trkpt>
      <trkpt lat="45.94896" lon="4.80025">
        <ele>256</ele>
        <time>2017-12-12T10:17:19Z</time>
      </trkpt>
      <trkpt lat="45.94901" lon="4.80035">
        <ele>256</ele>
        <time>2017-12-12T10:17:21Z</time>
      </trkpt>
      <trkpt lat="45.94903" lon="4.80042">
        <ele>256</ele>
        <time>2017-12-12T10:17:22Z</time>
      </trkpt>
      <trkpt lat="45.94904" lon="4.8005">
        <ele>256</ele>
        <time>2017-12-12T10:17:23Z</time>
      </trkpt>
      <trkpt lat="45.94906" lon="4.80056">
        <ele>256</ele>
        <time>2017-12-12T10:17:24Z</time>
      </trkpt>
      <trkpt lat="45.94908" lon="4.80062">
        <ele>256</ele>
        <time>2017-12-12T10:17:25Z</time>
      </trkpt>
      <trkpt lat="45.9491" lon="4.8007">
        <ele>257</ele>
        <time>2017-12-12T10:17:26Z</time>
      </trkpt>
      <trkpt lat="45.94912" lon="4.80076">
        <ele>257</ele>
        <time>2017-12-12T10:17:27Z</time>
      </trkpt>
      <trkpt lat="45.94912" lon="4.80083">
        <ele>257</ele>
        <time>2017-12-12T10:17:28Z</time>
      </trkpt>
      <trkpt lat="45.94914" lon="4.80095">
        <ele>257</ele>
        <time>2017-12-12T10:17:30Z</time>
      </trkpt>
      <trkpt lat="45.94915" lon="4.801">
        <ele>256</ele>
        <time>2017-12-12T10:17:31Z</time>
      </trkpt>
      <trkpt lat="45.94917" lon="4.80112">
        <ele>256</ele>
        <time>2017-12-12T10:17:33Z</time>
      </trkpt>
      <trkpt lat="45.94919" lon="4.80117">
        <ele>256</ele>
        <time>2017-12-12T10:17:34Z</time>
      </trkpt>
      <trkpt lat="45.9492" lon="4.80123">
        <ele>256</ele>
        <time>2017-12-12T10:17:35Z</time>
      </trkpt>
      <trkpt lat="45.94922" lon="4.8013">
        <ele>256</ele>
        <time>2017-12-12T10:17:36Z</time>
      </trkpt>
      <trkpt lat="45.94924" lon="4.80142">
        <ele>256</ele>
        <time>2017-12-12T10:17:38Z</time>
      </trkpt>
      <trkpt lat="45.94926" lon="4.80148">
        <ele>256</ele>
        <time>2017-12-12T10:17:39Z</time>
      </trkpt>
      <trkpt lat="45.94927" lon="4.80158">
        <ele>255</ele>
        <time>2017-12-12T10:17:41Z</time>
      </trkpt>
      <trkpt lat="45.94927" lon="4.80164">
        <ele>255</ele>
        <time>2017-12-12T10:17:42Z</time>
      </trkpt>
      <trkpt lat="45.94929" lon="4.80176">
        <ele>255</ele>
        <time>2017-12-12T10:17:44Z</time>
      </trkpt>
      <trkpt lat="45.94931" lon="4.80183">
        <ele>256</ele>
        <time>2017-12-12T10:17:45Z</time>
      </trkpt>
      <trkpt lat="45.94932" lon="4.8019">
        <ele>256</ele>
        <time>2017-12-12T10:17:46Z</time>
      </trkpt>
      <trkpt lat="45.94933" lon="4.80198">
        <ele>256</ele>
        <time>2017-12-12T10:17:47Z</time>
      </trkpt>
      <trkpt lat="45.94935" lon="4.80205">
        <ele>256</ele>
        <time>2017-12-12T10:17:48Z</time>
      </trkpt>
      <trkpt lat="45.94936" lon="4.80211">
        <ele>256</ele>
        <time>2017-12-12T10:17:49Z</time>
      </trkpt>
      <trkpt lat="45.94936" lon="4.80223">
        <ele>256</ele>
        <time>2017-12-12T10:17:51Z</time>
      </trkpt>
      <trkpt lat="45.94937" lon="4.80231">
        <ele>256</ele>
        <time>2017-12-12T10:17:52Z</time>
      </trkpt>
      <trkpt lat="45.94939" lon="4.80241">
        <ele>256</ele>
        <time>2017-12-12T10:17:54Z</time>
      </trkpt>
      <trkpt lat="45.9494" lon="4.80245">
        <ele>256</ele>
        <time>2017-12-12T10:17:55Z</time>
      </trkpt>
      <trkpt lat="45.94941" lon="4.80256">
        <ele>257</ele>
        <time>2017-12-12T10:17:57Z</time>
      </trkpt>
      <trkpt lat="45.94942" lon="4.80263">
        <ele>257</ele>
        <time>2017-12-12T10:17:58Z</time>
      </trkpt>
      <trkpt lat="45.94942" lon="4.80275">
        <ele>257</ele>
        <time>2017-12-12T10:18:00Z</time>
      </trkpt>
      <trkpt lat="45.94942" lon="4.80281">
        <ele>257</ele>
        <time>2017-12-12T10:18:01Z</time>
      </trkpt>
      <trkpt lat="45.94942" lon="4.80288">
        <ele>257</ele>
        <time>2017-12-12T10:18:02Z</time>
      </trkpt>
      <trkpt lat="45.94942" lon="4.80295">
        <ele>257</ele>
        <time>2017-12-12T10:18:03Z</time>
      </trkpt>
      <trkpt lat="45.94943" lon="4.80306">
        <ele>257</ele>
        <time>2017-12-12T10:18:05Z</time>
      </trkpt>
      <trkpt lat="45.94942" lon="4.80312">
        <ele>257</ele>
        <time>2017-12-12T10:18:06Z</time>
      </trkpt>
      <trkpt lat="45.94945" lon="4.80323">
        <ele>257</ele>
        <time>2017-12-12T10:18:08Z</time>
      </trkpt>
      <trkpt lat="45.94945" lon="4.80328">
        <ele>257</ele>
        <time>2017-12-12T10:18:09Z</time>
      </trkpt>
      <trkpt lat="45.94946" lon="4.80336">
        <ele>258</ele>
        <time>2017-12-12T10:18:10Z</time>
      </trkpt>
      <trkpt lat="45.94945" lon="4.80342">
        <ele>258</ele>
        <time>2017-12-12T10:18:11Z</time>
      </trkpt>
      <trkpt lat="45.94944" lon="4.80349">
        <ele>258</ele>
        <time>2017-12-12T10:18:12Z</time>
      </trkpt>
      <trkpt lat="45.94943" lon="4.80356">
        <ele>258</ele>
        <time>2017-12-12T10:18:13Z</time>
      </trkpt>
      <trkpt lat="45.94942" lon="4.80363">
        <ele>258</ele>
        <time>2017-12-12T10:18:14Z</time>
      </trkpt>
      <trkpt lat="45.94942" lon="4.8037">
        <ele>258</ele>
        <time>2017-12-12T10:18:15Z</time>
      </trkpt>
      <trkpt lat="45.94943" lon="4.80383">
        <ele>258</ele>
        <time>2017-12-12T10:18:17Z</time>
      </trkpt>
      <trkpt lat="45.94943" lon="4.80388">
        <ele>258</ele>
        <time>2017-12-12T10:18:18Z</time>
      </trkpt>
      <trkpt lat="45.94944" lon="4.80395">
        <ele>258</ele>
        <time>2017-12-12T10:18:19Z</time>
      </trkpt>
      <trkpt lat="45.94944" lon="4.80401">
        <ele>258</ele>
        <time>2017-12-12T10:18:20Z</time>
      </trkpt>
      <trkpt lat="45.94944" lon="4.80408">
        <ele>258</ele>
        <time>2017-12-12T10:18:21Z</time>
      </trkpt>
      <trkpt lat="45.94944" lon="4.80416">
        <ele>259</ele>
        <time>2017-12-12T10:18:22Z</time>
      </trkpt>
      <trkpt lat="45.94945" lon="4.80428">
        <ele>259</ele>
        <time>2017-12-12T10:18:24Z</time>
      </trkpt>
      <trkpt lat="45.94945" lon="4.80435">
        <ele>259</ele>
        <time>2017-12-12T10:18:25Z</time>
      </trkpt>
      <trkpt lat="45.94945" lon="4.80442">
        <ele>259</ele>
        <time>2017-12-12T10:18:26Z</time>
      </trkpt>
      <trkpt lat="45.94944" lon="4.80449">
        <ele>259</ele>
        <time>2017-12-12T10:18:27Z</time>
      </trkpt>
      <trkpt lat="45.94944" lon="4.80456">
        <ele>258</ele>
        <time>2017-12-12T10:18:28Z</time>
      </trkpt>
      <trkpt lat="45.94945" lon="4.80463">
        <ele>258</ele>
        <time>2017-12-12T10:18:29Z</time>
      </trkpt>
      <trkpt lat="45.94946" lon="4.80469">
        <ele>258</ele>
        <time>2017-12-12T10:18:30Z</time>
      </trkpt>
      <trkpt lat="45.94946" lon="4.80476">
        <ele>258</ele>
        <time>2017-12-12T10:18:31Z</time>
      </trkpt>
      <trkpt lat="45.94947" lon="4.80488">
        <ele>258</ele>
        <time>2017-12-12T10:18:33Z</time>
      </trkpt>
      <trkpt lat="45.94947" lon="4.80495">
        <ele>258</ele>
        <time>2017-12-12T10:18:34Z</time>
      </trkpt>
      <trkpt lat="45.94949" lon="4.80506">
        <ele>258</ele>
        <time>2017-12-12T10:18:36Z</time>
      </trkpt>
      <trkpt lat="45.94948" lon="4.80514">
        <ele>258</ele>
        <time>2017-12-12T10:18:37Z</time>
      </trkpt>
      <trkpt lat="45.94948" lon="4.80521">
        <ele>258</ele>
        <time>2017-12-12T10:18:38Z</time>
      </trkpt>
      <trkpt lat="45.94948" lon="4.80528">
        <ele>258</ele>
        <time>2017-12-12T10:18:39Z</time>
      </trkpt>
      <trkpt lat="45.94948" lon="4.80535">
        <ele>258</ele>
        <time>2017-12-12T10:18:40Z</time>
      </trkpt>
      <trkpt lat="45.94948" lon="4.80542">
        <ele>258</ele>
        <time>2017-12-12T10:18:41Z</time>
      </trkpt>
      <trkpt lat="45.94949" lon="4.80553">
        <ele>258</ele>
        <time>2017-12-12T10:18:43Z</time>
      </trkpt>
      <trkpt lat="45.94949" lon="4.80559">
        <ele>257</ele>
        <time>2017-12-12T10:18:44Z</time>
      </trkpt>
      <trkpt lat="45.94948" lon="4.80572">
        <ele>257</ele>
        <time>2017-12-12T10:18:46Z</time>
      </trkpt>
      <trkpt lat="45.94948" lon="4.80578">
        <ele>257</ele>
        <time>2017-12-12T10:18:47Z</time>
      </trkpt>
      <trkpt lat="45.94949" lon="4.80585">
        <ele>258</ele>
        <time>2017-12-12T10:18:48Z</time>
      </trkpt>
      <trkpt lat="45.94949" lon="4.80592">
        <ele>258</ele>
        <time>2017-12-12T10:18:49Z</time>
      </trkpt>
      <trkpt lat="45.9495" lon="4.80599">
        <ele>258</ele>
        <time>2017-12-12T10:18:50Z</time>
      </trkpt>
      <trkpt lat="45.94949" lon="4.80608">
        <ele>258</ele>
        <time>2017-12-12T10:18:51Z</time>
      </trkpt>
      <trkpt lat="45.94949" lon="4.80615">
        <ele>258</ele>
        <time>2017-12-12T10:18:52Z</time>
      </trkpt>
      <trkpt lat="45.94949" lon="4.80622">
        <ele>258</ele>
        <time>2017-12-12T10:18:53Z</time>
      </trkpt>
      <trkpt lat="45.9495" lon="4.80635">
        <ele>258</ele>
        <time>2017-12-12T10:18:55Z</time>
      </trkpt>
      <trkpt lat="45.9495" lon="4.8064">
        <ele>258</ele>
        <time>2017-12-12T10:18:56Z</time>
      </trkpt>
      <trkpt lat="45.94951" lon="4.80652">
        <ele>259</ele>
        <time>2017-12-12T10:18:58Z</time>
      </trkpt>
      <trkpt lat="45.9495" lon="4.8066">
        <ele>259</ele>
        <time>2017-12-12T10:18:59Z</time>
      </trkpt>
      <trkpt lat="45.9495" lon="4.80672">
        <ele>259</ele>
        <time>2017-12-12T10:19:01Z</time>
      </trkpt>
      <trkpt lat="45.9495" lon="4.80679">
        <ele>259</ele>
        <time>2017-12-12T10:19:02Z</time>
      </trkpt>
      <trkpt lat="45.94951" lon="4.80686">
        <ele>259</ele>
        <time>2017-12-12T10:19:03Z</time>
      </trkpt>
      <trkpt lat="45.9495" lon="4.80692">
        <ele>259</ele>
        <time>2017-12-12T10:19:04Z</time>
      </trkpt>
      <trkpt lat="45.94951" lon="4.80704">
        <ele>259</ele>
        <time>2017-12-12T10:19:06Z</time>
      </trkpt>
      <trkpt lat="45.9495" lon="4.80708">
        <ele>259</ele>
        <time>2017-12-12T10:19:07Z</time>
      </trkpt>
      <trkpt lat="45.9495" lon="4.80719">
        <ele>259</ele>
        <time>2017-12-12T10:19:09Z</time>
      </trkpt>
      <trkpt lat="45.9495" lon="4.80726">
        <ele>259</ele>
        <time>2017-12-12T10:19:10Z</time>
      </trkpt>
      <trkpt lat="45.9495" lon="4.80736">
        <ele>259</ele>
        <time>2017-12-12T10:19:12Z</time>
      </trkpt>
      <trkpt lat="45.94951" lon="4.80742">
        <ele>259</ele>
        <time>2017-12-12T10:19:13Z</time>
      </trkpt>
      <trkpt lat="45.94951" lon="4.80749">
        <ele>259</ele>
        <time>2017-12-12T10:19:14Z</time>
      </trkpt>
      <trkpt lat="45.94951" lon="4.80757">
        <ele>259</ele>
        <time>2017-12-12T10:19:15Z</time>
      </trkpt>
      <trkpt lat="45.94951" lon="4.80768">
        <ele>259</ele>
        <time>2017-12-12T10:19:17Z</time>
      </trkpt>
      <trkpt lat="45.94951" lon="4.80772">
        <ele>259</ele>
        <time>2017-12-12T10:19:18Z</time>
      </trkpt>
      <trkpt lat="45.94949" lon="4.80781">
        <ele>259</ele>
        <time>2017-12-12T10:19:20Z</time>
      </trkpt>
      <trkpt lat="45.94948" lon="4.80785">
        <ele>259</ele>
        <time>2017-12-12T10:19:21Z</time>
      </trkpt>
      <trkpt lat="45.94948" lon="4.80798">
        <ele>259</ele>
        <time>2017-12-12T10:19:24Z</time>
      </trkpt>
      <trkpt lat="45.94949" lon="4.80802">
        <ele>259</ele>
        <time>2017-12-12T10:19:25Z</time>
      </trkpt>
      <trkpt lat="45.94953" lon="4.80812">
        <ele>258</ele>
        <time>2017-12-12T10:19:27Z</time>
      </trkpt>
      <trkpt lat="45.94956" lon="4.80818">
        <ele>258</ele>
        <time>2017-12-12T10:19:28Z</time>
      </trkpt>
      <trkpt lat="45.94958" lon="4.80825">
        <ele>258</ele>
        <time>2017-12-12T10:19:29Z</time>
      </trkpt>
      <trkpt lat="45.94959" lon="4.80832">
        <ele>259</ele>
        <time>2017-12-12T10:19:30Z</time>
      </trkpt>
      <trkpt lat="45.94962" lon="4.80838">
        <ele>259</ele>
        <time>2017-12-12T10:19:31Z</time>
      </trkpt>
      <trkpt lat="45.94964" lon="4.80844">
        <ele>259</ele>
        <time>2017-12-12T10:19:32Z</time>
      </trkpt>
      <trkpt lat="45.94966" lon="4.80856">
        <ele>259</ele>
        <time>2017-12-12T10:19:34Z</time>
      </trkpt>
      <trkpt lat="45.94967" lon="4.80863">
        <ele>259</ele>
        <time>2017-12-12T10:19:35Z</time>
      </trkpt>
      <trkpt lat="45.94968" lon="4.8087">
        <ele>259</ele>
        <time>2017-12-12T10:19:36Z</time>
      </trkpt>
      <trkpt lat="45.94969" lon="4.80876">
        <ele>258</ele>
        <time>2017-12-12T10:19:37Z</time>
      </trkpt>
      <trkpt lat="45.9497" lon="4.80884">
        <ele>258</ele>
        <time>2017-12-12T10:19:38Z</time>
      </trkpt>
      <trkpt lat="45.94971" lon="4.80891">
        <ele>258</ele>
        <time>2017-12-12T10:19:39Z</time>
      </trkpt>
      <trkpt lat="45.94972" lon="4.80898">
        <ele>258</ele>
        <time>2017-12-12T10:19:40Z</time>
      </trkpt>
      <trkpt lat="45.94974" lon="4.80906">
        <ele>258</ele>
        <time>2017-12-12T10:19:41Z</time>
      </trkpt>
      <trkpt lat="45.94975" lon="4.80914">
        <ele>258</ele>
        <time>2017-12-12T10:19:42Z</time>
      </trkpt>
      <trkpt lat="45.94976" lon="4.80921">
        <ele>258</ele>
        <time>2017-12-12T10:19:43Z</time>
      </trkpt>
      <trkpt lat="45.94979" lon="4.80929">
        <ele>258</ele>
        <time>2017-12-12T10:19:44Z</time>
      </trkpt>
      <trkpt lat="45.94979" lon="4.80935">
        <ele>258</ele>
        <time>2017-12-12T10:19:45Z</time>
      </trkpt>
      <trkpt lat="45.94981" lon="4.80942">
        <ele>258</ele>
        <time>2017-12-12T10:19:46Z</time>
      </trkpt>
      <trkpt lat="45.94982" lon="4.80949">
        <ele>258</ele>
        <time>2017-12-12T10:19:47Z</time>
      </trkpt>
      <trkpt lat="45.94983" lon="4.80955">
        <ele>258</ele>
        <time>2017-12-12T10:19:48Z</time>
      </trkpt>
      <trkpt lat="45.94983" lon="4.80962">
        <ele>258</ele>
        <time>2017-12-12T10:19:49Z</time>
      </trkpt>
      <trkpt lat="45.94983" lon="4.80973">
        <ele>258</ele>
        <time>2017-12-12T10:19:51Z</time>
      </trkpt>
      <trkpt lat="45.94984" lon="4.8098">
        <ele>258</ele>
        <time>2017-12-12T10:19:52Z</time>
      </trkpt>
      <trkpt lat="45.94984" lon="4.80986">
        <ele>258</ele>
        <time>2017-12-12T10:19:53Z</time>
      </trkpt>
      <trkpt lat="45.94984" lon="4.80993">
        <ele>258</ele>
        <time>2017-12-12T10:19:54Z</time>
      </trkpt>
      <trkpt lat="45.94985" lon="4.81">
        <ele>257</ele>
        <time>2017-12-12T10:19:55Z</time>
      </trkpt>
      <trkpt lat="45.94987" lon="4.81007">
        <ele>257</ele>
        <time>2017-12-12T10:19:56Z</time>
      </trkpt>
      <trkpt lat="45.94987" lon="4.81015">
        <ele>257</ele>
        <time>2017-12-12T10:19:57Z</time>
      </trkpt>
      <trkpt lat="45.94988" lon="4.81022">
        <ele>257</ele>
        <time>2017-12-12T10:19:58Z</time>
      </trkpt>
      <trkpt lat="45.94988" lon="4.81029">
        <ele>257</ele>
        <time>2017-12-12T10:19:59Z</time>
      </trkpt>
      <trkpt lat="45.94989" lon="4.81035">
        <ele>257</ele>
        <time>2017-12-12T10:20:00Z</time>
      </trkpt>
      <trkpt lat="45.94988" lon="4.81042">
        <ele>257</ele>
        <time>2017-12-12T10:20:01Z</time>
      </trkpt>
      <trkpt lat="45.94988" lon="4.81049">
        <ele>257</ele>
        <time>2017-12-12T10:20:02Z</time>
      </trkpt>
      <trkpt lat="45.9499" lon="4.8106">
        <ele>257</ele>
        <time>2017-12-12T10:20:04Z</time>
      </trkpt>
      <trkpt lat="45.94991" lon="4.81066">
        <ele>257</ele>
        <time>2017-12-12T10:20:05Z</time>
      </trkpt>
      <trkpt lat="45.94992" lon="4.81078">
        <ele>257</ele>
        <time>2017-12-12T10:20:07Z</time>
      </trkpt>
      <trkpt lat="45.94994" lon="4.81085">
        <ele>257</ele>
        <time>2017-12-12T10:20:08Z</time>
      </trkpt>
      <trkpt lat="45.94995" lon="4.81092">
        <ele>257</ele>
        <time>2017-12-12T10:20:09Z</time>
      </trkpt>
      <trkpt lat="45.94995" lon="4.81097">
        <ele>257</ele>
        <time>2017-12-12T10:20:10Z</time>
      </trkpt>
      <trkpt lat="45.94996" lon="4.81105">
        <ele>257</ele>
        <time>2017-12-12T10:20:11Z</time>
      </trkpt>
      <trkpt lat="45.94997" lon="4.81113">
        <ele>257</ele>
        <time>2017-12-12T10:20:12Z</time>
      </trkpt>
      <trkpt lat="45.94997" lon="4.81123">
        <ele>257</ele>
        <time>2017-12-12T10:20:13Z</time>
      </trkpt>
      <trkpt lat="45.94997" lon="4.81132">
        <ele>256</ele>
        <time>2017-12-12T10:20:14Z</time>
      </trkpt>
      <trkpt lat="45.94998" lon="4.8114">
        <ele>256</ele>
        <time>2017-12-12T10:20:15Z</time>
      </trkpt>
      <trkpt lat="45.94999" lon="4.81149">
        <ele>256</ele>
        <time>2017-12-12T10:20:16Z</time>
      </trkpt>
      <trkpt lat="45.95001" lon="4.81158">
        <ele>256</ele>
        <time>2017-12-12T10:20:17Z</time>
      </trkpt>
      <trkpt lat="45.95002" lon="4.81166">
        <ele>256</ele>
        <time>2017-12-12T10:20:18Z</time>
      </trkpt>
      <trkpt lat="45.95003" lon="4.81174">
        <ele>256</ele>
        <time>2017-12-12T10:20:19Z</time>
      </trkpt>
      <trkpt lat="45.95004" lon="4.81183">
        <ele>256</ele>
        <time>2017-12-12T10:20:20Z</time>
      </trkpt>
      <trkpt lat="45.95005" lon="4.81191">
        <ele>256</ele>
        <time>2017-12-12T10:20:21Z</time>
      </trkpt>
      <trkpt lat="45.95006" lon="4.81199">
        <ele>256</ele>
        <time>2017-12-12T10:20:22Z</time>
      </trkpt>
      <trkpt lat="45.95007" lon="4.81207">
        <ele>256</ele>
        <time>2017-12-12T10:20:23Z</time>
      </trkpt>
      <trkpt lat="45.95007" lon="4.81216">
        <ele>256</ele>
        <time>2017-12-12T10:20:24Z</time>
      </trkpt>
      <trkpt lat="45.95009" lon="4.81223">
        <ele>256</ele>
        <time>2017-12-12T10:20:25Z</time>
      </trkpt>
      <trkpt lat="45.95009" lon="4.81231">
        <ele>256</ele>
        <time>2017-12-12T10:20:26Z</time>
      </trkpt>
      <trkpt lat="45.9501" lon="4.81239">
        <ele>256</ele>
        <time>2017-12-12T10:20:27Z</time>
      </trkpt>
      <trkpt lat="45.95011" lon="4.81246">
        <ele>256</ele>
        <time>2017-12-12T10:20:28Z</time>
      </trkpt>
      <trkpt lat="45.95012" lon="4.81252">
        <ele>256</ele>
        <time>2017-12-12T10:20:29Z</time>
      </trkpt>
      <trkpt lat="45.95013" lon="4.81259">
        <ele>256</ele>
        <time>2017-12-12T10:20:30Z</time>
      </trkpt>
      <trkpt lat="45.95014" lon="4.81266">
        <ele>255</ele>
        <time>2017-12-12T10:20:31Z</time>
      </trkpt>
      <trkpt lat="45.95015" lon="4.81274">
        <ele>255</ele>
        <time>2017-12-12T10:20:32Z</time>
      </trkpt>
      <trkpt lat="45.95017" lon="4.81282">
        <ele>255</ele>
        <time>2017-12-12T10:20:33Z</time>
      </trkpt>
      <trkpt lat="45.95019" lon="4.81288">
        <ele>255</ele>
        <time>2017-12-12T10:20:34Z</time>
      </trkpt>
      <trkpt lat="45.9502" lon="4.81294">
        <ele>255</ele>
        <time>2017-12-12T10:20:35Z</time>
      </trkpt>
      <trkpt lat="45.95022" lon="4.813">
        <ele>255</ele>
        <time>2017-12-12T10:20:36Z</time>
      </trkpt>
      <trkpt lat="45.95023" lon="4.81307">
        <ele>255</ele>
        <time>2017-12-12T10:20:37Z</time>
      </trkpt>
      <trkpt lat="45.95025" lon="4.81314">
        <ele>255</ele>
        <time>2017-12-12T10:20:38Z</time>
      </trkpt>
      <trkpt lat="45.95028" lon="4.81326">
        <ele>255</ele>
        <time>2017-12-12T10:20:40Z</time>
      </trkpt>
      <trkpt lat="45.9503" lon="4.81333">
        <ele>255</ele>
        <time>2017-12-12T10:20:41Z</time>
      </trkpt>
      <trkpt lat="45.95032" lon="4.8134">
        <ele>254</ele>
        <time>2017-12-12T10:20:42Z</time>
      </trkpt>
      <trkpt lat="45.95035" lon="4.81347">
        <ele>254</ele>
        <time>2017-12-12T10:20:43Z</time>
      </trkpt>
      <trkpt lat="45.95037" lon="4.81354">
        <ele>254</ele>
        <time>2017-12-12T10:20:44Z</time>
      </trkpt>
      <trkpt lat="45.95038" lon="4.81361">
        <ele>254</ele>
        <time>2017-12-12T10:20:45Z</time>
      </trkpt>
      <trkpt lat="45.95041" lon="4.81369">
        <ele>254</ele>
        <time>2017-12-12T10:20:46Z</time>
      </trkpt>
      <trkpt lat="45.95042" lon="4.81377">
        <ele>254</ele>
        <time>2017-12-12T10:20:47Z</time>
      </trkpt>
      <trkpt lat="45.95044" lon="4.81385">
        <ele>254</ele>
        <time>2017-12-12T10:20:48Z</time>
      </trkpt>
      <trkpt lat="45.95047" lon="4.81394">
        <ele>253</ele>
        <time>2017-12-12T10:20:49Z</time>
      </trkpt>
      <trkpt lat="45.9505" lon="4.81403">
        <ele>253</ele>
        <time>2017-12-12T10:20:50Z</time>
      </trkpt>
      <trkpt lat="45.95053" lon="4.81411">
        <ele>253</ele>
        <time>2017-12-12T10:20:51Z</time>
      </trkpt>
      <trkpt lat="45.95056" lon="4.8142">
        <ele>253</ele>
        <time>2017-12-12T10:20:52Z</time>
      </trkpt>
      <trkpt lat="45.95059" lon="4.81429">
        <ele>253</ele>
        <time>2017-12-12T10:20:53Z</time>
      </trkpt>
      <trkpt lat="45.95063" lon="4.81438">
        <ele>253</ele>
        <time>2017-12-12T10:20:54Z</time>
      </trkpt>
      <trkpt lat="45.95067" lon="4.81446">
        <ele>253</ele>
        <time>2017-12-12T10:20:55Z</time>
      </trkpt>
      <trkpt lat="45.9507" lon="4.81454">
        <ele>253</ele>
        <time>2017-12-12T10:20:56Z</time>
      </trkpt>
      <trkpt lat="45.95072" lon="4.81463">
        <ele>253</ele>
        <time>2017-12-12T10:20:57Z</time>
      </trkpt>
      <trkpt lat="45.95076" lon="4.81471">
        <ele>253</ele>
        <time>2017-12-12T10:20:58Z</time>
      </trkpt>
      <trkpt lat="45.9508" lon="4.8148">
        <ele>253</ele>
        <time>2017-12-12T10:20:59Z</time>
      </trkpt>
      <trkpt lat="45.95083" lon="4.81487">
        <ele>251</ele>
        <time>2017-12-12T10:21:00Z</time>
      </trkpt>
      <trkpt lat="45.95088" lon="4.81496">
        <ele>252</ele>
        <time>2017-12-12T10:21:01Z</time>
      </trkpt>
      <trkpt lat="45.95091" lon="4.81504">
        <ele>252</ele>
        <time>2017-12-12T10:21:02Z</time>
      </trkpt>
      <trkpt lat="45.95094" lon="4.81513">
        <ele>251</ele>
        <time>2017-12-12T10:21:03Z</time>
      </trkpt>
      <trkpt lat="45.95097" lon="4.81522">
        <ele>251</ele>
        <time>2017-12-12T10:21:04Z</time>
      </trkpt>
      <trkpt lat="45.951" lon="4.81531">
        <ele>251</ele>
        <time>2017-12-12T10:21:05Z</time>
      </trkpt>
      <trkpt lat="45.95102" lon="4.81539">
        <ele>251</ele>
        <time>2017-12-12T10:21:06Z</time>
      </trkpt>
      <trkpt lat="45.95105" lon="4.81548">
        <ele>251</ele>
        <time>2017-12-12T10:21:07Z</time>
      </trkpt>
      <trkpt lat="45.95108" lon="4.81557">
        <ele>251</ele>
        <time>2017-12-12T10:21:08Z</time>
      </trkpt>
      <trkpt lat="45.95111" lon="4.81565">
        <ele>251</ele>
        <time>2017-12-12T10:21:09Z</time>
      </trkpt>
      <trkpt lat="45.95114" lon="4.81573">
        <ele>251</ele>
        <time>2017-12-12T10:21:10Z</time>
      </trkpt>
      <trkpt lat="45.95116" lon="4.8158">
        <ele>251</ele>
        <time>2017-12-12T10:21:11Z</time>
      </trkpt>
      <trkpt lat="45.95119" lon="4.81587">
        <ele>252</ele>
        <time>2017-12-12T10:21:12Z</time>
      </trkpt>
      <trkpt lat="45.95119" lon="4.81594">
        <ele>252</ele>
        <time>2017-12-12T10:21:13Z</time>
      </trkpt>
      <trkpt lat="45.95122" lon="4.81601">
        <ele>252</ele>
        <time>2017-12-12T10:21:14Z</time>
      </trkpt>
      <trkpt lat="45.95125" lon="4.81607">
        <ele>252</ele>
        <time>2017-12-12T10:21:15Z</time>
      </trkpt>
      <trkpt lat="45.95129" lon="4.81618">
        <ele>252</ele>
        <time>2017-12-12T10:21:17Z</time>
      </trkpt>
      <trkpt lat="45.95131" lon="4.81623">
        <ele>252</ele>
        <time>2017-12-12T10:21:18Z</time>
      </trkpt>
      <trkpt lat="45.95134" lon="4.81633">
        <ele>253</ele>
        <time>2017-12-12T10:21:20Z</time>
      </trkpt>
      <trkpt lat="45.95137" lon="4.81639">
        <ele>253</ele>
        <time>2017-12-12T10:21:21Z</time>
      </trkpt>
      <trkpt lat="45.95141" lon="4.81649">
        <ele>253</ele>
        <time>2017-12-12T10:21:23Z</time>
      </trkpt>
      <trkpt lat="45.95142" lon="4.81654">
        <ele>253</ele>
        <time>2017-12-12T10:21:24Z</time>
      </trkpt>
      <trkpt lat="45.95145" lon="4.81664">
        <ele>253</ele>
        <time>2017-12-12T10:21:26Z</time>
      </trkpt>
      <trkpt lat="45.95147" lon="4.81669">
        <ele>255</ele>
        <time>2017-12-12T10:21:27Z</time>
      </trkpt>
      <trkpt lat="45.95149" lon="4.8168">
        <ele>255</ele>
        <time>2017-12-12T10:21:29Z</time>
      </trkpt>
      <trkpt lat="45.95151" lon="4.81685">
        <ele>255</ele>
        <time>2017-12-12T10:21:30Z</time>
      </trkpt>
      <trkpt lat="45.95155" lon="4.81695">
        <ele>255</ele>
        <time>2017-12-12T10:21:32Z</time>
      </trkpt>
      <trkpt lat="45.95156" lon="4.817">
        <ele>255</ele>
        <time>2017-12-12T10:21:33Z</time>
      </trkpt>
      <trkpt lat="45.9516" lon="4.81709">
        <ele>256</ele>
        <time>2017-12-12T10:21:35Z</time>
      </trkpt>
      <trkpt lat="45.95161" lon="4.81714">
        <ele>256</ele>
        <time>2017-12-12T10:21:36Z</time>
      </trkpt>
      <trkpt lat="45.95164" lon="4.81724">
        <ele>256</ele>
        <time>2017-12-12T10:21:38Z</time>
      </trkpt>
      <trkpt lat="45.95166" lon="4.81729">
        <ele>256</ele>
        <time>2017-12-12T10:21:39Z</time>
      </trkpt>
      <trkpt lat="45.9517" lon="4.81738">
        <ele>257</ele>
        <time>2017-12-12T10:21:41Z</time>
      </trkpt>
      <trkpt lat="45.95172" lon="4.81743">
        <ele>257</ele>
        <time>2017-12-12T10:21:42Z</time>
      </trkpt>
      <trkpt lat="45.95177" lon="4.81752">
        <ele>258</ele>
        <time>2017-12-12T10:21:44Z</time>
      </trkpt>
      <trkpt lat="45.9518" lon="4.81756">
        <ele>258</ele>
        <time>2017-12-12T10:21:45Z</time>
      </trkpt>
      <trkpt lat="45.95184" lon="4.81765">
        <ele>258</ele>
        <time>2017-12-12T10:21:47Z</time>
      </trkpt>
      <trkpt lat="45.95187" lon="4.81769">
        <ele>258</ele>
        <time>2017-12-12T10:21:48Z</time>
      </trkpt>
      <trkpt lat="45.95193" lon="4.81776">
        <ele>258</ele>
        <time>2017-12-12T10:21:50Z</time>
      </trkpt>
      <trkpt lat="45.95195" lon="4.8178">
        <ele>258</ele>
        <time>2017-12-12T10:21:51Z</time>
      </trkpt>
      <trkpt lat="45.952" lon="4.81787">
        <ele>258</ele>
        <time>2017-12-12T10:21:53Z</time>
      </trkpt>
      <trkpt lat="45.95202" lon="4.81791">
        <ele>259</ele>
        <time>2017-12-12T10:21:54Z</time>
      </trkpt>
      <trkpt lat="45.95207" lon="4.81798">
        <ele>259</ele>
        <time>2017-12-12T10:21:56Z</time>
      </trkpt>
      <trkpt lat="45.95209" lon="4.81801">
        <ele>259</ele>
        <time>2017-12-12T10:21:57Z</time>
      </trkpt>
      <trkpt lat="45.95214" lon="4.81809">
        <ele>259</ele>
        <time>2017-12-12T10:21:59Z</time>
      </trkpt>
      <trkpt lat="45.95216" lon="4.81813">
        <ele>259</ele>
        <time>2017-12-12T10:22:00Z</time>
      </trkpt>
      <trkpt lat="45.95221" lon="4.81821">
        <ele>259</ele>
        <time>2017-12-12T10:22:02Z</time>
      </trkpt>
      <trkpt lat="45.95224" lon="4.81824">
        <ele>259</ele>
        <time>2017-12-12T10:22:03Z</time>
      </trkpt>
      <trkpt lat="45.95229" lon="4.81831">
        <ele>259</ele>
        <time>2017-12-12T10:22:05Z</time>
      </trkpt>
      <trkpt lat="45.95232" lon="4.81834">
        <ele>260</ele>
        <time>2017-12-12T10:22:06Z</time>
      </trkpt>
      <trkpt lat="45.95238" lon="4.81842">
        <ele>260</ele>
        <time>2017-12-12T10:22:09Z</time>
      </trkpt>
      <trkpt lat="45.9524" lon="4.81846">
        <ele>260</ele>
        <time>2017-12-12T10:22:10Z</time>
      </trkpt>
      <trkpt lat="45.95244" lon="4.81854">
        <ele>260</ele>
        <time>2017-12-12T10:22:12Z</time>
      </trkpt>
      <trkpt lat="45.95246" lon="4.81858">
        <ele>260</ele>
        <time>2017-12-12T10:22:13Z</time>
      </trkpt>
      <trkpt lat="45.95252" lon="4.81867">
        <ele>260</ele>
        <time>2017-12-12T10:22:15Z</time>
      </trkpt>
      <trkpt lat="45.95255" lon="4.81871">
        <ele>260</ele>
        <time>2017-12-12T10:22:16Z</time>
      </trkpt>
      <trkpt lat="45.95258" lon="4.81876">
        <ele>260</ele>
        <time>2017-12-12T10:22:17Z</time>
      </trkpt>
      <trkpt lat="45.95262" lon="4.8188">
        <ele>260</ele>
        <time>2017-12-12T10:22:18Z</time>
      </trkpt>
      <trkpt lat="45.95265" lon="4.81886">
        <ele>260</ele>
        <time>2017-12-12T10:22:19Z</time>
      </trkpt>
      <trkpt lat="45.95268" lon="4.8189">
        <ele>260</ele>
        <time>2017-12-12T10:22:20Z</time>
      </trkpt>
      <trkpt lat="45.95273" lon="4.81898">
        <ele>260</ele>
        <time>2017-12-12T10:22:22Z</time>
      </trkpt>
      <trkpt lat="45.95276" lon="4.81901">
        <ele>260</ele>
        <time>2017-12-12T10:22:23Z</time>
      </trkpt>
      <trkpt lat="45.9528" lon="4.81905">
        <ele>260</ele>
        <time>2017-12-12T10:22:24Z</time>
      </trkpt>
      <trkpt lat="45.95283" lon="4.8191">
        <ele>260</ele>
        <time>2017-12-12T10:22:25Z</time>
      </trkpt>
      <trkpt lat="45.95287" lon="4.81916">
        <ele>260</ele>
        <time>2017-12-12T10:22:26Z</time>
      </trkpt>
      <trkpt lat="45.9529" lon="4.81921">
        <ele>261</ele>
        <time>2017-12-12T10:22:27Z</time>
      </trkpt>
      <trkpt lat="45.95294" lon="4.81926">
        <ele>261</ele>
        <time>2017-12-12T10:22:28Z</time>
      </trkpt>
      <trkpt lat="45.95297" lon="4.81931">
        <ele>261</ele>
        <time>2017-12-12T10:22:29Z</time>
      </trkpt>
      <trkpt lat="45.95304" lon="4.81939">
        <ele>261</ele>
        <time>2017-12-12T10:22:31Z</time>
      </trkpt>
      <trkpt lat="45.95307" lon="4.81944">
        <ele>261</ele>
        <time>2017-12-12T10:22:32Z</time>
      </trkpt>
      <trkpt lat="45.9531" lon="4.81948">
        <ele>261</ele>
        <time>2017-12-12T10:22:33Z</time>
      </trkpt>
      <trkpt lat="45.95315" lon="4.81951">
        <ele>262</ele>
        <time>2017-12-12T10:22:34Z</time>
      </trkpt>
      <trkpt lat="45.95318" lon="4.81956">
        <ele>262</ele>
        <time>2017-12-12T10:22:35Z</time>
      </trkpt>
      <trkpt lat="45.95322" lon="4.8196">
        <ele>262</ele>
        <time>2017-12-12T10:22:36Z</time>
      </trkpt>
      <trkpt lat="45.95327" lon="4.81963">
        <ele>262</ele>
        <time>2017-12-12T10:22:37Z</time>
      </trkpt>
      <trkpt lat="45.95331" lon="4.81968">
        <ele>262</ele>
        <time>2017-12-12T10:22:38Z</time>
      </trkpt>
      <trkpt lat="45.95336" lon="4.81972">
        <ele>262</ele>
        <time>2017-12-12T10:22:39Z</time>
      </trkpt>
      <trkpt lat="45.9534" lon="4.81976">
        <ele>262</ele>
        <time>2017-12-12T10:22:40Z</time>
      </trkpt>
      <trkpt lat="45.95344" lon="4.81981">
        <ele>262</ele>
        <time>2017-12-12T10:22:41Z</time>
      </trkpt>
      <trkpt lat="45.95348" lon="4.81986">
        <ele>262</ele>
        <time>2017-12-12T10:22:42Z</time>
      </trkpt>
      <trkpt lat="45.95352" lon="4.8199">
        <ele>262</ele>
        <time>2017-12-12T10:22:43Z</time>
      </trkpt>
      <trkpt lat="45.95356" lon="4.81993">
        <ele>262</ele>
        <time>2017-12-12T10:22:44Z</time>
      </trkpt>
      <trkpt lat="45.9536" lon="4.81997">
        <ele>261</ele>
        <time>2017-12-12T10:22:45Z</time>
      </trkpt>
      <trkpt lat="45.95364" lon="4.82">
        <ele>262</ele>
        <time>2017-12-12T10:22:46Z</time>
      </trkpt>
      <trkpt lat="45.95369" lon="4.82004">
        <ele>262</ele>
        <time>2017-12-12T10:22:47Z</time>
      </trkpt>
      <trkpt lat="45.95373" lon="4.82009">
        <ele>262</ele>
        <time>2017-12-12T10:22:48Z</time>
      </trkpt>
      <trkpt lat="45.95377" lon="4.82012">
        <ele>262</ele>
        <time>2017-12-12T10:22:49Z</time>
      </trkpt>
      <trkpt lat="45.95381" lon="4.82016">
        <ele>262</ele>
        <time>2017-12-12T10:22:50Z</time>
      </trkpt>
      <trkpt lat="45.95387" lon="4.82024">
        <ele>261</ele>
        <time>2017-12-12T10:22:52Z</time>
      </trkpt>
      <trkpt lat="45.95393" lon="4.82028">
        <ele>261</ele>
        <time>2017-12-12T10:22:53Z</time>
      </trkpt>
      <trkpt lat="45.95397" lon="4.82032">
        <ele>261</ele>
        <time>2017-12-12T10:22:54Z</time>
      </trkpt>
      <trkpt lat="45.95401" lon="4.82037">
        <ele>261</ele>
        <time>2017-12-12T10:22:55Z</time>
      </trkpt>
      <trkpt lat="45.95406" lon="4.82041">
        <ele>261</ele>
        <time>2017-12-12T10:22:56Z</time>
      </trkpt>
      <trkpt lat="45.95411" lon="4.82046">
        <ele>261</ele>
        <time>2017-12-12T10:22:57Z</time>
      </trkpt>
      <trkpt lat="45.95416" lon="4.82051">
        <ele>261</ele>
        <time>2017-12-12T10:22:58Z</time>
      </trkpt>
      <trkpt lat="45.95421" lon="4.82057">
        <ele>260</ele>
        <time>2017-12-12T10:22:59Z</time>
      </trkpt>
      <trkpt lat="45.95425" lon="4.82062">
        <ele>260</ele>
        <time>2017-12-12T10:23:00Z</time>
      </trkpt>
      <trkpt lat="45.9543" lon="4.82066">
        <ele>260</ele>
        <time>2017-12-12T10:23:01Z</time>
      </trkpt>
      <trkpt lat="45.95434" lon="4.82072">
        <ele>260</ele>
        <time>2017-12-12T10:23:02Z</time>
      </trkpt>
      <trkpt lat="45.95438" lon="4.82076">
        <ele>260</ele>
        <time>2017-12-12T10:23:03Z</time>
      </trkpt>
      <trkpt lat="45.95442" lon="4.82081">
        <ele>260</ele>
        <time>2017-12-12T10:23:04Z</time>
      </trkpt>
      <trkpt lat="45.95447" lon="4.82084">
        <ele>260</ele>
        <time>2017-12-12T10:23:05Z</time>
      </trkpt>
      <trkpt lat="45.95451" lon="4.82088">
        <ele>260</ele>
        <time>2017-12-12T10:23:06Z</time>
      </trkpt>
      <trkpt lat="45.95455" lon="4.82091">
        <ele>260</ele>
        <time>2017-12-12T10:23:07Z</time>
      </trkpt>
      <trkpt lat="45.95459" lon="4.82096">
        <ele>260</ele>
        <time>2017-12-12T10:23:08Z</time>
      </trkpt>
      <trkpt lat="45.95463" lon="4.821">
        <ele>260</ele>
        <time>2017-12-12T10:23:09Z</time>
      </trkpt>
      <trkpt lat="45.95468" lon="4.82103">
        <ele>260</ele>
        <time>2017-12-12T10:23:10Z</time>
      </trkpt>
      <trkpt lat="45.95474" lon="4.82108">
        <ele>260</ele>
        <time>2017-12-12T10:23:11Z</time>
      </trkpt>
      <trkpt lat="45.95479" lon="4.82112">
        <ele>260</ele>
        <time>2017-12-12T10:23:12Z</time>
      </trkpt>
      <trkpt lat="45.95482" lon="4.82116">
        <ele>260</ele>
        <time>2017-12-12T10:23:13Z</time>
      </trkpt>
      <trkpt lat="45.95489" lon="4.82123">
        <ele>260</ele>
        <time>2017-12-12T10:23:15Z</time>
      </trkpt>
      <trkpt lat="45.95492" lon="4.82128">
        <ele>260</ele>
        <time>2017-12-12T10:23:16Z</time>
      </trkpt>
      <trkpt lat="45.95499" lon="4.82134">
        <ele>260</ele>
        <time>2017-12-12T10:23:18Z</time>
      </trkpt>
      <trkpt lat="45.95502" lon="4.82138">
        <ele>259</ele>
        <time>2017-12-12T10:23:19Z</time>
      </trkpt>
      <trkpt lat="45.95505" lon="4.82142">
        <ele>259</ele>
        <time>2017-12-12T10:23:20Z</time>
      </trkpt>
      <trkpt lat="45.9551" lon="4.82147">
        <ele>259</ele>
        <time>2017-12-12T10:23:21Z</time>
      </trkpt>
      <trkpt lat="45.95514" lon="4.82152">
        <ele>259</ele>
        <time>2017-12-12T10:23:22Z</time>
      </trkpt>
      <trkpt lat="45.95518" lon="4.82158">
        <ele>259</ele>
        <time>2017-12-12T10:23:23Z</time>
      </trkpt>
      <trkpt lat="45.95521" lon="4.82161">
        <ele>259</ele>
        <time>2017-12-12T10:23:24Z</time>
      </trkpt>
      <trkpt lat="45.95526" lon="4.82165">
        <ele>259</ele>
        <time>2017-12-12T10:23:25Z</time>
      </trkpt>
      <trkpt lat="45.9553" lon="4.82169">
        <ele>259</ele>
        <time>2017-12-12T10:23:26Z</time>
      </trkpt>
      <trkpt lat="45.95536" lon="4.82172">
        <ele>259</ele>
        <time>2017-12-12T10:23:27Z</time>
      </trkpt>
      <trkpt lat="45.95541" lon="4.82178">
        <ele>259</ele>
        <time>2017-12-12T10:23:28Z</time>
      </trkpt>
      <trkpt lat="45.95546" lon="4.82183">
        <ele>259</ele>
        <time>2017-12-12T10:23:29Z</time>
      </trkpt>
      <trkpt lat="45.95551" lon="4.82188">
        <ele>259</ele>
        <time>2017-12-12T10:23:30Z</time>
      </trkpt>
      <trkpt lat="45.95556" lon="4.82192">
        <ele>259</ele>
        <time>2017-12-12T10:23:31Z</time>
      </trkpt>
      <trkpt lat="45.95561" lon="4.82196">
        <ele>259</ele>
        <time>2017-12-12T10:23:32Z</time>
      </trkpt>
      <trkpt lat="45.95566" lon="4.82199">
        <ele>258</ele>
        <time>2017-12-12T10:23:33Z</time>
      </trkpt>
      <trkpt lat="45.95571" lon="4.82204">
        <ele>258</ele>
        <time>2017-12-12T10:23:34Z</time>
      </trkpt>
      <trkpt lat="45.95574" lon="4.82208">
        <ele>258</ele>
        <time>2017-12-12T10:23:35Z</time>
      </trkpt>
      <trkpt lat="45.95579" lon="4.82212">
        <ele>258</ele>
        <time>2017-12-12T10:23:36Z</time>
      </trkpt>
      <trkpt lat="45.95584" lon="4.82216">
        <ele>257</ele>
        <time>2017-12-12T10:23:37Z</time>
      </trkpt>
      <trkpt lat="45.9559" lon="4.82219">
        <ele>257</ele>
        <time>2017-12-12T10:23:38Z</time>
      </trkpt>
      <trkpt lat="45.95596" lon="4.82221">
        <ele>257</ele>
        <time>2017-12-12T10:23:39Z</time>
      </trkpt>
      <trkpt lat="45.95602" lon="4.82222">
        <ele>257</ele>
        <time>2017-12-12T10:23:40Z</time>
      </trkpt>
      <trkpt lat="45.95608" lon="4.82223">
        <ele>257</ele>
        <time>2017-12-12T10:23:41Z</time>
      </trkpt>
      <trkpt lat="45.95613" lon="4.82223">
        <ele>257</ele>
        <time>2017-12-12T10:23:42Z</time>
      </trkpt>
      <trkpt lat="45.95618" lon="4.82223">
        <ele>257</ele>
        <time>2017-12-12T10:23:43Z</time>
      </trkpt>
      <trkpt lat="45.95625" lon="4.82222">
        <ele>257</ele>
        <time>2017-12-12T10:23:44Z</time>
      </trkpt>
      <trkpt lat="45.95631" lon="4.82221">
        <ele>257</ele>
        <time>2017-12-12T10:23:45Z</time>
      </trkpt>
      <trkpt lat="45.95637" lon="4.82222">
        <ele>257</ele>
        <time>2017-12-12T10:23:46Z</time>
      </trkpt>
      <trkpt lat="45.95643" lon="4.82222">
        <ele>257</ele>
        <time>2017-12-12T10:23:47Z</time>
      </trkpt>
      <trkpt lat="45.95649" lon="4.82222">
        <ele>257</ele>
        <time>2017-12-12T10:23:48Z</time>
      </trkpt>
      <trkpt lat="45.95655" lon="4.82222">
        <ele>257</ele>
        <time>2017-12-12T10:23:49Z</time>
      </trkpt>
      <trkpt lat="45.95662" lon="4.82223">
        <ele>257</ele>
        <time>2017-12-12T10:23:50Z</time>
      </trkpt>
      <trkpt lat="45.95666" lon="4.82226">
        <ele>257</ele>
        <time>2017-12-12T10:23:51Z</time>
      </trkpt>
      <trkpt lat="45.95672" lon="4.82229">
        <ele>255</ele>
        <time>2017-12-12T10:23:52Z</time>
      </trkpt>
      <trkpt lat="45.95678" lon="4.82233">
        <ele>255</ele>
        <time>2017-12-12T10:23:53Z</time>
      </trkpt>
      <trkpt lat="45.95683" lon="4.82238">
        <ele>255</ele>
        <time>2017-12-12T10:23:54Z</time>
      </trkpt>
      <trkpt lat="45.95689" lon="4.82242">
        <ele>255</ele>
        <time>2017-12-12T10:23:55Z</time>
      </trkpt>
      <trkpt lat="45.95694" lon="4.82247">
        <ele>254</ele>
        <time>2017-12-12T10:23:56Z</time>
      </trkpt>
      <trkpt lat="45.95698" lon="4.82252">
        <ele>255</ele>
        <time>2017-12-12T10:23:57Z</time>
      </trkpt>
      <trkpt lat="45.95702" lon="4.82259">
        <ele>255</ele>
        <time>2017-12-12T10:23:58Z</time>
      </trkpt>
      <trkpt lat="45.95706" lon="4.82264">
        <ele>255</ele>
        <time>2017-12-12T10:23:59Z</time>
      </trkpt>
      <trkpt lat="45.9571" lon="4.82269">
        <ele>255</ele>
        <time>2017-12-12T10:24:00Z</time>
      </trkpt>
      <trkpt lat="45.95714" lon="4.82273">
        <ele>255</ele>
        <time>2017-12-12T10:24:01Z</time>
      </trkpt>
      <trkpt lat="45.95719" lon="4.82278">
        <ele>255</ele>
        <time>2017-12-12T10:24:02Z</time>
      </trkpt>
      <trkpt lat="45.95723" lon="4.82283">
        <ele>255</ele>
        <time>2017-12-12T10:24:03Z</time>
      </trkpt>
      <trkpt lat="45.95728" lon="4.82288">
        <ele>255</ele>
        <time>2017-12-12T10:24:04Z</time>
      </trkpt>
      <trkpt lat="45.95733" lon="4.82293">
        <ele>255</ele>
        <time>2017-12-12T10:24:05Z</time>
      </trkpt>
      <trkpt lat="45.95737" lon="4.82298">
        <ele>255</ele>
        <time>2017-12-12T10:24:06Z</time>
      </trkpt>
      <trkpt lat="45.95742" lon="4.82303">
        <ele>255</ele>
        <time>2017-12-12T10:24:07Z</time>
      </trkpt>
      <trkpt lat="45.95747" lon="4.82309">
        <ele>255</ele>
        <time>2017-12-12T10:24:08Z</time>
      </trkpt>
      <trkpt lat="45.95753" lon="4.82315">
        <ele>253</ele>
        <time>2017-12-12T10:24:09Z</time>
      </trkpt>
      <trkpt lat="45.95759" lon="4.8232">
        <ele>253</ele>
        <time>2017-12-12T10:24:10Z</time>
      </trkpt>
      <trkpt lat="45.95764" lon="4.82326">
        <ele>253</ele>
        <time>2017-12-12T10:24:11Z</time>
      </trkpt>
      <trkpt lat="45.95769" lon="4.82332">
        <ele>253</ele>
        <time>2017-12-12T10:24:12Z</time>
      </trkpt>
      <trkpt lat="45.95775" lon="4.82338">
        <ele>254</ele>
        <time>2017-12-12T10:24:13Z</time>
      </trkpt>
      <trkpt lat="45.9578" lon="4.82343">
        <ele>253</ele>
        <time>2017-12-12T10:24:14Z</time>
      </trkpt>
      <trkpt lat="45.95786" lon="4.82348">
        <ele>253</ele>
        <time>2017-12-12T10:24:15Z</time>
      </trkpt>
      <trkpt lat="45.95791" lon="4.82354">
        <ele>252</ele>
        <time>2017-12-12T10:24:16Z</time>
      </trkpt>
      <trkpt lat="45.95797" lon="4.82357">
        <ele>252</ele>
        <time>2017-12-12T10:24:17Z</time>
      </trkpt>
      <trkpt lat="45.95805" lon="4.82361">
        <ele>252</ele>
        <time>2017-12-12T10:24:18Z</time>
      </trkpt>
      <trkpt lat="45.95812" lon="4.82363">
        <ele>252</ele>
        <time>2017-12-12T10:24:19Z</time>
      </trkpt>
      <trkpt lat="45.9582" lon="4.82364">
        <ele>251</ele>
        <time>2017-12-12T10:24:20Z</time>
      </trkpt>
      <trkpt lat="45.95826" lon="4.82366">
        <ele>251</ele>
        <time>2017-12-12T10:24:21Z</time>
      </trkpt>
      <trkpt lat="45.95834" lon="4.82368">
        <ele>246</ele>
        <time>2017-12-12T10:24:22Z</time>
      </trkpt>
      <trkpt lat="45.95843" lon="4.82369">
        <ele>246</ele>
        <time>2017-12-12T10:24:23Z</time>
      </trkpt>
      <trkpt lat="45.95851" lon="4.8237">
        <ele>245</ele>
        <time>2017-12-12T10:24:24Z</time>
      </trkpt>
      <trkpt lat="45.95861" lon="4.8237">
        <ele>245</ele>
        <time>2017-12-12T10:24:25Z</time>
      </trkpt>
      <trkpt lat="45.9587" lon="4.82371">
        <ele>244</ele>
        <time>2017-12-12T10:24:26Z</time>
      </trkpt>
      <trkpt lat="45.95879" lon="4.82371">
        <ele>244</ele>
        <time>2017-12-12T10:24:27Z</time>
      </trkpt>
      <trkpt lat="45.95889" lon="4.82371">
        <ele>243</ele>
        <time>2017-12-12T10:24:28Z</time>
      </trkpt>
      <trkpt lat="45.959" lon="4.8237">
        <ele>243</ele>
        <time>2017-12-12T10:24:29Z</time>
      </trkpt>
      <trkpt lat="45.95911" lon="4.82367">
        <ele>242</ele>
        <time>2017-12-12T10:24:30Z</time>
      </trkpt>
      <trkpt lat="45.95923" lon="4.82366">
        <ele>238</ele>
        <time>2017-12-12T10:24:31Z</time>
      </trkpt>
      <trkpt lat="45.95934" lon="4.82364">
        <ele>238</ele>
        <time>2017-12-12T10:24:32Z</time>
      </trkpt>
      <trkpt lat="45.95945" lon="4.82362">
        <ele>237</ele>
        <time>2017-12-12T10:24:33Z</time>
      </trkpt>
      <trkpt lat="45.95956" lon="4.82361">
        <ele>237</ele>
        <time>2017-12-12T10:24:34Z</time>
      </trkpt>
      <trkpt lat="45.95966" lon="4.82359">
        <ele>237</ele>
        <time>2017-12-12T10:24:35Z</time>
      </trkpt>
      <trkpt lat="45.95976" lon="4.82357">
        <ele>237</ele>
        <time>2017-12-12T10:24:36Z</time>
      </trkpt>
      <trkpt lat="45.95984" lon="4.82356">
        <ele>236</ele>
        <time>2017-12-12T10:24:37Z</time>
      </trkpt>
      <trkpt lat="45.95992" lon="4.82356">
        <ele>236</ele>
        <time>2017-12-12T10:24:38Z</time>
      </trkpt>
      <trkpt lat="45.95999" lon="4.82356">
        <ele>236</ele>
        <time>2017-12-12T10:24:39Z</time>
      </trkpt>
      <trkpt lat="45.96006" lon="4.82356">
        <ele>235</ele>
        <time>2017-12-12T10:24:40Z</time>
      </trkpt>
      <trkpt lat="45.96012" lon="4.82358">
        <ele>235</ele>
        <time>2017-12-12T10:24:41Z</time>
      </trkpt>
      <trkpt lat="45.96018" lon="4.82362">
        <ele>235</ele>
        <time>2017-12-12T10:24:42Z</time>
      </trkpt>
      <trkpt lat="45.96023" lon="4.82368">
        <ele>235</ele>
        <time>2017-12-12T10:24:43Z</time>
      </trkpt>
      <trkpt lat="45.96026" lon="4.82376">
        <ele>235</ele>
        <time>2017-12-12T10:24:44Z</time>
      </trkpt>
      <trkpt lat="45.96027" lon="4.82384">
        <ele>235</ele>
        <time>2017-12-12T10:24:45Z</time>
      </trkpt>
      <trkpt lat="45.96028" lon="4.8239">
        <ele>235</ele>
        <time>2017-12-12T10:24:46Z</time>
      </trkpt>
      <trkpt lat="45.96028" lon="4.82397">
        <ele>235</ele>
        <time>2017-12-12T10:24:47Z</time>
      </trkpt>
      <trkpt lat="45.96027" lon="4.82404">
        <ele>235</ele>
        <time>2017-12-12T10:24:48Z</time>
      </trkpt>
      <trkpt lat="45.96026" lon="4.82411">
        <ele>235</ele>
        <time>2017-12-12T10:24:49Z</time>
      </trkpt>
      <trkpt lat="45.96025" lon="4.82418">
        <ele>235</ele>
        <time>2017-12-12T10:24:50Z</time>
      </trkpt>
      <trkpt lat="45.96024" lon="4.82424">
        <ele>235</ele>
        <time>2017-12-12T10:24:51Z</time>
      </trkpt>
      <trkpt lat="45.96023" lon="4.82431">
        <ele>235</ele>
        <time>2017-12-12T10:24:52Z</time>
      </trkpt>
      <trkpt lat="45.96022" lon="4.82438">
        <ele>235</ele>
        <time>2017-12-12T10:24:53Z</time>
      </trkpt>
      <trkpt lat="45.9602" lon="4.82444">
        <ele>235</ele>
        <time>2017-12-12T10:24:54Z</time>
      </trkpt>
      <trkpt lat="45.96019" lon="4.82452">
        <ele>235</ele>
        <time>2017-12-12T10:24:55Z</time>
      </trkpt>
      <trkpt lat="45.96018" lon="4.82459">
        <ele>235</ele>
        <time>2017-12-12T10:24:56Z</time>
      </trkpt>
      <trkpt lat="45.96017" lon="4.82466">
        <ele>235</ele>
        <time>2017-12-12T10:24:57Z</time>
      </trkpt>
      <trkpt lat="45.96017" lon="4.82473">
        <ele>235</ele>
        <time>2017-12-12T10:24:58Z</time>
      </trkpt>
      <trkpt lat="45.96016" lon="4.8248">
        <ele>235</ele>
        <time>2017-12-12T10:24:59Z</time>
      </trkpt>
      <trkpt lat="45.96015" lon="4.82487">
        <ele>235</ele>
        <time>2017-12-12T10:25:00Z</time>
      </trkpt>
      <trkpt lat="45.96013" lon="4.82498">
        <ele>235</ele>
        <time>2017-12-12T10:25:02Z</time>
      </trkpt>
      <trkpt lat="45.96013" lon="4.82507">
        <ele>235</ele>
        <time>2017-12-12T10:25:03Z</time>
      </trkpt>
      <trkpt lat="45.96012" lon="4.82514">
        <ele>235</ele>
        <time>2017-12-12T10:25:04Z</time>
      </trkpt>
      <trkpt lat="45.96012" lon="4.82522">
        <ele>235</ele>
        <time>2017-12-12T10:25:05Z</time>
      </trkpt>
      <trkpt lat="45.96011" lon="4.82534">
        <ele>235</ele>
        <time>2017-12-12T10:25:07Z</time>
      </trkpt>
      <trkpt lat="45.96012" lon="4.82542">
        <ele>235</ele>
        <time>2017-12-12T10:25:08Z</time>
      </trkpt>
      <trkpt lat="45.96012" lon="4.82549">
        <ele>235</ele>
        <time>2017-12-12T10:25:09Z</time>
      </trkpt>
      <trkpt lat="45.96012" lon="4.82556">
        <ele>235</ele>
        <time>2017-12-12T10:25:10Z</time>
      </trkpt>
      <trkpt lat="45.96013" lon="4.82563">
        <ele>235</ele>
        <time>2017-12-12T10:25:11Z</time>
      </trkpt>
      <trkpt lat="45.96014" lon="4.82569">
        <ele>234</ele>
        <time>2017-12-12T10:25:12Z</time>
      </trkpt>
      <trkpt lat="45.96015" lon="4.82576">
        <ele>234</ele>
        <time>2017-12-12T10:25:13Z</time>
      </trkpt>
      <trkpt lat="45.96018" lon="4.82583">
        <ele>235</ele>
        <time>2017-12-12T10:25:14Z</time>
      </trkpt>
      <trkpt lat="45.9602" lon="4.8259">
        <ele>235</ele>
        <time>2017-12-12T10:25:15Z</time>
      </trkpt>
      <trkpt lat="45.96023" lon="4.82596">
        <ele>235</ele>
        <time>2017-12-12T10:25:16Z</time>
      </trkpt>
      <trkpt lat="45.96025" lon="4.82604">
        <ele>235</ele>
        <time>2017-12-12T10:25:17Z</time>
      </trkpt>
      <trkpt lat="45.96028" lon="4.82612">
        <ele>235</ele>
        <time>2017-12-12T10:25:18Z</time>
      </trkpt>
      <trkpt lat="45.9603" lon="4.82621">
        <ele>235</ele>
        <time>2017-12-12T10:25:19Z</time>
      </trkpt>
      <trkpt lat="45.96032" lon="4.82627">
        <ele>235</ele>
        <time>2017-12-12T10:25:20Z</time>
      </trkpt>
      <trkpt lat="45.96034" lon="4.82634">
        <ele>235</ele>
        <time>2017-12-12T10:25:21Z</time>
      </trkpt>
      <trkpt lat="45.96037" lon="4.82642">
        <ele>235</ele>
        <time>2017-12-12T10:25:22Z</time>
      </trkpt>
      <trkpt lat="45.96038" lon="4.82647">
        <ele>235</ele>
        <time>2017-12-12T10:25:23Z</time>
      </trkpt>
      <trkpt lat="45.96041" lon="4.82653">
        <ele>235</ele>
        <time>2017-12-12T10:25:24Z</time>
      </trkpt>
      <trkpt lat="45.96045" lon="4.82664">
        <ele>235</ele>
        <time>2017-12-12T10:25:26Z</time>
      </trkpt>
      <trkpt lat="45.96047" lon="4.82669">
        <ele>236</ele>
        <time>2017-12-12T10:25:27Z</time>
      </trkpt>
      <trkpt lat="45.9605" lon="4.82675">
        <ele>236</ele>
        <time>2017-12-12T10:25:28Z</time>
      </trkpt>
      <trkpt lat="45.96052" lon="4.82681">
        <ele>236</ele>
        <time>2017-12-12T10:25:29Z</time>
      </trkpt>
      <trkpt lat="45.96055" lon="4.82688">
        <ele>236</ele>
        <time>2017-12-12T10:25:30Z</time>
      </trkpt>
      <trkpt lat="45.96057" lon="4.82694">
        <ele>237</ele>
        <time>2017-12-12T10:25:31Z</time>
      </trkpt>
      <trkpt lat="45.96061" lon="4.82704">
        <ele>237</ele>
        <time>2017-12-12T10:25:33Z</time>
      </trkpt>
      <trkpt lat="45.96062" lon="4.8271">
        <ele>237</ele>
        <time>2017-12-12T10:25:34Z</time>
      </trkpt>
      <trkpt lat="45.96064" lon="4.82716">
        <ele>237</ele>
        <time>2017-12-12T10:25:35Z</time>
      </trkpt>
      <trkpt lat="45.96066" lon="4.82722">
        <ele>237</ele>
        <time>2017-12-12T10:25:36Z</time>
      </trkpt>
      <trkpt lat="45.96068" lon="4.82729">
        <ele>237</ele>
        <time>2017-12-12T10:25:37Z</time>
      </trkpt>
      <trkpt lat="45.9607" lon="4.82735">
        <ele>237</ele>
        <time>2017-12-12T10:25:38Z</time>
      </trkpt>
      <trkpt lat="45.96073" lon="4.8274">
        <ele>237</ele>
        <time>2017-12-12T10:25:39Z</time>
      </trkpt>
      <trkpt lat="45.96075" lon="4.82746">
        <ele>237</ele>
        <time>2017-12-12T10:25:40Z</time>
      </trkpt>
      <trkpt lat="45.96076" lon="4.82753">
        <ele>237</ele>
        <time>2017-12-12T10:25:41Z</time>
      </trkpt>
      <trkpt lat="45.96078" lon="4.8276">
        <ele>237</ele>
        <time>2017-12-12T10:25:42Z</time>
      </trkpt>
      <trkpt lat="45.96081" lon="4.82768">
        <ele>238</ele>
        <time>2017-12-12T10:25:43Z</time>
      </trkpt>
      <trkpt lat="45.96083" lon="4.82774">
        <ele>238</ele>
        <time>2017-12-12T10:25:44Z</time>
      </trkpt>
      <trkpt lat="45.96085" lon="4.8278">
        <ele>237</ele>
        <time>2017-12-12T10:25:45Z</time>
      </trkpt>
      <trkpt lat="45.96088" lon="4.82786">
        <ele>237</ele>
        <time>2017-12-12T10:25:46Z</time>
      </trkpt>
      <trkpt lat="45.9609" lon="4.82798">
        <ele>237</ele>
        <time>2017-12-12T10:25:48Z</time>
      </trkpt>
      <trkpt lat="45.9609" lon="4.82803">
        <ele>237</ele>
        <time>2017-12-12T10:25:49Z</time>
      </trkpt>
      <trkpt lat="45.9609" lon="4.82809">
        <ele>237</ele>
        <time>2017-12-12T10:25:50Z</time>
      </trkpt>
      <trkpt lat="45.96091" lon="4.82816">
        <ele>237</ele>
        <time>2017-12-12T10:25:51Z</time>
      </trkpt>
      <trkpt lat="45.96092" lon="4.82828">
        <ele>237</ele>
        <time>2017-12-12T10:25:53Z</time>
      </trkpt>
      <trkpt lat="45.96094" lon="4.82835">
        <ele>237</ele>
        <time>2017-12-12T10:25:54Z</time>
      </trkpt>
      <trkpt lat="45.96095" lon="4.82842">
        <ele>237</ele>
        <time>2017-12-12T10:25:55Z</time>
      </trkpt>
      <trkpt lat="45.96095" lon="4.82849">
        <ele>237</ele>
        <time>2017-12-12T10:25:56Z</time>
      </trkpt>
      <trkpt lat="45.96094" lon="4.82862">
        <ele>237</ele>
        <time>2017-12-12T10:25:58Z</time>
      </trkpt>
      <trkpt lat="45.96094" lon="4.82867">
        <ele>237</ele>
        <time>2017-12-12T10:25:59Z</time>
      </trkpt>
      <trkpt lat="45.96091" lon="4.82878">
        <ele>237</ele>
        <time>2017-12-12T10:26:01Z</time>
      </trkpt>
      <trkpt lat="45.96089" lon="4.82885">
        <ele>237</ele>
        <time>2017-12-12T10:26:02Z</time>
      </trkpt>
      <trkpt lat="45.96089" lon="4.82896">
        <ele>238</ele>
        <time>2017-12-12T10:26:04Z</time>
      </trkpt>
      <trkpt lat="45.96087" lon="4.82902">
        <ele>238</ele>
        <time>2017-12-12T10:26:05Z</time>
      </trkpt>
      <trkpt lat="45.96085" lon="4.82915">
        <ele>238</ele>
        <time>2017-12-12T10:26:07Z</time>
      </trkpt>
      <trkpt lat="45.96083" lon="4.8292">
        <ele>239</ele>
        <time>2017-12-12T10:26:08Z</time>
      </trkpt>
      <trkpt lat="45.9608" lon="4.82931">
        <ele>240</ele>
        <time>2017-12-12T10:26:10Z</time>
      </trkpt>
      <trkpt lat="45.96078" lon="4.82936">
        <ele>240</ele>
        <time>2017-12-12T10:26:11Z</time>
      </trkpt>
      <trkpt lat="45.96075" lon="4.82947">
        <ele>241</ele>
        <time>2017-12-12T10:26:13Z</time>
      </trkpt>
      <trkpt lat="45.96073" lon="4.82953">
        <ele>241</ele>
        <time>2017-12-12T10:26:14Z</time>
      </trkpt>
      <trkpt lat="45.96072" lon="4.82959">
        <ele>241</ele>
        <time>2017-12-12T10:26:15Z</time>
      </trkpt>
      <trkpt lat="45.9607" lon="4.82966">
        <ele>241</ele>
        <time>2017-12-12T10:26:16Z</time>
      </trkpt>
      <trkpt lat="45.96069" lon="4.82978">
        <ele>241</ele>
        <time>2017-12-12T10:26:18Z</time>
      </trkpt>
      <trkpt lat="45.96068" lon="4.82985">
        <ele>241</ele>
        <time>2017-12-12T10:26:19Z</time>
      </trkpt>
      <trkpt lat="45.96068" lon="4.82998">
        <ele>241</ele>
        <time>2017-12-12T10:26:21Z</time>
      </trkpt>
      <trkpt lat="45.96068" lon="4.83005">
        <ele>241</ele>
        <time>2017-12-12T10:26:22Z</time>
      </trkpt>
      <trkpt lat="45.96068" lon="4.83018">
        <ele>242</ele>
        <time>2017-12-12T10:26:24Z</time>
      </trkpt>
      <trkpt lat="45.96069" lon="4.83024">
        <ele>242</ele>
        <time>2017-12-12T10:26:25Z</time>
      </trkpt>
      <trkpt lat="45.96071" lon="4.83035">
        <ele>243</ele>
        <time>2017-12-12T10:26:27Z</time>
      </trkpt>
      <trkpt lat="45.96073" lon="4.83041">
        <ele>243</ele>
        <time>2017-12-12T10:26:28Z</time>
      </trkpt>
      <trkpt lat="45.96074" lon="4.83047">
        <ele>243</ele>
        <time>2017-12-12T10:26:29Z</time>
      </trkpt>
      <trkpt lat="45.96077" lon="4.83053">
        <ele>242</ele>
        <time>2017-12-12T10:26:30Z</time>
      </trkpt>
      <trkpt lat="45.96078" lon="4.8306">
        <ele>242</ele>
        <time>2017-12-12T10:26:31Z</time>
      </trkpt>
      <trkpt lat="45.96079" lon="4.83067">
        <ele>242</ele>
        <time>2017-12-12T10:26:32Z</time>
      </trkpt>
      <trkpt lat="45.96082" lon="4.83078">
        <ele>241</ele>
        <time>2017-12-12T10:26:34Z</time>
      </trkpt>
      <trkpt lat="45.96082" lon="4.83084">
        <ele>240</ele>
        <time>2017-12-12T10:26:35Z</time>
      </trkpt>
      <trkpt lat="45.96085" lon="4.83095">
        <ele>240</ele>
        <time>2017-12-12T10:26:37Z</time>
      </trkpt>
      <trkpt lat="45.96085" lon="4.83101">
        <ele>240</ele>
        <time>2017-12-12T10:26:38Z</time>
      </trkpt>
      <trkpt lat="45.96085" lon="4.83107">
        <ele>240</ele>
        <time>2017-12-12T10:26:39Z</time>
      </trkpt>
      <trkpt lat="45.96085" lon="4.83114">
        <ele>240</ele>
        <time>2017-12-12T10:26:40Z</time>
      </trkpt>
      <trkpt lat="45.96085" lon="4.83123">
        <ele>240</ele>
        <time>2017-12-12T10:26:41Z</time>
      </trkpt>
      <trkpt lat="45.96086" lon="4.83131">
        <ele>240</ele>
        <time>2017-12-12T10:26:42Z</time>
      </trkpt>
      <trkpt lat="45.96086" lon="4.83143">
        <ele>240</ele>
        <time>2017-12-12T10:26:44Z</time>
      </trkpt>
      <trkpt lat="45.96087" lon="4.83149">
        <ele>240</ele>
        <time>2017-12-12T10:26:45Z</time>
      </trkpt>
      <trkpt lat="45.96087" lon="4.83161">
        <ele>240</ele>
        <time>2017-12-12T10:26:47Z</time>
      </trkpt>
      <trkpt lat="45.96087" lon="4.83168">
        <ele>240</ele>
        <time>2017-12-12T10:26:48Z</time>
      </trkpt>
      <trkpt lat="45.96086" lon="4.8318">
        <ele>240</ele>
        <time>2017-12-12T10:26:50Z</time>
      </trkpt>
      <trkpt lat="45.96086" lon="4.83186">
        <ele>240</ele>
        <time>2017-12-12T10:26:51Z</time>
      </trkpt>
      <trkpt lat="45.96087" lon="4.83193">
        <ele>240</ele>
        <time>2017-12-12T10:26:52Z</time>
      </trkpt>
      <trkpt lat="45.96088" lon="4.832">
        <ele>240</ele>
        <time>2017-12-12T10:26:53Z</time>
      </trkpt>
      <trkpt lat="45.96087" lon="4.83205">
        <ele>240</ele>
        <time>2017-12-12T10:26:54Z</time>
      </trkpt>
      <trkpt lat="45.9609" lon="4.83213">
        <ele>240</ele>
        <time>2017-12-12T10:26:55Z</time>
      </trkpt>
      <trkpt lat="45.9609" lon="4.83225">
        <ele>240</ele>
        <time>2017-12-12T10:26:57Z</time>
      </trkpt>
      <trkpt lat="45.9609" lon="4.83231">
        <ele>240</ele>
        <time>2017-12-12T10:26:58Z</time>
      </trkpt>
      <trkpt lat="45.9609" lon="4.83244">
        <ele>240</ele>
        <time>2017-12-12T10:27:00Z</time>
      </trkpt>
      <trkpt lat="45.9609" lon="4.83251">
        <ele>240</ele>
        <time>2017-12-12T10:27:01Z</time>
      </trkpt>
      <trkpt lat="45.96088" lon="4.83257">
        <ele>240</ele>
        <time>2017-12-12T10:27:02Z</time>
      </trkpt>
      <trkpt lat="45.96089" lon="4.83264">
        <ele>241</ele>
        <time>2017-12-12T10:27:03Z</time>
      </trkpt>
      <trkpt lat="45.9609" lon="4.83277">
        <ele>241</ele>
        <time>2017-12-12T10:27:05Z</time>
      </trkpt>
      <trkpt lat="45.9609" lon="4.83284">
        <ele>241</ele>
        <time>2017-12-12T10:27:06Z</time>
      </trkpt>
      <trkpt lat="45.9609" lon="4.83291">
        <ele>241</ele>
        <time>2017-12-12T10:27:07Z</time>
      </trkpt>
      <trkpt lat="45.96091" lon="4.83298">
        <ele>241</ele>
        <time>2017-12-12T10:27:08Z</time>
      </trkpt>
      <trkpt lat="45.96091" lon="4.83305">
        <ele>241</ele>
        <time>2017-12-12T10:27:09Z</time>
      </trkpt>
      <trkpt lat="45.96092" lon="4.83312">
        <ele>241</ele>
        <time>2017-12-12T10:27:10Z</time>
      </trkpt>
      <trkpt lat="45.96094" lon="4.83319">
        <ele>241</ele>
        <time>2017-12-12T10:27:11Z</time>
      </trkpt>
      <trkpt lat="45.96095" lon="4.83326">
        <ele>241</ele>
        <time>2017-12-12T10:27:12Z</time>
      </trkpt>
      <trkpt lat="45.96098" lon="4.83338">
        <ele>242</ele>
        <time>2017-12-12T10:27:14Z</time>
      </trkpt>
      <trkpt lat="45.96099" lon="4.83344">
        <ele>242</ele>
        <time>2017-12-12T10:27:15Z</time>
      </trkpt>
      <trkpt lat="45.96101" lon="4.83355">
        <ele>242</ele>
        <time>2017-12-12T10:27:17Z</time>
      </trkpt>
      <trkpt lat="45.96103" lon="4.83362">
        <ele>242</ele>
        <time>2017-12-12T10:27:18Z</time>
      </trkpt>
      <trkpt lat="45.96106" lon="4.83372">
        <ele>242</ele>
        <time>2017-12-12T10:27:20Z</time>
      </trkpt>
      <trkpt lat="45.96107" lon="4.83378">
        <ele>242</ele>
        <time>2017-12-12T10:27:21Z</time>
      </trkpt>
      <trkpt lat="45.96109" lon="4.8339">
        <ele>243</ele>
        <time>2017-12-12T10:27:23Z</time>
      </trkpt>
      <trkpt lat="45.9611" lon="4.83396">
        <ele>243</ele>
        <time>2017-12-12T10:27:24Z</time>
      </trkpt>
      <trkpt lat="45.96112" lon="4.83407">
        <ele>243</ele>
        <time>2017-12-12T10:27:26Z</time>
      </trkpt>
      <trkpt lat="45.96113" lon="4.83413">
        <ele>243</ele>
        <time>2017-12-12T10:27:27Z</time>
      </trkpt>
      <trkpt lat="45.96116" lon="4.83425">
        <ele>243</ele>
        <time>2017-12-12T10:27:29Z</time>
      </trkpt>
      <trkpt lat="45.96117" lon="4.8343">
        <ele>243</ele>
        <time>2017-12-12T10:27:30Z</time>
      </trkpt>
      <trkpt lat="45.9612" lon="4.8344">
        <ele>242</ele>
        <time>2017-12-12T10:27:32Z</time>
      </trkpt>
      <trkpt lat="45.96122" lon="4.83446">
        <ele>242</ele>
        <time>2017-12-12T10:27:33Z</time>
      </trkpt>
      <trkpt lat="45.96125" lon="4.83457">
        <ele>242</ele>
        <time>2017-12-12T10:27:35Z</time>
      </trkpt>
      <trkpt lat="45.96127" lon="4.83462">
        <ele>242</ele>
        <time>2017-12-12T10:27:36Z</time>
      </trkpt>
      <trkpt lat="45.96129" lon="4.83472">
        <ele>242</ele>
        <time>2017-12-12T10:27:38Z</time>
      </trkpt>
      <trkpt lat="45.9613" lon="4.83477">
        <ele>242</ele>
        <time>2017-12-12T10:27:39Z</time>
      </trkpt>
      <trkpt lat="45.96132" lon="4.83489">
        <ele>242</ele>
        <time>2017-12-12T10:27:41Z</time>
      </trkpt>
      <trkpt lat="45.96134" lon="4.83495">
        <ele>242</ele>
        <time>2017-12-12T10:27:42Z</time>
      </trkpt>
      <trkpt lat="45.96135" lon="4.83501">
        <ele>242</ele>
        <time>2017-12-12T10:27:43Z</time>
      </trkpt>
      <trkpt lat="45.96137" lon="4.83508">
        <ele>241</ele>
        <time>2017-12-12T10:27:44Z</time>
      </trkpt>
      <trkpt lat="45.9614" lon="4.83519">
        <ele>241</ele>
        <time>2017-12-12T10:27:46Z</time>
      </trkpt>
      <trkpt lat="45.96141" lon="4.83525">
        <ele>242</ele>
        <time>2017-12-12T10:27:47Z</time>
      </trkpt>
      <trkpt lat="45.96143" lon="4.83537">
        <ele>242</ele>
        <time>2017-12-12T10:27:49Z</time>
      </trkpt>
      <trkpt lat="45.96145" lon="4.83544">
        <ele>242</ele>
        <time>2017-12-12T10:27:50Z</time>
      </trkpt>
      <trkpt lat="45.96147" lon="4.83557">
        <ele>241</ele>
        <time>2017-12-12T10:27:52Z</time>
      </trkpt>
      <trkpt lat="45.96149" lon="4.83563">
        <ele>241</ele>
        <time>2017-12-12T10:27:53Z</time>
      </trkpt>
      <trkpt lat="45.96151" lon="4.83575">
        <ele>241</ele>
        <time>2017-12-12T10:27:55Z</time>
      </trkpt>
      <trkpt lat="45.96152" lon="4.83582">
        <ele>241</ele>
        <time>2017-12-12T10:27:56Z</time>
      </trkpt>
      <trkpt lat="45.96153" lon="4.83588">
        <ele>241</ele>
        <time>2017-12-12T10:27:57Z</time>
      </trkpt>
      <trkpt lat="45.96155" lon="4.83595">
        <ele>242</ele>
        <time>2017-12-12T10:27:58Z</time>
      </trkpt>
      <trkpt lat="45.96158" lon="4.83606">
        <ele>242</ele>
        <time>2017-12-12T10:28:00Z</time>
      </trkpt>
      <trkpt lat="45.96159" lon="4.83611">
        <ele>242</ele>
        <time>2017-12-12T10:28:01Z</time>
      </trkpt>
      <trkpt lat="45.9616" lon="4.83617">
        <ele>242</ele>
        <time>2017-12-12T10:28:02Z</time>
      </trkpt>
      <trkpt lat="45.96162" lon="4.83624">
        <ele>242</ele>
        <time>2017-12-12T10:28:03Z</time>
      </trkpt>
      <trkpt lat="45.96165" lon="4.83634">
        <ele>243</ele>
        <time>2017-12-12T10:28:05Z</time>
      </trkpt>
      <trkpt lat="45.96167" lon="4.8364">
        <ele>242</ele>
        <time>2017-12-12T10:28:06Z</time>
      </trkpt>
      <trkpt lat="45.96169" lon="4.83645">
        <ele>242</ele>
        <time>2017-12-12T10:28:07Z</time>
      </trkpt>
      <trkpt lat="45.96172" lon="4.83651">
        <ele>242</ele>
        <time>2017-12-12T10:28:08Z</time>
      </trkpt>
      <trkpt lat="45.96175" lon="4.83656">
        <ele>242</ele>
        <time>2017-12-12T10:28:09Z</time>
      </trkpt>
      <trkpt lat="45.96179" lon="4.83661">
        <ele>242</ele>
        <time>2017-12-12T10:28:10Z</time>
      </trkpt>
      <trkpt lat="45.96182" lon="4.83666">
        <ele>242</ele>
        <time>2017-12-12T10:28:11Z</time>
      </trkpt>
      <trkpt lat="45.96185" lon="4.83671">
        <ele>243</ele>
        <time>2017-12-12T10:28:12Z</time>
      </trkpt>
      <trkpt lat="45.96189" lon="4.83676">
        <ele>243</ele>
        <time>2017-12-12T10:28:13Z</time>
      </trkpt>
      <trkpt lat="45.96193" lon="4.8368">
        <ele>243</ele>
        <time>2017-12-12T10:28:14Z</time>
      </trkpt>
      <trkpt lat="45.96199" lon="4.83688">
        <ele>243</ele>
        <time>2017-12-12T10:28:16Z</time>
      </trkpt>
      <trkpt lat="45.96202" lon="4.83692">
        <ele>243</ele>
        <time>2017-12-12T10:28:17Z</time>
      </trkpt>
      <trkpt lat="45.96209" lon="4.837">
        <ele>243</ele>
        <time>2017-12-12T10:28:19Z</time>
      </trkpt>
      <trkpt lat="45.96212" lon="4.83702">
        <ele>243</ele>
        <time>2017-12-12T10:28:20Z</time>
      </trkpt>
      <trkpt lat="45.96219" lon="4.83709">
        <ele>244</ele>
        <time>2017-12-12T10:28:22Z</time>
      </trkpt>
      <trkpt lat="45.96223" lon="4.83712">
        <ele>244</ele>
        <time>2017-12-12T10:28:23Z</time>
      </trkpt>
      <trkpt lat="45.96227" lon="4.83716">
        <ele>244</ele>
        <time>2017-12-12T10:28:24Z</time>
      </trkpt>
      <trkpt lat="45.96231" lon="4.8372">
        <ele>244</ele>
        <time>2017-12-12T10:28:25Z</time>
      </trkpt>
      <trkpt lat="45.96235" lon="4.83725">
        <ele>244</ele>
        <time>2017-12-12T10:28:26Z</time>
      </trkpt>
      <trkpt lat="45.96239" lon="4.83731">
        <ele>244</ele>
        <time>2017-12-12T10:28:27Z</time>
      </trkpt>
      <trkpt lat="45.96243" lon="4.83736">
        <ele>244</ele>
        <time>2017-12-12T10:28:28Z</time>
      </trkpt>
      <trkpt lat="45.96247" lon="4.8374">
        <ele>244</ele>
        <time>2017-12-12T10:28:29Z</time>
      </trkpt>
      <trkpt lat="45.96251" lon="4.83743">
        <ele>245</ele>
        <time>2017-12-12T10:28:30Z</time>
      </trkpt>
      <trkpt lat="45.96255" lon="4.83748">
        <ele>245</ele>
        <time>2017-12-12T10:28:31Z</time>
      </trkpt>
      <trkpt lat="45.96259" lon="4.83752">
        <ele>244</ele>
        <time>2017-12-12T10:28:32Z</time>
      </trkpt>
      <trkpt lat="45.96264" lon="4.83757">
        <ele>245</ele>
        <time>2017-12-12T10:28:33Z</time>
      </trkpt>
      <trkpt lat="45.9627" lon="4.83764">
        <ele>245</ele>
        <time>2017-12-12T10:28:35Z</time>
      </trkpt>
      <trkpt lat="45.96274" lon="4.83767">
        <ele>245</ele>
        <time>2017-12-12T10:28:36Z</time>
      </trkpt>
      <trkpt lat="45.96281" lon="4.83774">
        <ele>245</ele>
        <time>2017-12-12T10:28:38Z</time>
      </trkpt>
      <trkpt lat="45.96285" lon="4.83777">
        <ele>245</ele>
        <time>2017-12-12T10:28:39Z</time>
      </trkpt>
      <trkpt lat="45.96289" lon="4.83781">
        <ele>245</ele>
        <time>2017-12-12T10:28:40Z</time>
      </trkpt>
      <trkpt lat="45.96293" lon="4.83783">
        <ele>245</ele>
        <time>2017-12-12T10:28:41Z</time>
      </trkpt>
      <trkpt lat="45.96296" lon="4.83787">
        <ele>245</ele>
        <time>2017-12-12T10:28:42Z</time>
      </trkpt>
      <trkpt lat="45.963" lon="4.8379">
        <ele>245</ele>
        <time>2017-12-12T10:28:43Z</time>
      </trkpt>
      <trkpt lat="45.96304" lon="4.83794">
        <ele>245</ele>
        <time>2017-12-12T10:28:44Z</time>
      </trkpt>
      <trkpt lat="45.96308" lon="4.83797">
        <ele>245</ele>
        <time>2017-12-12T10:28:45Z</time>
      </trkpt>
      <trkpt lat="45.96315" lon="4.83804">
        <ele>245</ele>
        <time>2017-12-12T10:28:47Z</time>
      </trkpt>
      <trkpt lat="45.96319" lon="4.83807">
        <ele>245</ele>
        <time>2017-12-12T10:28:48Z</time>
      </trkpt>
      <trkpt lat="45.96326" lon="4.83813">
        <ele>244</ele>
        <time>2017-12-12T10:28:50Z</time>
      </trkpt>
      <trkpt lat="45.96331" lon="4.83815">
        <ele>244</ele>
        <time>2017-12-12T10:28:51Z</time>
      </trkpt>
      <trkpt lat="45.96335" lon="4.83819">
        <ele>245</ele>
        <time>2017-12-12T10:28:52Z</time>
      </trkpt>
      <trkpt lat="45.96339" lon="4.83823">
        <ele>245</ele>
        <time>2017-12-12T10:28:53Z</time>
      </trkpt>
      <trkpt lat="45.96344" lon="4.83827">
        <ele>245</ele>
        <time>2017-12-12T10:28:54Z</time>
      </trkpt>
      <trkpt lat="45.96348" lon="4.83831">
        <ele>245</ele>
        <time>2017-12-12T10:28:55Z</time>
      </trkpt>
      <trkpt lat="45.96352" lon="4.83836">
        <ele>245</ele>
        <time>2017-12-12T10:28:56Z</time>
      </trkpt>
      <trkpt lat="45.96355" lon="4.83841">
        <ele>246</ele>
        <time>2017-12-12T10:28:57Z</time>
      </trkpt>
      <trkpt lat="45.96358" lon="4.83846">
        <ele>246</ele>
        <time>2017-12-12T10:28:58Z</time>
      </trkpt>
      <trkpt lat="45.96361" lon="4.83851">
        <ele>246</ele>
        <time>2017-12-12T10:28:59Z</time>
      </trkpt>
      <trkpt lat="45.96366" lon="4.83861">
        <ele>247</ele>
        <time>2017-12-12T10:29:01Z</time>
      </trkpt>
      <trkpt lat="45.96369" lon="4.83866">
        <ele>247</ele>
        <time>2017-12-12T10:29:02Z</time>
      </trkpt>
      <trkpt lat="45.96373" lon="4.83874">
        <ele>247</ele>
        <time>2017-12-12T10:29:04Z</time>
      </trkpt>
      <trkpt lat="45.96375" lon="4.83877">
        <ele>247</ele>
        <time>2017-12-12T10:29:05Z</time>
      </trkpt>
      <trkpt lat="45.96379" lon="4.83887">
        <ele>248</ele>
        <time>2017-12-12T10:29:07Z</time>
      </trkpt>
      <trkpt lat="45.96381" lon="4.8389">
        <ele>248</ele>
        <time>2017-12-12T10:29:08Z</time>
      </trkpt>
      <trkpt lat="45.96386" lon="4.83901">
        <ele>248</ele>
        <time>2017-12-12T10:29:10Z</time>
      </trkpt>
      <trkpt lat="45.96388" lon="4.83906">
        <ele>248</ele>
        <time>2017-12-12T10:29:11Z</time>
      </trkpt>
      <trkpt lat="45.9639" lon="4.83912">
        <ele>248</ele>
        <time>2017-12-12T10:29:12Z</time>
      </trkpt>
      <trkpt lat="45.96393" lon="4.83918">
        <ele>251</ele>
        <time>2017-12-12T10:29:13Z</time>
      </trkpt>
      <trkpt lat="45.96395" lon="4.83924">
        <ele>251</ele>
        <time>2017-12-12T10:29:14Z</time>
      </trkpt>
      <trkpt lat="45.96398" lon="4.83931">
        <ele>251</ele>
        <time>2017-12-12T10:29:15Z</time>
      </trkpt>
      <trkpt lat="45.96402" lon="4.83941">
        <ele>251</ele>
        <time>2017-12-12T10:29:17Z</time>
      </trkpt>
      <trkpt lat="45.96404" lon="4.83946">
        <ele>251</ele>
        <time>2017-12-12T10:29:18Z</time>
      </trkpt>
      <trkpt lat="45.96408" lon="4.83957">
        <ele>252</ele>
        <time>2017-12-12T10:29:20Z</time>
      </trkpt>
      <trkpt lat="45.96411" lon="4.83962">
        <ele>252</ele>
        <time>2017-12-12T10:29:21Z</time>
      </trkpt>
      <trkpt lat="45.96415" lon="4.83971">
        <ele>253</ele>
        <time>2017-12-12T10:29:23Z</time>
      </trkpt>
      <trkpt lat="45.96417" lon="4.83976">
        <ele>253</ele>
        <time>2017-12-12T10:29:24Z</time>
      </trkpt>
      <trkpt lat="45.96419" lon="4.83985">
        <ele>251</ele>
        <time>2017-12-12T10:29:26Z</time>
      </trkpt>
      <trkpt lat="45.96421" lon="4.83989">
        <ele>251</ele>
        <time>2017-12-12T10:29:27Z</time>
      </trkpt>
      <trkpt lat="45.96425" lon="4.83998">
        <ele>252</ele>
        <time>2017-12-12T10:29:30Z</time>
      </trkpt>
      <trkpt lat="45.96426" lon="4.84001">
        <ele>252</ele>
        <time>2017-12-12T10:29:31Z</time>
      </trkpt>
      <trkpt lat="45.96431" lon="4.8401">
        <ele>252</ele>
        <time>2017-12-12T10:29:34Z</time>
      </trkpt>
      <trkpt lat="45.96433" lon="4.84013">
        <ele>252</ele>
        <time>2017-12-12T10:29:35Z</time>
      </trkpt>
      <trkpt lat="45.96436" lon="4.84021">
        <ele>251</ele>
        <time>2017-12-12T10:29:37Z</time>
      </trkpt>
      <trkpt lat="45.96437" lon="4.84026">
        <ele>251</ele>
        <time>2017-12-12T10:29:38Z</time>
      </trkpt>
      <trkpt lat="45.96441" lon="4.84035">
        <ele>251</ele>
        <time>2017-12-12T10:29:40Z</time>
      </trkpt>
      <trkpt lat="45.96443" lon="4.84039">
        <ele>251</ele>
        <time>2017-12-12T10:29:41Z</time>
      </trkpt>
      <trkpt lat="45.96447" lon="4.84049">
        <ele>251</ele>
        <time>2017-12-12T10:29:43Z</time>
      </trkpt>
      <trkpt lat="45.96449" lon="4.84053">
        <ele>251</ele>
        <time>2017-12-12T10:29:44Z</time>
      </trkpt>
      <trkpt lat="45.96453" lon="4.84063">
        <ele>251</ele>
        <time>2017-12-12T10:29:46Z</time>
      </trkpt>
      <trkpt lat="45.96455" lon="4.84068">
        <ele>251</ele>
        <time>2017-12-12T10:29:47Z</time>
      </trkpt>
      <trkpt lat="45.96458" lon="4.84077">
        <ele>251</ele>
        <time>2017-12-12T10:29:49Z</time>
      </trkpt>
      <trkpt lat="45.96459" lon="4.84082">
        <ele>251</ele>
        <time>2017-12-12T10:29:50Z</time>
      </trkpt>
      <trkpt lat="45.96462" lon="4.8409">
        <ele>251</ele>
        <time>2017-12-12T10:29:52Z</time>
      </trkpt>
      <trkpt lat="45.96463" lon="4.84095">
        <ele>251</ele>
        <time>2017-12-12T10:29:53Z</time>
      </trkpt>
      <trkpt lat="45.96466" lon="4.84104">
        <ele>251</ele>
        <time>2017-12-12T10:29:55Z</time>
      </trkpt>
      <trkpt lat="45.96468" lon="4.84108">
        <ele>251</ele>
        <time>2017-12-12T10:29:56Z</time>
      </trkpt>
      <trkpt lat="45.96471" lon="4.84117">
        <ele>251</ele>
        <time>2017-12-12T10:29:58Z</time>
      </trkpt>
      <trkpt lat="45.96473" lon="4.84121">
        <ele>251</ele>
        <time>2017-12-12T10:29:59Z</time>
      </trkpt>
      <trkpt lat="45.96476" lon="4.84129">
        <ele>251</ele>
        <time>2017-12-12T10:30:01Z</time>
      </trkpt>
      <trkpt lat="45.96477" lon="4.84134">
        <ele>251</ele>
        <time>2017-12-12T10:30:02Z</time>
      </trkpt>
      <trkpt lat="45.9648" lon="4.84143">
        <ele>251</ele>
        <time>2017-12-12T10:30:04Z</time>
      </trkpt>
      <trkpt lat="45.96481" lon="4.84148">
        <ele>251</ele>
        <time>2017-12-12T10:30:05Z</time>
      </trkpt>
      <trkpt lat="45.96483" lon="4.84159">
        <ele>251</ele>
        <time>2017-12-12T10:30:07Z</time>
      </trkpt>
      <trkpt lat="45.96484" lon="4.84164">
        <ele>250</ele>
        <time>2017-12-12T10:30:08Z</time>
      </trkpt>
      <trkpt lat="45.96487" lon="4.84174">
        <ele>251</ele>
        <time>2017-12-12T10:30:10Z</time>
      </trkpt>
      <trkpt lat="45.96488" lon="4.8418">
        <ele>251</ele>
        <time>2017-12-12T10:30:11Z</time>
      </trkpt>
      <trkpt lat="45.96491" lon="4.84191">
        <ele>251</ele>
        <time>2017-12-12T10:30:13Z</time>
      </trkpt>
      <trkpt lat="45.96493" lon="4.84197">
        <ele>251</ele>
        <time>2017-12-12T10:30:14Z</time>
      </trkpt>
      <trkpt lat="45.96494" lon="4.84204">
        <ele>251</ele>
        <time>2017-12-12T10:30:15Z</time>
      </trkpt>
      <trkpt lat="45.96496" lon="4.84211">
        <ele>251</ele>
        <time>2017-12-12T10:30:16Z</time>
      </trkpt>
      <trkpt lat="45.96496" lon="4.84218">
        <ele>252</ele>
        <time>2017-12-12T10:30:17Z</time>
      </trkpt>
      <trkpt lat="45.96497" lon="4.84224">
        <ele>252</ele>
        <time>2017-12-12T10:30:18Z</time>
      </trkpt>
      <trkpt lat="45.96498" lon="4.84231">
        <ele>251</ele>
        <time>2017-12-12T10:30:19Z</time>
      </trkpt>
      <trkpt lat="45.965" lon="4.84237">
        <ele>251</ele>
        <time>2017-12-12T10:30:20Z</time>
      </trkpt>
      <trkpt lat="45.965" lon="4.84244">
        <ele>250</ele>
        <time>2017-12-12T10:30:21Z</time>
      </trkpt>
      <trkpt lat="45.96501" lon="4.84251">
        <ele>251</ele>
        <time>2017-12-12T10:30:22Z</time>
      </trkpt>
      <trkpt lat="45.96502" lon="4.84258">
        <ele>251</ele>
        <time>2017-12-12T10:30:23Z</time>
      </trkpt>
      <trkpt lat="45.96504" lon="4.84265">
        <ele>251</ele>
        <time>2017-12-12T10:30:24Z</time>
      </trkpt>
      <trkpt lat="45.96505" lon="4.84271">
        <ele>250</ele>
        <time>2017-12-12T10:30:25Z</time>
      </trkpt>
      <trkpt lat="45.96507" lon="4.84277">
        <ele>250</ele>
        <time>2017-12-12T10:30:26Z</time>
      </trkpt>
      <trkpt lat="45.96508" lon="4.84285">
        <ele>250</ele>
        <time>2017-12-12T10:30:27Z</time>
      </trkpt>
      <trkpt lat="45.96509" lon="4.84292">
        <ele>250</ele>
        <time>2017-12-12T10:30:28Z</time>
      </trkpt>
      <trkpt lat="45.96512" lon="4.84304">
        <ele>250</ele>
        <time>2017-12-12T10:30:30Z</time>
      </trkpt>
      <trkpt lat="45.96513" lon="4.84311">
        <ele>250</ele>
        <time>2017-12-12T10:30:31Z</time>
      </trkpt>
      <trkpt lat="45.96516" lon="4.84317">
        <ele>250</ele>
        <time>2017-12-12T10:30:32Z</time>
      </trkpt>
      <trkpt lat="45.96517" lon="4.84324">
        <ele>251</ele>
        <time>2017-12-12T10:30:33Z</time>
      </trkpt>
      <trkpt lat="45.96518" lon="4.84331">
        <ele>251</ele>
        <time>2017-12-12T10:30:34Z</time>
      </trkpt>
      <trkpt lat="45.96519" lon="4.84338">
        <ele>251</ele>
        <time>2017-12-12T10:30:35Z</time>
      </trkpt>
      <trkpt lat="45.96521" lon="4.84344">
        <ele>251</ele>
        <time>2017-12-12T10:30:36Z</time>
      </trkpt>
      <trkpt lat="45.96522" lon="4.84351">
        <ele>251</ele>
        <time>2017-12-12T10:30:37Z</time>
      </trkpt>
      <trkpt lat="45.96523" lon="4.84357">
        <ele>251</ele>
        <time>2017-12-12T10:30:38Z</time>
      </trkpt>
      <trkpt lat="45.96526" lon="4.84364">
        <ele>251</ele>
        <time>2017-12-12T10:30:39Z</time>
      </trkpt>
      <trkpt lat="45.96527" lon="4.84375">
        <ele>251</ele>
        <time>2017-12-12T10:30:41Z</time>
      </trkpt>
      <trkpt lat="45.96529" lon="4.84381">
        <ele>251</ele>
        <time>2017-12-12T10:30:42Z</time>
      </trkpt>
      <trkpt lat="45.96529" lon="4.84388">
        <ele>252</ele>
        <time>2017-12-12T10:30:43Z</time>
      </trkpt>
      <trkpt lat="45.96528" lon="4.84395">
        <ele>252</ele>
        <time>2017-12-12T10:30:44Z</time>
      </trkpt>
      <trkpt lat="45.96528" lon="4.84402">
        <ele>252</ele>
        <time>2017-12-12T10:30:45Z</time>
      </trkpt>
      <trkpt lat="45.96529" lon="4.84408">
        <ele>252</ele>
        <time>2017-12-12T10:30:46Z</time>
      </trkpt>
      <trkpt lat="45.96529" lon="4.84415">
        <ele>252</ele>
        <time>2017-12-12T10:30:47Z</time>
      </trkpt>
      <trkpt lat="45.9653" lon="4.84423">
        <ele>253</ele>
        <time>2017-12-12T10:30:48Z</time>
      </trkpt>
      <trkpt lat="45.96527" lon="4.84436">
        <ele>253</ele>
        <time>2017-12-12T10:30:50Z</time>
      </trkpt>
      <trkpt lat="45.96526" lon="4.84442">
        <ele>253</ele>
        <time>2017-12-12T10:30:51Z</time>
      </trkpt>
      <trkpt lat="45.96525" lon="4.84453">
        <ele>253</ele>
        <time>2017-12-12T10:30:53Z</time>
      </trkpt>
      <trkpt lat="45.96525" lon="4.84459">
        <ele>253</ele>
        <time>2017-12-12T10:30:54Z</time>
      </trkpt>
      <trkpt lat="45.96524" lon="4.84469">
        <ele>253</ele>
        <time>2017-12-12T10:30:56Z</time>
      </trkpt>
      <trkpt lat="45.96524" lon="4.84473">
        <ele>253</ele>
        <time>2017-12-12T10:30:57Z</time>
      </trkpt>
      <trkpt lat="45.96524" lon="4.84485">
        <ele>253</ele>
        <time>2017-12-12T10:31:00Z</time>
      </trkpt>
      <trkpt lat="45.96524" lon="4.84488">
        <ele>253</ele>
        <time>2017-12-12T10:31:01Z</time>
      </trkpt>
      <trkpt lat="45.96522" lon="4.84498">
        <ele>253</ele>
        <time>2017-12-12T10:33:48Z</time>
      </trkpt>
      <trkpt lat="45.96522" lon="4.845">
        <ele>253</ele>
        <time>2017-12-12T10:33:49Z</time>
      </trkpt>
      <trkpt lat="45.96522" lon="4.84512">
        <ele>253</ele>
        <time>2017-12-12T10:33:53Z</time>
      </trkpt>
      <trkpt lat="45.96522" lon="4.84516">
        <ele>253</ele>
        <time>2017-12-12T10:33:54Z</time>
      </trkpt>
      <trkpt lat="45.96522" lon="4.84524">
        <ele>253</ele>
        <time>2017-12-12T10:33:56Z</time>
      </trkpt>
      <trkpt lat="45.96522" lon="4.84529">
        <ele>253</ele>
        <time>2017-12-12T10:33:57Z</time>
      </trkpt>
      <trkpt lat="45.9652" lon="4.8454">
        <ele>253</ele>
        <time>2017-12-12T10:33:59Z</time>
      </trkpt>
      <trkpt lat="45.9652" lon="4.84546">
        <ele>253</ele>
        <time>2017-12-12T10:34:00Z</time>
      </trkpt>
      <trkpt lat="45.96519" lon="4.84556">
        <ele>253</ele>
        <time>2017-12-12T10:34:02Z</time>
      </trkpt>
      <trkpt lat="45.96518" lon="4.84562">
        <ele>253</ele>
        <time>2017-12-12T10:34:03Z</time>
      </trkpt>
      <trkpt lat="45.96518" lon="4.84573">
        <ele>252</ele>
        <time>2017-12-12T10:34:05Z</time>
      </trkpt>
      <trkpt lat="45.96518" lon="4.84579">
        <ele>252</ele>
        <time>2017-12-12T10:34:06Z</time>
      </trkpt>
      <trkpt lat="45.96516" lon="4.84591">
        <ele>252</ele>
        <time>2017-12-12T10:34:08Z</time>
      </trkpt>
      <trkpt lat="45.96515" lon="4.84598">
        <ele>252</ele>
        <time>2017-12-12T10:34:09Z</time>
      </trkpt>
      <trkpt lat="45.96514" lon="4.84605">
        <ele>252</ele>
        <time>2017-12-12T10:34:10Z</time>
      </trkpt>
      <trkpt lat="45.96514" lon="4.84613">
        <ele>252</ele>
        <time>2017-12-12T10:34:11Z</time>
      </trkpt>
      <trkpt lat="45.96513" lon="4.8462">
        <ele>252</ele>
        <time>2017-12-12T10:34:12Z</time>
      </trkpt>
      <trkpt lat="45.96514" lon="4.84627">
        <ele>252</ele>
        <time>2017-12-12T10:34:13Z</time>
      </trkpt>
      <trkpt lat="45.96515" lon="4.84634">
        <ele>252</ele>
        <time>2017-12-12T10:34:14Z</time>
      </trkpt>
      <trkpt lat="45.96515" lon="4.84641">
        <ele>252</ele>
        <time>2017-12-12T10:34:15Z</time>
      </trkpt>
      <trkpt lat="45.96516" lon="4.84653">
        <ele>252</ele>
        <time>2017-12-12T10:34:17Z</time>
      </trkpt>
      <trkpt lat="45.96518" lon="4.84659">
        <ele>252</ele>
        <time>2017-12-12T10:34:18Z</time>
      </trkpt>
      <trkpt lat="45.96521" lon="4.8467">
        <ele>252</ele>
        <time>2017-12-12T10:34:20Z</time>
      </trkpt>
      <trkpt lat="45.96523" lon="4.84679">
        <ele>252</ele>
        <time>2017-12-12T10:34:21Z</time>
      </trkpt>
      <trkpt lat="45.96524" lon="4.84685">
        <ele>252</ele>
        <time>2017-12-12T10:34:22Z</time>
      </trkpt>
      <trkpt lat="45.96525" lon="4.84692">
        <ele>253</ele>
        <time>2017-12-12T10:34:23Z</time>
      </trkpt>
      <trkpt lat="45.96526" lon="4.84699">
        <ele>253</ele>
        <time>2017-12-12T10:34:24Z</time>
      </trkpt>
      <trkpt lat="45.96527" lon="4.84706">
        <ele>253</ele>
        <time>2017-12-12T10:34:25Z</time>
      </trkpt>
      <trkpt lat="45.96528" lon="4.84713">
        <ele>253</ele>
        <time>2017-12-12T10:34:26Z</time>
      </trkpt>
      <trkpt lat="45.96528" lon="4.84722">
        <ele>253</ele>
        <time>2017-12-12T10:34:27Z</time>
      </trkpt>
      <trkpt lat="45.96527" lon="4.8473">
        <ele>253</ele>
        <time>2017-12-12T10:34:28Z</time>
      </trkpt>
      <trkpt lat="45.96527" lon="4.84737">
        <ele>253</ele>
        <time>2017-12-12T10:34:29Z</time>
      </trkpt>
      <trkpt lat="45.96525" lon="4.8475">
        <ele>252</ele>
        <time>2017-12-12T10:34:31Z</time>
      </trkpt>
      <trkpt lat="45.96523" lon="4.84756">
        <ele>253</ele>
        <time>2017-12-12T10:34:32Z</time>
      </trkpt>
      <trkpt lat="45.96521" lon="4.84763">
        <ele>253</ele>
        <time>2017-12-12T10:34:33Z</time>
      </trkpt>
      <trkpt lat="45.9652" lon="4.84769">
        <ele>253</ele>
        <time>2017-12-12T10:34:34Z</time>
      </trkpt>
      <trkpt lat="45.96519" lon="4.84775">
        <ele>253</ele>
        <time>2017-12-12T10:34:35Z</time>
      </trkpt>
      <trkpt lat="45.96516" lon="4.84782">
        <ele>254</ele>
        <time>2017-12-12T10:34:36Z</time>
      </trkpt>
      <trkpt lat="45.96513" lon="4.84794">
        <ele>254</ele>
        <time>2017-12-12T10:34:38Z</time>
      </trkpt>
      <trkpt lat="45.96511" lon="4.84799">
        <ele>254</ele>
        <time>2017-12-12T10:34:39Z</time>
      </trkpt>
      <trkpt lat="45.9651" lon="4.84805">
        <ele>254</ele>
        <time>2017-12-12T10:34:40Z</time>
      </trkpt>
      <trkpt lat="45.96508" lon="4.84811">
        <ele>254</ele>
        <time>2017-12-12T10:34:41Z</time>
      </trkpt>
      <trkpt lat="45.96506" lon="4.84822">
        <ele>254</ele>
        <time>2017-12-12T10:34:43Z</time>
      </trkpt>
      <trkpt lat="45.96505" lon="4.84827">
        <ele>253</ele>
        <time>2017-12-12T10:34:44Z</time>
      </trkpt>
      <trkpt lat="45.96502" lon="4.84837">
        <ele>254</ele>
        <time>2017-12-12T10:34:46Z</time>
      </trkpt>
      <trkpt lat="45.96501" lon="4.84842">
        <ele>255</ele>
        <time>2017-12-12T10:34:47Z</time>
      </trkpt>
      <trkpt lat="45.96498" lon="4.84853">
        <ele>254</ele>
        <time>2017-12-12T10:34:49Z</time>
      </trkpt>
      <trkpt lat="45.96497" lon="4.84858">
        <ele>254</ele>
        <time>2017-12-12T10:34:50Z</time>
      </trkpt>
      <trkpt lat="45.96496" lon="4.84869">
        <ele>255</ele>
        <time>2017-12-12T10:34:52Z</time>
      </trkpt>
      <trkpt lat="45.96495" lon="4.84874">
        <ele>255</ele>
        <time>2017-12-12T10:34:53Z</time>
      </trkpt>
      <trkpt lat="45.96492" lon="4.84884">
        <ele>255</ele>
        <time>2017-12-12T10:34:55Z</time>
      </trkpt>
      <trkpt lat="45.9649" lon="4.84889">
        <ele>255</ele>
        <time>2017-12-12T10:34:56Z</time>
      </trkpt>
      <trkpt lat="45.96488" lon="4.84899">
        <ele>256</ele>
        <time>2017-12-12T10:34:58Z</time>
      </trkpt>
      <trkpt lat="45.96487" lon="4.84904">
        <ele>256</ele>
        <time>2017-12-12T10:34:59Z</time>
      </trkpt>
      <trkpt lat="45.96485" lon="4.84914">
        <ele>256</ele>
        <time>2017-12-12T10:35:01Z</time>
      </trkpt>
      <trkpt lat="45.96483" lon="4.84919">
        <ele>259</ele>
        <time>2017-12-12T10:35:02Z</time>
      </trkpt>
      <trkpt lat="45.9648" lon="4.84928">
        <ele>259</ele>
        <time>2017-12-12T10:35:04Z</time>
      </trkpt>
      <trkpt lat="45.96479" lon="4.84933">
        <ele>260</ele>
        <time>2017-12-12T10:35:05Z</time>
      </trkpt>
      <trkpt lat="45.96478" lon="4.84943">
        <ele>260</ele>
        <time>2017-12-12T10:35:07Z</time>
      </trkpt>
      <trkpt lat="45.96477" lon="4.84947">
        <ele>260</ele>
        <time>2017-12-12T10:35:08Z</time>
      </trkpt>
      <trkpt lat="45.96474" lon="4.84955">
        <ele>261</ele>
        <time>2017-12-12T10:35:10Z</time>
      </trkpt>
      <trkpt lat="45.96473" lon="4.84959">
        <ele>261</ele>
        <time>2017-12-12T10:35:11Z</time>
      </trkpt>
      <trkpt lat="45.96472" lon="4.84968">
        <ele>262</ele>
        <time>2017-12-12T10:35:13Z</time>
      </trkpt>
      <trkpt lat="45.96471" lon="4.84973">
        <ele>262</ele>
        <time>2017-12-12T10:35:14Z</time>
      </trkpt>
      <trkpt lat="45.9647" lon="4.84981">
        <ele>262</ele>
        <time>2017-12-12T10:35:16Z</time>
      </trkpt>
      <trkpt lat="45.9647" lon="4.84986">
        <ele>262</ele>
        <time>2017-12-12T10:35:17Z</time>
      </trkpt>
      <trkpt lat="45.96468" lon="4.84997">
        <ele>263</ele>
        <time>2017-12-12T10:35:20Z</time>
      </trkpt>
      <trkpt lat="45.96468" lon="4.85001">
        <ele>266</ele>
        <time>2017-12-12T10:35:21Z</time>
      </trkpt>
      <trkpt lat="45.96467" lon="4.85014">
        <ele>266</ele>
        <time>2017-12-12T10:35:24Z</time>
      </trkpt>
      <trkpt lat="45.96467" lon="4.85019">
        <ele>266</ele>
        <time>2017-12-12T10:35:25Z</time>
      </trkpt>
      <trkpt lat="45.96467" lon="4.8503">
        <ele>266</ele>
        <time>2017-12-12T10:35:28Z</time>
      </trkpt>
      <trkpt lat="45.96467" lon="4.85035">
        <ele>266</ele>
        <time>2017-12-12T10:35:29Z</time>
      </trkpt>
      <trkpt lat="45.96467" lon="4.85046">
        <ele>266</ele>
        <time>2017-12-12T10:35:32Z</time>
      </trkpt>
      <trkpt lat="45.96467" lon="4.8505">
        <ele>266</ele>
        <time>2017-12-12T10:35:33Z</time>
      </trkpt>
      <trkpt lat="45.96468" lon="4.85063">
        <ele>266</ele>
        <time>2017-12-12T10:35:36Z</time>
      </trkpt>
      <trkpt lat="45.96468" lon="4.85067">
        <ele>266</ele>
        <time>2017-12-12T10:35:37Z</time>
      </trkpt>
      <trkpt lat="45.96468" lon="4.85079">
        <ele>267</ele>
        <time>2017-12-12T10:35:40Z</time>
      </trkpt>
      <trkpt lat="45.96468" lon="4.85084">
        <ele>268</ele>
        <time>2017-12-12T10:35:41Z</time>
      </trkpt>
      <trkpt lat="45.96467" lon="4.85093">
        <ele>268</ele>
        <time>2017-12-12T10:35:43Z</time>
      </trkpt>
      <trkpt lat="45.96466" lon="4.85097">
        <ele>268</ele>
        <time>2017-12-12T10:35:44Z</time>
      </trkpt>
      <trkpt lat="45.96465" lon="4.85106">
        <ele>268</ele>
        <time>2017-12-12T10:35:46Z</time>
      </trkpt>
      <trkpt lat="45.96465" lon="4.85111">
        <ele>268</ele>
        <time>2017-12-12T10:35:47Z</time>
      </trkpt>
      <trkpt lat="45.96464" lon="4.8512">
        <ele>268</ele>
        <time>2017-12-12T10:35:49Z</time>
      </trkpt>
      <trkpt lat="45.96463" lon="4.85124">
        <ele>268</ele>
        <time>2017-12-12T10:35:50Z</time>
      </trkpt>
      <trkpt lat="45.96461" lon="4.85133">
        <ele>268</ele>
        <time>2017-12-12T10:35:52Z</time>
      </trkpt>
      <trkpt lat="45.9646" lon="4.85137">
        <ele>268</ele>
        <time>2017-12-12T10:35:53Z</time>
      </trkpt>
      <trkpt lat="45.96457" lon="4.85146">
        <ele>268</ele>
        <time>2017-12-12T10:35:55Z</time>
      </trkpt>
      <trkpt lat="45.96456" lon="4.85151">
        <ele>268</ele>
        <time>2017-12-12T10:35:56Z</time>
      </trkpt>
      <trkpt lat="45.96454" lon="4.8516">
        <ele>268</ele>
        <time>2017-12-12T10:35:58Z</time>
      </trkpt>
      <trkpt lat="45.96453" lon="4.85165">
        <ele>268</ele>
        <time>2017-12-12T10:35:59Z</time>
      </trkpt>
      <trkpt lat="45.96452" lon="4.85175">
        <ele>269</ele>
        <time>2017-12-12T10:36:01Z</time>
      </trkpt>
      <trkpt lat="45.96451" lon="4.8518">
        <ele>269</ele>
        <time>2017-12-12T10:36:02Z</time>
      </trkpt>
      <trkpt lat="45.9645" lon="4.8519">
        <ele>269</ele>
        <time>2017-12-12T10:36:04Z</time>
      </trkpt>
      <trkpt lat="45.9645" lon="4.85196">
        <ele>269</ele>
        <time>2017-12-12T10:36:05Z</time>
      </trkpt>
      <trkpt lat="45.96449" lon="4.85206">
        <ele>269</ele>
        <time>2017-12-12T10:36:07Z</time>
      </trkpt>
      <trkpt lat="45.96449" lon="4.85211">
        <ele>269</ele>
        <time>2017-12-12T10:36:08Z</time>
      </trkpt>
      <trkpt lat="45.96449" lon="4.85222">
        <ele>269</ele>
        <time>2017-12-12T10:36:10Z</time>
      </trkpt>
      <trkpt lat="45.96449" lon="4.85227">
        <ele>269</ele>
        <time>2017-12-12T10:36:11Z</time>
      </trkpt>
      <trkpt lat="45.96449" lon="4.85237">
        <ele>269</ele>
        <time>2017-12-12T10:36:13Z</time>
      </trkpt>
      <trkpt lat="45.96449" lon="4.85242">
        <ele>269</ele>
        <time>2017-12-12T10:36:14Z</time>
      </trkpt>
      <trkpt lat="45.96449" lon="4.85252">
        <ele>270</ele>
        <time>2017-12-12T10:36:16Z</time>
      </trkpt>
      <trkpt lat="45.96449" lon="4.85258">
        <ele>270</ele>
        <time>2017-12-12T10:36:17Z</time>
      </trkpt>
      <trkpt lat="45.96449" lon="4.85269">
        <ele>270</ele>
        <time>2017-12-12T10:36:19Z</time>
      </trkpt>
      <trkpt lat="45.96449" lon="4.85274">
        <ele>270</ele>
        <time>2017-12-12T10:36:20Z</time>
      </trkpt>
      <trkpt lat="45.9645" lon="4.85285">
        <ele>270</ele>
        <time>2017-12-12T10:36:22Z</time>
      </trkpt>
      <trkpt lat="45.9645" lon="4.85291">
        <ele>270</ele>
        <time>2017-12-12T10:36:23Z</time>
      </trkpt>
      <trkpt lat="45.9645" lon="4.85302">
        <ele>270</ele>
        <time>2017-12-12T10:36:25Z</time>
      </trkpt>
      <trkpt lat="45.9645" lon="4.85307">
        <ele>271</ele>
        <time>2017-12-12T10:36:26Z</time>
      </trkpt>
      <trkpt lat="45.96451" lon="4.85318">
        <ele>271</ele>
        <time>2017-12-12T10:36:28Z</time>
      </trkpt>
      <trkpt lat="45.96451" lon="4.85323">
        <ele>271</ele>
        <time>2017-12-12T10:36:29Z</time>
      </trkpt>
      <trkpt lat="45.96452" lon="4.85333">
        <ele>271</ele>
        <time>2017-12-12T10:36:31Z</time>
      </trkpt>
      <trkpt lat="45.96453" lon="4.85339">
        <ele>272</ele>
        <time>2017-12-12T10:36:32Z</time>
      </trkpt>
      <trkpt lat="45.96455" lon="4.85351">
        <ele>272</ele>
        <time>2017-12-12T10:36:34Z</time>
      </trkpt>
      <trkpt lat="45.96456" lon="4.85357">
        <ele>272</ele>
        <time>2017-12-12T10:36:35Z</time>
      </trkpt>
      <trkpt lat="45.96457" lon="4.85369">
        <ele>272</ele>
        <time>2017-12-12T10:36:37Z</time>
      </trkpt>
      <trkpt lat="45.96458" lon="4.85375">
        <ele>272</ele>
        <time>2017-12-12T10:36:38Z</time>
      </trkpt>
      <trkpt lat="45.96459" lon="4.85385">
        <ele>272</ele>
        <time>2017-12-12T10:36:40Z</time>
      </trkpt>
      <trkpt lat="45.96459" lon="4.85389">
        <ele>272</ele>
        <time>2017-12-12T10:36:41Z</time>
      </trkpt>
      <trkpt lat="45.9646" lon="4.85398">
        <ele>272</ele>
        <time>2017-12-12T10:36:43Z</time>
      </trkpt>
      <trkpt lat="45.9646" lon="4.85403">
        <ele>272</ele>
        <time>2017-12-12T10:36:44Z</time>
      </trkpt>
      <trkpt lat="45.96461" lon="4.85414">
        <ele>272</ele>
        <time>2017-12-12T10:36:46Z</time>
      </trkpt>
      <trkpt lat="45.96461" lon="4.8542">
        <ele>272</ele>
        <time>2017-12-12T10:36:47Z</time>
      </trkpt>
      <trkpt lat="45.96462" lon="4.85432">
        <ele>272</ele>
        <time>2017-12-12T10:36:49Z</time>
      </trkpt>
      <trkpt lat="45.96463" lon="4.85438">
        <ele>272</ele>
        <time>2017-12-12T10:36:50Z</time>
      </trkpt>
      <trkpt lat="45.96462" lon="4.85446">
        <ele>272</ele>
        <time>2017-12-12T10:36:51Z</time>
      </trkpt>
      <trkpt lat="45.96463" lon="4.85453">
        <ele>272</ele>
        <time>2017-12-12T10:36:52Z</time>
      </trkpt>
      <trkpt lat="45.96463" lon="4.85461">
        <ele>272</ele>
        <time>2017-12-12T10:36:53Z</time>
      </trkpt>
      <trkpt lat="45.96463" lon="4.85467">
        <ele>272</ele>
        <time>2017-12-12T10:36:54Z</time>
      </trkpt>
      <trkpt lat="45.96463" lon="4.85474">
        <ele>272</ele>
        <time>2017-12-12T10:36:55Z</time>
      </trkpt>
      <trkpt lat="45.96462" lon="4.85482">
        <ele>272</ele>
        <time>2017-12-12T10:36:56Z</time>
      </trkpt>
      <trkpt lat="45.96461" lon="4.85489">
        <ele>272</ele>
        <time>2017-12-12T10:36:57Z</time>
      </trkpt>
      <trkpt lat="45.96462" lon="4.85495">
        <ele>272</ele>
        <time>2017-12-12T10:36:58Z</time>
      </trkpt>
      <trkpt lat="45.96463" lon="4.85508">
        <ele>272</ele>
        <time>2017-12-12T10:37:00Z</time>
      </trkpt>
      <trkpt lat="45.96462" lon="4.85513">
        <ele>272</ele>
        <time>2017-12-12T10:37:01Z</time>
      </trkpt>
      <trkpt lat="45.96462" lon="4.85519">
        <ele>272</ele>
        <time>2017-12-12T10:37:02Z</time>
      </trkpt>
      <trkpt lat="45.96462" lon="4.85526">
        <ele>272</ele>
        <time>2017-12-12T10:37:03Z</time>
      </trkpt>
      <trkpt lat="45.96462" lon="4.85537">
        <ele>272</ele>
        <time>2017-12-12T10:37:05Z</time>
      </trkpt>
      <trkpt lat="45.96463" lon="4.85544">
        <ele>272</ele>
        <time>2017-12-12T10:37:06Z</time>
      </trkpt>
      <trkpt lat="45.96462" lon="4.85556">
        <ele>271</ele>
        <time>2017-12-12T10:37:08Z</time>
      </trkpt>
      <trkpt lat="45.96462" lon="4.85563">
        <ele>271</ele>
        <time>2017-12-12T10:37:09Z</time>
      </trkpt>
      <trkpt lat="45.96463" lon="4.85575">
        <ele>271</ele>
        <time>2017-12-12T10:37:11Z</time>
      </trkpt>
      <trkpt lat="45.96463" lon="4.85581">
        <ele>271</ele>
        <time>2017-12-12T10:37:12Z</time>
      </trkpt>
      <trkpt lat="45.96464" lon="4.85593">
        <ele>271</ele>
        <time>2017-12-12T10:37:14Z</time>
      </trkpt>
      <trkpt lat="45.96465" lon="4.85598">
        <ele>271</ele>
        <time>2017-12-12T10:37:15Z</time>
      </trkpt>
      <trkpt lat="45.96465" lon="4.85605">
        <ele>271</ele>
        <time>2017-12-12T10:37:16Z</time>
      </trkpt>
      <trkpt lat="45.96466" lon="4.85612">
        <ele>271</ele>
        <time>2017-12-12T10:37:17Z</time>
      </trkpt>
      <trkpt lat="45.96466" lon="4.85619">
        <ele>271</ele>
        <time>2017-12-12T10:37:18Z</time>
      </trkpt>
      <trkpt lat="45.96468" lon="4.85626">
        <ele>271</ele>
        <time>2017-12-12T10:37:19Z</time>
      </trkpt>
      <trkpt lat="45.96469" lon="4.85638">
        <ele>271</ele>
        <time>2017-12-12T10:37:21Z</time>
      </trkpt>
      <trkpt lat="45.9647" lon="4.85644">
        <ele>271</ele>
        <time>2017-12-12T10:37:22Z</time>
      </trkpt>
      <trkpt lat="45.96473" lon="4.85655">
        <ele>271</ele>
        <time>2017-12-12T10:37:24Z</time>
      </trkpt>
      <trkpt lat="45.96475" lon="4.85661">
        <ele>271</ele>
        <time>2017-12-12T10:37:25Z</time>
      </trkpt>
      <trkpt lat="45.96478" lon="4.85672">
        <ele>272</ele>
        <time>2017-12-12T10:37:27Z</time>
      </trkpt>
      <trkpt lat="45.96478" lon="4.85678">
        <ele>272</ele>
        <time>2017-12-12T10:37:28Z</time>
      </trkpt>
      <trkpt lat="45.96478" lon="4.85684">
        <ele>272</ele>
        <time>2017-12-12T10:37:29Z</time>
      </trkpt>
      <trkpt lat="45.96479" lon="4.85691">
        <ele>272</ele>
        <time>2017-12-12T10:37:30Z</time>
      </trkpt>
      <trkpt lat="45.96481" lon="4.85703">
        <ele>272</ele>
        <time>2017-12-12T10:37:32Z</time>
      </trkpt>
      <trkpt lat="45.96482" lon="4.85709">
        <ele>272</ele>
        <time>2017-12-12T10:37:33Z</time>
      </trkpt>
      <trkpt lat="45.96483" lon="4.85722">
        <ele>272</ele>
        <time>2017-12-12T10:37:35Z</time>
      </trkpt>
      <trkpt lat="45.96483" lon="4.85728">
        <ele>273</ele>
        <time>2017-12-12T10:37:36Z</time>
      </trkpt>
      <trkpt lat="45.96484" lon="4.85735">
        <ele>273</ele>
        <time>2017-12-12T10:37:37Z</time>
      </trkpt>
      <trkpt lat="45.96485" lon="4.85741">
        <ele>273</ele>
        <time>2017-12-12T10:37:38Z</time>
      </trkpt>
      <trkpt lat="45.96487" lon="4.85748">
        <ele>273</ele>
        <time>2017-12-12T10:37:39Z</time>
      </trkpt>
      <trkpt lat="45.96488" lon="4.85756">
        <ele>274</ele>
        <time>2017-12-12T10:37:40Z</time>
      </trkpt>
      <trkpt lat="45.96489" lon="4.85763">
        <ele>274</ele>
        <time>2017-12-12T10:37:41Z</time>
      </trkpt>
      <trkpt lat="45.96491" lon="4.85769">
        <ele>274</ele>
        <time>2017-12-12T10:37:42Z</time>
      </trkpt>
      <trkpt lat="45.96493" lon="4.8578">
        <ele>274</ele>
        <time>2017-12-12T10:37:44Z</time>
      </trkpt>
      <trkpt lat="45.96494" lon="4.85787">
        <ele>274</ele>
        <time>2017-12-12T10:37:45Z</time>
      </trkpt>
      <trkpt lat="45.96496" lon="4.85795">
        <ele>274</ele>
        <time>2017-12-12T10:37:46Z</time>
      </trkpt>
      <trkpt lat="45.96497" lon="4.85801">
        <ele>274</ele>
        <time>2017-12-12T10:37:47Z</time>
      </trkpt>
      <trkpt lat="45.96498" lon="4.85813">
        <ele>274</ele>
        <time>2017-12-12T10:37:49Z</time>
      </trkpt>
      <trkpt lat="45.96499" lon="4.85818">
        <ele>274</ele>
        <time>2017-12-12T10:37:50Z</time>
      </trkpt>
      <trkpt lat="45.965" lon="4.85825">
        <ele>275</ele>
        <time>2017-12-12T10:37:51Z</time>
      </trkpt>
      <trkpt lat="45.96501" lon="4.85832">
        <ele>275</ele>
        <time>2017-12-12T10:37:52Z</time>
      </trkpt>
      <trkpt lat="45.96501" lon="4.85838">
        <ele>275</ele>
        <time>2017-12-12T10:37:53Z</time>
      </trkpt>
      <trkpt lat="45.96502" lon="4.85846">
        <ele>275</ele>
        <time>2017-12-12T10:37:54Z</time>
      </trkpt>
      <trkpt lat="45.96502" lon="4.85858">
        <ele>275</ele>
        <time>2017-12-12T10:37:56Z</time>
      </trkpt>
      <trkpt lat="45.96502" lon="4.85864">
        <ele>275</ele>
        <time>2017-12-12T10:37:57Z</time>
      </trkpt>
      <trkpt lat="45.96503" lon="4.85876">
        <ele>275</ele>
        <time>2017-12-12T10:37:59Z</time>
      </trkpt>
      <trkpt lat="45.96503" lon="4.85881">
        <ele>275</ele>
        <time>2017-12-12T10:38:00Z</time>
      </trkpt>
      <trkpt lat="45.96506" lon="4.85894">
        <ele>275</ele>
        <time>2017-12-12T10:38:02Z</time>
      </trkpt>
      <trkpt lat="45.96507" lon="4.85899">
        <ele>275</ele>
        <time>2017-12-12T10:38:03Z</time>
      </trkpt>
      <trkpt lat="45.9651" lon="4.85911">
        <ele>274</ele>
        <time>2017-12-12T10:38:05Z</time>
      </trkpt>
      <trkpt lat="45.96511" lon="4.85917">
        <ele>274</ele>
        <time>2017-12-12T10:38:06Z</time>
      </trkpt>
      <trkpt lat="45.96515" lon="4.85929">
        <ele>275</ele>
        <time>2017-12-12T10:38:08Z</time>
      </trkpt>
      <trkpt lat="45.96517" lon="4.85935">
        <ele>275</ele>
        <time>2017-12-12T10:38:09Z</time>
      </trkpt>
      <trkpt lat="45.9652" lon="4.85941">
        <ele>275</ele>
        <time>2017-12-12T10:38:10Z</time>
      </trkpt>
      <trkpt lat="45.96523" lon="4.85946">
        <ele>275</ele>
        <time>2017-12-12T10:38:11Z</time>
      </trkpt>
      <trkpt lat="45.96526" lon="4.85958">
        <ele>275</ele>
        <time>2017-12-12T10:38:13Z</time>
      </trkpt>
      <trkpt lat="45.96528" lon="4.85962">
        <ele>275</ele>
        <time>2017-12-12T10:38:14Z</time>
      </trkpt>
      <trkpt lat="45.96532" lon="4.85972">
        <ele>275</ele>
        <time>2017-12-12T10:38:16Z</time>
      </trkpt>
      <trkpt lat="45.96535" lon="4.85976">
        <ele>275</ele>
        <time>2017-12-12T10:38:17Z</time>
      </trkpt>
      <trkpt lat="45.9654" lon="4.85986">
        <ele>275</ele>
        <time>2017-12-12T10:38:19Z</time>
      </trkpt>
      <trkpt lat="45.96543" lon="4.8599">
        <ele>275</ele>
        <time>2017-12-12T10:38:20Z</time>
      </trkpt>
      <trkpt lat="45.96548" lon="4.86">
        <ele>276</ele>
        <time>2017-12-12T10:38:22Z</time>
      </trkpt>
      <trkpt lat="45.96551" lon="4.86004">
        <ele>276</ele>
        <time>2017-12-12T10:38:23Z</time>
      </trkpt>
      <trkpt lat="45.96556" lon="4.86014">
        <ele>276</ele>
        <time>2017-12-12T10:38:25Z</time>
      </trkpt>
      <trkpt lat="45.96559" lon="4.86019">
        <ele>276</ele>
        <time>2017-12-12T10:38:26Z</time>
      </trkpt>
      <trkpt lat="45.96564" lon="4.86029">
        <ele>276</ele>
        <time>2017-12-12T10:38:28Z</time>
      </trkpt>
      <trkpt lat="45.96566" lon="4.86034">
        <ele>276</ele>
        <time>2017-12-12T10:38:29Z</time>
      </trkpt>
      <trkpt lat="45.96571" lon="4.86043">
        <ele>276</ele>
        <time>2017-12-12T10:38:31Z</time>
      </trkpt>
      <trkpt lat="45.96574" lon="4.86048">
        <ele>276</ele>
        <time>2017-12-12T10:38:32Z</time>
      </trkpt>
      <trkpt lat="45.96578" lon="4.86058">
        <ele>277</ele>
        <time>2017-12-12T10:38:34Z</time>
      </trkpt>
      <trkpt lat="45.9658" lon="4.86063">
        <ele>277</ele>
        <time>2017-12-12T10:38:35Z</time>
      </trkpt>
      <trkpt lat="45.96584" lon="4.86072">
        <ele>279</ele>
        <time>2017-12-12T10:38:37Z</time>
      </trkpt>
      <trkpt lat="45.96586" lon="4.86078">
        <ele>279</ele>
        <time>2017-12-12T10:38:38Z</time>
      </trkpt>
      <trkpt lat="45.9659" lon="4.86088">
        <ele>279</ele>
        <time>2017-12-12T10:38:40Z</time>
      </trkpt>
      <trkpt lat="45.96592" lon="4.86094">
        <ele>280</ele>
        <time>2017-12-12T10:38:41Z</time>
      </trkpt>
      <trkpt lat="45.96594" lon="4.86105">
        <ele>280</ele>
        <time>2017-12-12T10:38:43Z</time>
      </trkpt>
      <trkpt lat="45.96594" lon="4.8611">
        <ele>281</ele>
        <time>2017-12-12T10:38:44Z</time>
      </trkpt>
      <trkpt lat="45.96594" lon="4.86121">
        <ele>281</ele>
        <time>2017-12-12T10:38:46Z</time>
      </trkpt>
      <trkpt lat="45.96594" lon="4.86127">
        <ele>281</ele>
        <time>2017-12-12T10:38:47Z</time>
      </trkpt>
      <trkpt lat="45.96593" lon="4.86138">
        <ele>281</ele>
        <time>2017-12-12T10:38:49Z</time>
      </trkpt>
      <trkpt lat="45.96592" lon="4.86143">
        <ele>281</ele>
        <time>2017-12-12T10:38:50Z</time>
      </trkpt>
      <trkpt lat="45.96591" lon="4.86155">
        <ele>281</ele>
        <time>2017-12-12T10:38:52Z</time>
      </trkpt>
      <trkpt lat="45.96591" lon="4.8616">
        <ele>281</ele>
        <time>2017-12-12T10:38:53Z</time>
      </trkpt>
      <trkpt lat="45.96589" lon="4.86172">
        <ele>281</ele>
        <time>2017-12-12T10:38:55Z</time>
      </trkpt>
      <trkpt lat="45.96589" lon="4.86177">
        <ele>281</ele>
        <time>2017-12-12T10:38:56Z</time>
      </trkpt>
      <trkpt lat="45.96587" lon="4.86188">
        <ele>281</ele>
        <time>2017-12-12T10:38:58Z</time>
      </trkpt>
      <trkpt lat="45.96586" lon="4.86192">
        <ele>282</ele>
        <time>2017-12-12T10:38:59Z</time>
      </trkpt>
      <trkpt lat="45.96584" lon="4.86203">
        <ele>282</ele>
        <time>2017-12-12T10:39:01Z</time>
      </trkpt>
      <trkpt lat="45.96583" lon="4.86207">
        <ele>280</ele>
        <time>2017-12-12T10:39:02Z</time>
      </trkpt>
      <trkpt lat="45.96582" lon="4.86217">
        <ele>280</ele>
        <time>2017-12-12T10:39:04Z</time>
      </trkpt>
      <trkpt lat="45.96581" lon="4.86222">
        <ele>280</ele>
        <time>2017-12-12T10:39:05Z</time>
      </trkpt>
      <trkpt lat="45.9658" lon="4.86231">
        <ele>280</ele>
        <time>2017-12-12T10:39:07Z</time>
      </trkpt>
      <trkpt lat="45.96579" lon="4.86235">
        <ele>280</ele>
        <time>2017-12-12T10:39:08Z</time>
      </trkpt>
      <trkpt lat="45.96578" lon="4.86244">
        <ele>280</ele>
        <time>2017-12-12T10:39:10Z</time>
      </trkpt>
      <trkpt lat="45.96578" lon="4.86249">
        <ele>281</ele>
        <time>2017-12-12T10:39:11Z</time>
      </trkpt>
      <trkpt lat="45.96577" lon="4.86258">
        <ele>281</ele>
        <time>2017-12-12T10:39:13Z</time>
      </trkpt>
      <trkpt lat="45.96577" lon="4.86262">
        <ele>281</ele>
        <time>2017-12-12T10:39:14Z</time>
      </trkpt>
      <trkpt lat="45.96577" lon="4.86272">
        <ele>282</ele>
        <time>2017-12-12T10:39:16Z</time>
      </trkpt>
      <trkpt lat="45.96576" lon="4.86276">
        <ele>282</ele>
        <time>2017-12-12T10:39:17Z</time>
      </trkpt>
      <trkpt lat="45.96576" lon="4.86285">
        <ele>282</ele>
        <time>2017-12-12T10:39:19Z</time>
      </trkpt>
      <trkpt lat="45.96576" lon="4.86289">
        <ele>282</ele>
        <time>2017-12-12T10:39:20Z</time>
      </trkpt>
      <trkpt lat="45.96576" lon="4.86302">
        <ele>283</ele>
        <time>2017-12-12T10:39:23Z</time>
      </trkpt>
      <trkpt lat="45.96576" lon="4.86306">
        <ele>283</ele>
        <time>2017-12-12T10:39:24Z</time>
      </trkpt>
      <trkpt lat="45.96576" lon="4.86318">
        <ele>283</ele>
        <time>2017-12-12T10:39:27Z</time>
      </trkpt>
      <trkpt lat="45.96576" lon="4.86322">
        <ele>284</ele>
        <time>2017-12-12T10:39:28Z</time>
      </trkpt>
      <trkpt lat="45.96575" lon="4.86335">
        <ele>285</ele>
        <time>2017-12-12T10:39:31Z</time>
      </trkpt>
      <trkpt lat="45.96574" lon="4.86339">
        <ele>285</ele>
        <time>2017-12-12T10:39:32Z</time>
      </trkpt>
      <trkpt lat="45.96573" lon="4.86348">
        <ele>285</ele>
        <time>2017-12-12T10:39:34Z</time>
      </trkpt>
      <trkpt lat="45.96573" lon="4.86353">
        <ele>285</ele>
        <time>2017-12-12T10:39:35Z</time>
      </trkpt>
      <trkpt lat="45.96572" lon="4.86364">
        <ele>286</ele>
        <time>2017-12-12T10:39:37Z</time>
      </trkpt>
      <trkpt lat="45.96572" lon="4.86368">
        <ele>286</ele>
        <time>2017-12-12T10:39:38Z</time>
      </trkpt>
      <trkpt lat="45.96572" lon="4.86378">
        <ele>286</ele>
        <time>2017-12-12T10:39:40Z</time>
      </trkpt>
      <trkpt lat="45.96572" lon="4.86382">
        <ele>286</ele>
        <time>2017-12-12T10:39:41Z</time>
      </trkpt>
      <trkpt lat="45.96572" lon="4.86392">
        <ele>287</ele>
        <time>2017-12-12T10:39:43Z</time>
      </trkpt>
      <trkpt lat="45.96572" lon="4.86396">
        <ele>287</ele>
        <time>2017-12-12T10:39:44Z</time>
      </trkpt>
      <trkpt lat="45.96573" lon="4.86407">
        <ele>288</ele>
        <time>2017-12-12T10:39:46Z</time>
      </trkpt>
      <trkpt lat="45.96573" lon="4.86412">
        <ele>288</ele>
        <time>2017-12-12T10:39:47Z</time>
      </trkpt>
      <trkpt lat="45.96573" lon="4.86422">
        <ele>289</ele>
        <time>2017-12-12T10:39:49Z</time>
      </trkpt>
      <trkpt lat="45.96574" lon="4.86428">
        <ele>289</ele>
        <time>2017-12-12T10:39:50Z</time>
      </trkpt>
      <trkpt lat="45.96575" lon="4.86438">
        <ele>289</ele>
        <time>2017-12-12T10:39:52Z</time>
      </trkpt>
      <trkpt lat="45.96575" lon="4.86443">
        <ele>289</ele>
        <time>2017-12-12T10:39:53Z</time>
      </trkpt>
      <trkpt lat="45.96576" lon="4.86452">
        <ele>289</ele>
        <time>2017-12-12T10:39:55Z</time>
      </trkpt>
      <trkpt lat="45.96576" lon="4.86457">
        <ele>289</ele>
        <time>2017-12-12T10:39:56Z</time>
      </trkpt>
      <trkpt lat="45.96576" lon="4.86467">
        <ele>289</ele>
        <time>2017-12-12T10:39:58Z</time>
      </trkpt>
      <trkpt lat="45.96577" lon="4.86472">
        <ele>289</ele>
        <time>2017-12-12T10:39:59Z</time>
      </trkpt>
      <trkpt lat="45.9658" lon="4.86482">
        <ele>290</ele>
        <time>2017-12-12T10:40:01Z</time>
      </trkpt>
      <trkpt lat="45.96581" lon="4.86487">
        <ele>290</ele>
        <time>2017-12-12T10:40:02Z</time>
      </trkpt>
      <trkpt lat="45.96585" lon="4.86496">
        <ele>292</ele>
        <time>2017-12-12T10:40:04Z</time>
      </trkpt>
      <trkpt lat="45.96587" lon="4.86501">
        <ele>292</ele>
        <time>2017-12-12T10:40:05Z</time>
      </trkpt>
      <trkpt lat="45.96592" lon="4.86509">
        <ele>292</ele>
        <time>2017-12-12T10:40:07Z</time>
      </trkpt>
      <trkpt lat="45.96595" lon="4.86512">
        <ele>291</ele>
        <time>2017-12-12T10:40:08Z</time>
      </trkpt>
      <trkpt lat="45.96601" lon="4.86519">
        <ele>291</ele>
        <time>2017-12-12T10:40:10Z</time>
      </trkpt>
      <trkpt lat="45.96603" lon="4.86522">
        <ele>291</ele>
        <time>2017-12-12T10:40:11Z</time>
      </trkpt>
      <trkpt lat="45.96609" lon="4.86529">
        <ele>291</ele>
        <time>2017-12-12T10:40:13Z</time>
      </trkpt>
      <trkpt lat="45.96612" lon="4.86532">
        <ele>291</ele>
        <time>2017-12-12T10:40:14Z</time>
      </trkpt>
      <trkpt lat="45.96619" lon="4.86538">
        <ele>291</ele>
        <time>2017-12-12T10:40:16Z</time>
      </trkpt>
      <trkpt lat="45.96622" lon="4.86541">
        <ele>291</ele>
        <time>2017-12-12T10:40:17Z</time>
      </trkpt>
      <trkpt lat="45.96628" lon="4.86547">
        <ele>291</ele>
        <time>2017-12-12T10:40:19Z</time>
      </trkpt>
      <trkpt lat="45.96632" lon="4.86549">
        <ele>291</ele>
        <time>2017-12-12T10:40:20Z</time>
      </trkpt>
      <trkpt lat="45.96638" lon="4.86556">
        <ele>291</ele>
        <time>2017-12-12T10:40:22Z</time>
      </trkpt>
      <trkpt lat="45.96642" lon="4.86559">
        <ele>291</ele>
        <time>2017-12-12T10:40:23Z</time>
      </trkpt>
      <trkpt lat="45.96649" lon="4.86565">
        <ele>290</ele>
        <time>2017-12-12T10:40:25Z</time>
      </trkpt>
      <trkpt lat="45.96652" lon="4.86568">
        <ele>290</ele>
        <time>2017-12-12T10:40:26Z</time>
      </trkpt>
      <trkpt lat="45.96658" lon="4.86575">
        <ele>290</ele>
        <time>2017-12-12T10:40:28Z</time>
      </trkpt>
      <trkpt lat="45.96662" lon="4.86578">
        <ele>290</ele>
        <time>2017-12-12T10:40:29Z</time>
      </trkpt>
      <trkpt lat="45.96668" lon="4.86584">
        <ele>290</ele>
        <time>2017-12-12T10:40:31Z</time>
      </trkpt>
      <trkpt lat="45.96672" lon="4.86588">
        <ele>290</ele>
        <time>2017-12-12T10:40:32Z</time>
      </trkpt>
      <trkpt lat="45.96679" lon="4.86594">
        <ele>290</ele>
        <time>2017-12-12T10:40:34Z</time>
      </trkpt>
      <trkpt lat="45.96683" lon="4.86597">
        <ele>290</ele>
        <time>2017-12-12T10:40:35Z</time>
      </trkpt>
      <trkpt lat="45.9669" lon="4.86604">
        <ele>290</ele>
        <time>2017-12-12T10:40:37Z</time>
      </trkpt>
      <trkpt lat="45.96693" lon="4.86608">
        <ele>290</ele>
        <time>2017-12-12T10:40:38Z</time>
      </trkpt>
      <trkpt lat="45.967" lon="4.86614">
        <ele>290</ele>
        <time>2017-12-12T10:40:40Z</time>
      </trkpt>
      <trkpt lat="45.96703" lon="4.86617">
        <ele>290</ele>
        <time>2017-12-12T10:40:41Z</time>
      </trkpt>
      <trkpt lat="45.96711" lon="4.86623">
        <ele>290</ele>
        <time>2017-12-12T10:40:43Z</time>
      </trkpt>
      <trkpt lat="45.96715" lon="4.86626">
        <ele>290</ele>
        <time>2017-12-12T10:40:44Z</time>
      </trkpt>
      <trkpt lat="45.96723" lon="4.8663">
        <ele>290</ele>
        <time>2017-12-12T10:40:46Z</time>
      </trkpt>
      <trkpt lat="45.96727" lon="4.86633">
        <ele>290</ele>
        <time>2017-12-12T10:40:47Z</time>
      </trkpt>
      <trkpt lat="45.96734" lon="4.8664">
        <ele>290</ele>
        <time>2017-12-12T10:40:49Z</time>
      </trkpt>
      <trkpt lat="45.96737" lon="4.86646">
        <ele>290</ele>
        <time>2017-12-12T10:40:50Z</time>
      </trkpt>
      <trkpt lat="45.96738" lon="4.86653">
        <ele>290</ele>
        <time>2017-12-12T10:40:51Z</time>
      </trkpt>
      <trkpt lat="45.96736" lon="4.86659">
        <ele>290</ele>
        <time>2017-12-12T10:40:52Z</time>
      </trkpt>
      <trkpt lat="45.96735" lon="4.86666">
        <ele>290</ele>
        <time>2017-12-12T10:40:53Z</time>
      </trkpt>
      <trkpt lat="45.96732" lon="4.86672">
        <ele>290</ele>
        <time>2017-12-12T10:40:54Z</time>
      </trkpt>
      <trkpt lat="45.96728" lon="4.86678">
        <ele>289</ele>
        <time>2017-12-12T10:40:55Z</time>
      </trkpt>
      <trkpt lat="45.96726" lon="4.86683">
        <ele>289</ele>
        <time>2017-12-12T10:40:56Z</time>
      </trkpt>
      <trkpt lat="45.96721" lon="4.86689">
        <ele>289</ele>
        <time>2017-12-12T10:40:57Z</time>
      </trkpt>
      <trkpt lat="45.96718" lon="4.86695">
        <ele>289</ele>
        <time>2017-12-12T10:40:58Z</time>
      </trkpt>
      <trkpt lat="45.96714" lon="4.86701">
        <ele>289</ele>
        <time>2017-12-12T10:40:59Z</time>
      </trkpt>
      <trkpt lat="45.96711" lon="4.86707">
        <ele>289</ele>
        <time>2017-12-12T10:41:00Z</time>
      </trkpt>
      <trkpt lat="45.96707" lon="4.86712">
        <ele>289</ele>
        <time>2017-12-12T10:41:01Z</time>
      </trkpt>
      <trkpt lat="45.96703" lon="4.86718">
        <ele>289</ele>
        <time>2017-12-12T10:41:02Z</time>
      </trkpt>
      <trkpt lat="45.96699" lon="4.86723">
        <ele>289</ele>
        <time>2017-12-12T10:41:03Z</time>
      </trkpt>
      <trkpt lat="45.96696" lon="4.86728">
        <ele>289</ele>
        <time>2017-12-12T10:41:04Z</time>
      </trkpt>
      <trkpt lat="45.96693" lon="4.86734">
        <ele>289</ele>
        <time>2017-12-12T10:41:05Z</time>
      </trkpt>
      <trkpt lat="45.9669" lon="4.86738">
        <ele>289</ele>
        <time>2017-12-12T10:41:06Z</time>
      </trkpt>
      <trkpt lat="45.96688" lon="4.86744">
        <ele>289</ele>
        <time>2017-12-12T10:41:07Z</time>
      </trkpt>
      <trkpt lat="45.96685" lon="4.86749">
        <ele>289</ele>
        <time>2017-12-12T10:41:08Z</time>
      </trkpt>
      <trkpt lat="45.96682" lon="4.86755">
        <ele>289</ele>
        <time>2017-12-12T10:41:09Z</time>
      </trkpt>
      <trkpt lat="45.96679" lon="4.86761">
        <ele>289</ele>
        <time>2017-12-12T10:41:10Z</time>
      </trkpt>
      <trkpt lat="45.96676" lon="4.86766">
        <ele>289</ele>
        <time>2017-12-12T10:41:11Z</time>
      </trkpt>
      <trkpt lat="45.96672" lon="4.86772">
        <ele>289</ele>
        <time>2017-12-12T10:41:12Z</time>
      </trkpt>
      <trkpt lat="45.96669" lon="4.86778">
        <ele>289</ele>
        <time>2017-12-12T10:41:13Z</time>
      </trkpt>
      <trkpt lat="45.96666" lon="4.86783">
        <ele>288</ele>
        <time>2017-12-12T10:41:14Z</time>
      </trkpt>
      <trkpt lat="45.96662" lon="4.86789">
        <ele>288</ele>
        <time>2017-12-12T10:41:15Z</time>
      </trkpt>
      <trkpt lat="45.96658" lon="4.86794">
        <ele>288</ele>
        <time>2017-12-12T10:41:16Z</time>
      </trkpt>
      <trkpt lat="45.96655" lon="4.86799">
        <ele>288</ele>
        <time>2017-12-12T10:41:17Z</time>
      </trkpt>
      <trkpt lat="45.96651" lon="4.86805">
        <ele>288</ele>
        <time>2017-12-12T10:41:18Z</time>
      </trkpt>
      <trkpt lat="45.96648" lon="4.8681">
        <ele>288</ele>
        <time>2017-12-12T10:41:19Z</time>
      </trkpt>
      <trkpt lat="45.96645" lon="4.86815">
        <ele>288</ele>
        <time>2017-12-12T10:41:20Z</time>
      </trkpt>
      <trkpt lat="45.9664" lon="4.86825">
        <ele>288</ele>
        <time>2017-12-12T10:41:22Z</time>
      </trkpt>
      <trkpt lat="45.96635" lon="4.86831">
        <ele>288</ele>
        <time>2017-12-12T10:41:23Z</time>
      </trkpt>
      <trkpt lat="45.96632" lon="4.86836">
        <ele>287</ele>
        <time>2017-12-12T10:41:24Z</time>
      </trkpt>
      <trkpt lat="45.96629" lon="4.86841">
        <ele>287</ele>
        <time>2017-12-12T10:41:25Z</time>
      </trkpt>
      <trkpt lat="45.96626" lon="4.86847">
        <ele>287</ele>
        <time>2017-12-12T10:41:26Z</time>
      </trkpt>
      <trkpt lat="45.96622" lon="4.86851">
        <ele>287</ele>
        <time>2017-12-12T10:41:27Z</time>
      </trkpt>
      <trkpt lat="45.96619" lon="4.86857">
        <ele>287</ele>
        <time>2017-12-12T10:41:28Z</time>
      </trkpt>
      <trkpt lat="45.96614" lon="4.86863">
        <ele>287</ele>
        <time>2017-12-12T10:41:29Z</time>
      </trkpt>
      <trkpt lat="45.96612" lon="4.8687">
        <ele>287</ele>
        <time>2017-12-12T10:41:30Z</time>
      </trkpt>
      <trkpt lat="45.96608" lon="4.86876">
        <ele>287</ele>
        <time>2017-12-12T10:41:31Z</time>
      </trkpt>
      <trkpt lat="45.96604" lon="4.86882">
        <ele>287</ele>
        <time>2017-12-12T10:41:32Z</time>
      </trkpt>
      <trkpt lat="45.966" lon="4.86888">
        <ele>287</ele>
        <time>2017-12-12T10:41:33Z</time>
      </trkpt>
      <trkpt lat="45.96597" lon="4.86893">
        <ele>286</ele>
        <time>2017-12-12T10:41:34Z</time>
      </trkpt>
      <trkpt lat="45.96594" lon="4.86898">
        <ele>286</ele>
        <time>2017-12-12T10:41:35Z</time>
      </trkpt>
      <trkpt lat="45.9659" lon="4.86903">
        <ele>286</ele>
        <time>2017-12-12T10:41:36Z</time>
      </trkpt>
      <trkpt lat="45.96588" lon="4.86909">
        <ele>286</ele>
        <time>2017-12-12T10:41:37Z</time>
      </trkpt>
      <trkpt lat="45.96584" lon="4.86917">
        <ele>285</ele>
        <time>2017-12-12T10:41:38Z</time>
      </trkpt>
      <trkpt lat="45.96581" lon="4.86922">
        <ele>285</ele>
        <time>2017-12-12T10:41:39Z</time>
      </trkpt>
      <trkpt lat="45.96578" lon="4.86927">
        <ele>284</ele>
        <time>2017-12-12T10:41:40Z</time>
      </trkpt>
      <trkpt lat="45.96574" lon="4.86934">
        <ele>284</ele>
        <time>2017-12-12T10:41:41Z</time>
      </trkpt>
      <trkpt lat="45.9657" lon="4.86939">
        <ele>284</ele>
        <time>2017-12-12T10:41:42Z</time>
      </trkpt>
      <trkpt lat="45.96567" lon="4.86945">
        <ele>284</ele>
        <time>2017-12-12T10:41:43Z</time>
      </trkpt>
      <trkpt lat="45.96563" lon="4.86951">
        <ele>283</ele>
        <time>2017-12-12T10:41:44Z</time>
      </trkpt>
      <trkpt lat="45.96559" lon="4.86957">
        <ele>283</ele>
        <time>2017-12-12T10:41:45Z</time>
      </trkpt>
      <trkpt lat="45.96557" lon="4.86963">
        <ele>283</ele>
        <time>2017-12-12T10:41:46Z</time>
      </trkpt>
      <trkpt lat="45.96552" lon="4.86969">
        <ele>283</ele>
        <time>2017-12-12T10:41:47Z</time>
      </trkpt>
      <trkpt lat="45.96549" lon="4.86976">
        <ele>283</ele>
        <time>2017-12-12T10:41:48Z</time>
      </trkpt>
      <trkpt lat="45.96546" lon="4.86981">
        <ele>283</ele>
        <time>2017-12-12T10:41:49Z</time>
      </trkpt>
      <trkpt lat="45.9654" lon="4.86991">
        <ele>283</ele>
        <time>2017-12-12T10:41:51Z</time>
      </trkpt>
      <trkpt lat="45.96539" lon="4.86997">
        <ele>283</ele>
        <time>2017-12-12T10:41:52Z</time>
      </trkpt>
      <trkpt lat="45.9654" lon="4.87009">
        <ele>283</ele>
        <time>2017-12-12T10:41:54Z</time>
      </trkpt>
      <trkpt lat="45.96542" lon="4.87014">
        <ele>283</ele>
        <time>2017-12-12T10:41:55Z</time>
      </trkpt>
      <trkpt lat="45.96546" lon="4.87021">
        <ele>283</ele>
        <time>2017-12-12T10:41:57Z</time>
      </trkpt>
      <trkpt lat="45.96548" lon="4.87024">
        <ele>283</ele>
        <time>2017-12-12T10:41:58Z</time>
      </trkpt>
      <trkpt lat="45.96552" lon="4.87031">
        <ele>283</ele>
        <time>2017-12-12T10:42:00Z</time>
      </trkpt>
      <trkpt lat="45.96554" lon="4.87035">
        <ele>283</ele>
        <time>2017-12-12T10:42:01Z</time>
      </trkpt>
      <trkpt lat="45.96555" lon="4.87047">
        <ele>283</ele>
        <time>2017-12-12T10:42:03Z</time>
      </trkpt>
      <trkpt lat="45.96556" lon="4.87053">
        <ele>283</ele>
        <time>2017-12-12T10:42:04Z</time>
      </trkpt>
      <trkpt lat="45.96557" lon="4.87062">
        <ele>283</ele>
        <time>2017-12-12T10:42:06Z</time>
      </trkpt>
      <trkpt lat="45.96558" lon="4.87066">
        <ele>283</ele>
        <time>2017-12-12T10:42:07Z</time>
      </trkpt>
      <trkpt lat="45.96554" lon="4.87074">
        <ele>283</ele>
        <time>2017-12-12T10:42:11Z</time>
      </trkpt>
      <trkpt lat="45.96551" lon="4.87075">
        <ele>283</ele>
        <time>2017-12-12T10:42:12Z</time>
      </trkpt>
      <trkpt lat="45.96544" lon="4.87075">
        <ele>283</ele>
        <time>2017-12-12T10:42:15Z</time>
      </trkpt>
      <trkpt lat="45.9654" lon="4.87076">
        <ele>283</ele>
        <time>2017-12-12T10:42:16Z</time>
      </trkpt>
      <trkpt lat="45.96536" lon="4.87066">
        <ele>283</ele>
        <time>2017-12-12T10:42:19Z</time>
      </trkpt>
      <trkpt lat="45.96535" lon="4.87062">
        <ele>283</ele>
        <time>2017-12-12T10:42:20Z</time>
      </trkpt>
      <trkpt lat="45.9653" lon="4.87054">
        <ele>283</ele>
        <time>2017-12-12T10:42:23Z</time>
      </trkpt>
      <trkpt lat="45.96528" lon="4.87051">
        <ele>283</ele>
        <time>2017-12-12T10:42:24Z</time>
      </trkpt>
      <trkpt lat="45.96523" lon="4.87044">
        <ele>283</ele>
        <time>2017-12-12T10:42:26Z</time>
      </trkpt>
      <trkpt lat="45.96522" lon="4.87041">
        <ele>283</ele>
        <time>2017-12-12T10:42:27Z</time>
      </trkpt>
      <trkpt lat="45.9652" lon="4.8703">
        <ele>283</ele>
        <time>2017-12-12T10:42:30Z</time>
      </trkpt>
      <trkpt lat="45.96521" lon="4.87026">
        <ele>283</ele>
        <time>2017-12-12T10:42:31Z</time>
      </trkpt>
      <trkpt lat="45.96527" lon="4.87018">
        <ele>283</ele>
        <time>2017-12-12T10:42:33Z</time>
      </trkpt>
      <trkpt lat="45.9653" lon="4.87015">
        <ele>283</ele>
        <time>2017-12-12T10:42:34Z</time>
      </trkpt>
      <trkpt lat="45.96536" lon="4.87008">
        <ele>283</ele>
        <time>2017-12-12T10:42:36Z</time>
      </trkpt>
      <trkpt lat="45.96539" lon="4.87004">
        <ele>283</ele>
        <time>2017-12-12T10:42:37Z</time>
      </trkpt>
      <trkpt lat="45.96543" lon="4.86996">
        <ele>283</ele>
        <time>2017-12-12T10:42:39Z</time>
      </trkpt>
      <trkpt lat="45.96545" lon="4.86992">
        <ele>283</ele>
        <time>2017-12-12T10:42:40Z</time>
      </trkpt>
      <trkpt lat="45.96549" lon="4.86984">
        <ele>283</ele>
        <time>2017-12-12T10:42:42Z</time>
      </trkpt>
      <trkpt lat="45.96551" lon="4.86979">
        <ele>283</ele>
        <time>2017-12-12T10:42:43Z</time>
      </trkpt>
      <trkpt lat="45.96557" lon="4.8697">
        <ele>283</ele>
        <time>2017-12-12T10:42:45Z</time>
      </trkpt>
      <trkpt lat="45.9656" lon="4.86966">
        <ele>283</ele>
        <time>2017-12-12T10:42:46Z</time>
      </trkpt>
      <trkpt lat="45.96566" lon="4.86957">
        <ele>284</ele>
        <time>2017-12-12T10:42:48Z</time>
      </trkpt>
      <trkpt lat="45.96569" lon="4.86952">
        <ele>284</ele>
        <time>2017-12-12T10:42:49Z</time>
      </trkpt>
      <trkpt lat="45.96574" lon="4.86943">
        <ele>284</ele>
        <time>2017-12-12T10:42:51Z</time>
      </trkpt>
      <trkpt lat="45.96576" lon="4.86938">
        <ele>284</ele>
        <time>2017-12-12T10:42:52Z</time>
      </trkpt>
      <trkpt lat="45.96579" lon="4.86934">
        <ele>284</ele>
        <time>2017-12-12T10:42:53Z</time>
      </trkpt>
      <trkpt lat="45.96582" lon="4.86928">
        <ele>284</ele>
        <time>2017-12-12T10:42:54Z</time>
      </trkpt>
      <trkpt lat="45.96585" lon="4.86922">
        <ele>285</ele>
        <time>2017-12-12T10:42:55Z</time>
      </trkpt>
      <trkpt lat="45.96588" lon="4.86917">
        <ele>285</ele>
        <time>2017-12-12T10:42:56Z</time>
      </trkpt>
      <trkpt lat="45.96591" lon="4.86912">
        <ele>286</ele>
        <time>2017-12-12T10:42:57Z</time>
      </trkpt>
      <trkpt lat="45.96593" lon="4.86907">
        <ele>286</ele>
        <time>2017-12-12T10:42:58Z</time>
      </trkpt>
      <trkpt lat="45.96599" lon="4.86898">
        <ele>286</ele>
        <time>2017-12-12T10:43:00Z</time>
      </trkpt>
      <trkpt lat="45.96602" lon="4.86895">
        <ele>286</ele>
        <time>2017-12-12T10:43:01Z</time>
      </trkpt>
      <trkpt lat="45.96606" lon="4.86887">
        <ele>287</ele>
        <time>2017-12-12T10:43:03Z</time>
      </trkpt>
      <trkpt lat="45.96608" lon="4.86882">
        <ele>287</ele>
        <time>2017-12-12T10:43:04Z</time>
      </trkpt>
      <trkpt lat="45.96613" lon="4.86873">
        <ele>287</ele>
        <time>2017-12-12T10:43:06Z</time>
      </trkpt>
      <trkpt lat="45.96616" lon="4.8687">
        <ele>287</ele>
        <time>2017-12-12T10:43:07Z</time>
      </trkpt>
      <trkpt lat="45.96618" lon="4.86863">
        <ele>287</ele>
        <time>2017-12-12T10:43:08Z</time>
      </trkpt>
      <trkpt lat="45.96621" lon="4.86858">
        <ele>287</ele>
        <time>2017-12-12T10:43:09Z</time>
      </trkpt>
      <trkpt lat="45.96625" lon="4.86849">
        <ele>287</ele>
        <time>2017-12-12T10:43:11Z</time>
      </trkpt>
      <trkpt lat="45.96627" lon="4.86845">
        <ele>287</ele>
        <time>2017-12-12T10:43:12Z</time>
      </trkpt>
      <trkpt lat="45.96631" lon="4.86838">
        <ele>287</ele>
        <time>2017-12-12T10:43:14Z</time>
      </trkpt>
      <trkpt lat="45.96633" lon="4.86835">
        <ele>287</ele>
        <time>2017-12-12T10:43:15Z</time>
      </trkpt>
      <trkpt lat="45.96637" lon="4.86828">
        <ele>288</ele>
        <time>2017-12-12T10:43:17Z</time>
      </trkpt>
      <trkpt lat="45.96639" lon="4.86824">
        <ele>288</ele>
        <time>2017-12-12T10:43:18Z</time>
      </trkpt>
      <trkpt lat="45.96644" lon="4.86816">
        <ele>288</ele>
        <time>2017-12-12T10:43:20Z</time>
      </trkpt>
      <trkpt lat="45.96646" lon="4.8681">
        <ele>288</ele>
        <time>2017-12-12T10:43:21Z</time>
      </trkpt>
      <trkpt lat="45.96649" lon="4.86805">
        <ele>288</ele>
        <time>2017-12-12T10:43:22Z</time>
      </trkpt>
      <trkpt lat="45.96652" lon="4.868">
        <ele>288</ele>
        <time>2017-12-12T10:43:23Z</time>
      </trkpt>
      <trkpt lat="45.96656" lon="4.86796">
        <ele>288</ele>
        <time>2017-12-12T10:43:24Z</time>
      </trkpt>
      <trkpt lat="45.96659" lon="4.86791">
        <ele>288</ele>
        <time>2017-12-12T10:43:25Z</time>
      </trkpt>
      <trkpt lat="45.96663" lon="4.86786">
        <ele>288</ele>
        <time>2017-12-12T10:43:26Z</time>
      </trkpt>
      <trkpt lat="45.96667" lon="4.86782">
        <ele>288</ele>
        <time>2017-12-12T10:43:27Z</time>
      </trkpt>
      <trkpt lat="45.96672" lon="4.86773">
        <ele>289</ele>
        <time>2017-12-12T10:43:29Z</time>
      </trkpt>
      <trkpt lat="45.96675" lon="4.8677">
        <ele>289</ele>
        <time>2017-12-12T10:43:30Z</time>
      </trkpt>
      <trkpt lat="45.96679" lon="4.86761">
        <ele>289</ele>
        <time>2017-12-12T10:43:32Z</time>
      </trkpt>
      <trkpt lat="45.96682" lon="4.86757">
        <ele>289</ele>
        <time>2017-12-12T10:43:33Z</time>
      </trkpt>
      <trkpt lat="45.96685" lon="4.86753">
        <ele>289</ele>
        <time>2017-12-12T10:43:34Z</time>
      </trkpt>
      <trkpt lat="45.96688" lon="4.86748">
        <ele>289</ele>
        <time>2017-12-12T10:43:35Z</time>
      </trkpt>
      <trkpt lat="45.96692" lon="4.86742">
        <ele>289</ele>
        <time>2017-12-12T10:43:36Z</time>
      </trkpt>
      <trkpt lat="45.96695" lon="4.86737">
        <ele>289</ele>
        <time>2017-12-12T10:43:37Z</time>
      </trkpt>
      <trkpt lat="45.96697" lon="4.86731">
        <ele>289</ele>
        <time>2017-12-12T10:43:38Z</time>
      </trkpt>
      <trkpt lat="45.96702" lon="4.86726">
        <ele>289</ele>
        <time>2017-12-12T10:43:39Z</time>
      </trkpt>
      <trkpt lat="45.96705" lon="4.86721">
        <ele>289</ele>
        <time>2017-12-12T10:43:40Z</time>
      </trkpt>
      <trkpt lat="45.96708" lon="4.86716">
        <ele>289</ele>
        <time>2017-12-12T10:43:41Z</time>
      </trkpt>
      <trkpt lat="45.96714" lon="4.86708">
        <ele>289</ele>
        <time>2017-12-12T10:43:43Z</time>
      </trkpt>
      <trkpt lat="45.96718" lon="4.86704">
        <ele>289</ele>
        <time>2017-12-12T10:43:44Z</time>
      </trkpt>
      <trkpt lat="45.96721" lon="4.86699">
        <ele>289</ele>
        <time>2017-12-12T10:43:45Z</time>
      </trkpt>
      <trkpt lat="45.96724" lon="4.86694">
        <ele>289</ele>
        <time>2017-12-12T10:43:46Z</time>
      </trkpt>
      <trkpt lat="45.96727" lon="4.86689">
        <ele>289</ele>
        <time>2017-12-12T10:43:47Z</time>
      </trkpt>
      <trkpt lat="45.9673" lon="4.86683">
        <ele>289</ele>
        <time>2017-12-12T10:43:48Z</time>
      </trkpt>
      <trkpt lat="45.96733" lon="4.86677">
        <ele>290</ele>
        <time>2017-12-12T10:43:49Z</time>
      </trkpt>
      <trkpt lat="45.96736" lon="4.86672">
        <ele>290</ele>
        <time>2017-12-12T10:43:50Z</time>
      </trkpt>
      <trkpt lat="45.96742" lon="4.86663">
        <ele>290</ele>
        <time>2017-12-12T10:43:52Z</time>
      </trkpt>
      <trkpt lat="45.96746" lon="4.86661">
        <ele>290</ele>
        <time>2017-12-12T10:43:53Z</time>
      </trkpt>
      <trkpt lat="45.96754" lon="4.86659">
        <ele>290</ele>
        <time>2017-12-12T10:43:55Z</time>
      </trkpt>
      <trkpt lat="45.96757" lon="4.8666">
        <ele>290</ele>
        <time>2017-12-12T10:43:56Z</time>
      </trkpt>
      <trkpt lat="45.96764" lon="4.86664">
        <ele>290</ele>
        <time>2017-12-12T10:43:58Z</time>
      </trkpt>
      <trkpt lat="45.96768" lon="4.86668">
        <ele>290</ele>
        <time>2017-12-12T10:43:59Z</time>
      </trkpt>
      <trkpt lat="45.96775" lon="4.86676">
        <ele>289</ele>
        <time>2017-12-12T10:44:01Z</time>
      </trkpt>
      <trkpt lat="45.96778" lon="4.86681">
        <ele>289</ele>
        <time>2017-12-12T10:44:02Z</time>
      </trkpt>
      <trkpt lat="45.96782" lon="4.86685">
        <ele>289</ele>
        <time>2017-12-12T10:44:03Z</time>
      </trkpt>
      <trkpt lat="45.96786" lon="4.8669">
        <ele>289</ele>
        <time>2017-12-12T10:44:04Z</time>
      </trkpt>
      <trkpt lat="45.9679" lon="4.86695">
        <ele>289</ele>
        <time>2017-12-12T10:44:05Z</time>
      </trkpt>
      <trkpt lat="45.96794" lon="4.86699">
        <ele>289</ele>
        <time>2017-12-12T10:44:06Z</time>
      </trkpt>
      <trkpt lat="45.96798" lon="4.86702">
        <ele>289</ele>
        <time>2017-12-12T10:44:07Z</time>
      </trkpt>
      <trkpt lat="45.96802" lon="4.86707">
        <ele>289</ele>
        <time>2017-12-12T10:44:08Z</time>
      </trkpt>
      <trkpt lat="45.96806" lon="4.86711">
        <ele>289</ele>
        <time>2017-12-12T10:44:09Z</time>
      </trkpt>
      <trkpt lat="45.96811" lon="4.86715">
        <ele>289</ele>
        <time>2017-12-12T10:44:10Z</time>
      </trkpt>
      <trkpt lat="45.96816" lon="4.8672">
        <ele>289</ele>
        <time>2017-12-12T10:44:11Z</time>
      </trkpt>
      <trkpt lat="45.9682" lon="4.86725">
        <ele>289</ele>
        <time>2017-12-12T10:44:12Z</time>
      </trkpt>
      <trkpt lat="45.96824" lon="4.86729">
        <ele>289</ele>
        <time>2017-12-12T10:44:13Z</time>
      </trkpt>
      <trkpt lat="45.96829" lon="4.86733">
        <ele>289</ele>
        <time>2017-12-12T10:44:14Z</time>
      </trkpt>
      <trkpt lat="45.96834" lon="4.86736">
        <ele>289</ele>
        <time>2017-12-12T10:44:15Z</time>
      </trkpt>
      <trkpt lat="45.96838" lon="4.86739">
        <ele>289</ele>
        <time>2017-12-12T10:44:16Z</time>
      </trkpt>
      <trkpt lat="45.96845" lon="4.86744">
        <ele>289</ele>
        <time>2017-12-12T10:44:18Z</time>
      </trkpt>
      <trkpt lat="45.96848" lon="4.86748">
        <ele>289</ele>
        <time>2017-12-12T10:44:19Z</time>
      </trkpt>
      <trkpt lat="45.96852" lon="4.86752">
        <ele>289</ele>
        <time>2017-12-12T10:44:20Z</time>
      </trkpt>
      <trkpt lat="45.96857" lon="4.86756">
        <ele>289</ele>
        <time>2017-12-12T10:44:21Z</time>
      </trkpt>
      <trkpt lat="45.96862" lon="4.8676">
        <ele>289</ele>
        <time>2017-12-12T10:44:22Z</time>
      </trkpt>
      <trkpt lat="45.96866" lon="4.86764">
        <ele>289</ele>
        <time>2017-12-12T10:44:23Z</time>
      </trkpt>
      <trkpt lat="45.9687" lon="4.86767">
        <ele>289</ele>
        <time>2017-12-12T10:44:24Z</time>
      </trkpt>
      <trkpt lat="45.96874" lon="4.86771">
        <ele>289</ele>
        <time>2017-12-12T10:44:25Z</time>
      </trkpt>
      <trkpt lat="45.96879" lon="4.86775">
        <ele>289</ele>
        <time>2017-12-12T10:44:26Z</time>
      </trkpt>
      <trkpt lat="45.96883" lon="4.8678">
        <ele>289</ele>
        <time>2017-12-12T10:44:27Z</time>
      </trkpt>
      <trkpt lat="45.96887" lon="4.86785">
        <ele>289</ele>
        <time>2017-12-12T10:44:28Z</time>
      </trkpt>
      <trkpt lat="45.96892" lon="4.86789">
        <ele>289</ele>
        <time>2017-12-12T10:44:29Z</time>
      </trkpt>
      <trkpt lat="45.96897" lon="4.86793">
        <ele>289</ele>
        <time>2017-12-12T10:44:30Z</time>
      </trkpt>
      <trkpt lat="45.96902" lon="4.86797">
        <ele>289</ele>
        <time>2017-12-12T10:44:31Z</time>
      </trkpt>
      <trkpt lat="45.96909" lon="4.86801">
        <ele>288</ele>
        <time>2017-12-12T10:44:32Z</time>
      </trkpt>
      <trkpt lat="45.96915" lon="4.86805">
        <ele>288</ele>
        <time>2017-12-12T10:44:33Z</time>
      </trkpt>
      <trkpt lat="45.96921" lon="4.86808">
        <ele>287</ele>
        <time>2017-12-12T10:44:34Z</time>
      </trkpt>
      <trkpt lat="45.96925" lon="4.86813">
        <ele>287</ele>
        <time>2017-12-12T10:44:35Z</time>
      </trkpt>
      <trkpt lat="45.9693" lon="4.86817">
        <ele>287</ele>
        <time>2017-12-12T10:44:36Z</time>
      </trkpt>
      <trkpt lat="45.96936" lon="4.8682">
        <ele>287</ele>
        <time>2017-12-12T10:44:37Z</time>
      </trkpt>
      <trkpt lat="45.96941" lon="4.86825">
        <ele>287</ele>
        <time>2017-12-12T10:44:38Z</time>
      </trkpt>
      <trkpt lat="45.96947" lon="4.86828">
        <ele>287</ele>
        <time>2017-12-12T10:44:39Z</time>
      </trkpt>
      <trkpt lat="45.96953" lon="4.86833">
        <ele>286</ele>
        <time>2017-12-12T10:44:40Z</time>
      </trkpt>
      <trkpt lat="45.96959" lon="4.86835">
        <ele>287</ele>
        <time>2017-12-12T10:44:41Z</time>
      </trkpt>
      <trkpt lat="45.96967" lon="4.86837">
        <ele>286</ele>
        <time>2017-12-12T10:44:42Z</time>
      </trkpt>
      <trkpt lat="45.96973" lon="4.86838">
        <ele>286</ele>
        <time>2017-12-12T10:44:43Z</time>
      </trkpt>
      <trkpt lat="45.96979" lon="4.86839">
        <ele>286</ele>
        <time>2017-12-12T10:44:44Z</time>
      </trkpt>
      <trkpt lat="45.96986" lon="4.86841">
        <ele>286</ele>
        <time>2017-12-12T10:44:45Z</time>
      </trkpt>
      <trkpt lat="45.96992" lon="4.86843">
        <ele>286</ele>
        <time>2017-12-12T10:44:46Z</time>
      </trkpt>
      <trkpt lat="45.96997" lon="4.86844">
        <ele>286</ele>
        <time>2017-12-12T10:44:47Z</time>
      </trkpt>
      <trkpt lat="45.97003" lon="4.86844">
        <ele>285</ele>
        <time>2017-12-12T10:44:48Z</time>
      </trkpt>
      <trkpt lat="45.9701" lon="4.86844">
        <ele>285</ele>
        <time>2017-12-12T10:44:49Z</time>
      </trkpt>
      <trkpt lat="45.97016" lon="4.86844">
        <ele>285</ele>
        <time>2017-12-12T10:44:50Z</time>
      </trkpt>
      <trkpt lat="45.97022" lon="4.86843">
        <ele>285</ele>
        <time>2017-12-12T10:44:51Z</time>
      </trkpt>
      <trkpt lat="45.97028" lon="4.86843">
        <ele>285</ele>
        <time>2017-12-12T10:44:52Z</time>
      </trkpt>
      <trkpt lat="45.97033" lon="4.86842">
        <ele>285</ele>
        <time>2017-12-12T10:44:53Z</time>
      </trkpt>
      <trkpt lat="45.97039" lon="4.86842">
        <ele>285</ele>
        <time>2017-12-12T10:44:54Z</time>
      </trkpt>
      <trkpt lat="45.97044" lon="4.86841">
        <ele>285</ele>
        <time>2017-12-12T10:44:55Z</time>
      </trkpt>
      <trkpt lat="45.9705" lon="4.86841">
        <ele>285</ele>
        <time>2017-12-12T10:44:56Z</time>
      </trkpt>
      <trkpt lat="45.97056" lon="4.8684">
        <ele>285</ele>
        <time>2017-12-12T10:44:57Z</time>
      </trkpt>
      <trkpt lat="45.97061" lon="4.86839">
        <ele>284</ele>
        <time>2017-12-12T10:44:58Z</time>
      </trkpt>
      <trkpt lat="45.97067" lon="4.86838">
        <ele>284</ele>
        <time>2017-12-12T10:44:59Z</time>
      </trkpt>
      <trkpt lat="45.97073" lon="4.86837">
        <ele>284</ele>
        <time>2017-12-12T10:45:00Z</time>
      </trkpt>
      <trkpt lat="45.9708" lon="4.86836">
        <ele>284</ele>
        <time>2017-12-12T10:45:01Z</time>
      </trkpt>
      <trkpt lat="45.97086" lon="4.86836">
        <ele>284</ele>
        <time>2017-12-12T10:45:02Z</time>
      </trkpt>
      <trkpt lat="45.97092" lon="4.86835">
        <ele>284</ele>
        <time>2017-12-12T10:45:03Z</time>
      </trkpt>
      <trkpt lat="45.97099" lon="4.86834">
        <ele>284</ele>
        <time>2017-12-12T10:45:04Z</time>
      </trkpt>
      <trkpt lat="45.97104" lon="4.86833">
        <ele>284</ele>
        <time>2017-12-12T10:45:05Z</time>
      </trkpt>
      <trkpt lat="45.97109" lon="4.8683">
        <ele>283</ele>
        <time>2017-12-12T10:45:06Z</time>
      </trkpt>
      <trkpt lat="45.97115" lon="4.86829">
        <ele>283</ele>
        <time>2017-12-12T10:45:07Z</time>
      </trkpt>
      <trkpt lat="45.97121" lon="4.86827">
        <ele>283</ele>
        <time>2017-12-12T10:45:08Z</time>
      </trkpt>
      <trkpt lat="45.97126" lon="4.86825">
        <ele>283</ele>
        <time>2017-12-12T10:45:09Z</time>
      </trkpt>
      <trkpt lat="45.97132" lon="4.86823">
        <ele>283</ele>
        <time>2017-12-12T10:45:10Z</time>
      </trkpt>
      <trkpt lat="45.97138" lon="4.86821">
        <ele>283</ele>
        <time>2017-12-12T10:45:11Z</time>
      </trkpt>
      <trkpt lat="45.97144" lon="4.86817">
        <ele>283</ele>
        <time>2017-12-12T10:45:12Z</time>
      </trkpt>
      <trkpt lat="45.97149" lon="4.86815">
        <ele>283</ele>
        <time>2017-12-12T10:45:13Z</time>
      </trkpt>
      <trkpt lat="45.97155" lon="4.86814">
        <ele>283</ele>
        <time>2017-12-12T10:45:14Z</time>
      </trkpt>
      <trkpt lat="45.9716" lon="4.86811">
        <ele>283</ele>
        <time>2017-12-12T10:45:15Z</time>
      </trkpt>
      <trkpt lat="45.97166" lon="4.86808">
        <ele>283</ele>
        <time>2017-12-12T10:45:16Z</time>
      </trkpt>
      <trkpt lat="45.97172" lon="4.86806">
        <ele>283</ele>
        <time>2017-12-12T10:45:17Z</time>
      </trkpt>
      <trkpt lat="45.97178" lon="4.86803">
        <ele>284</ele>
        <time>2017-12-12T10:45:18Z</time>
      </trkpt>
      <trkpt lat="45.97185" lon="4.868">
        <ele>284</ele>
        <time>2017-12-12T10:45:19Z</time>
      </trkpt>
      <trkpt lat="45.9719" lon="4.86798">
        <ele>284</ele>
        <time>2017-12-12T10:45:20Z</time>
      </trkpt>
      <trkpt lat="45.97196" lon="4.86797">
        <ele>284</ele>
        <time>2017-12-12T10:45:21Z</time>
      </trkpt>
      <trkpt lat="45.97201" lon="4.86795">
        <ele>284</ele>
        <time>2017-12-12T10:45:22Z</time>
      </trkpt>
      <trkpt lat="45.97207" lon="4.86793">
        <ele>284</ele>
        <time>2017-12-12T10:45:23Z</time>
      </trkpt>
      <trkpt lat="45.97212" lon="4.86792">
        <ele>284</ele>
        <time>2017-12-12T10:45:24Z</time>
      </trkpt>
      <trkpt lat="45.97218" lon="4.86791">
        <ele>284</ele>
        <time>2017-12-12T10:45:25Z</time>
      </trkpt>
      <trkpt lat="45.97223" lon="4.86792">
        <ele>284</ele>
        <time>2017-12-12T10:45:26Z</time>
      </trkpt>
      <trkpt lat="45.97229" lon="4.86793">
        <ele>284</ele>
        <time>2017-12-12T10:45:27Z</time>
      </trkpt>
      <trkpt lat="45.97233" lon="4.86795">
        <ele>284</ele>
        <time>2017-12-12T10:45:28Z</time>
      </trkpt>
      <trkpt lat="45.97238" lon="4.86797">
        <ele>284</ele>
        <time>2017-12-12T10:45:29Z</time>
      </trkpt>
      <trkpt lat="45.97242" lon="4.86801">
        <ele>284</ele>
        <time>2017-12-12T10:45:30Z</time>
      </trkpt>
      <trkpt lat="45.97246" lon="4.86805">
        <ele>284</ele>
        <time>2017-12-12T10:45:31Z</time>
      </trkpt>
      <trkpt lat="45.9725" lon="4.86808">
        <ele>284</ele>
        <time>2017-12-12T10:45:32Z</time>
      </trkpt>
      <trkpt lat="45.97254" lon="4.86813">
        <ele>285</ele>
        <time>2017-12-12T10:45:33Z</time>
      </trkpt>
      <trkpt lat="45.97258" lon="4.86819">
        <ele>285</ele>
        <time>2017-12-12T10:45:34Z</time>
      </trkpt>
      <trkpt lat="45.97261" lon="4.86826">
        <ele>285</ele>
        <time>2017-12-12T10:45:35Z</time>
      </trkpt>
      <trkpt lat="45.97264" lon="4.86833">
        <ele>285</ele>
        <time>2017-12-12T10:45:36Z</time>
      </trkpt>
      <trkpt lat="45.97269" lon="4.8684">
        <ele>285</ele>
        <time>2017-12-12T10:45:37Z</time>
      </trkpt>
      <trkpt lat="45.97273" lon="4.86846">
        <ele>285</ele>
        <time>2017-12-12T10:45:38Z</time>
      </trkpt>
      <trkpt lat="45.97277" lon="4.86851">
        <ele>285</ele>
        <time>2017-12-12T10:45:39Z</time>
      </trkpt>
      <trkpt lat="45.9728" lon="4.86858">
        <ele>285</ele>
        <time>2017-12-12T10:45:40Z</time>
      </trkpt>
      <trkpt lat="45.97283" lon="4.86864">
        <ele>285</ele>
        <time>2017-12-12T10:45:41Z</time>
      </trkpt>
      <trkpt lat="45.97288" lon="4.8687">
        <ele>285</ele>
        <time>2017-12-12T10:45:42Z</time>
      </trkpt>
      <trkpt lat="45.97292" lon="4.86876">
        <ele>285</ele>
        <time>2017-12-12T10:45:43Z</time>
      </trkpt>
      <trkpt lat="45.97296" lon="4.86881">
        <ele>284</ele>
        <time>2017-12-12T10:45:44Z</time>
      </trkpt>
      <trkpt lat="45.973" lon="4.86887">
        <ele>284</ele>
        <time>2017-12-12T10:45:45Z</time>
      </trkpt>
      <trkpt lat="45.97305" lon="4.86893">
        <ele>284</ele>
        <time>2017-12-12T10:45:46Z</time>
      </trkpt>
      <trkpt lat="45.9731" lon="4.86898">
        <ele>284</ele>
        <time>2017-12-12T10:45:47Z</time>
      </trkpt>
      <trkpt lat="45.97314" lon="4.86903">
        <ele>284</ele>
        <time>2017-12-12T10:45:48Z</time>
      </trkpt>
      <trkpt lat="45.97319" lon="4.86908">
        <ele>284</ele>
        <time>2017-12-12T10:45:49Z</time>
      </trkpt>
      <trkpt lat="45.97323" lon="4.86914">
        <ele>284</ele>
        <time>2017-12-12T10:45:50Z</time>
      </trkpt>
      <trkpt lat="45.97327" lon="4.86921">
        <ele>284</ele>
        <time>2017-12-12T10:45:51Z</time>
      </trkpt>
      <trkpt lat="45.97331" lon="4.86926">
        <ele>284</ele>
        <time>2017-12-12T10:45:52Z</time>
      </trkpt>
      <trkpt lat="45.97334" lon="4.86931">
        <ele>284</ele>
        <time>2017-12-12T10:45:53Z</time>
      </trkpt>
      <trkpt lat="45.97338" lon="4.86936">
        <ele>284</ele>
        <time>2017-12-12T10:45:54Z</time>
      </trkpt>
      <trkpt lat="45.97342" lon="4.86941">
        <ele>284</ele>
        <time>2017-12-12T10:45:55Z</time>
      </trkpt>
      <trkpt lat="45.97345" lon="4.86947">
        <ele>284</ele>
        <time>2017-12-12T10:45:56Z</time>
      </trkpt>
      <trkpt lat="45.97349" lon="4.86952">
        <ele>284</ele>
        <time>2017-12-12T10:45:57Z</time>
      </trkpt>
      <trkpt lat="45.97353" lon="4.86957">
        <ele>284</ele>
        <time>2017-12-12T10:45:58Z</time>
      </trkpt>
      <trkpt lat="45.97358" lon="4.86961">
        <ele>285</ele>
        <time>2017-12-12T10:45:59Z</time>
      </trkpt>
      <trkpt lat="45.97362" lon="4.86968">
        <ele>285</ele>
        <time>2017-12-12T10:46:00Z</time>
      </trkpt>
      <trkpt lat="45.97367" lon="4.86974">
        <ele>285</ele>
        <time>2017-12-12T10:46:01Z</time>
      </trkpt>
      <trkpt lat="45.97372" lon="4.86979">
        <ele>285</ele>
        <time>2017-12-12T10:46:02Z</time>
      </trkpt>
      <trkpt lat="45.97377" lon="4.86984">
        <ele>285</ele>
        <time>2017-12-12T10:46:03Z</time>
      </trkpt>
      <trkpt lat="45.97381" lon="4.86989">
        <ele>285</ele>
        <time>2017-12-12T10:46:04Z</time>
      </trkpt>
      <trkpt lat="45.97386" lon="4.86994">
        <ele>285</ele>
        <time>2017-12-12T10:46:05Z</time>
      </trkpt>
      <trkpt lat="45.97392" lon="4.86997">
        <ele>285</ele>
        <time>2017-12-12T10:46:06Z</time>
      </trkpt>
      <trkpt lat="45.97395" lon="4.87002">
        <ele>285</ele>
        <time>2017-12-12T10:46:07Z</time>
      </trkpt>
      <trkpt lat="45.97398" lon="4.87007">
        <ele>285</ele>
        <time>2017-12-12T10:46:08Z</time>
      </trkpt>
      <trkpt lat="45.97402" lon="4.87011">
        <ele>285</ele>
        <time>2017-12-12T10:46:09Z</time>
      </trkpt>
      <trkpt lat="45.97405" lon="4.87017">
        <ele>285</ele>
        <time>2017-12-12T10:46:10Z</time>
      </trkpt>
      <trkpt lat="45.9741" lon="4.8702">
        <ele>285</ele>
        <time>2017-12-12T10:46:11Z</time>
      </trkpt>
      <trkpt lat="45.97415" lon="4.87025">
        <ele>285</ele>
        <time>2017-12-12T10:46:12Z</time>
      </trkpt>
      <trkpt lat="45.9742" lon="4.87029">
        <ele>284</ele>
        <time>2017-12-12T10:46:13Z</time>
      </trkpt>
      <trkpt lat="45.97424" lon="4.87034">
        <ele>284</ele>
        <time>2017-12-12T10:46:14Z</time>
      </trkpt>
      <trkpt lat="45.97428" lon="4.87039">
        <ele>284</ele>
        <time>2017-12-12T10:46:15Z</time>
      </trkpt>
      <trkpt lat="45.97433" lon="4.87044">
        <ele>284</ele>
        <time>2017-12-12T10:46:16Z</time>
      </trkpt>
      <trkpt lat="45.97438" lon="4.87048">
        <ele>284</ele>
        <time>2017-12-12T10:46:17Z</time>
      </trkpt>
      <trkpt lat="45.97444" lon="4.87053">
        <ele>284</ele>
        <time>2017-12-12T10:46:18Z</time>
      </trkpt>
      <trkpt lat="45.97449" lon="4.87058">
        <ele>284</ele>
        <time>2017-12-12T10:46:19Z</time>
      </trkpt>
      <trkpt lat="45.97455" lon="4.87064">
        <ele>284</ele>
        <time>2017-12-12T10:46:20Z</time>
      </trkpt>
      <trkpt lat="45.97459" lon="4.87069">
        <ele>284</ele>
        <time>2017-12-12T10:46:21Z</time>
      </trkpt>
      <trkpt lat="45.97463" lon="4.87073">
        <ele>284</ele>
        <time>2017-12-12T10:46:22Z</time>
      </trkpt>
      <trkpt lat="45.97467" lon="4.87078">
        <ele>284</ele>
        <time>2017-12-12T10:46:23Z</time>
      </trkpt>
      <trkpt lat="45.9747" lon="4.87082">
        <ele>284</ele>
        <time>2017-12-12T10:46:24Z</time>
      </trkpt>
      <trkpt lat="45.97475" lon="4.87087">
        <ele>283</ele>
        <time>2017-12-12T10:46:25Z</time>
      </trkpt>
      <trkpt lat="45.97479" lon="4.87092">
        <ele>283</ele>
        <time>2017-12-12T10:46:26Z</time>
      </trkpt>
      <trkpt lat="45.97483" lon="4.87097">
        <ele>283</ele>
        <time>2017-12-12T10:46:27Z</time>
      </trkpt>
      <trkpt lat="45.97488" lon="4.87102">
        <ele>283</ele>
        <time>2017-12-12T10:46:28Z</time>
      </trkpt>
      <trkpt lat="45.97493" lon="4.87107">
        <ele>283</ele>
        <time>2017-12-12T10:46:29Z</time>
      </trkpt>
      <trkpt lat="45.97498" lon="4.87113">
        <ele>283</ele>
        <time>2017-12-12T10:46:30Z</time>
      </trkpt>
      <trkpt lat="45.97503" lon="4.87119">
        <ele>283</ele>
        <time>2017-12-12T10:46:31Z</time>
      </trkpt>
      <trkpt lat="45.97508" lon="4.87123">
        <ele>283</ele>
        <time>2017-12-12T10:46:32Z</time>
      </trkpt>
      <trkpt lat="45.97513" lon="4.87128">
        <ele>283</ele>
        <time>2017-12-12T10:46:33Z</time>
      </trkpt>
      <trkpt lat="45.97518" lon="4.87133">
        <ele>283</ele>
        <time>2017-12-12T10:46:34Z</time>
      </trkpt>
      <trkpt lat="45.97523" lon="4.87138">
        <ele>283</ele>
        <time>2017-12-12T10:46:35Z</time>
      </trkpt>
      <trkpt lat="45.97528" lon="4.87142">
        <ele>283</ele>
        <time>2017-12-12T10:46:36Z</time>
      </trkpt>
      <trkpt lat="45.97533" lon="4.87146">
        <ele>283</ele>
        <time>2017-12-12T10:46:37Z</time>
      </trkpt>
      <trkpt lat="45.97538" lon="4.87149">
        <ele>283</ele>
        <time>2017-12-12T10:46:38Z</time>
      </trkpt>
      <trkpt lat="45.97542" lon="4.87153">
        <ele>283</ele>
        <time>2017-12-12T10:46:39Z</time>
      </trkpt>
      <trkpt lat="45.97547" lon="4.87157">
        <ele>283</ele>
        <time>2017-12-12T10:46:40Z</time>
      </trkpt>
      <trkpt lat="45.97551" lon="4.8716">
        <ele>283</ele>
        <time>2017-12-12T10:46:41Z</time>
      </trkpt>
      <trkpt lat="45.97556" lon="4.87164">
        <ele>283</ele>
        <time>2017-12-12T10:46:42Z</time>
      </trkpt>
      <trkpt lat="45.9756" lon="4.87168">
        <ele>283</ele>
        <time>2017-12-12T10:46:43Z</time>
      </trkpt>
      <trkpt lat="45.97564" lon="4.87172">
        <ele>283</ele>
        <time>2017-12-12T10:46:44Z</time>
      </trkpt>
      <trkpt lat="45.97568" lon="4.87176">
        <ele>283</ele>
        <time>2017-12-12T10:46:45Z</time>
      </trkpt>
      <trkpt lat="45.97572" lon="4.87181">
        <ele>283</ele>
        <time>2017-12-12T10:46:46Z</time>
      </trkpt>
      <trkpt lat="45.97578" lon="4.87186">
        <ele>283</ele>
        <time>2017-12-12T10:46:47Z</time>
      </trkpt>
      <trkpt lat="45.97583" lon="4.8719">
        <ele>283</ele>
        <time>2017-12-12T10:46:48Z</time>
      </trkpt>
      <trkpt lat="45.97588" lon="4.87195">
        <ele>283</ele>
        <time>2017-12-12T10:46:49Z</time>
      </trkpt>
      <trkpt lat="45.97593" lon="4.87201">
        <ele>283</ele>
        <time>2017-12-12T10:46:50Z</time>
      </trkpt>
      <trkpt lat="45.97599" lon="4.87207">
        <ele>284</ele>
        <time>2017-12-12T10:46:51Z</time>
      </trkpt>
      <trkpt lat="45.97604" lon="4.87212">
        <ele>284</ele>
        <time>2017-12-12T10:46:52Z</time>
      </trkpt>
      <trkpt lat="45.97609" lon="4.87217">
        <ele>284</ele>
        <time>2017-12-12T10:46:53Z</time>
      </trkpt>
      <trkpt lat="45.97613" lon="4.87223">
        <ele>284</ele>
        <time>2017-12-12T10:46:54Z</time>
      </trkpt>
      <trkpt lat="45.97617" lon="4.87228">
        <ele>284</ele>
        <time>2017-12-12T10:46:55Z</time>
      </trkpt>
      <trkpt lat="45.97622" lon="4.87233">
        <ele>284</ele>
        <time>2017-12-12T10:46:56Z</time>
      </trkpt>
      <trkpt lat="45.97627" lon="4.87237">
        <ele>284</ele>
        <time>2017-12-12T10:46:57Z</time>
      </trkpt>
      <trkpt lat="45.97632" lon="4.87241">
        <ele>284</ele>
        <time>2017-12-12T10:46:58Z</time>
      </trkpt>
      <trkpt lat="45.97636" lon="4.87245">
        <ele>284</ele>
        <time>2017-12-12T10:46:59Z</time>
      </trkpt>
      <trkpt lat="45.97641" lon="4.87249">
        <ele>284</ele>
        <time>2017-12-12T10:47:00Z</time>
      </trkpt>
      <trkpt lat="45.97645" lon="4.87252">
        <ele>285</ele>
        <time>2017-12-12T10:47:01Z</time>
      </trkpt>
      <trkpt lat="45.9765" lon="4.87256">
        <ele>285</ele>
        <time>2017-12-12T10:47:02Z</time>
      </trkpt>
      <trkpt lat="45.97654" lon="4.8726">
        <ele>285</ele>
        <time>2017-12-12T10:47:03Z</time>
      </trkpt>
      <trkpt lat="45.97658" lon="4.87265">
        <ele>285</ele>
        <time>2017-12-12T10:47:04Z</time>
      </trkpt>
      <trkpt lat="45.97664" lon="4.8727">
        <ele>285</ele>
        <time>2017-12-12T10:47:05Z</time>
      </trkpt>
      <trkpt lat="45.97669" lon="4.87275">
        <ele>286</ele>
        <time>2017-12-12T10:47:06Z</time>
      </trkpt>
      <trkpt lat="45.97674" lon="4.87279">
        <ele>286</ele>
        <time>2017-12-12T10:47:07Z</time>
      </trkpt>
      <trkpt lat="45.97679" lon="4.87284">
        <ele>286</ele>
        <time>2017-12-12T10:47:08Z</time>
      </trkpt>
      <trkpt lat="45.97684" lon="4.87287">
        <ele>286</ele>
        <time>2017-12-12T10:47:09Z</time>
      </trkpt>
      <trkpt lat="45.97688" lon="4.87292">
        <ele>286</ele>
        <time>2017-12-12T10:47:10Z</time>
      </trkpt>
      <trkpt lat="45.97692" lon="4.87297">
        <ele>286</ele>
        <time>2017-12-12T10:47:11Z</time>
      </trkpt>
      <trkpt lat="45.97696" lon="4.87303">
        <ele>286</ele>
        <time>2017-12-12T10:47:12Z</time>
      </trkpt>
      <trkpt lat="45.97699" lon="4.87309">
        <ele>286</ele>
        <time>2017-12-12T10:47:13Z</time>
      </trkpt>
      <trkpt lat="45.97703" lon="4.87314">
        <ele>286</ele>
        <time>2017-12-12T10:47:14Z</time>
      </trkpt>
      <trkpt lat="45.97707" lon="4.87318">
        <ele>286</ele>
        <time>2017-12-12T10:47:15Z</time>
      </trkpt>
      <trkpt lat="45.97711" lon="4.87323">
        <ele>286</ele>
        <time>2017-12-12T10:47:16Z</time>
      </trkpt>
      <trkpt lat="45.97715" lon="4.87328">
        <ele>286</ele>
        <time>2017-12-12T10:47:17Z</time>
      </trkpt>
      <trkpt lat="45.9772" lon="4.87333">
        <ele>286</ele>
        <time>2017-12-12T10:47:18Z</time>
      </trkpt>
      <trkpt lat="45.97725" lon="4.87339">
        <ele>285</ele>
        <time>2017-12-12T10:47:19Z</time>
      </trkpt>
      <trkpt lat="45.97729" lon="4.87345">
        <ele>286</ele>
        <time>2017-12-12T10:47:20Z</time>
      </trkpt>
      <trkpt lat="45.97734" lon="4.87351">
        <ele>286</ele>
        <time>2017-12-12T10:47:21Z</time>
      </trkpt>
      <trkpt lat="45.97738" lon="4.87357">
        <ele>285</ele>
        <time>2017-12-12T10:47:22Z</time>
      </trkpt>
      <trkpt lat="45.97743" lon="4.87362">
        <ele>285</ele>
        <time>2017-12-12T10:47:23Z</time>
      </trkpt>
      <trkpt lat="45.97747" lon="4.87368">
        <ele>285</ele>
        <time>2017-12-12T10:47:24Z</time>
      </trkpt>
      <trkpt lat="45.97751" lon="4.87373">
        <ele>285</ele>
        <time>2017-12-12T10:47:25Z</time>
      </trkpt>
      <trkpt lat="45.97756" lon="4.87378">
        <ele>285</ele>
        <time>2017-12-12T10:47:26Z</time>
      </trkpt>
      <trkpt lat="45.9776" lon="4.87383">
        <ele>284</ele>
        <time>2017-12-12T10:47:27Z</time>
      </trkpt>
      <trkpt lat="45.97763" lon="4.87387">
        <ele>284</ele>
        <time>2017-12-12T10:47:28Z</time>
      </trkpt>
      <trkpt lat="45.97767" lon="4.87391">
        <ele>284</ele>
        <time>2017-12-12T10:47:29Z</time>
      </trkpt>
      <trkpt lat="45.9777" lon="4.87396">
        <ele>284</ele>
        <time>2017-12-12T10:47:30Z</time>
      </trkpt>
      <trkpt lat="45.97774" lon="4.87399">
        <ele>284</ele>
        <time>2017-12-12T10:47:31Z</time>
      </trkpt>
      <trkpt lat="45.97779" lon="4.87406">
        <ele>284</ele>
        <time>2017-12-12T10:47:32Z</time>
      </trkpt>
      <trkpt lat="45.97784" lon="4.8741">
        <ele>284</ele>
        <time>2017-12-12T10:47:33Z</time>
      </trkpt>
      <trkpt lat="45.97789" lon="4.87415">
        <ele>284</ele>
        <time>2017-12-12T10:47:34Z</time>
      </trkpt>
      <trkpt lat="45.97794" lon="4.87421">
        <ele>283</ele>
        <time>2017-12-12T10:47:35Z</time>
      </trkpt>
      <trkpt lat="45.978" lon="4.87425">
        <ele>283</ele>
        <time>2017-12-12T10:47:36Z</time>
      </trkpt>
      <trkpt lat="45.97805" lon="4.87431">
        <ele>283</ele>
        <time>2017-12-12T10:47:37Z</time>
      </trkpt>
      <trkpt lat="45.97811" lon="4.87436">
        <ele>282</ele>
        <time>2017-12-12T10:47:38Z</time>
      </trkpt>
      <trkpt lat="45.97816" lon="4.87442">
        <ele>282</ele>
        <time>2017-12-12T10:47:39Z</time>
      </trkpt>
      <trkpt lat="45.97821" lon="4.87447">
        <ele>282</ele>
        <time>2017-12-12T10:47:40Z</time>
      </trkpt>
      <trkpt lat="45.97826" lon="4.87452">
        <ele>282</ele>
        <time>2017-12-12T10:47:41Z</time>
      </trkpt>
      <trkpt lat="45.97831" lon="4.87458">
        <ele>282</ele>
        <time>2017-12-12T10:47:42Z</time>
      </trkpt>
      <trkpt lat="45.97836" lon="4.87464">
        <ele>281</ele>
        <time>2017-12-12T10:47:43Z</time>
      </trkpt>
      <trkpt lat="45.97839" lon="4.8747">
        <ele>281</ele>
        <time>2017-12-12T10:47:44Z</time>
      </trkpt>
      <trkpt lat="45.97844" lon="4.87476">
        <ele>281</ele>
        <time>2017-12-12T10:47:45Z</time>
      </trkpt>
      <trkpt lat="45.9785" lon="4.87481">
        <ele>281</ele>
        <time>2017-12-12T10:47:46Z</time>
      </trkpt>
      <trkpt lat="45.97855" lon="4.87487">
        <ele>281</ele>
        <time>2017-12-12T10:47:47Z</time>
      </trkpt>
      <trkpt lat="45.97859" lon="4.87492">
        <ele>281</ele>
        <time>2017-12-12T10:47:48Z</time>
      </trkpt>
      <trkpt lat="45.97866" lon="4.87498">
        <ele>280</ele>
        <time>2017-12-12T10:47:49Z</time>
      </trkpt>
      <trkpt lat="45.9787" lon="4.87503">
        <ele>281</ele>
        <time>2017-12-12T10:47:50Z</time>
      </trkpt>
      <trkpt lat="45.97876" lon="4.87506">
        <ele>281</ele>
        <time>2017-12-12T10:47:51Z</time>
      </trkpt>
      <trkpt lat="45.97882" lon="4.87509">
        <ele>281</ele>
        <time>2017-12-12T10:47:52Z</time>
      </trkpt>
      <trkpt lat="45.97887" lon="4.87512">
        <ele>281</ele>
        <time>2017-12-12T10:47:53Z</time>
      </trkpt>
      <trkpt lat="45.97892" lon="4.87515">
        <ele>280</ele>
        <time>2017-12-12T10:47:54Z</time>
      </trkpt>
      <trkpt lat="45.97898" lon="4.87517">
        <ele>280</ele>
        <time>2017-12-12T10:47:55Z</time>
      </trkpt>
      <trkpt lat="45.97904" lon="4.8752">
        <ele>280</ele>
        <time>2017-12-12T10:47:56Z</time>
      </trkpt>
      <trkpt lat="45.97909" lon="4.87522">
        <ele>280</ele>
        <time>2017-12-12T10:47:57Z</time>
      </trkpt>
      <trkpt lat="45.97915" lon="4.87524">
        <ele>280</ele>
        <time>2017-12-12T10:47:58Z</time>
      </trkpt>
      <trkpt lat="45.9792" lon="4.87527">
        <ele>279</ele>
        <time>2017-12-12T10:47:59Z</time>
      </trkpt>
      <trkpt lat="45.97924" lon="4.87528">
        <ele>279</ele>
        <time>2017-12-12T10:48:00Z</time>
      </trkpt>
      <trkpt lat="45.97929" lon="4.8753">
        <ele>279</ele>
        <time>2017-12-12T10:48:01Z</time>
      </trkpt>
      <trkpt lat="45.97934" lon="4.87533">
        <ele>279</ele>
        <time>2017-12-12T10:48:02Z</time>
      </trkpt>
      <trkpt lat="45.97938" lon="4.87535">
        <ele>279</ele>
        <time>2017-12-12T10:48:03Z</time>
      </trkpt>
      <trkpt lat="45.97945" lon="4.87537">
        <ele>279</ele>
        <time>2017-12-12T10:48:04Z</time>
      </trkpt>
      <trkpt lat="45.9795" lon="4.87539">
        <ele>279</ele>
        <time>2017-12-12T10:48:05Z</time>
      </trkpt>
      <trkpt lat="45.97956" lon="4.87541">
        <ele>279</ele>
        <time>2017-12-12T10:48:06Z</time>
      </trkpt>
      <trkpt lat="45.97962" lon="4.87545">
        <ele>279</ele>
        <time>2017-12-12T10:48:07Z</time>
      </trkpt>
      <trkpt lat="45.97966" lon="4.87549">
        <ele>279</ele>
        <time>2017-12-12T10:48:08Z</time>
      </trkpt>
      <trkpt lat="45.97971" lon="4.87553">
        <ele>279</ele>
        <time>2017-12-12T10:48:09Z</time>
      </trkpt>
      <trkpt lat="45.97977" lon="4.87563">
        <ele>279</ele>
        <time>2017-12-12T10:48:11Z</time>
      </trkpt>
      <trkpt lat="45.97981" lon="4.87568">
        <ele>279</ele>
        <time>2017-12-12T10:48:12Z</time>
      </trkpt>
      <trkpt lat="45.97984" lon="4.87572">
        <ele>280</ele>
        <time>2017-12-12T10:48:13Z</time>
      </trkpt>
      <trkpt lat="45.97988" lon="4.87578">
        <ele>280</ele>
        <time>2017-12-12T10:48:14Z</time>
      </trkpt>
      <trkpt lat="45.97991" lon="4.87584">
        <ele>280</ele>
        <time>2017-12-12T10:48:15Z</time>
      </trkpt>
      <trkpt lat="45.97994" lon="4.8759">
        <ele>280</ele>
        <time>2017-12-12T10:48:16Z</time>
      </trkpt>
      <trkpt lat="45.97998" lon="4.87596">
        <ele>280</ele>
        <time>2017-12-12T10:48:17Z</time>
      </trkpt>
      <trkpt lat="45.98001" lon="4.87602">
        <ele>280</ele>
        <time>2017-12-12T10:48:18Z</time>
      </trkpt>
      <trkpt lat="45.98003" lon="4.87609">
        <ele>280</ele>
        <time>2017-12-12T10:48:19Z</time>
      </trkpt>
      <trkpt lat="45.98005" lon="4.87616">
        <ele>280</ele>
        <time>2017-12-12T10:48:20Z</time>
      </trkpt>
      <trkpt lat="45.98008" lon="4.87627">
        <ele>280</ele>
        <time>2017-12-12T10:48:22Z</time>
      </trkpt>
      <trkpt lat="45.9801" lon="4.87634">
        <ele>280</ele>
        <time>2017-12-12T10:48:23Z</time>
      </trkpt>
      <trkpt lat="45.98011" lon="4.87641">
        <ele>280</ele>
        <time>2017-12-12T10:48:24Z</time>
      </trkpt>
      <trkpt lat="45.98014" lon="4.87647">
        <ele>280</ele>
        <time>2017-12-12T10:48:25Z</time>
      </trkpt>
      <trkpt lat="45.98014" lon="4.87654">
        <ele>280</ele>
        <time>2017-12-12T10:48:26Z</time>
      </trkpt>
      <trkpt lat="45.98017" lon="4.87662">
        <ele>280</ele>
        <time>2017-12-12T10:48:27Z</time>
      </trkpt>
      <trkpt lat="45.98019" lon="4.87668">
        <ele>280</ele>
        <time>2017-12-12T10:48:28Z</time>
      </trkpt>
      <trkpt lat="45.98022" lon="4.87674">
        <ele>280</ele>
        <time>2017-12-12T10:48:29Z</time>
      </trkpt>
      <trkpt lat="45.98025" lon="4.87681">
        <ele>280</ele>
        <time>2017-12-12T10:48:30Z</time>
      </trkpt>
      <trkpt lat="45.98027" lon="4.87688">
        <ele>280</ele>
        <time>2017-12-12T10:48:31Z</time>
      </trkpt>
      <trkpt lat="45.98029" lon="4.87695">
        <ele>280</ele>
        <time>2017-12-12T10:48:32Z</time>
      </trkpt>
      <trkpt lat="45.98033" lon="4.87701">
        <ele>280</ele>
        <time>2017-12-12T10:48:33Z</time>
      </trkpt>
      <trkpt lat="45.98034" lon="4.87708">
        <ele>280</ele>
        <time>2017-12-12T10:48:34Z</time>
      </trkpt>
      <trkpt lat="45.98036" lon="4.87715">
        <ele>279</ele>
        <time>2017-12-12T10:48:35Z</time>
      </trkpt>
      <trkpt lat="45.98039" lon="4.87722">
        <ele>279</ele>
        <time>2017-12-12T10:48:36Z</time>
      </trkpt>
      <trkpt lat="45.98041" lon="4.8773">
        <ele>279</ele>
        <time>2017-12-12T10:48:37Z</time>
      </trkpt>
      <trkpt lat="45.98043" lon="4.87737">
        <ele>280</ele>
        <time>2017-12-12T10:48:38Z</time>
      </trkpt>
      <trkpt lat="45.98046" lon="4.87744">
        <ele>280</ele>
        <time>2017-12-12T10:48:39Z</time>
      </trkpt>
      <trkpt lat="45.98048" lon="4.87751">
        <ele>280</ele>
        <time>2017-12-12T10:48:40Z</time>
      </trkpt>
      <trkpt lat="45.98051" lon="4.87758">
        <ele>280</ele>
        <time>2017-12-12T10:48:41Z</time>
      </trkpt>
      <trkpt lat="45.98053" lon="4.87766">
        <ele>280</ele>
        <time>2017-12-12T10:48:42Z</time>
      </trkpt>
      <trkpt lat="45.98055" lon="4.87773">
        <ele>280</ele>
        <time>2017-12-12T10:48:43Z</time>
      </trkpt>
      <trkpt lat="45.98058" lon="4.87782">
        <ele>280</ele>
        <time>2017-12-12T10:48:44Z</time>
      </trkpt>
      <trkpt lat="45.9806" lon="4.87788">
        <ele>280</ele>
        <time>2017-12-12T10:48:45Z</time>
      </trkpt>
      <trkpt lat="45.98062" lon="4.87795">
        <ele>280</ele>
        <time>2017-12-12T10:48:46Z</time>
      </trkpt>
      <trkpt lat="45.98063" lon="4.87802">
        <ele>280</ele>
        <time>2017-12-12T10:48:47Z</time>
      </trkpt>
      <trkpt lat="45.98065" lon="4.87811">
        <ele>280</ele>
        <time>2017-12-12T10:48:48Z</time>
      </trkpt>
      <trkpt lat="45.98068" lon="4.87818">
        <ele>280</ele>
        <time>2017-12-12T10:48:49Z</time>
      </trkpt>
      <trkpt lat="45.9807" lon="4.87826">
        <ele>279</ele>
        <time>2017-12-12T10:48:50Z</time>
      </trkpt>
      <trkpt lat="45.98072" lon="4.87833">
        <ele>279</ele>
        <time>2017-12-12T10:48:51Z</time>
      </trkpt>
      <trkpt lat="45.98076" lon="4.8784">
        <ele>279</ele>
        <time>2017-12-12T10:48:52Z</time>
      </trkpt>
      <trkpt lat="45.98077" lon="4.87849">
        <ele>280</ele>
        <time>2017-12-12T10:48:53Z</time>
      </trkpt>
      <trkpt lat="45.98079" lon="4.87856">
        <ele>280</ele>
        <time>2017-12-12T10:48:54Z</time>
      </trkpt>
      <trkpt lat="45.9808" lon="4.87863">
        <ele>280</ele>
        <time>2017-12-12T10:48:55Z</time>
      </trkpt>
      <trkpt lat="45.98083" lon="4.87869">
        <ele>280</ele>
        <time>2017-12-12T10:48:56Z</time>
      </trkpt>
      <trkpt lat="45.98086" lon="4.87876">
        <ele>278</ele>
        <time>2017-12-12T10:48:57Z</time>
      </trkpt>
      <trkpt lat="45.98088" lon="4.87883">
        <ele>278</ele>
        <time>2017-12-12T10:48:58Z</time>
      </trkpt>
      <trkpt lat="45.9809" lon="4.8789">
        <ele>278</ele>
        <time>2017-12-12T10:48:59Z</time>
      </trkpt>
      <trkpt lat="45.98091" lon="4.87896">
        <ele>278</ele>
        <time>2017-12-12T10:49:00Z</time>
      </trkpt>
      <trkpt lat="45.98094" lon="4.87903">
        <ele>278</ele>
        <time>2017-12-12T10:49:01Z</time>
      </trkpt>
      <trkpt lat="45.98096" lon="4.8791">
        <ele>278</ele>
        <time>2017-12-12T10:49:02Z</time>
      </trkpt>
      <trkpt lat="45.98098" lon="4.87919">
        <ele>278</ele>
        <time>2017-12-12T10:49:03Z</time>
      </trkpt>
      <trkpt lat="45.981" lon="4.87927">
        <ele>277</ele>
        <time>2017-12-12T10:49:04Z</time>
      </trkpt>
      <trkpt lat="45.98102" lon="4.87936">
        <ele>277</ele>
        <time>2017-12-12T10:49:05Z</time>
      </trkpt>
      <trkpt lat="45.98105" lon="4.87945">
        <ele>277</ele>
        <time>2017-12-12T10:49:06Z</time>
      </trkpt>
      <trkpt lat="45.98108" lon="4.87952">
        <ele>277</ele>
        <time>2017-12-12T10:49:07Z</time>
      </trkpt>
      <trkpt lat="45.98111" lon="4.87961">
        <ele>277</ele>
        <time>2017-12-12T10:49:08Z</time>
      </trkpt>
      <trkpt lat="45.98113" lon="4.87968">
        <ele>277</ele>
        <time>2017-12-12T10:49:09Z</time>
      </trkpt>
      <trkpt lat="45.98116" lon="4.87977">
        <ele>277</ele>
        <time>2017-12-12T10:49:10Z</time>
      </trkpt>
      <trkpt lat="45.98118" lon="4.87985">
        <ele>277</ele>
        <time>2017-12-12T10:49:11Z</time>
      </trkpt>
      <trkpt lat="45.98121" lon="4.87993">
        <ele>277</ele>
        <time>2017-12-12T10:49:12Z</time>
      </trkpt>
      <trkpt lat="45.98123" lon="4.88001">
        <ele>276</ele>
        <time>2017-12-12T10:49:13Z</time>
      </trkpt>
      <trkpt lat="45.98126" lon="4.8801">
        <ele>276</ele>
        <time>2017-12-12T10:49:14Z</time>
      </trkpt>
      <trkpt lat="45.98129" lon="4.88018">
        <ele>276</ele>
        <time>2017-12-12T10:49:15Z</time>
      </trkpt>
      <trkpt lat="45.98132" lon="4.88026">
        <ele>276</ele>
        <time>2017-12-12T10:49:16Z</time>
      </trkpt>
      <trkpt lat="45.98135" lon="4.88034">
        <ele>276</ele>
        <time>2017-12-12T10:49:17Z</time>
      </trkpt>
      <trkpt lat="45.98137" lon="4.88043">
        <ele>275</ele>
        <time>2017-12-12T10:49:18Z</time>
      </trkpt>
      <trkpt lat="45.9814" lon="4.8805">
        <ele>275</ele>
        <time>2017-12-12T10:49:19Z</time>
      </trkpt>
      <trkpt lat="45.98143" lon="4.88059">
        <ele>275</ele>
        <time>2017-12-12T10:49:20Z</time>
      </trkpt>
      <trkpt lat="45.98146" lon="4.88067">
        <ele>275</ele>
        <time>2017-12-12T10:49:21Z</time>
      </trkpt>
      <trkpt lat="45.98149" lon="4.88074">
        <ele>275</ele>
        <time>2017-12-12T10:49:22Z</time>
      </trkpt>
      <trkpt lat="45.98151" lon="4.88082">
        <ele>274</ele>
        <time>2017-12-12T10:49:23Z</time>
      </trkpt>
      <trkpt lat="45.98154" lon="4.8809">
        <ele>274</ele>
        <time>2017-12-12T10:49:24Z</time>
      </trkpt>
      <trkpt lat="45.98157" lon="4.88098">
        <ele>274</ele>
        <time>2017-12-12T10:49:25Z</time>
      </trkpt>
      <trkpt lat="45.98159" lon="4.88105">
        <ele>274</ele>
        <time>2017-12-12T10:49:26Z</time>
      </trkpt>
      <trkpt lat="45.98162" lon="4.88114">
        <ele>274</ele>
        <time>2017-12-12T10:49:27Z</time>
      </trkpt>
      <trkpt lat="45.98164" lon="4.88123">
        <ele>274</ele>
        <time>2017-12-12T10:49:28Z</time>
      </trkpt>
      <trkpt lat="45.98166" lon="4.88131">
        <ele>274</ele>
        <time>2017-12-12T10:49:29Z</time>
      </trkpt>
      <trkpt lat="45.98168" lon="4.88138">
        <ele>273</ele>
        <time>2017-12-12T10:49:30Z</time>
      </trkpt>
      <trkpt lat="45.9817" lon="4.88146">
        <ele>273</ele>
        <time>2017-12-12T10:49:31Z</time>
      </trkpt>
      <trkpt lat="45.98173" lon="4.88153">
        <ele>273</ele>
        <time>2017-12-12T10:49:32Z</time>
      </trkpt>
      <trkpt lat="45.98175" lon="4.88161">
        <ele>273</ele>
        <time>2017-12-12T10:49:33Z</time>
      </trkpt>
      <trkpt lat="45.98177" lon="4.88168">
        <ele>273</ele>
        <time>2017-12-12T10:49:34Z</time>
      </trkpt>
      <trkpt lat="45.9818" lon="4.88174">
        <ele>273</ele>
        <time>2017-12-12T10:49:35Z</time>
      </trkpt>
      <trkpt lat="45.98182" lon="4.88181">
        <ele>273</ele>
        <time>2017-12-12T10:49:36Z</time>
      </trkpt>
      <trkpt lat="45.98184" lon="4.88189">
        <ele>273</ele>
        <time>2017-12-12T10:49:37Z</time>
      </trkpt>
      <trkpt lat="45.98186" lon="4.88196">
        <ele>273</ele>
        <time>2017-12-12T10:49:38Z</time>
      </trkpt>
      <trkpt lat="45.98188" lon="4.88205">
        <ele>273</ele>
        <time>2017-12-12T10:49:39Z</time>
      </trkpt>
      <trkpt lat="45.98191" lon="4.88212">
        <ele>273</ele>
        <time>2017-12-12T10:49:40Z</time>
      </trkpt>
      <trkpt lat="45.98193" lon="4.88221">
        <ele>273</ele>
        <time>2017-12-12T10:49:41Z</time>
      </trkpt>
      <trkpt lat="45.98194" lon="4.8823">
        <ele>273</ele>
        <time>2017-12-12T10:49:42Z</time>
      </trkpt>
      <trkpt lat="45.98196" lon="4.8824">
        <ele>273</ele>
        <time>2017-12-12T10:49:43Z</time>
      </trkpt>
      <trkpt lat="45.98199" lon="4.88248">
        <ele>273</ele>
        <time>2017-12-12T10:49:44Z</time>
      </trkpt>
      <trkpt lat="45.982" lon="4.88255">
        <ele>274</ele>
        <time>2017-12-12T10:49:45Z</time>
      </trkpt>
      <trkpt lat="45.98203" lon="4.88264">
        <ele>274</ele>
        <time>2017-12-12T10:49:46Z</time>
      </trkpt>
      <trkpt lat="45.98204" lon="4.88272">
        <ele>274</ele>
        <time>2017-12-12T10:49:47Z</time>
      </trkpt>
      <trkpt lat="45.98205" lon="4.88279">
        <ele>274</ele>
        <time>2017-12-12T10:49:48Z</time>
      </trkpt>
      <trkpt lat="45.98207" lon="4.88286">
        <ele>274</ele>
        <time>2017-12-12T10:49:49Z</time>
      </trkpt>
      <trkpt lat="45.98208" lon="4.88298">
        <ele>274</ele>
        <time>2017-12-12T10:49:51Z</time>
      </trkpt>
      <trkpt lat="45.98209" lon="4.88304">
        <ele>274</ele>
        <time>2017-12-12T10:49:52Z</time>
      </trkpt>
      <trkpt lat="45.98211" lon="4.88317">
        <ele>274</ele>
        <time>2017-12-12T10:49:54Z</time>
      </trkpt>
      <trkpt lat="45.98211" lon="4.88323">
        <ele>274</ele>
        <time>2017-12-12T10:49:55Z</time>
      </trkpt>
      <trkpt lat="45.98212" lon="4.88331">
        <ele>274</ele>
        <time>2017-12-12T10:49:56Z</time>
      </trkpt>
      <trkpt lat="45.98213" lon="4.88338">
        <ele>275</ele>
        <time>2017-12-12T10:49:57Z</time>
      </trkpt>
      <trkpt lat="45.98213" lon="4.88345">
        <ele>275</ele>
        <time>2017-12-12T10:49:58Z</time>
      </trkpt>
      <trkpt lat="45.98213" lon="4.88352">
        <ele>275</ele>
        <time>2017-12-12T10:49:59Z</time>
      </trkpt>
      <trkpt lat="45.98213" lon="4.88358">
        <ele>275</ele>
        <time>2017-12-12T10:50:00Z</time>
      </trkpt>
      <trkpt lat="45.98213" lon="4.88365">
        <ele>275</ele>
        <time>2017-12-12T10:50:01Z</time>
      </trkpt>
      <trkpt lat="45.98215" lon="4.88372">
        <ele>275</ele>
        <time>2017-12-12T10:50:02Z</time>
      </trkpt>
      <trkpt lat="45.98217" lon="4.8838">
        <ele>275</ele>
        <time>2017-12-12T10:50:03Z</time>
      </trkpt>
      <trkpt lat="45.98218" lon="4.88387">
        <ele>275</ele>
        <time>2017-12-12T10:50:04Z</time>
      </trkpt>
      <trkpt lat="45.98219" lon="4.88394">
        <ele>275</ele>
        <time>2017-12-12T10:50:05Z</time>
      </trkpt>
      <trkpt lat="45.98221" lon="4.88401">
        <ele>275</ele>
        <time>2017-12-12T10:50:06Z</time>
      </trkpt>
      <trkpt lat="45.98222" lon="4.88407">
        <ele>275</ele>
        <time>2017-12-12T10:50:07Z</time>
      </trkpt>
      <trkpt lat="45.98223" lon="4.88413">
        <ele>275</ele>
        <time>2017-12-12T10:50:08Z</time>
      </trkpt>
      <trkpt lat="45.98225" lon="4.8842">
        <ele>276</ele>
        <time>2017-12-12T10:50:09Z</time>
      </trkpt>
      <trkpt lat="45.98227" lon="4.88427">
        <ele>276</ele>
        <time>2017-12-12T10:50:10Z</time>
      </trkpt>
      <trkpt lat="45.98228" lon="4.88433">
        <ele>276</ele>
        <time>2017-12-12T10:50:11Z</time>
      </trkpt>
      <trkpt lat="45.9823" lon="4.88442">
        <ele>276</ele>
        <time>2017-12-12T10:50:12Z</time>
      </trkpt>
      <trkpt lat="45.98231" lon="4.8845">
        <ele>276</ele>
        <time>2017-12-12T10:50:13Z</time>
      </trkpt>
      <trkpt lat="45.98233" lon="4.88457">
        <ele>276</ele>
        <time>2017-12-12T10:50:14Z</time>
      </trkpt>
      <trkpt lat="45.98234" lon="4.88463">
        <ele>276</ele>
        <time>2017-12-12T10:50:15Z</time>
      </trkpt>
      <trkpt lat="45.98236" lon="4.8847">
        <ele>276</ele>
        <time>2017-12-12T10:50:16Z</time>
      </trkpt>
      <trkpt lat="45.98239" lon="4.88477">
        <ele>276</ele>
        <time>2017-12-12T10:50:17Z</time>
      </trkpt>
      <trkpt lat="45.9824" lon="4.88482">
        <ele>276</ele>
        <time>2017-12-12T10:50:18Z</time>
      </trkpt>
      <trkpt lat="45.98242" lon="4.8849">
        <ele>276</ele>
        <time>2017-12-12T10:50:19Z</time>
      </trkpt>
      <trkpt lat="45.98244" lon="4.88496">
        <ele>277</ele>
        <time>2017-12-12T10:50:20Z</time>
      </trkpt>
      <trkpt lat="45.98245" lon="4.88503">
        <ele>277</ele>
        <time>2017-12-12T10:50:21Z</time>
      </trkpt>
      <trkpt lat="45.98247" lon="4.88509">
        <ele>277</ele>
        <time>2017-12-12T10:50:22Z</time>
      </trkpt>
      <trkpt lat="45.98248" lon="4.88515">
        <ele>276</ele>
        <time>2017-12-12T10:50:23Z</time>
      </trkpt>
      <trkpt lat="45.9825" lon="4.88521">
        <ele>276</ele>
        <time>2017-12-12T10:50:24Z</time>
      </trkpt>
      <trkpt lat="45.9825" lon="4.88528">
        <ele>277</ele>
        <time>2017-12-12T10:50:25Z</time>
      </trkpt>
      <trkpt lat="45.98252" lon="4.88534">
        <ele>276</ele>
        <time>2017-12-12T10:50:26Z</time>
      </trkpt>
      <trkpt lat="45.98253" lon="4.88541">
        <ele>276</ele>
        <time>2017-12-12T10:50:27Z</time>
      </trkpt>
      <trkpt lat="45.98256" lon="4.88548">
        <ele>276</ele>
        <time>2017-12-12T10:50:28Z</time>
      </trkpt>
      <trkpt lat="45.98258" lon="4.88555">
        <ele>276</ele>
        <time>2017-12-12T10:50:29Z</time>
      </trkpt>
      <trkpt lat="45.98259" lon="4.88563">
        <ele>276</ele>
        <time>2017-12-12T10:50:30Z</time>
      </trkpt>
      <trkpt lat="45.9826" lon="4.8857">
        <ele>276</ele>
        <time>2017-12-12T10:50:31Z</time>
      </trkpt>
      <trkpt lat="45.98262" lon="4.88578">
        <ele>276</ele>
        <time>2017-12-12T10:50:32Z</time>
      </trkpt>
      <trkpt lat="45.98263" lon="4.88584">
        <ele>275</ele>
        <time>2017-12-12T10:50:33Z</time>
      </trkpt>
      <trkpt lat="45.98267" lon="4.88595">
        <ele>275</ele>
        <time>2017-12-12T10:50:35Z</time>
      </trkpt>
      <trkpt lat="45.98269" lon="4.88601">
        <ele>276</ele>
        <time>2017-12-12T10:50:36Z</time>
      </trkpt>
      <trkpt lat="45.9827" lon="4.88607">
        <ele>276</ele>
        <time>2017-12-12T10:50:37Z</time>
      </trkpt>
      <trkpt lat="45.98271" lon="4.88614">
        <ele>276</ele>
        <time>2017-12-12T10:50:38Z</time>
      </trkpt>
      <trkpt lat="45.98272" lon="4.88621">
        <ele>276</ele>
        <time>2017-12-12T10:50:39Z</time>
      </trkpt>
      <trkpt lat="45.98274" lon="4.88628">
        <ele>276</ele>
        <time>2017-12-12T10:50:40Z</time>
      </trkpt>
      <trkpt lat="45.98276" lon="4.88636">
        <ele>276</ele>
        <time>2017-12-12T10:50:41Z</time>
      </trkpt>
      <trkpt lat="45.98278" lon="4.88643">
        <ele>276</ele>
        <time>2017-12-12T10:50:42Z</time>
      </trkpt>
      <trkpt lat="45.98279" lon="4.8865">
        <ele>276</ele>
        <time>2017-12-12T10:50:43Z</time>
      </trkpt>
      <trkpt lat="45.98282" lon="4.88658">
        <ele>276</ele>
        <time>2017-12-12T10:50:44Z</time>
      </trkpt>
      <trkpt lat="45.98283" lon="4.88664">
        <ele>276</ele>
        <time>2017-12-12T10:50:45Z</time>
      </trkpt>
      <trkpt lat="45.98285" lon="4.88671">
        <ele>276</ele>
        <time>2017-12-12T10:50:46Z</time>
      </trkpt>
      <trkpt lat="45.98288" lon="4.88682">
        <ele>276</ele>
        <time>2017-12-12T10:50:48Z</time>
      </trkpt>
      <trkpt lat="45.9829" lon="4.88688">
        <ele>276</ele>
        <time>2017-12-12T10:50:49Z</time>
      </trkpt>
      <trkpt lat="45.98292" lon="4.88694">
        <ele>276</ele>
        <time>2017-12-12T10:50:50Z</time>
      </trkpt>
      <trkpt lat="45.98294" lon="4.88701">
        <ele>276</ele>
        <time>2017-12-12T10:50:51Z</time>
      </trkpt>
      <trkpt lat="45.98296" lon="4.88707">
        <ele>276</ele>
        <time>2017-12-12T10:50:52Z</time>
      </trkpt>
      <trkpt lat="45.98297" lon="4.88713">
        <ele>276</ele>
        <time>2017-12-12T10:50:53Z</time>
      </trkpt>
      <trkpt lat="45.98299" lon="4.88725">
        <ele>276</ele>
        <time>2017-12-12T10:50:55Z</time>
      </trkpt>
      <trkpt lat="45.98299" lon="4.88732">
        <ele>276</ele>
        <time>2017-12-12T10:50:56Z</time>
      </trkpt>
      <trkpt lat="45.98301" lon="4.88738">
        <ele>276</ele>
        <time>2017-12-12T10:50:57Z</time>
      </trkpt>
      <trkpt lat="45.98303" lon="4.88745">
        <ele>276</ele>
        <time>2017-12-12T10:50:58Z</time>
      </trkpt>
      <trkpt lat="45.98304" lon="4.88752">
        <ele>276</ele>
        <time>2017-12-12T10:50:59Z</time>
      </trkpt>
      <trkpt lat="45.98306" lon="4.88757">
        <ele>276</ele>
        <time>2017-12-12T10:51:00Z</time>
      </trkpt>
      <trkpt lat="45.98307" lon="4.88764">
        <ele>277</ele>
        <time>2017-12-12T10:51:01Z</time>
      </trkpt>
      <trkpt lat="45.98309" lon="4.8877">
        <ele>277</ele>
        <time>2017-12-12T10:51:02Z</time>
      </trkpt>
      <trkpt lat="45.98311" lon="4.88776">
        <ele>277</ele>
        <time>2017-12-12T10:51:03Z</time>
      </trkpt>
      <trkpt lat="45.98312" lon="4.88783">
        <ele>277</ele>
        <time>2017-12-12T10:51:04Z</time>
      </trkpt>
      <trkpt lat="45.98315" lon="4.88795">
        <ele>277</ele>
        <time>2017-12-12T10:51:06Z</time>
      </trkpt>
      <trkpt lat="45.98316" lon="4.88799">
        <ele>277</ele>
        <time>2017-12-12T10:51:07Z</time>
      </trkpt>
      <trkpt lat="45.98319" lon="4.8881">
        <ele>277</ele>
        <time>2017-12-12T10:51:09Z</time>
      </trkpt>
      <trkpt lat="45.9832" lon="4.88817">
        <ele>277</ele>
        <time>2017-12-12T10:51:10Z</time>
      </trkpt>
      <trkpt lat="45.98322" lon="4.88823">
        <ele>277</ele>
        <time>2017-12-12T10:51:11Z</time>
      </trkpt>
      <trkpt lat="45.98323" lon="4.88829">
        <ele>278</ele>
        <time>2017-12-12T10:51:12Z</time>
      </trkpt>
      <trkpt lat="45.98324" lon="4.88841">
        <ele>278</ele>
        <time>2017-12-12T10:51:14Z</time>
      </trkpt>
      <trkpt lat="45.98326" lon="4.88846">
        <ele>278</ele>
        <time>2017-12-12T10:51:15Z</time>
      </trkpt>
      <trkpt lat="45.98329" lon="4.88857">
        <ele>278</ele>
        <time>2017-12-12T10:51:17Z</time>
      </trkpt>
      <trkpt lat="45.98329" lon="4.88864">
        <ele>278</ele>
        <time>2017-12-12T10:51:18Z</time>
      </trkpt>
      <trkpt lat="45.98329" lon="4.88871">
        <ele>278</ele>
        <time>2017-12-12T10:51:19Z</time>
      </trkpt>
      <trkpt lat="45.98331" lon="4.88877">
        <ele>278</ele>
        <time>2017-12-12T10:51:20Z</time>
      </trkpt>
      <trkpt lat="45.98333" lon="4.88884">
        <ele>278</ele>
        <time>2017-12-12T10:51:21Z</time>
      </trkpt>
      <trkpt lat="45.98334" lon="4.8889">
        <ele>280</ele>
        <time>2017-12-12T10:51:22Z</time>
      </trkpt>
      <trkpt lat="45.98336" lon="4.88901">
        <ele>280</ele>
        <time>2017-12-12T10:51:24Z</time>
      </trkpt>
      <trkpt lat="45.98338" lon="4.88907">
        <ele>280</ele>
        <time>2017-12-12T10:51:25Z</time>
      </trkpt>
      <trkpt lat="45.9834" lon="4.88913">
        <ele>279</ele>
        <time>2017-12-12T10:51:26Z</time>
      </trkpt>
      <trkpt lat="45.98342" lon="4.88919">
        <ele>280</ele>
        <time>2017-12-12T10:51:27Z</time>
      </trkpt>
      <trkpt lat="45.98344" lon="4.88931">
        <ele>281</ele>
        <time>2017-12-12T10:51:29Z</time>
      </trkpt>
      <trkpt lat="45.98345" lon="4.88938">
        <ele>281</ele>
        <time>2017-12-12T10:51:30Z</time>
      </trkpt>
      <trkpt lat="45.98348" lon="4.88948">
        <ele>282</ele>
        <time>2017-12-12T10:51:32Z</time>
      </trkpt>
      <trkpt lat="45.9835" lon="4.88954">
        <ele>282</ele>
        <time>2017-12-12T10:51:33Z</time>
      </trkpt>
      <trkpt lat="45.98354" lon="4.88966">
        <ele>282</ele>
        <time>2017-12-12T10:51:35Z</time>
      </trkpt>
      <trkpt lat="45.98355" lon="4.88973">
        <ele>282</ele>
        <time>2017-12-12T10:51:36Z</time>
      </trkpt>
      <trkpt lat="45.98358" lon="4.88983">
        <ele>282</ele>
        <time>2017-12-12T10:51:38Z</time>
      </trkpt>
      <trkpt lat="45.9836" lon="4.88989">
        <ele>282</ele>
        <time>2017-12-12T10:51:39Z</time>
      </trkpt>
      <trkpt lat="45.98363" lon="4.89">
        <ele>283</ele>
        <time>2017-12-12T10:51:41Z</time>
      </trkpt>
      <trkpt lat="45.98365" lon="4.89006">
        <ele>283</ele>
        <time>2017-12-12T10:51:42Z</time>
      </trkpt>
      <trkpt lat="45.98366" lon="4.89012">
        <ele>283</ele>
        <time>2017-12-12T10:51:43Z</time>
      </trkpt>
      <trkpt lat="45.98367" lon="4.89019">
        <ele>283</ele>
        <time>2017-12-12T10:51:44Z</time>
      </trkpt>
      <trkpt lat="45.98368" lon="4.8903">
        <ele>284</ele>
        <time>2017-12-12T10:51:46Z</time>
      </trkpt>
      <trkpt lat="45.9837" lon="4.89036">
        <ele>284</ele>
        <time>2017-12-12T10:51:47Z</time>
      </trkpt>
      <trkpt lat="45.98373" lon="4.89048">
        <ele>284</ele>
        <time>2017-12-12T10:51:49Z</time>
      </trkpt>
      <trkpt lat="45.98375" lon="4.89054">
        <ele>284</ele>
        <time>2017-12-12T10:51:50Z</time>
      </trkpt>
      <trkpt lat="45.9838" lon="4.89064">
        <ele>284</ele>
        <time>2017-12-12T10:51:52Z</time>
      </trkpt>
      <trkpt lat="45.98382" lon="4.89068">
        <ele>285</ele>
        <time>2017-12-12T10:51:53Z</time>
      </trkpt>
      <trkpt lat="45.98384" lon="4.89074">
        <ele>285</ele>
        <time>2017-12-12T10:51:54Z</time>
      </trkpt>
      <trkpt lat="45.98387" lon="4.89079">
        <ele>285</ele>
        <time>2017-12-12T10:51:55Z</time>
      </trkpt>
      <trkpt lat="45.98391" lon="4.89087">
        <ele>285</ele>
        <time>2017-12-12T10:51:57Z</time>
      </trkpt>
      <trkpt lat="45.98394" lon="4.89093">
        <ele>285</ele>
        <time>2017-12-12T10:51:58Z</time>
      </trkpt>
      <trkpt lat="45.98399" lon="4.89103">
        <ele>286</ele>
        <time>2017-12-12T10:52:00Z</time>
      </trkpt>
      <trkpt lat="45.98402" lon="4.89108">
        <ele>285</ele>
        <time>2017-12-12T10:52:01Z</time>
      </trkpt>
      <trkpt lat="45.98408" lon="4.89117">
        <ele>285</ele>
        <time>2017-12-12T10:52:03Z</time>
      </trkpt>
      <trkpt lat="45.98411" lon="4.89121">
        <ele>285</ele>
        <time>2017-12-12T10:52:04Z</time>
      </trkpt>
      <trkpt lat="45.98414" lon="4.89125">
        <ele>285</ele>
        <time>2017-12-12T10:52:05Z</time>
      </trkpt>
      <trkpt lat="45.98417" lon="4.8913">
        <ele>288</ele>
        <time>2017-12-12T10:52:06Z</time>
      </trkpt>
      <trkpt lat="45.98421" lon="4.89134">
        <ele>288</ele>
        <time>2017-12-12T10:52:07Z</time>
      </trkpt>
      <trkpt lat="45.98424" lon="4.89139">
        <ele>288</ele>
        <time>2017-12-12T10:52:08Z</time>
      </trkpt>
      <trkpt lat="45.98428" lon="4.89144">
        <ele>288</ele>
        <time>2017-12-12T10:52:09Z</time>
      </trkpt>
      <trkpt lat="45.98431" lon="4.89148">
        <ele>288</ele>
        <time>2017-12-12T10:52:10Z</time>
      </trkpt>
      <trkpt lat="45.98434" lon="4.89155">
        <ele>288</ele>
        <time>2017-12-12T10:52:11Z</time>
      </trkpt>
      <trkpt lat="45.98436" lon="4.8916">
        <ele>288</ele>
        <time>2017-12-12T10:52:12Z</time>
      </trkpt>
      <trkpt lat="45.98441" lon="4.8917">
        <ele>288</ele>
        <time>2017-12-12T10:52:14Z</time>
      </trkpt>
      <trkpt lat="45.98443" lon="4.89174">
        <ele>288</ele>
        <time>2017-12-12T10:52:15Z</time>
      </trkpt>
      <trkpt lat="45.98448" lon="4.89185">
        <ele>288</ele>
        <time>2017-12-12T10:52:17Z</time>
      </trkpt>
      <trkpt lat="45.9845" lon="4.8919">
        <ele>289</ele>
        <time>2017-12-12T10:52:18Z</time>
      </trkpt>
      <trkpt lat="45.98455" lon="4.89199">
        <ele>289</ele>
        <time>2017-12-12T10:52:20Z</time>
      </trkpt>
      <trkpt lat="45.98457" lon="4.89204">
        <ele>289</ele>
        <time>2017-12-12T10:52:21Z</time>
      </trkpt>
      <trkpt lat="45.98462" lon="4.89214">
        <ele>289</ele>
        <time>2017-12-12T10:52:23Z</time>
      </trkpt>
      <trkpt lat="45.98464" lon="4.89219">
        <ele>289</ele>
        <time>2017-12-12T10:52:24Z</time>
      </trkpt>
      <trkpt lat="45.98469" lon="4.89227">
        <ele>289</ele>
        <time>2017-12-12T10:52:26Z</time>
      </trkpt>
      <trkpt lat="45.98471" lon="4.89231">
        <ele>289</ele>
        <time>2017-12-12T10:52:27Z</time>
      </trkpt>
      <trkpt lat="45.98475" lon="4.8924">
        <ele>289</ele>
        <time>2017-12-12T10:52:29Z</time>
      </trkpt>
      <trkpt lat="45.98478" lon="4.89245">
        <ele>289</ele>
        <time>2017-12-12T10:52:30Z</time>
      </trkpt>
      <trkpt lat="45.98481" lon="4.8925">
        <ele>289</ele>
        <time>2017-12-12T10:52:31Z</time>
      </trkpt>
      <trkpt lat="45.98484" lon="4.89255">
        <ele>291</ele>
        <time>2017-12-12T10:52:32Z</time>
      </trkpt>
      <trkpt lat="45.98487" lon="4.8926">
        <ele>291</ele>
        <time>2017-12-12T10:52:33Z</time>
      </trkpt>
      <trkpt lat="45.98489" lon="4.89266">
        <ele>291</ele>
        <time>2017-12-12T10:52:34Z</time>
      </trkpt>
      <trkpt lat="45.98494" lon="4.89275">
        <ele>292</ele>
        <time>2017-12-12T10:52:36Z</time>
      </trkpt>
      <trkpt lat="45.98497" lon="4.89281">
        <ele>292</ele>
        <time>2017-12-12T10:52:37Z</time>
      </trkpt>
      <trkpt lat="45.985" lon="4.89287">
        <ele>292</ele>
        <time>2017-12-12T10:52:38Z</time>
      </trkpt>
      <trkpt lat="45.98503" lon="4.89291">
        <ele>292</ele>
        <time>2017-12-12T10:52:39Z</time>
      </trkpt>
      <trkpt lat="45.98507" lon="4.89296">
        <ele>293</ele>
        <time>2017-12-12T10:52:40Z</time>
      </trkpt>
      <trkpt lat="45.9851" lon="4.89301">
        <ele>293</ele>
        <time>2017-12-12T10:52:41Z</time>
      </trkpt>
      <trkpt lat="45.98513" lon="4.89306">
        <ele>293</ele>
        <time>2017-12-12T10:52:42Z</time>
      </trkpt>
      <trkpt lat="45.98516" lon="4.89311">
        <ele>293</ele>
        <time>2017-12-12T10:52:43Z</time>
      </trkpt>
      <trkpt lat="45.98519" lon="4.89315">
        <ele>293</ele>
        <time>2017-12-12T10:52:44Z</time>
      </trkpt>
      <trkpt lat="45.98522" lon="4.89321">
        <ele>293</ele>
        <time>2017-12-12T10:52:45Z</time>
      </trkpt>
      <trkpt lat="45.98526" lon="4.89325">
        <ele>293</ele>
        <time>2017-12-12T10:52:46Z</time>
      </trkpt>
      <trkpt lat="45.9853" lon="4.89331">
        <ele>293</ele>
        <time>2017-12-12T10:52:47Z</time>
      </trkpt>
      <trkpt lat="45.98533" lon="4.89336">
        <ele>295</ele>
        <time>2017-12-12T10:52:48Z</time>
      </trkpt>
      <trkpt lat="45.98537" lon="4.89341">
        <ele>295</ele>
        <time>2017-12-12T10:52:49Z</time>
      </trkpt>
      <trkpt lat="45.98541" lon="4.89345">
        <ele>295</ele>
        <time>2017-12-12T10:52:50Z</time>
      </trkpt>
      <trkpt lat="45.98545" lon="4.89351">
        <ele>295</ele>
        <time>2017-12-12T10:52:51Z</time>
      </trkpt>
      <trkpt lat="45.98549" lon="4.89355">
        <ele>295</ele>
        <time>2017-12-12T10:52:52Z</time>
      </trkpt>
      <trkpt lat="45.98553" lon="4.8936">
        <ele>295</ele>
        <time>2017-12-12T10:52:53Z</time>
      </trkpt>
      <trkpt lat="45.98557" lon="4.89365">
        <ele>295</ele>
        <time>2017-12-12T10:52:54Z</time>
      </trkpt>
      <trkpt lat="45.98561" lon="4.8937">
        <ele>295</ele>
        <time>2017-12-12T10:52:55Z</time>
      </trkpt>
      <trkpt lat="45.98565" lon="4.89375">
        <ele>295</ele>
        <time>2017-12-12T10:52:56Z</time>
      </trkpt>
      <trkpt lat="45.9857" lon="4.8938">
        <ele>295</ele>
        <time>2017-12-12T10:52:57Z</time>
      </trkpt>
      <trkpt lat="45.98574" lon="4.89384">
        <ele>295</ele>
        <time>2017-12-12T10:52:58Z</time>
      </trkpt>
      <trkpt lat="45.98579" lon="4.89388">
        <ele>295</ele>
        <time>2017-12-12T10:52:59Z</time>
      </trkpt>
      <trkpt lat="45.98583" lon="4.89393">
        <ele>295</ele>
        <time>2017-12-12T10:53:00Z</time>
      </trkpt>
      <trkpt lat="45.98588" lon="4.89398">
        <ele>292</ele>
        <time>2017-12-12T10:53:01Z</time>
      </trkpt>
      <trkpt lat="45.98592" lon="4.89402">
        <ele>292</ele>
        <time>2017-12-12T10:53:02Z</time>
      </trkpt>
      <trkpt lat="45.98596" lon="4.89407">
        <ele>292</ele>
        <time>2017-12-12T10:53:03Z</time>
      </trkpt>
      <trkpt lat="45.986" lon="4.8941">
        <ele>292</ele>
        <time>2017-12-12T10:53:04Z</time>
      </trkpt>
      <trkpt lat="45.98604" lon="4.89414">
        <ele>292</ele>
        <time>2017-12-12T10:53:05Z</time>
      </trkpt>
      <trkpt lat="45.98609" lon="4.89418">
        <ele>292</ele>
        <time>2017-12-12T10:53:06Z</time>
      </trkpt>
      <trkpt lat="45.98613" lon="4.89422">
        <ele>292</ele>
        <time>2017-12-12T10:53:07Z</time>
      </trkpt>
      <trkpt lat="45.98617" lon="4.89428">
        <ele>292</ele>
        <time>2017-12-12T10:53:08Z</time>
      </trkpt>
      <trkpt lat="45.98622" lon="4.8943">
        <ele>291</ele>
        <time>2017-12-12T10:53:09Z</time>
      </trkpt>
      <trkpt lat="45.98627" lon="4.89433">
        <ele>291</ele>
        <time>2017-12-12T10:53:10Z</time>
      </trkpt>
      <trkpt lat="45.98631" lon="4.89438">
        <ele>291</ele>
        <time>2017-12-12T10:53:11Z</time>
      </trkpt>
      <trkpt lat="45.98635" lon="4.89442">
        <ele>291</ele>
        <time>2017-12-12T10:53:12Z</time>
      </trkpt>
      <trkpt lat="45.98639" lon="4.89446">
        <ele>291</ele>
        <time>2017-12-12T10:53:13Z</time>
      </trkpt>
      <trkpt lat="45.98643" lon="4.89451">
        <ele>291</ele>
        <time>2017-12-12T10:53:14Z</time>
      </trkpt>
      <trkpt lat="45.98647" lon="4.89455">
        <ele>291</ele>
        <time>2017-12-12T10:53:15Z</time>
      </trkpt>
      <trkpt lat="45.98651" lon="4.8946">
        <ele>290</ele>
        <time>2017-12-12T10:53:16Z</time>
      </trkpt>
      <trkpt lat="45.98655" lon="4.89464">
        <ele>290</ele>
        <time>2017-12-12T10:53:17Z</time>
      </trkpt>
      <trkpt lat="45.98659" lon="4.89468">
        <ele>290</ele>
        <time>2017-12-12T10:53:18Z</time>
      </trkpt>
      <trkpt lat="45.98663" lon="4.89473">
        <ele>290</ele>
        <time>2017-12-12T10:53:19Z</time>
      </trkpt>
      <trkpt lat="45.98666" lon="4.89477">
        <ele>290</ele>
        <time>2017-12-12T10:53:20Z</time>
      </trkpt>
      <trkpt lat="45.9867" lon="4.89482">
        <ele>289</ele>
        <time>2017-12-12T10:53:21Z</time>
      </trkpt>
      <trkpt lat="45.98673" lon="4.89487">
        <ele>289</ele>
        <time>2017-12-12T10:53:22Z</time>
      </trkpt>
      <trkpt lat="45.98677" lon="4.89492">
        <ele>289</ele>
        <time>2017-12-12T10:53:23Z</time>
      </trkpt>
      <trkpt lat="45.98681" lon="4.89497">
        <ele>289</ele>
        <time>2017-12-12T10:53:24Z</time>
      </trkpt>
      <trkpt lat="45.98684" lon="4.89503">
        <ele>289</ele>
        <time>2017-12-12T10:53:25Z</time>
      </trkpt>
      <trkpt lat="45.98687" lon="4.89508">
        <ele>289</ele>
        <time>2017-12-12T10:53:26Z</time>
      </trkpt>
      <trkpt lat="45.98691" lon="4.89513">
        <ele>289</ele>
        <time>2017-12-12T10:53:27Z</time>
      </trkpt>
      <trkpt lat="45.98695" lon="4.89518">
        <ele>289</ele>
        <time>2017-12-12T10:53:28Z</time>
      </trkpt>
      <trkpt lat="45.98698" lon="4.89524">
        <ele>289</ele>
        <time>2017-12-12T10:53:29Z</time>
      </trkpt>
      <trkpt lat="45.98701" lon="4.8953">
        <ele>289</ele>
        <time>2017-12-12T10:53:30Z</time>
      </trkpt>
      <trkpt lat="45.98705" lon="4.89535">
        <ele>289</ele>
        <time>2017-12-12T10:53:31Z</time>
      </trkpt>
      <trkpt lat="45.98709" lon="4.89541">
        <ele>289</ele>
        <time>2017-12-12T10:53:32Z</time>
      </trkpt>
      <trkpt lat="45.98714" lon="4.89546">
        <ele>290</ele>
        <time>2017-12-12T10:53:33Z</time>
      </trkpt>
      <trkpt lat="45.98718" lon="4.89551">
        <ele>290</ele>
        <time>2017-12-12T10:53:34Z</time>
      </trkpt>
      <trkpt lat="45.98721" lon="4.89556">
        <ele>290</ele>
        <time>2017-12-12T10:53:35Z</time>
      </trkpt>
      <trkpt lat="45.98726" lon="4.89562">
        <ele>290</ele>
        <time>2017-12-12T10:53:36Z</time>
      </trkpt>
      <trkpt lat="45.9873" lon="4.89567">
        <ele>290</ele>
        <time>2017-12-12T10:53:37Z</time>
      </trkpt>
      <trkpt lat="45.98735" lon="4.89572">
        <ele>290</ele>
        <time>2017-12-12T10:53:38Z</time>
      </trkpt>
      <trkpt lat="45.98739" lon="4.89577">
        <ele>290</ele>
        <time>2017-12-12T10:53:39Z</time>
      </trkpt>
      <trkpt lat="45.98742" lon="4.89582">
        <ele>291</ele>
        <time>2017-12-12T10:53:40Z</time>
      </trkpt>
      <trkpt lat="45.98746" lon="4.89586">
        <ele>291</ele>
        <time>2017-12-12T10:53:41Z</time>
      </trkpt>
      <trkpt lat="45.98749" lon="4.89591">
        <ele>291</ele>
        <time>2017-12-12T10:53:42Z</time>
      </trkpt>
      <trkpt lat="45.98752" lon="4.89596">
        <ele>291</ele>
        <time>2017-12-12T10:53:43Z</time>
      </trkpt>
      <trkpt lat="45.98759" lon="4.89605">
        <ele>291</ele>
        <time>2017-12-12T10:53:45Z</time>
      </trkpt>
      <trkpt lat="45.98762" lon="4.8961">
        <ele>291</ele>
        <time>2017-12-12T10:53:46Z</time>
      </trkpt>
      <trkpt lat="45.98766" lon="4.89614">
        <ele>291</ele>
        <time>2017-12-12T10:53:47Z</time>
      </trkpt>
      <trkpt lat="45.98769" lon="4.8962">
        <ele>291</ele>
        <time>2017-12-12T10:53:48Z</time>
      </trkpt>
      <trkpt lat="45.98773" lon="4.89625">
        <ele>291</ele>
        <time>2017-12-12T10:53:49Z</time>
      </trkpt>
      <trkpt lat="45.98776" lon="4.8963">
        <ele>291</ele>
        <time>2017-12-12T10:53:50Z</time>
      </trkpt>
      <trkpt lat="45.98782" lon="4.89639">
        <ele>291</ele>
        <time>2017-12-12T10:53:52Z</time>
      </trkpt>
      <trkpt lat="45.98786" lon="4.89643">
        <ele>291</ele>
        <time>2017-12-12T10:53:53Z</time>
      </trkpt>
      <trkpt lat="45.98792" lon="4.89652">
        <ele>291</ele>
        <time>2017-12-12T10:53:55Z</time>
      </trkpt>
      <trkpt lat="45.98794" lon="4.89656">
        <ele>291</ele>
        <time>2017-12-12T10:53:56Z</time>
      </trkpt>
      <trkpt lat="45.98798" lon="4.89661">
        <ele>291</ele>
        <time>2017-12-12T10:53:57Z</time>
      </trkpt>
      <trkpt lat="45.98801" lon="4.89665">
        <ele>291</ele>
        <time>2017-12-12T10:53:58Z</time>
      </trkpt>
      <trkpt lat="45.98807" lon="4.89673">
        <ele>292</ele>
        <time>2017-12-12T10:54:00Z</time>
      </trkpt>
      <trkpt lat="45.98812" lon="4.89677">
        <ele>292</ele>
        <time>2017-12-12T10:54:01Z</time>
      </trkpt>
      <trkpt lat="45.98816" lon="4.8968">
        <ele>292</ele>
        <time>2017-12-12T10:54:02Z</time>
      </trkpt>
      <trkpt lat="45.9882" lon="4.89684">
        <ele>292</ele>
        <time>2017-12-12T10:54:03Z</time>
      </trkpt>
      <trkpt lat="45.98824" lon="4.89688">
        <ele>292</ele>
        <time>2017-12-12T10:54:04Z</time>
      </trkpt>
      <trkpt lat="45.98829" lon="4.89692">
        <ele>292</ele>
        <time>2017-12-12T10:54:05Z</time>
      </trkpt>
      <trkpt lat="45.98834" lon="4.89696">
        <ele>292</ele>
        <time>2017-12-12T10:54:06Z</time>
      </trkpt>
      <trkpt lat="45.98838" lon="4.897">
        <ele>292</ele>
        <time>2017-12-12T10:54:07Z</time>
      </trkpt>
      <trkpt lat="45.98842" lon="4.89704">
        <ele>292</ele>
        <time>2017-12-12T10:54:08Z</time>
      </trkpt>
      <trkpt lat="45.98846" lon="4.89709">
        <ele>293</ele>
        <time>2017-12-12T10:54:09Z</time>
      </trkpt>
      <trkpt lat="45.98854" lon="4.89715">
        <ele>293</ele>
        <time>2017-12-12T10:54:11Z</time>
      </trkpt>
      <trkpt lat="45.98858" lon="4.89719">
        <ele>293</ele>
        <time>2017-12-12T10:54:12Z</time>
      </trkpt>
      <trkpt lat="45.98862" lon="4.89723">
        <ele>293</ele>
        <time>2017-12-12T10:54:13Z</time>
      </trkpt>
      <trkpt lat="45.98867" lon="4.89725">
        <ele>293</ele>
        <time>2017-12-12T10:54:14Z</time>
      </trkpt>
      <trkpt lat="45.98872" lon="4.89729">
        <ele>293</ele>
        <time>2017-12-12T10:54:15Z</time>
      </trkpt>
      <trkpt lat="45.98876" lon="4.89732">
        <ele>293</ele>
        <time>2017-12-12T10:54:16Z</time>
      </trkpt>
      <trkpt lat="45.98881" lon="4.89736">
        <ele>293</ele>
        <time>2017-12-12T10:54:17Z</time>
      </trkpt>
      <trkpt lat="45.98883" lon="4.89741">
        <ele>293</ele>
        <time>2017-12-12T10:54:18Z</time>
      </trkpt>
      <trkpt lat="45.98887" lon="4.89744">
        <ele>293</ele>
        <time>2017-12-12T10:54:19Z</time>
      </trkpt>
      <trkpt lat="45.98892" lon="4.89748">
        <ele>293</ele>
        <time>2017-12-12T10:54:20Z</time>
      </trkpt>
      <trkpt lat="45.989" lon="4.89754">
        <ele>293</ele>
        <time>2017-12-12T10:54:22Z</time>
      </trkpt>
      <trkpt lat="45.98905" lon="4.89757">
        <ele>293</ele>
        <time>2017-12-12T10:54:23Z</time>
      </trkpt>
      <trkpt lat="45.98911" lon="4.8976">
        <ele>293</ele>
        <time>2017-12-12T10:54:24Z</time>
      </trkpt>
      <trkpt lat="45.98916" lon="4.89763">
        <ele>293</ele>
        <time>2017-12-12T10:54:25Z</time>
      </trkpt>
      <trkpt lat="45.98921" lon="4.89765">
        <ele>293</ele>
        <time>2017-12-12T10:54:26Z</time>
      </trkpt>
      <trkpt lat="45.98926" lon="4.89769">
        <ele>293</ele>
        <time>2017-12-12T10:54:27Z</time>
      </trkpt>
      <trkpt lat="45.98931" lon="4.89772">
        <ele>293</ele>
        <time>2017-12-12T10:54:28Z</time>
      </trkpt>
      <trkpt lat="45.98936" lon="4.89777">
        <ele>293</ele>
        <time>2017-12-12T10:54:29Z</time>
      </trkpt>
      <trkpt lat="45.98941" lon="4.8978">
        <ele>293</ele>
        <time>2017-12-12T10:54:30Z</time>
      </trkpt>
      <trkpt lat="45.98946" lon="4.89784">
        <ele>293</ele>
        <time>2017-12-12T10:54:31Z</time>
      </trkpt>
      <trkpt lat="45.98951" lon="4.89787">
        <ele>293</ele>
        <time>2017-12-12T10:54:32Z</time>
      </trkpt>
      <trkpt lat="45.98956" lon="4.89792">
        <ele>293</ele>
        <time>2017-12-12T10:54:33Z</time>
      </trkpt>
      <trkpt lat="45.98961" lon="4.89796">
        <ele>293</ele>
        <time>2017-12-12T10:54:34Z</time>
      </trkpt>
      <trkpt lat="45.98965" lon="4.898">
        <ele>293</ele>
        <time>2017-12-12T10:54:35Z</time>
      </trkpt>
      <trkpt lat="45.9897" lon="4.89805">
        <ele>293</ele>
        <time>2017-12-12T10:54:36Z</time>
      </trkpt>
      <trkpt lat="45.98976" lon="4.89809">
        <ele>293</ele>
        <time>2017-12-12T10:54:37Z</time>
      </trkpt>
      <trkpt lat="45.98978" lon="4.89813">
        <ele>293</ele>
        <time>2017-12-12T10:54:38Z</time>
      </trkpt>
      <trkpt lat="45.98982" lon="4.89818">
        <ele>293</ele>
        <time>2017-12-12T10:54:39Z</time>
      </trkpt>
      <trkpt lat="45.98987" lon="4.89823">
        <ele>293</ele>
        <time>2017-12-12T10:54:40Z</time>
      </trkpt>
      <trkpt lat="45.9899" lon="4.89829">
        <ele>293</ele>
        <time>2017-12-12T10:54:41Z</time>
      </trkpt>
      <trkpt lat="45.98995" lon="4.89834">
        <ele>293</ele>
        <time>2017-12-12T10:54:42Z</time>
      </trkpt>
      <trkpt lat="45.98999" lon="4.89838">
        <ele>293</ele>
        <time>2017-12-12T10:54:43Z</time>
      </trkpt>
      <trkpt lat="45.99003" lon="4.89843">
        <ele>293</ele>
        <time>2017-12-12T10:54:44Z</time>
      </trkpt>
      <trkpt lat="45.99006" lon="4.89848">
        <ele>293</ele>
        <time>2017-12-12T10:54:45Z</time>
      </trkpt>
      <trkpt lat="45.99009" lon="4.89854">
        <ele>293</ele>
        <time>2017-12-12T10:54:46Z</time>
      </trkpt>
      <trkpt lat="45.99012" lon="4.89858">
        <ele>293</ele>
        <time>2017-12-12T10:54:47Z</time>
      </trkpt>
      <trkpt lat="45.99016" lon="4.89863">
        <ele>293</ele>
        <time>2017-12-12T10:54:48Z</time>
      </trkpt>
      <trkpt lat="45.9902" lon="4.89868">
        <ele>293</ele>
        <time>2017-12-12T10:54:49Z</time>
      </trkpt>
      <trkpt lat="45.99025" lon="4.89873">
        <ele>293</ele>
        <time>2017-12-12T10:54:50Z</time>
      </trkpt>
      <trkpt lat="45.99028" lon="4.89878">
        <ele>293</ele>
        <time>2017-12-12T10:54:51Z</time>
      </trkpt>
      <trkpt lat="45.99032" lon="4.89883">
        <ele>293</ele>
        <time>2017-12-12T10:54:52Z</time>
      </trkpt>
      <trkpt lat="45.99035" lon="4.89888">
        <ele>293</ele>
        <time>2017-12-12T10:54:53Z</time>
      </trkpt>
      <trkpt lat="45.99039" lon="4.89894">
        <ele>293</ele>
        <time>2017-12-12T10:54:54Z</time>
      </trkpt>
      <trkpt lat="45.99044" lon="4.89898">
        <ele>293</ele>
        <time>2017-12-12T10:54:55Z</time>
      </trkpt>
      <trkpt lat="45.99047" lon="4.89903">
        <ele>293</ele>
        <time>2017-12-12T10:54:56Z</time>
      </trkpt>
      <trkpt lat="45.99052" lon="4.89909">
        <ele>293</ele>
        <time>2017-12-12T10:54:57Z</time>
      </trkpt>
      <trkpt lat="45.99056" lon="4.89914">
        <ele>293</ele>
        <time>2017-12-12T10:54:58Z</time>
      </trkpt>
      <trkpt lat="45.99061" lon="4.89919">
        <ele>294</ele>
        <time>2017-12-12T10:54:59Z</time>
      </trkpt>
      <trkpt lat="45.99065" lon="4.89924">
        <ele>294</ele>
        <time>2017-12-12T10:55:00Z</time>
      </trkpt>
      <trkpt lat="45.99069" lon="4.89929">
        <ele>294</ele>
        <time>2017-12-12T10:55:01Z</time>
      </trkpt>
      <trkpt lat="45.99072" lon="4.89936">
        <ele>294</ele>
        <time>2017-12-12T10:55:02Z</time>
      </trkpt>
      <trkpt lat="45.99076" lon="4.89941">
        <ele>294</ele>
        <time>2017-12-12T10:55:03Z</time>
      </trkpt>
      <trkpt lat="45.9908" lon="4.89946">
        <ele>294</ele>
        <time>2017-12-12T10:55:04Z</time>
      </trkpt>
      <trkpt lat="45.99083" lon="4.89952">
        <ele>294</ele>
        <time>2017-12-12T10:55:05Z</time>
      </trkpt>
      <trkpt lat="45.99087" lon="4.89959">
        <ele>295</ele>
        <time>2017-12-12T10:55:06Z</time>
      </trkpt>
      <trkpt lat="45.9909" lon="4.89964">
        <ele>295</ele>
        <time>2017-12-12T10:55:07Z</time>
      </trkpt>
      <trkpt lat="45.99094" lon="4.8997">
        <ele>295</ele>
        <time>2017-12-12T10:55:08Z</time>
      </trkpt>
      <trkpt lat="45.99098" lon="4.89975">
        <ele>295</ele>
        <time>2017-12-12T10:55:09Z</time>
      </trkpt>
      <trkpt lat="45.99102" lon="4.8998">
        <ele>295</ele>
        <time>2017-12-12T10:55:10Z</time>
      </trkpt>
      <trkpt lat="45.99105" lon="4.89985">
        <ele>295</ele>
        <time>2017-12-12T10:55:11Z</time>
      </trkpt>
      <trkpt lat="45.99109" lon="4.89991">
        <ele>295</ele>
        <time>2017-12-12T10:55:12Z</time>
      </trkpt>
      <trkpt lat="45.99112" lon="4.89996">
        <ele>295</ele>
        <time>2017-12-12T10:55:13Z</time>
      </trkpt>
      <trkpt lat="45.99118" lon="4.90005">
        <ele>296</ele>
        <time>2017-12-12T10:55:15Z</time>
      </trkpt>
      <trkpt lat="45.99121" lon="4.9001">
        <ele>296</ele>
        <time>2017-12-12T10:55:16Z</time>
      </trkpt>
      <trkpt lat="45.99123" lon="4.90015">
        <ele>296</ele>
        <time>2017-12-12T10:55:17Z</time>
      </trkpt>
      <trkpt lat="45.99127" lon="4.9002">
        <ele>296</ele>
        <time>2017-12-12T10:55:18Z</time>
      </trkpt>
      <trkpt lat="45.99131" lon="4.90025">
        <ele>296</ele>
        <time>2017-12-12T10:55:19Z</time>
      </trkpt>
      <trkpt lat="45.99135" lon="4.9003">
        <ele>297</ele>
        <time>2017-12-12T10:55:20Z</time>
      </trkpt>
      <trkpt lat="45.9914" lon="4.90035">
        <ele>297</ele>
        <time>2017-12-12T10:55:21Z</time>
      </trkpt>
      <trkpt lat="45.99144" lon="4.9004">
        <ele>297</ele>
        <time>2017-12-12T10:55:22Z</time>
      </trkpt>
      <trkpt lat="45.99148" lon="4.90046">
        <ele>297</ele>
        <time>2017-12-12T10:55:23Z</time>
      </trkpt>
      <trkpt lat="45.99152" lon="4.90051">
        <ele>297</ele>
        <time>2017-12-12T10:55:24Z</time>
      </trkpt>
      <trkpt lat="45.99156" lon="4.90057">
        <ele>297</ele>
        <time>2017-12-12T10:55:25Z</time>
      </trkpt>
      <trkpt lat="45.9916" lon="4.90062">
        <ele>297</ele>
        <time>2017-12-12T10:55:26Z</time>
      </trkpt>
      <trkpt lat="45.99163" lon="4.90067">
        <ele>297</ele>
        <time>2017-12-12T10:55:27Z</time>
      </trkpt>
      <trkpt lat="45.99169" lon="4.90072">
        <ele>297</ele>
        <time>2017-12-12T10:55:28Z</time>
      </trkpt>
      <trkpt lat="45.99173" lon="4.90077">
        <ele>298</ele>
        <time>2017-12-12T10:55:29Z</time>
      </trkpt>
      <trkpt lat="45.99177" lon="4.90082">
        <ele>298</ele>
        <time>2017-12-12T10:55:30Z</time>
      </trkpt>
      <trkpt lat="45.99181" lon="4.90087">
        <ele>297</ele>
        <time>2017-12-12T10:55:31Z</time>
      </trkpt>
      <trkpt lat="45.99185" lon="4.90093">
        <ele>297</ele>
        <time>2017-12-12T10:55:32Z</time>
      </trkpt>
      <trkpt lat="45.9919" lon="4.90098">
        <ele>297</ele>
        <time>2017-12-12T10:55:33Z</time>
      </trkpt>
      <trkpt lat="45.99193" lon="4.90103">
        <ele>297</ele>
        <time>2017-12-12T10:55:34Z</time>
      </trkpt>
      <trkpt lat="45.99197" lon="4.90109">
        <ele>297</ele>
        <time>2017-12-12T10:55:35Z</time>
      </trkpt>
      <trkpt lat="45.99202" lon="4.90114">
        <ele>297</ele>
        <time>2017-12-12T10:55:36Z</time>
      </trkpt>
      <trkpt lat="45.99206" lon="4.90118">
        <ele>297</ele>
        <time>2017-12-12T10:55:37Z</time>
      </trkpt>
      <trkpt lat="45.99209" lon="4.90123">
        <ele>297</ele>
        <time>2017-12-12T10:55:38Z</time>
      </trkpt>
      <trkpt lat="45.99212" lon="4.90128">
        <ele>297</ele>
        <time>2017-12-12T10:55:39Z</time>
      </trkpt>
      <trkpt lat="45.99216" lon="4.90133">
        <ele>297</ele>
        <time>2017-12-12T10:55:40Z</time>
      </trkpt>
      <trkpt lat="45.99223" lon="4.90141">
        <ele>297</ele>
        <time>2017-12-12T10:55:42Z</time>
      </trkpt>
      <trkpt lat="45.99226" lon="4.90145">
        <ele>297</ele>
        <time>2017-12-12T10:55:43Z</time>
      </trkpt>
      <trkpt lat="45.99232" lon="4.90154">
        <ele>297</ele>
        <time>2017-12-12T10:55:45Z</time>
      </trkpt>
      <trkpt lat="45.99236" lon="4.90159">
        <ele>297</ele>
        <time>2017-12-12T10:55:46Z</time>
      </trkpt>
      <trkpt lat="45.9924" lon="4.90163">
        <ele>297</ele>
        <time>2017-12-12T10:55:47Z</time>
      </trkpt>
      <trkpt lat="45.99243" lon="4.9017">
        <ele>297</ele>
        <time>2017-12-12T10:55:48Z</time>
      </trkpt>
      <trkpt lat="45.99247" lon="4.90177">
        <ele>297</ele>
        <time>2017-12-12T10:55:49Z</time>
      </trkpt>
      <trkpt lat="45.99251" lon="4.90183">
        <ele>297</ele>
        <time>2017-12-12T10:55:50Z</time>
      </trkpt>
      <trkpt lat="45.99254" lon="4.90187">
        <ele>298</ele>
        <time>2017-12-12T10:55:51Z</time>
      </trkpt>
      <trkpt lat="45.99258" lon="4.90192">
        <ele>298</ele>
        <time>2017-12-12T10:55:52Z</time>
      </trkpt>
      <trkpt lat="45.99262" lon="4.90197">
        <ele>298</ele>
        <time>2017-12-12T10:55:53Z</time>
      </trkpt>
      <trkpt lat="45.99265" lon="4.90203">
        <ele>298</ele>
        <time>2017-12-12T10:55:54Z</time>
      </trkpt>
      <trkpt lat="45.99268" lon="4.90207">
        <ele>298</ele>
        <time>2017-12-12T10:55:55Z</time>
      </trkpt>
      <trkpt lat="45.99271" lon="4.90212">
        <ele>298</ele>
        <time>2017-12-12T10:55:56Z</time>
      </trkpt>
      <trkpt lat="45.99277" lon="4.90222">
        <ele>298</ele>
        <time>2017-12-12T10:55:58Z</time>
      </trkpt>
      <trkpt lat="45.99279" lon="4.90226">
        <ele>298</ele>
        <time>2017-12-12T10:55:59Z</time>
      </trkpt>
      <trkpt lat="45.99283" lon="4.9023">
        <ele>298</ele>
        <time>2017-12-12T10:56:00Z</time>
      </trkpt>
      <trkpt lat="45.99287" lon="4.90234">
        <ele>298</ele>
        <time>2017-12-12T10:56:01Z</time>
      </trkpt>
      <trkpt lat="45.9929" lon="4.90238">
        <ele>298</ele>
        <time>2017-12-12T10:56:02Z</time>
      </trkpt>
      <trkpt lat="45.99294" lon="4.90242">
        <ele>298</ele>
        <time>2017-12-12T10:56:03Z</time>
      </trkpt>
      <trkpt lat="45.99301" lon="4.9025">
        <ele>299</ele>
        <time>2017-12-12T10:56:05Z</time>
      </trkpt>
      <trkpt lat="45.99303" lon="4.90255">
        <ele>299</ele>
        <time>2017-12-12T10:56:06Z</time>
      </trkpt>
      <trkpt lat="45.99308" lon="4.90263">
        <ele>299</ele>
        <time>2017-12-12T10:56:08Z</time>
      </trkpt>
      <trkpt lat="45.9931" lon="4.90268">
        <ele>299</ele>
        <time>2017-12-12T10:56:09Z</time>
      </trkpt>
      <trkpt lat="45.99313" lon="4.90278">
        <ele>299</ele>
        <time>2017-12-12T10:56:11Z</time>
      </trkpt>
      <trkpt lat="45.99313" lon="4.90281">
        <ele>299</ele>
        <time>2017-12-12T10:56:12Z</time>
      </trkpt>
      <trkpt lat="45.9932" lon="4.9029">
        <ele>299</ele>
        <time>2017-12-12T10:56:15Z</time>
      </trkpt>
      <trkpt lat="45.99323" lon="4.90292">
        <ele>299</ele>
        <time>2017-12-12T10:56:16Z</time>
      </trkpt>
      <trkpt lat="45.99331" lon="4.90293">
        <ele>299</ele>
        <time>2017-12-12T10:56:18Z</time>
      </trkpt>
      <trkpt lat="45.99335" lon="4.90292">
        <ele>300</ele>
        <time>2017-12-12T10:56:19Z</time>
      </trkpt>
      <trkpt lat="45.99339" lon="4.90292">
        <ele>300</ele>
        <time>2017-12-12T10:56:20Z</time>
      </trkpt>
      <trkpt lat="45.99345" lon="4.90293">
        <ele>300</ele>
        <time>2017-12-12T10:56:21Z</time>
      </trkpt>
      <trkpt lat="45.9935" lon="4.90294">
        <ele>300</ele>
        <time>2017-12-12T10:56:22Z</time>
      </trkpt>
      <trkpt lat="45.99355" lon="4.90294">
        <ele>300</ele>
        <time>2017-12-12T10:56:23Z</time>
      </trkpt>
      <trkpt lat="45.9936" lon="4.90296">
        <ele>300</ele>
        <time>2017-12-12T10:56:24Z</time>
      </trkpt>
      <trkpt lat="45.99365" lon="4.90296">
        <ele>300</ele>
        <time>2017-12-12T10:56:25Z</time>
      </trkpt>
      <trkpt lat="45.9937" lon="4.90296">
        <ele>300</ele>
        <time>2017-12-12T10:56:26Z</time>
      </trkpt>
      <trkpt lat="45.99375" lon="4.90296">
        <ele>300</ele>
        <time>2017-12-12T10:56:27Z</time>
      </trkpt>
      <trkpt lat="45.9938" lon="4.90297">
        <ele>300</ele>
        <time>2017-12-12T10:56:28Z</time>
      </trkpt>
      <trkpt lat="45.99386" lon="4.90297">
        <ele>300</ele>
        <time>2017-12-12T10:56:29Z</time>
      </trkpt>
      <trkpt lat="45.99394" lon="4.90298">
        <ele>300</ele>
        <time>2017-12-12T10:56:31Z</time>
      </trkpt>
      <trkpt lat="45.99399" lon="4.90299">
        <ele>300</ele>
        <time>2017-12-12T10:56:32Z</time>
      </trkpt>
      <trkpt lat="45.99404" lon="4.903">
        <ele>300</ele>
        <time>2017-12-12T10:56:33Z</time>
      </trkpt>
      <trkpt lat="45.9941" lon="4.90299">
        <ele>300</ele>
        <time>2017-12-12T10:56:34Z</time>
      </trkpt>
      <trkpt lat="45.99416" lon="4.903">
        <ele>300</ele>
        <time>2017-12-12T10:56:35Z</time>
      </trkpt>
      <trkpt lat="45.99423" lon="4.903">
        <ele>300</ele>
        <time>2017-12-12T10:56:36Z</time>
      </trkpt>
      <trkpt lat="45.99428" lon="4.903">
        <ele>300</ele>
        <time>2017-12-12T10:56:37Z</time>
      </trkpt>
      <trkpt lat="45.99433" lon="4.903">
        <ele>300</ele>
        <time>2017-12-12T10:56:38Z</time>
      </trkpt>
      <trkpt lat="45.99437" lon="4.90302">
        <ele>300</ele>
        <time>2017-12-12T10:56:39Z</time>
      </trkpt>
      <trkpt lat="45.99442" lon="4.90304">
        <ele>300</ele>
        <time>2017-12-12T10:56:40Z</time>
      </trkpt>
      <trkpt lat="45.99447" lon="4.90306">
        <ele>300</ele>
        <time>2017-12-12T10:56:41Z</time>
      </trkpt>
      <trkpt lat="45.99451" lon="4.90307">
        <ele>300</ele>
        <time>2017-12-12T10:56:42Z</time>
      </trkpt>
      <trkpt lat="45.99457" lon="4.90308">
        <ele>300</ele>
        <time>2017-12-12T10:56:43Z</time>
      </trkpt>
      <trkpt lat="45.99461" lon="4.90311">
        <ele>300</ele>
        <time>2017-12-12T10:56:44Z</time>
      </trkpt>
      <trkpt lat="45.99467" lon="4.90311">
        <ele>300</ele>
        <time>2017-12-12T10:56:45Z</time>
      </trkpt>
      <trkpt lat="45.99472" lon="4.90312">
        <ele>300</ele>
        <time>2017-12-12T10:56:46Z</time>
      </trkpt>
      <trkpt lat="45.99478" lon="4.90313">
        <ele>300</ele>
        <time>2017-12-12T10:56:47Z</time>
      </trkpt>
      <trkpt lat="45.99483" lon="4.90313">
        <ele>300</ele>
        <time>2017-12-12T10:56:48Z</time>
      </trkpt>
      <trkpt lat="45.99489" lon="4.90314">
        <ele>300</ele>
        <time>2017-12-12T10:56:49Z</time>
      </trkpt>
      <trkpt lat="45.99495" lon="4.90314">
        <ele>300</ele>
        <time>2017-12-12T10:56:50Z</time>
      </trkpt>
      <trkpt lat="45.99499" lon="4.90315">
        <ele>300</ele>
        <time>2017-12-12T10:56:51Z</time>
      </trkpt>
      <trkpt lat="45.99505" lon="4.90316">
        <ele>301</ele>
        <time>2017-12-12T10:56:52Z</time>
      </trkpt>
      <trkpt lat="45.9951" lon="4.90315">
        <ele>301</ele>
        <time>2017-12-12T10:56:53Z</time>
      </trkpt>
      <trkpt lat="45.99514" lon="4.90315">
        <ele>301</ele>
        <time>2017-12-12T10:56:54Z</time>
      </trkpt>
      <trkpt lat="45.99522" lon="4.90317">
        <ele>300</ele>
        <time>2017-12-12T10:56:56Z</time>
      </trkpt>
      <trkpt lat="45.99525" lon="4.90316">
        <ele>300</ele>
        <time>2017-12-12T10:56:57Z</time>
      </trkpt>
      <trkpt lat="45.99532" lon="4.90317">
        <ele>300</ele>
        <time>2017-12-12T10:56:59Z</time>
      </trkpt>
      <trkpt lat="45.99538" lon="4.90317">
        <ele>300</ele>
        <time>2017-12-12T10:57:00Z</time>
      </trkpt>
      <trkpt lat="45.99546" lon="4.90317">
        <ele>300</ele>
        <time>2017-12-12T10:57:02Z</time>
      </trkpt>
      <trkpt lat="45.99551" lon="4.90318">
        <ele>300</ele>
        <time>2017-12-12T10:57:03Z</time>
      </trkpt>
      <trkpt lat="45.99559" lon="4.9032">
        <ele>301</ele>
        <time>2017-12-12T10:57:05Z</time>
      </trkpt>
      <trkpt lat="45.99562" lon="4.90321">
        <ele>301</ele>
        <time>2017-12-12T10:57:06Z</time>
      </trkpt>
      <trkpt lat="45.9957" lon="4.90322">
        <ele>301</ele>
        <time>2017-12-12T10:57:08Z</time>
      </trkpt>
      <trkpt lat="45.99573" lon="4.90324">
        <ele>301</ele>
        <time>2017-12-12T10:57:09Z</time>
      </trkpt>
      <trkpt lat="45.99582" lon="4.90323">
        <ele>301</ele>
        <time>2017-12-12T10:57:11Z</time>
      </trkpt>
      <trkpt lat="45.99585" lon="4.90323">
        <ele>301</ele>
        <time>2017-12-12T10:57:12Z</time>
      </trkpt>
      <trkpt lat="45.99591" lon="4.90324">
        <ele>301</ele>
        <time>2017-12-12T10:57:14Z</time>
      </trkpt>
      <trkpt lat="45.99595" lon="4.90325">
        <ele>301</ele>
        <time>2017-12-12T10:57:15Z</time>
      </trkpt>
      <trkpt lat="45.99603" lon="4.90326">
        <ele>301</ele>
        <time>2017-12-12T10:57:17Z</time>
      </trkpt>
      <trkpt lat="45.99607" lon="4.90326">
        <ele>301</ele>
        <time>2017-12-12T10:57:18Z</time>
      </trkpt>
      <trkpt lat="45.99616" lon="4.90328">
        <ele>302</ele>
        <time>2017-12-12T10:57:20Z</time>
      </trkpt>
      <trkpt lat="45.9962" lon="4.90328">
        <ele>302</ele>
        <time>2017-12-12T10:57:21Z</time>
      </trkpt>
      <trkpt lat="45.99628" lon="4.90331">
        <ele>302</ele>
        <time>2017-12-12T10:57:23Z</time>
      </trkpt>
      <trkpt lat="45.99632" lon="4.90333">
        <ele>302</ele>
        <time>2017-12-12T10:57:24Z</time>
      </trkpt>
      <trkpt lat="45.99639" lon="4.90335">
        <ele>301</ele>
        <time>2017-12-12T10:57:26Z</time>
      </trkpt>
      <trkpt lat="45.99643" lon="4.90335">
        <ele>301</ele>
        <time>2017-12-12T10:57:27Z</time>
      </trkpt>
      <trkpt lat="45.99648" lon="4.90336">
        <ele>301</ele>
        <time>2017-12-12T10:57:29Z</time>
      </trkpt>
      <trkpt lat="45.99651" lon="4.90337">
        <ele>302</ele>
        <time>2017-12-12T10:57:30Z</time>
      </trkpt>
      <trkpt lat="45.99657" lon="4.90336">
        <ele>302</ele>
        <time>2017-12-12T10:57:32Z</time>
      </trkpt>
      <trkpt lat="45.99661" lon="4.90336">
        <ele>302</ele>
        <time>2017-12-12T10:57:33Z</time>
      </trkpt>
      <trkpt lat="45.99667" lon="4.90328">
        <ele>303</ele>
        <time>2017-12-12T10:57:38Z</time>
      </trkpt>
      <trkpt lat="45.99667" lon="4.90324">
        <ele>303</ele>
        <time>2017-12-12T10:57:39Z</time>
      </trkpt>
      <trkpt lat="45.99668" lon="4.90311">
        <ele>304</ele>
        <time>2017-12-12T10:57:42Z</time>
      </trkpt>
      <trkpt lat="45.99668" lon="4.90306">
        <ele>304</ele>
        <time>2017-12-12T10:57:43Z</time>
      </trkpt>
      <trkpt lat="45.9967" lon="4.90296">
        <ele>304</ele>
        <time>2017-12-12T10:57:45Z</time>
      </trkpt>
      <trkpt lat="45.9967" lon="4.90291">
        <ele>304</ele>
        <time>2017-12-12T10:57:46Z</time>
      </trkpt>
      <trkpt lat="45.99673" lon="4.90282">
        <ele>304</ele>
        <time>2017-12-12T10:57:48Z</time>
      </trkpt>
      <trkpt lat="45.99674" lon="4.90277">
        <ele>304</ele>
        <time>2017-12-12T10:57:49Z</time>
      </trkpt>
      <trkpt lat="45.99677" lon="4.90267">
        <ele>304</ele>
        <time>2017-12-12T10:57:52Z</time>
      </trkpt>
      <trkpt lat="45.99678" lon="4.90264">
        <ele>304</ele>
        <time>2017-12-12T10:57:53Z</time>
      </trkpt>
      <trkpt lat="45.99679" lon="4.90253">
        <ele>304</ele>
        <time>2017-12-12T10:57:56Z</time>
      </trkpt>
      <trkpt lat="45.99678" lon="4.9025">
        <ele>304</ele>
        <time>2017-12-12T10:57:57Z</time>
      </trkpt>
      <trkpt lat="45.99675" lon="4.90239">
        <ele>304</ele>
        <time>2017-12-12T10:58:00Z</time>
      </trkpt>
      <trkpt lat="45.99675" lon="4.90235">
        <ele>304</ele>
        <time>2017-12-12T10:58:01Z</time>
      </trkpt>
      <trkpt lat="45.99673" lon="4.90223">
        <ele>304</ele>
        <time>2017-12-12T10:58:04Z</time>
      </trkpt>
      <trkpt lat="45.99671" lon="4.90221">
        <ele>303</ele>
        <time>2017-12-12T10:58:05Z</time>
      </trkpt>
      <trkpt lat="45.99671" lon="4.90232">
        <ele>304</ele>
        <time>2017-12-12T10:58:10Z</time>
      </trkpt>
      <trkpt lat="45.99673" lon="4.90236">
        <ele>304</ele>
        <time>2017-12-12T10:58:11Z</time>
      </trkpt>
      <trkpt lat="45.99676" lon="4.90245">
        <ele>304</ele>
        <time>2017-12-12T10:58:13Z</time>
      </trkpt>
      <trkpt lat="45.99677" lon="4.90251">
        <ele>304</ele>
        <time>2017-12-12T10:58:14Z</time>
      </trkpt>
      <trkpt lat="45.99677" lon="4.90262">
        <ele>304</ele>
        <time>2017-12-12T10:58:16Z</time>
      </trkpt>
      <trkpt lat="45.99676" lon="4.90267">
        <ele>304</ele>
        <time>2017-12-12T10:58:17Z</time>
      </trkpt>
      <trkpt lat="45.99675" lon="4.90276">
        <ele>304</ele>
        <time>2017-12-12T10:58:19Z</time>
      </trkpt>
      <trkpt lat="45.99674" lon="4.90281">
        <ele>304</ele>
        <time>2017-12-12T10:58:20Z</time>
      </trkpt>
      <trkpt lat="45.99673" lon="4.90292">
        <ele>304</ele>
        <time>2017-12-12T10:58:22Z</time>
      </trkpt>
      <trkpt lat="45.99672" lon="4.90298">
        <ele>304</ele>
        <time>2017-12-12T10:58:23Z</time>
      </trkpt>
      <trkpt lat="45.9967" lon="4.90308">
        <ele>304</ele>
        <time>2017-12-12T10:58:25Z</time>
      </trkpt>
      <trkpt lat="45.99669" lon="4.90313">
        <ele>304</ele>
        <time>2017-12-12T10:58:26Z</time>
      </trkpt>
      <trkpt lat="45.99668" lon="4.90325">
        <ele>303</ele>
        <time>2017-12-12T10:58:34Z</time>
      </trkpt>
      <trkpt lat="45.99667" lon="4.90326">
        <ele>303</ele>
        <time>2017-12-12T10:58:35Z</time>
      </trkpt>
      <trkpt lat="45.99673" lon="4.90334">
        <ele>302</ele>
        <time>2017-12-12T10:58:39Z</time>
      </trkpt>
      <trkpt lat="45.99675" lon="4.90334">
        <ele>302</ele>
        <time>2017-12-12T10:58:40Z</time>
      </trkpt>
      <trkpt lat="45.9968" lon="4.90335">
        <ele>302</ele>
        <time>2017-12-12T10:58:42Z</time>
      </trkpt>
      <trkpt lat="45.99684" lon="4.90335">
        <ele>302</ele>
        <time>2017-12-12T10:58:43Z</time>
      </trkpt>
      <trkpt lat="45.99692" lon="4.90333">
        <ele>304</ele>
        <time>2017-12-12T10:58:45Z</time>
      </trkpt>
      <trkpt lat="45.99696" lon="4.90333">
        <ele>304</ele>
        <time>2017-12-12T10:58:46Z</time>
      </trkpt>
      <trkpt lat="45.99704" lon="4.90332">
        <ele>305</ele>
        <time>2017-12-12T10:58:49Z</time>
      </trkpt>
      <trkpt lat="45.99707" lon="4.90332">
        <ele>305</ele>
        <time>2017-12-12T10:58:50Z</time>
      </trkpt>
      <trkpt lat="45.99713" lon="4.90331">
        <ele>305</ele>
        <time>2017-12-12T10:58:52Z</time>
      </trkpt>
      <trkpt lat="45.99717" lon="4.9033">
        <ele>305</ele>
        <time>2017-12-12T10:58:53Z</time>
      </trkpt>
      <trkpt lat="45.99724" lon="4.90327">
        <ele>305</ele>
        <time>2017-12-12T10:58:55Z</time>
      </trkpt>
      <trkpt lat="45.99726" lon="4.90325">
        <ele>306</ele>
        <time>2017-12-12T10:58:56Z</time>
      </trkpt>
      <trkpt lat="45.99731" lon="4.90316">
        <ele>306</ele>
        <time>2017-12-12T10:58:59Z</time>
      </trkpt>
      <trkpt lat="45.99732" lon="4.90312">
        <ele>306</ele>
        <time>2017-12-12T10:59:00Z</time>
      </trkpt>
      <trkpt lat="45.99731" lon="4.903">
        <ele>305</ele>
        <time>2017-12-12T10:59:04Z</time>
      </trkpt>
      <trkpt lat="45.99731" lon="4.90298">
        <ele>305</ele>
        <time>2017-12-12T10:59:05Z</time>
      </trkpt>
      <trkpt lat="45.99735" lon="4.90288">
        <ele>306</ele>
        <time>2017-12-12T10:59:10Z</time>
      </trkpt>
      <trkpt lat="45.99735" lon="4.90286">
        <ele>306</ele>
        <time>2017-12-12T10:59:11Z</time>
      </trkpt>
      <trkpt lat="45.99736" lon="4.90285">
        <ele>306</ele>
        <time>2017-12-12T10:59:16Z</time>
      </trkpt>
      <trkpt lat="45.99736" lon="4.90284">
        <ele>306</ele>
        <time>2017-12-12T10:59:17Z</time>
      </trkpt>
      <trkpt lat="45.99736" lon="4.90284">
        <ele>306</ele>
        <time>2017-12-12T10:59:18Z</time>
      </trkpt>
      <trkpt lat="45.99736" lon="4.90284">
        <ele>306</ele>
        <time>2017-12-12T10:59:19Z</time>
      </trkpt>
      <trkpt lat="45.99737" lon="4.90297">
        <ele>306</ele>
        <time>2017-12-12T11:00:17Z</time>
      </trkpt>
      <trkpt lat="45.99738" lon="4.90299">
        <ele>306</ele>
        <time>2017-12-12T11:00:18Z</time>
      </trkpt>
      <trkpt lat="45.99735" lon="4.90308">
        <ele>306</ele>
        <time>2017-12-12T11:00:20Z</time>
      </trkpt>
      <trkpt lat="45.99732" lon="4.90313">
        <ele>306</ele>
        <time>2017-12-12T11:00:21Z</time>
      </trkpt>
      <trkpt lat="45.99726" lon="4.9032">
        <ele>306</ele>
        <time>2017-12-12T11:00:25Z</time>
      </trkpt>
      <trkpt lat="45.99723" lon="4.90322">
        <ele>305</ele>
        <time>2017-12-12T11:00:26Z</time>
      </trkpt>
      <trkpt lat="45.99717" lon="4.90325">
        <ele>305</ele>
        <time>2017-12-12T11:00:28Z</time>
      </trkpt>
      <trkpt lat="45.99714" lon="4.90327">
        <ele>305</ele>
        <time>2017-12-12T11:00:29Z</time>
      </trkpt>
      <trkpt lat="45.99707" lon="4.90328">
        <ele>305</ele>
        <time>2017-12-12T11:00:31Z</time>
      </trkpt>
      <trkpt lat="45.99703" lon="4.90329">
        <ele>305</ele>
        <time>2017-12-12T11:00:32Z</time>
      </trkpt>
      <trkpt lat="45.99695" lon="4.9033">
        <ele>304</ele>
        <time>2017-12-12T11:00:35Z</time>
      </trkpt>
      <trkpt lat="45.99692" lon="4.9033">
        <ele>304</ele>
        <time>2017-12-12T11:00:36Z</time>
      </trkpt>
      <trkpt lat="45.99686" lon="4.90329">
        <ele>304</ele>
        <time>2017-12-12T11:00:38Z</time>
      </trkpt>
      <trkpt lat="45.99682" lon="4.90329">
        <ele>303</ele>
        <time>2017-12-12T11:00:39Z</time>
      </trkpt>
      <trkpt lat="45.99675" lon="4.90327">
        <ele>303</ele>
        <time>2017-12-12T11:00:42Z</time>
      </trkpt>
      <trkpt lat="45.99673" lon="4.90325">
        <ele>303</ele>
        <time>2017-12-12T11:00:43Z</time>
      </trkpt>
      <trkpt lat="45.99672" lon="4.90313">
        <ele>304</ele>
        <time>2017-12-12T11:00:46Z</time>
      </trkpt>
      <trkpt lat="45.99672" lon="4.9031">
        <ele>304</ele>
        <time>2017-12-12T11:00:47Z</time>
      </trkpt>
      <trkpt lat="45.99673" lon="4.90301">
        <ele>304</ele>
        <time>2017-12-12T11:00:49Z</time>
      </trkpt>
      <trkpt lat="45.99674" lon="4.90297">
        <ele>304</ele>
        <time>2017-12-12T11:00:50Z</time>
      </trkpt>
      <trkpt lat="45.99676" lon="4.90289">
        <ele>304</ele>
        <time>2017-12-12T11:00:52Z</time>
      </trkpt>
      <trkpt lat="45.99677" lon="4.90284">
        <ele>304</ele>
        <time>2017-12-12T11:00:53Z</time>
      </trkpt>
      <trkpt lat="45.99679" lon="4.90273">
        <ele>305</ele>
        <time>2017-12-12T11:00:55Z</time>
      </trkpt>
      <trkpt lat="45.9968" lon="4.90267">
        <ele>305</ele>
        <time>2017-12-12T11:00:56Z</time>
      </trkpt>
      <trkpt lat="45.99681" lon="4.90261">
        <ele>304</ele>
        <time>2017-12-12T11:00:57Z</time>
      </trkpt>
      <trkpt lat="45.99684" lon="4.90253">
        <ele>305</ele>
        <time>2017-12-12T11:00:58Z</time>
      </trkpt>
      <trkpt lat="45.99682" lon="4.90241">
        <ele>304</ele>
        <time>2017-12-12T11:01:00Z</time>
      </trkpt>
      <trkpt lat="45.99681" lon="4.90235">
        <ele>304</ele>
        <time>2017-12-12T11:01:01Z</time>
      </trkpt>
      <trkpt lat="45.99678" lon="4.90224">
        <ele>304</ele>
        <time>2017-12-12T11:01:03Z</time>
      </trkpt>
      <trkpt lat="45.99675" lon="4.90219">
        <ele>303</ele>
        <time>2017-12-12T11:01:04Z</time>
      </trkpt>
      <trkpt lat="45.99674" lon="4.90212">
        <ele>303</ele>
        <time>2017-12-12T11:01:05Z</time>
      </trkpt>
      <trkpt lat="45.99672" lon="4.90204">
        <ele>303</ele>
        <time>2017-12-12T11:01:06Z</time>
      </trkpt>
      <trkpt lat="45.99671" lon="4.90196">
        <ele>303</ele>
        <time>2017-12-12T11:01:07Z</time>
      </trkpt>
      <trkpt lat="45.99668" lon="4.90187">
        <ele>302</ele>
        <time>2017-12-12T11:01:08Z</time>
      </trkpt>
      <trkpt lat="45.99665" lon="4.90178">
        <ele>301</ele>
        <time>2017-12-12T11:01:09Z</time>
      </trkpt>
      <trkpt lat="45.99663" lon="4.9017">
        <ele>301</ele>
        <time>2017-12-12T11:01:10Z</time>
      </trkpt>
      <trkpt lat="45.99659" lon="4.90159">
        <ele>300</ele>
        <time>2017-12-12T11:01:11Z</time>
      </trkpt>
      <trkpt lat="45.99656" lon="4.90149">
        <ele>300</ele>
        <time>2017-12-12T11:01:12Z</time>
      </trkpt>
      <trkpt lat="45.99653" lon="4.90139">
        <ele>300</ele>
        <time>2017-12-12T11:01:13Z</time>
      </trkpt>
      <trkpt lat="45.99651" lon="4.9013">
        <ele>299</ele>
        <time>2017-12-12T11:01:14Z</time>
      </trkpt>
      <trkpt lat="45.99646" lon="4.90118">
        <ele>299</ele>
        <time>2017-12-12T11:01:15Z</time>
      </trkpt>
      <trkpt lat="45.99644" lon="4.90107">
        <ele>299</ele>
        <time>2017-12-12T11:01:16Z</time>
      </trkpt>
      <trkpt lat="45.99641" lon="4.90096">
        <ele>299</ele>
        <time>2017-12-12T11:01:17Z</time>
      </trkpt>
      <trkpt lat="45.99637" lon="4.90085">
        <ele>298</ele>
        <time>2017-12-12T11:01:18Z</time>
      </trkpt>
      <trkpt lat="45.99635" lon="4.90075">
        <ele>297</ele>
        <time>2017-12-12T11:01:19Z</time>
      </trkpt>
      <trkpt lat="45.99629" lon="4.90067">
        <ele>297</ele>
        <time>2017-12-12T11:01:20Z</time>
      </trkpt>
      <trkpt lat="45.99627" lon="4.90057">
        <ele>297</ele>
        <time>2017-12-12T11:01:21Z</time>
      </trkpt>
      <trkpt lat="45.99623" lon="4.90046">
        <ele>297</ele>
        <time>2017-12-12T11:01:22Z</time>
      </trkpt>
      <trkpt lat="45.99619" lon="4.90035">
        <ele>296</ele>
        <time>2017-12-12T11:01:23Z</time>
      </trkpt>
      <trkpt lat="45.99615" lon="4.90026">
        <ele>296</ele>
        <time>2017-12-12T11:01:24Z</time>
      </trkpt>
      <trkpt lat="45.99614" lon="4.90013">
        <ele>296</ele>
        <time>2017-12-12T11:01:25Z</time>
      </trkpt>
      <trkpt lat="45.99611" lon="4.90005">
        <ele>296</ele>
        <time>2017-12-12T11:01:26Z</time>
      </trkpt>
      <trkpt lat="45.9961" lon="4.89995">
        <ele>294</ele>
        <time>2017-12-12T11:01:27Z</time>
      </trkpt>
      <trkpt lat="45.99608" lon="4.89986">
        <ele>294</ele>
        <time>2017-12-12T11:01:28Z</time>
      </trkpt>
      <trkpt lat="45.99607" lon="4.89976">
        <ele>294</ele>
        <time>2017-12-12T11:01:29Z</time>
      </trkpt>
      <trkpt lat="45.99606" lon="4.89967">
        <ele>294</ele>
        <time>2017-12-12T11:01:30Z</time>
      </trkpt>
      <trkpt lat="45.99606" lon="4.89957">
        <ele>294</ele>
        <time>2017-12-12T11:01:31Z</time>
      </trkpt>
      <trkpt lat="45.99604" lon="4.89946">
        <ele>294</ele>
        <time>2017-12-12T11:01:32Z</time>
      </trkpt>
      <trkpt lat="45.99603" lon="4.89934">
        <ele>293</ele>
        <time>2017-12-12T11:01:33Z</time>
      </trkpt>
      <trkpt lat="45.99603" lon="4.89925">
        <ele>293</ele>
        <time>2017-12-12T11:01:34Z</time>
      </trkpt>
      <trkpt lat="45.99604" lon="4.89915">
        <ele>292</ele>
        <time>2017-12-12T11:01:35Z</time>
      </trkpt>
      <trkpt lat="45.99603" lon="4.89906">
        <ele>292</ele>
        <time>2017-12-12T11:01:36Z</time>
      </trkpt>
      <trkpt lat="45.99603" lon="4.89896">
        <ele>292</ele>
        <time>2017-12-12T11:01:37Z</time>
      </trkpt>
      <trkpt lat="45.99604" lon="4.89887">
        <ele>292</ele>
        <time>2017-12-12T11:01:38Z</time>
      </trkpt>
      <trkpt lat="45.99604" lon="4.89877">
        <ele>292</ele>
        <time>2017-12-12T11:01:39Z</time>
      </trkpt>
      <trkpt lat="45.99604" lon="4.89867">
        <ele>293</ele>
        <time>2017-12-12T11:01:40Z</time>
      </trkpt>
      <trkpt lat="45.99604" lon="4.89856">
        <ele>293</ele>
        <time>2017-12-12T11:01:41Z</time>
      </trkpt>
      <trkpt lat="45.99605" lon="4.89845">
        <ele>293</ele>
        <time>2017-12-12T11:01:42Z</time>
      </trkpt>
      <trkpt lat="45.99605" lon="4.89835">
        <ele>293</ele>
        <time>2017-12-12T11:01:43Z</time>
      </trkpt>
      <trkpt lat="45.99605" lon="4.89825">
        <ele>292</ele>
        <time>2017-12-12T11:01:44Z</time>
      </trkpt>
      <trkpt lat="45.99606" lon="4.89814">
        <ele>292</ele>
        <time>2017-12-12T11:01:45Z</time>
      </trkpt>
      <trkpt lat="45.99604" lon="4.89803">
        <ele>292</ele>
        <time>2017-12-12T11:01:46Z</time>
      </trkpt>
      <trkpt lat="45.99604" lon="4.89793">
        <ele>292</ele>
        <time>2017-12-12T11:01:47Z</time>
      </trkpt>
      <trkpt lat="45.99604" lon="4.89784">
        <ele>292</ele>
        <time>2017-12-12T11:01:48Z</time>
      </trkpt>
      <trkpt lat="45.99604" lon="4.89775">
        <ele>292</ele>
        <time>2017-12-12T11:01:49Z</time>
      </trkpt>
      <trkpt lat="45.99604" lon="4.89766">
        <ele>292</ele>
        <time>2017-12-12T11:01:50Z</time>
      </trkpt>
      <trkpt lat="45.99603" lon="4.89758">
        <ele>292</ele>
        <time>2017-12-12T11:01:51Z</time>
      </trkpt>
      <trkpt lat="45.99603" lon="4.89751">
        <ele>292</ele>
        <time>2017-12-12T11:01:52Z</time>
      </trkpt>
      <trkpt lat="45.99604" lon="4.89741">
        <ele>292</ele>
        <time>2017-12-12T11:01:53Z</time>
      </trkpt>
      <trkpt lat="45.99605" lon="4.89733">
        <ele>292</ele>
        <time>2017-12-12T11:01:54Z</time>
      </trkpt>
      <trkpt lat="45.99606" lon="4.89723">
        <ele>292</ele>
        <time>2017-12-12T11:01:55Z</time>
      </trkpt>
      <trkpt lat="45.99605" lon="4.89712">
        <ele>292</ele>
        <time>2017-12-12T11:01:56Z</time>
      </trkpt>
      <trkpt lat="45.99606" lon="4.89702">
        <ele>291</ele>
        <time>2017-12-12T11:01:57Z</time>
      </trkpt>
      <trkpt lat="45.99607" lon="4.89691">
        <ele>291</ele>
        <time>2017-12-12T11:01:58Z</time>
      </trkpt>
      <trkpt lat="45.99608" lon="4.89679">
        <ele>291</ele>
        <time>2017-12-12T11:01:59Z</time>
      </trkpt>
      <trkpt lat="45.99608" lon="4.89668">
        <ele>291</ele>
        <time>2017-12-12T11:02:00Z</time>
      </trkpt>
      <trkpt lat="45.99609" lon="4.89658">
        <ele>291</ele>
        <time>2017-12-12T11:02:01Z</time>
      </trkpt>
      <trkpt lat="45.99608" lon="4.89647">
        <ele>291</ele>
        <time>2017-12-12T11:02:02Z</time>
      </trkpt>
      <trkpt lat="45.99608" lon="4.89637">
        <ele>291</ele>
        <time>2017-12-12T11:02:03Z</time>
      </trkpt>
      <trkpt lat="45.99608" lon="4.89627">
        <ele>291</ele>
        <time>2017-12-12T11:02:04Z</time>
      </trkpt>
      <trkpt lat="45.99608" lon="4.89616">
        <ele>291</ele>
        <time>2017-12-12T11:02:05Z</time>
      </trkpt>
      <trkpt lat="45.99607" lon="4.89607">
        <ele>291</ele>
        <time>2017-12-12T11:02:06Z</time>
      </trkpt>
      <trkpt lat="45.99607" lon="4.89598">
        <ele>292</ele>
        <time>2017-12-12T11:02:07Z</time>
      </trkpt>
      <trkpt lat="45.99606" lon="4.89589">
        <ele>292</ele>
        <time>2017-12-12T11:02:08Z</time>
      </trkpt>
      <trkpt lat="45.99605" lon="4.8958">
        <ele>291</ele>
        <time>2017-12-12T11:02:09Z</time>
      </trkpt>
      <trkpt lat="45.99604" lon="4.89573">
        <ele>291</ele>
        <time>2017-12-12T11:02:10Z</time>
      </trkpt>
      <trkpt lat="45.99604" lon="4.89564">
        <ele>291</ele>
        <time>2017-12-12T11:02:11Z</time>
      </trkpt>
      <trkpt lat="45.99604" lon="4.89555">
        <ele>291</ele>
        <time>2017-12-12T11:02:12Z</time>
      </trkpt>
      <trkpt lat="45.99604" lon="4.89547">
        <ele>291</ele>
        <time>2017-12-12T11:02:13Z</time>
      </trkpt>
      <trkpt lat="45.99603" lon="4.89538">
        <ele>291</ele>
        <time>2017-12-12T11:02:14Z</time>
      </trkpt>
      <trkpt lat="45.99603" lon="4.89528">
        <ele>291</ele>
        <time>2017-12-12T11:02:15Z</time>
      </trkpt>
      <trkpt lat="45.99602" lon="4.89519">
        <ele>291</ele>
        <time>2017-12-12T11:02:16Z</time>
      </trkpt>
      <trkpt lat="45.99601" lon="4.8951">
        <ele>290</ele>
        <time>2017-12-12T11:02:17Z</time>
      </trkpt>
      <trkpt lat="45.996" lon="4.89501">
        <ele>290</ele>
        <time>2017-12-12T11:02:18Z</time>
      </trkpt>
      <trkpt lat="45.996" lon="4.89491">
        <ele>290</ele>
        <time>2017-12-12T11:02:19Z</time>
      </trkpt>
      <trkpt lat="45.99599" lon="4.89483">
        <ele>290</ele>
        <time>2017-12-12T11:02:20Z</time>
      </trkpt>
      <trkpt lat="45.99598" lon="4.89473">
        <ele>290</ele>
        <time>2017-12-12T11:02:21Z</time>
      </trkpt>
      <trkpt lat="45.99598" lon="4.89465">
        <ele>290</ele>
        <time>2017-12-12T11:02:22Z</time>
      </trkpt>
      <trkpt lat="45.99599" lon="4.89457">
        <ele>290</ele>
        <time>2017-12-12T11:02:23Z</time>
      </trkpt>
      <trkpt lat="45.99598" lon="4.89448">
        <ele>290</ele>
        <time>2017-12-12T11:02:24Z</time>
      </trkpt>
      <trkpt lat="45.99597" lon="4.8944">
        <ele>290</ele>
        <time>2017-12-12T11:02:25Z</time>
      </trkpt>
      <trkpt lat="45.99597" lon="4.89431">
        <ele>290</ele>
        <time>2017-12-12T11:02:26Z</time>
      </trkpt>
      <trkpt lat="45.99595" lon="4.89421">
        <ele>290</ele>
        <time>2017-12-12T11:02:27Z</time>
      </trkpt>
      <trkpt lat="45.99594" lon="4.89413">
        <ele>290</ele>
        <time>2017-12-12T11:02:28Z</time>
      </trkpt>
      <trkpt lat="45.99594" lon="4.89405">
        <ele>290</ele>
        <time>2017-12-12T11:02:29Z</time>
      </trkpt>
      <trkpt lat="45.99594" lon="4.89395">
        <ele>290</ele>
        <time>2017-12-12T11:02:30Z</time>
      </trkpt>
      <trkpt lat="45.99594" lon="4.89386">
        <ele>290</ele>
        <time>2017-12-12T11:02:31Z</time>
      </trkpt>
      <trkpt lat="45.99593" lon="4.89377">
        <ele>290</ele>
        <time>2017-12-12T11:02:32Z</time>
      </trkpt>
      <trkpt lat="45.99592" lon="4.89368">
        <ele>289</ele>
        <time>2017-12-12T11:02:33Z</time>
      </trkpt>
      <trkpt lat="45.99592" lon="4.89358">
        <ele>289</ele>
        <time>2017-12-12T11:02:34Z</time>
      </trkpt>
      <trkpt lat="45.99591" lon="4.8935">
        <ele>289</ele>
        <time>2017-12-12T11:02:35Z</time>
      </trkpt>
      <trkpt lat="45.99589" lon="4.89341">
        <ele>289</ele>
        <time>2017-12-12T11:02:36Z</time>
      </trkpt>
      <trkpt lat="45.99589" lon="4.89332">
        <ele>289</ele>
        <time>2017-12-12T11:02:37Z</time>
      </trkpt>
      <trkpt lat="45.99589" lon="4.89324">
        <ele>289</ele>
        <time>2017-12-12T11:02:38Z</time>
      </trkpt>
      <trkpt lat="45.99589" lon="4.89314">
        <ele>289</ele>
        <time>2017-12-12T11:02:39Z</time>
      </trkpt>
      <trkpt lat="45.99588" lon="4.89305">
        <ele>289</ele>
        <time>2017-12-12T11:02:40Z</time>
      </trkpt>
      <trkpt lat="45.99587" lon="4.89296">
        <ele>289</ele>
        <time>2017-12-12T11:02:41Z</time>
      </trkpt>
      <trkpt lat="45.99586" lon="4.89286">
        <ele>289</ele>
        <time>2017-12-12T11:02:42Z</time>
      </trkpt>
      <trkpt lat="45.99585" lon="4.89276">
        <ele>289</ele>
        <time>2017-12-12T11:02:43Z</time>
      </trkpt>
      <trkpt lat="45.99585" lon="4.89267">
        <ele>288</ele>
        <time>2017-12-12T11:02:44Z</time>
      </trkpt>
      <trkpt lat="45.99585" lon="4.89256">
        <ele>288</ele>
        <time>2017-12-12T11:02:45Z</time>
      </trkpt>
      <trkpt lat="45.99585" lon="4.89246">
        <ele>288</ele>
        <time>2017-12-12T11:02:46Z</time>
      </trkpt>
      <trkpt lat="45.99584" lon="4.89235">
        <ele>288</ele>
        <time>2017-12-12T11:02:47Z</time>
      </trkpt>
      <trkpt lat="45.99584" lon="4.89224">
        <ele>288</ele>
        <time>2017-12-12T11:02:48Z</time>
      </trkpt>
      <trkpt lat="45.99583" lon="4.89214">
        <ele>288</ele>
        <time>2017-12-12T11:02:49Z</time>
      </trkpt>
      <trkpt lat="45.99584" lon="4.89204">
        <ele>288</ele>
        <time>2017-12-12T11:02:50Z</time>
      </trkpt>
      <trkpt lat="45.99583" lon="4.89193">
        <ele>288</ele>
        <time>2017-12-12T11:02:51Z</time>
      </trkpt>
      <trkpt lat="45.99582" lon="4.89183">
        <ele>288</ele>
        <time>2017-12-12T11:02:52Z</time>
      </trkpt>
      <trkpt lat="45.99582" lon="4.89174">
        <ele>288</ele>
        <time>2017-12-12T11:02:53Z</time>
      </trkpt>
      <trkpt lat="45.99581" lon="4.89164">
        <ele>288</ele>
        <time>2017-12-12T11:02:54Z</time>
      </trkpt>
      <trkpt lat="45.9958" lon="4.89154">
        <ele>288</ele>
        <time>2017-12-12T11:02:55Z</time>
      </trkpt>
      <trkpt lat="45.99581" lon="4.89143">
        <ele>289</ele>
        <time>2017-12-12T11:02:56Z</time>
      </trkpt>
      <trkpt lat="45.9958" lon="4.89134">
        <ele>289</ele>
        <time>2017-12-12T11:02:57Z</time>
      </trkpt>
      <trkpt lat="45.9958" lon="4.89125">
        <ele>289</ele>
        <time>2017-12-12T11:02:58Z</time>
      </trkpt>
      <trkpt lat="45.99579" lon="4.89117">
        <ele>289</ele>
        <time>2017-12-12T11:02:59Z</time>
      </trkpt>
      <trkpt lat="45.99579" lon="4.89107">
        <ele>289</ele>
        <time>2017-12-12T11:03:00Z</time>
      </trkpt>
      <trkpt lat="45.9958" lon="4.89099">
        <ele>289</ele>
        <time>2017-12-12T11:03:01Z</time>
      </trkpt>
      <trkpt lat="45.9958" lon="4.8909">
        <ele>289</ele>
        <time>2017-12-12T11:03:02Z</time>
      </trkpt>
      <trkpt lat="45.99582" lon="4.89083">
        <ele>289</ele>
        <time>2017-12-12T11:03:03Z</time>
      </trkpt>
      <trkpt lat="45.99583" lon="4.89074">
        <ele>289</ele>
        <time>2017-12-12T11:03:04Z</time>
      </trkpt>
      <trkpt lat="45.99584" lon="4.89066">
        <ele>289</ele>
        <time>2017-12-12T11:03:05Z</time>
      </trkpt>
      <trkpt lat="45.99585" lon="4.89057">
        <ele>289</ele>
        <time>2017-12-12T11:03:06Z</time>
      </trkpt>
      <trkpt lat="45.99585" lon="4.89049">
        <ele>289</ele>
        <time>2017-12-12T11:03:07Z</time>
      </trkpt>
      <trkpt lat="45.99585" lon="4.8904">
        <ele>289</ele>
        <time>2017-12-12T11:03:08Z</time>
      </trkpt>
      <trkpt lat="45.99586" lon="4.8903">
        <ele>289</ele>
        <time>2017-12-12T11:03:09Z</time>
      </trkpt>
      <trkpt lat="45.99586" lon="4.89022">
        <ele>288</ele>
        <time>2017-12-12T11:03:10Z</time>
      </trkpt>
      <trkpt lat="45.99586" lon="4.89013">
        <ele>288</ele>
        <time>2017-12-12T11:03:11Z</time>
      </trkpt>
      <trkpt lat="45.99587" lon="4.89003">
        <ele>288</ele>
        <time>2017-12-12T11:03:12Z</time>
      </trkpt>
      <trkpt lat="45.99588" lon="4.88994">
        <ele>288</ele>
        <time>2017-12-12T11:03:13Z</time>
      </trkpt>
      <trkpt lat="45.99587" lon="4.88984">
        <ele>288</ele>
        <time>2017-12-12T11:03:14Z</time>
      </trkpt>
      <trkpt lat="45.99587" lon="4.88974">
        <ele>288</ele>
        <time>2017-12-12T11:03:15Z</time>
      </trkpt>
      <trkpt lat="45.99586" lon="4.88963">
        <ele>288</ele>
        <time>2017-12-12T11:03:16Z</time>
      </trkpt>
      <trkpt lat="45.99586" lon="4.88953">
        <ele>287</ele>
        <time>2017-12-12T11:03:17Z</time>
      </trkpt>
      <trkpt lat="45.99585" lon="4.88944">
        <ele>287</ele>
        <time>2017-12-12T11:03:18Z</time>
      </trkpt>
      <trkpt lat="45.99583" lon="4.88935">
        <ele>287</ele>
        <time>2017-12-12T11:03:19Z</time>
      </trkpt>
      <trkpt lat="45.99582" lon="4.88925">
        <ele>287</ele>
        <time>2017-12-12T11:03:20Z</time>
      </trkpt>
      <trkpt lat="45.99582" lon="4.88914">
        <ele>287</ele>
        <time>2017-12-12T11:03:21Z</time>
      </trkpt>
      <trkpt lat="45.9958" lon="4.88904">
        <ele>287</ele>
        <time>2017-12-12T11:03:22Z</time>
      </trkpt>
      <trkpt lat="45.99578" lon="4.88894">
        <ele>287</ele>
        <time>2017-12-12T11:03:23Z</time>
      </trkpt>
      <trkpt lat="45.99577" lon="4.88885">
        <ele>287</ele>
        <time>2017-12-12T11:03:24Z</time>
      </trkpt>
      <trkpt lat="45.99577" lon="4.88875">
        <ele>287</ele>
        <time>2017-12-12T11:03:25Z</time>
      </trkpt>
      <trkpt lat="45.99578" lon="4.88866">
        <ele>287</ele>
        <time>2017-12-12T11:03:26Z</time>
      </trkpt>
      <trkpt lat="45.99578" lon="4.88855">
        <ele>287</ele>
        <time>2017-12-12T11:03:27Z</time>
      </trkpt>
      <trkpt lat="45.99576" lon="4.88847">
        <ele>287</ele>
        <time>2017-12-12T11:03:28Z</time>
      </trkpt>
      <trkpt lat="45.99575" lon="4.88837">
        <ele>287</ele>
        <time>2017-12-12T11:03:29Z</time>
      </trkpt>
      <trkpt lat="45.99575" lon="4.88827">
        <ele>287</ele>
        <time>2017-12-12T11:03:30Z</time>
      </trkpt>
      <trkpt lat="45.99574" lon="4.88816">
        <ele>287</ele>
        <time>2017-12-12T11:03:31Z</time>
      </trkpt>
      <trkpt lat="45.99573" lon="4.88807">
        <ele>287</ele>
        <time>2017-12-12T11:03:32Z</time>
      </trkpt>
      <trkpt lat="45.99572" lon="4.88798">
        <ele>287</ele>
        <time>2017-12-12T11:03:33Z</time>
      </trkpt>
      <trkpt lat="45.99571" lon="4.88789">
        <ele>287</ele>
        <time>2017-12-12T11:03:34Z</time>
      </trkpt>
      <trkpt lat="45.9957" lon="4.8878">
        <ele>287</ele>
        <time>2017-12-12T11:03:35Z</time>
      </trkpt>
      <trkpt lat="45.99569" lon="4.88771">
        <ele>287</ele>
        <time>2017-12-12T11:03:36Z</time>
      </trkpt>
      <trkpt lat="45.99569" lon="4.88762">
        <ele>287</ele>
        <time>2017-12-12T11:03:37Z</time>
      </trkpt>
      <trkpt lat="45.99568" lon="4.88754">
        <ele>287</ele>
        <time>2017-12-12T11:03:38Z</time>
      </trkpt>
      <trkpt lat="45.99567" lon="4.88744">
        <ele>287</ele>
        <time>2017-12-12T11:03:39Z</time>
      </trkpt>
      <trkpt lat="45.99566" lon="4.88736">
        <ele>287</ele>
        <time>2017-12-12T11:03:40Z</time>
      </trkpt>
      <trkpt lat="45.99565" lon="4.88728">
        <ele>287</ele>
        <time>2017-12-12T11:03:41Z</time>
      </trkpt>
      <trkpt lat="45.99564" lon="4.88719">
        <ele>286</ele>
        <time>2017-12-12T11:03:42Z</time>
      </trkpt>
      <trkpt lat="45.99563" lon="4.88712">
        <ele>286</ele>
        <time>2017-12-12T11:03:43Z</time>
      </trkpt>
      <trkpt lat="45.99563" lon="4.88704">
        <ele>286</ele>
        <time>2017-12-12T11:03:44Z</time>
      </trkpt>
      <trkpt lat="45.99562" lon="4.88698">
        <ele>286</ele>
        <time>2017-12-12T11:03:45Z</time>
      </trkpt>
      <trkpt lat="45.99561" lon="4.8869">
        <ele>286</ele>
        <time>2017-12-12T11:03:46Z</time>
      </trkpt>
      <trkpt lat="45.9956" lon="4.88681">
        <ele>286</ele>
        <time>2017-12-12T11:03:47Z</time>
      </trkpt>
      <trkpt lat="45.99559" lon="4.88674">
        <ele>286</ele>
        <time>2017-12-12T11:03:48Z</time>
      </trkpt>
      <trkpt lat="45.99559" lon="4.88666">
        <ele>286</ele>
        <time>2017-12-12T11:03:49Z</time>
      </trkpt>
      <trkpt lat="45.99558" lon="4.88658">
        <ele>286</ele>
        <time>2017-12-12T11:03:50Z</time>
      </trkpt>
      <trkpt lat="45.99556" lon="4.88649">
        <ele>286</ele>
        <time>2017-12-12T11:03:51Z</time>
      </trkpt>
      <trkpt lat="45.99555" lon="4.88639">
        <ele>286</ele>
        <time>2017-12-12T11:03:52Z</time>
      </trkpt>
      <trkpt lat="45.99555" lon="4.8863">
        <ele>286</ele>
        <time>2017-12-12T11:03:53Z</time>
      </trkpt>
      <trkpt lat="45.99554" lon="4.88619">
        <ele>286</ele>
        <time>2017-12-12T11:03:54Z</time>
      </trkpt>
      <trkpt lat="45.99553" lon="4.8861">
        <ele>286</ele>
        <time>2017-12-12T11:03:55Z</time>
      </trkpt>
      <trkpt lat="45.99551" lon="4.886">
        <ele>286</ele>
        <time>2017-12-12T11:03:56Z</time>
      </trkpt>
      <trkpt lat="45.9955" lon="4.8859">
        <ele>286</ele>
        <time>2017-12-12T11:03:57Z</time>
      </trkpt>
      <trkpt lat="45.99548" lon="4.8858">
        <ele>286</ele>
        <time>2017-12-12T11:03:58Z</time>
      </trkpt>
      <trkpt lat="45.99546" lon="4.88571">
        <ele>286</ele>
        <time>2017-12-12T11:03:59Z</time>
      </trkpt>
      <trkpt lat="45.99544" lon="4.88562">
        <ele>285</ele>
        <time>2017-12-12T11:04:00Z</time>
      </trkpt>
      <trkpt lat="45.99541" lon="4.88554">
        <ele>285</ele>
        <time>2017-12-12T11:04:01Z</time>
      </trkpt>
      <trkpt lat="45.99538" lon="4.88548">
        <ele>285</ele>
        <time>2017-12-12T11:04:02Z</time>
      </trkpt>
      <trkpt lat="45.99535" lon="4.88541">
        <ele>285</ele>
        <time>2017-12-12T11:04:03Z</time>
      </trkpt>
      <trkpt lat="45.99532" lon="4.88534">
        <ele>285</ele>
        <time>2017-12-12T11:04:04Z</time>
      </trkpt>
      <trkpt lat="45.9953" lon="4.88526">
        <ele>285</ele>
        <time>2017-12-12T11:04:05Z</time>
      </trkpt>
      <trkpt lat="45.99526" lon="4.8852">
        <ele>285</ele>
        <time>2017-12-12T11:04:06Z</time>
      </trkpt>
      <trkpt lat="45.99522" lon="4.88514">
        <ele>285</ele>
        <time>2017-12-12T11:04:07Z</time>
      </trkpt>
      <trkpt lat="45.99518" lon="4.88508">
        <ele>285</ele>
        <time>2017-12-12T11:04:08Z</time>
      </trkpt>
      <trkpt lat="45.99515" lon="4.88501">
        <ele>285</ele>
        <time>2017-12-12T11:04:09Z</time>
      </trkpt>
      <trkpt lat="45.99512" lon="4.88495">
        <ele>284</ele>
        <time>2017-12-12T11:04:10Z</time>
      </trkpt>
      <trkpt lat="45.99508" lon="4.88488">
        <ele>284</ele>
        <time>2017-12-12T11:04:11Z</time>
      </trkpt>
      <trkpt lat="45.99505" lon="4.8848">
        <ele>284</ele>
        <time>2017-12-12T11:04:12Z</time>
      </trkpt>
      <trkpt lat="45.99502" lon="4.88473">
        <ele>284</ele>
        <time>2017-12-12T11:04:13Z</time>
      </trkpt>
      <trkpt lat="45.99498" lon="4.88466">
        <ele>284</ele>
        <time>2017-12-12T11:04:14Z</time>
      </trkpt>
      <trkpt lat="45.99495" lon="4.88458">
        <ele>284</ele>
        <time>2017-12-12T11:04:15Z</time>
      </trkpt>
      <trkpt lat="45.99491" lon="4.88451">
        <ele>284</ele>
        <time>2017-12-12T11:04:16Z</time>
      </trkpt>
      <trkpt lat="45.99486" lon="4.88444">
        <ele>284</ele>
        <time>2017-12-12T11:04:17Z</time>
      </trkpt>
      <trkpt lat="45.99481" lon="4.88437">
        <ele>284</ele>
        <time>2017-12-12T11:04:18Z</time>
      </trkpt>
      <trkpt lat="45.99476" lon="4.88431">
        <ele>284</ele>
        <time>2017-12-12T11:04:19Z</time>
      </trkpt>
      <trkpt lat="45.99471" lon="4.88425">
        <ele>284</ele>
        <time>2017-12-12T11:04:20Z</time>
      </trkpt>
      <trkpt lat="45.99465" lon="4.8842">
        <ele>284</ele>
        <time>2017-12-12T11:04:21Z</time>
      </trkpt>
      <trkpt lat="45.9946" lon="4.88416">
        <ele>283</ele>
        <time>2017-12-12T11:04:22Z</time>
      </trkpt>
      <trkpt lat="45.99455" lon="4.88411">
        <ele>283</ele>
        <time>2017-12-12T11:04:23Z</time>
      </trkpt>
      <trkpt lat="45.99449" lon="4.88406">
        <ele>283</ele>
        <time>2017-12-12T11:04:24Z</time>
      </trkpt>
      <trkpt lat="45.99443" lon="4.884">
        <ele>283</ele>
        <time>2017-12-12T11:04:25Z</time>
      </trkpt>
      <trkpt lat="45.99439" lon="4.88393">
        <ele>283</ele>
        <time>2017-12-12T11:04:26Z</time>
      </trkpt>
      <trkpt lat="45.99434" lon="4.88385">
        <ele>283</ele>
        <time>2017-12-12T11:04:27Z</time>
      </trkpt>
      <trkpt lat="45.99431" lon="4.88377">
        <ele>283</ele>
        <time>2017-12-12T11:04:28Z</time>
      </trkpt>
      <trkpt lat="45.99428" lon="4.88368">
        <ele>283</ele>
        <time>2017-12-12T11:04:29Z</time>
      </trkpt>
      <trkpt lat="45.99425" lon="4.8836">
        <ele>283</ele>
        <time>2017-12-12T11:04:30Z</time>
      </trkpt>
      <trkpt lat="45.99422" lon="4.8835">
        <ele>283</ele>
        <time>2017-12-12T11:04:31Z</time>
      </trkpt>
      <trkpt lat="45.99419" lon="4.88343">
        <ele>282</ele>
        <time>2017-12-12T11:04:32Z</time>
      </trkpt>
      <trkpt lat="45.99417" lon="4.88334">
        <ele>282</ele>
        <time>2017-12-12T11:04:33Z</time>
      </trkpt>
      <trkpt lat="45.99414" lon="4.88326">
        <ele>283</ele>
        <time>2017-12-12T11:04:34Z</time>
      </trkpt>
      <trkpt lat="45.99411" lon="4.8832">
        <ele>283</ele>
        <time>2017-12-12T11:04:35Z</time>
      </trkpt>
      <trkpt lat="45.99408" lon="4.88312">
        <ele>283</ele>
        <time>2017-12-12T11:04:36Z</time>
      </trkpt>
      <trkpt lat="45.99404" lon="4.88304">
        <ele>284</ele>
        <time>2017-12-12T11:04:37Z</time>
      </trkpt>
      <trkpt lat="45.99402" lon="4.88297">
        <ele>284</ele>
        <time>2017-12-12T11:04:38Z</time>
      </trkpt>
      <trkpt lat="45.99398" lon="4.8829">
        <ele>284</ele>
        <time>2017-12-12T11:04:39Z</time>
      </trkpt>
      <trkpt lat="45.99396" lon="4.88283">
        <ele>284</ele>
        <time>2017-12-12T11:04:40Z</time>
      </trkpt>
      <trkpt lat="45.99392" lon="4.88276">
        <ele>284</ele>
        <time>2017-12-12T11:04:41Z</time>
      </trkpt>
      <trkpt lat="45.99388" lon="4.88269">
        <ele>285</ele>
        <time>2017-12-12T11:04:42Z</time>
      </trkpt>
      <trkpt lat="45.99384" lon="4.88262">
        <ele>285</ele>
        <time>2017-12-12T11:04:43Z</time>
      </trkpt>
      <trkpt lat="45.9938" lon="4.88252">
        <ele>285</ele>
        <time>2017-12-12T11:04:44Z</time>
      </trkpt>
      <trkpt lat="45.99377" lon="4.88244">
        <ele>287</ele>
        <time>2017-12-12T11:04:45Z</time>
      </trkpt>
      <trkpt lat="45.99372" lon="4.88237">
        <ele>287</ele>
        <time>2017-12-12T11:04:46Z</time>
      </trkpt>
      <trkpt lat="45.99367" lon="4.88231">
        <ele>287</ele>
        <time>2017-12-12T11:04:47Z</time>
      </trkpt>
      <trkpt lat="45.99361" lon="4.88225">
        <ele>287</ele>
        <time>2017-12-12T11:04:48Z</time>
      </trkpt>
      <trkpt lat="45.99355" lon="4.8822">
        <ele>287</ele>
        <time>2017-12-12T11:04:49Z</time>
      </trkpt>
      <trkpt lat="45.99351" lon="4.88215">
        <ele>287</ele>
        <time>2017-12-12T11:04:50Z</time>
      </trkpt>
      <trkpt lat="45.99347" lon="4.8821">
        <ele>287</ele>
        <time>2017-12-12T11:04:51Z</time>
      </trkpt>
      <trkpt lat="45.99341" lon="4.88206">
        <ele>288</ele>
        <time>2017-12-12T11:04:52Z</time>
      </trkpt>
      <trkpt lat="45.99335" lon="4.88201">
        <ele>288</ele>
        <time>2017-12-12T11:04:53Z</time>
      </trkpt>
      <trkpt lat="45.99329" lon="4.88197">
        <ele>285</ele>
        <time>2017-12-12T11:04:54Z</time>
      </trkpt>
      <trkpt lat="45.99323" lon="4.88192">
        <ele>285</ele>
        <time>2017-12-12T11:04:55Z</time>
      </trkpt>
      <trkpt lat="45.99317" lon="4.88187">
        <ele>285</ele>
        <time>2017-12-12T11:04:56Z</time>
      </trkpt>
      <trkpt lat="45.99311" lon="4.88182">
        <ele>285</ele>
        <time>2017-12-12T11:04:57Z</time>
      </trkpt>
      <trkpt lat="45.99306" lon="4.88178">
        <ele>285</ele>
        <time>2017-12-12T11:04:58Z</time>
      </trkpt>
      <trkpt lat="45.99301" lon="4.88173">
        <ele>285</ele>
        <time>2017-12-12T11:04:59Z</time>
      </trkpt>
      <trkpt lat="45.99296" lon="4.88169">
        <ele>284</ele>
        <time>2017-12-12T11:05:00Z</time>
      </trkpt>
      <trkpt lat="45.9929" lon="4.88164">
        <ele>284</ele>
        <time>2017-12-12T11:05:01Z</time>
      </trkpt>
      <trkpt lat="45.99285" lon="4.8816">
        <ele>284</ele>
        <time>2017-12-12T11:05:02Z</time>
      </trkpt>
      <trkpt lat="45.99279" lon="4.88154">
        <ele>283</ele>
        <time>2017-12-12T11:05:03Z</time>
      </trkpt>
      <trkpt lat="45.99274" lon="4.88149">
        <ele>283</ele>
        <time>2017-12-12T11:05:04Z</time>
      </trkpt>
      <trkpt lat="45.99269" lon="4.88144">
        <ele>283</ele>
        <time>2017-12-12T11:05:05Z</time>
      </trkpt>
      <trkpt lat="45.99262" lon="4.88139">
        <ele>283</ele>
        <time>2017-12-12T11:05:06Z</time>
      </trkpt>
      <trkpt lat="45.99257" lon="4.88134">
        <ele>283</ele>
        <time>2017-12-12T11:05:07Z</time>
      </trkpt>
      <trkpt lat="45.99251" lon="4.88129">
        <ele>283</ele>
        <time>2017-12-12T11:05:08Z</time>
      </trkpt>
      <trkpt lat="45.99245" lon="4.88124">
        <ele>280</ele>
        <time>2017-12-12T11:05:09Z</time>
      </trkpt>
      <trkpt lat="45.99239" lon="4.88117">
        <ele>280</ele>
        <time>2017-12-12T11:05:10Z</time>
      </trkpt>
      <trkpt lat="45.99233" lon="4.88112">
        <ele>280</ele>
        <time>2017-12-12T11:05:11Z</time>
      </trkpt>
      <trkpt lat="45.99227" lon="4.88106">
        <ele>280</ele>
        <time>2017-12-12T11:05:12Z</time>
      </trkpt>
      <trkpt lat="45.99221" lon="4.88101">
        <ele>280</ele>
        <time>2017-12-12T11:05:13Z</time>
      </trkpt>
      <trkpt lat="45.99215" lon="4.88095">
        <ele>280</ele>
        <time>2017-12-12T11:05:14Z</time>
      </trkpt>
      <trkpt lat="45.99209" lon="4.88089">
        <ele>280</ele>
        <time>2017-12-12T11:05:15Z</time>
      </trkpt>
      <trkpt lat="45.99202" lon="4.88084">
        <ele>280</ele>
        <time>2017-12-12T11:05:16Z</time>
      </trkpt>
      <trkpt lat="45.99196" lon="4.88079">
        <ele>280</ele>
        <time>2017-12-12T11:05:17Z</time>
      </trkpt>
      <trkpt lat="45.99191" lon="4.88074">
        <ele>280</ele>
        <time>2017-12-12T11:05:18Z</time>
      </trkpt>
      <trkpt lat="45.99186" lon="4.8807">
        <ele>279</ele>
        <time>2017-12-12T11:05:19Z</time>
      </trkpt>
      <trkpt lat="45.9918" lon="4.88065">
        <ele>279</ele>
        <time>2017-12-12T11:05:20Z</time>
      </trkpt>
      <trkpt lat="45.99174" lon="4.8806">
        <ele>279</ele>
        <time>2017-12-12T11:05:21Z</time>
      </trkpt>
      <trkpt lat="45.99168" lon="4.88055">
        <ele>279</ele>
        <time>2017-12-12T11:05:22Z</time>
      </trkpt>
      <trkpt lat="45.99164" lon="4.88052">
        <ele>279</ele>
        <time>2017-12-12T11:05:23Z</time>
      </trkpt>
      <trkpt lat="45.99159" lon="4.88048">
        <ele>279</ele>
        <time>2017-12-12T11:05:24Z</time>
      </trkpt>
      <trkpt lat="45.99153" lon="4.88044">
        <ele>279</ele>
        <time>2017-12-12T11:05:25Z</time>
      </trkpt>
      <trkpt lat="45.99149" lon="4.88039">
        <ele>279</ele>
        <time>2017-12-12T11:05:26Z</time>
      </trkpt>
      <trkpt lat="45.99143" lon="4.88036">
        <ele>279</ele>
        <time>2017-12-12T11:05:27Z</time>
      </trkpt>
      <trkpt lat="45.99137" lon="4.88032">
        <ele>279</ele>
        <time>2017-12-12T11:05:28Z</time>
      </trkpt>
      <trkpt lat="45.99131" lon="4.88028">
        <ele>279</ele>
        <time>2017-12-12T11:05:29Z</time>
      </trkpt>
      <trkpt lat="45.99124" lon="4.88025">
        <ele>278</ele>
        <time>2017-12-12T11:05:30Z</time>
      </trkpt>
      <trkpt lat="45.99118" lon="4.88021">
        <ele>278</ele>
        <time>2017-12-12T11:05:31Z</time>
      </trkpt>
      <trkpt lat="45.9911" lon="4.88018">
        <ele>278</ele>
        <time>2017-12-12T11:05:32Z</time>
      </trkpt>
      <trkpt lat="45.99103" lon="4.88014">
        <ele>278</ele>
        <time>2017-12-12T11:05:33Z</time>
      </trkpt>
      <trkpt lat="45.99096" lon="4.8801">
        <ele>278</ele>
        <time>2017-12-12T11:05:34Z</time>
      </trkpt>
      <trkpt lat="45.9909" lon="4.88006">
        <ele>278</ele>
        <time>2017-12-12T11:05:35Z</time>
      </trkpt>
      <trkpt lat="45.99084" lon="4.88003">
        <ele>278</ele>
        <time>2017-12-12T11:05:36Z</time>
      </trkpt>
      <trkpt lat="45.99078" lon="4.88">
        <ele>278</ele>
        <time>2017-12-12T11:05:37Z</time>
      </trkpt>
      <trkpt lat="45.99072" lon="4.87996">
        <ele>277</ele>
        <time>2017-12-12T11:05:38Z</time>
      </trkpt>
      <trkpt lat="45.99067" lon="4.87993">
        <ele>277</ele>
        <time>2017-12-12T11:05:39Z</time>
      </trkpt>
      <trkpt lat="45.99061" lon="4.87989">
        <ele>277</ele>
        <time>2017-12-12T11:05:40Z</time>
      </trkpt>
      <trkpt lat="45.99055" lon="4.87986">
        <ele>277</ele>
        <time>2017-12-12T11:05:41Z</time>
      </trkpt>
      <trkpt lat="45.99049" lon="4.87983">
        <ele>277</ele>
        <time>2017-12-12T11:05:42Z</time>
      </trkpt>
      <trkpt lat="45.99043" lon="4.8798">
        <ele>277</ele>
        <time>2017-12-12T11:05:43Z</time>
      </trkpt>
      <trkpt lat="45.99039" lon="4.87977">
        <ele>276</ele>
        <time>2017-12-12T11:05:44Z</time>
      </trkpt>
      <trkpt lat="45.99033" lon="4.87973">
        <ele>276</ele>
        <time>2017-12-12T11:05:45Z</time>
      </trkpt>
      <trkpt lat="45.99027" lon="4.8797">
        <ele>276</ele>
        <time>2017-12-12T11:05:46Z</time>
      </trkpt>
      <trkpt lat="45.99021" lon="4.87966">
        <ele>276</ele>
        <time>2017-12-12T11:05:47Z</time>
      </trkpt>
      <trkpt lat="45.99016" lon="4.87962">
        <ele>276</ele>
        <time>2017-12-12T11:05:48Z</time>
      </trkpt>
      <trkpt lat="45.99008" lon="4.8796">
        <ele>276</ele>
        <time>2017-12-12T11:05:49Z</time>
      </trkpt>
      <trkpt lat="45.99001" lon="4.87957">
        <ele>276</ele>
        <time>2017-12-12T11:05:50Z</time>
      </trkpt>
      <trkpt lat="45.98995" lon="4.87954">
        <ele>274</ele>
        <time>2017-12-12T11:05:51Z</time>
      </trkpt>
      <trkpt lat="45.98989" lon="4.8795">
        <ele>274</ele>
        <time>2017-12-12T11:05:52Z</time>
      </trkpt>
      <trkpt lat="45.98981" lon="4.87945">
        <ele>274</ele>
        <time>2017-12-12T11:05:53Z</time>
      </trkpt>
      <trkpt lat="45.98972" lon="4.87942">
        <ele>274</ele>
        <time>2017-12-12T11:05:54Z</time>
      </trkpt>
      <trkpt lat="45.98966" lon="4.87939">
        <ele>274</ele>
        <time>2017-12-12T11:05:55Z</time>
      </trkpt>
      <trkpt lat="45.98959" lon="4.87936">
        <ele>273</ele>
        <time>2017-12-12T11:05:56Z</time>
      </trkpt>
      <trkpt lat="45.98952" lon="4.87932">
        <ele>273</ele>
        <time>2017-12-12T11:05:57Z</time>
      </trkpt>
      <trkpt lat="45.98946" lon="4.87927">
        <ele>273</ele>
        <time>2017-12-12T11:05:58Z</time>
      </trkpt>
      <trkpt lat="45.98938" lon="4.87924">
        <ele>272</ele>
        <time>2017-12-12T11:05:59Z</time>
      </trkpt>
      <trkpt lat="45.9893" lon="4.8792">
        <ele>272</ele>
        <time>2017-12-12T11:06:00Z</time>
      </trkpt>
      <trkpt lat="45.98923" lon="4.87915">
        <ele>272</ele>
        <time>2017-12-12T11:06:01Z</time>
      </trkpt>
      <trkpt lat="45.98917" lon="4.87909">
        <ele>272</ele>
        <time>2017-12-12T11:06:02Z</time>
      </trkpt>
      <trkpt lat="45.98912" lon="4.87903">
        <ele>272</ele>
        <time>2017-12-12T11:06:03Z</time>
      </trkpt>
      <trkpt lat="45.98906" lon="4.87897">
        <ele>272</ele>
        <time>2017-12-12T11:06:04Z</time>
      </trkpt>
      <trkpt lat="45.98901" lon="4.87891">
        <ele>272</ele>
        <time>2017-12-12T11:06:05Z</time>
      </trkpt>
      <trkpt lat="45.98895" lon="4.87884">
        <ele>272</ele>
        <time>2017-12-12T11:06:06Z</time>
      </trkpt>
      <trkpt lat="45.98892" lon="4.87876">
        <ele>272</ele>
        <time>2017-12-12T11:06:07Z</time>
      </trkpt>
      <trkpt lat="45.98886" lon="4.87867">
        <ele>272</ele>
        <time>2017-12-12T11:06:08Z</time>
      </trkpt>
      <trkpt lat="45.9888" lon="4.87859">
        <ele>272</ele>
        <time>2017-12-12T11:06:09Z</time>
      </trkpt>
      <trkpt lat="45.98877" lon="4.87851">
        <ele>272</ele>
        <time>2017-12-12T11:06:10Z</time>
      </trkpt>
      <trkpt lat="45.98872" lon="4.87843">
        <ele>273</ele>
        <time>2017-12-12T11:06:11Z</time>
      </trkpt>
      <trkpt lat="45.98868" lon="4.87835">
        <ele>273</ele>
        <time>2017-12-12T11:06:12Z</time>
      </trkpt>
      <trkpt lat="45.98863" lon="4.87826">
        <ele>273</ele>
        <time>2017-12-12T11:06:13Z</time>
      </trkpt>
      <trkpt lat="45.9886" lon="4.87819">
        <ele>273</ele>
        <time>2017-12-12T11:06:14Z</time>
      </trkpt>
      <trkpt lat="45.98857" lon="4.87812">
        <ele>273</ele>
        <time>2017-12-12T11:06:15Z</time>
      </trkpt>
      <trkpt lat="45.98854" lon="4.87804">
        <ele>273</ele>
        <time>2017-12-12T11:06:16Z</time>
      </trkpt>
      <trkpt lat="45.98851" lon="4.87798">
        <ele>273</ele>
        <time>2017-12-12T11:06:17Z</time>
      </trkpt>
      <trkpt lat="45.98848" lon="4.8779">
        <ele>273</ele>
        <time>2017-12-12T11:06:18Z</time>
      </trkpt>
      <trkpt lat="45.98846" lon="4.87782">
        <ele>273</ele>
        <time>2017-12-12T11:06:19Z</time>
      </trkpt>
      <trkpt lat="45.98844" lon="4.87773">
        <ele>273</ele>
        <time>2017-12-12T11:06:20Z</time>
      </trkpt>
      <trkpt lat="45.98842" lon="4.87763">
        <ele>273</ele>
        <time>2017-12-12T11:06:21Z</time>
      </trkpt>
      <trkpt lat="45.9884" lon="4.87754">
        <ele>273</ele>
        <time>2017-12-12T11:06:22Z</time>
      </trkpt>
      <trkpt lat="45.98839" lon="4.87744">
        <ele>273</ele>
        <time>2017-12-12T11:06:23Z</time>
      </trkpt>
      <trkpt lat="45.98838" lon="4.87735">
        <ele>273</ele>
        <time>2017-12-12T11:06:24Z</time>
      </trkpt>
      <trkpt lat="45.98836" lon="4.87726">
        <ele>273</ele>
        <time>2017-12-12T11:06:25Z</time>
      </trkpt>
      <trkpt lat="45.98834" lon="4.87716">
        <ele>273</ele>
        <time>2017-12-12T11:06:26Z</time>
      </trkpt>
      <trkpt lat="45.98832" lon="4.87706">
        <ele>273</ele>
        <time>2017-12-12T11:06:27Z</time>
      </trkpt>
      <trkpt lat="45.9883" lon="4.87697">
        <ele>273</ele>
        <time>2017-12-12T11:06:28Z</time>
      </trkpt>
      <trkpt lat="45.98828" lon="4.87688">
        <ele>273</ele>
        <time>2017-12-12T11:06:29Z</time>
      </trkpt>
      <trkpt lat="45.98826" lon="4.87678">
        <ele>273</ele>
        <time>2017-12-12T11:06:30Z</time>
      </trkpt>
      <trkpt lat="45.98825" lon="4.87669">
        <ele>273</ele>
        <time>2017-12-12T11:06:31Z</time>
      </trkpt>
      <trkpt lat="45.98823" lon="4.87662">
        <ele>272</ele>
        <time>2017-12-12T11:06:32Z</time>
      </trkpt>
      <trkpt lat="45.98822" lon="4.87654">
        <ele>272</ele>
        <time>2017-12-12T11:06:33Z</time>
      </trkpt>
      <trkpt lat="45.9882" lon="4.87647">
        <ele>272</ele>
        <time>2017-12-12T11:06:34Z</time>
      </trkpt>
      <trkpt lat="45.98818" lon="4.87639">
        <ele>272</ele>
        <time>2017-12-12T11:06:35Z</time>
      </trkpt>
      <trkpt lat="45.98816" lon="4.87631">
        <ele>271</ele>
        <time>2017-12-12T11:06:36Z</time>
      </trkpt>
      <trkpt lat="45.98813" lon="4.87623">
        <ele>271</ele>
        <time>2017-12-12T11:06:37Z</time>
      </trkpt>
      <trkpt lat="45.98809" lon="4.87616">
        <ele>271</ele>
        <time>2017-12-12T11:06:38Z</time>
      </trkpt>
      <trkpt lat="45.98804" lon="4.8761">
        <ele>271</ele>
        <time>2017-12-12T11:06:39Z</time>
      </trkpt>
      <trkpt lat="45.98799" lon="4.87603">
        <ele>271</ele>
        <time>2017-12-12T11:06:40Z</time>
      </trkpt>
      <trkpt lat="45.98794" lon="4.87597">
        <ele>271</ele>
        <time>2017-12-12T11:06:41Z</time>
      </trkpt>
      <trkpt lat="45.98789" lon="4.8759">
        <ele>271</ele>
        <time>2017-12-12T11:06:42Z</time>
      </trkpt>
      <trkpt lat="45.98782" lon="4.87585">
        <ele>270</ele>
        <time>2017-12-12T11:06:43Z</time>
      </trkpt>
      <trkpt lat="45.98775" lon="4.8758">
        <ele>269</ele>
        <time>2017-12-12T11:06:44Z</time>
      </trkpt>
      <trkpt lat="45.98768" lon="4.87575">
        <ele>269</ele>
        <time>2017-12-12T11:06:45Z</time>
      </trkpt>
      <trkpt lat="45.98763" lon="4.87571">
        <ele>269</ele>
        <time>2017-12-12T11:06:46Z</time>
      </trkpt>
      <trkpt lat="45.98757" lon="4.87566">
        <ele>269</ele>
        <time>2017-12-12T11:06:47Z</time>
      </trkpt>
      <trkpt lat="45.98752" lon="4.87561">
        <ele>269</ele>
        <time>2017-12-12T11:06:48Z</time>
      </trkpt>
      <trkpt lat="45.98746" lon="4.87559">
        <ele>267</ele>
        <time>2017-12-12T11:06:49Z</time>
      </trkpt>
      <trkpt lat="45.98742" lon="4.87556">
        <ele>267</ele>
        <time>2017-12-12T11:06:50Z</time>
      </trkpt>
      <trkpt lat="45.98736" lon="4.87556">
        <ele>267</ele>
        <time>2017-12-12T11:06:51Z</time>
      </trkpt>
      <trkpt lat="45.98728" lon="4.87557">
        <ele>267</ele>
        <time>2017-12-12T11:06:52Z</time>
      </trkpt>
      <trkpt lat="45.9872" lon="4.87559">
        <ele>267</ele>
        <time>2017-12-12T11:06:54Z</time>
      </trkpt>
      <trkpt lat="45.98716" lon="4.8756">
        <ele>267</ele>
        <time>2017-12-12T11:06:55Z</time>
      </trkpt>
      <trkpt lat="45.98711" lon="4.87562">
        <ele>267</ele>
        <time>2017-12-12T11:06:56Z</time>
      </trkpt>
      <trkpt lat="45.98706" lon="4.87564">
        <ele>267</ele>
        <time>2017-12-12T11:06:57Z</time>
      </trkpt>
      <trkpt lat="45.98701" lon="4.87565">
        <ele>267</ele>
        <time>2017-12-12T11:06:58Z</time>
      </trkpt>
      <trkpt lat="45.98695" lon="4.87566">
        <ele>267</ele>
        <time>2017-12-12T11:06:59Z</time>
      </trkpt>
      <trkpt lat="45.9869" lon="4.87568">
        <ele>267</ele>
        <time>2017-12-12T11:07:00Z</time>
      </trkpt>
      <trkpt lat="45.98684" lon="4.8757">
        <ele>267</ele>
        <time>2017-12-12T11:07:01Z</time>
      </trkpt>
      <trkpt lat="45.98677" lon="4.87572">
        <ele>267</ele>
        <time>2017-12-12T11:07:02Z</time>
      </trkpt>
      <trkpt lat="45.98673" lon="4.87571">
        <ele>267</ele>
        <time>2017-12-12T11:07:03Z</time>
      </trkpt>
      <trkpt lat="45.98667" lon="4.87571">
        <ele>267</ele>
        <time>2017-12-12T11:07:04Z</time>
      </trkpt>
      <trkpt lat="45.98661" lon="4.87568">
        <ele>267</ele>
        <time>2017-12-12T11:07:05Z</time>
      </trkpt>
      <trkpt lat="45.98655" lon="4.87566">
        <ele>267</ele>
        <time>2017-12-12T11:07:06Z</time>
      </trkpt>
      <trkpt lat="45.98649" lon="4.87562">
        <ele>267</ele>
        <time>2017-12-12T11:07:07Z</time>
      </trkpt>
      <trkpt lat="45.98649" lon="4.87554">
        <ele>267</ele>
        <time>2017-12-12T11:07:08Z</time>
      </trkpt>
      <trkpt lat="45.98646" lon="4.87547">
        <ele>267</ele>
        <time>2017-12-12T11:07:09Z</time>
      </trkpt>
      <trkpt lat="45.98644" lon="4.87542">
        <ele>267</ele>
        <time>2017-12-12T11:07:10Z</time>
      </trkpt>
      <trkpt lat="45.98643" lon="4.87534">
        <ele>267</ele>
        <time>2017-12-12T11:07:11Z</time>
      </trkpt>
      <trkpt lat="45.98641" lon="4.87526">
        <ele>267</ele>
        <time>2017-12-12T11:07:12Z</time>
      </trkpt>
      <trkpt lat="45.98639" lon="4.8752">
        <ele>267</ele>
        <time>2017-12-12T11:07:13Z</time>
      </trkpt>
      <trkpt lat="45.98637" lon="4.87508">
        <ele>267</ele>
        <time>2017-12-12T11:07:15Z</time>
      </trkpt>
      <trkpt lat="45.98637" lon="4.87502">
        <ele>267</ele>
        <time>2017-12-12T11:07:16Z</time>
      </trkpt>
      <trkpt lat="45.98635" lon="4.87496">
        <ele>267</ele>
        <time>2017-12-12T11:07:17Z</time>
      </trkpt>
      <trkpt lat="45.98634" lon="4.8749">
        <ele>268</ele>
        <time>2017-12-12T11:07:18Z</time>
      </trkpt>
      <trkpt lat="45.98633" lon="4.87483">
        <ele>268</ele>
        <time>2017-12-12T11:07:19Z</time>
      </trkpt>
      <trkpt lat="45.98633" lon="4.87476">
        <ele>268</ele>
        <time>2017-12-12T11:07:20Z</time>
      </trkpt>
      <trkpt lat="45.98631" lon="4.87464">
        <ele>268</ele>
        <time>2017-12-12T11:07:22Z</time>
      </trkpt>
      <trkpt lat="45.9863" lon="4.87459">
        <ele>268</ele>
        <time>2017-12-12T11:07:23Z</time>
      </trkpt>
      <trkpt lat="45.98627" lon="4.87447">
        <ele>268</ele>
        <time>2017-12-12T11:07:25Z</time>
      </trkpt>
      <trkpt lat="45.98625" lon="4.87441">
        <ele>268</ele>
        <time>2017-12-12T11:07:26Z</time>
      </trkpt>
      <trkpt lat="45.98624" lon="4.87435">
        <ele>269</ele>
        <time>2017-12-12T11:07:27Z</time>
      </trkpt>
      <trkpt lat="45.98622" lon="4.87429">
        <ele>269</ele>
        <time>2017-12-12T11:07:28Z</time>
      </trkpt>
      <trkpt lat="45.9862" lon="4.87417">
        <ele>269</ele>
        <time>2017-12-12T11:07:30Z</time>
      </trkpt>
      <trkpt lat="45.9862" lon="4.87412">
        <ele>271</ele>
        <time>2017-12-12T11:07:31Z</time>
      </trkpt>
      <trkpt lat="45.98618" lon="4.874">
        <ele>271</ele>
        <time>2017-12-12T11:07:33Z</time>
      </trkpt>
      <trkpt lat="45.98617" lon="4.87393">
        <ele>271</ele>
        <time>2017-12-12T11:07:34Z</time>
      </trkpt>
      <trkpt lat="45.98616" lon="4.87387">
        <ele>271</ele>
        <time>2017-12-12T11:07:35Z</time>
      </trkpt>
      <trkpt lat="45.98615" lon="4.8738">
        <ele>271</ele>
        <time>2017-12-12T11:07:36Z</time>
      </trkpt>
      <trkpt lat="45.98613" lon="4.87374">
        <ele>271</ele>
        <time>2017-12-12T11:07:37Z</time>
      </trkpt>
      <trkpt lat="45.98613" lon="4.87367">
        <ele>271</ele>
        <time>2017-12-12T11:07:38Z</time>
      </trkpt>
      <trkpt lat="45.98611" lon="4.87361">
        <ele>272</ele>
        <time>2017-12-12T11:07:39Z</time>
      </trkpt>
      <trkpt lat="45.98609" lon="4.87355">
        <ele>272</ele>
        <time>2017-12-12T11:07:40Z</time>
      </trkpt>
      <trkpt lat="45.98607" lon="4.87348">
        <ele>272</ele>
        <time>2017-12-12T11:07:41Z</time>
      </trkpt>
      <trkpt lat="45.98606" lon="4.87343">
        <ele>272</ele>
        <time>2017-12-12T11:07:42Z</time>
      </trkpt>
      <trkpt lat="45.98604" lon="4.87331">
        <ele>274</ele>
        <time>2017-12-12T11:07:44Z</time>
      </trkpt>
      <trkpt lat="45.98604" lon="4.87325">
        <ele>274</ele>
        <time>2017-12-12T11:07:45Z</time>
      </trkpt>
      <trkpt lat="45.98604" lon="4.87313">
        <ele>274</ele>
        <time>2017-12-12T11:07:47Z</time>
      </trkpt>
      <trkpt lat="45.98604" lon="4.87307">
        <ele>274</ele>
        <time>2017-12-12T11:07:48Z</time>
      </trkpt>
      <trkpt lat="45.98604" lon="4.873">
        <ele>274</ele>
        <time>2017-12-12T11:07:49Z</time>
      </trkpt>
      <trkpt lat="45.98604" lon="4.87293">
        <ele>275</ele>
        <time>2017-12-12T11:07:50Z</time>
      </trkpt>
      <trkpt lat="45.98604" lon="4.8728">
        <ele>275</ele>
        <time>2017-12-12T11:07:52Z</time>
      </trkpt>
      <trkpt lat="45.98605" lon="4.87273">
        <ele>275</ele>
        <time>2017-12-12T11:07:53Z</time>
      </trkpt>
      <trkpt lat="45.98605" lon="4.87267">
        <ele>275</ele>
        <time>2017-12-12T11:07:54Z</time>
      </trkpt>
      <trkpt lat="45.98606" lon="4.8726">
        <ele>275</ele>
        <time>2017-12-12T11:07:55Z</time>
      </trkpt>
      <trkpt lat="45.98606" lon="4.87253">
        <ele>275</ele>
        <time>2017-12-12T11:07:56Z</time>
      </trkpt>
      <trkpt lat="45.98606" lon="4.87247">
        <ele>277</ele>
        <time>2017-12-12T11:07:57Z</time>
      </trkpt>
      <trkpt lat="45.98606" lon="4.87236">
        <ele>277</ele>
        <time>2017-12-12T11:07:59Z</time>
      </trkpt>
      <trkpt lat="45.98606" lon="4.8723">
        <ele>277</ele>
        <time>2017-12-12T11:08:00Z</time>
      </trkpt>
      <trkpt lat="45.98606" lon="4.87223">
        <ele>277</ele>
        <time>2017-12-12T11:08:01Z</time>
      </trkpt>
      <trkpt lat="45.98607" lon="4.87215">
        <ele>277</ele>
        <time>2017-12-12T11:08:02Z</time>
      </trkpt>
      <trkpt lat="45.98607" lon="4.87203">
        <ele>277</ele>
        <time>2017-12-12T11:08:04Z</time>
      </trkpt>
      <trkpt lat="45.98607" lon="4.87197">
        <ele>277</ele>
        <time>2017-12-12T11:08:05Z</time>
      </trkpt>
      <trkpt lat="45.98607" lon="4.87191">
        <ele>277</ele>
        <time>2017-12-12T11:08:06Z</time>
      </trkpt>
      <trkpt lat="45.98609" lon="4.87184">
        <ele>277</ele>
        <time>2017-12-12T11:08:07Z</time>
      </trkpt>
      <trkpt lat="45.98608" lon="4.87177">
        <ele>277</ele>
        <time>2017-12-12T11:08:08Z</time>
      </trkpt>
      <trkpt lat="45.9861" lon="4.87171">
        <ele>278</ele>
        <time>2017-12-12T11:08:09Z</time>
      </trkpt>
      <trkpt lat="45.98612" lon="4.87163">
        <ele>278</ele>
        <time>2017-12-12T11:08:10Z</time>
      </trkpt>
      <trkpt lat="45.98613" lon="4.87156">
        <ele>278</ele>
        <time>2017-12-12T11:08:11Z</time>
      </trkpt>
      <trkpt lat="45.98614" lon="4.87144">
        <ele>278</ele>
        <time>2017-12-12T11:08:13Z</time>
      </trkpt>
      <trkpt lat="45.98613" lon="4.87137">
        <ele>279</ele>
        <time>2017-12-12T11:08:14Z</time>
      </trkpt>
      <trkpt lat="45.98612" lon="4.87125">
        <ele>279</ele>
        <time>2017-12-12T11:08:16Z</time>
      </trkpt>
      <trkpt lat="45.98612" lon="4.87119">
        <ele>279</ele>
        <time>2017-12-12T11:08:17Z</time>
      </trkpt>
      <trkpt lat="45.98608" lon="4.8711">
        <ele>279</ele>
        <time>2017-12-12T11:08:19Z</time>
      </trkpt>
      <trkpt lat="45.98606" lon="4.87104">
        <ele>279</ele>
        <time>2017-12-12T11:08:20Z</time>
      </trkpt>
      <trkpt lat="45.98606" lon="4.87098">
        <ele>279</ele>
        <time>2017-12-12T11:08:21Z</time>
      </trkpt>
      <trkpt lat="45.98607" lon="4.8709">
        <ele>279</ele>
        <time>2017-12-12T11:08:22Z</time>
      </trkpt>
      <trkpt lat="45.9861" lon="4.87078">
        <ele>279</ele>
        <time>2017-12-12T11:08:24Z</time>
      </trkpt>
      <trkpt lat="45.9861" lon="4.87073">
        <ele>279</ele>
        <time>2017-12-12T11:08:25Z</time>
      </trkpt>
      <trkpt lat="45.9861" lon="4.87066">
        <ele>279</ele>
        <time>2017-12-12T11:08:26Z</time>
      </trkpt>
      <trkpt lat="45.9861" lon="4.8706">
        <ele>279</ele>
        <time>2017-12-12T11:08:27Z</time>
      </trkpt>
      <trkpt lat="45.98608" lon="4.87052">
        <ele>279</ele>
        <time>2017-12-12T11:08:28Z</time>
      </trkpt>
      <trkpt lat="45.98606" lon="4.87044">
        <ele>279</ele>
        <time>2017-12-12T11:08:29Z</time>
      </trkpt>
      <trkpt lat="45.98605" lon="4.87037">
        <ele>279</ele>
        <time>2017-12-12T11:08:30Z</time>
      </trkpt>
      <trkpt lat="45.98603" lon="4.8703">
        <ele>279</ele>
        <time>2017-12-12T11:08:31Z</time>
      </trkpt>
      <trkpt lat="45.986" lon="4.87022">
        <ele>279</ele>
        <time>2017-12-12T11:08:32Z</time>
      </trkpt>
      <trkpt lat="45.98597" lon="4.87015">
        <ele>279</ele>
        <time>2017-12-12T11:08:33Z</time>
      </trkpt>
      <trkpt lat="45.98596" lon="4.87008">
        <ele>279</ele>
        <time>2017-12-12T11:08:34Z</time>
      </trkpt>
      <trkpt lat="45.98596" lon="4.87001">
        <ele>279</ele>
        <time>2017-12-12T11:08:35Z</time>
      </trkpt>
      <trkpt lat="45.98595" lon="4.86988">
        <ele>279</ele>
        <time>2017-12-12T11:08:37Z</time>
      </trkpt>
      <trkpt lat="45.98594" lon="4.86981">
        <ele>279</ele>
        <time>2017-12-12T11:08:38Z</time>
      </trkpt>
      <trkpt lat="45.98594" lon="4.86975">
        <ele>279</ele>
        <time>2017-12-12T11:08:39Z</time>
      </trkpt>
      <trkpt lat="45.98594" lon="4.86968">
        <ele>279</ele>
        <time>2017-12-12T11:08:40Z</time>
      </trkpt>
      <trkpt lat="45.98594" lon="4.86961">
        <ele>279</ele>
        <time>2017-12-12T11:08:41Z</time>
      </trkpt>
      <trkpt lat="45.98593" lon="4.86954">
        <ele>278</ele>
        <time>2017-12-12T11:08:42Z</time>
      </trkpt>
      <trkpt lat="45.98593" lon="4.86947">
        <ele>278</ele>
        <time>2017-12-12T11:08:43Z</time>
      </trkpt>
      <trkpt lat="45.98593" lon="4.8694">
        <ele>278</ele>
        <time>2017-12-12T11:08:44Z</time>
      </trkpt>
      <trkpt lat="45.98593" lon="4.86928">
        <ele>279</ele>
        <time>2017-12-12T11:08:46Z</time>
      </trkpt>
      <trkpt lat="45.98596" lon="4.86921">
        <ele>279</ele>
        <time>2017-12-12T11:08:47Z</time>
      </trkpt>
      <trkpt lat="45.98596" lon="4.86909">
        <ele>278</ele>
        <time>2017-12-12T11:08:49Z</time>
      </trkpt>
      <trkpt lat="45.98597" lon="4.86902">
        <ele>278</ele>
        <time>2017-12-12T11:08:50Z</time>
      </trkpt>
      <trkpt lat="45.98598" lon="4.86896">
        <ele>278</ele>
        <time>2017-12-12T11:08:51Z</time>
      </trkpt>
      <trkpt lat="45.98598" lon="4.8689">
        <ele>278</ele>
        <time>2017-12-12T11:08:52Z</time>
      </trkpt>
      <trkpt lat="45.98597" lon="4.86882">
        <ele>277</ele>
        <time>2017-12-12T11:08:53Z</time>
      </trkpt>
      <trkpt lat="45.98596" lon="4.86876">
        <ele>277</ele>
        <time>2017-12-12T11:08:54Z</time>
      </trkpt>
      <trkpt lat="45.98595" lon="4.86863">
        <ele>277</ele>
        <time>2017-12-12T11:08:56Z</time>
      </trkpt>
      <trkpt lat="45.98593" lon="4.86856">
        <ele>277</ele>
        <time>2017-12-12T11:08:57Z</time>
      </trkpt>
      <trkpt lat="45.98593" lon="4.86849">
        <ele>277</ele>
        <time>2017-12-12T11:08:58Z</time>
      </trkpt>
      <trkpt lat="45.98593" lon="4.86842">
        <ele>277</ele>
        <time>2017-12-12T11:08:59Z</time>
      </trkpt>
      <trkpt lat="45.98592" lon="4.86834">
        <ele>277</ele>
        <time>2017-12-12T11:09:00Z</time>
      </trkpt>
      <trkpt lat="45.9859" lon="4.86826">
        <ele>277</ele>
        <time>2017-12-12T11:09:01Z</time>
      </trkpt>
      <trkpt lat="45.98589" lon="4.8682">
        <ele>276</ele>
        <time>2017-12-12T11:09:02Z</time>
      </trkpt>
      <trkpt lat="45.98588" lon="4.86813">
        <ele>276</ele>
        <time>2017-12-12T11:09:03Z</time>
      </trkpt>
      <trkpt lat="45.98586" lon="4.86806">
        <ele>276</ele>
        <time>2017-12-12T11:09:04Z</time>
      </trkpt>
      <trkpt lat="45.98585" lon="4.86798">
        <ele>276</ele>
        <time>2017-12-12T11:09:05Z</time>
      </trkpt>
      <trkpt lat="45.98583" lon="4.86791">
        <ele>276</ele>
        <time>2017-12-12T11:09:06Z</time>
      </trkpt>
      <trkpt lat="45.98582" lon="4.86785">
        <ele>277</ele>
        <time>2017-12-12T11:09:07Z</time>
      </trkpt>
      <trkpt lat="45.98581" lon="4.86779">
        <ele>277</ele>
        <time>2017-12-12T11:09:08Z</time>
      </trkpt>
      <trkpt lat="45.98579" lon="4.86772">
        <ele>277</ele>
        <time>2017-12-12T11:09:09Z</time>
      </trkpt>
      <trkpt lat="45.98579" lon="4.86765">
        <ele>277</ele>
        <time>2017-12-12T11:09:10Z</time>
      </trkpt>
      <trkpt lat="45.98577" lon="4.86758">
        <ele>277</ele>
        <time>2017-12-12T11:09:11Z</time>
      </trkpt>
      <trkpt lat="45.98577" lon="4.8675">
        <ele>276</ele>
        <time>2017-12-12T11:09:12Z</time>
      </trkpt>
      <trkpt lat="45.98576" lon="4.86743">
        <ele>276</ele>
        <time>2017-12-12T11:09:13Z</time>
      </trkpt>
      <trkpt lat="45.98576" lon="4.86736">
        <ele>277</ele>
        <time>2017-12-12T11:09:14Z</time>
      </trkpt>
      <trkpt lat="45.98575" lon="4.86729">
        <ele>277</ele>
        <time>2017-12-12T11:09:15Z</time>
      </trkpt>
      <trkpt lat="45.98574" lon="4.86722">
        <ele>277</ele>
        <time>2017-12-12T11:09:16Z</time>
      </trkpt>
      <trkpt lat="45.98574" lon="4.86715">
        <ele>277</ele>
        <time>2017-12-12T11:09:17Z</time>
      </trkpt>
      <trkpt lat="45.98573" lon="4.86708">
        <ele>277</ele>
        <time>2017-12-12T11:09:18Z</time>
      </trkpt>
      <trkpt lat="45.98572" lon="4.86701">
        <ele>277</ele>
        <time>2017-12-12T11:09:19Z</time>
      </trkpt>
      <trkpt lat="45.98571" lon="4.86693">
        <ele>277</ele>
        <time>2017-12-12T11:09:20Z</time>
      </trkpt>
      <trkpt lat="45.9857" lon="4.86686">
        <ele>277</ele>
        <time>2017-12-12T11:09:21Z</time>
      </trkpt>
      <trkpt lat="45.98569" lon="4.86678">
        <ele>276</ele>
        <time>2017-12-12T11:09:22Z</time>
      </trkpt>
      <trkpt lat="45.98569" lon="4.8667">
        <ele>276</ele>
        <time>2017-12-12T11:09:23Z</time>
      </trkpt>
      <trkpt lat="45.98568" lon="4.86663">
        <ele>276</ele>
        <time>2017-12-12T11:09:24Z</time>
      </trkpt>
      <trkpt lat="45.98568" lon="4.86655">
        <ele>277</ele>
        <time>2017-12-12T11:09:25Z</time>
      </trkpt>
      <trkpt lat="45.98566" lon="4.86647">
        <ele>277</ele>
        <time>2017-12-12T11:09:26Z</time>
      </trkpt>
      <trkpt lat="45.98565" lon="4.86641">
        <ele>277</ele>
        <time>2017-12-12T11:09:27Z</time>
      </trkpt>
      <trkpt lat="45.98563" lon="4.86633">
        <ele>277</ele>
        <time>2017-12-12T11:09:28Z</time>
      </trkpt>
      <trkpt lat="45.98562" lon="4.86625">
        <ele>278</ele>
        <time>2017-12-12T11:09:29Z</time>
      </trkpt>
      <trkpt lat="45.98561" lon="4.86618">
        <ele>278</ele>
        <time>2017-12-12T11:09:30Z</time>
      </trkpt>
      <trkpt lat="45.9856" lon="4.8661">
        <ele>278</ele>
        <time>2017-12-12T11:09:31Z</time>
      </trkpt>
      <trkpt lat="45.98558" lon="4.86602">
        <ele>278</ele>
        <time>2017-12-12T11:09:32Z</time>
      </trkpt>
      <trkpt lat="45.98557" lon="4.86595">
        <ele>278</ele>
        <time>2017-12-12T11:09:33Z</time>
      </trkpt>
      <trkpt lat="45.98555" lon="4.86587">
        <ele>278</ele>
        <time>2017-12-12T11:09:34Z</time>
      </trkpt>
      <trkpt lat="45.98553" lon="4.8658">
        <ele>278</ele>
        <time>2017-12-12T11:09:35Z</time>
      </trkpt>
      <trkpt lat="45.98551" lon="4.86573">
        <ele>278</ele>
        <time>2017-12-12T11:09:36Z</time>
      </trkpt>
      <trkpt lat="45.98549" lon="4.86566">
        <ele>278</ele>
        <time>2017-12-12T11:09:37Z</time>
      </trkpt>
      <trkpt lat="45.98546" lon="4.8656">
        <ele>278</ele>
        <time>2017-12-12T11:09:38Z</time>
      </trkpt>
      <trkpt lat="45.98543" lon="4.86553">
        <ele>278</ele>
        <time>2017-12-12T11:09:39Z</time>
      </trkpt>
      <trkpt lat="45.9854" lon="4.86548">
        <ele>278</ele>
        <time>2017-12-12T11:09:40Z</time>
      </trkpt>
      <trkpt lat="45.98537" lon="4.86542">
        <ele>278</ele>
        <time>2017-12-12T11:09:41Z</time>
      </trkpt>
      <trkpt lat="45.98535" lon="4.86536">
        <ele>278</ele>
        <time>2017-12-12T11:09:42Z</time>
      </trkpt>
      <trkpt lat="45.98532" lon="4.86531">
        <ele>278</ele>
        <time>2017-12-12T11:09:43Z</time>
      </trkpt>
      <trkpt lat="45.98528" lon="4.86524">
        <ele>279</ele>
        <time>2017-12-12T11:09:44Z</time>
      </trkpt>
      <trkpt lat="45.98525" lon="4.86518">
        <ele>279</ele>
        <time>2017-12-12T11:09:45Z</time>
      </trkpt>
      <trkpt lat="45.98522" lon="4.86512">
        <ele>279</ele>
        <time>2017-12-12T11:09:46Z</time>
      </trkpt>
      <trkpt lat="45.98519" lon="4.86507">
        <ele>279</ele>
        <time>2017-12-12T11:09:47Z</time>
      </trkpt>
      <trkpt lat="45.98516" lon="4.86501">
        <ele>279</ele>
        <time>2017-12-12T11:09:48Z</time>
      </trkpt>
      <trkpt lat="45.98514" lon="4.86496">
        <ele>279</ele>
        <time>2017-12-12T11:09:49Z</time>
      </trkpt>
      <trkpt lat="45.98511" lon="4.8649">
        <ele>279</ele>
        <time>2017-12-12T11:09:50Z</time>
      </trkpt>
      <trkpt lat="45.98508" lon="4.86484">
        <ele>278</ele>
        <time>2017-12-12T11:09:51Z</time>
      </trkpt>
      <trkpt lat="45.98504" lon="4.86478">
        <ele>278</ele>
        <time>2017-12-12T11:09:52Z</time>
      </trkpt>
      <trkpt lat="45.98502" lon="4.86472">
        <ele>278</ele>
        <time>2017-12-12T11:09:53Z</time>
      </trkpt>
      <trkpt lat="45.98498" lon="4.86466">
        <ele>279</ele>
        <time>2017-12-12T11:09:54Z</time>
      </trkpt>
      <trkpt lat="45.98495" lon="4.8646">
        <ele>278</ele>
        <time>2017-12-12T11:09:55Z</time>
      </trkpt>
      <trkpt lat="45.98493" lon="4.86454">
        <ele>278</ele>
        <time>2017-12-12T11:09:56Z</time>
      </trkpt>
      <trkpt lat="45.98491" lon="4.86448">
        <ele>278</ele>
        <time>2017-12-12T11:09:57Z</time>
      </trkpt>
      <trkpt lat="45.98488" lon="4.86443">
        <ele>278</ele>
        <time>2017-12-12T11:09:58Z</time>
      </trkpt>
      <trkpt lat="45.98485" lon="4.86438">
        <ele>278</ele>
        <time>2017-12-12T11:09:59Z</time>
      </trkpt>
      <trkpt lat="45.98483" lon="4.86431">
        <ele>278</ele>
        <time>2017-12-12T11:10:00Z</time>
      </trkpt>
      <trkpt lat="45.98481" lon="4.86425">
        <ele>278</ele>
        <time>2017-12-12T11:10:01Z</time>
      </trkpt>
      <trkpt lat="45.98478" lon="4.8642">
        <ele>278</ele>
        <time>2017-12-12T11:10:02Z</time>
      </trkpt>
      <trkpt lat="45.98475" lon="4.86414">
        <ele>277</ele>
        <time>2017-12-12T11:10:03Z</time>
      </trkpt>
      <trkpt lat="45.98472" lon="4.86409">
        <ele>277</ele>
        <time>2017-12-12T11:10:04Z</time>
      </trkpt>
      <trkpt lat="45.9847" lon="4.86402">
        <ele>277</ele>
        <time>2017-12-12T11:10:05Z</time>
      </trkpt>
      <trkpt lat="45.98465" lon="4.86391">
        <ele>277</ele>
        <time>2017-12-12T11:10:07Z</time>
      </trkpt>
      <trkpt lat="45.98464" lon="4.86384">
        <ele>277</ele>
        <time>2017-12-12T11:10:08Z</time>
      </trkpt>
      <trkpt lat="45.98463" lon="4.86377">
        <ele>277</ele>
        <time>2017-12-12T11:10:09Z</time>
      </trkpt>
      <trkpt lat="45.9846" lon="4.86371">
        <ele>277</ele>
        <time>2017-12-12T11:10:10Z</time>
      </trkpt>
      <trkpt lat="45.98458" lon="4.86365">
        <ele>277</ele>
        <time>2017-12-12T11:10:11Z</time>
      </trkpt>
      <trkpt lat="45.98456" lon="4.86357">
        <ele>277</ele>
        <time>2017-12-12T11:10:12Z</time>
      </trkpt>
      <trkpt lat="45.98455" lon="4.8635">
        <ele>277</ele>
        <time>2017-12-12T11:10:13Z</time>
      </trkpt>
      <trkpt lat="45.98452" lon="4.86343">
        <ele>277</ele>
        <time>2017-12-12T11:10:14Z</time>
      </trkpt>
      <trkpt lat="45.9845" lon="4.86336">
        <ele>277</ele>
        <time>2017-12-12T11:10:15Z</time>
      </trkpt>
      <trkpt lat="45.98449" lon="4.86329">
        <ele>276</ele>
        <time>2017-12-12T11:10:16Z</time>
      </trkpt>
      <trkpt lat="45.98447" lon="4.86322">
        <ele>276</ele>
        <time>2017-12-12T11:10:17Z</time>
      </trkpt>
      <trkpt lat="45.98447" lon="4.86315">
        <ele>276</ele>
        <time>2017-12-12T11:10:18Z</time>
      </trkpt>
      <trkpt lat="45.98446" lon="4.86308">
        <ele>276</ele>
        <time>2017-12-12T11:10:19Z</time>
      </trkpt>
      <trkpt lat="45.98445" lon="4.863">
        <ele>276</ele>
        <time>2017-12-12T11:10:20Z</time>
      </trkpt>
      <trkpt lat="45.98443" lon="4.86294">
        <ele>276</ele>
        <time>2017-12-12T11:10:21Z</time>
      </trkpt>
      <trkpt lat="45.98441" lon="4.86287">
        <ele>276</ele>
        <time>2017-12-12T11:10:22Z</time>
      </trkpt>
      <trkpt lat="45.98438" lon="4.86276">
        <ele>276</ele>
        <time>2017-12-12T11:10:24Z</time>
      </trkpt>
      <trkpt lat="45.98436" lon="4.8627">
        <ele>275</ele>
        <time>2017-12-12T11:10:25Z</time>
      </trkpt>
      <trkpt lat="45.98437" lon="4.86259">
        <ele>275</ele>
        <time>2017-12-12T11:10:27Z</time>
      </trkpt>
      <trkpt lat="45.98437" lon="4.86254">
        <ele>275</ele>
        <time>2017-12-12T11:10:28Z</time>
      </trkpt>
      <trkpt lat="45.98435" lon="4.86245">
        <ele>275</ele>
        <time>2017-12-12T11:10:30Z</time>
      </trkpt>
      <trkpt lat="45.98434" lon="4.86241">
        <ele>275</ele>
        <time>2017-12-12T11:10:31Z</time>
      </trkpt>
      <trkpt lat="45.98432" lon="4.86233">
        <ele>275</ele>
        <time>2017-12-12T11:10:33Z</time>
      </trkpt>
      <trkpt lat="45.98432" lon="4.86228">
        <ele>275</ele>
        <time>2017-12-12T11:10:34Z</time>
      </trkpt>
      <trkpt lat="45.9843" lon="4.86219">
        <ele>275</ele>
        <time>2017-12-12T11:10:36Z</time>
      </trkpt>
      <trkpt lat="45.9843" lon="4.86213">
        <ele>275</ele>
        <time>2017-12-12T11:10:37Z</time>
      </trkpt>
      <trkpt lat="45.98428" lon="4.86203">
        <ele>275</ele>
        <time>2017-12-12T11:10:39Z</time>
      </trkpt>
      <trkpt lat="45.98427" lon="4.86198">
        <ele>275</ele>
        <time>2017-12-12T11:10:40Z</time>
      </trkpt>
      <trkpt lat="45.98425" lon="4.86187">
        <ele>275</ele>
        <time>2017-12-12T11:10:42Z</time>
      </trkpt>
      <trkpt lat="45.98424" lon="4.86181">
        <ele>275</ele>
        <time>2017-12-12T11:10:43Z</time>
      </trkpt>
      <trkpt lat="45.98422" lon="4.86169">
        <ele>276</ele>
        <time>2017-12-12T11:10:45Z</time>
      </trkpt>
      <trkpt lat="45.98422" lon="4.86165">
        <ele>276</ele>
        <time>2017-12-12T11:10:46Z</time>
      </trkpt>
      <trkpt lat="45.98422" lon="4.86158">
        <ele>276</ele>
        <time>2017-12-12T11:10:47Z</time>
      </trkpt>
      <trkpt lat="45.9842" lon="4.86152">
        <ele>276</ele>
        <time>2017-12-12T11:10:48Z</time>
      </trkpt>
      <trkpt lat="45.98418" lon="4.86144">
        <ele>276</ele>
        <time>2017-12-12T11:10:49Z</time>
      </trkpt>
      <trkpt lat="45.98418" lon="4.86138">
        <ele>276</ele>
        <time>2017-12-12T11:10:50Z</time>
      </trkpt>
      <trkpt lat="45.98417" lon="4.86131">
        <ele>276</ele>
        <time>2017-12-12T11:10:51Z</time>
      </trkpt>
      <trkpt lat="45.98415" lon="4.86124">
        <ele>277</ele>
        <time>2017-12-12T11:10:52Z</time>
      </trkpt>
      <trkpt lat="45.98414" lon="4.86116">
        <ele>277</ele>
        <time>2017-12-12T11:10:53Z</time>
      </trkpt>
      <trkpt lat="45.98412" lon="4.86108">
        <ele>277</ele>
        <time>2017-12-12T11:10:54Z</time>
      </trkpt>
      <trkpt lat="45.98411" lon="4.86099">
        <ele>277</ele>
        <time>2017-12-12T11:10:55Z</time>
      </trkpt>
      <trkpt lat="45.9841" lon="4.8609">
        <ele>277</ele>
        <time>2017-12-12T11:10:56Z</time>
      </trkpt>
      <trkpt lat="45.98408" lon="4.86081">
        <ele>277</ele>
        <time>2017-12-12T11:10:57Z</time>
      </trkpt>
      <trkpt lat="45.98406" lon="4.86073">
        <ele>277</ele>
        <time>2017-12-12T11:10:58Z</time>
      </trkpt>
      <trkpt lat="45.98403" lon="4.86065">
        <ele>277</ele>
        <time>2017-12-12T11:10:59Z</time>
      </trkpt>
      <trkpt lat="45.98399" lon="4.86056">
        <ele>277</ele>
        <time>2017-12-12T11:11:00Z</time>
      </trkpt>
      <trkpt lat="45.98395" lon="4.86046">
        <ele>277</ele>
        <time>2017-12-12T11:11:01Z</time>
      </trkpt>
      <trkpt lat="45.98392" lon="4.86037">
        <ele>277</ele>
        <time>2017-12-12T11:11:02Z</time>
      </trkpt>
      <trkpt lat="45.98389" lon="4.86028">
        <ele>277</ele>
        <time>2017-12-12T11:11:03Z</time>
      </trkpt>
      <trkpt lat="45.98386" lon="4.86018">
        <ele>277</ele>
        <time>2017-12-12T11:11:04Z</time>
      </trkpt>
      <trkpt lat="45.98382" lon="4.86009">
        <ele>277</ele>
        <time>2017-12-12T11:11:05Z</time>
      </trkpt>
      <trkpt lat="45.98379" lon="4.86002">
        <ele>277</ele>
        <time>2017-12-12T11:11:06Z</time>
      </trkpt>
      <trkpt lat="45.98376" lon="4.85995">
        <ele>277</ele>
        <time>2017-12-12T11:11:07Z</time>
      </trkpt>
      <trkpt lat="45.98372" lon="4.85988">
        <ele>276</ele>
        <time>2017-12-12T11:11:08Z</time>
      </trkpt>
      <trkpt lat="45.9837" lon="4.85982">
        <ele>276</ele>
        <time>2017-12-12T11:11:09Z</time>
      </trkpt>
      <trkpt lat="45.98366" lon="4.85975">
        <ele>276</ele>
        <time>2017-12-12T11:11:10Z</time>
      </trkpt>
      <trkpt lat="45.98363" lon="4.85967">
        <ele>276</ele>
        <time>2017-12-12T11:11:11Z</time>
      </trkpt>
      <trkpt lat="45.98361" lon="4.8596">
        <ele>276</ele>
        <time>2017-12-12T11:11:12Z</time>
      </trkpt>
      <trkpt lat="45.98358" lon="4.85953">
        <ele>276</ele>
        <time>2017-12-12T11:11:13Z</time>
      </trkpt>
      <trkpt lat="45.98355" lon="4.85944">
        <ele>276</ele>
        <time>2017-12-12T11:11:14Z</time>
      </trkpt>
      <trkpt lat="45.98352" lon="4.85938">
        <ele>276</ele>
        <time>2017-12-12T11:11:15Z</time>
      </trkpt>
      <trkpt lat="45.98349" lon="4.85931">
        <ele>276</ele>
        <time>2017-12-12T11:11:16Z</time>
      </trkpt>
      <trkpt lat="45.98346" lon="4.85923">
        <ele>276</ele>
        <time>2017-12-12T11:11:17Z</time>
      </trkpt>
      <trkpt lat="45.98344" lon="4.85915">
        <ele>276</ele>
        <time>2017-12-12T11:11:18Z</time>
      </trkpt>
      <trkpt lat="45.98341" lon="4.85907">
        <ele>276</ele>
        <time>2017-12-12T11:11:19Z</time>
      </trkpt>
      <trkpt lat="45.98339" lon="4.85899">
        <ele>276</ele>
        <time>2017-12-12T11:11:20Z</time>
      </trkpt>
      <trkpt lat="45.98336" lon="4.85893">
        <ele>276</ele>
        <time>2017-12-12T11:11:21Z</time>
      </trkpt>
      <trkpt lat="45.98332" lon="4.85887">
        <ele>276</ele>
        <time>2017-12-12T11:11:22Z</time>
      </trkpt>
      <trkpt lat="45.98329" lon="4.8588">
        <ele>276</ele>
        <time>2017-12-12T11:11:23Z</time>
      </trkpt>
      <trkpt lat="45.98325" lon="4.85875">
        <ele>276</ele>
        <time>2017-12-12T11:11:24Z</time>
      </trkpt>
      <trkpt lat="45.98322" lon="4.85869">
        <ele>276</ele>
        <time>2017-12-12T11:11:25Z</time>
      </trkpt>
      <trkpt lat="45.98321" lon="4.85863">
        <ele>276</ele>
        <time>2017-12-12T11:11:26Z</time>
      </trkpt>
      <trkpt lat="45.98319" lon="4.85858">
        <ele>276</ele>
        <time>2017-12-12T11:11:27Z</time>
      </trkpt>
      <trkpt lat="45.98317" lon="4.85851">
        <ele>276</ele>
        <time>2017-12-12T11:11:28Z</time>
      </trkpt>
      <trkpt lat="45.98313" lon="4.85844">
        <ele>276</ele>
        <time>2017-12-12T11:11:29Z</time>
      </trkpt>
      <trkpt lat="45.9831" lon="4.85836">
        <ele>276</ele>
        <time>2017-12-12T11:11:30Z</time>
      </trkpt>
      <trkpt lat="45.98307" lon="4.85828">
        <ele>275</ele>
        <time>2017-12-12T11:11:31Z</time>
      </trkpt>
      <trkpt lat="45.98305" lon="4.85821">
        <ele>275</ele>
        <time>2017-12-12T11:11:32Z</time>
      </trkpt>
      <trkpt lat="45.983" lon="4.85813">
        <ele>275</ele>
        <time>2017-12-12T11:11:33Z</time>
      </trkpt>
      <trkpt lat="45.98298" lon="4.85807">
        <ele>275</ele>
        <time>2017-12-12T11:11:34Z</time>
      </trkpt>
      <trkpt lat="45.98294" lon="4.85795">
        <ele>275</ele>
        <time>2017-12-12T11:11:36Z</time>
      </trkpt>
      <trkpt lat="45.98292" lon="4.8579">
        <ele>275</ele>
        <time>2017-12-12T11:11:37Z</time>
      </trkpt>
      <trkpt lat="45.98287" lon="4.85779">
        <ele>275</ele>
        <time>2017-12-12T11:11:39Z</time>
      </trkpt>
      <trkpt lat="45.98285" lon="4.85774">
        <ele>275</ele>
        <time>2017-12-12T11:11:40Z</time>
      </trkpt>
      <trkpt lat="45.98283" lon="4.85767">
        <ele>275</ele>
        <time>2017-12-12T11:11:41Z</time>
      </trkpt>
      <trkpt lat="45.9828" lon="4.85761">
        <ele>275</ele>
        <time>2017-12-12T11:11:42Z</time>
      </trkpt>
      <trkpt lat="45.98278" lon="4.85754">
        <ele>275</ele>
        <time>2017-12-12T11:11:43Z</time>
      </trkpt>
      <trkpt lat="45.98275" lon="4.85748">
        <ele>274</ele>
        <time>2017-12-12T11:11:44Z</time>
      </trkpt>
      <trkpt lat="45.98272" lon="4.85742">
        <ele>275</ele>
        <time>2017-12-12T11:11:45Z</time>
      </trkpt>
      <trkpt lat="45.98269" lon="4.85735">
        <ele>275</ele>
        <time>2017-12-12T11:11:46Z</time>
      </trkpt>
      <trkpt lat="45.98268" lon="4.85726">
        <ele>275</ele>
        <time>2017-12-12T11:11:47Z</time>
      </trkpt>
      <trkpt lat="45.98265" lon="4.85719">
        <ele>275</ele>
        <time>2017-12-12T11:11:48Z</time>
      </trkpt>
      <trkpt lat="45.98263" lon="4.85713">
        <ele>275</ele>
        <time>2017-12-12T11:11:49Z</time>
      </trkpt>
      <trkpt lat="45.98261" lon="4.85708">
        <ele>275</ele>
        <time>2017-12-12T11:11:50Z</time>
      </trkpt>
      <trkpt lat="45.98258" lon="4.85702">
        <ele>275</ele>
        <time>2017-12-12T11:11:51Z</time>
      </trkpt>
      <trkpt lat="45.98255" lon="4.85696">
        <ele>275</ele>
        <time>2017-12-12T11:11:52Z</time>
      </trkpt>
      <trkpt lat="45.98252" lon="4.85685">
        <ele>275</ele>
        <time>2017-12-12T11:11:54Z</time>
      </trkpt>
      <trkpt lat="45.98251" lon="4.85679">
        <ele>275</ele>
        <time>2017-12-12T11:11:55Z</time>
      </trkpt>
      <trkpt lat="45.98249" lon="4.85673">
        <ele>276</ele>
        <time>2017-12-12T11:11:56Z</time>
      </trkpt>
      <trkpt lat="45.98246" lon="4.85667">
        <ele>276</ele>
        <time>2017-12-12T11:11:57Z</time>
      </trkpt>
      <trkpt lat="45.98244" lon="4.85662">
        <ele>276</ele>
        <time>2017-12-12T11:11:58Z</time>
      </trkpt>
      <trkpt lat="45.98241" lon="4.85655">
        <ele>276</ele>
        <time>2017-12-12T11:11:59Z</time>
      </trkpt>
      <trkpt lat="45.9824" lon="4.8565">
        <ele>276</ele>
        <time>2017-12-12T11:12:00Z</time>
      </trkpt>
      <trkpt lat="45.98237" lon="4.85642">
        <ele>277</ele>
        <time>2017-12-12T11:12:01Z</time>
      </trkpt>
      <trkpt lat="45.98234" lon="4.85636">
        <ele>277</ele>
        <time>2017-12-12T11:12:02Z</time>
      </trkpt>
      <trkpt lat="45.98232" lon="4.8563">
        <ele>277</ele>
        <time>2017-12-12T11:12:03Z</time>
      </trkpt>
      <trkpt lat="45.98228" lon="4.85619">
        <ele>277</ele>
        <time>2017-12-12T11:12:05Z</time>
      </trkpt>
      <trkpt lat="45.98226" lon="4.85613">
        <ele>277</ele>
        <time>2017-12-12T11:12:06Z</time>
      </trkpt>
      <trkpt lat="45.98223" lon="4.85601">
        <ele>277</ele>
        <time>2017-12-12T11:12:08Z</time>
      </trkpt>
      <trkpt lat="45.9822" lon="4.85595">
        <ele>277</ele>
        <time>2017-12-12T11:12:09Z</time>
      </trkpt>
      <trkpt lat="45.98217" lon="4.85588">
        <ele>277</ele>
        <time>2017-12-12T11:12:10Z</time>
      </trkpt>
      <trkpt lat="45.98215" lon="4.85582">
        <ele>276</ele>
        <time>2017-12-12T11:12:11Z</time>
      </trkpt>
      <trkpt lat="45.98212" lon="4.85576">
        <ele>276</ele>
        <time>2017-12-12T11:12:12Z</time>
      </trkpt>
      <trkpt lat="45.98209" lon="4.85569">
        <ele>276</ele>
        <time>2017-12-12T11:12:13Z</time>
      </trkpt>
      <trkpt lat="45.98207" lon="4.85564">
        <ele>276</ele>
        <time>2017-12-12T11:12:14Z</time>
      </trkpt>
      <trkpt lat="45.98203" lon="4.85558">
        <ele>276</ele>
        <time>2017-12-12T11:12:15Z</time>
      </trkpt>
      <trkpt lat="45.98202" lon="4.85553">
        <ele>276</ele>
        <time>2017-12-12T11:12:16Z</time>
      </trkpt>
      <trkpt lat="45.982" lon="4.85545">
        <ele>276</ele>
        <time>2017-12-12T11:12:17Z</time>
      </trkpt>
      <trkpt lat="45.98198" lon="4.85539">
        <ele>276</ele>
        <time>2017-12-12T11:12:18Z</time>
      </trkpt>
      <trkpt lat="45.98196" lon="4.85533">
        <ele>276</ele>
        <time>2017-12-12T11:12:19Z</time>
      </trkpt>
      <trkpt lat="45.98194" lon="4.85526">
        <ele>276</ele>
        <time>2017-12-12T11:12:20Z</time>
      </trkpt>
      <trkpt lat="45.9819" lon="4.8552">
        <ele>276</ele>
        <time>2017-12-12T11:12:21Z</time>
      </trkpt>
      <trkpt lat="45.98188" lon="4.85513">
        <ele>275</ele>
        <time>2017-12-12T11:12:22Z</time>
      </trkpt>
      <trkpt lat="45.98185" lon="4.85506">
        <ele>275</ele>
        <time>2017-12-12T11:12:23Z</time>
      </trkpt>
      <trkpt lat="45.98183" lon="4.85499">
        <ele>275</ele>
        <time>2017-12-12T11:12:24Z</time>
      </trkpt>
      <trkpt lat="45.98179" lon="4.85492">
        <ele>275</ele>
        <time>2017-12-12T11:12:25Z</time>
      </trkpt>
      <trkpt lat="45.98177" lon="4.85486">
        <ele>275</ele>
        <time>2017-12-12T11:12:26Z</time>
      </trkpt>
      <trkpt lat="45.98174" lon="4.85479">
        <ele>275</ele>
        <time>2017-12-12T11:12:27Z</time>
      </trkpt>
      <trkpt lat="45.98172" lon="4.85472">
        <ele>275</ele>
        <time>2017-12-12T11:12:28Z</time>
      </trkpt>
      <trkpt lat="45.98169" lon="4.85466">
        <ele>275</ele>
        <time>2017-12-12T11:12:29Z</time>
      </trkpt>
      <trkpt lat="45.98167" lon="4.85459">
        <ele>275</ele>
        <time>2017-12-12T11:12:30Z</time>
      </trkpt>
      <trkpt lat="45.98165" lon="4.85454">
        <ele>276</ele>
        <time>2017-12-12T11:12:31Z</time>
      </trkpt>
      <trkpt lat="45.98162" lon="4.85448">
        <ele>276</ele>
        <time>2017-12-12T11:12:32Z</time>
      </trkpt>
      <trkpt lat="45.9816" lon="4.85441">
        <ele>276</ele>
        <time>2017-12-12T11:12:33Z</time>
      </trkpt>
      <trkpt lat="45.98158" lon="4.85436">
        <ele>276</ele>
        <time>2017-12-12T11:12:34Z</time>
      </trkpt>
      <trkpt lat="45.98154" lon="4.85426">
        <ele>276</ele>
        <time>2017-12-12T11:12:35Z</time>
      </trkpt>
      <trkpt lat="45.98152" lon="4.85419">
        <ele>276</ele>
        <time>2017-12-12T11:12:36Z</time>
      </trkpt>
      <trkpt lat="45.9815" lon="4.85413">
        <ele>276</ele>
        <time>2017-12-12T11:12:37Z</time>
      </trkpt>
      <trkpt lat="45.98146" lon="4.85406">
        <ele>276</ele>
        <time>2017-12-12T11:12:38Z</time>
      </trkpt>
      <trkpt lat="45.98142" lon="4.85399">
        <ele>276</ele>
        <time>2017-12-12T11:12:39Z</time>
      </trkpt>
      <trkpt lat="45.98139" lon="4.85393">
        <ele>276</ele>
        <time>2017-12-12T11:12:40Z</time>
      </trkpt>
      <trkpt lat="45.98136" lon="4.85387">
        <ele>276</ele>
        <time>2017-12-12T11:12:41Z</time>
      </trkpt>
      <trkpt lat="45.98134" lon="4.85382">
        <ele>276</ele>
        <time>2017-12-12T11:12:42Z</time>
      </trkpt>
      <trkpt lat="45.98131" lon="4.85376">
        <ele>276</ele>
        <time>2017-12-12T11:12:43Z</time>
      </trkpt>
      <trkpt lat="45.98128" lon="4.85365">
        <ele>276</ele>
        <time>2017-12-12T11:12:45Z</time>
      </trkpt>
      <trkpt lat="45.98125" lon="4.8536">
        <ele>276</ele>
        <time>2017-12-12T11:12:46Z</time>
      </trkpt>
      <trkpt lat="45.9812" lon="4.85348">
        <ele>276</ele>
        <time>2017-12-12T11:12:48Z</time>
      </trkpt>
      <trkpt lat="45.98117" lon="4.85342">
        <ele>276</ele>
        <time>2017-12-12T11:12:49Z</time>
      </trkpt>
      <trkpt lat="45.98114" lon="4.85336">
        <ele>276</ele>
        <time>2017-12-12T11:12:50Z</time>
      </trkpt>
      <trkpt lat="45.98111" lon="4.8533">
        <ele>276</ele>
        <time>2017-12-12T11:12:51Z</time>
      </trkpt>
      <trkpt lat="45.98108" lon="4.85323">
        <ele>276</ele>
        <time>2017-12-12T11:12:52Z</time>
      </trkpt>
      <trkpt lat="45.98104" lon="4.85317">
        <ele>276</ele>
        <time>2017-12-12T11:12:53Z</time>
      </trkpt>
      <trkpt lat="45.98102" lon="4.85311">
        <ele>276</ele>
        <time>2017-12-12T11:12:54Z</time>
      </trkpt>
      <trkpt lat="45.981" lon="4.85306">
        <ele>276</ele>
        <time>2017-12-12T11:12:55Z</time>
      </trkpt>
      <trkpt lat="45.98095" lon="4.85295">
        <ele>276</ele>
        <time>2017-12-12T11:12:57Z</time>
      </trkpt>
      <trkpt lat="45.98093" lon="4.8529">
        <ele>276</ele>
        <time>2017-12-12T11:12:58Z</time>
      </trkpt>
      <trkpt lat="45.98091" lon="4.85284">
        <ele>276</ele>
        <time>2017-12-12T11:12:59Z</time>
      </trkpt>
      <trkpt lat="45.98089" lon="4.85278">
        <ele>276</ele>
        <time>2017-12-12T11:13:00Z</time>
      </trkpt>
      <trkpt lat="45.98086" lon="4.85271">
        <ele>276</ele>
        <time>2017-12-12T11:13:01Z</time>
      </trkpt>
      <trkpt lat="45.98082" lon="4.85265">
        <ele>276</ele>
        <time>2017-12-12T11:13:02Z</time>
      </trkpt>
      <trkpt lat="45.98078" lon="4.85259">
        <ele>276</ele>
        <time>2017-12-12T11:13:03Z</time>
      </trkpt>
      <trkpt lat="45.98074" lon="4.85253">
        <ele>276</ele>
        <time>2017-12-12T11:13:04Z</time>
      </trkpt>
      <trkpt lat="45.9807" lon="4.85248">
        <ele>276</ele>
        <time>2017-12-12T11:13:05Z</time>
      </trkpt>
      <trkpt lat="45.98068" lon="4.85243">
        <ele>276</ele>
        <time>2017-12-12T11:13:06Z</time>
      </trkpt>
      <trkpt lat="45.98064" lon="4.85233">
        <ele>276</ele>
        <time>2017-12-12T11:13:08Z</time>
      </trkpt>
      <trkpt lat="45.98061" lon="4.85229">
        <ele>276</ele>
        <time>2017-12-12T11:13:09Z</time>
      </trkpt>
      <trkpt lat="45.98057" lon="4.85219">
        <ele>276</ele>
        <time>2017-12-12T11:13:11Z</time>
      </trkpt>
      <trkpt lat="45.98055" lon="4.85213">
        <ele>276</ele>
        <time>2017-12-12T11:13:12Z</time>
      </trkpt>
      <trkpt lat="45.98051" lon="4.85202">
        <ele>276</ele>
        <time>2017-12-12T11:13:14Z</time>
      </trkpt>
      <trkpt lat="45.98049" lon="4.85194">
        <ele>276</ele>
        <time>2017-12-12T11:13:15Z</time>
      </trkpt>
      <trkpt lat="45.98047" lon="4.85188">
        <ele>276</ele>
        <time>2017-12-12T11:13:16Z</time>
      </trkpt>
      <trkpt lat="45.98046" lon="4.85181">
        <ele>276</ele>
        <time>2017-12-12T11:13:17Z</time>
      </trkpt>
      <trkpt lat="45.98045" lon="4.85173">
        <ele>275</ele>
        <time>2017-12-12T11:13:18Z</time>
      </trkpt>
      <trkpt lat="45.98044" lon="4.85167">
        <ele>275</ele>
        <time>2017-12-12T11:13:19Z</time>
      </trkpt>
      <trkpt lat="45.98042" lon="4.85159">
        <ele>275</ele>
        <time>2017-12-12T11:13:20Z</time>
      </trkpt>
      <trkpt lat="45.98039" lon="4.8515">
        <ele>275</ele>
        <time>2017-12-12T11:13:21Z</time>
      </trkpt>
      <trkpt lat="45.98037" lon="4.85144">
        <ele>275</ele>
        <time>2017-12-12T11:13:22Z</time>
      </trkpt>
      <trkpt lat="45.98035" lon="4.85136">
        <ele>275</ele>
        <time>2017-12-12T11:13:23Z</time>
      </trkpt>
      <trkpt lat="45.98033" lon="4.85129">
        <ele>274</ele>
        <time>2017-12-12T11:13:24Z</time>
      </trkpt>
      <trkpt lat="45.9803" lon="4.85121">
        <ele>274</ele>
        <time>2017-12-12T11:13:25Z</time>
      </trkpt>
      <trkpt lat="45.98028" lon="4.85112">
        <ele>274</ele>
        <time>2017-12-12T11:13:26Z</time>
      </trkpt>
      <trkpt lat="45.98027" lon="4.85103">
        <ele>274</ele>
        <time>2017-12-12T11:13:27Z</time>
      </trkpt>
      <trkpt lat="45.98025" lon="4.85096">
        <ele>274</ele>
        <time>2017-12-12T11:13:28Z</time>
      </trkpt>
      <trkpt lat="45.98024" lon="4.85088">
        <ele>274</ele>
        <time>2017-12-12T11:13:29Z</time>
      </trkpt>
      <trkpt lat="45.98024" lon="4.8508">
        <ele>273</ele>
        <time>2017-12-12T11:13:30Z</time>
      </trkpt>
      <trkpt lat="45.98024" lon="4.85073">
        <ele>273</ele>
        <time>2017-12-12T11:13:31Z</time>
      </trkpt>
      <trkpt lat="45.98022" lon="4.85065">
        <ele>273</ele>
        <time>2017-12-12T11:13:32Z</time>
      </trkpt>
      <trkpt lat="45.98022" lon="4.85057">
        <ele>273</ele>
        <time>2017-12-12T11:13:33Z</time>
      </trkpt>
      <trkpt lat="45.98022" lon="4.85049">
        <ele>273</ele>
        <time>2017-12-12T11:13:34Z</time>
      </trkpt>
      <trkpt lat="45.98022" lon="4.8504">
        <ele>273</ele>
        <time>2017-12-12T11:13:35Z</time>
      </trkpt>
      <trkpt lat="45.98022" lon="4.85031">
        <ele>273</ele>
        <time>2017-12-12T11:13:36Z</time>
      </trkpt>
      <trkpt lat="45.98021" lon="4.85022">
        <ele>273</ele>
        <time>2017-12-12T11:13:37Z</time>
      </trkpt>
      <trkpt lat="45.9802" lon="4.85013">
        <ele>273</ele>
        <time>2017-12-12T11:13:38Z</time>
      </trkpt>
      <trkpt lat="45.9802" lon="4.85004">
        <ele>272</ele>
        <time>2017-12-12T11:13:39Z</time>
      </trkpt>
      <trkpt lat="45.98019" lon="4.84995">
        <ele>272</ele>
        <time>2017-12-12T11:13:40Z</time>
      </trkpt>
      <trkpt lat="45.98018" lon="4.84987">
        <ele>272</ele>
        <time>2017-12-12T11:13:41Z</time>
      </trkpt>
      <trkpt lat="45.98017" lon="4.84978">
        <ele>272</ele>
        <time>2017-12-12T11:13:42Z</time>
      </trkpt>
      <trkpt lat="45.98017" lon="4.84969">
        <ele>272</ele>
        <time>2017-12-12T11:13:43Z</time>
      </trkpt>
      <trkpt lat="45.98017" lon="4.84963">
        <ele>272</ele>
        <time>2017-12-12T11:13:44Z</time>
      </trkpt>
      <trkpt lat="45.98016" lon="4.84956">
        <ele>272</ele>
        <time>2017-12-12T11:13:45Z</time>
      </trkpt>
      <trkpt lat="45.98016" lon="4.84949">
        <ele>272</ele>
        <time>2017-12-12T11:13:46Z</time>
      </trkpt>
      <trkpt lat="45.98015" lon="4.84941">
        <ele>272</ele>
        <time>2017-12-12T11:13:47Z</time>
      </trkpt>
      <trkpt lat="45.98014" lon="4.84935">
        <ele>272</ele>
        <time>2017-12-12T11:13:48Z</time>
      </trkpt>
      <trkpt lat="45.98013" lon="4.84927">
        <ele>272</ele>
        <time>2017-12-12T11:13:49Z</time>
      </trkpt>
      <trkpt lat="45.98012" lon="4.8492">
        <ele>272</ele>
        <time>2017-12-12T11:13:50Z</time>
      </trkpt>
      <trkpt lat="45.98012" lon="4.84912">
        <ele>272</ele>
        <time>2017-12-12T11:13:51Z</time>
      </trkpt>
      <trkpt lat="45.98011" lon="4.84905">
        <ele>272</ele>
        <time>2017-12-12T11:13:52Z</time>
      </trkpt>
      <trkpt lat="45.9801" lon="4.84897">
        <ele>272</ele>
        <time>2017-12-12T11:13:53Z</time>
      </trkpt>
      <trkpt lat="45.98009" lon="4.84889">
        <ele>272</ele>
        <time>2017-12-12T11:13:54Z</time>
      </trkpt>
      <trkpt lat="45.98009" lon="4.8488">
        <ele>272</ele>
        <time>2017-12-12T11:13:55Z</time>
      </trkpt>
      <trkpt lat="45.98008" lon="4.84871">
        <ele>272</ele>
        <time>2017-12-12T11:13:56Z</time>
      </trkpt>
      <trkpt lat="45.98007" lon="4.84862">
        <ele>272</ele>
        <time>2017-12-12T11:13:57Z</time>
      </trkpt>
      <trkpt lat="45.98006" lon="4.84854">
        <ele>272</ele>
        <time>2017-12-12T11:13:58Z</time>
      </trkpt>
      <trkpt lat="45.98005" lon="4.84844">
        <ele>272</ele>
        <time>2017-12-12T11:13:59Z</time>
      </trkpt>
      <trkpt lat="45.98004" lon="4.84835">
        <ele>272</ele>
        <time>2017-12-12T11:14:00Z</time>
      </trkpt>
      <trkpt lat="45.98002" lon="4.84827">
        <ele>272</ele>
        <time>2017-12-12T11:14:01Z</time>
      </trkpt>
      <trkpt lat="45.98001" lon="4.8482">
        <ele>272</ele>
        <time>2017-12-12T11:14:02Z</time>
      </trkpt>
      <trkpt lat="45.98001" lon="4.84814">
        <ele>272</ele>
        <time>2017-12-12T11:14:03Z</time>
      </trkpt>
      <trkpt lat="45.98" lon="4.84807">
        <ele>273</ele>
        <time>2017-12-12T11:14:04Z</time>
      </trkpt>
      <trkpt lat="45.98" lon="4.84799">
        <ele>274</ele>
        <time>2017-12-12T11:14:05Z</time>
      </trkpt>
      <trkpt lat="45.97999" lon="4.84791">
        <ele>274</ele>
        <time>2017-12-12T11:14:06Z</time>
      </trkpt>
      <trkpt lat="45.97998" lon="4.84784">
        <ele>274</ele>
        <time>2017-12-12T11:14:07Z</time>
      </trkpt>
      <trkpt lat="45.97998" lon="4.84775">
        <ele>274</ele>
        <time>2017-12-12T11:14:08Z</time>
      </trkpt>
      <trkpt lat="45.97998" lon="4.84766">
        <ele>275</ele>
        <time>2017-12-12T11:14:09Z</time>
      </trkpt>
      <trkpt lat="45.97997" lon="4.84758">
        <ele>275</ele>
        <time>2017-12-12T11:14:10Z</time>
      </trkpt>
      <trkpt lat="45.97996" lon="4.8475">
        <ele>275</ele>
        <time>2017-12-12T11:14:11Z</time>
      </trkpt>
      <trkpt lat="45.97995" lon="4.84741">
        <ele>275</ele>
        <time>2017-12-12T11:14:12Z</time>
      </trkpt>
      <trkpt lat="45.97994" lon="4.84733">
        <ele>275</ele>
        <time>2017-12-12T11:14:13Z</time>
      </trkpt>
      <trkpt lat="45.97994" lon="4.84727">
        <ele>275</ele>
        <time>2017-12-12T11:14:14Z</time>
      </trkpt>
      <trkpt lat="45.97993" lon="4.8472">
        <ele>275</ele>
        <time>2017-12-12T11:14:15Z</time>
      </trkpt>
      <trkpt lat="45.9799" lon="4.84711">
        <ele>275</ele>
        <time>2017-12-12T11:14:17Z</time>
      </trkpt>
      <trkpt lat="45.97989" lon="4.84702">
        <ele>275</ele>
        <time>2017-12-12T11:14:18Z</time>
      </trkpt>
      <trkpt lat="45.97988" lon="4.8469">
        <ele>275</ele>
        <time>2017-12-12T11:14:20Z</time>
      </trkpt>
      <trkpt lat="45.97987" lon="4.84682">
        <ele>275</ele>
        <time>2017-12-12T11:14:21Z</time>
      </trkpt>
      <trkpt lat="45.97987" lon="4.84674">
        <ele>275</ele>
        <time>2017-12-12T11:14:22Z</time>
      </trkpt>
      <trkpt lat="45.97986" lon="4.84666">
        <ele>274</ele>
        <time>2017-12-12T11:14:23Z</time>
      </trkpt>
      <trkpt lat="45.97985" lon="4.84659">
        <ele>274</ele>
        <time>2017-12-12T11:14:24Z</time>
      </trkpt>
      <trkpt lat="45.97984" lon="4.84651">
        <ele>274</ele>
        <time>2017-12-12T11:14:25Z</time>
      </trkpt>
      <trkpt lat="45.97982" lon="4.84643">
        <ele>275</ele>
        <time>2017-12-12T11:14:26Z</time>
      </trkpt>
      <trkpt lat="45.97982" lon="4.84634">
        <ele>275</ele>
        <time>2017-12-12T11:14:27Z</time>
      </trkpt>
      <trkpt lat="45.9798" lon="4.84626">
        <ele>275</ele>
        <time>2017-12-12T11:14:28Z</time>
      </trkpt>
      <trkpt lat="45.97978" lon="4.8462">
        <ele>275</ele>
        <time>2017-12-12T11:14:29Z</time>
      </trkpt>
      <trkpt lat="45.97977" lon="4.84613">
        <ele>275</ele>
        <time>2017-12-12T11:14:30Z</time>
      </trkpt>
      <trkpt lat="45.97976" lon="4.84606">
        <ele>275</ele>
        <time>2017-12-12T11:14:31Z</time>
      </trkpt>
      <trkpt lat="45.97976" lon="4.846">
        <ele>275</ele>
        <time>2017-12-12T11:14:32Z</time>
      </trkpt>
      <trkpt lat="45.97975" lon="4.84593">
        <ele>274</ele>
        <time>2017-12-12T11:14:33Z</time>
      </trkpt>
      <trkpt lat="45.97974" lon="4.84585">
        <ele>274</ele>
        <time>2017-12-12T11:14:34Z</time>
      </trkpt>
      <trkpt lat="45.97971" lon="4.84577">
        <ele>275</ele>
        <time>2017-12-12T11:14:35Z</time>
      </trkpt>
      <trkpt lat="45.9797" lon="4.84569">
        <ele>275</ele>
        <time>2017-12-12T11:14:36Z</time>
      </trkpt>
      <trkpt lat="45.97969" lon="4.84561">
        <ele>275</ele>
        <time>2017-12-12T11:14:37Z</time>
      </trkpt>
      <trkpt lat="45.97968" lon="4.84554">
        <ele>275</ele>
        <time>2017-12-12T11:14:38Z</time>
      </trkpt>
      <trkpt lat="45.97968" lon="4.84547">
        <ele>275</ele>
        <time>2017-12-12T11:14:39Z</time>
      </trkpt>
      <trkpt lat="45.97966" lon="4.84539">
        <ele>275</ele>
        <time>2017-12-12T11:14:40Z</time>
      </trkpt>
      <trkpt lat="45.97965" lon="4.84531">
        <ele>275</ele>
        <time>2017-12-12T11:14:41Z</time>
      </trkpt>
      <trkpt lat="45.97963" lon="4.84522">
        <ele>275</ele>
        <time>2017-12-12T11:14:42Z</time>
      </trkpt>
      <trkpt lat="45.97963" lon="4.84513">
        <ele>275</ele>
        <time>2017-12-12T11:14:43Z</time>
      </trkpt>
      <trkpt lat="45.97962" lon="4.84505">
        <ele>275</ele>
        <time>2017-12-12T11:14:44Z</time>
      </trkpt>
      <trkpt lat="45.97961" lon="4.84498">
        <ele>275</ele>
        <time>2017-12-12T11:14:45Z</time>
      </trkpt>
      <trkpt lat="45.9796" lon="4.8449">
        <ele>275</ele>
        <time>2017-12-12T11:14:46Z</time>
      </trkpt>
      <trkpt lat="45.97958" lon="4.84482">
        <ele>275</ele>
        <time>2017-12-12T11:14:47Z</time>
      </trkpt>
      <trkpt lat="45.97958" lon="4.84475">
        <ele>275</ele>
        <time>2017-12-12T11:14:48Z</time>
      </trkpt>
      <trkpt lat="45.97957" lon="4.84469">
        <ele>275</ele>
        <time>2017-12-12T11:14:49Z</time>
      </trkpt>
      <trkpt lat="45.97957" lon="4.84461">
        <ele>275</ele>
        <time>2017-12-12T11:14:50Z</time>
      </trkpt>
      <trkpt lat="45.97957" lon="4.84454">
        <ele>275</ele>
        <time>2017-12-12T11:14:51Z</time>
      </trkpt>
      <trkpt lat="45.97956" lon="4.84447">
        <ele>275</ele>
        <time>2017-12-12T11:14:52Z</time>
      </trkpt>
      <trkpt lat="45.97954" lon="4.84441">
        <ele>275</ele>
        <time>2017-12-12T11:14:53Z</time>
      </trkpt>
      <trkpt lat="45.97951" lon="4.84435">
        <ele>275</ele>
        <time>2017-12-12T11:14:54Z</time>
      </trkpt>
      <trkpt lat="45.9795" lon="4.84428">
        <ele>275</ele>
        <time>2017-12-12T11:14:55Z</time>
      </trkpt>
      <trkpt lat="45.97948" lon="4.84421">
        <ele>275</ele>
        <time>2017-12-12T11:14:56Z</time>
      </trkpt>
      <trkpt lat="45.97949" lon="4.84414">
        <ele>275</ele>
        <time>2017-12-12T11:14:57Z</time>
      </trkpt>
      <trkpt lat="45.97947" lon="4.84406">
        <ele>275</ele>
        <time>2017-12-12T11:14:58Z</time>
      </trkpt>
      <trkpt lat="45.97946" lon="4.84398">
        <ele>275</ele>
        <time>2017-12-12T11:14:59Z</time>
      </trkpt>
      <trkpt lat="45.97944" lon="4.8439">
        <ele>275</ele>
        <time>2017-12-12T11:15:00Z</time>
      </trkpt>
      <trkpt lat="45.97944" lon="4.84382">
        <ele>275</ele>
        <time>2017-12-12T11:15:01Z</time>
      </trkpt>
      <trkpt lat="45.97943" lon="4.84373">
        <ele>275</ele>
        <time>2017-12-12T11:15:02Z</time>
      </trkpt>
      <trkpt lat="45.97942" lon="4.84365">
        <ele>275</ele>
        <time>2017-12-12T11:15:03Z</time>
      </trkpt>
      <trkpt lat="45.97941" lon="4.84357">
        <ele>275</ele>
        <time>2017-12-12T11:15:04Z</time>
      </trkpt>
      <trkpt lat="45.97939" lon="4.84348">
        <ele>275</ele>
        <time>2017-12-12T11:15:05Z</time>
      </trkpt>
      <trkpt lat="45.97939" lon="4.8434">
        <ele>275</ele>
        <time>2017-12-12T11:15:06Z</time>
      </trkpt>
      <trkpt lat="45.97937" lon="4.84331">
        <ele>275</ele>
        <time>2017-12-12T11:15:07Z</time>
      </trkpt>
      <trkpt lat="45.97936" lon="4.84324">
        <ele>275</ele>
        <time>2017-12-12T11:15:08Z</time>
      </trkpt>
      <trkpt lat="45.97935" lon="4.84319">
        <ele>275</ele>
        <time>2017-12-12T11:15:09Z</time>
      </trkpt>
      <trkpt lat="45.97933" lon="4.84307">
        <ele>275</ele>
        <time>2017-12-12T11:15:11Z</time>
      </trkpt>
      <trkpt lat="45.97933" lon="4.84303">
        <ele>275</ele>
        <time>2017-12-12T11:15:12Z</time>
      </trkpt>
      <trkpt lat="45.97931" lon="4.84296">
        <ele>275</ele>
        <time>2017-12-12T11:15:13Z</time>
      </trkpt>
      <trkpt lat="45.9793" lon="4.84289">
        <ele>275</ele>
        <time>2017-12-12T11:15:14Z</time>
      </trkpt>
      <trkpt lat="45.97932" lon="4.84277">
        <ele>275</ele>
        <time>2017-12-12T11:15:16Z</time>
      </trkpt>
      <trkpt lat="45.97934" lon="4.84271">
        <ele>275</ele>
        <time>2017-12-12T11:15:17Z</time>
      </trkpt>
      <trkpt lat="45.97938" lon="4.84265">
        <ele>275</ele>
        <time>2017-12-12T11:15:18Z</time>
      </trkpt>
      <trkpt lat="45.97941" lon="4.84261">
        <ele>275</ele>
        <time>2017-12-12T11:15:19Z</time>
      </trkpt>
      <trkpt lat="45.97946" lon="4.84257">
        <ele>275</ele>
        <time>2017-12-12T11:15:20Z</time>
      </trkpt>
      <trkpt lat="45.9795" lon="4.84253">
        <ele>275</ele>
        <time>2017-12-12T11:15:21Z</time>
      </trkpt>
      <trkpt lat="45.97954" lon="4.84248">
        <ele>275</ele>
        <time>2017-12-12T11:15:22Z</time>
      </trkpt>
      <trkpt lat="45.97959" lon="4.84244">
        <ele>274</ele>
        <time>2017-12-12T11:15:23Z</time>
      </trkpt>
      <trkpt lat="45.97964" lon="4.84239">
        <ele>274</ele>
        <time>2017-12-12T11:15:24Z</time>
      </trkpt>
      <trkpt lat="45.97969" lon="4.84234">
        <ele>274</ele>
        <time>2017-12-12T11:15:25Z</time>
      </trkpt>
      <trkpt lat="45.97974" lon="4.8423">
        <ele>274</ele>
        <time>2017-12-12T11:15:26Z</time>
      </trkpt>
      <trkpt lat="45.97979" lon="4.84225">
        <ele>274</ele>
        <time>2017-12-12T11:15:27Z</time>
      </trkpt>
      <trkpt lat="45.97985" lon="4.8422">
        <ele>274</ele>
        <time>2017-12-12T11:15:28Z</time>
      </trkpt>
      <trkpt lat="45.9799" lon="4.84214">
        <ele>274</ele>
        <time>2017-12-12T11:15:29Z</time>
      </trkpt>
      <trkpt lat="45.97995" lon="4.8421">
        <ele>274</ele>
        <time>2017-12-12T11:15:30Z</time>
      </trkpt>
      <trkpt lat="45.97999" lon="4.84206">
        <ele>274</ele>
        <time>2017-12-12T11:15:31Z</time>
      </trkpt>
      <trkpt lat="45.98004" lon="4.84201">
        <ele>274</ele>
        <time>2017-12-12T11:15:32Z</time>
      </trkpt>
      <trkpt lat="45.98008" lon="4.84197">
        <ele>274</ele>
        <time>2017-12-12T11:15:33Z</time>
      </trkpt>
      <trkpt lat="45.98011" lon="4.84192">
        <ele>274</ele>
        <time>2017-12-12T11:15:34Z</time>
      </trkpt>
      <trkpt lat="45.98016" lon="4.84186">
        <ele>274</ele>
        <time>2017-12-12T11:15:35Z</time>
      </trkpt>
      <trkpt lat="45.9802" lon="4.84182">
        <ele>274</ele>
        <time>2017-12-12T11:15:36Z</time>
      </trkpt>
      <trkpt lat="45.98024" lon="4.84179">
        <ele>274</ele>
        <time>2017-12-12T11:15:37Z</time>
      </trkpt>
      <trkpt lat="45.98027" lon="4.84175">
        <ele>274</ele>
        <time>2017-12-12T11:15:38Z</time>
      </trkpt>
      <trkpt lat="45.98032" lon="4.84171">
        <ele>273</ele>
        <time>2017-12-12T11:15:39Z</time>
      </trkpt>
      <trkpt lat="45.98037" lon="4.84167">
        <ele>273</ele>
        <time>2017-12-12T11:15:40Z</time>
      </trkpt>
      <trkpt lat="45.98043" lon="4.84163">
        <ele>273</ele>
        <time>2017-12-12T11:15:41Z</time>
      </trkpt>
      <trkpt lat="45.98048" lon="4.84158">
        <ele>273</ele>
        <time>2017-12-12T11:15:42Z</time>
      </trkpt>
      <trkpt lat="45.98052" lon="4.84154">
        <ele>273</ele>
        <time>2017-12-12T11:15:43Z</time>
      </trkpt>
      <trkpt lat="45.98058" lon="4.84149">
        <ele>273</ele>
        <time>2017-12-12T11:15:44Z</time>
      </trkpt>
      <trkpt lat="45.98063" lon="4.84144">
        <ele>273</ele>
        <time>2017-12-12T11:15:45Z</time>
      </trkpt>
      <trkpt lat="45.98068" lon="4.84139">
        <ele>273</ele>
        <time>2017-12-12T11:15:46Z</time>
      </trkpt>
      <trkpt lat="45.98073" lon="4.84134">
        <ele>273</ele>
        <time>2017-12-12T11:15:47Z</time>
      </trkpt>
      <trkpt lat="45.98079" lon="4.84128">
        <ele>273</ele>
        <time>2017-12-12T11:15:48Z</time>
      </trkpt>
      <trkpt lat="45.98084" lon="4.84122">
        <ele>273</ele>
        <time>2017-12-12T11:15:49Z</time>
      </trkpt>
      <trkpt lat="45.9809" lon="4.84116">
        <ele>273</ele>
        <time>2017-12-12T11:15:50Z</time>
      </trkpt>
      <trkpt lat="45.98096" lon="4.8411">
        <ele>273</ele>
        <time>2017-12-12T11:15:51Z</time>
      </trkpt>
      <trkpt lat="45.98102" lon="4.84105">
        <ele>273</ele>
        <time>2017-12-12T11:15:52Z</time>
      </trkpt>
      <trkpt lat="45.98107" lon="4.841">
        <ele>273</ele>
        <time>2017-12-12T11:15:53Z</time>
      </trkpt>
      <trkpt lat="45.98114" lon="4.84094">
        <ele>273</ele>
        <time>2017-12-12T11:15:54Z</time>
      </trkpt>
      <trkpt lat="45.9812" lon="4.84087">
        <ele>273</ele>
        <time>2017-12-12T11:15:55Z</time>
      </trkpt>
      <trkpt lat="45.98126" lon="4.84081">
        <ele>273</ele>
        <time>2017-12-12T11:15:56Z</time>
      </trkpt>
      <trkpt lat="45.98131" lon="4.84075">
        <ele>273</ele>
        <time>2017-12-12T11:15:57Z</time>
      </trkpt>
      <trkpt lat="45.98137" lon="4.84068">
        <ele>273</ele>
        <time>2017-12-12T11:15:58Z</time>
      </trkpt>
      <trkpt lat="45.98142" lon="4.84062">
        <ele>273</ele>
        <time>2017-12-12T11:15:59Z</time>
      </trkpt>
      <trkpt lat="45.98147" lon="4.84055">
        <ele>273</ele>
        <time>2017-12-12T11:16:00Z</time>
      </trkpt>
      <trkpt lat="45.98152" lon="4.84048">
        <ele>273</ele>
        <time>2017-12-12T11:16:01Z</time>
      </trkpt>
      <trkpt lat="45.98156" lon="4.84041">
        <ele>273</ele>
        <time>2017-12-12T11:16:02Z</time>
      </trkpt>
      <trkpt lat="45.98161" lon="4.84033">
        <ele>273</ele>
        <time>2017-12-12T11:16:03Z</time>
      </trkpt>
      <trkpt lat="45.98165" lon="4.84025">
        <ele>273</ele>
        <time>2017-12-12T11:16:04Z</time>
      </trkpt>
      <trkpt lat="45.98169" lon="4.84018">
        <ele>273</ele>
        <time>2017-12-12T11:16:05Z</time>
      </trkpt>
      <trkpt lat="45.98173" lon="4.84009">
        <ele>273</ele>
        <time>2017-12-12T11:16:06Z</time>
      </trkpt>
      <trkpt lat="45.98175" lon="4.84002">
        <ele>273</ele>
        <time>2017-12-12T11:16:07Z</time>
      </trkpt>
      <trkpt lat="45.98179" lon="4.83994">
        <ele>273</ele>
        <time>2017-12-12T11:16:08Z</time>
      </trkpt>
      <trkpt lat="45.98182" lon="4.83986">
        <ele>273</ele>
        <time>2017-12-12T11:16:09Z</time>
      </trkpt>
      <trkpt lat="45.98184" lon="4.83978">
        <ele>273</ele>
        <time>2017-12-12T11:16:10Z</time>
      </trkpt>
      <trkpt lat="45.98187" lon="4.8397">
        <ele>273</ele>
        <time>2017-12-12T11:16:11Z</time>
      </trkpt>
      <trkpt lat="45.9819" lon="4.83962">
        <ele>273</ele>
        <time>2017-12-12T11:16:12Z</time>
      </trkpt>
      <trkpt lat="45.98194" lon="4.83952">
        <ele>273</ele>
        <time>2017-12-12T11:16:13Z</time>
      </trkpt>
      <trkpt lat="45.98198" lon="4.83944">
        <ele>273</ele>
        <time>2017-12-12T11:16:14Z</time>
      </trkpt>
      <trkpt lat="45.98202" lon="4.83936">
        <ele>273</ele>
        <time>2017-12-12T11:16:15Z</time>
      </trkpt>
      <trkpt lat="45.98204" lon="4.83927">
        <ele>273</ele>
        <time>2017-12-12T11:16:16Z</time>
      </trkpt>
      <trkpt lat="45.98207" lon="4.83918">
        <ele>273</ele>
        <time>2017-12-12T11:16:17Z</time>
      </trkpt>
      <trkpt lat="45.98211" lon="4.83909">
        <ele>273</ele>
        <time>2017-12-12T11:16:18Z</time>
      </trkpt>
      <trkpt lat="45.98215" lon="4.83899">
        <ele>273</ele>
        <time>2017-12-12T11:16:19Z</time>
      </trkpt>
      <trkpt lat="45.98218" lon="4.8389">
        <ele>272</ele>
        <time>2017-12-12T11:16:20Z</time>
      </trkpt>
      <trkpt lat="45.98222" lon="4.8388">
        <ele>272</ele>
        <time>2017-12-12T11:16:21Z</time>
      </trkpt>
      <trkpt lat="45.98226" lon="4.83871">
        <ele>272</ele>
        <time>2017-12-12T11:16:22Z</time>
      </trkpt>
      <trkpt lat="45.98229" lon="4.83863">
        <ele>272</ele>
        <time>2017-12-12T11:16:23Z</time>
      </trkpt>
      <trkpt lat="45.98231" lon="4.83853">
        <ele>272</ele>
        <time>2017-12-12T11:16:24Z</time>
      </trkpt>
      <trkpt lat="45.98234" lon="4.83844">
        <ele>272</ele>
        <time>2017-12-12T11:16:25Z</time>
      </trkpt>
      <trkpt lat="45.98237" lon="4.83836">
        <ele>272</ele>
        <time>2017-12-12T11:16:26Z</time>
      </trkpt>
      <trkpt lat="45.98239" lon="4.83828">
        <ele>272</ele>
        <time>2017-12-12T11:16:27Z</time>
      </trkpt>
      <trkpt lat="45.98241" lon="4.83819">
        <ele>272</ele>
        <time>2017-12-12T11:16:28Z</time>
      </trkpt>
      <trkpt lat="45.98244" lon="4.83812">
        <ele>272</ele>
        <time>2017-12-12T11:16:29Z</time>
      </trkpt>
      <trkpt lat="45.98246" lon="4.83805">
        <ele>272</ele>
        <time>2017-12-12T11:16:30Z</time>
      </trkpt>
      <trkpt lat="45.98249" lon="4.83798">
        <ele>272</ele>
        <time>2017-12-12T11:16:31Z</time>
      </trkpt>
      <trkpt lat="45.98251" lon="4.83791">
        <ele>272</ele>
        <time>2017-12-12T11:16:32Z</time>
      </trkpt>
      <trkpt lat="45.98254" lon="4.83782">
        <ele>272</ele>
        <time>2017-12-12T11:16:33Z</time>
      </trkpt>
      <trkpt lat="45.98256" lon="4.83774">
        <ele>272</ele>
        <time>2017-12-12T11:16:34Z</time>
      </trkpt>
      <trkpt lat="45.9826" lon="4.83765">
        <ele>272</ele>
        <time>2017-12-12T11:16:35Z</time>
      </trkpt>
      <trkpt lat="45.98263" lon="4.83756">
        <ele>272</ele>
        <time>2017-12-12T11:16:36Z</time>
      </trkpt>
      <trkpt lat="45.98266" lon="4.83747">
        <ele>272</ele>
        <time>2017-12-12T11:16:37Z</time>
      </trkpt>
      <trkpt lat="45.98268" lon="4.83739">
        <ele>272</ele>
        <time>2017-12-12T11:16:38Z</time>
      </trkpt>
      <trkpt lat="45.98272" lon="4.8373">
        <ele>272</ele>
        <time>2017-12-12T11:16:39Z</time>
      </trkpt>
      <trkpt lat="45.98275" lon="4.83722">
        <ele>272</ele>
        <time>2017-12-12T11:16:40Z</time>
      </trkpt>
      <trkpt lat="45.98277" lon="4.83714">
        <ele>272</ele>
        <time>2017-12-12T11:16:41Z</time>
      </trkpt>
      <trkpt lat="45.9828" lon="4.83706">
        <ele>272</ele>
        <time>2017-12-12T11:16:42Z</time>
      </trkpt>
      <trkpt lat="45.98285" lon="4.83698">
        <ele>272</ele>
        <time>2017-12-12T11:16:43Z</time>
      </trkpt>
      <trkpt lat="45.98287" lon="4.8369">
        <ele>272</ele>
        <time>2017-12-12T11:16:44Z</time>
      </trkpt>
      <trkpt lat="45.98289" lon="4.83681">
        <ele>272</ele>
        <time>2017-12-12T11:16:45Z</time>
      </trkpt>
      <trkpt lat="45.98292" lon="4.83674">
        <ele>272</ele>
        <time>2017-12-12T11:16:46Z</time>
      </trkpt>
      <trkpt lat="45.98294" lon="4.83667">
        <ele>272</ele>
        <time>2017-12-12T11:16:47Z</time>
      </trkpt>
      <trkpt lat="45.98298" lon="4.83659">
        <ele>271</ele>
        <time>2017-12-12T11:16:48Z</time>
      </trkpt>
      <trkpt lat="45.983" lon="4.83653">
        <ele>271</ele>
        <time>2017-12-12T11:16:49Z</time>
      </trkpt>
      <trkpt lat="45.98303" lon="4.83647">
        <ele>271</ele>
        <time>2017-12-12T11:16:50Z</time>
      </trkpt>
      <trkpt lat="45.98306" lon="4.8364">
        <ele>271</ele>
        <time>2017-12-12T11:16:51Z</time>
      </trkpt>
      <trkpt lat="45.98309" lon="4.83634">
        <ele>271</ele>
        <time>2017-12-12T11:16:52Z</time>
      </trkpt>
      <trkpt lat="45.98312" lon="4.83628">
        <ele>271</ele>
        <time>2017-12-12T11:16:53Z</time>
      </trkpt>
      <trkpt lat="45.98316" lon="4.83622">
        <ele>271</ele>
        <time>2017-12-12T11:16:54Z</time>
      </trkpt>
      <trkpt lat="45.98319" lon="4.83616">
        <ele>271</ele>
        <time>2017-12-12T11:16:55Z</time>
      </trkpt>
      <trkpt lat="45.98323" lon="4.83609">
        <ele>271</ele>
        <time>2017-12-12T11:16:56Z</time>
      </trkpt>
      <trkpt lat="45.98328" lon="4.83602">
        <ele>271</ele>
        <time>2017-12-12T11:16:57Z</time>
      </trkpt>
      <trkpt lat="45.98332" lon="4.83596">
        <ele>270</ele>
        <time>2017-12-12T11:16:58Z</time>
      </trkpt>
      <trkpt lat="45.98336" lon="4.83588">
        <ele>270</ele>
        <time>2017-12-12T11:16:59Z</time>
      </trkpt>
      <trkpt lat="45.98341" lon="4.8358">
        <ele>270</ele>
        <time>2017-12-12T11:17:00Z</time>
      </trkpt>
      <trkpt lat="45.98346" lon="4.83574">
        <ele>270</ele>
        <time>2017-12-12T11:17:01Z</time>
      </trkpt>
      <trkpt lat="45.98351" lon="4.83566">
        <ele>269</ele>
        <time>2017-12-12T11:17:02Z</time>
      </trkpt>
      <trkpt lat="45.98357" lon="4.83559">
        <ele>269</ele>
        <time>2017-12-12T11:17:03Z</time>
      </trkpt>
      <trkpt lat="45.98362" lon="4.83552">
        <ele>269</ele>
        <time>2017-12-12T11:17:04Z</time>
      </trkpt>
      <trkpt lat="45.98368" lon="4.83545">
        <ele>269</ele>
        <time>2017-12-12T11:17:05Z</time>
      </trkpt>
      <trkpt lat="45.98373" lon="4.8354">
        <ele>269</ele>
        <time>2017-12-12T11:17:06Z</time>
      </trkpt>
      <trkpt lat="45.98378" lon="4.83533">
        <ele>269</ele>
        <time>2017-12-12T11:17:07Z</time>
      </trkpt>
      <trkpt lat="45.98383" lon="4.83524">
        <ele>269</ele>
        <time>2017-12-12T11:17:08Z</time>
      </trkpt>
      <trkpt lat="45.98388" lon="4.83518">
        <ele>269</ele>
        <time>2017-12-12T11:17:09Z</time>
      </trkpt>
      <trkpt lat="45.98393" lon="4.83512">
        <ele>269</ele>
        <time>2017-12-12T11:17:10Z</time>
      </trkpt>
      <trkpt lat="45.98398" lon="4.83505">
        <ele>269</ele>
        <time>2017-12-12T11:17:11Z</time>
      </trkpt>
      <trkpt lat="45.98403" lon="4.83499">
        <ele>269</ele>
        <time>2017-12-12T11:17:12Z</time>
      </trkpt>
      <trkpt lat="45.98408" lon="4.83492">
        <ele>268</ele>
        <time>2017-12-12T11:17:13Z</time>
      </trkpt>
      <trkpt lat="45.98412" lon="4.83486">
        <ele>269</ele>
        <time>2017-12-12T11:17:14Z</time>
      </trkpt>
      <trkpt lat="45.98417" lon="4.8348">
        <ele>268</ele>
        <time>2017-12-12T11:17:15Z</time>
      </trkpt>
      <trkpt lat="45.98421" lon="4.83475">
        <ele>268</ele>
        <time>2017-12-12T11:17:16Z</time>
      </trkpt>
      <trkpt lat="45.98426" lon="4.83467">
        <ele>268</ele>
        <time>2017-12-12T11:17:17Z</time>
      </trkpt>
      <trkpt lat="45.98432" lon="4.8346">
        <ele>268</ele>
        <time>2017-12-12T11:17:18Z</time>
      </trkpt>
      <trkpt lat="45.98438" lon="4.83454">
        <ele>268</ele>
        <time>2017-12-12T11:17:19Z</time>
      </trkpt>
      <trkpt lat="45.98443" lon="4.83447">
        <ele>268</ele>
        <time>2017-12-12T11:17:20Z</time>
      </trkpt>
      <trkpt lat="45.98448" lon="4.83441">
        <ele>268</ele>
        <time>2017-12-12T11:17:21Z</time>
      </trkpt>
      <trkpt lat="45.98453" lon="4.83434">
        <ele>268</ele>
        <time>2017-12-12T11:17:22Z</time>
      </trkpt>
      <trkpt lat="45.98458" lon="4.83427">
        <ele>268</ele>
        <time>2017-12-12T11:17:23Z</time>
      </trkpt>
      <trkpt lat="45.98462" lon="4.83422">
        <ele>269</ele>
        <time>2017-12-12T11:17:24Z</time>
      </trkpt>
      <trkpt lat="45.98467" lon="4.83416">
        <ele>269</ele>
        <time>2017-12-12T11:17:25Z</time>
      </trkpt>
      <trkpt lat="45.98473" lon="4.83409">
        <ele>269</ele>
        <time>2017-12-12T11:17:26Z</time>
      </trkpt>
      <trkpt lat="45.98476" lon="4.83403">
        <ele>269</ele>
        <time>2017-12-12T11:17:27Z</time>
      </trkpt>
      <trkpt lat="45.9848" lon="4.83398">
        <ele>269</ele>
        <time>2017-12-12T11:17:28Z</time>
      </trkpt>
      <trkpt lat="45.98484" lon="4.83393">
        <ele>269</ele>
        <time>2017-12-12T11:17:29Z</time>
      </trkpt>
      <trkpt lat="45.98487" lon="4.83387">
        <ele>269</ele>
        <time>2017-12-12T11:17:30Z</time>
      </trkpt>
      <trkpt lat="45.98491" lon="4.83382">
        <ele>269</ele>
        <time>2017-12-12T11:17:31Z</time>
      </trkpt>
      <trkpt lat="45.98495" lon="4.83377">
        <ele>269</ele>
        <time>2017-12-12T11:17:32Z</time>
      </trkpt>
      <trkpt lat="45.98499" lon="4.83372">
        <ele>270</ele>
        <time>2017-12-12T11:17:33Z</time>
      </trkpt>
      <trkpt lat="45.98504" lon="4.83366">
        <ele>269</ele>
        <time>2017-12-12T11:17:34Z</time>
      </trkpt>
      <trkpt lat="45.98508" lon="4.8336">
        <ele>269</ele>
        <time>2017-12-12T11:17:35Z</time>
      </trkpt>
      <trkpt lat="45.98511" lon="4.83355">
        <ele>270</ele>
        <time>2017-12-12T11:17:36Z</time>
      </trkpt>
      <trkpt lat="45.98515" lon="4.8335">
        <ele>270</ele>
        <time>2017-12-12T11:17:37Z</time>
      </trkpt>
      <trkpt lat="45.98519" lon="4.83344">
        <ele>270</ele>
        <time>2017-12-12T11:17:38Z</time>
      </trkpt>
      <trkpt lat="45.98524" lon="4.83338">
        <ele>270</ele>
        <time>2017-12-12T11:17:39Z</time>
      </trkpt>
      <trkpt lat="45.98529" lon="4.83332">
        <ele>269</ele>
        <time>2017-12-12T11:17:40Z</time>
      </trkpt>
      <trkpt lat="45.98533" lon="4.83326">
        <ele>269</ele>
        <time>2017-12-12T11:17:41Z</time>
      </trkpt>
      <trkpt lat="45.98537" lon="4.8332">
        <ele>269</ele>
        <time>2017-12-12T11:17:42Z</time>
      </trkpt>
      <trkpt lat="45.98541" lon="4.83315">
        <ele>269</ele>
        <time>2017-12-12T11:17:43Z</time>
      </trkpt>
      <trkpt lat="45.98545" lon="4.83308">
        <ele>269</ele>
        <time>2017-12-12T11:17:44Z</time>
      </trkpt>
      <trkpt lat="45.9855" lon="4.83302">
        <ele>269</ele>
        <time>2017-12-12T11:17:45Z</time>
      </trkpt>
      <trkpt lat="45.98555" lon="4.83296">
        <ele>269</ele>
        <time>2017-12-12T11:17:46Z</time>
      </trkpt>
      <trkpt lat="45.98558" lon="4.83291">
        <ele>269</ele>
        <time>2017-12-12T11:17:47Z</time>
      </trkpt>
      <trkpt lat="45.98562" lon="4.83285">
        <ele>269</ele>
        <time>2017-12-12T11:17:48Z</time>
      </trkpt>
      <trkpt lat="45.98566" lon="4.8328">
        <ele>269</ele>
        <time>2017-12-12T11:17:49Z</time>
      </trkpt>
      <trkpt lat="45.9857" lon="4.83273">
        <ele>269</ele>
        <time>2017-12-12T11:17:50Z</time>
      </trkpt>
      <trkpt lat="45.98576" lon="4.83267">
        <ele>269</ele>
        <time>2017-12-12T11:17:51Z</time>
      </trkpt>
      <trkpt lat="45.98581" lon="4.83261">
        <ele>268</ele>
        <time>2017-12-12T11:17:52Z</time>
      </trkpt>
      <trkpt lat="45.98585" lon="4.83255">
        <ele>268</ele>
        <time>2017-12-12T11:17:53Z</time>
      </trkpt>
      <trkpt lat="45.9859" lon="4.83248">
        <ele>268</ele>
        <time>2017-12-12T11:17:54Z</time>
      </trkpt>
      <trkpt lat="45.98595" lon="4.83241">
        <ele>268</ele>
        <time>2017-12-12T11:17:55Z</time>
      </trkpt>
      <trkpt lat="45.98599" lon="4.83236">
        <ele>268</ele>
        <time>2017-12-12T11:17:56Z</time>
      </trkpt>
      <trkpt lat="45.98604" lon="4.83229">
        <ele>268</ele>
        <time>2017-12-12T11:17:57Z</time>
      </trkpt>
      <trkpt lat="45.98608" lon="4.83222">
        <ele>267</ele>
        <time>2017-12-12T11:17:58Z</time>
      </trkpt>
      <trkpt lat="45.98613" lon="4.83216">
        <ele>267</ele>
        <time>2017-12-12T11:17:59Z</time>
      </trkpt>
      <trkpt lat="45.98618" lon="4.83211">
        <ele>267</ele>
        <time>2017-12-12T11:18:00Z</time>
      </trkpt>
      <trkpt lat="45.98624" lon="4.83205">
        <ele>267</ele>
        <time>2017-12-12T11:18:01Z</time>
      </trkpt>
      <trkpt lat="45.98629" lon="4.83199">
        <ele>267</ele>
        <time>2017-12-12T11:18:02Z</time>
      </trkpt>
      <trkpt lat="45.98634" lon="4.83193">
        <ele>267</ele>
        <time>2017-12-12T11:18:03Z</time>
      </trkpt>
      <trkpt lat="45.9864" lon="4.83188">
        <ele>267</ele>
        <time>2017-12-12T11:18:04Z</time>
      </trkpt>
      <trkpt lat="45.98646" lon="4.83182">
        <ele>267</ele>
        <time>2017-12-12T11:18:05Z</time>
      </trkpt>
      <trkpt lat="45.98652" lon="4.83176">
        <ele>267</ele>
        <time>2017-12-12T11:18:06Z</time>
      </trkpt>
      <trkpt lat="45.98658" lon="4.83171">
        <ele>266</ele>
        <time>2017-12-12T11:18:07Z</time>
      </trkpt>
      <trkpt lat="45.98663" lon="4.83165">
        <ele>266</ele>
        <time>2017-12-12T11:18:08Z</time>
      </trkpt>
      <trkpt lat="45.98669" lon="4.83161">
        <ele>266</ele>
        <time>2017-12-12T11:18:09Z</time>
      </trkpt>
      <trkpt lat="45.98675" lon="4.83156">
        <ele>266</ele>
        <time>2017-12-12T11:18:10Z</time>
      </trkpt>
      <trkpt lat="45.9868" lon="4.83151">
        <ele>266</ele>
        <time>2017-12-12T11:18:11Z</time>
      </trkpt>
      <trkpt lat="45.98687" lon="4.83146">
        <ele>266</ele>
        <time>2017-12-12T11:18:12Z</time>
      </trkpt>
      <trkpt lat="45.98693" lon="4.83141">
        <ele>266</ele>
        <time>2017-12-12T11:18:13Z</time>
      </trkpt>
      <trkpt lat="45.98699" lon="4.83137">
        <ele>266</ele>
        <time>2017-12-12T11:18:14Z</time>
      </trkpt>
      <trkpt lat="45.98705" lon="4.83132">
        <ele>266</ele>
        <time>2017-12-12T11:18:15Z</time>
      </trkpt>
      <trkpt lat="45.98712" lon="4.83126">
        <ele>266</ele>
        <time>2017-12-12T11:18:16Z</time>
      </trkpt>
      <trkpt lat="45.98718" lon="4.83121">
        <ele>266</ele>
        <time>2017-12-12T11:18:17Z</time>
      </trkpt>
      <trkpt lat="45.98725" lon="4.83115">
        <ele>267</ele>
        <time>2017-12-12T11:18:18Z</time>
      </trkpt>
      <trkpt lat="45.98731" lon="4.83112">
        <ele>267</ele>
        <time>2017-12-12T11:18:19Z</time>
      </trkpt>
      <trkpt lat="45.98736" lon="4.83106">
        <ele>267</ele>
        <time>2017-12-12T11:18:20Z</time>
      </trkpt>
      <trkpt lat="45.98742" lon="4.83102">
        <ele>267</ele>
        <time>2017-12-12T11:18:21Z</time>
      </trkpt>
      <trkpt lat="45.98748" lon="4.83097">
        <ele>267</ele>
        <time>2017-12-12T11:18:22Z</time>
      </trkpt>
      <trkpt lat="45.98754" lon="4.83092">
        <ele>266</ele>
        <time>2017-12-12T11:18:23Z</time>
      </trkpt>
      <trkpt lat="45.9876" lon="4.83086">
        <ele>266</ele>
        <time>2017-12-12T11:18:24Z</time>
      </trkpt>
      <trkpt lat="45.98767" lon="4.83082">
        <ele>266</ele>
        <time>2017-12-12T11:18:25Z</time>
      </trkpt>
      <trkpt lat="45.98774" lon="4.83076">
        <ele>265</ele>
        <time>2017-12-12T11:18:26Z</time>
      </trkpt>
      <trkpt lat="45.9878" lon="4.83071">
        <ele>265</ele>
        <time>2017-12-12T11:18:27Z</time>
      </trkpt>
      <trkpt lat="45.98787" lon="4.83065">
        <ele>265</ele>
        <time>2017-12-12T11:18:28Z</time>
      </trkpt>
      <trkpt lat="45.98794" lon="4.83059">
        <ele>265</ele>
        <time>2017-12-12T11:18:29Z</time>
      </trkpt>
      <trkpt lat="45.98801" lon="4.83054">
        <ele>264</ele>
        <time>2017-12-12T11:18:30Z</time>
      </trkpt>
      <trkpt lat="45.98808" lon="4.83049">
        <ele>264</ele>
        <time>2017-12-12T11:18:31Z</time>
      </trkpt>
      <trkpt lat="45.98814" lon="4.83043">
        <ele>264</ele>
        <time>2017-12-12T11:18:32Z</time>
      </trkpt>
      <trkpt lat="45.98823" lon="4.83036">
        <ele>264</ele>
        <time>2017-12-12T11:18:33Z</time>
      </trkpt>
      <trkpt lat="45.9883" lon="4.8303">
        <ele>264</ele>
        <time>2017-12-12T11:18:34Z</time>
      </trkpt>
      <trkpt lat="45.98837" lon="4.83023">
        <ele>261</ele>
        <time>2017-12-12T11:18:35Z</time>
      </trkpt>
      <trkpt lat="45.98845" lon="4.83017">
        <ele>261</ele>
        <time>2017-12-12T11:18:36Z</time>
      </trkpt>
      <trkpt lat="45.98853" lon="4.83011">
        <ele>261</ele>
        <time>2017-12-12T11:18:37Z</time>
      </trkpt>
      <trkpt lat="45.98861" lon="4.83005">
        <ele>260</ele>
        <time>2017-12-12T11:18:38Z</time>
      </trkpt>
      <trkpt lat="45.9887" lon="4.82999">
        <ele>260</ele>
        <time>2017-12-12T11:18:39Z</time>
      </trkpt>
      <trkpt lat="45.98878" lon="4.82993">
        <ele>260</ele>
        <time>2017-12-12T11:18:40Z</time>
      </trkpt>
      <trkpt lat="45.98887" lon="4.82987">
        <ele>259</ele>
        <time>2017-12-12T11:18:41Z</time>
      </trkpt>
      <trkpt lat="45.98896" lon="4.8298">
        <ele>259</ele>
        <time>2017-12-12T11:18:42Z</time>
      </trkpt>
      <trkpt lat="45.98905" lon="4.8297">
        <ele>259</ele>
        <time>2017-12-12T11:18:43Z</time>
      </trkpt>
      <trkpt lat="45.98912" lon="4.8296">
        <ele>258</ele>
        <time>2017-12-12T11:18:44Z</time>
      </trkpt>
      <trkpt lat="45.98919" lon="4.82948">
        <ele>255</ele>
        <time>2017-12-12T11:18:45Z</time>
      </trkpt>
      <trkpt lat="45.98926" lon="4.82934">
        <ele>255</ele>
        <time>2017-12-12T11:18:46Z</time>
      </trkpt>
      <trkpt lat="45.98932" lon="4.8292">
        <ele>255</ele>
        <time>2017-12-12T11:18:47Z</time>
      </trkpt>
      <trkpt lat="45.98939" lon="4.82905">
        <ele>254</ele>
        <time>2017-12-12T11:18:48Z</time>
      </trkpt>
      <trkpt lat="45.98948" lon="4.8289">
        <ele>253</ele>
        <time>2017-12-12T11:18:49Z</time>
      </trkpt>
      <trkpt lat="45.98954" lon="4.82874">
        <ele>253</ele>
        <time>2017-12-12T11:18:50Z</time>
      </trkpt>
      <trkpt lat="45.98961" lon="4.82859">
        <ele>252</ele>
        <time>2017-12-12T11:18:51Z</time>
      </trkpt>
      <trkpt lat="45.98968" lon="4.82843">
        <ele>252</ele>
        <time>2017-12-12T11:18:52Z</time>
      </trkpt>
      <trkpt lat="45.98975" lon="4.82827">
        <ele>249</ele>
        <time>2017-12-12T11:18:53Z</time>
      </trkpt>
      <trkpt lat="45.98982" lon="4.8281">
        <ele>248</ele>
        <time>2017-12-12T11:18:54Z</time>
      </trkpt>
      <trkpt lat="45.9899" lon="4.82794">
        <ele>247</ele>
        <time>2017-12-12T11:18:55Z</time>
      </trkpt>
      <trkpt lat="45.98997" lon="4.82778">
        <ele>246</ele>
        <time>2017-12-12T11:18:56Z</time>
      </trkpt>
      <trkpt lat="45.99005" lon="4.82761">
        <ele>241</ele>
        <time>2017-12-12T11:18:57Z</time>
      </trkpt>
      <trkpt lat="45.99011" lon="4.82744">
        <ele>240</ele>
        <time>2017-12-12T11:18:58Z</time>
      </trkpt>
      <trkpt lat="45.99018" lon="4.82728">
        <ele>239</ele>
        <time>2017-12-12T11:18:59Z</time>
      </trkpt>
      <trkpt lat="45.99025" lon="4.82713">
        <ele>238</ele>
        <time>2017-12-12T11:19:00Z</time>
      </trkpt>
      <trkpt lat="45.99032" lon="4.82697">
        <ele>238</ele>
        <time>2017-12-12T11:19:01Z</time>
      </trkpt>
      <trkpt lat="45.99038" lon="4.82682">
        <ele>238</ele>
        <time>2017-12-12T11:19:02Z</time>
      </trkpt>
      <trkpt lat="45.99044" lon="4.82667">
        <ele>238</ele>
        <time>2017-12-12T11:19:03Z</time>
      </trkpt>
      <trkpt lat="45.9905" lon="4.82654">
        <ele>236</ele>
        <time>2017-12-12T11:19:04Z</time>
      </trkpt>
      <trkpt lat="45.99055" lon="4.82642">
        <ele>236</ele>
        <time>2017-12-12T11:19:05Z</time>
      </trkpt>
      <trkpt lat="45.9906" lon="4.82632">
        <ele>236</ele>
        <time>2017-12-12T11:19:06Z</time>
      </trkpt>
      <trkpt lat="45.99064" lon="4.82623">
        <ele>236</ele>
        <time>2017-12-12T11:19:07Z</time>
      </trkpt>
      <trkpt lat="45.99068" lon="4.82614">
        <ele>236</ele>
        <time>2017-12-12T11:19:08Z</time>
      </trkpt>
      <trkpt lat="45.9907" lon="4.82607">
        <ele>236</ele>
        <time>2017-12-12T11:19:09Z</time>
      </trkpt>
      <trkpt lat="45.99074" lon="4.82595">
        <ele>235</ele>
        <time>2017-12-12T11:19:11Z</time>
      </trkpt>
      <trkpt lat="45.99077" lon="4.82591">
        <ele>235</ele>
        <time>2017-12-12T11:19:12Z</time>
      </trkpt>
      <trkpt lat="45.99078" lon="4.82581">
        <ele>235</ele>
        <time>2017-12-12T11:19:14Z</time>
      </trkpt>
      <trkpt lat="45.99077" lon="4.82577">
        <ele>235</ele>
        <time>2017-12-12T11:19:15Z</time>
      </trkpt>
      <trkpt lat="45.99068" lon="4.82579">
        <ele>235</ele>
        <time>2017-12-12T11:19:34Z</time>
      </trkpt>
      <trkpt lat="45.99068" lon="4.8258">
        <ele>235</ele>
        <time>2017-12-12T11:19:35Z</time>
      </trkpt>
      <trkpt lat="45.99068" lon="4.82579">
        <ele>235</ele>
        <time>2017-12-12T11:20:13Z</time>
      </trkpt>
      <trkpt lat="45.99068" lon="4.82579">
        <ele>235</ele>
        <time>2017-12-12T11:20:14Z</time>
      </trkpt>
      <trkpt lat="45.99069" lon="4.82578">
        <ele>235</ele>
        <time>2017-12-12T11:20:15Z</time>
      </trkpt>
      <trkpt lat="45.99071" lon="4.82578">
        <ele>235</ele>
        <time>2017-12-12T11:20:19Z</time>
      </trkpt>
      <trkpt lat="45.99071" lon="4.82578">
        <ele>235</ele>
        <time>2017-12-12T11:20:20Z</time>
      </trkpt>
      <trkpt lat="45.9907" lon="4.82579">
        <ele>235</ele>
        <time>2017-12-12T11:23:29Z</time>
      </trkpt>
      <trkpt lat="45.99069" lon="4.82578">
        <ele>235</ele>
        <time>2017-12-12T11:23:30Z</time>
      </trkpt>
      <trkpt lat="45.99063" lon="4.82569">
        <ele>235</ele>
        <time>2017-12-12T11:25:20Z</time>
      </trkpt>
      <trkpt lat="45.99061" lon="4.82568">
        <ele>235</ele>
        <time>2017-12-12T11:25:21Z</time>
      </trkpt>
      <trkpt lat="45.99053" lon="4.82567">
        <ele>235</ele>
        <time>2017-12-12T11:25:25Z</time>
      </trkpt>
      <trkpt lat="45.99051" lon="4.82566">
        <ele>235</ele>
        <time>2017-12-12T11:25:26Z</time>
      </trkpt>
      <trkpt lat="45.99044" lon="4.82562">
        <ele>235</ele>
        <time>2017-12-12T11:25:30Z</time>
      </trkpt>
      <trkpt lat="45.99042" lon="4.8256">
        <ele>235</ele>
        <time>2017-12-12T11:25:31Z</time>
      </trkpt>
      <trkpt lat="45.99036" lon="4.82556">
        <ele>235</ele>
        <time>2017-12-12T11:25:33Z</time>
      </trkpt>
      <trkpt lat="45.99033" lon="4.82553">
        <ele>235</ele>
        <time>2017-12-12T11:25:34Z</time>
      </trkpt>
      <trkpt lat="45.99028" lon="4.82546">
        <ele>235</ele>
        <time>2017-12-12T11:25:36Z</time>
      </trkpt>
      <trkpt lat="45.99026" lon="4.82543">
        <ele>235</ele>
        <time>2017-12-12T11:25:37Z</time>
      </trkpt>
      <trkpt lat="45.9902" lon="4.82535">
        <ele>235</ele>
        <time>2017-12-12T11:25:39Z</time>
      </trkpt>
      <trkpt lat="45.99018" lon="4.82531">
        <ele>235</ele>
        <time>2017-12-12T11:25:40Z</time>
      </trkpt>
      <trkpt lat="45.99012" lon="4.82522">
        <ele>235</ele>
        <time>2017-12-12T11:25:42Z</time>
      </trkpt>
      <trkpt lat="45.99009" lon="4.82517">
        <ele>235</ele>
        <time>2017-12-12T11:25:43Z</time>
      </trkpt>
      <trkpt lat="45.99004" lon="4.82507">
        <ele>235</ele>
        <time>2017-12-12T11:25:45Z</time>
      </trkpt>
      <trkpt lat="45.99002" lon="4.82501">
        <ele>235</ele>
        <time>2017-12-12T11:25:46Z</time>
      </trkpt>
      <trkpt lat="45.98999" lon="4.82493">
        <ele>235</ele>
        <time>2017-12-12T11:25:47Z</time>
      </trkpt>
      <trkpt lat="45.98997" lon="4.82487">
        <ele>236</ele>
        <time>2017-12-12T11:25:48Z</time>
      </trkpt>
      <trkpt lat="45.98996" lon="4.82479">
        <ele>236</ele>
        <time>2017-12-12T11:25:49Z</time>
      </trkpt>
      <trkpt lat="45.98994" lon="4.82473">
        <ele>236</ele>
        <time>2017-12-12T11:25:50Z</time>
      </trkpt>
      <trkpt lat="45.98992" lon="4.82467">
        <ele>236</ele>
        <time>2017-12-12T11:25:51Z</time>
      </trkpt>
      <trkpt lat="45.9899" lon="4.82461">
        <ele>236</ele>
        <time>2017-12-12T11:25:52Z</time>
      </trkpt>
      <trkpt lat="45.98988" lon="4.82455">
        <ele>236</ele>
        <time>2017-12-12T11:25:53Z</time>
      </trkpt>
      <trkpt lat="45.98986" lon="4.82449">
        <ele>236</ele>
        <time>2017-12-12T11:25:54Z</time>
      </trkpt>
      <trkpt lat="45.98984" lon="4.82442">
        <ele>236</ele>
        <time>2017-12-12T11:25:55Z</time>
      </trkpt>
      <trkpt lat="45.98982" lon="4.82436">
        <ele>236</ele>
        <time>2017-12-12T11:25:56Z</time>
      </trkpt>
      <trkpt lat="45.98979" lon="4.8243">
        <ele>236</ele>
        <time>2017-12-12T11:25:57Z</time>
      </trkpt>
      <trkpt lat="45.98977" lon="4.82424">
        <ele>236</ele>
        <time>2017-12-12T11:25:58Z</time>
      </trkpt>
      <trkpt lat="45.98977" lon="4.82416">
        <ele>235</ele>
        <time>2017-12-12T11:25:59Z</time>
      </trkpt>
      <trkpt lat="45.98975" lon="4.82409">
        <ele>235</ele>
        <time>2017-12-12T11:26:00Z</time>
      </trkpt>
      <trkpt lat="45.98974" lon="4.82402">
        <ele>235</ele>
        <time>2017-12-12T11:26:01Z</time>
      </trkpt>
      <trkpt lat="45.98972" lon="4.82396">
        <ele>235</ele>
        <time>2017-12-12T11:26:02Z</time>
      </trkpt>
      <trkpt lat="45.9897" lon="4.82389">
        <ele>235</ele>
        <time>2017-12-12T11:26:03Z</time>
      </trkpt>
      <trkpt lat="45.98968" lon="4.82382">
        <ele>235</ele>
        <time>2017-12-12T11:26:04Z</time>
      </trkpt>
      <trkpt lat="45.98965" lon="4.82371">
        <ele>235</ele>
        <time>2017-12-12T11:26:06Z</time>
      </trkpt>
      <trkpt lat="45.98965" lon="4.82364">
        <ele>235</ele>
        <time>2017-12-12T11:26:07Z</time>
      </trkpt>
      <trkpt lat="45.98962" lon="4.82354">
        <ele>235</ele>
        <time>2017-12-12T11:26:09Z</time>
      </trkpt>
      <trkpt lat="45.98962" lon="4.82347">
        <ele>235</ele>
        <time>2017-12-12T11:26:10Z</time>
      </trkpt>
      <trkpt lat="45.98959" lon="4.82341">
        <ele>235</ele>
        <time>2017-12-12T11:26:11Z</time>
      </trkpt>
      <trkpt lat="45.98956" lon="4.82335">
        <ele>235</ele>
        <time>2017-12-12T11:26:12Z</time>
      </trkpt>
      <trkpt lat="45.98952" lon="4.8233">
        <ele>234</ele>
        <time>2017-12-12T11:26:13Z</time>
      </trkpt>
      <trkpt lat="45.98949" lon="4.82325">
        <ele>234</ele>
        <time>2017-12-12T11:26:14Z</time>
      </trkpt>
      <trkpt lat="45.98944" lon="4.8232">
        <ele>234</ele>
        <time>2017-12-12T11:26:15Z</time>
      </trkpt>
      <trkpt lat="45.98941" lon="4.82315">
        <ele>234</ele>
        <time>2017-12-12T11:26:16Z</time>
      </trkpt>
      <trkpt lat="45.98935" lon="4.82306">
        <ele>234</ele>
        <time>2017-12-12T11:26:18Z</time>
      </trkpt>
      <trkpt lat="45.98931" lon="4.82303">
        <ele>234</ele>
        <time>2017-12-12T11:26:19Z</time>
      </trkpt>
      <trkpt lat="45.98927" lon="4.823">
        <ele>234</ele>
        <time>2017-12-12T11:26:20Z</time>
      </trkpt>
      <trkpt lat="45.98923" lon="4.82294">
        <ele>234</ele>
        <time>2017-12-12T11:26:21Z</time>
      </trkpt>
      <trkpt lat="45.98917" lon="4.82289">
        <ele>234</ele>
        <time>2017-12-12T11:26:22Z</time>
      </trkpt>
      <trkpt lat="45.98913" lon="4.82286">
        <ele>236</ele>
        <time>2017-12-12T11:26:23Z</time>
      </trkpt>
      <trkpt lat="45.98909" lon="4.8228">
        <ele>236</ele>
        <time>2017-12-12T11:26:24Z</time>
      </trkpt>
      <trkpt lat="45.98905" lon="4.82276">
        <ele>236</ele>
        <time>2017-12-12T11:26:25Z</time>
      </trkpt>
      <trkpt lat="45.98901" lon="4.8227">
        <ele>236</ele>
        <time>2017-12-12T11:26:26Z</time>
      </trkpt>
      <trkpt lat="45.98898" lon="4.82265">
        <ele>236</ele>
        <time>2017-12-12T11:26:27Z</time>
      </trkpt>
      <trkpt lat="45.98894" lon="4.8226">
        <ele>236</ele>
        <time>2017-12-12T11:26:28Z</time>
      </trkpt>
      <trkpt lat="45.98892" lon="4.82255">
        <ele>236</ele>
        <time>2017-12-12T11:26:29Z</time>
      </trkpt>
      <trkpt lat="45.98889" lon="4.82248">
        <ele>235</ele>
        <time>2017-12-12T11:26:30Z</time>
      </trkpt>
      <trkpt lat="45.98885" lon="4.82242">
        <ele>236</ele>
        <time>2017-12-12T11:26:31Z</time>
      </trkpt>
      <trkpt lat="45.98882" lon="4.82237">
        <ele>236</ele>
        <time>2017-12-12T11:26:32Z</time>
      </trkpt>
      <trkpt lat="45.98879" lon="4.82231">
        <ele>236</ele>
        <time>2017-12-12T11:26:33Z</time>
      </trkpt>
      <trkpt lat="45.98874" lon="4.8222">
        <ele>236</ele>
        <time>2017-12-12T11:26:35Z</time>
      </trkpt>
      <trkpt lat="45.98872" lon="4.82214">
        <ele>236</ele>
        <time>2017-12-12T11:26:36Z</time>
      </trkpt>
      <trkpt lat="45.9887" lon="4.82207">
        <ele>236</ele>
        <time>2017-12-12T11:26:37Z</time>
      </trkpt>
      <trkpt lat="45.98868" lon="4.822">
        <ele>236</ele>
        <time>2017-12-12T11:26:38Z</time>
      </trkpt>
      <trkpt lat="45.98865" lon="4.82193">
        <ele>236</ele>
        <time>2017-12-12T11:26:39Z</time>
      </trkpt>
      <trkpt lat="45.98862" lon="4.82187">
        <ele>236</ele>
        <time>2017-12-12T11:26:40Z</time>
      </trkpt>
      <trkpt lat="45.9886" lon="4.82178">
        <ele>236</ele>
        <time>2017-12-12T11:26:41Z</time>
      </trkpt>
      <trkpt lat="45.98858" lon="4.82171">
        <ele>236</ele>
        <time>2017-12-12T11:26:42Z</time>
      </trkpt>
      <trkpt lat="45.98856" lon="4.82163">
        <ele>236</ele>
        <time>2017-12-12T11:26:43Z</time>
      </trkpt>
      <trkpt lat="45.98854" lon="4.82157">
        <ele>236</ele>
        <time>2017-12-12T11:26:44Z</time>
      </trkpt>
      <trkpt lat="45.98853" lon="4.82149">
        <ele>236</ele>
        <time>2017-12-12T11:26:45Z</time>
      </trkpt>
      <trkpt lat="45.98852" lon="4.82141">
        <ele>236</ele>
        <time>2017-12-12T11:26:46Z</time>
      </trkpt>
      <trkpt lat="45.9885" lon="4.82133">
        <ele>235</ele>
        <time>2017-12-12T11:26:47Z</time>
      </trkpt>
      <trkpt lat="45.98848" lon="4.82125">
        <ele>235</ele>
        <time>2017-12-12T11:26:48Z</time>
      </trkpt>
      <trkpt lat="45.98849" lon="4.82115">
        <ele>235</ele>
        <time>2017-12-12T11:26:49Z</time>
      </trkpt>
      <trkpt lat="45.98847" lon="4.82107">
        <ele>235</ele>
        <time>2017-12-12T11:26:50Z</time>
      </trkpt>
      <trkpt lat="45.98845" lon="4.82099">
        <ele>235</ele>
        <time>2017-12-12T11:26:51Z</time>
      </trkpt>
      <trkpt lat="45.98844" lon="4.82091">
        <ele>236</ele>
        <time>2017-12-12T11:26:52Z</time>
      </trkpt>
      <trkpt lat="45.98842" lon="4.82083">
        <ele>236</ele>
        <time>2017-12-12T11:26:53Z</time>
      </trkpt>
      <trkpt lat="45.98841" lon="4.82076">
        <ele>236</ele>
        <time>2017-12-12T11:26:54Z</time>
      </trkpt>
      <trkpt lat="45.9884" lon="4.82069">
        <ele>236</ele>
        <time>2017-12-12T11:26:55Z</time>
      </trkpt>
      <trkpt lat="45.98839" lon="4.82063">
        <ele>236</ele>
        <time>2017-12-12T11:26:56Z</time>
      </trkpt>
      <trkpt lat="45.98837" lon="4.82055">
        <ele>236</ele>
        <time>2017-12-12T11:26:57Z</time>
      </trkpt>
      <trkpt lat="45.98835" lon="4.82049">
        <ele>236</ele>
        <time>2017-12-12T11:26:58Z</time>
      </trkpt>
      <trkpt lat="45.98833" lon="4.82042">
        <ele>236</ele>
        <time>2017-12-12T11:26:59Z</time>
      </trkpt>
      <trkpt lat="45.98832" lon="4.82035">
        <ele>238</ele>
        <time>2017-12-12T11:27:00Z</time>
      </trkpt>
      <trkpt lat="45.98831" lon="4.82029">
        <ele>238</ele>
        <time>2017-12-12T11:27:01Z</time>
      </trkpt>
      <trkpt lat="45.98831" lon="4.82021">
        <ele>238</ele>
        <time>2017-12-12T11:27:02Z</time>
      </trkpt>
      <trkpt lat="45.9883" lon="4.82013">
        <ele>238</ele>
        <time>2017-12-12T11:27:03Z</time>
      </trkpt>
      <trkpt lat="45.98829" lon="4.82006">
        <ele>238</ele>
        <time>2017-12-12T11:27:04Z</time>
      </trkpt>
      <trkpt lat="45.98828" lon="4.81998">
        <ele>238</ele>
        <time>2017-12-12T11:27:05Z</time>
      </trkpt>
      <trkpt lat="45.98828" lon="4.8199">
        <ele>238</ele>
        <time>2017-12-12T11:27:06Z</time>
      </trkpt>
      <trkpt lat="45.98827" lon="4.81983">
        <ele>238</ele>
        <time>2017-12-12T11:27:07Z</time>
      </trkpt>
      <trkpt lat="45.98825" lon="4.81976">
        <ele>239</ele>
        <time>2017-12-12T11:27:08Z</time>
      </trkpt>
      <trkpt lat="45.98824" lon="4.81969">
        <ele>239</ele>
        <time>2017-12-12T11:27:09Z</time>
      </trkpt>
      <trkpt lat="45.98822" lon="4.81963">
        <ele>239</ele>
        <time>2017-12-12T11:27:10Z</time>
      </trkpt>
      <trkpt lat="45.9882" lon="4.81956">
        <ele>239</ele>
        <time>2017-12-12T11:27:11Z</time>
      </trkpt>
      <trkpt lat="45.9882" lon="4.81948">
        <ele>239</ele>
        <time>2017-12-12T11:27:12Z</time>
      </trkpt>
      <trkpt lat="45.98819" lon="4.81941">
        <ele>239</ele>
        <time>2017-12-12T11:27:13Z</time>
      </trkpt>
      <trkpt lat="45.98819" lon="4.81933">
        <ele>239</ele>
        <time>2017-12-12T11:27:14Z</time>
      </trkpt>
      <trkpt lat="45.98817" lon="4.81926">
        <ele>239</ele>
        <time>2017-12-12T11:27:15Z</time>
      </trkpt>
      <trkpt lat="45.98815" lon="4.81919">
        <ele>239</ele>
        <time>2017-12-12T11:27:16Z</time>
      </trkpt>
      <trkpt lat="45.98814" lon="4.81912">
        <ele>239</ele>
        <time>2017-12-12T11:27:17Z</time>
      </trkpt>
      <trkpt lat="45.98813" lon="4.81905">
        <ele>239</ele>
        <time>2017-12-12T11:27:18Z</time>
      </trkpt>
      <trkpt lat="45.98811" lon="4.81898">
        <ele>239</ele>
        <time>2017-12-12T11:27:19Z</time>
      </trkpt>
      <trkpt lat="45.9881" lon="4.81892">
        <ele>239</ele>
        <time>2017-12-12T11:27:20Z</time>
      </trkpt>
      <trkpt lat="45.98808" lon="4.81886">
        <ele>239</ele>
        <time>2017-12-12T11:27:21Z</time>
      </trkpt>
      <trkpt lat="45.98805" lon="4.81879">
        <ele>239</ele>
        <time>2017-12-12T11:27:22Z</time>
      </trkpt>
      <trkpt lat="45.98803" lon="4.81873">
        <ele>239</ele>
        <time>2017-12-12T11:27:23Z</time>
      </trkpt>
      <trkpt lat="45.988" lon="4.81867">
        <ele>239</ele>
        <time>2017-12-12T11:27:24Z</time>
      </trkpt>
      <trkpt lat="45.98797" lon="4.81857">
        <ele>239</ele>
        <time>2017-12-12T11:27:26Z</time>
      </trkpt>
      <trkpt lat="45.98794" lon="4.81852">
        <ele>239</ele>
        <time>2017-12-12T11:27:27Z</time>
      </trkpt>
      <trkpt lat="45.98793" lon="4.81843">
        <ele>239</ele>
        <time>2017-12-12T11:27:28Z</time>
      </trkpt>
      <trkpt lat="45.9879" lon="4.81838">
        <ele>239</ele>
        <time>2017-12-12T11:27:29Z</time>
      </trkpt>
      <trkpt lat="45.98786" lon="4.81833">
        <ele>239</ele>
        <time>2017-12-12T11:27:30Z</time>
      </trkpt>
      <trkpt lat="45.98784" lon="4.81827">
        <ele>240</ele>
        <time>2017-12-12T11:27:31Z</time>
      </trkpt>
      <trkpt lat="45.98782" lon="4.81821">
        <ele>240</ele>
        <time>2017-12-12T11:27:32Z</time>
      </trkpt>
      <trkpt lat="45.98779" lon="4.81815">
        <ele>240</ele>
        <time>2017-12-12T11:27:33Z</time>
      </trkpt>
      <trkpt lat="45.98775" lon="4.81804">
        <ele>240</ele>
        <time>2017-12-12T11:27:35Z</time>
      </trkpt>
      <trkpt lat="45.98773" lon="4.81799">
        <ele>240</ele>
        <time>2017-12-12T11:27:36Z</time>
      </trkpt>
      <trkpt lat="45.9877" lon="4.81794">
        <ele>241</ele>
        <time>2017-12-12T11:27:37Z</time>
      </trkpt>
      <trkpt lat="45.98767" lon="4.81788">
        <ele>241</ele>
        <time>2017-12-12T11:27:38Z</time>
      </trkpt>
      <trkpt lat="45.98762" lon="4.81779">
        <ele>241</ele>
        <time>2017-12-12T11:27:40Z</time>
      </trkpt>
      <trkpt lat="45.98759" lon="4.81775">
        <ele>241</ele>
        <time>2017-12-12T11:27:41Z</time>
      </trkpt>
      <trkpt lat="45.98755" lon="4.8177">
        <ele>241</ele>
        <time>2017-12-12T11:27:42Z</time>
      </trkpt>
      <trkpt lat="45.98751" lon="4.81764">
        <ele>241</ele>
        <time>2017-12-12T11:27:43Z</time>
      </trkpt>
      <trkpt lat="45.98751" lon="4.81757">
        <ele>241</ele>
        <time>2017-12-12T11:27:44Z</time>
      </trkpt>
      <trkpt lat="45.98747" lon="4.81752">
        <ele>241</ele>
        <time>2017-12-12T11:27:45Z</time>
      </trkpt>
      <trkpt lat="45.98741" lon="4.81745">
        <ele>240</ele>
        <time>2017-12-12T11:27:47Z</time>
      </trkpt>
      <trkpt lat="45.98736" lon="4.81741">
        <ele>240</ele>
        <time>2017-12-12T11:27:48Z</time>
      </trkpt>
      <trkpt lat="45.9873" lon="4.81734">
        <ele>239</ele>
        <time>2017-12-12T11:27:50Z</time>
      </trkpt>
      <trkpt lat="45.98727" lon="4.81732">
        <ele>239</ele>
        <time>2017-12-12T11:27:51Z</time>
      </trkpt>
      <trkpt lat="45.98719" lon="4.81732">
        <ele>239</ele>
        <time>2017-12-12T11:27:53Z</time>
      </trkpt>
      <trkpt lat="45.98715" lon="4.81733">
        <ele>239</ele>
        <time>2017-12-12T11:27:54Z</time>
      </trkpt>
      <trkpt lat="45.9871" lon="4.81734">
        <ele>239</ele>
        <time>2017-12-12T11:27:55Z</time>
      </trkpt>
      <trkpt lat="45.98704" lon="4.81734">
        <ele>239</ele>
        <time>2017-12-12T11:27:56Z</time>
      </trkpt>
      <trkpt lat="45.98695" lon="4.81738">
        <ele>239</ele>
        <time>2017-12-12T11:27:58Z</time>
      </trkpt>
      <trkpt lat="45.98691" lon="4.8174">
        <ele>238</ele>
        <time>2017-12-12T11:27:59Z</time>
      </trkpt>
      <trkpt lat="45.98684" lon="4.8174">
        <ele>238</ele>
        <time>2017-12-12T11:28:01Z</time>
      </trkpt>
      <trkpt lat="45.98679" lon="4.81744">
        <ele>238</ele>
        <time>2017-12-12T11:28:02Z</time>
      </trkpt>
      <trkpt lat="45.98672" lon="4.81746">
        <ele>238</ele>
        <time>2017-12-12T11:28:03Z</time>
      </trkpt>
      <trkpt lat="45.98667" lon="4.81748">
        <ele>238</ele>
        <time>2017-12-12T11:28:04Z</time>
      </trkpt>
      <trkpt lat="45.98661" lon="4.81749">
        <ele>238</ele>
        <time>2017-12-12T11:28:05Z</time>
      </trkpt>
      <trkpt lat="45.98655" lon="4.8175">
        <ele>237</ele>
        <time>2017-12-12T11:28:06Z</time>
      </trkpt>
      <trkpt lat="45.98649" lon="4.81751">
        <ele>238</ele>
        <time>2017-12-12T11:28:07Z</time>
      </trkpt>
      <trkpt lat="45.98642" lon="4.81752">
        <ele>238</ele>
        <time>2017-12-12T11:28:08Z</time>
      </trkpt>
      <trkpt lat="45.98636" lon="4.81753">
        <ele>238</ele>
        <time>2017-12-12T11:28:09Z</time>
      </trkpt>
      <trkpt lat="45.98631" lon="4.81755">
        <ele>238</ele>
        <time>2017-12-12T11:28:10Z</time>
      </trkpt>
      <trkpt lat="45.98626" lon="4.81756">
        <ele>238</ele>
        <time>2017-12-12T11:28:11Z</time>
      </trkpt>
      <trkpt lat="45.98621" lon="4.81758">
        <ele>238</ele>
        <time>2017-12-12T11:28:12Z</time>
      </trkpt>
      <trkpt lat="45.98616" lon="4.8176">
        <ele>238</ele>
        <time>2017-12-12T11:28:13Z</time>
      </trkpt>
      <trkpt lat="45.9861" lon="4.81762">
        <ele>238</ele>
        <time>2017-12-12T11:28:14Z</time>
      </trkpt>
      <trkpt lat="45.98605" lon="4.81764">
        <ele>238</ele>
        <time>2017-12-12T11:28:15Z</time>
      </trkpt>
      <trkpt lat="45.98599" lon="4.81767">
        <ele>238</ele>
        <time>2017-12-12T11:28:16Z</time>
      </trkpt>
      <trkpt lat="45.98594" lon="4.81771">
        <ele>238</ele>
        <time>2017-12-12T11:28:17Z</time>
      </trkpt>
      <trkpt lat="45.9859" lon="4.81775">
        <ele>238</ele>
        <time>2017-12-12T11:28:18Z</time>
      </trkpt>
      <trkpt lat="45.98586" lon="4.8178">
        <ele>238</ele>
        <time>2017-12-12T11:28:19Z</time>
      </trkpt>
      <trkpt lat="45.98581" lon="4.81786">
        <ele>238</ele>
        <time>2017-12-12T11:28:20Z</time>
      </trkpt>
      <trkpt lat="45.98576" lon="4.81795">
        <ele>238</ele>
        <time>2017-12-12T11:28:22Z</time>
      </trkpt>
      <trkpt lat="45.98572" lon="4.818">
        <ele>238</ele>
        <time>2017-12-12T11:28:23Z</time>
      </trkpt>
      <trkpt lat="45.98568" lon="4.81803">
        <ele>238</ele>
        <time>2017-12-12T11:28:24Z</time>
      </trkpt>
      <trkpt lat="45.98564" lon="4.81808">
        <ele>238</ele>
        <time>2017-12-12T11:28:25Z</time>
      </trkpt>
      <trkpt lat="45.98561" lon="4.81809">
        <ele>238</ele>
        <time>2017-12-12T11:28:26Z</time>
      </trkpt>
      <trkpt lat="45.98555" lon="4.81811">
        <ele>238</ele>
        <time>2017-12-12T11:28:27Z</time>
      </trkpt>
      <trkpt lat="45.98547" lon="4.81809">
        <ele>238</ele>
        <time>2017-12-12T11:28:28Z</time>
      </trkpt>
      <trkpt lat="45.9854" lon="4.81806">
        <ele>238</ele>
        <time>2017-12-12T11:28:29Z</time>
      </trkpt>
      <trkpt lat="45.98536" lon="4.81802">
        <ele>238</ele>
        <time>2017-12-12T11:28:30Z</time>
      </trkpt>
      <trkpt lat="45.98532" lon="4.81797">
        <ele>238</ele>
        <time>2017-12-12T11:28:31Z</time>
      </trkpt>
      <trkpt lat="45.9853" lon="4.8179">
        <ele>238</ele>
        <time>2017-12-12T11:28:32Z</time>
      </trkpt>
      <trkpt lat="45.98527" lon="4.81785">
        <ele>238</ele>
        <time>2017-12-12T11:28:33Z</time>
      </trkpt>
      <trkpt lat="45.98523" lon="4.8178">
        <ele>238</ele>
        <time>2017-12-12T11:28:34Z</time>
      </trkpt>
      <trkpt lat="45.98519" lon="4.81775">
        <ele>238</ele>
        <time>2017-12-12T11:28:35Z</time>
      </trkpt>
      <trkpt lat="45.98515" lon="4.8177">
        <ele>238</ele>
        <time>2017-12-12T11:28:36Z</time>
      </trkpt>
      <trkpt lat="45.98513" lon="4.81765">
        <ele>237</ele>
        <time>2017-12-12T11:28:37Z</time>
      </trkpt>
      <trkpt lat="45.98509" lon="4.8176">
        <ele>237</ele>
        <time>2017-12-12T11:28:38Z</time>
      </trkpt>
      <trkpt lat="45.98505" lon="4.81754">
        <ele>237</ele>
        <time>2017-12-12T11:28:39Z</time>
      </trkpt>
      <trkpt lat="45.98498" lon="4.81749">
        <ele>237</ele>
        <time>2017-12-12T11:28:41Z</time>
      </trkpt>
      <trkpt lat="45.98494" lon="4.81746">
        <ele>238</ele>
        <time>2017-12-12T11:28:42Z</time>
      </trkpt>
      <trkpt lat="45.98489" lon="4.81743">
        <ele>238</ele>
        <time>2017-12-12T11:28:43Z</time>
      </trkpt>
      <trkpt lat="45.98486" lon="4.81739">
        <ele>238</ele>
        <time>2017-12-12T11:28:44Z</time>
      </trkpt>
      <trkpt lat="45.9848" lon="4.81731">
        <ele>238</ele>
        <time>2017-12-12T11:28:46Z</time>
      </trkpt>
      <trkpt lat="45.98479" lon="4.81728">
        <ele>238</ele>
        <time>2017-12-12T11:28:47Z</time>
      </trkpt>
      <trkpt lat="45.98474" lon="4.8172">
        <ele>239</ele>
        <time>2017-12-12T11:28:49Z</time>
      </trkpt>
      <trkpt lat="45.98471" lon="4.81716">
        <ele>239</ele>
        <time>2017-12-12T11:28:50Z</time>
      </trkpt>
      <trkpt lat="45.98466" lon="4.81709">
        <ele>239</ele>
        <time>2017-12-12T11:28:52Z</time>
      </trkpt>
      <trkpt lat="45.98463" lon="4.81705">
        <ele>239</ele>
        <time>2017-12-12T11:28:53Z</time>
      </trkpt>
      <trkpt lat="45.98458" lon="4.81697">
        <ele>239</ele>
        <time>2017-12-12T11:28:55Z</time>
      </trkpt>
      <trkpt lat="45.98456" lon="4.81693">
        <ele>239</ele>
        <time>2017-12-12T11:28:56Z</time>
      </trkpt>
      <trkpt lat="45.98452" lon="4.81684">
        <ele>239</ele>
        <time>2017-12-12T11:28:58Z</time>
      </trkpt>
      <trkpt lat="45.98449" lon="4.81679">
        <ele>239</ele>
        <time>2017-12-12T11:28:59Z</time>
      </trkpt>
      <trkpt lat="45.98444" lon="4.81672">
        <ele>239</ele>
        <time>2017-12-12T11:29:01Z</time>
      </trkpt>
      <trkpt lat="45.9844" lon="4.81669">
        <ele>240</ele>
        <time>2017-12-12T11:29:02Z</time>
      </trkpt>
      <trkpt lat="45.98432" lon="4.81666">
        <ele>239</ele>
        <time>2017-12-12T11:29:04Z</time>
      </trkpt>
      <trkpt lat="45.98427" lon="4.81664">
        <ele>240</ele>
        <time>2017-12-12T11:29:05Z</time>
      </trkpt>
      <trkpt lat="45.98423" lon="4.81664">
        <ele>240</ele>
        <time>2017-12-12T11:29:06Z</time>
      </trkpt>
      <trkpt lat="45.98418" lon="4.81665">
        <ele>241</ele>
        <time>2017-12-12T11:29:07Z</time>
      </trkpt>
      <trkpt lat="45.98413" lon="4.81665">
        <ele>241</ele>
        <time>2017-12-12T11:29:08Z</time>
      </trkpt>
      <trkpt lat="45.98409" lon="4.81666">
        <ele>241</ele>
        <time>2017-12-12T11:29:09Z</time>
      </trkpt>
      <trkpt lat="45.98404" lon="4.81668">
        <ele>242</ele>
        <time>2017-12-12T11:29:10Z</time>
      </trkpt>
      <trkpt lat="45.98399" lon="4.8167">
        <ele>243</ele>
        <time>2017-12-12T11:29:11Z</time>
      </trkpt>
      <trkpt lat="45.98394" lon="4.81672">
        <ele>243</ele>
        <time>2017-12-12T11:29:12Z</time>
      </trkpt>
      <trkpt lat="45.98389" lon="4.81673">
        <ele>243</ele>
        <time>2017-12-12T11:29:13Z</time>
      </trkpt>
      <trkpt lat="45.98384" lon="4.81675">
        <ele>243</ele>
        <time>2017-12-12T11:29:14Z</time>
      </trkpt>
      <trkpt lat="45.9838" lon="4.81676">
        <ele>244</ele>
        <time>2017-12-12T11:29:15Z</time>
      </trkpt>
      <trkpt lat="45.98374" lon="4.81677">
        <ele>244</ele>
        <time>2017-12-12T11:29:16Z</time>
      </trkpt>
      <trkpt lat="45.98369" lon="4.81677">
        <ele>244</ele>
        <time>2017-12-12T11:29:17Z</time>
      </trkpt>
      <trkpt lat="45.98364" lon="4.81678">
        <ele>244</ele>
        <time>2017-12-12T11:29:18Z</time>
      </trkpt>
      <trkpt lat="45.98359" lon="4.81678">
        <ele>244</ele>
        <time>2017-12-12T11:29:19Z</time>
      </trkpt>
      <trkpt lat="45.98354" lon="4.81678">
        <ele>245</ele>
        <time>2017-12-12T11:29:20Z</time>
      </trkpt>
      <trkpt lat="45.98349" lon="4.81676">
        <ele>245</ele>
        <time>2017-12-12T11:29:21Z</time>
      </trkpt>
      <trkpt lat="45.98345" lon="4.81674">
        <ele>245</ele>
        <time>2017-12-12T11:29:22Z</time>
      </trkpt>
      <trkpt lat="45.9834" lon="4.81672">
        <ele>245</ele>
        <time>2017-12-12T11:29:23Z</time>
      </trkpt>
      <trkpt lat="45.98335" lon="4.8167">
        <ele>246</ele>
        <time>2017-12-12T11:29:24Z</time>
      </trkpt>
      <trkpt lat="45.9833" lon="4.81668">
        <ele>246</ele>
        <time>2017-12-12T11:29:25Z</time>
      </trkpt>
      <trkpt lat="45.98326" lon="4.81664">
        <ele>246</ele>
        <time>2017-12-12T11:29:26Z</time>
      </trkpt>
      <trkpt lat="45.98322" lon="4.81661">
        <ele>246</ele>
        <time>2017-12-12T11:29:27Z</time>
      </trkpt>
      <trkpt lat="45.98318" lon="4.81657">
        <ele>246</ele>
        <time>2017-12-12T11:29:28Z</time>
      </trkpt>
      <trkpt lat="45.98314" lon="4.81653">
        <ele>246</ele>
        <time>2017-12-12T11:29:29Z</time>
      </trkpt>
      <trkpt lat="45.9831" lon="4.81649">
        <ele>246</ele>
        <time>2017-12-12T11:29:30Z</time>
      </trkpt>
      <trkpt lat="45.98306" lon="4.81645">
        <ele>246</ele>
        <time>2017-12-12T11:29:31Z</time>
      </trkpt>
      <trkpt lat="45.983" lon="4.81639">
        <ele>246</ele>
        <time>2017-12-12T11:29:33Z</time>
      </trkpt>
      <trkpt lat="45.98296" lon="4.81635">
        <ele>247</ele>
        <time>2017-12-12T11:29:34Z</time>
      </trkpt>
      <trkpt lat="45.98294" lon="4.8163">
        <ele>247</ele>
        <time>2017-12-12T11:29:35Z</time>
      </trkpt>
      <trkpt lat="45.9829" lon="4.81625">
        <ele>247</ele>
        <time>2017-12-12T11:29:36Z</time>
      </trkpt>
      <trkpt lat="45.98284" lon="4.81615">
        <ele>247</ele>
        <time>2017-12-12T11:29:38Z</time>
      </trkpt>
      <trkpt lat="45.98282" lon="4.8161">
        <ele>247</ele>
        <time>2017-12-12T11:29:39Z</time>
      </trkpt>
      <trkpt lat="45.9828" lon="4.81605">
        <ele>247</ele>
        <time>2017-12-12T11:29:40Z</time>
      </trkpt>
      <trkpt lat="45.98277" lon="4.81598">
        <ele>247</ele>
        <time>2017-12-12T11:29:41Z</time>
      </trkpt>
      <trkpt lat="45.98276" lon="4.81593">
        <ele>247</ele>
        <time>2017-12-12T11:29:42Z</time>
      </trkpt>
      <trkpt lat="45.98274" lon="4.81586">
        <ele>247</ele>
        <time>2017-12-12T11:29:43Z</time>
      </trkpt>
      <trkpt lat="45.98272" lon="4.81579">
        <ele>247</ele>
        <time>2017-12-12T11:29:44Z</time>
      </trkpt>
      <trkpt lat="45.9827" lon="4.81573">
        <ele>247</ele>
        <time>2017-12-12T11:29:45Z</time>
      </trkpt>
      <trkpt lat="45.98268" lon="4.81567">
        <ele>247</ele>
        <time>2017-12-12T11:29:46Z</time>
      </trkpt>
      <trkpt lat="45.98267" lon="4.8156">
        <ele>247</ele>
        <time>2017-12-12T11:29:47Z</time>
      </trkpt>
      <trkpt lat="45.98265" lon="4.81553">
        <ele>247</ele>
        <time>2017-12-12T11:29:48Z</time>
      </trkpt>
      <trkpt lat="45.98263" lon="4.81547">
        <ele>247</ele>
        <time>2017-12-12T11:29:49Z</time>
      </trkpt>
      <trkpt lat="45.98261" lon="4.8154">
        <ele>247</ele>
        <time>2017-12-12T11:29:50Z</time>
      </trkpt>
      <trkpt lat="45.9826" lon="4.81533">
        <ele>247</ele>
        <time>2017-12-12T11:29:51Z</time>
      </trkpt>
      <trkpt lat="45.98258" lon="4.81527">
        <ele>247</ele>
        <time>2017-12-12T11:29:52Z</time>
      </trkpt>
      <trkpt lat="45.98255" lon="4.81521">
        <ele>247</ele>
        <time>2017-12-12T11:29:53Z</time>
      </trkpt>
      <trkpt lat="45.98253" lon="4.81514">
        <ele>248</ele>
        <time>2017-12-12T11:29:54Z</time>
      </trkpt>
      <trkpt lat="45.98251" lon="4.81506">
        <ele>248</ele>
        <time>2017-12-12T11:29:55Z</time>
      </trkpt>
      <trkpt lat="45.98248" lon="4.815">
        <ele>249</ele>
        <time>2017-12-12T11:29:56Z</time>
      </trkpt>
      <trkpt lat="45.98246" lon="4.81493">
        <ele>249</ele>
        <time>2017-12-12T11:29:57Z</time>
      </trkpt>
      <trkpt lat="45.98244" lon="4.81486">
        <ele>249</ele>
        <time>2017-12-12T11:29:58Z</time>
      </trkpt>
      <trkpt lat="45.98241" lon="4.8148">
        <ele>249</ele>
        <time>2017-12-12T11:29:59Z</time>
      </trkpt>
      <trkpt lat="45.98239" lon="4.81473">
        <ele>249</ele>
        <time>2017-12-12T11:30:00Z</time>
      </trkpt>
      <trkpt lat="45.98236" lon="4.81467">
        <ele>249</ele>
        <time>2017-12-12T11:30:01Z</time>
      </trkpt>
      <trkpt lat="45.98234" lon="4.81461">
        <ele>249</ele>
        <time>2017-12-12T11:30:02Z</time>
      </trkpt>
      <trkpt lat="45.98232" lon="4.81455">
        <ele>249</ele>
        <time>2017-12-12T11:30:03Z</time>
      </trkpt>
      <trkpt lat="45.9823" lon="4.81448">
        <ele>249</ele>
        <time>2017-12-12T11:30:04Z</time>
      </trkpt>
      <trkpt lat="45.98228" lon="4.81442">
        <ele>249</ele>
        <time>2017-12-12T11:30:05Z</time>
      </trkpt>
      <trkpt lat="45.98224" lon="4.81431">
        <ele>249</ele>
        <time>2017-12-12T11:30:07Z</time>
      </trkpt>
      <trkpt lat="45.98222" lon="4.81426">
        <ele>249</ele>
        <time>2017-12-12T11:30:08Z</time>
      </trkpt>
      <trkpt lat="45.98219" lon="4.81419">
        <ele>249</ele>
        <time>2017-12-12T11:30:09Z</time>
      </trkpt>
      <trkpt lat="45.98218" lon="4.81414">
        <ele>248</ele>
        <time>2017-12-12T11:30:10Z</time>
      </trkpt>
      <trkpt lat="45.98215" lon="4.81404">
        <ele>248</ele>
        <time>2017-12-12T11:30:12Z</time>
      </trkpt>
      <trkpt lat="45.98214" lon="4.81398">
        <ele>248</ele>
        <time>2017-12-12T11:30:13Z</time>
      </trkpt>
      <trkpt lat="45.98213" lon="4.81385">
        <ele>248</ele>
        <time>2017-12-12T11:30:15Z</time>
      </trkpt>
      <trkpt lat="45.98211" lon="4.81378">
        <ele>248</ele>
        <time>2017-12-12T11:30:16Z</time>
      </trkpt>
      <trkpt lat="45.98211" lon="4.81369">
        <ele>248</ele>
        <time>2017-12-12T11:30:17Z</time>
      </trkpt>
      <trkpt lat="45.98209" lon="4.81363">
        <ele>248</ele>
        <time>2017-12-12T11:30:18Z</time>
      </trkpt>
      <trkpt lat="45.98208" lon="4.81356">
        <ele>248</ele>
        <time>2017-12-12T11:30:19Z</time>
      </trkpt>
      <trkpt lat="45.98205" lon="4.81348">
        <ele>248</ele>
        <time>2017-12-12T11:30:20Z</time>
      </trkpt>
      <trkpt lat="45.98203" lon="4.8134">
        <ele>248</ele>
        <time>2017-12-12T11:30:21Z</time>
      </trkpt>
      <trkpt lat="45.98201" lon="4.81332">
        <ele>247</ele>
        <time>2017-12-12T11:30:22Z</time>
      </trkpt>
      <trkpt lat="45.98199" lon="4.81324">
        <ele>247</ele>
        <time>2017-12-12T11:30:23Z</time>
      </trkpt>
      <trkpt lat="45.98198" lon="4.81314">
        <ele>247</ele>
        <time>2017-12-12T11:30:24Z</time>
      </trkpt>
      <trkpt lat="45.98195" lon="4.81307">
        <ele>247</ele>
        <time>2017-12-12T11:30:25Z</time>
      </trkpt>
      <trkpt lat="45.98193" lon="4.81299">
        <ele>247</ele>
        <time>2017-12-12T11:30:26Z</time>
      </trkpt>
      <trkpt lat="45.98192" lon="4.81292">
        <ele>247</ele>
        <time>2017-12-12T11:30:27Z</time>
      </trkpt>
      <trkpt lat="45.98191" lon="4.81285">
        <ele>247</ele>
        <time>2017-12-12T11:30:28Z</time>
      </trkpt>
      <trkpt lat="45.98189" lon="4.81278">
        <ele>247</ele>
        <time>2017-12-12T11:30:29Z</time>
      </trkpt>
      <trkpt lat="45.98187" lon="4.81271">
        <ele>247</ele>
        <time>2017-12-12T11:30:30Z</time>
      </trkpt>
      <trkpt lat="45.98186" lon="4.81264">
        <ele>247</ele>
        <time>2017-12-12T11:30:31Z</time>
      </trkpt>
      <trkpt lat="45.98184" lon="4.81256">
        <ele>247</ele>
        <time>2017-12-12T11:30:32Z</time>
      </trkpt>
      <trkpt lat="45.98183" lon="4.81249">
        <ele>247</ele>
        <time>2017-12-12T11:30:33Z</time>
      </trkpt>
      <trkpt lat="45.98182" lon="4.81242">
        <ele>246</ele>
        <time>2017-12-12T11:30:34Z</time>
      </trkpt>
      <trkpt lat="45.9818" lon="4.81235">
        <ele>246</ele>
        <time>2017-12-12T11:30:35Z</time>
      </trkpt>
      <trkpt lat="45.98178" lon="4.81227">
        <ele>246</ele>
        <time>2017-12-12T11:30:36Z</time>
      </trkpt>
      <trkpt lat="45.98177" lon="4.81218">
        <ele>246</ele>
        <time>2017-12-12T11:30:37Z</time>
      </trkpt>
      <trkpt lat="45.98176" lon="4.81211">
        <ele>246</ele>
        <time>2017-12-12T11:30:38Z</time>
      </trkpt>
      <trkpt lat="45.98175" lon="4.81203">
        <ele>245</ele>
        <time>2017-12-12T11:30:39Z</time>
      </trkpt>
      <trkpt lat="45.98175" lon="4.81196">
        <ele>245</ele>
        <time>2017-12-12T11:30:40Z</time>
      </trkpt>
      <trkpt lat="45.98173" lon="4.81189">
        <ele>245</ele>
        <time>2017-12-12T11:30:41Z</time>
      </trkpt>
      <trkpt lat="45.98172" lon="4.81181">
        <ele>245</ele>
        <time>2017-12-12T11:30:42Z</time>
      </trkpt>
      <trkpt lat="45.9817" lon="4.81173">
        <ele>245</ele>
        <time>2017-12-12T11:30:43Z</time>
      </trkpt>
      <trkpt lat="45.98168" lon="4.81166">
        <ele>245</ele>
        <time>2017-12-12T11:30:44Z</time>
      </trkpt>
      <trkpt lat="45.98165" lon="4.81157">
        <ele>245</ele>
        <time>2017-12-12T11:30:45Z</time>
      </trkpt>
      <trkpt lat="45.98162" lon="4.8115">
        <ele>245</ele>
        <time>2017-12-12T11:30:46Z</time>
      </trkpt>
      <trkpt lat="45.98158" lon="4.81143">
        <ele>245</ele>
        <time>2017-12-12T11:30:47Z</time>
      </trkpt>
      <trkpt lat="45.98156" lon="4.81136">
        <ele>245</ele>
        <time>2017-12-12T11:30:48Z</time>
      </trkpt>
      <trkpt lat="45.98153" lon="4.81129">
        <ele>245</ele>
        <time>2017-12-12T11:30:49Z</time>
      </trkpt>
      <trkpt lat="45.9815" lon="4.81122">
        <ele>245</ele>
        <time>2017-12-12T11:30:50Z</time>
      </trkpt>
      <trkpt lat="45.98147" lon="4.81114">
        <ele>245</ele>
        <time>2017-12-12T11:30:51Z</time>
      </trkpt>
      <trkpt lat="45.98144" lon="4.81108">
        <ele>245</ele>
        <time>2017-12-12T11:30:52Z</time>
      </trkpt>
      <trkpt lat="45.98142" lon="4.811">
        <ele>245</ele>
        <time>2017-12-12T11:30:53Z</time>
      </trkpt>
      <trkpt lat="45.98141" lon="4.81094">
        <ele>245</ele>
        <time>2017-12-12T11:30:54Z</time>
      </trkpt>
      <trkpt lat="45.98139" lon="4.81088">
        <ele>245</ele>
        <time>2017-12-12T11:30:55Z</time>
      </trkpt>
      <trkpt lat="45.98136" lon="4.81081">
        <ele>243</ele>
        <time>2017-12-12T11:30:56Z</time>
      </trkpt>
      <trkpt lat="45.98134" lon="4.81074">
        <ele>243</ele>
        <time>2017-12-12T11:30:57Z</time>
      </trkpt>
      <trkpt lat="45.98132" lon="4.81067">
        <ele>243</ele>
        <time>2017-12-12T11:30:58Z</time>
      </trkpt>
      <trkpt lat="45.98129" lon="4.81061">
        <ele>243</ele>
        <time>2017-12-12T11:30:59Z</time>
      </trkpt>
      <trkpt lat="45.98127" lon="4.81053">
        <ele>243</ele>
        <time>2017-12-12T11:31:00Z</time>
      </trkpt>
      <trkpt lat="45.98124" lon="4.81045">
        <ele>242</ele>
        <time>2017-12-12T11:31:01Z</time>
      </trkpt>
      <trkpt lat="45.98121" lon="4.81037">
        <ele>242</ele>
        <time>2017-12-12T11:31:02Z</time>
      </trkpt>
      <trkpt lat="45.98118" lon="4.81028">
        <ele>242</ele>
        <time>2017-12-12T11:31:03Z</time>
      </trkpt>
      <trkpt lat="45.98115" lon="4.8102">
        <ele>242</ele>
        <time>2017-12-12T11:31:04Z</time>
      </trkpt>
      <trkpt lat="45.98113" lon="4.81011">
        <ele>242</ele>
        <time>2017-12-12T11:31:05Z</time>
      </trkpt>
      <trkpt lat="45.98109" lon="4.81004">
        <ele>242</ele>
        <time>2017-12-12T11:31:06Z</time>
      </trkpt>
      <trkpt lat="45.98105" lon="4.80997">
        <ele>240</ele>
        <time>2017-12-12T11:31:07Z</time>
      </trkpt>
      <trkpt lat="45.98102" lon="4.8099">
        <ele>240</ele>
        <time>2017-12-12T11:31:08Z</time>
      </trkpt>
      <trkpt lat="45.98101" lon="4.80983">
        <ele>239</ele>
        <time>2017-12-12T11:31:09Z</time>
      </trkpt>
      <trkpt lat="45.98099" lon="4.80976">
        <ele>239</ele>
        <time>2017-12-12T11:31:10Z</time>
      </trkpt>
      <trkpt lat="45.98097" lon="4.80969">
        <ele>239</ele>
        <time>2017-12-12T11:31:11Z</time>
      </trkpt>
      <trkpt lat="45.98095" lon="4.8096">
        <ele>238</ele>
        <time>2017-12-12T11:31:12Z</time>
      </trkpt>
      <trkpt lat="45.98092" lon="4.80951">
        <ele>238</ele>
        <time>2017-12-12T11:31:13Z</time>
      </trkpt>
      <trkpt lat="45.98089" lon="4.8094">
        <ele>238</ele>
        <time>2017-12-12T11:31:14Z</time>
      </trkpt>
      <trkpt lat="45.98087" lon="4.8093">
        <ele>238</ele>
        <time>2017-12-12T11:31:15Z</time>
      </trkpt>
      <trkpt lat="45.98084" lon="4.80918">
        <ele>239</ele>
        <time>2017-12-12T11:31:16Z</time>
      </trkpt>
      <trkpt lat="45.98081" lon="4.80907">
        <ele>238</ele>
        <time>2017-12-12T11:31:17Z</time>
      </trkpt>
      <trkpt lat="45.98078" lon="4.80896">
        <ele>238</ele>
        <time>2017-12-12T11:31:18Z</time>
      </trkpt>
      <trkpt lat="45.98075" lon="4.80884">
        <ele>237</ele>
        <time>2017-12-12T11:31:19Z</time>
      </trkpt>
      <trkpt lat="45.98073" lon="4.80872">
        <ele>237</ele>
        <time>2017-12-12T11:31:20Z</time>
      </trkpt>
      <trkpt lat="45.98069" lon="4.80859">
        <ele>236</ele>
        <time>2017-12-12T11:31:21Z</time>
      </trkpt>
      <trkpt lat="45.98067" lon="4.80846">
        <ele>236</ele>
        <time>2017-12-12T11:31:22Z</time>
      </trkpt>
      <trkpt lat="45.98063" lon="4.80834">
        <ele>236</ele>
        <time>2017-12-12T11:31:23Z</time>
      </trkpt>
      <trkpt lat="45.9806" lon="4.80821">
        <ele>234</ele>
        <time>2017-12-12T11:31:24Z</time>
      </trkpt>
      <trkpt lat="45.98058" lon="4.8081">
        <ele>234</ele>
        <time>2017-12-12T11:31:25Z</time>
      </trkpt>
      <trkpt lat="45.98056" lon="4.80798">
        <ele>233</ele>
        <time>2017-12-12T11:31:26Z</time>
      </trkpt>
      <trkpt lat="45.98053" lon="4.80786">
        <ele>233</ele>
        <time>2017-12-12T11:31:27Z</time>
      </trkpt>
      <trkpt lat="45.9805" lon="4.80775">
        <ele>233</ele>
        <time>2017-12-12T11:31:28Z</time>
      </trkpt>
      <trkpt lat="45.98047" lon="4.80764">
        <ele>233</ele>
        <time>2017-12-12T11:31:29Z</time>
      </trkpt>
      <trkpt lat="45.98045" lon="4.80755">
        <ele>233</ele>
        <time>2017-12-12T11:31:30Z</time>
      </trkpt>
      <trkpt lat="45.98043" lon="4.80746">
        <ele>231</ele>
        <time>2017-12-12T11:31:31Z</time>
      </trkpt>
      <trkpt lat="45.9804" lon="4.80737">
        <ele>231</ele>
        <time>2017-12-12T11:31:32Z</time>
      </trkpt>
      <trkpt lat="45.98038" lon="4.80729">
        <ele>231</ele>
        <time>2017-12-12T11:31:33Z</time>
      </trkpt>
      <trkpt lat="45.98036" lon="4.80721">
        <ele>231</ele>
        <time>2017-12-12T11:31:34Z</time>
      </trkpt>
      <trkpt lat="45.98035" lon="4.80708">
        <ele>231</ele>
        <time>2017-12-12T11:31:36Z</time>
      </trkpt>
      <trkpt lat="45.98037" lon="4.80703">
        <ele>230</ele>
        <time>2017-12-12T11:31:37Z</time>
      </trkpt>
      <trkpt lat="45.98041" lon="4.80698">
        <ele>230</ele>
        <time>2017-12-12T11:31:38Z</time>
      </trkpt>
      <trkpt lat="45.98045" lon="4.80696">
        <ele>230</ele>
        <time>2017-12-12T11:31:39Z</time>
      </trkpt>
      <trkpt lat="45.9805" lon="4.80694">
        <ele>230</ele>
        <time>2017-12-12T11:31:40Z</time>
      </trkpt>
      <trkpt lat="45.98055" lon="4.80694">
        <ele>230</ele>
        <time>2017-12-12T11:31:41Z</time>
      </trkpt>
      <trkpt lat="45.98062" lon="4.80695">
        <ele>230</ele>
        <time>2017-12-12T11:31:42Z</time>
      </trkpt>
      <trkpt lat="45.98068" lon="4.80694">
        <ele>230</ele>
        <time>2017-12-12T11:31:43Z</time>
      </trkpt>
      <trkpt lat="45.98074" lon="4.80693">
        <ele>230</ele>
        <time>2017-12-12T11:31:44Z</time>
      </trkpt>
      <trkpt lat="45.98081" lon="4.80694">
        <ele>230</ele>
        <time>2017-12-12T11:31:45Z</time>
      </trkpt>
      <trkpt lat="45.98088" lon="4.80694">
        <ele>228</ele>
        <time>2017-12-12T11:31:46Z</time>
      </trkpt>
      <trkpt lat="45.98095" lon="4.80694">
        <ele>228</ele>
        <time>2017-12-12T11:31:47Z</time>
      </trkpt>
      <trkpt lat="45.98103" lon="4.80694">
        <ele>228</ele>
        <time>2017-12-12T11:31:48Z</time>
      </trkpt>
      <trkpt lat="45.98111" lon="4.80695">
        <ele>228</ele>
        <time>2017-12-12T11:31:49Z</time>
      </trkpt>
      <trkpt lat="45.98119" lon="4.80695">
        <ele>228</ele>
        <time>2017-12-12T11:31:50Z</time>
      </trkpt>
      <trkpt lat="45.98126" lon="4.80695">
        <ele>228</ele>
        <time>2017-12-12T11:31:51Z</time>
      </trkpt>
      <trkpt lat="45.98134" lon="4.80694">
        <ele>228</ele>
        <time>2017-12-12T11:31:52Z</time>
      </trkpt>
      <trkpt lat="45.98141" lon="4.80693">
        <ele>228</ele>
        <time>2017-12-12T11:31:53Z</time>
      </trkpt>
      <trkpt lat="45.98148" lon="4.80692">
        <ele>228</ele>
        <time>2017-12-12T11:31:54Z</time>
      </trkpt>
      <trkpt lat="45.98156" lon="4.80692">
        <ele>227</ele>
        <time>2017-12-12T11:31:55Z</time>
      </trkpt>
      <trkpt lat="45.98162" lon="4.80691">
        <ele>227</ele>
        <time>2017-12-12T11:31:56Z</time>
      </trkpt>
      <trkpt lat="45.9817" lon="4.8069">
        <ele>225</ele>
        <time>2017-12-12T11:31:57Z</time>
      </trkpt>
      <trkpt lat="45.98176" lon="4.80689">
        <ele>225</ele>
        <time>2017-12-12T11:31:58Z</time>
      </trkpt>
      <trkpt lat="45.98183" lon="4.80686">
        <ele>225</ele>
        <time>2017-12-12T11:31:59Z</time>
      </trkpt>
      <trkpt lat="45.98191" lon="4.80685">
        <ele>225</ele>
        <time>2017-12-12T11:32:00Z</time>
      </trkpt>
      <trkpt lat="45.98197" lon="4.80683">
        <ele>225</ele>
        <time>2017-12-12T11:32:01Z</time>
      </trkpt>
      <trkpt lat="45.98204" lon="4.80681">
        <ele>225</ele>
        <time>2017-12-12T11:32:02Z</time>
      </trkpt>
      <trkpt lat="45.98209" lon="4.80677">
        <ele>224</ele>
        <time>2017-12-12T11:32:03Z</time>
      </trkpt>
      <trkpt lat="45.98214" lon="4.80674">
        <ele>224</ele>
        <time>2017-12-12T11:32:04Z</time>
      </trkpt>
      <trkpt lat="45.9822" lon="4.80668">
        <ele>224</ele>
        <time>2017-12-12T11:32:05Z</time>
      </trkpt>
      <trkpt lat="45.98224" lon="4.80662">
        <ele>223</ele>
        <time>2017-12-12T11:32:06Z</time>
      </trkpt>
      <trkpt lat="45.98228" lon="4.80654">
        <ele>223</ele>
        <time>2017-12-12T11:32:07Z</time>
      </trkpt>
      <trkpt lat="45.98232" lon="4.80643">
        <ele>224</ele>
        <time>2017-12-12T11:32:08Z</time>
      </trkpt>
      <trkpt lat="45.98235" lon="4.80634">
        <ele>224</ele>
        <time>2017-12-12T11:32:09Z</time>
      </trkpt>
      <trkpt lat="45.98237" lon="4.80625">
        <ele>224</ele>
        <time>2017-12-12T11:32:10Z</time>
      </trkpt>
      <trkpt lat="45.98242" lon="4.80618">
        <ele>224</ele>
        <time>2017-12-12T11:32:11Z</time>
      </trkpt>
      <trkpt lat="45.98244" lon="4.80607">
        <ele>224</ele>
        <time>2017-12-12T11:32:12Z</time>
      </trkpt>
      <trkpt lat="45.98247" lon="4.80599">
        <ele>224</ele>
        <time>2017-12-12T11:32:13Z</time>
      </trkpt>
      <trkpt lat="45.98249" lon="4.80588">
        <ele>224</ele>
        <time>2017-12-12T11:32:14Z</time>
      </trkpt>
      <trkpt lat="45.98254" lon="4.80578">
        <ele>224</ele>
        <time>2017-12-12T11:32:15Z</time>
      </trkpt>
      <trkpt lat="45.98257" lon="4.80569">
        <ele>224</ele>
        <time>2017-12-12T11:32:16Z</time>
      </trkpt>
      <trkpt lat="45.9826" lon="4.8056">
        <ele>224</ele>
        <time>2017-12-12T11:32:17Z</time>
      </trkpt>
      <trkpt lat="45.98263" lon="4.80552">
        <ele>224</ele>
        <time>2017-12-12T11:32:18Z</time>
      </trkpt>
      <trkpt lat="45.98264" lon="4.80545">
        <ele>224</ele>
        <time>2017-12-12T11:32:19Z</time>
      </trkpt>
      <trkpt lat="45.98266" lon="4.80538">
        <ele>224</ele>
        <time>2017-12-12T11:32:20Z</time>
      </trkpt>
      <trkpt lat="45.98268" lon="4.80531">
        <ele>224</ele>
        <time>2017-12-12T11:32:21Z</time>
      </trkpt>
      <trkpt lat="45.98269" lon="4.80524">
        <ele>224</ele>
        <time>2017-12-12T11:32:22Z</time>
      </trkpt>
      <trkpt lat="45.98271" lon="4.80517">
        <ele>224</ele>
        <time>2017-12-12T11:32:23Z</time>
      </trkpt>
      <trkpt lat="45.98273" lon="4.80511">
        <ele>223</ele>
        <time>2017-12-12T11:32:24Z</time>
      </trkpt>
      <trkpt lat="45.98275" lon="4.80504">
        <ele>223</ele>
        <time>2017-12-12T11:32:25Z</time>
      </trkpt>
      <trkpt lat="45.98277" lon="4.80496">
        <ele>223</ele>
        <time>2017-12-12T11:32:26Z</time>
      </trkpt>
      <trkpt lat="45.98279" lon="4.80488">
        <ele>223</ele>
        <time>2017-12-12T11:32:27Z</time>
      </trkpt>
      <trkpt lat="45.98281" lon="4.8048">
        <ele>223</ele>
        <time>2017-12-12T11:32:28Z</time>
      </trkpt>
      <trkpt lat="45.98282" lon="4.80473">
        <ele>223</ele>
        <time>2017-12-12T11:32:29Z</time>
      </trkpt>
      <trkpt lat="45.98284" lon="4.80464">
        <ele>224</ele>
        <time>2017-12-12T11:32:30Z</time>
      </trkpt>
      <trkpt lat="45.98286" lon="4.80455">
        <ele>224</ele>
        <time>2017-12-12T11:32:31Z</time>
      </trkpt>
      <trkpt lat="45.98287" lon="4.80446">
        <ele>224</ele>
        <time>2017-12-12T11:32:32Z</time>
      </trkpt>
      <trkpt lat="45.98289" lon="4.80437">
        <ele>224</ele>
        <time>2017-12-12T11:32:33Z</time>
      </trkpt>
      <trkpt lat="45.98291" lon="4.80429">
        <ele>224</ele>
        <time>2017-12-12T11:32:34Z</time>
      </trkpt>
      <trkpt lat="45.98293" lon="4.8042">
        <ele>224</ele>
        <time>2017-12-12T11:32:35Z</time>
      </trkpt>
      <trkpt lat="45.98295" lon="4.80412">
        <ele>224</ele>
        <time>2017-12-12T11:32:36Z</time>
      </trkpt>
      <trkpt lat="45.98296" lon="4.80404">
        <ele>224</ele>
        <time>2017-12-12T11:32:37Z</time>
      </trkpt>
      <trkpt lat="45.98298" lon="4.80397">
        <ele>225</ele>
        <time>2017-12-12T11:32:38Z</time>
      </trkpt>
      <trkpt lat="45.983" lon="4.80388">
        <ele>225</ele>
        <time>2017-12-12T11:32:39Z</time>
      </trkpt>
      <trkpt lat="45.98302" lon="4.8038">
        <ele>225</ele>
        <time>2017-12-12T11:32:40Z</time>
      </trkpt>
      <trkpt lat="45.98304" lon="4.80373">
        <ele>225</ele>
        <time>2017-12-12T11:32:41Z</time>
      </trkpt>
      <trkpt lat="45.98306" lon="4.80365">
        <ele>225</ele>
        <time>2017-12-12T11:32:42Z</time>
      </trkpt>
      <trkpt lat="45.98307" lon="4.80357">
        <ele>225</ele>
        <time>2017-12-12T11:32:43Z</time>
      </trkpt>
      <trkpt lat="45.98308" lon="4.8035">
        <ele>226</ele>
        <time>2017-12-12T11:32:44Z</time>
      </trkpt>
      <trkpt lat="45.98309" lon="4.80343">
        <ele>226</ele>
        <time>2017-12-12T11:32:45Z</time>
      </trkpt>
      <trkpt lat="45.98311" lon="4.80337">
        <ele>226</ele>
        <time>2017-12-12T11:32:46Z</time>
      </trkpt>
      <trkpt lat="45.98312" lon="4.80331">
        <ele>227</ele>
        <time>2017-12-12T11:32:47Z</time>
      </trkpt>
      <trkpt lat="45.98314" lon="4.80324">
        <ele>227</ele>
        <time>2017-12-12T11:32:48Z</time>
      </trkpt>
      <trkpt lat="45.98315" lon="4.80317">
        <ele>227</ele>
        <time>2017-12-12T11:32:49Z</time>
      </trkpt>
      <trkpt lat="45.98315" lon="4.80311">
        <ele>227</ele>
        <time>2017-12-12T11:32:50Z</time>
      </trkpt>
      <trkpt lat="45.98315" lon="4.80303">
        <ele>226</ele>
        <time>2017-12-12T11:32:51Z</time>
      </trkpt>
      <trkpt lat="45.98318" lon="4.80291">
        <ele>226</ele>
        <time>2017-12-12T11:32:53Z</time>
      </trkpt>
      <trkpt lat="45.98319" lon="4.80285">
        <ele>227</ele>
        <time>2017-12-12T11:32:54Z</time>
      </trkpt>
      <trkpt lat="45.9832" lon="4.80278">
        <ele>227</ele>
        <time>2017-12-12T11:32:55Z</time>
      </trkpt>
      <trkpt lat="45.98322" lon="4.80272">
        <ele>227</ele>
        <time>2017-12-12T11:32:56Z</time>
      </trkpt>
      <trkpt lat="45.98325" lon="4.80261">
        <ele>228</ele>
        <time>2017-12-12T11:32:58Z</time>
      </trkpt>
      <trkpt lat="45.98325" lon="4.80255">
        <ele>228</ele>
        <time>2017-12-12T11:32:59Z</time>
      </trkpt>
      <trkpt lat="45.98328" lon="4.80245">
        <ele>229</ele>
        <time>2017-12-12T11:33:01Z</time>
      </trkpt>
      <trkpt lat="45.98329" lon="4.8024">
        <ele>228</ele>
        <time>2017-12-12T11:33:02Z</time>
      </trkpt>
      <trkpt lat="45.98331" lon="4.8023">
        <ele>228</ele>
        <time>2017-12-12T11:33:04Z</time>
      </trkpt>
      <trkpt lat="45.98332" lon="4.80224">
        <ele>228</ele>
        <time>2017-12-12T11:33:05Z</time>
      </trkpt>
      <trkpt lat="45.98331" lon="4.80212">
        <ele>227</ele>
        <time>2017-12-12T11:33:07Z</time>
      </trkpt>
      <trkpt lat="45.98329" lon="4.80207">
        <ele>227</ele>
        <time>2017-12-12T11:33:08Z</time>
      </trkpt>
      <trkpt lat="45.98325" lon="4.80197">
        <ele>227</ele>
        <time>2017-12-12T11:33:10Z</time>
      </trkpt>
      <trkpt lat="45.98323" lon="4.80192">
        <ele>227</ele>
        <time>2017-12-12T11:33:11Z</time>
      </trkpt>
      <trkpt lat="45.98321" lon="4.80182">
        <ele>227</ele>
        <time>2017-12-12T11:33:13Z</time>
      </trkpt>
      <trkpt lat="45.98319" lon="4.80177">
        <ele>227</ele>
        <time>2017-12-12T11:33:14Z</time>
      </trkpt>
      <trkpt lat="45.98317" lon="4.80165">
        <ele>228</ele>
        <time>2017-12-12T11:33:16Z</time>
      </trkpt>
      <trkpt lat="45.98316" lon="4.80158">
        <ele>228</ele>
        <time>2017-12-12T11:33:17Z</time>
      </trkpt>
      <trkpt lat="45.98313" lon="4.80152">
        <ele>228</ele>
        <time>2017-12-12T11:33:18Z</time>
      </trkpt>
      <trkpt lat="45.9831" lon="4.80145">
        <ele>228</ele>
        <time>2017-12-12T11:33:19Z</time>
      </trkpt>
      <trkpt lat="45.98308" lon="4.80139">
        <ele>228</ele>
        <time>2017-12-12T11:33:20Z</time>
      </trkpt>
      <trkpt lat="45.98307" lon="4.80132">
        <ele>228</ele>
        <time>2017-12-12T11:33:21Z</time>
      </trkpt>
      <trkpt lat="45.98304" lon="4.80125">
        <ele>228</ele>
        <time>2017-12-12T11:33:22Z</time>
      </trkpt>
      <trkpt lat="45.98303" lon="4.80118">
        <ele>228</ele>
        <time>2017-12-12T11:33:23Z</time>
      </trkpt>
      <trkpt lat="45.983" lon="4.80112">
        <ele>228</ele>
        <time>2017-12-12T11:33:24Z</time>
      </trkpt>
      <trkpt lat="45.98298" lon="4.80105">
        <ele>228</ele>
        <time>2017-12-12T11:33:25Z</time>
      </trkpt>
      <trkpt lat="45.98294" lon="4.80094">
        <ele>228</ele>
        <time>2017-12-12T11:33:27Z</time>
      </trkpt>
      <trkpt lat="45.98292" lon="4.80089">
        <ele>228</ele>
        <time>2017-12-12T11:33:28Z</time>
      </trkpt>
      <trkpt lat="45.9829" lon="4.8008">
        <ele>229</ele>
        <time>2017-12-12T11:33:30Z</time>
      </trkpt>
      <trkpt lat="45.98287" lon="4.80075">
        <ele>229</ele>
        <time>2017-12-12T11:33:31Z</time>
      </trkpt>
      <trkpt lat="45.98285" lon="4.80069">
        <ele>229</ele>
        <time>2017-12-12T11:33:32Z</time>
      </trkpt>
      <trkpt lat="45.98283" lon="4.80062">
        <ele>229</ele>
        <time>2017-12-12T11:33:33Z</time>
      </trkpt>
      <trkpt lat="45.9828" lon="4.80056">
        <ele>229</ele>
        <time>2017-12-12T11:33:34Z</time>
      </trkpt>
      <trkpt lat="45.98278" lon="4.80048">
        <ele>229</ele>
        <time>2017-12-12T11:33:35Z</time>
      </trkpt>
      <trkpt lat="45.98277" lon="4.80042">
        <ele>229</ele>
        <time>2017-12-12T11:33:36Z</time>
      </trkpt>
      <trkpt lat="45.98274" lon="4.80034">
        <ele>229</ele>
        <time>2017-12-12T11:33:37Z</time>
      </trkpt>
      <trkpt lat="45.98271" lon="4.80027">
        <ele>229</ele>
        <time>2017-12-12T11:33:38Z</time>
      </trkpt>
      <trkpt lat="45.98269" lon="4.8002">
        <ele>228</ele>
        <time>2017-12-12T11:33:39Z</time>
      </trkpt>
      <trkpt lat="45.98267" lon="4.80014">
        <ele>228</ele>
        <time>2017-12-12T11:33:40Z</time>
      </trkpt>
      <trkpt lat="45.98264" lon="4.80006">
        <ele>228</ele>
        <time>2017-12-12T11:33:41Z</time>
      </trkpt>
      <trkpt lat="45.98262" lon="4.80001">
        <ele>227</ele>
        <time>2017-12-12T11:33:42Z</time>
      </trkpt>
      <trkpt lat="45.98259" lon="4.79995">
        <ele>227</ele>
        <time>2017-12-12T11:33:43Z</time>
      </trkpt>
      <trkpt lat="45.98258" lon="4.79988">
        <ele>228</ele>
        <time>2017-12-12T11:33:44Z</time>
      </trkpt>
      <trkpt lat="45.98255" lon="4.79982">
        <ele>228</ele>
        <time>2017-12-12T11:33:45Z</time>
      </trkpt>
      <trkpt lat="45.98253" lon="4.79975">
        <ele>228</ele>
        <time>2017-12-12T11:33:46Z</time>
      </trkpt>
      <trkpt lat="45.98252" lon="4.79968">
        <ele>228</ele>
        <time>2017-12-12T11:33:47Z</time>
      </trkpt>
      <trkpt lat="45.98249" lon="4.79962">
        <ele>225</ele>
        <time>2017-12-12T11:33:48Z</time>
      </trkpt>
      <trkpt lat="45.98247" lon="4.79956">
        <ele>225</ele>
        <time>2017-12-12T11:33:49Z</time>
      </trkpt>
      <trkpt lat="45.98243" lon="4.7995">
        <ele>225</ele>
        <time>2017-12-12T11:33:50Z</time>
      </trkpt>
      <trkpt lat="45.9824" lon="4.79943">
        <ele>225</ele>
        <time>2017-12-12T11:33:51Z</time>
      </trkpt>
      <trkpt lat="45.98238" lon="4.79937">
        <ele>225</ele>
        <time>2017-12-12T11:33:52Z</time>
      </trkpt>
      <trkpt lat="45.98235" lon="4.7993">
        <ele>225</ele>
        <time>2017-12-12T11:33:53Z</time>
      </trkpt>
      <trkpt lat="45.98232" lon="4.79921">
        <ele>225</ele>
        <time>2017-12-12T11:33:54Z</time>
      </trkpt>
      <trkpt lat="45.9823" lon="4.79915">
        <ele>225</ele>
        <time>2017-12-12T11:33:55Z</time>
      </trkpt>
      <trkpt lat="45.98227" lon="4.79907">
        <ele>225</ele>
        <time>2017-12-12T11:33:56Z</time>
      </trkpt>
      <trkpt lat="45.98223" lon="4.79901">
        <ele>225</ele>
        <time>2017-12-12T11:33:57Z</time>
      </trkpt>
      <trkpt lat="45.9822" lon="4.79895">
        <ele>225</ele>
        <time>2017-12-12T11:33:58Z</time>
      </trkpt>
      <trkpt lat="45.98218" lon="4.7989">
        <ele>225</ele>
        <time>2017-12-12T11:33:59Z</time>
      </trkpt>
      <trkpt lat="45.98214" lon="4.79884">
        <ele>225</ele>
        <time>2017-12-12T11:34:00Z</time>
      </trkpt>
      <trkpt lat="45.98212" lon="4.79877">
        <ele>225</ele>
        <time>2017-12-12T11:34:01Z</time>
      </trkpt>
      <trkpt lat="45.98208" lon="4.79873">
        <ele>225</ele>
        <time>2017-12-12T11:34:02Z</time>
      </trkpt>
      <trkpt lat="45.98206" lon="4.79866">
        <ele>225</ele>
        <time>2017-12-12T11:34:03Z</time>
      </trkpt>
      <trkpt lat="45.98205" lon="4.7986">
        <ele>225</ele>
        <time>2017-12-12T11:34:04Z</time>
      </trkpt>
      <trkpt lat="45.98203" lon="4.79854">
        <ele>225</ele>
        <time>2017-12-12T11:34:05Z</time>
      </trkpt>
      <trkpt lat="45.98201" lon="4.79847">
        <ele>225</ele>
        <time>2017-12-12T11:34:06Z</time>
      </trkpt>
      <trkpt lat="45.98198" lon="4.79839">
        <ele>225</ele>
        <time>2017-12-12T11:34:07Z</time>
      </trkpt>
      <trkpt lat="45.98194" lon="4.79828">
        <ele>225</ele>
        <time>2017-12-12T11:34:09Z</time>
      </trkpt>
      <trkpt lat="45.98193" lon="4.7982">
        <ele>225</ele>
        <time>2017-12-12T11:34:10Z</time>
      </trkpt>
      <trkpt lat="45.98192" lon="4.79815">
        <ele>225</ele>
        <time>2017-12-12T11:34:11Z</time>
      </trkpt>
      <trkpt lat="45.98192" lon="4.79807">
        <ele>226</ele>
        <time>2017-12-12T11:34:12Z</time>
      </trkpt>
      <trkpt lat="45.98189" lon="4.79797">
        <ele>226</ele>
        <time>2017-12-12T11:34:14Z</time>
      </trkpt>
      <trkpt lat="45.98188" lon="4.7979">
        <ele>226</ele>
        <time>2017-12-12T11:34:15Z</time>
      </trkpt>
      <trkpt lat="45.98186" lon="4.7978">
        <ele>226</ele>
        <time>2017-12-12T11:34:17Z</time>
      </trkpt>
      <trkpt lat="45.98187" lon="4.79774">
        <ele>226</ele>
        <time>2017-12-12T11:34:18Z</time>
      </trkpt>
      <trkpt lat="45.98189" lon="4.79765">
        <ele>226</ele>
        <time>2017-12-12T11:34:20Z</time>
      </trkpt>
      <trkpt lat="45.98191" lon="4.79761">
        <ele>226</ele>
        <time>2017-12-12T11:34:21Z</time>
      </trkpt>
      <trkpt lat="45.98197" lon="4.79755">
        <ele>226</ele>
        <time>2017-12-12T11:34:23Z</time>
      </trkpt>
      <trkpt lat="45.98201" lon="4.79753">
        <ele>226</ele>
        <time>2017-12-12T11:34:24Z</time>
      </trkpt>
      <trkpt lat="45.98209" lon="4.79751">
        <ele>226</ele>
        <time>2017-12-12T11:34:26Z</time>
      </trkpt>
      <trkpt lat="45.98213" lon="4.79751">
        <ele>226</ele>
        <time>2017-12-12T11:34:27Z</time>
      </trkpt>
      <trkpt lat="45.98221" lon="4.7975">
        <ele>227</ele>
        <time>2017-12-12T11:34:29Z</time>
      </trkpt>
      <trkpt lat="45.98225" lon="4.79749">
        <ele>228</ele>
        <time>2017-12-12T11:34:30Z</time>
      </trkpt>
      <trkpt lat="45.98233" lon="4.79749">
        <ele>228</ele>
        <time>2017-12-12T11:34:32Z</time>
      </trkpt>
      <trkpt lat="45.98237" lon="4.79748">
        <ele>228</ele>
        <time>2017-12-12T11:34:33Z</time>
      </trkpt>
      <trkpt lat="45.98245" lon="4.79747">
        <ele>228</ele>
        <time>2017-12-12T11:34:35Z</time>
      </trkpt>
      <trkpt lat="45.98249" lon="4.79747">
        <ele>228</ele>
        <time>2017-12-12T11:34:36Z</time>
      </trkpt>
      <trkpt lat="45.98257" lon="4.79747">
        <ele>230</ele>
        <time>2017-12-12T11:34:38Z</time>
      </trkpt>
      <trkpt lat="45.98261" lon="4.79746">
        <ele>231</ele>
        <time>2017-12-12T11:34:39Z</time>
      </trkpt>
      <trkpt lat="45.98269" lon="4.79746">
        <ele>232</ele>
        <time>2017-12-12T11:34:41Z</time>
      </trkpt>
      <trkpt lat="45.98273" lon="4.79745">
        <ele>232</ele>
        <time>2017-12-12T11:34:42Z</time>
      </trkpt>
      <trkpt lat="45.9828" lon="4.79744">
        <ele>233</ele>
        <time>2017-12-12T11:34:44Z</time>
      </trkpt>
      <trkpt lat="45.98284" lon="4.79744">
        <ele>234</ele>
        <time>2017-12-12T11:34:45Z</time>
      </trkpt>
      <trkpt lat="45.98292" lon="4.79743">
        <ele>234</ele>
        <time>2017-12-12T11:34:47Z</time>
      </trkpt>
      <trkpt lat="45.98295" lon="4.79742">
        <ele>235</ele>
        <time>2017-12-12T11:34:48Z</time>
      </trkpt>
      <trkpt lat="45.98303" lon="4.79741">
        <ele>235</ele>
        <time>2017-12-12T11:34:50Z</time>
      </trkpt>
      <trkpt lat="45.98307" lon="4.79741">
        <ele>235</ele>
        <time>2017-12-12T11:34:51Z</time>
      </trkpt>
      <trkpt lat="45.98315" lon="4.79741">
        <ele>236</ele>
        <time>2017-12-12T11:34:53Z</time>
      </trkpt>
      <trkpt lat="45.9832" lon="4.7974">
        <ele>236</ele>
        <time>2017-12-12T11:34:54Z</time>
      </trkpt>
      <trkpt lat="45.98328" lon="4.79739">
        <ele>236</ele>
        <time>2017-12-12T11:34:56Z</time>
      </trkpt>
      <trkpt lat="45.98332" lon="4.79738">
        <ele>236</ele>
        <time>2017-12-12T11:34:57Z</time>
      </trkpt>
      <trkpt lat="45.9834" lon="4.79737">
        <ele>239</ele>
        <time>2017-12-12T11:34:59Z</time>
      </trkpt>
      <trkpt lat="45.98344" lon="4.79736">
        <ele>239</ele>
        <time>2017-12-12T11:35:00Z</time>
      </trkpt>
      <trkpt lat="45.98352" lon="4.79735">
        <ele>240</ele>
        <time>2017-12-12T11:35:02Z</time>
      </trkpt>
      <trkpt lat="45.98355" lon="4.79735">
        <ele>240</ele>
        <time>2017-12-12T11:35:03Z</time>
      </trkpt>
      <trkpt lat="45.98363" lon="4.79733">
        <ele>240</ele>
        <time>2017-12-12T11:35:05Z</time>
      </trkpt>
      <trkpt lat="45.98367" lon="4.79733">
        <ele>240</ele>
        <time>2017-12-12T11:35:06Z</time>
      </trkpt>
      <trkpt lat="45.98375" lon="4.79732">
        <ele>240</ele>
        <time>2017-12-12T11:35:08Z</time>
      </trkpt>
      <trkpt lat="45.98379" lon="4.79731">
        <ele>241</ele>
        <time>2017-12-12T11:35:09Z</time>
      </trkpt>
      <trkpt lat="45.98387" lon="4.79729">
        <ele>241</ele>
        <time>2017-12-12T11:35:11Z</time>
      </trkpt>
      <trkpt lat="45.98391" lon="4.79729">
        <ele>241</ele>
        <time>2017-12-12T11:35:12Z</time>
      </trkpt>
      <trkpt lat="45.984" lon="4.79729">
        <ele>241</ele>
        <time>2017-12-12T11:35:14Z</time>
      </trkpt>
      <trkpt lat="45.98404" lon="4.79728">
        <ele>241</ele>
        <time>2017-12-12T11:35:15Z</time>
      </trkpt>
      <trkpt lat="45.98409" lon="4.79728">
        <ele>241</ele>
        <time>2017-12-12T11:35:16Z</time>
      </trkpt>
      <trkpt lat="45.98413" lon="4.79728">
        <ele>241</ele>
        <time>2017-12-12T11:35:17Z</time>
      </trkpt>
      <trkpt lat="45.98417" lon="4.79729">
        <ele>242</ele>
        <time>2017-12-12T11:35:18Z</time>
      </trkpt>
      <trkpt lat="45.98422" lon="4.79729">
        <ele>242</ele>
        <time>2017-12-12T11:35:19Z</time>
      </trkpt>
      <trkpt lat="45.9843" lon="4.79729">
        <ele>242</ele>
        <time>2017-12-12T11:35:21Z</time>
      </trkpt>
      <trkpt lat="45.98434" lon="4.79728">
        <ele>242</ele>
        <time>2017-12-12T11:35:22Z</time>
      </trkpt>
      <trkpt lat="45.98442" lon="4.79728">
        <ele>242</ele>
        <time>2017-12-12T11:35:24Z</time>
      </trkpt>
      <trkpt lat="45.98446" lon="4.79728">
        <ele>242</ele>
        <time>2017-12-12T11:35:25Z</time>
      </trkpt>
      <trkpt lat="45.98453" lon="4.79727">
        <ele>243</ele>
        <time>2017-12-12T11:35:27Z</time>
      </trkpt>
      <trkpt lat="45.98457" lon="4.79727">
        <ele>243</ele>
        <time>2017-12-12T11:35:28Z</time>
      </trkpt>
      <trkpt lat="45.98465" lon="4.79727">
        <ele>243</ele>
        <time>2017-12-12T11:35:30Z</time>
      </trkpt>
      <trkpt lat="45.98469" lon="4.79727">
        <ele>243</ele>
        <time>2017-12-12T11:35:31Z</time>
      </trkpt>
      <trkpt lat="45.98476" lon="4.79726">
        <ele>243</ele>
        <time>2017-12-12T11:35:33Z</time>
      </trkpt>
      <trkpt lat="45.9848" lon="4.79727">
        <ele>243</ele>
        <time>2017-12-12T11:35:34Z</time>
      </trkpt>
      <trkpt lat="45.98488" lon="4.79728">
        <ele>243</ele>
        <time>2017-12-12T11:35:36Z</time>
      </trkpt>
      <trkpt lat="45.98492" lon="4.79728">
        <ele>243</ele>
        <time>2017-12-12T11:35:37Z</time>
      </trkpt>
      <trkpt lat="45.985" lon="4.79728">
        <ele>243</ele>
        <time>2017-12-12T11:35:39Z</time>
      </trkpt>
      <trkpt lat="45.98504" lon="4.79728">
        <ele>244</ele>
        <time>2017-12-12T11:35:40Z</time>
      </trkpt>
      <trkpt lat="45.98512" lon="4.79728">
        <ele>244</ele>
        <time>2017-12-12T11:35:42Z</time>
      </trkpt>
      <trkpt lat="45.98517" lon="4.79728">
        <ele>244</ele>
        <time>2017-12-12T11:35:43Z</time>
      </trkpt>
      <trkpt lat="45.98526" lon="4.79727">
        <ele>244</ele>
        <time>2017-12-12T11:35:45Z</time>
      </trkpt>
      <trkpt lat="45.9853" lon="4.79726">
        <ele>244</ele>
        <time>2017-12-12T11:35:46Z</time>
      </trkpt>
      <trkpt lat="45.98538" lon="4.79723">
        <ele>244</ele>
        <time>2017-12-12T11:35:48Z</time>
      </trkpt>
      <trkpt lat="45.98542" lon="4.79719">
        <ele>244</ele>
        <time>2017-12-12T11:35:49Z</time>
      </trkpt>
      <trkpt lat="45.98546" lon="4.79716">
        <ele>244</ele>
        <time>2017-12-12T11:35:50Z</time>
      </trkpt>
      <trkpt lat="45.98551" lon="4.79714">
        <ele>244</ele>
        <time>2017-12-12T11:35:51Z</time>
      </trkpt>
      <trkpt lat="45.98557" lon="4.79708">
        <ele>244</ele>
        <time>2017-12-12T11:35:53Z</time>
      </trkpt>
      <trkpt lat="45.98561" lon="4.79705">
        <ele>244</ele>
        <time>2017-12-12T11:35:54Z</time>
      </trkpt>
      <trkpt lat="45.98567" lon="4.79699">
        <ele>244</ele>
        <time>2017-12-12T11:35:56Z</time>
      </trkpt>
      <trkpt lat="45.9857" lon="4.79695">
        <ele>244</ele>
        <time>2017-12-12T11:35:57Z</time>
      </trkpt>
      <trkpt lat="45.98576" lon="4.79687">
        <ele>244</ele>
        <time>2017-12-12T11:35:59Z</time>
      </trkpt>
      <trkpt lat="45.98579" lon="4.79683">
        <ele>245</ele>
        <time>2017-12-12T11:36:00Z</time>
      </trkpt>
      <trkpt lat="45.98584" lon="4.79675">
        <ele>245</ele>
        <time>2017-12-12T11:36:02Z</time>
      </trkpt>
      <trkpt lat="45.98587" lon="4.7967">
        <ele>245</ele>
        <time>2017-12-12T11:36:03Z</time>
      </trkpt>
      <trkpt lat="45.98591" lon="4.79662">
        <ele>245</ele>
        <time>2017-12-12T11:36:05Z</time>
      </trkpt>
      <trkpt lat="45.98593" lon="4.79658">
        <ele>245</ele>
        <time>2017-12-12T11:36:06Z</time>
      </trkpt>
      <trkpt lat="45.98599" lon="4.7965">
        <ele>245</ele>
        <time>2017-12-12T11:36:08Z</time>
      </trkpt>
      <trkpt lat="45.98602" lon="4.79647">
        <ele>245</ele>
        <time>2017-12-12T11:36:09Z</time>
      </trkpt>
      <trkpt lat="45.9861" lon="4.79639">
        <ele>245</ele>
        <time>2017-12-12T11:36:11Z</time>
      </trkpt>
      <trkpt lat="45.98613" lon="4.79637">
        <ele>245</ele>
        <time>2017-12-12T11:36:12Z</time>
      </trkpt>
      <trkpt lat="45.98621" lon="4.79632">
        <ele>245</ele>
        <time>2017-12-12T11:36:14Z</time>
      </trkpt>
      <trkpt lat="45.98624" lon="4.79629">
        <ele>245</ele>
        <time>2017-12-12T11:36:15Z</time>
      </trkpt>
      <trkpt lat="45.98628" lon="4.79624">
        <ele>245</ele>
        <time>2017-12-12T11:36:16Z</time>
      </trkpt>
      <trkpt lat="45.9863" lon="4.79618">
        <ele>245</ele>
        <time>2017-12-12T11:36:17Z</time>
      </trkpt>
      <trkpt lat="45.98632" lon="4.79606">
        <ele>245</ele>
        <time>2017-12-12T11:36:19Z</time>
      </trkpt>
      <trkpt lat="45.98632" lon="4.79599">
        <ele>245</ele>
        <time>2017-12-12T11:36:20Z</time>
      </trkpt>
      <trkpt lat="45.98628" lon="4.79593">
        <ele>245</ele>
        <time>2017-12-12T11:36:21Z</time>
      </trkpt>
      <trkpt lat="45.98626" lon="4.79587">
        <ele>245</ele>
        <time>2017-12-12T11:36:22Z</time>
      </trkpt>
      <trkpt lat="45.98617" lon="4.79583">
        <ele>245</ele>
        <time>2017-12-12T11:36:24Z</time>
      </trkpt>
      <trkpt lat="45.98613" lon="4.79584">
        <ele>245</ele>
        <time>2017-12-12T11:36:25Z</time>
      </trkpt>
      <trkpt lat="45.98608" lon="4.79585">
        <ele>245</ele>
        <time>2017-12-12T11:36:26Z</time>
      </trkpt>
      <trkpt lat="45.98604" lon="4.79587">
        <ele>245</ele>
        <time>2017-12-12T11:36:27Z</time>
      </trkpt>
      <trkpt lat="45.98599" lon="4.79587">
        <ele>245</ele>
        <time>2017-12-12T11:36:28Z</time>
      </trkpt>
      <trkpt lat="45.98593" lon="4.79587">
        <ele>245</ele>
        <time>2017-12-12T11:36:29Z</time>
      </trkpt>
      <trkpt lat="45.98588" lon="4.79585">
        <ele>245</ele>
        <time>2017-12-12T11:36:30Z</time>
      </trkpt>
      <trkpt lat="45.98583" lon="4.79583">
        <ele>245</ele>
        <time>2017-12-12T11:36:31Z</time>
      </trkpt>
      <trkpt lat="45.98578" lon="4.79581">
        <ele>245</ele>
        <time>2017-12-12T11:36:32Z</time>
      </trkpt>
      <trkpt lat="45.98573" lon="4.79578">
        <ele>245</ele>
        <time>2017-12-12T11:36:33Z</time>
      </trkpt>
      <trkpt lat="45.98567" lon="4.79574">
        <ele>244</ele>
        <time>2017-12-12T11:36:34Z</time>
      </trkpt>
      <trkpt lat="45.98562" lon="4.7957">
        <ele>244</ele>
        <time>2017-12-12T11:36:35Z</time>
      </trkpt>
      <trkpt lat="45.98558" lon="4.79564">
        <ele>244</ele>
        <time>2017-12-12T11:36:36Z</time>
      </trkpt>
      <trkpt lat="45.98554" lon="4.7956">
        <ele>244</ele>
        <time>2017-12-12T11:36:37Z</time>
      </trkpt>
      <trkpt lat="45.98551" lon="4.79555">
        <ele>244</ele>
        <time>2017-12-12T11:36:38Z</time>
      </trkpt>
      <trkpt lat="45.98548" lon="4.79549">
        <ele>244</ele>
        <time>2017-12-12T11:36:39Z</time>
      </trkpt>
      <trkpt lat="45.98545" lon="4.79542">
        <ele>244</ele>
        <time>2017-12-12T11:36:40Z</time>
      </trkpt>
      <trkpt lat="45.98542" lon="4.79536">
        <ele>244</ele>
        <time>2017-12-12T11:36:41Z</time>
      </trkpt>
      <trkpt lat="45.9854" lon="4.7953">
        <ele>244</ele>
        <time>2017-12-12T11:36:42Z</time>
      </trkpt>
      <trkpt lat="45.98538" lon="4.79524">
        <ele>244</ele>
        <time>2017-12-12T11:36:43Z</time>
      </trkpt>
      <trkpt lat="45.98535" lon="4.79512">
        <ele>244</ele>
        <time>2017-12-12T11:36:45Z</time>
      </trkpt>
      <trkpt lat="45.98534" lon="4.79504">
        <ele>244</ele>
        <time>2017-12-12T11:36:46Z</time>
      </trkpt>
      <trkpt lat="45.98532" lon="4.79496">
        <ele>244</ele>
        <time>2017-12-12T11:36:47Z</time>
      </trkpt>
      <trkpt lat="45.98531" lon="4.79487">
        <ele>244</ele>
        <time>2017-12-12T11:36:48Z</time>
      </trkpt>
      <trkpt lat="45.9853" lon="4.79479">
        <ele>244</ele>
        <time>2017-12-12T11:36:49Z</time>
      </trkpt>
      <trkpt lat="45.9853" lon="4.79471">
        <ele>244</ele>
        <time>2017-12-12T11:36:50Z</time>
      </trkpt>
      <trkpt lat="45.9853" lon="4.79462">
        <ele>244</ele>
        <time>2017-12-12T11:36:51Z</time>
      </trkpt>
      <trkpt lat="45.9853" lon="4.79455">
        <ele>244</ele>
        <time>2017-12-12T11:36:52Z</time>
      </trkpt>
      <trkpt lat="45.9853" lon="4.79447">
        <ele>244</ele>
        <time>2017-12-12T11:36:53Z</time>
      </trkpt>
      <trkpt lat="45.9853" lon="4.79438">
        <ele>244</ele>
        <time>2017-12-12T11:36:54Z</time>
      </trkpt>
      <trkpt lat="45.9853" lon="4.79431">
        <ele>244</ele>
        <time>2017-12-12T11:36:55Z</time>
      </trkpt>
      <trkpt lat="45.98528" lon="4.79424">
        <ele>244</ele>
        <time>2017-12-12T11:36:56Z</time>
      </trkpt>
      <trkpt lat="45.98527" lon="4.79417">
        <ele>244</ele>
        <time>2017-12-12T11:36:57Z</time>
      </trkpt>
      <trkpt lat="45.98526" lon="4.79409">
        <ele>244</ele>
        <time>2017-12-12T11:36:58Z</time>
      </trkpt>
      <trkpt lat="45.98526" lon="4.79401">
        <ele>244</ele>
        <time>2017-12-12T11:36:59Z</time>
      </trkpt>
      <trkpt lat="45.98524" lon="4.79393">
        <ele>244</ele>
        <time>2017-12-12T11:37:00Z</time>
      </trkpt>
      <trkpt lat="45.98524" lon="4.79385">
        <ele>244</ele>
        <time>2017-12-12T11:37:01Z</time>
      </trkpt>
      <trkpt lat="45.98523" lon="4.79377">
        <ele>244</ele>
        <time>2017-12-12T11:37:02Z</time>
      </trkpt>
      <trkpt lat="45.98521" lon="4.79369">
        <ele>243</ele>
        <time>2017-12-12T11:37:03Z</time>
      </trkpt>
      <trkpt lat="45.9852" lon="4.79362">
        <ele>243</ele>
        <time>2017-12-12T11:37:04Z</time>
      </trkpt>
      <trkpt lat="45.98518" lon="4.79354">
        <ele>243</ele>
        <time>2017-12-12T11:37:05Z</time>
      </trkpt>
      <trkpt lat="45.98516" lon="4.79346">
        <ele>243</ele>
        <time>2017-12-12T11:37:06Z</time>
      </trkpt>
      <trkpt lat="45.98515" lon="4.79337">
        <ele>243</ele>
        <time>2017-12-12T11:37:07Z</time>
      </trkpt>
      <trkpt lat="45.98513" lon="4.79329">
        <ele>243</ele>
        <time>2017-12-12T11:37:08Z</time>
      </trkpt>
      <trkpt lat="45.98509" lon="4.79321">
        <ele>243</ele>
        <time>2017-12-12T11:37:09Z</time>
      </trkpt>
      <trkpt lat="45.98508" lon="4.79313">
        <ele>243</ele>
        <time>2017-12-12T11:37:10Z</time>
      </trkpt>
      <trkpt lat="45.98504" lon="4.79305">
        <ele>243</ele>
        <time>2017-12-12T11:37:11Z</time>
      </trkpt>
      <trkpt lat="45.98502" lon="4.79296">
        <ele>243</ele>
        <time>2017-12-12T11:37:12Z</time>
      </trkpt>
      <trkpt lat="45.98499" lon="4.79288">
        <ele>243</ele>
        <time>2017-12-12T11:37:13Z</time>
      </trkpt>
      <trkpt lat="45.98496" lon="4.79281">
        <ele>243</ele>
        <time>2017-12-12T11:37:14Z</time>
      </trkpt>
      <trkpt lat="45.98492" lon="4.79274">
        <ele>243</ele>
        <time>2017-12-12T11:37:15Z</time>
      </trkpt>
      <trkpt lat="45.98488" lon="4.79268">
        <ele>243</ele>
        <time>2017-12-12T11:37:16Z</time>
      </trkpt>
      <trkpt lat="45.98485" lon="4.79262">
        <ele>243</ele>
        <time>2017-12-12T11:37:17Z</time>
      </trkpt>
      <trkpt lat="45.98482" lon="4.79254">
        <ele>243</ele>
        <time>2017-12-12T11:37:18Z</time>
      </trkpt>
      <trkpt lat="45.98479" lon="4.79248">
        <ele>243</ele>
        <time>2017-12-12T11:37:19Z</time>
      </trkpt>
      <trkpt lat="45.98476" lon="4.79242">
        <ele>243</ele>
        <time>2017-12-12T11:37:20Z</time>
      </trkpt>
      <trkpt lat="45.98473" lon="4.79235">
        <ele>243</ele>
        <time>2017-12-12T11:37:21Z</time>
      </trkpt>
      <trkpt lat="45.98466" lon="4.79227">
        <ele>243</ele>
        <time>2017-12-12T11:37:22Z</time>
      </trkpt>
      <trkpt lat="45.98463" lon="4.79221">
        <ele>243</ele>
        <time>2017-12-12T11:37:23Z</time>
      </trkpt>
      <trkpt lat="45.98458" lon="4.79214">
        <ele>243</ele>
        <time>2017-12-12T11:37:24Z</time>
      </trkpt>
      <trkpt lat="45.98455" lon="4.79208">
        <ele>242</ele>
        <time>2017-12-12T11:37:25Z</time>
      </trkpt>
      <trkpt lat="45.98451" lon="4.792">
        <ele>242</ele>
        <time>2017-12-12T11:37:26Z</time>
      </trkpt>
      <trkpt lat="45.98448" lon="4.79194">
        <ele>242</ele>
        <time>2017-12-12T11:37:27Z</time>
      </trkpt>
      <trkpt lat="45.98445" lon="4.79187">
        <ele>242</ele>
        <time>2017-12-12T11:37:28Z</time>
      </trkpt>
      <trkpt lat="45.98441" lon="4.7918">
        <ele>242</ele>
        <time>2017-12-12T11:37:29Z</time>
      </trkpt>
      <trkpt lat="45.98436" lon="4.79174">
        <ele>242</ele>
        <time>2017-12-12T11:37:30Z</time>
      </trkpt>
      <trkpt lat="45.98433" lon="4.79166">
        <ele>242</ele>
        <time>2017-12-12T11:37:31Z</time>
      </trkpt>
      <trkpt lat="45.9843" lon="4.79159">
        <ele>242</ele>
        <time>2017-12-12T11:37:32Z</time>
      </trkpt>
      <trkpt lat="45.98426" lon="4.79152">
        <ele>242</ele>
        <time>2017-12-12T11:37:33Z</time>
      </trkpt>
      <trkpt lat="45.98422" lon="4.79145">
        <ele>242</ele>
        <time>2017-12-12T11:37:34Z</time>
      </trkpt>
      <trkpt lat="45.98419" lon="4.79138">
        <ele>242</ele>
        <time>2017-12-12T11:37:35Z</time>
      </trkpt>
      <trkpt lat="45.98416" lon="4.79132">
        <ele>242</ele>
        <time>2017-12-12T11:37:36Z</time>
      </trkpt>
      <trkpt lat="45.98412" lon="4.79127">
        <ele>242</ele>
        <time>2017-12-12T11:37:37Z</time>
      </trkpt>
      <trkpt lat="45.9841" lon="4.79121">
        <ele>242</ele>
        <time>2017-12-12T11:37:38Z</time>
      </trkpt>
      <trkpt lat="45.98407" lon="4.79116">
        <ele>242</ele>
        <time>2017-12-12T11:37:39Z</time>
      </trkpt>
      <trkpt lat="45.98404" lon="4.7911">
        <ele>242</ele>
        <time>2017-12-12T11:37:40Z</time>
      </trkpt>
      <trkpt lat="45.98401" lon="4.79104">
        <ele>242</ele>
        <time>2017-12-12T11:37:41Z</time>
      </trkpt>
      <trkpt lat="45.98399" lon="4.79098">
        <ele>242</ele>
        <time>2017-12-12T11:37:42Z</time>
      </trkpt>
      <trkpt lat="45.98395" lon="4.79092">
        <ele>242</ele>
        <time>2017-12-12T11:37:43Z</time>
      </trkpt>
      <trkpt lat="45.98391" lon="4.79086">
        <ele>242</ele>
        <time>2017-12-12T11:37:44Z</time>
      </trkpt>
      <trkpt lat="45.98387" lon="4.79078">
        <ele>242</ele>
        <time>2017-12-12T11:37:45Z</time>
      </trkpt>
      <trkpt lat="45.98383" lon="4.79071">
        <ele>242</ele>
        <time>2017-12-12T11:37:46Z</time>
      </trkpt>
      <trkpt lat="45.98381" lon="4.79065">
        <ele>242</ele>
        <time>2017-12-12T11:37:47Z</time>
      </trkpt>
      <trkpt lat="45.98377" lon="4.7906">
        <ele>242</ele>
        <time>2017-12-12T11:37:48Z</time>
      </trkpt>
      <trkpt lat="45.98373" lon="4.79052">
        <ele>242</ele>
        <time>2017-12-12T11:37:49Z</time>
      </trkpt>
      <trkpt lat="45.98368" lon="4.79045">
        <ele>242</ele>
        <time>2017-12-12T11:37:50Z</time>
      </trkpt>
      <trkpt lat="45.98363" lon="4.79038">
        <ele>242</ele>
        <time>2017-12-12T11:37:51Z</time>
      </trkpt>
      <trkpt lat="45.98358" lon="4.79031">
        <ele>242</ele>
        <time>2017-12-12T11:37:52Z</time>
      </trkpt>
      <trkpt lat="45.98353" lon="4.79024">
        <ele>242</ele>
        <time>2017-12-12T11:37:53Z</time>
      </trkpt>
      <trkpt lat="45.98347" lon="4.79019">
        <ele>242</ele>
        <time>2017-12-12T11:37:54Z</time>
      </trkpt>
      <trkpt lat="45.98341" lon="4.79015">
        <ele>242</ele>
        <time>2017-12-12T11:37:55Z</time>
      </trkpt>
      <trkpt lat="45.98334" lon="4.79011">
        <ele>242</ele>
        <time>2017-12-12T11:37:56Z</time>
      </trkpt>
      <trkpt lat="45.98329" lon="4.79007">
        <ele>242</ele>
        <time>2017-12-12T11:37:57Z</time>
      </trkpt>
      <trkpt lat="45.98324" lon="4.79004">
        <ele>242</ele>
        <time>2017-12-12T11:37:58Z</time>
      </trkpt>
      <trkpt lat="45.98318" lon="4.79001">
        <ele>242</ele>
        <time>2017-12-12T11:37:59Z</time>
      </trkpt>
      <trkpt lat="45.98314" lon="4.78997">
        <ele>242</ele>
        <time>2017-12-12T11:38:00Z</time>
      </trkpt>
      <trkpt lat="45.98309" lon="4.78993">
        <ele>241</ele>
        <time>2017-12-12T11:38:01Z</time>
      </trkpt>
      <trkpt lat="45.98303" lon="4.7899">
        <ele>241</ele>
        <time>2017-12-12T11:38:02Z</time>
      </trkpt>
      <trkpt lat="45.98296" lon="4.78987">
        <ele>241</ele>
        <time>2017-12-12T11:38:03Z</time>
      </trkpt>
      <trkpt lat="45.98291" lon="4.78983">
        <ele>241</ele>
        <time>2017-12-12T11:38:04Z</time>
      </trkpt>
      <trkpt lat="45.98286" lon="4.78979">
        <ele>241</ele>
        <time>2017-12-12T11:38:05Z</time>
      </trkpt>
      <trkpt lat="45.9828" lon="4.78975">
        <ele>241</ele>
        <time>2017-12-12T11:38:06Z</time>
      </trkpt>
      <trkpt lat="45.98274" lon="4.78972">
        <ele>241</ele>
        <time>2017-12-12T11:38:07Z</time>
      </trkpt>
      <trkpt lat="45.98267" lon="4.78968">
        <ele>241</ele>
        <time>2017-12-12T11:38:08Z</time>
      </trkpt>
      <trkpt lat="45.98259" lon="4.78964">
        <ele>241</ele>
        <time>2017-12-12T11:38:09Z</time>
      </trkpt>
      <trkpt lat="45.98251" lon="4.78961">
        <ele>241</ele>
        <time>2017-12-12T11:38:10Z</time>
      </trkpt>
      <trkpt lat="45.98246" lon="4.78958">
        <ele>241</ele>
        <time>2017-12-12T11:38:11Z</time>
      </trkpt>
      <trkpt lat="45.9824" lon="4.78954">
        <ele>241</ele>
        <time>2017-12-12T11:38:12Z</time>
      </trkpt>
      <trkpt lat="45.98234" lon="4.78951">
        <ele>241</ele>
        <time>2017-12-12T11:38:13Z</time>
      </trkpt>
      <trkpt lat="45.98228" lon="4.78948">
        <ele>241</ele>
        <time>2017-12-12T11:38:14Z</time>
      </trkpt>
      <trkpt lat="45.98222" lon="4.78944">
        <ele>241</ele>
        <time>2017-12-12T11:38:15Z</time>
      </trkpt>
      <trkpt lat="45.98216" lon="4.78941">
        <ele>241</ele>
        <time>2017-12-12T11:38:16Z</time>
      </trkpt>
      <trkpt lat="45.9821" lon="4.78938">
        <ele>241</ele>
        <time>2017-12-12T11:38:17Z</time>
      </trkpt>
      <trkpt lat="45.98204" lon="4.78934">
        <ele>241</ele>
        <time>2017-12-12T11:38:18Z</time>
      </trkpt>
      <trkpt lat="45.98199" lon="4.78931">
        <ele>241</ele>
        <time>2017-12-12T11:38:19Z</time>
      </trkpt>
      <trkpt lat="45.98194" lon="4.78927">
        <ele>241</ele>
        <time>2017-12-12T11:38:20Z</time>
      </trkpt>
      <trkpt lat="45.98189" lon="4.78923">
        <ele>241</ele>
        <time>2017-12-12T11:38:21Z</time>
      </trkpt>
      <trkpt lat="45.98183" lon="4.7892">
        <ele>240</ele>
        <time>2017-12-12T11:38:22Z</time>
      </trkpt>
      <trkpt lat="45.98176" lon="4.78919">
        <ele>240</ele>
        <time>2017-12-12T11:38:23Z</time>
      </trkpt>
      <trkpt lat="45.98171" lon="4.78915">
        <ele>240</ele>
        <time>2017-12-12T11:38:24Z</time>
      </trkpt>
      <trkpt lat="45.98163" lon="4.78911">
        <ele>240</ele>
        <time>2017-12-12T11:38:26Z</time>
      </trkpt>
      <trkpt lat="45.98159" lon="4.78911">
        <ele>240</ele>
        <time>2017-12-12T11:38:27Z</time>
      </trkpt>
      <trkpt lat="45.98151" lon="4.78908">
        <ele>240</ele>
        <time>2017-12-12T11:38:28Z</time>
      </trkpt>
      <trkpt lat="45.98145" lon="4.78905">
        <ele>240</ele>
        <time>2017-12-12T11:38:29Z</time>
      </trkpt>
      <trkpt lat="45.98142" lon="4.78902">
        <ele>240</ele>
        <time>2017-12-12T11:38:30Z</time>
      </trkpt>
      <trkpt lat="45.98136" lon="4.78897">
        <ele>240</ele>
        <time>2017-12-12T11:38:31Z</time>
      </trkpt>
      <trkpt lat="45.98131" lon="4.78893">
        <ele>240</ele>
        <time>2017-12-12T11:38:32Z</time>
      </trkpt>
      <trkpt lat="45.98125" lon="4.7889">
        <ele>240</ele>
        <time>2017-12-12T11:38:33Z</time>
      </trkpt>
      <trkpt lat="45.98117" lon="4.78886">
        <ele>240</ele>
        <time>2017-12-12T11:38:34Z</time>
      </trkpt>
      <trkpt lat="45.9811" lon="4.78882">
        <ele>240</ele>
        <time>2017-12-12T11:38:35Z</time>
      </trkpt>
      <trkpt lat="45.98107" lon="4.78878">
        <ele>240</ele>
        <time>2017-12-12T11:38:36Z</time>
      </trkpt>
      <trkpt lat="45.98096" lon="4.78873">
        <ele>239</ele>
        <time>2017-12-12T11:38:37Z</time>
      </trkpt>
      <trkpt lat="45.98089" lon="4.78869">
        <ele>239</ele>
        <time>2017-12-12T11:38:38Z</time>
      </trkpt>
      <trkpt lat="45.98083" lon="4.78865">
        <ele>239</ele>
        <time>2017-12-12T11:38:39Z</time>
      </trkpt>
      <trkpt lat="45.98078" lon="4.78862">
        <ele>239</ele>
        <time>2017-12-12T11:38:40Z</time>
      </trkpt>
      <trkpt lat="45.98072" lon="4.78859">
        <ele>239</ele>
        <time>2017-12-12T11:38:41Z</time>
      </trkpt>
      <trkpt lat="45.98067" lon="4.78855">
        <ele>239</ele>
        <time>2017-12-12T11:38:42Z</time>
      </trkpt>
      <trkpt lat="45.98063" lon="4.7885">
        <ele>239</ele>
        <time>2017-12-12T11:38:43Z</time>
      </trkpt>
      <trkpt lat="45.9806" lon="4.78847">
        <ele>239</ele>
        <time>2017-12-12T11:38:44Z</time>
      </trkpt>
      <trkpt lat="45.98054" lon="4.78842">
        <ele>239</ele>
        <time>2017-12-12T11:38:45Z</time>
      </trkpt>
      <trkpt lat="45.98048" lon="4.78839">
        <ele>238</ele>
        <time>2017-12-12T11:38:46Z</time>
      </trkpt>
      <trkpt lat="45.98044" lon="4.78834">
        <ele>238</ele>
        <time>2017-12-12T11:38:47Z</time>
      </trkpt>
      <trkpt lat="45.98037" lon="4.78831">
        <ele>238</ele>
        <time>2017-12-12T11:38:48Z</time>
      </trkpt>
      <trkpt lat="45.98032" lon="4.78827">
        <ele>238</ele>
        <time>2017-12-12T11:38:49Z</time>
      </trkpt>
      <trkpt lat="45.98028" lon="4.78822">
        <ele>238</ele>
        <time>2017-12-12T11:38:50Z</time>
      </trkpt>
      <trkpt lat="45.98022" lon="4.78817">
        <ele>238</ele>
        <time>2017-12-12T11:38:51Z</time>
      </trkpt>
      <trkpt lat="45.98016" lon="4.78813">
        <ele>238</ele>
        <time>2017-12-12T11:38:52Z</time>
      </trkpt>
      <trkpt lat="45.98012" lon="4.7881">
        <ele>238</ele>
        <time>2017-12-12T11:38:53Z</time>
      </trkpt>
      <trkpt lat="45.98005" lon="4.78806">
        <ele>238</ele>
        <time>2017-12-12T11:38:54Z</time>
      </trkpt>
      <trkpt lat="45.98001" lon="4.78802">
        <ele>238</ele>
        <time>2017-12-12T11:38:55Z</time>
      </trkpt>
      <trkpt lat="45.97996" lon="4.78797">
        <ele>238</ele>
        <time>2017-12-12T11:38:56Z</time>
      </trkpt>
      <trkpt lat="45.97992" lon="4.78794">
        <ele>238</ele>
        <time>2017-12-12T11:38:57Z</time>
      </trkpt>
      <trkpt lat="45.97988" lon="4.78788">
        <ele>238</ele>
        <time>2017-12-12T11:38:58Z</time>
      </trkpt>
      <trkpt lat="45.97984" lon="4.78785">
        <ele>238</ele>
        <time>2017-12-12T11:38:59Z</time>
      </trkpt>
      <trkpt lat="45.97978" lon="4.78781">
        <ele>238</ele>
        <time>2017-12-12T11:39:00Z</time>
      </trkpt>
      <trkpt lat="45.97973" lon="4.78778">
        <ele>238</ele>
        <time>2017-12-12T11:39:01Z</time>
      </trkpt>
      <trkpt lat="45.97967" lon="4.78774">
        <ele>238</ele>
        <time>2017-12-12T11:39:02Z</time>
      </trkpt>
      <trkpt lat="45.97961" lon="4.7877">
        <ele>238</ele>
        <time>2017-12-12T11:39:03Z</time>
      </trkpt>
      <trkpt lat="45.97957" lon="4.78766">
        <ele>238</ele>
        <time>2017-12-12T11:39:04Z</time>
      </trkpt>
      <trkpt lat="45.97952" lon="4.78763">
        <ele>238</ele>
        <time>2017-12-12T11:39:05Z</time>
      </trkpt>
      <trkpt lat="45.97945" lon="4.78757">
        <ele>238</ele>
        <time>2017-12-12T11:39:06Z</time>
      </trkpt>
      <trkpt lat="45.97939" lon="4.78751">
        <ele>238</ele>
        <time>2017-12-12T11:39:07Z</time>
      </trkpt>
      <trkpt lat="45.97932" lon="4.78746">
        <ele>237</ele>
        <time>2017-12-12T11:39:08Z</time>
      </trkpt>
      <trkpt lat="45.97926" lon="4.78743">
        <ele>237</ele>
        <time>2017-12-12T11:39:09Z</time>
      </trkpt>
      <trkpt lat="45.9792" lon="4.7874">
        <ele>237</ele>
        <time>2017-12-12T11:39:10Z</time>
      </trkpt>
      <trkpt lat="45.97915" lon="4.78736">
        <ele>237</ele>
        <time>2017-12-12T11:39:11Z</time>
      </trkpt>
      <trkpt lat="45.9791" lon="4.78732">
        <ele>237</ele>
        <time>2017-12-12T11:39:12Z</time>
      </trkpt>
      <trkpt lat="45.97904" lon="4.78728">
        <ele>237</ele>
        <time>2017-12-12T11:39:13Z</time>
      </trkpt>
      <trkpt lat="45.97897" lon="4.78723">
        <ele>236</ele>
        <time>2017-12-12T11:39:14Z</time>
      </trkpt>
      <trkpt lat="45.97892" lon="4.7872">
        <ele>236</ele>
        <time>2017-12-12T11:39:15Z</time>
      </trkpt>
      <trkpt lat="45.97888" lon="4.78716">
        <ele>236</ele>
        <time>2017-12-12T11:39:16Z</time>
      </trkpt>
      <trkpt lat="45.97881" lon="4.78711">
        <ele>236</ele>
        <time>2017-12-12T11:39:17Z</time>
      </trkpt>
      <trkpt lat="45.97875" lon="4.78707">
        <ele>236</ele>
        <time>2017-12-12T11:39:18Z</time>
      </trkpt>
      <trkpt lat="45.97869" lon="4.78703">
        <ele>236</ele>
        <time>2017-12-12T11:39:19Z</time>
      </trkpt>
      <trkpt lat="45.97864" lon="4.787">
        <ele>236</ele>
        <time>2017-12-12T11:39:20Z</time>
      </trkpt>
      <trkpt lat="45.97858" lon="4.78696">
        <ele>236</ele>
        <time>2017-12-12T11:39:21Z</time>
      </trkpt>
      <trkpt lat="45.97852" lon="4.78692">
        <ele>236</ele>
        <time>2017-12-12T11:39:22Z</time>
      </trkpt>
      <trkpt lat="45.97846" lon="4.78689">
        <ele>236</ele>
        <time>2017-12-12T11:39:23Z</time>
      </trkpt>
      <trkpt lat="45.97839" lon="4.78685">
        <ele>236</ele>
        <time>2017-12-12T11:39:24Z</time>
      </trkpt>
      <trkpt lat="45.97833" lon="4.78682">
        <ele>235</ele>
        <time>2017-12-12T11:39:25Z</time>
      </trkpt>
      <trkpt lat="45.97827" lon="4.78679">
        <ele>235</ele>
        <time>2017-12-12T11:39:26Z</time>
      </trkpt>
      <trkpt lat="45.97822" lon="4.78679">
        <ele>235</ele>
        <time>2017-12-12T11:39:27Z</time>
      </trkpt>
      <trkpt lat="45.97817" lon="4.78676">
        <ele>235</ele>
        <time>2017-12-12T11:39:28Z</time>
      </trkpt>
      <trkpt lat="45.97812" lon="4.78674">
        <ele>235</ele>
        <time>2017-12-12T11:39:29Z</time>
      </trkpt>
      <trkpt lat="45.97807" lon="4.78672">
        <ele>235</ele>
        <time>2017-12-12T11:39:30Z</time>
      </trkpt>
      <trkpt lat="45.97802" lon="4.78671">
        <ele>235</ele>
        <time>2017-12-12T11:39:31Z</time>
      </trkpt>
      <trkpt lat="45.97797" lon="4.78668">
        <ele>235</ele>
        <time>2017-12-12T11:39:32Z</time>
      </trkpt>
      <trkpt lat="45.97791" lon="4.78664">
        <ele>235</ele>
        <time>2017-12-12T11:39:33Z</time>
      </trkpt>
      <trkpt lat="45.97785" lon="4.78662">
        <ele>235</ele>
        <time>2017-12-12T11:39:34Z</time>
      </trkpt>
      <trkpt lat="45.97779" lon="4.78658">
        <ele>235</ele>
        <time>2017-12-12T11:39:35Z</time>
      </trkpt>
      <trkpt lat="45.97773" lon="4.78656">
        <ele>235</ele>
        <time>2017-12-12T11:39:36Z</time>
      </trkpt>
      <trkpt lat="45.97768" lon="4.78654">
        <ele>235</ele>
        <time>2017-12-12T11:39:37Z</time>
      </trkpt>
      <trkpt lat="45.97762" lon="4.78652">
        <ele>235</ele>
        <time>2017-12-12T11:39:38Z</time>
      </trkpt>
      <trkpt lat="45.97756" lon="4.7865">
        <ele>235</ele>
        <time>2017-12-12T11:39:39Z</time>
      </trkpt>
      <trkpt lat="45.9775" lon="4.78647">
        <ele>234</ele>
        <time>2017-12-12T11:39:40Z</time>
      </trkpt>
      <trkpt lat="45.97745" lon="4.78645">
        <ele>234</ele>
        <time>2017-12-12T11:39:41Z</time>
      </trkpt>
      <trkpt lat="45.97739" lon="4.78643">
        <ele>234</ele>
        <time>2017-12-12T11:39:42Z</time>
      </trkpt>
      <trkpt lat="45.97734" lon="4.7864">
        <ele>234</ele>
        <time>2017-12-12T11:39:43Z</time>
      </trkpt>
      <trkpt lat="45.97726" lon="4.78638">
        <ele>234</ele>
        <time>2017-12-12T11:39:44Z</time>
      </trkpt>
      <trkpt lat="45.97721" lon="4.78635">
        <ele>234</ele>
        <time>2017-12-12T11:39:45Z</time>
      </trkpt>
      <trkpt lat="45.97716" lon="4.78632">
        <ele>234</ele>
        <time>2017-12-12T11:39:46Z</time>
      </trkpt>
      <trkpt lat="45.9771" lon="4.7863">
        <ele>234</ele>
        <time>2017-12-12T11:39:47Z</time>
      </trkpt>
      <trkpt lat="45.97705" lon="4.78628">
        <ele>234</ele>
        <time>2017-12-12T11:39:48Z</time>
      </trkpt>
      <trkpt lat="45.97698" lon="4.78626">
        <ele>234</ele>
        <time>2017-12-12T11:39:49Z</time>
      </trkpt>
      <trkpt lat="45.97692" lon="4.78623">
        <ele>234</ele>
        <time>2017-12-12T11:39:50Z</time>
      </trkpt>
      <trkpt lat="45.97686" lon="4.7862">
        <ele>234</ele>
        <time>2017-12-12T11:39:51Z</time>
      </trkpt>
      <trkpt lat="45.9768" lon="4.78618">
        <ele>234</ele>
        <time>2017-12-12T11:39:52Z</time>
      </trkpt>
      <trkpt lat="45.97675" lon="4.78615">
        <ele>234</ele>
        <time>2017-12-12T11:39:53Z</time>
      </trkpt>
      <trkpt lat="45.9767" lon="4.78613">
        <ele>234</ele>
        <time>2017-12-12T11:39:54Z</time>
      </trkpt>
      <trkpt lat="45.97664" lon="4.7861">
        <ele>233</ele>
        <time>2017-12-12T11:39:55Z</time>
      </trkpt>
      <trkpt lat="45.97659" lon="4.78607">
        <ele>233</ele>
        <time>2017-12-12T11:39:56Z</time>
      </trkpt>
      <trkpt lat="45.97654" lon="4.78605">
        <ele>233</ele>
        <time>2017-12-12T11:39:57Z</time>
      </trkpt>
      <trkpt lat="45.97649" lon="4.78602">
        <ele>233</ele>
        <time>2017-12-12T11:39:58Z</time>
      </trkpt>
      <trkpt lat="45.97644" lon="4.78602">
        <ele>233</ele>
        <time>2017-12-12T11:39:59Z</time>
      </trkpt>
      <trkpt lat="45.97638" lon="4.786">
        <ele>233</ele>
        <time>2017-12-12T11:40:00Z</time>
      </trkpt>
      <trkpt lat="45.97632" lon="4.78599">
        <ele>233</ele>
        <time>2017-12-12T11:40:01Z</time>
      </trkpt>
      <trkpt lat="45.97626" lon="4.78596">
        <ele>233</ele>
        <time>2017-12-12T11:40:02Z</time>
      </trkpt>
      <trkpt lat="45.9762" lon="4.78594">
        <ele>233</ele>
        <time>2017-12-12T11:40:03Z</time>
      </trkpt>
      <trkpt lat="45.97614" lon="4.78592">
        <ele>233</ele>
        <time>2017-12-12T11:40:04Z</time>
      </trkpt>
      <trkpt lat="45.97609" lon="4.7859">
        <ele>233</ele>
        <time>2017-12-12T11:40:05Z</time>
      </trkpt>
      <trkpt lat="45.97603" lon="4.78587">
        <ele>233</ele>
        <time>2017-12-12T11:40:06Z</time>
      </trkpt>
      <trkpt lat="45.97596" lon="4.78585">
        <ele>233</ele>
        <time>2017-12-12T11:40:07Z</time>
      </trkpt>
      <trkpt lat="45.97591" lon="4.78582">
        <ele>233</ele>
        <time>2017-12-12T11:40:08Z</time>
      </trkpt>
      <trkpt lat="45.97585" lon="4.7858">
        <ele>233</ele>
        <time>2017-12-12T11:40:09Z</time>
      </trkpt>
      <trkpt lat="45.97579" lon="4.78578">
        <ele>233</ele>
        <time>2017-12-12T11:40:10Z</time>
      </trkpt>
      <trkpt lat="45.97572" lon="4.78576">
        <ele>233</ele>
        <time>2017-12-12T11:40:11Z</time>
      </trkpt>
      <trkpt lat="45.97566" lon="4.78574">
        <ele>233</ele>
        <time>2017-12-12T11:40:12Z</time>
      </trkpt>
      <trkpt lat="45.97561" lon="4.78573">
        <ele>233</ele>
        <time>2017-12-12T11:40:13Z</time>
      </trkpt>
      <trkpt lat="45.97555" lon="4.7857">
        <ele>234</ele>
        <time>2017-12-12T11:40:14Z</time>
      </trkpt>
      <trkpt lat="45.97549" lon="4.78567">
        <ele>234</ele>
        <time>2017-12-12T11:40:15Z</time>
      </trkpt>
      <trkpt lat="45.97543" lon="4.78565">
        <ele>234</ele>
        <time>2017-12-12T11:40:16Z</time>
      </trkpt>
      <trkpt lat="45.97537" lon="4.78561">
        <ele>234</ele>
        <time>2017-12-12T11:40:17Z</time>
      </trkpt>
      <trkpt lat="45.97533" lon="4.78559">
        <ele>234</ele>
        <time>2017-12-12T11:40:18Z</time>
      </trkpt>
      <trkpt lat="45.97527" lon="4.78556">
        <ele>234</ele>
        <time>2017-12-12T11:40:19Z</time>
      </trkpt>
      <trkpt lat="45.97522" lon="4.78553">
        <ele>234</ele>
        <time>2017-12-12T11:40:20Z</time>
      </trkpt>
      <trkpt lat="45.97517" lon="4.7855">
        <ele>234</ele>
        <time>2017-12-12T11:40:21Z</time>
      </trkpt>
      <trkpt lat="45.97512" lon="4.78546">
        <ele>234</ele>
        <time>2017-12-12T11:40:22Z</time>
      </trkpt>
      <trkpt lat="45.97506" lon="4.78542">
        <ele>234</ele>
        <time>2017-12-12T11:40:23Z</time>
      </trkpt>
      <trkpt lat="45.97501" lon="4.78538">
        <ele>234</ele>
        <time>2017-12-12T11:40:24Z</time>
      </trkpt>
      <trkpt lat="45.97497" lon="4.78535">
        <ele>233</ele>
        <time>2017-12-12T11:40:25Z</time>
      </trkpt>
      <trkpt lat="45.97492" lon="4.7853">
        <ele>233</ele>
        <time>2017-12-12T11:40:26Z</time>
      </trkpt>
      <trkpt lat="45.97487" lon="4.78526">
        <ele>233</ele>
        <time>2017-12-12T11:40:27Z</time>
      </trkpt>
      <trkpt lat="45.97481" lon="4.78522">
        <ele>234</ele>
        <time>2017-12-12T11:40:28Z</time>
      </trkpt>
      <trkpt lat="45.97476" lon="4.78517">
        <ele>234</ele>
        <time>2017-12-12T11:40:29Z</time>
      </trkpt>
      <trkpt lat="45.9747" lon="4.78513">
        <ele>234</ele>
        <time>2017-12-12T11:40:30Z</time>
      </trkpt>
      <trkpt lat="45.97466" lon="4.78509">
        <ele>234</ele>
        <time>2017-12-12T11:40:31Z</time>
      </trkpt>
      <trkpt lat="45.97461" lon="4.78505">
        <ele>234</ele>
        <time>2017-12-12T11:40:32Z</time>
      </trkpt>
      <trkpt lat="45.97456" lon="4.785">
        <ele>234</ele>
        <time>2017-12-12T11:40:33Z</time>
      </trkpt>
      <trkpt lat="45.97451" lon="4.78495">
        <ele>234</ele>
        <time>2017-12-12T11:40:34Z</time>
      </trkpt>
      <trkpt lat="45.97446" lon="4.78491">
        <ele>234</ele>
        <time>2017-12-12T11:40:35Z</time>
      </trkpt>
      <trkpt lat="45.9744" lon="4.78486">
        <ele>234</ele>
        <time>2017-12-12T11:40:36Z</time>
      </trkpt>
      <trkpt lat="45.97436" lon="4.78482">
        <ele>234</ele>
        <time>2017-12-12T11:40:37Z</time>
      </trkpt>
      <trkpt lat="45.97432" lon="4.78477">
        <ele>234</ele>
        <time>2017-12-12T11:40:38Z</time>
      </trkpt>
      <trkpt lat="45.97427" lon="4.78472">
        <ele>234</ele>
        <time>2017-12-12T11:40:39Z</time>
      </trkpt>
      <trkpt lat="45.97422" lon="4.78468">
        <ele>234</ele>
        <time>2017-12-12T11:40:40Z</time>
      </trkpt>
      <trkpt lat="45.97418" lon="4.78464">
        <ele>234</ele>
        <time>2017-12-12T11:40:41Z</time>
      </trkpt>
      <trkpt lat="45.97413" lon="4.7846">
        <ele>233</ele>
        <time>2017-12-12T11:40:42Z</time>
      </trkpt>
      <trkpt lat="45.97409" lon="4.78456">
        <ele>233</ele>
        <time>2017-12-12T11:40:43Z</time>
      </trkpt>
      <trkpt lat="45.97404" lon="4.78451">
        <ele>233</ele>
        <time>2017-12-12T11:40:44Z</time>
      </trkpt>
      <trkpt lat="45.97399" lon="4.78447">
        <ele>233</ele>
        <time>2017-12-12T11:40:45Z</time>
      </trkpt>
      <trkpt lat="45.97395" lon="4.7844">
        <ele>233</ele>
        <time>2017-12-12T11:40:46Z</time>
      </trkpt>
      <trkpt lat="45.97391" lon="4.78436">
        <ele>233</ele>
        <time>2017-12-12T11:40:47Z</time>
      </trkpt>
      <trkpt lat="45.97386" lon="4.78431">
        <ele>233</ele>
        <time>2017-12-12T11:40:48Z</time>
      </trkpt>
      <trkpt lat="45.97382" lon="4.78426">
        <ele>233</ele>
        <time>2017-12-12T11:40:49Z</time>
      </trkpt>
      <trkpt lat="45.97377" lon="4.78421">
        <ele>233</ele>
        <time>2017-12-12T11:40:50Z</time>
      </trkpt>
      <trkpt lat="45.97372" lon="4.78418">
        <ele>233</ele>
        <time>2017-12-12T11:40:51Z</time>
      </trkpt>
      <trkpt lat="45.97366" lon="4.78413">
        <ele>233</ele>
        <time>2017-12-12T11:40:52Z</time>
      </trkpt>
      <trkpt lat="45.97361" lon="4.78408">
        <ele>233</ele>
        <time>2017-12-12T11:40:53Z</time>
      </trkpt>
      <trkpt lat="45.97355" lon="4.78403">
        <ele>233</ele>
        <time>2017-12-12T11:40:54Z</time>
      </trkpt>
      <trkpt lat="45.9735" lon="4.78397">
        <ele>233</ele>
        <time>2017-12-12T11:40:55Z</time>
      </trkpt>
      <trkpt lat="45.97344" lon="4.78391">
        <ele>233</ele>
        <time>2017-12-12T11:40:56Z</time>
      </trkpt>
      <trkpt lat="45.97339" lon="4.78385">
        <ele>233</ele>
        <time>2017-12-12T11:40:57Z</time>
      </trkpt>
      <trkpt lat="45.97334" lon="4.78379">
        <ele>233</ele>
        <time>2017-12-12T11:40:58Z</time>
      </trkpt>
      <trkpt lat="45.97329" lon="4.78375">
        <ele>232</ele>
        <time>2017-12-12T11:40:59Z</time>
      </trkpt>
      <trkpt lat="45.97325" lon="4.78369">
        <ele>232</ele>
        <time>2017-12-12T11:41:00Z</time>
      </trkpt>
      <trkpt lat="45.9732" lon="4.78363">
        <ele>232</ele>
        <time>2017-12-12T11:41:01Z</time>
      </trkpt>
      <trkpt lat="45.97315" lon="4.78358">
        <ele>232</ele>
        <time>2017-12-12T11:41:02Z</time>
      </trkpt>
      <trkpt lat="45.9731" lon="4.78351">
        <ele>232</ele>
        <time>2017-12-12T11:41:03Z</time>
      </trkpt>
      <trkpt lat="45.97306" lon="4.78346">
        <ele>232</ele>
        <time>2017-12-12T11:41:04Z</time>
      </trkpt>
      <trkpt lat="45.97302" lon="4.7834">
        <ele>232</ele>
        <time>2017-12-12T11:41:05Z</time>
      </trkpt>
      <trkpt lat="45.97298" lon="4.78335">
        <ele>232</ele>
        <time>2017-12-12T11:41:06Z</time>
      </trkpt>
      <trkpt lat="45.97293" lon="4.78328">
        <ele>232</ele>
        <time>2017-12-12T11:41:07Z</time>
      </trkpt>
      <trkpt lat="45.97289" lon="4.78323">
        <ele>232</ele>
        <time>2017-12-12T11:41:08Z</time>
      </trkpt>
      <trkpt lat="45.97284" lon="4.78316">
        <ele>232</ele>
        <time>2017-12-12T11:41:09Z</time>
      </trkpt>
      <trkpt lat="45.9728" lon="4.78309">
        <ele>232</ele>
        <time>2017-12-12T11:41:10Z</time>
      </trkpt>
      <trkpt lat="45.97276" lon="4.78302">
        <ele>232</ele>
        <time>2017-12-12T11:41:11Z</time>
      </trkpt>
      <trkpt lat="45.97271" lon="4.78296">
        <ele>232</ele>
        <time>2017-12-12T11:41:12Z</time>
      </trkpt>
      <trkpt lat="45.97267" lon="4.7829">
        <ele>232</ele>
        <time>2017-12-12T11:41:13Z</time>
      </trkpt>
      <trkpt lat="45.97262" lon="4.78281">
        <ele>232</ele>
        <time>2017-12-12T11:41:14Z</time>
      </trkpt>
      <trkpt lat="45.97258" lon="4.78275">
        <ele>232</ele>
        <time>2017-12-12T11:41:15Z</time>
      </trkpt>
      <trkpt lat="45.97253" lon="4.78269">
        <ele>231</ele>
        <time>2017-12-12T11:41:16Z</time>
      </trkpt>
      <trkpt lat="45.9725" lon="4.78263">
        <ele>231</ele>
        <time>2017-12-12T11:41:17Z</time>
      </trkpt>
      <trkpt lat="45.97246" lon="4.78257">
        <ele>231</ele>
        <time>2017-12-12T11:41:18Z</time>
      </trkpt>
      <trkpt lat="45.97242" lon="4.78251">
        <ele>231</ele>
        <time>2017-12-12T11:41:19Z</time>
      </trkpt>
      <trkpt lat="45.97238" lon="4.78246">
        <ele>231</ele>
        <time>2017-12-12T11:41:20Z</time>
      </trkpt>
      <trkpt lat="45.97234" lon="4.7824">
        <ele>231</ele>
        <time>2017-12-12T11:41:21Z</time>
      </trkpt>
      <trkpt lat="45.97231" lon="4.78234">
        <ele>231</ele>
        <time>2017-12-12T11:41:22Z</time>
      </trkpt>
      <trkpt lat="45.97227" lon="4.78228">
        <ele>231</ele>
        <time>2017-12-12T11:41:23Z</time>
      </trkpt>
      <trkpt lat="45.97223" lon="4.78222">
        <ele>231</ele>
        <time>2017-12-12T11:41:24Z</time>
      </trkpt>
      <trkpt lat="45.97221" lon="4.78215">
        <ele>231</ele>
        <time>2017-12-12T11:41:25Z</time>
      </trkpt>
      <trkpt lat="45.97217" lon="4.78208">
        <ele>231</ele>
        <time>2017-12-12T11:41:26Z</time>
      </trkpt>
      <trkpt lat="45.97214" lon="4.78202">
        <ele>231</ele>
        <time>2017-12-12T11:41:27Z</time>
      </trkpt>
      <trkpt lat="45.97209" lon="4.78194">
        <ele>231</ele>
        <time>2017-12-12T11:41:28Z</time>
      </trkpt>
      <trkpt lat="45.97206" lon="4.78188">
        <ele>231</ele>
        <time>2017-12-12T11:41:29Z</time>
      </trkpt>
      <trkpt lat="45.97201" lon="4.7818">
        <ele>231</ele>
        <time>2017-12-12T11:41:30Z</time>
      </trkpt>
      <trkpt lat="45.97197" lon="4.78171">
        <ele>231</ele>
        <time>2017-12-12T11:41:31Z</time>
      </trkpt>
      <trkpt lat="45.97193" lon="4.78164">
        <ele>231</ele>
        <time>2017-12-12T11:41:32Z</time>
      </trkpt>
      <trkpt lat="45.9719" lon="4.78157">
        <ele>231</ele>
        <time>2017-12-12T11:41:33Z</time>
      </trkpt>
      <trkpt lat="45.97188" lon="4.7815">
        <ele>231</ele>
        <time>2017-12-12T11:41:34Z</time>
      </trkpt>
      <trkpt lat="45.97184" lon="4.78143">
        <ele>231</ele>
        <time>2017-12-12T11:41:35Z</time>
      </trkpt>
      <trkpt lat="45.9718" lon="4.78135">
        <ele>231</ele>
        <time>2017-12-12T11:41:36Z</time>
      </trkpt>
      <trkpt lat="45.97176" lon="4.78129">
        <ele>231</ele>
        <time>2017-12-12T11:41:37Z</time>
      </trkpt>
      <trkpt lat="45.97173" lon="4.78123">
        <ele>231</ele>
        <time>2017-12-12T11:41:38Z</time>
      </trkpt>
      <trkpt lat="45.9717" lon="4.78117">
        <ele>231</ele>
        <time>2017-12-12T11:41:39Z</time>
      </trkpt>
      <trkpt lat="45.97166" lon="4.78111">
        <ele>230</ele>
        <time>2017-12-12T11:41:40Z</time>
      </trkpt>
      <trkpt lat="45.97164" lon="4.78106">
        <ele>230</ele>
        <time>2017-12-12T11:41:41Z</time>
      </trkpt>
      <trkpt lat="45.97162" lon="4.78097">
        <ele>230</ele>
        <time>2017-12-12T11:41:43Z</time>
      </trkpt>
      <trkpt lat="45.97159" lon="4.78091">
        <ele>230</ele>
        <time>2017-12-12T11:41:44Z</time>
      </trkpt>
      <trkpt lat="45.97156" lon="4.78085">
        <ele>230</ele>
        <time>2017-12-12T11:41:45Z</time>
      </trkpt>
      <trkpt lat="45.97152" lon="4.7808">
        <ele>230</ele>
        <time>2017-12-12T11:41:46Z</time>
      </trkpt>
      <trkpt lat="45.97149" lon="4.78075">
        <ele>230</ele>
        <time>2017-12-12T11:41:47Z</time>
      </trkpt>
      <trkpt lat="45.97144" lon="4.78069">
        <ele>230</ele>
        <time>2017-12-12T11:41:48Z</time>
      </trkpt>
      <trkpt lat="45.97139" lon="4.78063">
        <ele>230</ele>
        <time>2017-12-12T11:41:49Z</time>
      </trkpt>
      <trkpt lat="45.97134" lon="4.78058">
        <ele>230</ele>
        <time>2017-12-12T11:41:50Z</time>
      </trkpt>
      <trkpt lat="45.9713" lon="4.78052">
        <ele>230</ele>
        <time>2017-12-12T11:41:51Z</time>
      </trkpt>
      <trkpt lat="45.97124" lon="4.78046">
        <ele>229</ele>
        <time>2017-12-12T11:41:52Z</time>
      </trkpt>
      <trkpt lat="45.97119" lon="4.7804">
        <ele>229</ele>
        <time>2017-12-12T11:41:53Z</time>
      </trkpt>
      <trkpt lat="45.97114" lon="4.78035">
        <ele>229</ele>
        <time>2017-12-12T11:41:54Z</time>
      </trkpt>
      <trkpt lat="45.97109" lon="4.7803">
        <ele>229</ele>
        <time>2017-12-12T11:41:55Z</time>
      </trkpt>
      <trkpt lat="45.97103" lon="4.78026">
        <ele>229</ele>
        <time>2017-12-12T11:41:56Z</time>
      </trkpt>
      <trkpt lat="45.97098" lon="4.78021">
        <ele>229</ele>
        <time>2017-12-12T11:41:57Z</time>
      </trkpt>
      <trkpt lat="45.97093" lon="4.78018">
        <ele>229</ele>
        <time>2017-12-12T11:41:58Z</time>
      </trkpt>
      <trkpt lat="45.97089" lon="4.78014">
        <ele>229</ele>
        <time>2017-12-12T11:41:59Z</time>
      </trkpt>
      <trkpt lat="45.97085" lon="4.78009">
        <ele>229</ele>
        <time>2017-12-12T11:42:00Z</time>
      </trkpt>
      <trkpt lat="45.97081" lon="4.78004">
        <ele>229</ele>
        <time>2017-12-12T11:42:01Z</time>
      </trkpt>
      <trkpt lat="45.97077" lon="4.77999">
        <ele>229</ele>
        <time>2017-12-12T11:42:02Z</time>
      </trkpt>
      <trkpt lat="45.97074" lon="4.77995">
        <ele>229</ele>
        <time>2017-12-12T11:42:03Z</time>
      </trkpt>
      <trkpt lat="45.97069" lon="4.7799">
        <ele>229</ele>
        <time>2017-12-12T11:42:04Z</time>
      </trkpt>
      <trkpt lat="45.97064" lon="4.77986">
        <ele>229</ele>
        <time>2017-12-12T11:42:05Z</time>
      </trkpt>
      <trkpt lat="45.9706" lon="4.7798">
        <ele>229</ele>
        <time>2017-12-12T11:42:06Z</time>
      </trkpt>
      <trkpt lat="45.97055" lon="4.77974">
        <ele>229</ele>
        <time>2017-12-12T11:42:07Z</time>
      </trkpt>
      <trkpt lat="45.97049" lon="4.77969">
        <ele>229</ele>
        <time>2017-12-12T11:42:08Z</time>
      </trkpt>
      <trkpt lat="45.97044" lon="4.77963">
        <ele>229</ele>
        <time>2017-12-12T11:42:09Z</time>
      </trkpt>
      <trkpt lat="45.9704" lon="4.77957">
        <ele>228</ele>
        <time>2017-12-12T11:42:10Z</time>
      </trkpt>
      <trkpt lat="45.97036" lon="4.77951">
        <ele>228</ele>
        <time>2017-12-12T11:42:11Z</time>
      </trkpt>
      <trkpt lat="45.9703" lon="4.77945">
        <ele>228</ele>
        <time>2017-12-12T11:42:12Z</time>
      </trkpt>
      <trkpt lat="45.97024" lon="4.77939">
        <ele>228</ele>
        <time>2017-12-12T11:42:13Z</time>
      </trkpt>
      <trkpt lat="45.97019" lon="4.77933">
        <ele>228</ele>
        <time>2017-12-12T11:42:14Z</time>
      </trkpt>
      <trkpt lat="45.97014" lon="4.77927">
        <ele>228</ele>
        <time>2017-12-12T11:42:15Z</time>
      </trkpt>
      <trkpt lat="45.97009" lon="4.7792">
        <ele>227</ele>
        <time>2017-12-12T11:42:16Z</time>
      </trkpt>
      <trkpt lat="45.97003" lon="4.77912">
        <ele>227</ele>
        <time>2017-12-12T11:42:17Z</time>
      </trkpt>
      <trkpt lat="45.96997" lon="4.77906">
        <ele>227</ele>
        <time>2017-12-12T11:42:18Z</time>
      </trkpt>
      <trkpt lat="45.96993" lon="4.77901">
        <ele>227</ele>
        <time>2017-12-12T11:42:19Z</time>
      </trkpt>
      <trkpt lat="45.96988" lon="4.77895">
        <ele>228</ele>
        <time>2017-12-12T11:42:20Z</time>
      </trkpt>
      <trkpt lat="45.96983" lon="4.7789">
        <ele>228</ele>
        <time>2017-12-12T11:42:21Z</time>
      </trkpt>
      <trkpt lat="45.96978" lon="4.77885">
        <ele>228</ele>
        <time>2017-12-12T11:42:22Z</time>
      </trkpt>
      <trkpt lat="45.96974" lon="4.7788">
        <ele>228</ele>
        <time>2017-12-12T11:42:23Z</time>
      </trkpt>
      <trkpt lat="45.9697" lon="4.77873">
        <ele>228</ele>
        <time>2017-12-12T11:42:24Z</time>
      </trkpt>
      <trkpt lat="45.96966" lon="4.77869">
        <ele>228</ele>
        <time>2017-12-12T11:42:25Z</time>
      </trkpt>
      <trkpt lat="45.96962" lon="4.77864">
        <ele>228</ele>
        <time>2017-12-12T11:42:26Z</time>
      </trkpt>
      <trkpt lat="45.96958" lon="4.7786">
        <ele>228</ele>
        <time>2017-12-12T11:42:27Z</time>
      </trkpt>
      <trkpt lat="45.96954" lon="4.77855">
        <ele>228</ele>
        <time>2017-12-12T11:42:28Z</time>
      </trkpt>
      <trkpt lat="45.96948" lon="4.7785">
        <ele>228</ele>
        <time>2017-12-12T11:42:29Z</time>
      </trkpt>
      <trkpt lat="45.96944" lon="4.77845">
        <ele>228</ele>
        <time>2017-12-12T11:42:30Z</time>
      </trkpt>
      <trkpt lat="45.96939" lon="4.7784">
        <ele>228</ele>
        <time>2017-12-12T11:42:31Z</time>
      </trkpt>
      <trkpt lat="45.96935" lon="4.77836">
        <ele>228</ele>
        <time>2017-12-12T11:42:32Z</time>
      </trkpt>
      <trkpt lat="45.96929" lon="4.7783">
        <ele>228</ele>
        <time>2017-12-12T11:42:33Z</time>
      </trkpt>
      <trkpt lat="45.96924" lon="4.77825">
        <ele>228</ele>
        <time>2017-12-12T11:42:34Z</time>
      </trkpt>
      <trkpt lat="45.96921" lon="4.77821">
        <ele>228</ele>
        <time>2017-12-12T11:42:35Z</time>
      </trkpt>
      <trkpt lat="45.96916" lon="4.77816">
        <ele>228</ele>
        <time>2017-12-12T11:42:36Z</time>
      </trkpt>
      <trkpt lat="45.9691" lon="4.77811">
        <ele>228</ele>
        <time>2017-12-12T11:42:37Z</time>
      </trkpt>
      <trkpt lat="45.96905" lon="4.77806">
        <ele>228</ele>
        <time>2017-12-12T11:42:38Z</time>
      </trkpt>
      <trkpt lat="45.96901" lon="4.77801">
        <ele>228</ele>
        <time>2017-12-12T11:42:39Z</time>
      </trkpt>
      <trkpt lat="45.96894" lon="4.77795">
        <ele>228</ele>
        <time>2017-12-12T11:42:40Z</time>
      </trkpt>
      <trkpt lat="45.96889" lon="4.77789">
        <ele>228</ele>
        <time>2017-12-12T11:42:41Z</time>
      </trkpt>
      <trkpt lat="45.96884" lon="4.77784">
        <ele>228</ele>
        <time>2017-12-12T11:42:42Z</time>
      </trkpt>
      <trkpt lat="45.96878" lon="4.77778">
        <ele>228</ele>
        <time>2017-12-12T11:42:43Z</time>
      </trkpt>
      <trkpt lat="45.96873" lon="4.77773">
        <ele>228</ele>
        <time>2017-12-12T11:42:44Z</time>
      </trkpt>
      <trkpt lat="45.96869" lon="4.77768">
        <ele>228</ele>
        <time>2017-12-12T11:42:45Z</time>
      </trkpt>
      <trkpt lat="45.96864" lon="4.77763">
        <ele>228</ele>
        <time>2017-12-12T11:42:46Z</time>
      </trkpt>
      <trkpt lat="45.96861" lon="4.77757">
        <ele>228</ele>
        <time>2017-12-12T11:42:47Z</time>
      </trkpt>
      <trkpt lat="45.96856" lon="4.77752">
        <ele>228</ele>
        <time>2017-12-12T11:42:48Z</time>
      </trkpt>
      <trkpt lat="45.96852" lon="4.77749">
        <ele>228</ele>
        <time>2017-12-12T11:42:49Z</time>
      </trkpt>
      <trkpt lat="45.96849" lon="4.77745">
        <ele>228</ele>
        <time>2017-12-12T11:42:50Z</time>
      </trkpt>
      <trkpt lat="45.96846" lon="4.77738">
        <ele>228</ele>
        <time>2017-12-12T11:42:51Z</time>
      </trkpt>
      <trkpt lat="45.96842" lon="4.77733">
        <ele>228</ele>
        <time>2017-12-12T11:42:52Z</time>
      </trkpt>
      <trkpt lat="45.96838" lon="4.77729">
        <ele>228</ele>
        <time>2017-12-12T11:42:53Z</time>
      </trkpt>
      <trkpt lat="45.96833" lon="4.77725">
        <ele>228</ele>
        <time>2017-12-12T11:42:54Z</time>
      </trkpt>
      <trkpt lat="45.96828" lon="4.77719">
        <ele>228</ele>
        <time>2017-12-12T11:42:55Z</time>
      </trkpt>
      <trkpt lat="45.96823" lon="4.77713">
        <ele>228</ele>
        <time>2017-12-12T11:42:56Z</time>
      </trkpt>
      <trkpt lat="45.96817" lon="4.77707">
        <ele>228</ele>
        <time>2017-12-12T11:42:57Z</time>
      </trkpt>
      <trkpt lat="45.96812" lon="4.77702">
        <ele>228</ele>
        <time>2017-12-12T11:42:58Z</time>
      </trkpt>
      <trkpt lat="45.96808" lon="4.77696">
        <ele>228</ele>
        <time>2017-12-12T11:42:59Z</time>
      </trkpt>
      <trkpt lat="45.96803" lon="4.77691">
        <ele>228</ele>
        <time>2017-12-12T11:43:00Z</time>
      </trkpt>
      <trkpt lat="45.968" lon="4.77687">
        <ele>228</ele>
        <time>2017-12-12T11:43:01Z</time>
      </trkpt>
      <trkpt lat="45.96796" lon="4.77682">
        <ele>228</ele>
        <time>2017-12-12T11:43:02Z</time>
      </trkpt>
      <trkpt lat="45.96791" lon="4.77678">
        <ele>227</ele>
        <time>2017-12-12T11:43:03Z</time>
      </trkpt>
      <trkpt lat="45.96786" lon="4.77673">
        <ele>227</ele>
        <time>2017-12-12T11:43:04Z</time>
      </trkpt>
      <trkpt lat="45.96783" lon="4.77668">
        <ele>227</ele>
        <time>2017-12-12T11:43:05Z</time>
      </trkpt>
      <trkpt lat="45.96779" lon="4.77663">
        <ele>228</ele>
        <time>2017-12-12T11:43:06Z</time>
      </trkpt>
      <trkpt lat="45.96775" lon="4.77658">
        <ele>228</ele>
        <time>2017-12-12T11:43:07Z</time>
      </trkpt>
      <trkpt lat="45.96771" lon="4.77654">
        <ele>228</ele>
        <time>2017-12-12T11:43:08Z</time>
      </trkpt>
      <trkpt lat="45.96768" lon="4.77647">
        <ele>228</ele>
        <time>2017-12-12T11:43:09Z</time>
      </trkpt>
      <trkpt lat="45.96763" lon="4.77642">
        <ele>228</ele>
        <time>2017-12-12T11:43:10Z</time>
      </trkpt>
      <trkpt lat="45.96758" lon="4.77637">
        <ele>228</ele>
        <time>2017-12-12T11:43:11Z</time>
      </trkpt>
      <trkpt lat="45.96754" lon="4.77632">
        <ele>228</ele>
        <time>2017-12-12T11:43:12Z</time>
      </trkpt>
      <trkpt lat="45.9675" lon="4.77627">
        <ele>228</ele>
        <time>2017-12-12T11:43:13Z</time>
      </trkpt>
      <trkpt lat="45.96746" lon="4.77621">
        <ele>227</ele>
        <time>2017-12-12T11:43:14Z</time>
      </trkpt>
      <trkpt lat="45.96741" lon="4.77616">
        <ele>227</ele>
        <time>2017-12-12T11:43:15Z</time>
      </trkpt>
      <trkpt lat="45.96735" lon="4.77611">
        <ele>226</ele>
        <time>2017-12-12T11:43:16Z</time>
      </trkpt>
      <trkpt lat="45.96731" lon="4.77606">
        <ele>226</ele>
        <time>2017-12-12T11:43:17Z</time>
      </trkpt>
      <trkpt lat="45.96726" lon="4.776">
        <ele>226</ele>
        <time>2017-12-12T11:43:18Z</time>
      </trkpt>
      <trkpt lat="45.96723" lon="4.77594">
        <ele>226</ele>
        <time>2017-12-12T11:43:19Z</time>
      </trkpt>
      <trkpt lat="45.96718" lon="4.7759">
        <ele>226</ele>
        <time>2017-12-12T11:43:20Z</time>
      </trkpt>
      <trkpt lat="45.96713" lon="4.77584">
        <ele>226</ele>
        <time>2017-12-12T11:43:21Z</time>
      </trkpt>
      <trkpt lat="45.9671" lon="4.77579">
        <ele>226</ele>
        <time>2017-12-12T11:43:22Z</time>
      </trkpt>
      <trkpt lat="45.96705" lon="4.77575">
        <ele>226</ele>
        <time>2017-12-12T11:43:23Z</time>
      </trkpt>
      <trkpt lat="45.96702" lon="4.77569">
        <ele>226</ele>
        <time>2017-12-12T11:43:24Z</time>
      </trkpt>
      <trkpt lat="45.96696" lon="4.77562">
        <ele>225</ele>
        <time>2017-12-12T11:43:26Z</time>
      </trkpt>
      <trkpt lat="45.96689" lon="4.77558">
        <ele>225</ele>
        <time>2017-12-12T11:43:27Z</time>
      </trkpt>
      <trkpt lat="45.96683" lon="4.77555">
        <ele>225</ele>
        <time>2017-12-12T11:43:28Z</time>
      </trkpt>
      <trkpt lat="45.96677" lon="4.77551">
        <ele>225</ele>
        <time>2017-12-12T11:43:29Z</time>
      </trkpt>
      <trkpt lat="45.96672" lon="4.77546">
        <ele>225</ele>
        <time>2017-12-12T11:43:30Z</time>
      </trkpt>
      <trkpt lat="45.96665" lon="4.77542">
        <ele>224</ele>
        <time>2017-12-12T11:43:31Z</time>
      </trkpt>
      <trkpt lat="45.9666" lon="4.77539">
        <ele>224</ele>
        <time>2017-12-12T11:43:32Z</time>
      </trkpt>
      <trkpt lat="45.96655" lon="4.77536">
        <ele>224</ele>
        <time>2017-12-12T11:43:33Z</time>
      </trkpt>
      <trkpt lat="45.96649" lon="4.7753">
        <ele>224</ele>
        <time>2017-12-12T11:43:34Z</time>
      </trkpt>
      <trkpt lat="45.96642" lon="4.77529">
        <ele>224</ele>
        <time>2017-12-12T11:43:35Z</time>
      </trkpt>
      <trkpt lat="45.96635" lon="4.77523">
        <ele>224</ele>
        <time>2017-12-12T11:43:36Z</time>
      </trkpt>
      <trkpt lat="45.96631" lon="4.77522">
        <ele>224</ele>
        <time>2017-12-12T11:43:37Z</time>
      </trkpt>
      <trkpt lat="45.96625" lon="4.77519">
        <ele>224</ele>
        <time>2017-12-12T11:43:38Z</time>
      </trkpt>
      <trkpt lat="45.9662" lon="4.77516">
        <ele>224</ele>
        <time>2017-12-12T11:43:39Z</time>
      </trkpt>
      <trkpt lat="45.96614" lon="4.77513">
        <ele>224</ele>
        <time>2017-12-12T11:43:40Z</time>
      </trkpt>
      <trkpt lat="45.9661" lon="4.7751">
        <ele>224</ele>
        <time>2017-12-12T11:43:41Z</time>
      </trkpt>
      <trkpt lat="45.96606" lon="4.77508">
        <ele>224</ele>
        <time>2017-12-12T11:43:42Z</time>
      </trkpt>
      <trkpt lat="45.96595" lon="4.77503">
        <ele>224</ele>
        <time>2017-12-12T11:43:43Z</time>
      </trkpt>
      <trkpt lat="45.96591" lon="4.77501">
        <ele>224</ele>
        <time>2017-12-12T11:43:44Z</time>
      </trkpt>
      <trkpt lat="45.96586" lon="4.77497">
        <ele>224</ele>
        <time>2017-12-12T11:43:45Z</time>
      </trkpt>
      <trkpt lat="45.96581" lon="4.77493">
        <ele>224</ele>
        <time>2017-12-12T11:43:46Z</time>
      </trkpt>
      <trkpt lat="45.96575" lon="4.77489">
        <ele>224</ele>
        <time>2017-12-12T11:43:47Z</time>
      </trkpt>
      <trkpt lat="45.96568" lon="4.77485">
        <ele>224</ele>
        <time>2017-12-12T11:43:48Z</time>
      </trkpt>
      <trkpt lat="45.96563" lon="4.77481">
        <ele>224</ele>
        <time>2017-12-12T11:43:49Z</time>
      </trkpt>
      <trkpt lat="45.96556" lon="4.77478">
        <ele>224</ele>
        <time>2017-12-12T11:43:50Z</time>
      </trkpt>
      <trkpt lat="45.96551" lon="4.77474">
        <ele>223</ele>
        <time>2017-12-12T11:43:51Z</time>
      </trkpt>
      <trkpt lat="45.96544" lon="4.77469">
        <ele>223</ele>
        <time>2017-12-12T11:43:52Z</time>
      </trkpt>
      <trkpt lat="45.96538" lon="4.77466">
        <ele>223</ele>
        <time>2017-12-12T11:43:53Z</time>
      </trkpt>
      <trkpt lat="45.96532" lon="4.77463">
        <ele>223</ele>
        <time>2017-12-12T11:43:54Z</time>
      </trkpt>
      <trkpt lat="45.96525" lon="4.77457">
        <ele>223</ele>
        <time>2017-12-12T11:43:55Z</time>
      </trkpt>
      <trkpt lat="45.96518" lon="4.77452">
        <ele>223</ele>
        <time>2017-12-12T11:43:56Z</time>
      </trkpt>
      <trkpt lat="45.96513" lon="4.77448">
        <ele>223</ele>
        <time>2017-12-12T11:43:57Z</time>
      </trkpt>
      <trkpt lat="45.96506" lon="4.77444">
        <ele>223</ele>
        <time>2017-12-12T11:43:58Z</time>
      </trkpt>
      <trkpt lat="45.96502" lon="4.7744">
        <ele>223</ele>
        <time>2017-12-12T11:43:59Z</time>
      </trkpt>
      <trkpt lat="45.96495" lon="4.77436">
        <ele>222</ele>
        <time>2017-12-12T11:44:00Z</time>
      </trkpt>
      <trkpt lat="45.96488" lon="4.77431">
        <ele>222</ele>
        <time>2017-12-12T11:44:01Z</time>
      </trkpt>
      <trkpt lat="45.96482" lon="4.77428">
        <ele>222</ele>
        <time>2017-12-12T11:44:02Z</time>
      </trkpt>
      <trkpt lat="45.96475" lon="4.77425">
        <ele>222</ele>
        <time>2017-12-12T11:44:03Z</time>
      </trkpt>
      <trkpt lat="45.96468" lon="4.77421">
        <ele>221</ele>
        <time>2017-12-12T11:44:04Z</time>
      </trkpt>
      <trkpt lat="45.96461" lon="4.77417">
        <ele>222</ele>
        <time>2017-12-12T11:44:05Z</time>
      </trkpt>
      <trkpt lat="45.96454" lon="4.77413">
        <ele>222</ele>
        <time>2017-12-12T11:44:06Z</time>
      </trkpt>
      <trkpt lat="45.96447" lon="4.77409">
        <ele>222</ele>
        <time>2017-12-12T11:44:07Z</time>
      </trkpt>
      <trkpt lat="45.96441" lon="4.77405">
        <ele>222</ele>
        <time>2017-12-12T11:44:08Z</time>
      </trkpt>
      <trkpt lat="45.96435" lon="4.774">
        <ele>222</ele>
        <time>2017-12-12T11:44:09Z</time>
      </trkpt>
      <trkpt lat="45.96426" lon="4.77396">
        <ele>222</ele>
        <time>2017-12-12T11:44:10Z</time>
      </trkpt>
      <trkpt lat="45.96417" lon="4.77392">
        <ele>222</ele>
        <time>2017-12-12T11:44:11Z</time>
      </trkpt>
      <trkpt lat="45.96411" lon="4.7739">
        <ele>220</ele>
        <time>2017-12-12T11:44:12Z</time>
      </trkpt>
      <trkpt lat="45.96405" lon="4.77385">
        <ele>220</ele>
        <time>2017-12-12T11:44:13Z</time>
      </trkpt>
      <trkpt lat="45.96398" lon="4.77382">
        <ele>220</ele>
        <time>2017-12-12T11:44:14Z</time>
      </trkpt>
      <trkpt lat="45.96392" lon="4.77379">
        <ele>220</ele>
        <time>2017-12-12T11:44:15Z</time>
      </trkpt>
      <trkpt lat="45.96386" lon="4.77376">
        <ele>220</ele>
        <time>2017-12-12T11:44:16Z</time>
      </trkpt>
      <trkpt lat="45.96381" lon="4.77373">
        <ele>220</ele>
        <time>2017-12-12T11:44:17Z</time>
      </trkpt>
      <trkpt lat="45.96375" lon="4.7737">
        <ele>220</ele>
        <time>2017-12-12T11:44:18Z</time>
      </trkpt>
      <trkpt lat="45.96369" lon="4.77366">
        <ele>220</ele>
        <time>2017-12-12T11:44:19Z</time>
      </trkpt>
      <trkpt lat="45.96363" lon="4.77363">
        <ele>219</ele>
        <time>2017-12-12T11:44:20Z</time>
      </trkpt>
      <trkpt lat="45.96358" lon="4.7736">
        <ele>219</ele>
        <time>2017-12-12T11:44:21Z</time>
      </trkpt>
      <trkpt lat="45.96351" lon="4.77357">
        <ele>219</ele>
        <time>2017-12-12T11:44:22Z</time>
      </trkpt>
      <trkpt lat="45.96345" lon="4.77352">
        <ele>220</ele>
        <time>2017-12-12T11:44:23Z</time>
      </trkpt>
      <trkpt lat="45.96337" lon="4.77348">
        <ele>220</ele>
        <time>2017-12-12T11:44:24Z</time>
      </trkpt>
      <trkpt lat="45.96331" lon="4.77345">
        <ele>218</ele>
        <time>2017-12-12T11:44:25Z</time>
      </trkpt>
      <trkpt lat="45.96323" lon="4.77342">
        <ele>218</ele>
        <time>2017-12-12T11:44:26Z</time>
      </trkpt>
      <trkpt lat="45.96316" lon="4.77337">
        <ele>218</ele>
        <time>2017-12-12T11:44:27Z</time>
      </trkpt>
      <trkpt lat="45.96309" lon="4.77334">
        <ele>217</ele>
        <time>2017-12-12T11:44:28Z</time>
      </trkpt>
      <trkpt lat="45.96303" lon="4.7733">
        <ele>219</ele>
        <time>2017-12-12T11:44:29Z</time>
      </trkpt>
      <trkpt lat="45.96295" lon="4.77326">
        <ele>219</ele>
        <time>2017-12-12T11:44:30Z</time>
      </trkpt>
      <trkpt lat="45.96289" lon="4.77323">
        <ele>219</ele>
        <time>2017-12-12T11:44:31Z</time>
      </trkpt>
      <trkpt lat="45.96282" lon="4.77319">
        <ele>219</ele>
        <time>2017-12-12T11:44:32Z</time>
      </trkpt>
      <trkpt lat="45.96276" lon="4.77316">
        <ele>219</ele>
        <time>2017-12-12T11:44:33Z</time>
      </trkpt>
      <trkpt lat="45.96269" lon="4.77312">
        <ele>219</ele>
        <time>2017-12-12T11:44:34Z</time>
      </trkpt>
      <trkpt lat="45.96262" lon="4.77307">
        <ele>219</ele>
        <time>2017-12-12T11:44:35Z</time>
      </trkpt>
      <trkpt lat="45.96256" lon="4.77303">
        <ele>219</ele>
        <time>2017-12-12T11:44:36Z</time>
      </trkpt>
      <trkpt lat="45.96249" lon="4.773">
        <ele>217</ele>
        <time>2017-12-12T11:44:37Z</time>
      </trkpt>
      <trkpt lat="45.96241" lon="4.77296">
        <ele>217</ele>
        <time>2017-12-12T11:44:38Z</time>
      </trkpt>
      <trkpt lat="45.96234" lon="4.77292">
        <ele>217</ele>
        <time>2017-12-12T11:44:39Z</time>
      </trkpt>
      <trkpt lat="45.96228" lon="4.77287">
        <ele>217</ele>
        <time>2017-12-12T11:44:40Z</time>
      </trkpt>
      <trkpt lat="45.96221" lon="4.77282">
        <ele>217</ele>
        <time>2017-12-12T11:44:41Z</time>
      </trkpt>
      <trkpt lat="45.96215" lon="4.77278">
        <ele>217</ele>
        <time>2017-12-12T11:44:42Z</time>
      </trkpt>
      <trkpt lat="45.96208" lon="4.77274">
        <ele>217</ele>
        <time>2017-12-12T11:44:43Z</time>
      </trkpt>
      <trkpt lat="45.96203" lon="4.77269">
        <ele>217</ele>
        <time>2017-12-12T11:44:44Z</time>
      </trkpt>
      <trkpt lat="45.96196" lon="4.77268">
        <ele>216</ele>
        <time>2017-12-12T11:44:45Z</time>
      </trkpt>
      <trkpt lat="45.96189" lon="4.77265">
        <ele>216</ele>
        <time>2017-12-12T11:44:46Z</time>
      </trkpt>
      <trkpt lat="45.96183" lon="4.77262">
        <ele>216</ele>
        <time>2017-12-12T11:44:47Z</time>
      </trkpt>
      <trkpt lat="45.96178" lon="4.77259">
        <ele>216</ele>
        <time>2017-12-12T11:44:48Z</time>
      </trkpt>
      <trkpt lat="45.96172" lon="4.77255">
        <ele>216</ele>
        <time>2017-12-12T11:44:49Z</time>
      </trkpt>
      <trkpt lat="45.96165" lon="4.77253">
        <ele>215</ele>
        <time>2017-12-12T11:44:50Z</time>
      </trkpt>
      <trkpt lat="45.96159" lon="4.77252">
        <ele>215</ele>
        <time>2017-12-12T11:44:51Z</time>
      </trkpt>
      <trkpt lat="45.96153" lon="4.77248">
        <ele>215</ele>
        <time>2017-12-12T11:44:52Z</time>
      </trkpt>
      <trkpt lat="45.96148" lon="4.77244">
        <ele>215</ele>
        <time>2017-12-12T11:44:53Z</time>
      </trkpt>
      <trkpt lat="45.96142" lon="4.77242">
        <ele>215</ele>
        <time>2017-12-12T11:44:54Z</time>
      </trkpt>
      <trkpt lat="45.96133" lon="4.77239">
        <ele>215</ele>
        <time>2017-12-12T11:44:55Z</time>
      </trkpt>
      <trkpt lat="45.96126" lon="4.77239">
        <ele>214</ele>
        <time>2017-12-12T11:44:56Z</time>
      </trkpt>
      <trkpt lat="45.9612" lon="4.77239">
        <ele>214</ele>
        <time>2017-12-12T11:44:57Z</time>
      </trkpt>
      <trkpt lat="45.96113" lon="4.77238">
        <ele>214</ele>
        <time>2017-12-12T11:44:58Z</time>
      </trkpt>
      <trkpt lat="45.96106" lon="4.77238">
        <ele>213</ele>
        <time>2017-12-12T11:44:59Z</time>
      </trkpt>
      <trkpt lat="45.96098" lon="4.77238">
        <ele>213</ele>
        <time>2017-12-12T11:45:00Z</time>
      </trkpt>
      <trkpt lat="45.96091" lon="4.77238">
        <ele>212</ele>
        <time>2017-12-12T11:45:01Z</time>
      </trkpt>
      <trkpt lat="45.96084" lon="4.77238">
        <ele>212</ele>
        <time>2017-12-12T11:45:02Z</time>
      </trkpt>
      <trkpt lat="45.96077" lon="4.77239">
        <ele>210</ele>
        <time>2017-12-12T11:45:03Z</time>
      </trkpt>
      <trkpt lat="45.9607" lon="4.7724">
        <ele>210</ele>
        <time>2017-12-12T11:45:04Z</time>
      </trkpt>
      <trkpt lat="45.96064" lon="4.77241">
        <ele>209</ele>
        <time>2017-12-12T11:45:05Z</time>
      </trkpt>
      <trkpt lat="45.96057" lon="4.77241">
        <ele>209</ele>
        <time>2017-12-12T11:45:06Z</time>
      </trkpt>
      <trkpt lat="45.9605" lon="4.77242">
        <ele>209</ele>
        <time>2017-12-12T11:45:07Z</time>
      </trkpt>
      <trkpt lat="45.96043" lon="4.77242">
        <ele>208</ele>
        <time>2017-12-12T11:45:08Z</time>
      </trkpt>
      <trkpt lat="45.96036" lon="4.77243">
        <ele>208</ele>
        <time>2017-12-12T11:45:09Z</time>
      </trkpt>
      <trkpt lat="45.96029" lon="4.77243">
        <ele>207</ele>
        <time>2017-12-12T11:45:10Z</time>
      </trkpt>
      <trkpt lat="45.96022" lon="4.77244">
        <ele>207</ele>
        <time>2017-12-12T11:45:11Z</time>
      </trkpt>
      <trkpt lat="45.96014" lon="4.77244">
        <ele>206</ele>
        <time>2017-12-12T11:45:12Z</time>
      </trkpt>
      <trkpt lat="45.96008" lon="4.77244">
        <ele>205</ele>
        <time>2017-12-12T11:45:13Z</time>
      </trkpt>
      <trkpt lat="45.96001" lon="4.7724">
        <ele>205</ele>
        <time>2017-12-12T11:45:14Z</time>
      </trkpt>
      <trkpt lat="45.95993" lon="4.77237">
        <ele>202</ele>
        <time>2017-12-12T11:45:15Z</time>
      </trkpt>
      <trkpt lat="45.95988" lon="4.77233">
        <ele>202</ele>
        <time>2017-12-12T11:45:16Z</time>
      </trkpt>
      <trkpt lat="45.9598" lon="4.77227">
        <ele>202</ele>
        <time>2017-12-12T11:45:17Z</time>
      </trkpt>
      <trkpt lat="45.95973" lon="4.77221">
        <ele>202</ele>
        <time>2017-12-12T11:45:18Z</time>
      </trkpt>
      <trkpt lat="45.95968" lon="4.77214">
        <ele>202</ele>
        <time>2017-12-12T11:45:19Z</time>
      </trkpt>
      <trkpt lat="45.95964" lon="4.77205">
        <ele>202</ele>
        <time>2017-12-12T11:45:20Z</time>
      </trkpt>
      <trkpt lat="45.9596" lon="4.77196">
        <ele>202</ele>
        <time>2017-12-12T11:45:21Z</time>
      </trkpt>
      <trkpt lat="45.95957" lon="4.77187">
        <ele>201</ele>
        <time>2017-12-12T11:45:22Z</time>
      </trkpt>
      <trkpt lat="45.95954" lon="4.77177">
        <ele>201</ele>
        <time>2017-12-12T11:45:23Z</time>
      </trkpt>
      <trkpt lat="45.95952" lon="4.77168">
        <ele>201</ele>
        <time>2017-12-12T11:45:24Z</time>
      </trkpt>
      <trkpt lat="45.95951" lon="4.77157">
        <ele>202</ele>
        <time>2017-12-12T11:45:25Z</time>
      </trkpt>
      <trkpt lat="45.95951" lon="4.77147">
        <ele>202</ele>
        <time>2017-12-12T11:45:26Z</time>
      </trkpt>
      <trkpt lat="45.95951" lon="4.77136">
        <ele>202</ele>
        <time>2017-12-12T11:45:27Z</time>
      </trkpt>
      <trkpt lat="45.95953" lon="4.77126">
        <ele>202</ele>
        <time>2017-12-12T11:45:28Z</time>
      </trkpt>
      <trkpt lat="45.95952" lon="4.77114">
        <ele>202</ele>
        <time>2017-12-12T11:45:29Z</time>
      </trkpt>
      <trkpt lat="45.95953" lon="4.77104">
        <ele>202</ele>
        <time>2017-12-12T11:45:30Z</time>
      </trkpt>
      <trkpt lat="45.95954" lon="4.77094">
        <ele>202</ele>
        <time>2017-12-12T11:45:31Z</time>
      </trkpt>
      <trkpt lat="45.95957" lon="4.77083">
        <ele>201</ele>
        <time>2017-12-12T11:45:32Z</time>
      </trkpt>
      <trkpt lat="45.9596" lon="4.77074">
        <ele>201</ele>
        <time>2017-12-12T11:45:33Z</time>
      </trkpt>
      <trkpt lat="45.95963" lon="4.77064">
        <ele>201</ele>
        <time>2017-12-12T11:45:34Z</time>
      </trkpt>
      <trkpt lat="45.95966" lon="4.77055">
        <ele>201</ele>
        <time>2017-12-12T11:45:35Z</time>
      </trkpt>
      <trkpt lat="45.9597" lon="4.77044">
        <ele>201</ele>
        <time>2017-12-12T11:45:36Z</time>
      </trkpt>
      <trkpt lat="45.95973" lon="4.77034">
        <ele>201</ele>
        <time>2017-12-12T11:45:37Z</time>
      </trkpt>
      <trkpt lat="45.95977" lon="4.77025">
        <ele>200</ele>
        <time>2017-12-12T11:45:38Z</time>
      </trkpt>
      <trkpt lat="45.9598" lon="4.77016">
        <ele>200</ele>
        <time>2017-12-12T11:45:39Z</time>
      </trkpt>
      <trkpt lat="45.95984" lon="4.77006">
        <ele>200</ele>
        <time>2017-12-12T11:45:40Z</time>
      </trkpt>
      <trkpt lat="45.95986" lon="4.76996">
        <ele>199</ele>
        <time>2017-12-12T11:45:41Z</time>
      </trkpt>
      <trkpt lat="45.95988" lon="4.76986">
        <ele>198</ele>
        <time>2017-12-12T11:45:42Z</time>
      </trkpt>
      <trkpt lat="45.95989" lon="4.76975">
        <ele>197</ele>
        <time>2017-12-12T11:45:43Z</time>
      </trkpt>
      <trkpt lat="45.95989" lon="4.76964">
        <ele>197</ele>
        <time>2017-12-12T11:45:44Z</time>
      </trkpt>
      <trkpt lat="45.95987" lon="4.76952">
        <ele>196</ele>
        <time>2017-12-12T11:45:45Z</time>
      </trkpt>
      <trkpt lat="45.95982" lon="4.76942">
        <ele>196</ele>
        <time>2017-12-12T11:45:46Z</time>
      </trkpt>
      <trkpt lat="45.95977" lon="4.76933">
        <ele>196</ele>
        <time>2017-12-12T11:45:47Z</time>
      </trkpt>
      <trkpt lat="45.9597" lon="4.76925">
        <ele>195</ele>
        <time>2017-12-12T11:45:48Z</time>
      </trkpt>
      <trkpt lat="45.95964" lon="4.76918">
        <ele>195</ele>
        <time>2017-12-12T11:45:49Z</time>
      </trkpt>
      <trkpt lat="45.95958" lon="4.76912">
        <ele>193</ele>
        <time>2017-12-12T11:45:50Z</time>
      </trkpt>
      <trkpt lat="45.95952" lon="4.76905">
        <ele>193</ele>
        <time>2017-12-12T11:45:51Z</time>
      </trkpt>
      <trkpt lat="45.95946" lon="4.76896">
        <ele>193</ele>
        <time>2017-12-12T11:45:52Z</time>
      </trkpt>
      <trkpt lat="45.9594" lon="4.76889">
        <ele>192</ele>
        <time>2017-12-12T11:45:53Z</time>
      </trkpt>
      <trkpt lat="45.95934" lon="4.76882">
        <ele>192</ele>
        <time>2017-12-12T11:45:54Z</time>
      </trkpt>
      <trkpt lat="45.95929" lon="4.76875">
        <ele>192</ele>
        <time>2017-12-12T11:45:55Z</time>
      </trkpt>
      <trkpt lat="45.95922" lon="4.76867">
        <ele>192</ele>
        <time>2017-12-12T11:45:56Z</time>
      </trkpt>
      <trkpt lat="45.95916" lon="4.7686">
        <ele>191</ele>
        <time>2017-12-12T11:45:57Z</time>
      </trkpt>
      <trkpt lat="45.95909" lon="4.76854">
        <ele>191</ele>
        <time>2017-12-12T11:45:58Z</time>
      </trkpt>
      <trkpt lat="45.95903" lon="4.76846">
        <ele>191</ele>
        <time>2017-12-12T11:45:59Z</time>
      </trkpt>
      <trkpt lat="45.95897" lon="4.76838">
        <ele>191</ele>
        <time>2017-12-12T11:46:00Z</time>
      </trkpt>
      <trkpt lat="45.95891" lon="4.76832">
        <ele>191</ele>
        <time>2017-12-12T11:46:01Z</time>
      </trkpt>
      <trkpt lat="45.95886" lon="4.76826">
        <ele>191</ele>
        <time>2017-12-12T11:46:02Z</time>
      </trkpt>
      <trkpt lat="45.9588" lon="4.7682">
        <ele>191</ele>
        <time>2017-12-12T11:46:03Z</time>
      </trkpt>
      <trkpt lat="45.95874" lon="4.76813">
        <ele>191</ele>
        <time>2017-12-12T11:46:04Z</time>
      </trkpt>
      <trkpt lat="45.95868" lon="4.76807">
        <ele>191</ele>
        <time>2017-12-12T11:46:05Z</time>
      </trkpt>
      <trkpt lat="45.95863" lon="4.76802">
        <ele>191</ele>
        <time>2017-12-12T11:46:06Z</time>
      </trkpt>
      <trkpt lat="45.95859" lon="4.76797">
        <ele>191</ele>
        <time>2017-12-12T11:46:07Z</time>
      </trkpt>
      <trkpt lat="45.95854" lon="4.76793">
        <ele>191</ele>
        <time>2017-12-12T11:46:08Z</time>
      </trkpt>
      <trkpt lat="45.95848" lon="4.76788">
        <ele>191</ele>
        <time>2017-12-12T11:46:09Z</time>
      </trkpt>
      <trkpt lat="45.95845" lon="4.76782">
        <ele>191</ele>
        <time>2017-12-12T11:46:10Z</time>
      </trkpt>
      <trkpt lat="45.95842" lon="4.76775">
        <ele>191</ele>
        <time>2017-12-12T11:46:11Z</time>
      </trkpt>
      <trkpt lat="45.95841" lon="4.76768">
        <ele>191</ele>
        <time>2017-12-12T11:46:12Z</time>
      </trkpt>
      <trkpt lat="45.95838" lon="4.7676">
        <ele>191</ele>
        <time>2017-12-12T11:46:13Z</time>
      </trkpt>
      <trkpt lat="45.95837" lon="4.7675">
        <ele>191</ele>
        <time>2017-12-12T11:46:14Z</time>
      </trkpt>
      <trkpt lat="45.95834" lon="4.76741">
        <ele>191</ele>
        <time>2017-12-12T11:46:15Z</time>
      </trkpt>
      <trkpt lat="45.95833" lon="4.76731">
        <ele>190</ele>
        <time>2017-12-12T11:46:16Z</time>
      </trkpt>
      <trkpt lat="45.95831" lon="4.76722">
        <ele>190</ele>
        <time>2017-12-12T11:46:17Z</time>
      </trkpt>
      <trkpt lat="45.95829" lon="4.76711">
        <ele>189</ele>
        <time>2017-12-12T11:46:18Z</time>
      </trkpt>
      <trkpt lat="45.95827" lon="4.76702">
        <ele>189</ele>
        <time>2017-12-12T11:46:19Z</time>
      </trkpt>
      <trkpt lat="45.95825" lon="4.76692">
        <ele>189</ele>
        <time>2017-12-12T11:46:20Z</time>
      </trkpt>
      <trkpt lat="45.95824" lon="4.76683">
        <ele>189</ele>
        <time>2017-12-12T11:46:21Z</time>
      </trkpt>
      <trkpt lat="45.95822" lon="4.76675">
        <ele>188</ele>
        <time>2017-12-12T11:46:22Z</time>
      </trkpt>
      <trkpt lat="45.95821" lon="4.76666">
        <ele>188</ele>
        <time>2017-12-12T11:46:23Z</time>
      </trkpt>
      <trkpt lat="45.95819" lon="4.76658">
        <ele>188</ele>
        <time>2017-12-12T11:46:24Z</time>
      </trkpt>
      <trkpt lat="45.95818" lon="4.7665">
        <ele>188</ele>
        <time>2017-12-12T11:46:25Z</time>
      </trkpt>
      <trkpt lat="45.95817" lon="4.7664">
        <ele>188</ele>
        <time>2017-12-12T11:46:26Z</time>
      </trkpt>
      <trkpt lat="45.95815" lon="4.76631">
        <ele>188</ele>
        <time>2017-12-12T11:46:27Z</time>
      </trkpt>
      <trkpt lat="45.95813" lon="4.76621">
        <ele>188</ele>
        <time>2017-12-12T11:46:28Z</time>
      </trkpt>
      <trkpt lat="45.95811" lon="4.76613">
        <ele>188</ele>
        <time>2017-12-12T11:46:29Z</time>
      </trkpt>
      <trkpt lat="45.9581" lon="4.76604">
        <ele>188</ele>
        <time>2017-12-12T11:46:30Z</time>
      </trkpt>
      <trkpt lat="45.95809" lon="4.76596">
        <ele>188</ele>
        <time>2017-12-12T11:46:31Z</time>
      </trkpt>
      <trkpt lat="45.95808" lon="4.76587">
        <ele>188</ele>
        <time>2017-12-12T11:46:32Z</time>
      </trkpt>
      <trkpt lat="45.95807" lon="4.7658">
        <ele>187</ele>
        <time>2017-12-12T11:46:33Z</time>
      </trkpt>
      <trkpt lat="45.95805" lon="4.76571">
        <ele>187</ele>
        <time>2017-12-12T11:46:34Z</time>
      </trkpt>
      <trkpt lat="45.95803" lon="4.76563">
        <ele>187</ele>
        <time>2017-12-12T11:46:35Z</time>
      </trkpt>
      <trkpt lat="45.95802" lon="4.76556">
        <ele>187</ele>
        <time>2017-12-12T11:46:36Z</time>
      </trkpt>
      <trkpt lat="45.95801" lon="4.76548">
        <ele>187</ele>
        <time>2017-12-12T11:46:37Z</time>
      </trkpt>
      <trkpt lat="45.958" lon="4.76542">
        <ele>187</ele>
        <time>2017-12-12T11:46:38Z</time>
      </trkpt>
      <trkpt lat="45.958" lon="4.76535">
        <ele>187</ele>
        <time>2017-12-12T11:46:39Z</time>
      </trkpt>
      <trkpt lat="45.95799" lon="4.76528">
        <ele>187</ele>
        <time>2017-12-12T11:46:40Z</time>
      </trkpt>
      <trkpt lat="45.95797" lon="4.76519">
        <ele>187</ele>
        <time>2017-12-12T11:46:41Z</time>
      </trkpt>
      <trkpt lat="45.95797" lon="4.76511">
        <ele>187</ele>
        <time>2017-12-12T11:46:42Z</time>
      </trkpt>
      <trkpt lat="45.95795" lon="4.76504">
        <ele>187</ele>
        <time>2017-12-12T11:46:43Z</time>
      </trkpt>
      <trkpt lat="45.95794" lon="4.76496">
        <ele>187</ele>
        <time>2017-12-12T11:46:44Z</time>
      </trkpt>
      <trkpt lat="45.95793" lon="4.76487">
        <ele>187</ele>
        <time>2017-12-12T11:46:45Z</time>
      </trkpt>
      <trkpt lat="45.95792" lon="4.76478">
        <ele>187</ele>
        <time>2017-12-12T11:46:46Z</time>
      </trkpt>
      <trkpt lat="45.95791" lon="4.7647">
        <ele>186</ele>
        <time>2017-12-12T11:46:47Z</time>
      </trkpt>
      <trkpt lat="45.95789" lon="4.76462">
        <ele>186</ele>
        <time>2017-12-12T11:46:48Z</time>
      </trkpt>
      <trkpt lat="45.95788" lon="4.76454">
        <ele>186</ele>
        <time>2017-12-12T11:46:49Z</time>
      </trkpt>
      <trkpt lat="45.95786" lon="4.76446">
        <ele>186</ele>
        <time>2017-12-12T11:46:50Z</time>
      </trkpt>
      <trkpt lat="45.95785" lon="4.76438">
        <ele>186</ele>
        <time>2017-12-12T11:46:51Z</time>
      </trkpt>
      <trkpt lat="45.95784" lon="4.76429">
        <ele>186</ele>
        <time>2017-12-12T11:46:52Z</time>
      </trkpt>
      <trkpt lat="45.95783" lon="4.76421">
        <ele>186</ele>
        <time>2017-12-12T11:46:53Z</time>
      </trkpt>
      <trkpt lat="45.95782" lon="4.76414">
        <ele>186</ele>
        <time>2017-12-12T11:46:54Z</time>
      </trkpt>
      <trkpt lat="45.95782" lon="4.76405">
        <ele>186</ele>
        <time>2017-12-12T11:46:55Z</time>
      </trkpt>
      <trkpt lat="45.95781" lon="4.76398">
        <ele>186</ele>
        <time>2017-12-12T11:46:56Z</time>
      </trkpt>
      <trkpt lat="45.9578" lon="4.7639">
        <ele>186</ele>
        <time>2017-12-12T11:46:57Z</time>
      </trkpt>
      <trkpt lat="45.9578" lon="4.76382">
        <ele>186</ele>
        <time>2017-12-12T11:46:58Z</time>
      </trkpt>
      <trkpt lat="45.95779" lon="4.76373">
        <ele>186</ele>
        <time>2017-12-12T11:46:59Z</time>
      </trkpt>
      <trkpt lat="45.95779" lon="4.76366">
        <ele>186</ele>
        <time>2017-12-12T11:47:00Z</time>
      </trkpt>
      <trkpt lat="45.95779" lon="4.76355">
        <ele>186</ele>
        <time>2017-12-12T11:47:01Z</time>
      </trkpt>
      <trkpt lat="45.9578" lon="4.76347">
        <ele>186</ele>
        <time>2017-12-12T11:47:02Z</time>
      </trkpt>
      <trkpt lat="45.9578" lon="4.76338">
        <ele>186</ele>
        <time>2017-12-12T11:47:03Z</time>
      </trkpt>
      <trkpt lat="45.95779" lon="4.7633">
        <ele>186</ele>
        <time>2017-12-12T11:47:04Z</time>
      </trkpt>
      <trkpt lat="45.95778" lon="4.76321">
        <ele>186</ele>
        <time>2017-12-12T11:47:05Z</time>
      </trkpt>
      <trkpt lat="45.95778" lon="4.76313">
        <ele>186</ele>
        <time>2017-12-12T11:47:06Z</time>
      </trkpt>
      <trkpt lat="45.95778" lon="4.76304">
        <ele>186</ele>
        <time>2017-12-12T11:47:07Z</time>
      </trkpt>
      <trkpt lat="45.95779" lon="4.76294">
        <ele>186</ele>
        <time>2017-12-12T11:47:08Z</time>
      </trkpt>
      <trkpt lat="45.95778" lon="4.76287">
        <ele>186</ele>
        <time>2017-12-12T11:47:09Z</time>
      </trkpt>
      <trkpt lat="45.95777" lon="4.76279">
        <ele>186</ele>
        <time>2017-12-12T11:47:10Z</time>
      </trkpt>
      <trkpt lat="45.95776" lon="4.76271">
        <ele>186</ele>
        <time>2017-12-12T11:47:11Z</time>
      </trkpt>
      <trkpt lat="45.95775" lon="4.76263">
        <ele>186</ele>
        <time>2017-12-12T11:47:12Z</time>
      </trkpt>
      <trkpt lat="45.95775" lon="4.76254">
        <ele>186</ele>
        <time>2017-12-12T11:47:13Z</time>
      </trkpt>
      <trkpt lat="45.95775" lon="4.76246">
        <ele>186</ele>
        <time>2017-12-12T11:47:14Z</time>
      </trkpt>
      <trkpt lat="45.95774" lon="4.76237">
        <ele>186</ele>
        <time>2017-12-12T11:47:15Z</time>
      </trkpt>
      <trkpt lat="45.95773" lon="4.76229">
        <ele>186</ele>
        <time>2017-12-12T11:47:16Z</time>
      </trkpt>
      <trkpt lat="45.95773" lon="4.76221">
        <ele>186</ele>
        <time>2017-12-12T11:47:17Z</time>
      </trkpt>
      <trkpt lat="45.95772" lon="4.76213">
        <ele>186</ele>
        <time>2017-12-12T11:47:18Z</time>
      </trkpt>
      <trkpt lat="45.95772" lon="4.76203">
        <ele>186</ele>
        <time>2017-12-12T11:47:19Z</time>
      </trkpt>
      <trkpt lat="45.95771" lon="4.76194">
        <ele>186</ele>
        <time>2017-12-12T11:47:20Z</time>
      </trkpt>
      <trkpt lat="45.9577" lon="4.76185">
        <ele>186</ele>
        <time>2017-12-12T11:47:21Z</time>
      </trkpt>
      <trkpt lat="45.95769" lon="4.76176">
        <ele>186</ele>
        <time>2017-12-12T11:47:22Z</time>
      </trkpt>
      <trkpt lat="45.95768" lon="4.76167">
        <ele>186</ele>
        <time>2017-12-12T11:47:23Z</time>
      </trkpt>
      <trkpt lat="45.95767" lon="4.76158">
        <ele>186</ele>
        <time>2017-12-12T11:47:24Z</time>
      </trkpt>
      <trkpt lat="45.95767" lon="4.76149">
        <ele>186</ele>
        <time>2017-12-12T11:47:25Z</time>
      </trkpt>
      <trkpt lat="45.95769" lon="4.76142">
        <ele>186</ele>
        <time>2017-12-12T11:47:26Z</time>
      </trkpt>
      <trkpt lat="45.95768" lon="4.76133">
        <ele>186</ele>
        <time>2017-12-12T11:47:27Z</time>
      </trkpt>
      <trkpt lat="45.95767" lon="4.76125">
        <ele>186</ele>
        <time>2017-12-12T11:47:28Z</time>
      </trkpt>
      <trkpt lat="45.95766" lon="4.76117">
        <ele>186</ele>
        <time>2017-12-12T11:47:29Z</time>
      </trkpt>
      <trkpt lat="45.95765" lon="4.76109">
        <ele>186</ele>
        <time>2017-12-12T11:47:30Z</time>
      </trkpt>
      <trkpt lat="45.95763" lon="4.76102">
        <ele>186</ele>
        <time>2017-12-12T11:47:31Z</time>
      </trkpt>
      <trkpt lat="45.95761" lon="4.76095">
        <ele>186</ele>
        <time>2017-12-12T11:47:32Z</time>
      </trkpt>
      <trkpt lat="45.9576" lon="4.76089">
        <ele>186</ele>
        <time>2017-12-12T11:47:33Z</time>
      </trkpt>
      <trkpt lat="45.95759" lon="4.76082">
        <ele>186</ele>
        <time>2017-12-12T11:47:34Z</time>
      </trkpt>
      <trkpt lat="45.95756" lon="4.76075">
        <ele>186</ele>
        <time>2017-12-12T11:47:35Z</time>
      </trkpt>
      <trkpt lat="45.95754" lon="4.76068">
        <ele>186</ele>
        <time>2017-12-12T11:47:36Z</time>
      </trkpt>
      <trkpt lat="45.95751" lon="4.76059">
        <ele>186</ele>
        <time>2017-12-12T11:47:37Z</time>
      </trkpt>
      <trkpt lat="45.95747" lon="4.76052">
        <ele>185</ele>
        <time>2017-12-12T11:47:38Z</time>
      </trkpt>
      <trkpt lat="45.95744" lon="4.76044">
        <ele>185</ele>
        <time>2017-12-12T11:47:39Z</time>
      </trkpt>
      <trkpt lat="45.95741" lon="4.76035">
        <ele>185</ele>
        <time>2017-12-12T11:47:40Z</time>
      </trkpt>
      <trkpt lat="45.95738" lon="4.76028">
        <ele>185</ele>
        <time>2017-12-12T11:47:41Z</time>
      </trkpt>
      <trkpt lat="45.95734" lon="4.76021">
        <ele>185</ele>
        <time>2017-12-12T11:47:42Z</time>
      </trkpt>
      <trkpt lat="45.9573" lon="4.76014">
        <ele>185</ele>
        <time>2017-12-12T11:47:43Z</time>
      </trkpt>
      <trkpt lat="45.95726" lon="4.76005">
        <ele>185</ele>
        <time>2017-12-12T11:47:44Z</time>
      </trkpt>
      <trkpt lat="45.95722" lon="4.75998">
        <ele>185</ele>
        <time>2017-12-12T11:47:45Z</time>
      </trkpt>
      <trkpt lat="45.95719" lon="4.75991">
        <ele>185</ele>
        <time>2017-12-12T11:47:46Z</time>
      </trkpt>
      <trkpt lat="45.95716" lon="4.75984">
        <ele>185</ele>
        <time>2017-12-12T11:47:47Z</time>
      </trkpt>
      <trkpt lat="45.95712" lon="4.75976">
        <ele>185</ele>
        <time>2017-12-12T11:47:48Z</time>
      </trkpt>
      <trkpt lat="45.95708" lon="4.75968">
        <ele>185</ele>
        <time>2017-12-12T11:47:49Z</time>
      </trkpt>
      <trkpt lat="45.95705" lon="4.75961">
        <ele>185</ele>
        <time>2017-12-12T11:47:50Z</time>
      </trkpt>
      <trkpt lat="45.95701" lon="4.75954">
        <ele>185</ele>
        <time>2017-12-12T11:47:51Z</time>
      </trkpt>
      <trkpt lat="45.95696" lon="4.75945">
        <ele>185</ele>
        <time>2017-12-12T11:47:52Z</time>
      </trkpt>
      <trkpt lat="45.95693" lon="4.75939">
        <ele>185</ele>
        <time>2017-12-12T11:47:53Z</time>
      </trkpt>
      <trkpt lat="45.9569" lon="4.75931">
        <ele>185</ele>
        <time>2017-12-12T11:47:54Z</time>
      </trkpt>
      <trkpt lat="45.95686" lon="4.75923">
        <ele>185</ele>
        <time>2017-12-12T11:47:55Z</time>
      </trkpt>
      <trkpt lat="45.95684" lon="4.75915">
        <ele>185</ele>
        <time>2017-12-12T11:47:56Z</time>
      </trkpt>
      <trkpt lat="45.9568" lon="4.75906">
        <ele>185</ele>
        <time>2017-12-12T11:47:57Z</time>
      </trkpt>
      <trkpt lat="45.95677" lon="4.75899">
        <ele>186</ele>
        <time>2017-12-12T11:47:58Z</time>
      </trkpt>
      <trkpt lat="45.95675" lon="4.75892">
        <ele>186</ele>
        <time>2017-12-12T11:47:59Z</time>
      </trkpt>
      <trkpt lat="45.95672" lon="4.75885">
        <ele>186</ele>
        <time>2017-12-12T11:48:00Z</time>
      </trkpt>
      <trkpt lat="45.95671" lon="4.75879">
        <ele>186</ele>
        <time>2017-12-12T11:48:01Z</time>
      </trkpt>
      <trkpt lat="45.95668" lon="4.75873">
        <ele>186</ele>
        <time>2017-12-12T11:48:02Z</time>
      </trkpt>
      <trkpt lat="45.95666" lon="4.75867">
        <ele>184</ele>
        <time>2017-12-12T11:48:03Z</time>
      </trkpt>
      <trkpt lat="45.95664" lon="4.7586">
        <ele>184</ele>
        <time>2017-12-12T11:48:04Z</time>
      </trkpt>
      <trkpt lat="45.95663" lon="4.75854">
        <ele>185</ele>
        <time>2017-12-12T11:48:05Z</time>
      </trkpt>
      <trkpt lat="45.9566" lon="4.75847">
        <ele>185</ele>
        <time>2017-12-12T11:48:06Z</time>
      </trkpt>
      <trkpt lat="45.95658" lon="4.75839">
        <ele>185</ele>
        <time>2017-12-12T11:48:07Z</time>
      </trkpt>
      <trkpt lat="45.95656" lon="4.75832">
        <ele>186</ele>
        <time>2017-12-12T11:48:08Z</time>
      </trkpt>
      <trkpt lat="45.95655" lon="4.75824">
        <ele>186</ele>
        <time>2017-12-12T11:48:09Z</time>
      </trkpt>
      <trkpt lat="45.95652" lon="4.75817">
        <ele>185</ele>
        <time>2017-12-12T11:48:10Z</time>
      </trkpt>
      <trkpt lat="45.95651" lon="4.75809">
        <ele>185</ele>
        <time>2017-12-12T11:48:11Z</time>
      </trkpt>
      <trkpt lat="45.9565" lon="4.75801">
        <ele>185</ele>
        <time>2017-12-12T11:48:12Z</time>
      </trkpt>
      <trkpt lat="45.95649" lon="4.75794">
        <ele>185</ele>
        <time>2017-12-12T11:48:13Z</time>
      </trkpt>
      <trkpt lat="45.95648" lon="4.75787">
        <ele>186</ele>
        <time>2017-12-12T11:48:14Z</time>
      </trkpt>
      <trkpt lat="45.95646" lon="4.75781">
        <ele>186</ele>
        <time>2017-12-12T11:48:15Z</time>
      </trkpt>
      <trkpt lat="45.95645" lon="4.75768">
        <ele>186</ele>
        <time>2017-12-12T11:48:17Z</time>
      </trkpt>
      <trkpt lat="45.95644" lon="4.75761">
        <ele>186</ele>
        <time>2017-12-12T11:48:18Z</time>
      </trkpt>
      <trkpt lat="45.95643" lon="4.75754">
        <ele>186</ele>
        <time>2017-12-12T11:48:19Z</time>
      </trkpt>
      <trkpt lat="45.95642" lon="4.75746">
        <ele>187</ele>
        <time>2017-12-12T11:48:20Z</time>
      </trkpt>
      <trkpt lat="45.95641" lon="4.75739">
        <ele>187</ele>
        <time>2017-12-12T11:48:21Z</time>
      </trkpt>
      <trkpt lat="45.9564" lon="4.75731">
        <ele>187</ele>
        <time>2017-12-12T11:48:22Z</time>
      </trkpt>
      <trkpt lat="45.95639" lon="4.75724">
        <ele>187</ele>
        <time>2017-12-12T11:48:23Z</time>
      </trkpt>
      <trkpt lat="45.95638" lon="4.75717">
        <ele>187</ele>
        <time>2017-12-12T11:48:24Z</time>
      </trkpt>
      <trkpt lat="45.95637" lon="4.75709">
        <ele>187</ele>
        <time>2017-12-12T11:48:25Z</time>
      </trkpt>
      <trkpt lat="45.95636" lon="4.757">
        <ele>187</ele>
        <time>2017-12-12T11:48:26Z</time>
      </trkpt>
      <trkpt lat="45.95634" lon="4.75693">
        <ele>187</ele>
        <time>2017-12-12T11:48:27Z</time>
      </trkpt>
      <trkpt lat="45.95633" lon="4.75684">
        <ele>188</ele>
        <time>2017-12-12T11:48:28Z</time>
      </trkpt>
      <trkpt lat="45.95632" lon="4.75678">
        <ele>188</ele>
        <time>2017-12-12T11:48:29Z</time>
      </trkpt>
      <trkpt lat="45.9563" lon="4.7567">
        <ele>188</ele>
        <time>2017-12-12T11:48:30Z</time>
      </trkpt>
      <trkpt lat="45.9563" lon="4.75662">
        <ele>188</ele>
        <time>2017-12-12T11:48:31Z</time>
      </trkpt>
      <trkpt lat="45.95629" lon="4.75654">
        <ele>188</ele>
        <time>2017-12-12T11:48:32Z</time>
      </trkpt>
      <trkpt lat="45.95627" lon="4.75647">
        <ele>188</ele>
        <time>2017-12-12T11:48:33Z</time>
      </trkpt>
      <trkpt lat="45.95625" lon="4.7564">
        <ele>188</ele>
        <time>2017-12-12T11:48:34Z</time>
      </trkpt>
      <trkpt lat="45.95624" lon="4.75632">
        <ele>188</ele>
        <time>2017-12-12T11:48:35Z</time>
      </trkpt>
      <trkpt lat="45.95623" lon="4.75626">
        <ele>188</ele>
        <time>2017-12-12T11:48:36Z</time>
      </trkpt>
      <trkpt lat="45.9562" lon="4.75619">
        <ele>188</ele>
        <time>2017-12-12T11:48:37Z</time>
      </trkpt>
      <trkpt lat="45.95617" lon="4.75612">
        <ele>188</ele>
        <time>2017-12-12T11:48:38Z</time>
      </trkpt>
      <trkpt lat="45.95615" lon="4.75606">
        <ele>188</ele>
        <time>2017-12-12T11:48:39Z</time>
      </trkpt>
      <trkpt lat="45.95613" lon="4.75598">
        <ele>188</ele>
        <time>2017-12-12T11:48:40Z</time>
      </trkpt>
      <trkpt lat="45.9561" lon="4.75592">
        <ele>187</ele>
        <time>2017-12-12T11:48:41Z</time>
      </trkpt>
      <trkpt lat="45.95606" lon="4.75585">
        <ele>187</ele>
        <time>2017-12-12T11:48:42Z</time>
      </trkpt>
      <trkpt lat="45.95603" lon="4.75578">
        <ele>188</ele>
        <time>2017-12-12T11:48:43Z</time>
      </trkpt>
      <trkpt lat="45.95599" lon="4.75572">
        <ele>188</ele>
        <time>2017-12-12T11:48:44Z</time>
      </trkpt>
      <trkpt lat="45.95596" lon="4.75564">
        <ele>188</ele>
        <time>2017-12-12T11:48:45Z</time>
      </trkpt>
      <trkpt lat="45.95591" lon="4.75559">
        <ele>188</ele>
        <time>2017-12-12T11:48:46Z</time>
      </trkpt>
      <trkpt lat="45.95587" lon="4.75555">
        <ele>188</ele>
        <time>2017-12-12T11:48:47Z</time>
      </trkpt>
      <trkpt lat="45.95582" lon="4.75551">
        <ele>186</ele>
        <time>2017-12-12T11:48:48Z</time>
      </trkpt>
      <trkpt lat="45.95577" lon="4.75544">
        <ele>186</ele>
        <time>2017-12-12T11:48:49Z</time>
      </trkpt>
      <trkpt lat="45.95571" lon="4.75537">
        <ele>186</ele>
        <time>2017-12-12T11:48:50Z</time>
      </trkpt>
      <trkpt lat="45.95566" lon="4.75531">
        <ele>186</ele>
        <time>2017-12-12T11:48:51Z</time>
      </trkpt>
      <trkpt lat="45.95561" lon="4.75526">
        <ele>186</ele>
        <time>2017-12-12T11:48:52Z</time>
      </trkpt>
      <trkpt lat="45.95558" lon="4.75521">
        <ele>186</ele>
        <time>2017-12-12T11:48:53Z</time>
      </trkpt>
      <trkpt lat="45.95553" lon="4.75514">
        <ele>186</ele>
        <time>2017-12-12T11:48:54Z</time>
      </trkpt>
      <trkpt lat="45.95549" lon="4.75509">
        <ele>186</ele>
        <time>2017-12-12T11:48:55Z</time>
      </trkpt>
      <trkpt lat="45.95547" lon="4.75501">
        <ele>186</ele>
        <time>2017-12-12T11:48:56Z</time>
      </trkpt>
      <trkpt lat="45.95544" lon="4.75494">
        <ele>187</ele>
        <time>2017-12-12T11:48:57Z</time>
      </trkpt>
      <trkpt lat="45.95544" lon="4.75487">
        <ele>187</ele>
        <time>2017-12-12T11:48:58Z</time>
      </trkpt>
      <trkpt lat="45.95544" lon="4.7548">
        <ele>187</ele>
        <time>2017-12-12T11:48:59Z</time>
      </trkpt>
      <trkpt lat="45.95544" lon="4.75473">
        <ele>187</ele>
        <time>2017-12-12T11:49:00Z</time>
      </trkpt>
      <trkpt lat="45.95542" lon="4.75461">
        <ele>187</ele>
        <time>2017-12-12T11:49:02Z</time>
      </trkpt>
      <trkpt lat="45.95539" lon="4.75454">
        <ele>187</ele>
        <time>2017-12-12T11:49:03Z</time>
      </trkpt>
      <trkpt lat="45.95535" lon="4.75448">
        <ele>187</ele>
        <time>2017-12-12T11:49:04Z</time>
      </trkpt>
      <trkpt lat="45.95529" lon="4.75444">
        <ele>187</ele>
        <time>2017-12-12T11:49:05Z</time>
      </trkpt>
      <trkpt lat="45.95525" lon="4.75438">
        <ele>187</ele>
        <time>2017-12-12T11:49:06Z</time>
      </trkpt>
      <trkpt lat="45.95521" lon="4.75431">
        <ele>187</ele>
        <time>2017-12-12T11:49:07Z</time>
      </trkpt>
      <trkpt lat="45.95518" lon="4.75423">
        <ele>186</ele>
        <time>2017-12-12T11:49:08Z</time>
      </trkpt>
      <trkpt lat="45.95516" lon="4.75416">
        <ele>187</ele>
        <time>2017-12-12T11:49:09Z</time>
      </trkpt>
      <trkpt lat="45.95514" lon="4.7541">
        <ele>187</ele>
        <time>2017-12-12T11:49:10Z</time>
      </trkpt>
      <trkpt lat="45.95512" lon="4.75404">
        <ele>187</ele>
        <time>2017-12-12T11:49:11Z</time>
      </trkpt>
      <trkpt lat="45.95511" lon="4.75397">
        <ele>188</ele>
        <time>2017-12-12T11:49:12Z</time>
      </trkpt>
      <trkpt lat="45.95509" lon="4.75391">
        <ele>188</ele>
        <time>2017-12-12T11:49:13Z</time>
      </trkpt>
      <trkpt lat="45.95505" lon="4.75385">
        <ele>188</ele>
        <time>2017-12-12T11:49:14Z</time>
      </trkpt>
      <trkpt lat="45.95503" lon="4.75379">
        <ele>188</ele>
        <time>2017-12-12T11:49:15Z</time>
      </trkpt>
      <trkpt lat="45.955" lon="4.75373">
        <ele>189</ele>
        <time>2017-12-12T11:49:16Z</time>
      </trkpt>
      <trkpt lat="45.95497" lon="4.75367">
        <ele>186</ele>
        <time>2017-12-12T11:49:17Z</time>
      </trkpt>
      <trkpt lat="45.95494" lon="4.75362">
        <ele>186</ele>
        <time>2017-12-12T11:49:18Z</time>
      </trkpt>
      <trkpt lat="45.9549" lon="4.75355">
        <ele>186</ele>
        <time>2017-12-12T11:49:19Z</time>
      </trkpt>
      <trkpt lat="45.95487" lon="4.7535">
        <ele>186</ele>
        <time>2017-12-12T11:49:20Z</time>
      </trkpt>
      <trkpt lat="45.95483" lon="4.75344">
        <ele>186</ele>
        <time>2017-12-12T11:49:21Z</time>
      </trkpt>
      <trkpt lat="45.9548" lon="4.75338">
        <ele>186</ele>
        <time>2017-12-12T11:49:22Z</time>
      </trkpt>
      <trkpt lat="45.95477" lon="4.75331">
        <ele>188</ele>
        <time>2017-12-12T11:49:23Z</time>
      </trkpt>
      <trkpt lat="45.95474" lon="4.75325">
        <ele>188</ele>
        <time>2017-12-12T11:49:24Z</time>
      </trkpt>
      <trkpt lat="45.95471" lon="4.75319">
        <ele>188</ele>
        <time>2017-12-12T11:49:25Z</time>
      </trkpt>
      <trkpt lat="45.95468" lon="4.75313">
        <ele>188</ele>
        <time>2017-12-12T11:49:26Z</time>
      </trkpt>
      <trkpt lat="45.95466" lon="4.75307">
        <ele>188</ele>
        <time>2017-12-12T11:49:27Z</time>
      </trkpt>
      <trkpt lat="45.95463" lon="4.75301">
        <ele>188</ele>
        <time>2017-12-12T11:49:28Z</time>
      </trkpt>
      <trkpt lat="45.95459" lon="4.75293">
        <ele>188</ele>
        <time>2017-12-12T11:49:29Z</time>
      </trkpt>
      <trkpt lat="45.95456" lon="4.75288">
        <ele>189</ele>
        <time>2017-12-12T11:49:30Z</time>
      </trkpt>
      <trkpt lat="45.95452" lon="4.75282">
        <ele>189</ele>
        <time>2017-12-12T11:49:31Z</time>
      </trkpt>
      <trkpt lat="45.95449" lon="4.75275">
        <ele>189</ele>
        <time>2017-12-12T11:49:32Z</time>
      </trkpt>
      <trkpt lat="45.95446" lon="4.75268">
        <ele>189</ele>
        <time>2017-12-12T11:49:33Z</time>
      </trkpt>
      <trkpt lat="45.95443" lon="4.75262">
        <ele>189</ele>
        <time>2017-12-12T11:49:34Z</time>
      </trkpt>
      <trkpt lat="45.9544" lon="4.75255">
        <ele>189</ele>
        <time>2017-12-12T11:49:35Z</time>
      </trkpt>
      <trkpt lat="45.95435" lon="4.75249">
        <ele>190</ele>
        <time>2017-12-12T11:49:36Z</time>
      </trkpt>
      <trkpt lat="45.9543" lon="4.75243">
        <ele>190</ele>
        <time>2017-12-12T11:49:37Z</time>
      </trkpt>
      <trkpt lat="45.95427" lon="4.75238">
        <ele>190</ele>
        <time>2017-12-12T11:49:38Z</time>
      </trkpt>
      <trkpt lat="45.95423" lon="4.75232">
        <ele>190</ele>
        <time>2017-12-12T11:49:39Z</time>
      </trkpt>
      <trkpt lat="45.95421" lon="4.75226">
        <ele>191</ele>
        <time>2017-12-12T11:49:40Z</time>
      </trkpt>
      <trkpt lat="45.95418" lon="4.75218">
        <ele>191</ele>
        <time>2017-12-12T11:49:41Z</time>
      </trkpt>
      <trkpt lat="45.95416" lon="4.75213">
        <ele>189</ele>
        <time>2017-12-12T11:49:42Z</time>
      </trkpt>
      <trkpt lat="45.95413" lon="4.75207">
        <ele>189</ele>
        <time>2017-12-12T11:49:43Z</time>
      </trkpt>
      <trkpt lat="45.9541" lon="4.75202">
        <ele>189</ele>
        <time>2017-12-12T11:49:44Z</time>
      </trkpt>
      <trkpt lat="45.95406" lon="4.75195">
        <ele>189</ele>
        <time>2017-12-12T11:49:45Z</time>
      </trkpt>
      <trkpt lat="45.95403" lon="4.75189">
        <ele>189</ele>
        <time>2017-12-12T11:49:46Z</time>
      </trkpt>
      <trkpt lat="45.954" lon="4.75183">
        <ele>189</ele>
        <time>2017-12-12T11:49:47Z</time>
      </trkpt>
      <trkpt lat="45.95396" lon="4.75178">
        <ele>189</ele>
        <time>2017-12-12T11:49:48Z</time>
      </trkpt>
      <trkpt lat="45.95392" lon="4.75174">
        <ele>189</ele>
        <time>2017-12-12T11:49:49Z</time>
      </trkpt>
      <trkpt lat="45.95388" lon="4.75163">
        <ele>191</ele>
        <time>2017-12-12T11:49:51Z</time>
      </trkpt>
      <trkpt lat="45.95386" lon="4.75159">
        <ele>191</ele>
        <time>2017-12-12T11:49:52Z</time>
      </trkpt>
      <trkpt lat="45.95383" lon="4.75154">
        <ele>191</ele>
        <time>2017-12-12T11:49:53Z</time>
      </trkpt>
      <trkpt lat="45.9538" lon="4.75149">
        <ele>191</ele>
        <time>2017-12-12T11:49:54Z</time>
      </trkpt>
      <trkpt lat="45.95374" lon="4.75139">
        <ele>191</ele>
        <time>2017-12-12T11:49:56Z</time>
      </trkpt>
      <trkpt lat="45.95371" lon="4.75135">
        <ele>191</ele>
        <time>2017-12-12T11:49:57Z</time>
      </trkpt>
      <trkpt lat="45.95367" lon="4.7513">
        <ele>191</ele>
        <time>2017-12-12T11:49:58Z</time>
      </trkpt>
      <trkpt lat="45.95364" lon="4.75124">
        <ele>191</ele>
        <time>2017-12-12T11:49:59Z</time>
      </trkpt>
      <trkpt lat="45.95361" lon="4.7512">
        <ele>191</ele>
        <time>2017-12-12T11:50:00Z</time>
      </trkpt>
      <trkpt lat="45.95358" lon="4.75113">
        <ele>192</ele>
        <time>2017-12-12T11:50:01Z</time>
      </trkpt>
      <trkpt lat="45.95352" lon="4.75104">
        <ele>192</ele>
        <time>2017-12-12T11:50:03Z</time>
      </trkpt>
      <trkpt lat="45.95349" lon="4.751">
        <ele>192</ele>
        <time>2017-12-12T11:50:04Z</time>
      </trkpt>
      <trkpt lat="45.95346" lon="4.75095">
        <ele>192</ele>
        <time>2017-12-12T11:50:05Z</time>
      </trkpt>
      <trkpt lat="45.95342" lon="4.7509">
        <ele>192</ele>
        <time>2017-12-12T11:50:06Z</time>
      </trkpt>
      <trkpt lat="45.95338" lon="4.75083">
        <ele>193</ele>
        <time>2017-12-12T11:50:07Z</time>
      </trkpt>
      <trkpt lat="45.95336" lon="4.75078">
        <ele>193</ele>
        <time>2017-12-12T11:50:08Z</time>
      </trkpt>
      <trkpt lat="45.95333" lon="4.75073">
        <ele>192</ele>
        <time>2017-12-12T11:50:09Z</time>
      </trkpt>
      <trkpt lat="45.95329" lon="4.75068">
        <ele>192</ele>
        <time>2017-12-12T11:50:10Z</time>
      </trkpt>
      <trkpt lat="45.95323" lon="4.75058">
        <ele>192</ele>
        <time>2017-12-12T11:50:12Z</time>
      </trkpt>
      <trkpt lat="45.95319" lon="4.75054">
        <ele>192</ele>
        <time>2017-12-12T11:50:13Z</time>
      </trkpt>
      <trkpt lat="45.95316" lon="4.75049">
        <ele>192</ele>
        <time>2017-12-12T11:50:14Z</time>
      </trkpt>
      <trkpt lat="45.95313" lon="4.75043">
        <ele>192</ele>
        <time>2017-12-12T11:50:15Z</time>
      </trkpt>
      <trkpt lat="45.95307" lon="4.75035">
        <ele>192</ele>
        <time>2017-12-12T11:50:17Z</time>
      </trkpt>
      <trkpt lat="45.95304" lon="4.75031">
        <ele>192</ele>
        <time>2017-12-12T11:50:18Z</time>
      </trkpt>
      <trkpt lat="45.95301" lon="4.75026">
        <ele>192</ele>
        <time>2017-12-12T11:50:19Z</time>
      </trkpt>
      <trkpt lat="45.95297" lon="4.75021">
        <ele>192</ele>
        <time>2017-12-12T11:50:20Z</time>
      </trkpt>
      <trkpt lat="45.95295" lon="4.75014">
        <ele>192</ele>
        <time>2017-12-12T11:50:21Z</time>
      </trkpt>
      <trkpt lat="45.95292" lon="4.75009">
        <ele>192</ele>
        <time>2017-12-12T11:50:22Z</time>
      </trkpt>
      <trkpt lat="45.95288" lon="4.74999">
        <ele>192</ele>
        <time>2017-12-12T11:50:24Z</time>
      </trkpt>
      <trkpt lat="45.95284" lon="4.74991">
        <ele>192</ele>
        <time>2017-12-12T11:50:25Z</time>
      </trkpt>
      <trkpt lat="45.95281" lon="4.74986">
        <ele>192</ele>
        <time>2017-12-12T11:50:26Z</time>
      </trkpt>
      <trkpt lat="45.95276" lon="4.74979">
        <ele>192</ele>
        <time>2017-12-12T11:50:27Z</time>
      </trkpt>
      <trkpt lat="45.95273" lon="4.74973">
        <ele>192</ele>
        <time>2017-12-12T11:50:28Z</time>
      </trkpt>
      <trkpt lat="45.95269" lon="4.74968">
        <ele>192</ele>
        <time>2017-12-12T11:50:29Z</time>
      </trkpt>
      <trkpt lat="45.95264" lon="4.74962">
        <ele>192</ele>
        <time>2017-12-12T11:50:30Z</time>
      </trkpt>
      <trkpt lat="45.9526" lon="4.74958">
        <ele>192</ele>
        <time>2017-12-12T11:50:31Z</time>
      </trkpt>
      <trkpt lat="45.95257" lon="4.74953">
        <ele>192</ele>
        <time>2017-12-12T11:50:32Z</time>
      </trkpt>
      <trkpt lat="45.95253" lon="4.74947">
        <ele>192</ele>
        <time>2017-12-12T11:50:33Z</time>
      </trkpt>
      <trkpt lat="45.95251" lon="4.74943">
        <ele>193</ele>
        <time>2017-12-12T11:50:34Z</time>
      </trkpt>
      <trkpt lat="45.95247" lon="4.74937">
        <ele>192</ele>
        <time>2017-12-12T11:50:35Z</time>
      </trkpt>
      <trkpt lat="45.95244" lon="4.74932">
        <ele>192</ele>
        <time>2017-12-12T11:50:36Z</time>
      </trkpt>
      <trkpt lat="45.95241" lon="4.74928">
        <ele>192</ele>
        <time>2017-12-12T11:50:37Z</time>
      </trkpt>
      <trkpt lat="45.95236" lon="4.74919">
        <ele>192</ele>
        <time>2017-12-12T11:50:39Z</time>
      </trkpt>
      <trkpt lat="45.95233" lon="4.74913">
        <ele>193</ele>
        <time>2017-12-12T11:50:40Z</time>
      </trkpt>
      <trkpt lat="45.95229" lon="4.74907">
        <ele>193</ele>
        <time>2017-12-12T11:50:41Z</time>
      </trkpt>
      <trkpt lat="45.95226" lon="4.74903">
        <ele>193</ele>
        <time>2017-12-12T11:50:42Z</time>
      </trkpt>
      <trkpt lat="45.95224" lon="4.74898">
        <ele>193</ele>
        <time>2017-12-12T11:50:43Z</time>
      </trkpt>
      <trkpt lat="45.95219" lon="4.74894">
        <ele>193</ele>
        <time>2017-12-12T11:50:44Z</time>
      </trkpt>
      <trkpt lat="45.95216" lon="4.74888">
        <ele>193</ele>
        <time>2017-12-12T11:50:45Z</time>
      </trkpt>
      <trkpt lat="45.95212" lon="4.74882">
        <ele>193</ele>
        <time>2017-12-12T11:50:46Z</time>
      </trkpt>
      <trkpt lat="45.95208" lon="4.74877">
        <ele>194</ele>
        <time>2017-12-12T11:50:47Z</time>
      </trkpt>
      <trkpt lat="45.95204" lon="4.74871">
        <ele>194</ele>
        <time>2017-12-12T11:50:48Z</time>
      </trkpt>
      <trkpt lat="45.952" lon="4.74867">
        <ele>194</ele>
        <time>2017-12-12T11:50:49Z</time>
      </trkpt>
      <trkpt lat="45.95196" lon="4.74862">
        <ele>194</ele>
        <time>2017-12-12T11:50:50Z</time>
      </trkpt>
      <trkpt lat="45.95192" lon="4.74855">
        <ele>194</ele>
        <time>2017-12-12T11:50:51Z</time>
      </trkpt>
      <trkpt lat="45.95189" lon="4.74849">
        <ele>194</ele>
        <time>2017-12-12T11:50:52Z</time>
      </trkpt>
      <trkpt lat="45.95185" lon="4.74843">
        <ele>194</ele>
        <time>2017-12-12T11:50:53Z</time>
      </trkpt>
      <trkpt lat="45.95182" lon="4.74836">
        <ele>194</ele>
        <time>2017-12-12T11:50:54Z</time>
      </trkpt>
      <trkpt lat="45.95177" lon="4.74829">
        <ele>194</ele>
        <time>2017-12-12T11:50:55Z</time>
      </trkpt>
      <trkpt lat="45.95173" lon="4.74823">
        <ele>194</ele>
        <time>2017-12-12T11:50:56Z</time>
      </trkpt>
      <trkpt lat="45.9517" lon="4.74817">
        <ele>194</ele>
        <time>2017-12-12T11:50:57Z</time>
      </trkpt>
      <trkpt lat="45.95165" lon="4.74811">
        <ele>194</ele>
        <time>2017-12-12T11:50:58Z</time>
      </trkpt>
      <trkpt lat="45.95161" lon="4.74805">
        <ele>194</ele>
        <time>2017-12-12T11:50:59Z</time>
      </trkpt>
      <trkpt lat="45.95158" lon="4.748">
        <ele>194</ele>
        <time>2017-12-12T11:51:00Z</time>
      </trkpt>
      <trkpt lat="45.95155" lon="4.74794">
        <ele>194</ele>
        <time>2017-12-12T11:51:01Z</time>
      </trkpt>
      <trkpt lat="45.95152" lon="4.74789">
        <ele>194</ele>
        <time>2017-12-12T11:51:02Z</time>
      </trkpt>
      <trkpt lat="45.95149" lon="4.74783">
        <ele>194</ele>
        <time>2017-12-12T11:51:03Z</time>
      </trkpt>
      <trkpt lat="45.95145" lon="4.74778">
        <ele>194</ele>
        <time>2017-12-12T11:51:04Z</time>
      </trkpt>
      <trkpt lat="45.95143" lon="4.74773">
        <ele>194</ele>
        <time>2017-12-12T11:51:05Z</time>
      </trkpt>
      <trkpt lat="45.9514" lon="4.74768">
        <ele>194</ele>
        <time>2017-12-12T11:51:06Z</time>
      </trkpt>
      <trkpt lat="45.95136" lon="4.74763">
        <ele>194</ele>
        <time>2017-12-12T11:51:07Z</time>
      </trkpt>
      <trkpt lat="45.95133" lon="4.74758">
        <ele>194</ele>
        <time>2017-12-12T11:51:08Z</time>
      </trkpt>
      <trkpt lat="45.95129" lon="4.74753">
        <ele>194</ele>
        <time>2017-12-12T11:51:09Z</time>
      </trkpt>
      <trkpt lat="45.95126" lon="4.74747">
        <ele>194</ele>
        <time>2017-12-12T11:51:10Z</time>
      </trkpt>
      <trkpt lat="45.95122" lon="4.74741">
        <ele>194</ele>
        <time>2017-12-12T11:51:11Z</time>
      </trkpt>
      <trkpt lat="45.95119" lon="4.74735">
        <ele>194</ele>
        <time>2017-12-12T11:51:12Z</time>
      </trkpt>
      <trkpt lat="45.95115" lon="4.7473">
        <ele>194</ele>
        <time>2017-12-12T11:51:13Z</time>
      </trkpt>
      <trkpt lat="45.9511" lon="4.74723">
        <ele>194</ele>
        <time>2017-12-12T11:51:14Z</time>
      </trkpt>
      <trkpt lat="45.95107" lon="4.74717">
        <ele>194</ele>
        <time>2017-12-12T11:51:15Z</time>
      </trkpt>
      <trkpt lat="45.95103" lon="4.74711">
        <ele>194</ele>
        <time>2017-12-12T11:51:16Z</time>
      </trkpt>
      <trkpt lat="45.95098" lon="4.74704">
        <ele>194</ele>
        <time>2017-12-12T11:51:17Z</time>
      </trkpt>
      <trkpt lat="45.95094" lon="4.74699">
        <ele>194</ele>
        <time>2017-12-12T11:51:18Z</time>
      </trkpt>
      <trkpt lat="45.95091" lon="4.74694">
        <ele>194</ele>
        <time>2017-12-12T11:51:19Z</time>
      </trkpt>
      <trkpt lat="45.95088" lon="4.74689">
        <ele>195</ele>
        <time>2017-12-12T11:51:20Z</time>
      </trkpt>
      <trkpt lat="45.95084" lon="4.74683">
        <ele>195</ele>
        <time>2017-12-12T11:51:21Z</time>
      </trkpt>
      <trkpt lat="45.95081" lon="4.74677">
        <ele>194</ele>
        <time>2017-12-12T11:51:22Z</time>
      </trkpt>
      <trkpt lat="45.95078" lon="4.74673">
        <ele>195</ele>
        <time>2017-12-12T11:51:23Z</time>
      </trkpt>
      <trkpt lat="45.95074" lon="4.74668">
        <ele>195</ele>
        <time>2017-12-12T11:51:24Z</time>
      </trkpt>
      <trkpt lat="45.9507" lon="4.74663">
        <ele>195</ele>
        <time>2017-12-12T11:51:25Z</time>
      </trkpt>
      <trkpt lat="45.95067" lon="4.74656">
        <ele>195</ele>
        <time>2017-12-12T11:51:26Z</time>
      </trkpt>
      <trkpt lat="45.95065" lon="4.7465">
        <ele>195</ele>
        <time>2017-12-12T11:51:27Z</time>
      </trkpt>
      <trkpt lat="45.95062" lon="4.74644">
        <ele>194</ele>
        <time>2017-12-12T11:51:28Z</time>
      </trkpt>
      <trkpt lat="45.95059" lon="4.7464">
        <ele>194</ele>
        <time>2017-12-12T11:51:29Z</time>
      </trkpt>
      <trkpt lat="45.95057" lon="4.74633">
        <ele>194</ele>
        <time>2017-12-12T11:51:30Z</time>
      </trkpt>
      <trkpt lat="45.95054" lon="4.74628">
        <ele>194</ele>
        <time>2017-12-12T11:51:31Z</time>
      </trkpt>
      <trkpt lat="45.9505" lon="4.74622">
        <ele>194</ele>
        <time>2017-12-12T11:51:32Z</time>
      </trkpt>
      <trkpt lat="45.95047" lon="4.74617">
        <ele>194</ele>
        <time>2017-12-12T11:51:33Z</time>
      </trkpt>
      <trkpt lat="45.95044" lon="4.74612">
        <ele>194</ele>
        <time>2017-12-12T11:51:34Z</time>
      </trkpt>
      <trkpt lat="45.9504" lon="4.74606">
        <ele>194</ele>
        <time>2017-12-12T11:51:35Z</time>
      </trkpt>
      <trkpt lat="45.95037" lon="4.746">
        <ele>194</ele>
        <time>2017-12-12T11:51:36Z</time>
      </trkpt>
      <trkpt lat="45.95034" lon="4.74594">
        <ele>194</ele>
        <time>2017-12-12T11:51:37Z</time>
      </trkpt>
      <trkpt lat="45.95031" lon="4.74589">
        <ele>194</ele>
        <time>2017-12-12T11:51:38Z</time>
      </trkpt>
      <trkpt lat="45.95029" lon="4.74583">
        <ele>194</ele>
        <time>2017-12-12T11:51:39Z</time>
      </trkpt>
      <trkpt lat="45.95025" lon="4.74576">
        <ele>194</ele>
        <time>2017-12-12T11:51:40Z</time>
      </trkpt>
      <trkpt lat="45.95022" lon="4.74571">
        <ele>194</ele>
        <time>2017-12-12T11:51:41Z</time>
      </trkpt>
      <trkpt lat="45.95018" lon="4.74565">
        <ele>194</ele>
        <time>2017-12-12T11:51:42Z</time>
      </trkpt>
      <trkpt lat="45.95015" lon="4.74558">
        <ele>194</ele>
        <time>2017-12-12T11:51:43Z</time>
      </trkpt>
      <trkpt lat="45.9501" lon="4.74552">
        <ele>194</ele>
        <time>2017-12-12T11:51:44Z</time>
      </trkpt>
      <trkpt lat="45.95007" lon="4.74546">
        <ele>194</ele>
        <time>2017-12-12T11:51:45Z</time>
      </trkpt>
      <trkpt lat="45.95004" lon="4.7454">
        <ele>194</ele>
        <time>2017-12-12T11:51:46Z</time>
      </trkpt>
      <trkpt lat="45.95" lon="4.74531">
        <ele>193</ele>
        <time>2017-12-12T11:51:47Z</time>
      </trkpt>
      <trkpt lat="45.94996" lon="4.74526">
        <ele>193</ele>
        <time>2017-12-12T11:51:48Z</time>
      </trkpt>
      <trkpt lat="45.94993" lon="4.74518">
        <ele>193</ele>
        <time>2017-12-12T11:51:49Z</time>
      </trkpt>
      <trkpt lat="45.9499" lon="4.7451">
        <ele>193</ele>
        <time>2017-12-12T11:51:50Z</time>
      </trkpt>
      <trkpt lat="45.94987" lon="4.74503">
        <ele>193</ele>
        <time>2017-12-12T11:51:51Z</time>
      </trkpt>
      <trkpt lat="45.94984" lon="4.74496">
        <ele>193</ele>
        <time>2017-12-12T11:51:52Z</time>
      </trkpt>
      <trkpt lat="45.94981" lon="4.74489">
        <ele>193</ele>
        <time>2017-12-12T11:51:53Z</time>
      </trkpt>
      <trkpt lat="45.94978" lon="4.74483">
        <ele>193</ele>
        <time>2017-12-12T11:51:54Z</time>
      </trkpt>
      <trkpt lat="45.94974" lon="4.74477">
        <ele>193</ele>
        <time>2017-12-12T11:51:55Z</time>
      </trkpt>
      <trkpt lat="45.94971" lon="4.74472">
        <ele>193</ele>
        <time>2017-12-12T11:51:56Z</time>
      </trkpt>
      <trkpt lat="45.94967" lon="4.74466">
        <ele>193</ele>
        <time>2017-12-12T11:51:57Z</time>
      </trkpt>
      <trkpt lat="45.94964" lon="4.7446">
        <ele>193</ele>
        <time>2017-12-12T11:51:58Z</time>
      </trkpt>
      <trkpt lat="45.94962" lon="4.74454">
        <ele>192</ele>
        <time>2017-12-12T11:51:59Z</time>
      </trkpt>
      <trkpt lat="45.94958" lon="4.74448">
        <ele>192</ele>
        <time>2017-12-12T11:52:00Z</time>
      </trkpt>
      <trkpt lat="45.94954" lon="4.74442">
        <ele>192</ele>
        <time>2017-12-12T11:52:01Z</time>
      </trkpt>
      <trkpt lat="45.94951" lon="4.74435">
        <ele>192</ele>
        <time>2017-12-12T11:52:02Z</time>
      </trkpt>
      <trkpt lat="45.94948" lon="4.74431">
        <ele>192</ele>
        <time>2017-12-12T11:52:03Z</time>
      </trkpt>
      <trkpt lat="45.94945" lon="4.74424">
        <ele>192</ele>
        <time>2017-12-12T11:52:04Z</time>
      </trkpt>
      <trkpt lat="45.94942" lon="4.74419">
        <ele>192</ele>
        <time>2017-12-12T11:52:05Z</time>
      </trkpt>
      <trkpt lat="45.94939" lon="4.74413">
        <ele>192</ele>
        <time>2017-12-12T11:52:06Z</time>
      </trkpt>
      <trkpt lat="45.94936" lon="4.74406">
        <ele>192</ele>
        <time>2017-12-12T11:52:07Z</time>
      </trkpt>
      <trkpt lat="45.94933" lon="4.744">
        <ele>192</ele>
        <time>2017-12-12T11:52:08Z</time>
      </trkpt>
      <trkpt lat="45.9493" lon="4.74393">
        <ele>192</ele>
        <time>2017-12-12T11:52:09Z</time>
      </trkpt>
      <trkpt lat="45.94926" lon="4.74386">
        <ele>192</ele>
        <time>2017-12-12T11:52:10Z</time>
      </trkpt>
      <trkpt lat="45.94923" lon="4.74377">
        <ele>192</ele>
        <time>2017-12-12T11:52:11Z</time>
      </trkpt>
      <trkpt lat="45.9492" lon="4.7437">
        <ele>192</ele>
        <time>2017-12-12T11:52:12Z</time>
      </trkpt>
      <trkpt lat="45.94916" lon="4.74362">
        <ele>191</ele>
        <time>2017-12-12T11:52:13Z</time>
      </trkpt>
      <trkpt lat="45.94911" lon="4.74354">
        <ele>191</ele>
        <time>2017-12-12T11:52:14Z</time>
      </trkpt>
      <trkpt lat="45.94906" lon="4.74347">
        <ele>191</ele>
        <time>2017-12-12T11:52:15Z</time>
      </trkpt>
      <trkpt lat="45.94903" lon="4.74339">
        <ele>191</ele>
        <time>2017-12-12T11:52:16Z</time>
      </trkpt>
      <trkpt lat="45.949" lon="4.74332">
        <ele>191</ele>
        <time>2017-12-12T11:52:17Z</time>
      </trkpt>
      <trkpt lat="45.94897" lon="4.74325">
        <ele>191</ele>
        <time>2017-12-12T11:52:18Z</time>
      </trkpt>
      <trkpt lat="45.94893" lon="4.74318">
        <ele>191</ele>
        <time>2017-12-12T11:52:19Z</time>
      </trkpt>
      <trkpt lat="45.94889" lon="4.7431">
        <ele>191</ele>
        <time>2017-12-12T11:52:20Z</time>
      </trkpt>
      <trkpt lat="45.94886" lon="4.74304">
        <ele>191</ele>
        <time>2017-12-12T11:52:21Z</time>
      </trkpt>
      <trkpt lat="45.94883" lon="4.74298">
        <ele>191</ele>
        <time>2017-12-12T11:52:22Z</time>
      </trkpt>
      <trkpt lat="45.94879" lon="4.74291">
        <ele>191</ele>
        <time>2017-12-12T11:52:23Z</time>
      </trkpt>
      <trkpt lat="45.94875" lon="4.74284">
        <ele>191</ele>
        <time>2017-12-12T11:52:24Z</time>
      </trkpt>
      <trkpt lat="45.94872" lon="4.74278">
        <ele>191</ele>
        <time>2017-12-12T11:52:25Z</time>
      </trkpt>
      <trkpt lat="45.94868" lon="4.74271">
        <ele>191</ele>
        <time>2017-12-12T11:52:26Z</time>
      </trkpt>
      <trkpt lat="45.94864" lon="4.74265">
        <ele>190</ele>
        <time>2017-12-12T11:52:27Z</time>
      </trkpt>
      <trkpt lat="45.94862" lon="4.74259">
        <ele>190</ele>
        <time>2017-12-12T11:52:28Z</time>
      </trkpt>
      <trkpt lat="45.94858" lon="4.74252">
        <ele>190</ele>
        <time>2017-12-12T11:52:29Z</time>
      </trkpt>
      <trkpt lat="45.94855" lon="4.74243">
        <ele>190</ele>
        <time>2017-12-12T11:52:30Z</time>
      </trkpt>
      <trkpt lat="45.9485" lon="4.74234">
        <ele>190</ele>
        <time>2017-12-12T11:52:31Z</time>
      </trkpt>
      <trkpt lat="45.94846" lon="4.74226">
        <ele>190</ele>
        <time>2017-12-12T11:52:32Z</time>
      </trkpt>
      <trkpt lat="45.94843" lon="4.74218">
        <ele>190</ele>
        <time>2017-12-12T11:52:33Z</time>
      </trkpt>
      <trkpt lat="45.94839" lon="4.74212">
        <ele>190</ele>
        <time>2017-12-12T11:52:34Z</time>
      </trkpt>
      <trkpt lat="45.94834" lon="4.74202">
        <ele>190</ele>
        <time>2017-12-12T11:52:35Z</time>
      </trkpt>
      <trkpt lat="45.94831" lon="4.74195">
        <ele>189</ele>
        <time>2017-12-12T11:52:36Z</time>
      </trkpt>
      <trkpt lat="45.94827" lon="4.74188">
        <ele>189</ele>
        <time>2017-12-12T11:52:37Z</time>
      </trkpt>
      <trkpt lat="45.94823" lon="4.74181">
        <ele>189</ele>
        <time>2017-12-12T11:52:38Z</time>
      </trkpt>
      <trkpt lat="45.94818" lon="4.74175">
        <ele>189</ele>
        <time>2017-12-12T11:52:39Z</time>
      </trkpt>
      <trkpt lat="45.94814" lon="4.74166">
        <ele>189</ele>
        <time>2017-12-12T11:52:40Z</time>
      </trkpt>
      <trkpt lat="45.9481" lon="4.7416">
        <ele>189</ele>
        <time>2017-12-12T11:52:41Z</time>
      </trkpt>
      <trkpt lat="45.94806" lon="4.74154">
        <ele>189</ele>
        <time>2017-12-12T11:52:42Z</time>
      </trkpt>
      <trkpt lat="45.94803" lon="4.74148">
        <ele>189</ele>
        <time>2017-12-12T11:52:43Z</time>
      </trkpt>
      <trkpt lat="45.94799" lon="4.74144">
        <ele>189</ele>
        <time>2017-12-12T11:52:44Z</time>
      </trkpt>
      <trkpt lat="45.94793" lon="4.74136">
        <ele>189</ele>
        <time>2017-12-12T11:52:46Z</time>
      </trkpt>
      <trkpt lat="45.9479" lon="4.7413">
        <ele>189</ele>
        <time>2017-12-12T11:52:47Z</time>
      </trkpt>
      <trkpt lat="45.94786" lon="4.74124">
        <ele>189</ele>
        <time>2017-12-12T11:52:48Z</time>
      </trkpt>
      <trkpt lat="45.94781" lon="4.74118">
        <ele>189</ele>
        <time>2017-12-12T11:52:49Z</time>
      </trkpt>
      <trkpt lat="45.94777" lon="4.74112">
        <ele>189</ele>
        <time>2017-12-12T11:52:50Z</time>
      </trkpt>
      <trkpt lat="45.94773" lon="4.74107">
        <ele>189</ele>
        <time>2017-12-12T11:52:51Z</time>
      </trkpt>
      <trkpt lat="45.94769" lon="4.74101">
        <ele>189</ele>
        <time>2017-12-12T11:52:52Z</time>
      </trkpt>
      <trkpt lat="45.94766" lon="4.74095">
        <ele>189</ele>
        <time>2017-12-12T11:52:53Z</time>
      </trkpt>
      <trkpt lat="45.94764" lon="4.74091">
        <ele>189</ele>
        <time>2017-12-12T11:52:54Z</time>
      </trkpt>
      <trkpt lat="45.94757" lon="4.74086">
        <ele>189</ele>
        <time>2017-12-12T11:52:55Z</time>
      </trkpt>
      <trkpt lat="45.94754" lon="4.7408">
        <ele>189</ele>
        <time>2017-12-12T11:52:56Z</time>
      </trkpt>
      <trkpt lat="45.94748" lon="4.74075">
        <ele>188</ele>
        <time>2017-12-12T11:52:57Z</time>
      </trkpt>
      <trkpt lat="45.94743" lon="4.7407">
        <ele>188</ele>
        <time>2017-12-12T11:52:58Z</time>
      </trkpt>
      <trkpt lat="45.94741" lon="4.74066">
        <ele>188</ele>
        <time>2017-12-12T11:52:59Z</time>
      </trkpt>
      <trkpt lat="45.94737" lon="4.74059">
        <ele>188</ele>
        <time>2017-12-12T11:53:00Z</time>
      </trkpt>
      <trkpt lat="45.94733" lon="4.74051">
        <ele>188</ele>
        <time>2017-12-12T11:53:01Z</time>
      </trkpt>
      <trkpt lat="45.94729" lon="4.74045">
        <ele>188</ele>
        <time>2017-12-12T11:53:02Z</time>
      </trkpt>
      <trkpt lat="45.94725" lon="4.74039">
        <ele>187</ele>
        <time>2017-12-12T11:53:03Z</time>
      </trkpt>
      <trkpt lat="45.94721" lon="4.74034">
        <ele>187</ele>
        <time>2017-12-12T11:53:04Z</time>
      </trkpt>
      <trkpt lat="45.94718" lon="4.74029">
        <ele>187</ele>
        <time>2017-12-12T11:53:05Z</time>
      </trkpt>
      <trkpt lat="45.94715" lon="4.74023">
        <ele>187</ele>
        <time>2017-12-12T11:53:06Z</time>
      </trkpt>
      <trkpt lat="45.94711" lon="4.74018">
        <ele>187</ele>
        <time>2017-12-12T11:53:07Z</time>
      </trkpt>
      <trkpt lat="45.94708" lon="4.74013">
        <ele>187</ele>
        <time>2017-12-12T11:53:08Z</time>
      </trkpt>
      <trkpt lat="45.94704" lon="4.74007">
        <ele>187</ele>
        <time>2017-12-12T11:53:09Z</time>
      </trkpt>
      <trkpt lat="45.94701" lon="4.74002">
        <ele>187</ele>
        <time>2017-12-12T11:53:10Z</time>
      </trkpt>
      <trkpt lat="45.94695" lon="4.73998">
        <ele>187</ele>
        <time>2017-12-12T11:53:11Z</time>
      </trkpt>
      <trkpt lat="45.94691" lon="4.73993">
        <ele>187</ele>
        <time>2017-12-12T11:53:12Z</time>
      </trkpt>
      <trkpt lat="45.94687" lon="4.73987">
        <ele>187</ele>
        <time>2017-12-12T11:53:13Z</time>
      </trkpt>
      <trkpt lat="45.94683" lon="4.73981">
        <ele>187</ele>
        <time>2017-12-12T11:53:14Z</time>
      </trkpt>
      <trkpt lat="45.94678" lon="4.73976">
        <ele>187</ele>
        <time>2017-12-12T11:53:15Z</time>
      </trkpt>
      <trkpt lat="45.94672" lon="4.73969">
        <ele>187</ele>
        <time>2017-12-12T11:53:16Z</time>
      </trkpt>
      <trkpt lat="45.94668" lon="4.73964">
        <ele>187</ele>
        <time>2017-12-12T11:53:17Z</time>
      </trkpt>
      <trkpt lat="45.94663" lon="4.73957">
        <ele>187</ele>
        <time>2017-12-12T11:53:18Z</time>
      </trkpt>
      <trkpt lat="45.9466" lon="4.73951">
        <ele>187</ele>
        <time>2017-12-12T11:53:19Z</time>
      </trkpt>
      <trkpt lat="45.94654" lon="4.73945">
        <ele>187</ele>
        <time>2017-12-12T11:53:20Z</time>
      </trkpt>
      <trkpt lat="45.94649" lon="4.7394">
        <ele>187</ele>
        <time>2017-12-12T11:53:21Z</time>
      </trkpt>
      <trkpt lat="45.94645" lon="4.73933">
        <ele>187</ele>
        <time>2017-12-12T11:53:22Z</time>
      </trkpt>
      <trkpt lat="45.94641" lon="4.73929">
        <ele>187</ele>
        <time>2017-12-12T11:53:23Z</time>
      </trkpt>
      <trkpt lat="45.94637" lon="4.73922">
        <ele>187</ele>
        <time>2017-12-12T11:53:24Z</time>
      </trkpt>
      <trkpt lat="45.94634" lon="4.73914">
        <ele>187</ele>
        <time>2017-12-12T11:53:25Z</time>
      </trkpt>
      <trkpt lat="45.9463" lon="4.73908">
        <ele>187</ele>
        <time>2017-12-12T11:53:26Z</time>
      </trkpt>
      <trkpt lat="45.94627" lon="4.73903">
        <ele>187</ele>
        <time>2017-12-12T11:53:27Z</time>
      </trkpt>
      <trkpt lat="45.94622" lon="4.73898">
        <ele>187</ele>
        <time>2017-12-12T11:53:28Z</time>
      </trkpt>
      <trkpt lat="45.94618" lon="4.73891">
        <ele>187</ele>
        <time>2017-12-12T11:53:29Z</time>
      </trkpt>
      <trkpt lat="45.94612" lon="4.73886">
        <ele>187</ele>
        <time>2017-12-12T11:53:30Z</time>
      </trkpt>
      <trkpt lat="45.94609" lon="4.73882">
        <ele>187</ele>
        <time>2017-12-12T11:53:31Z</time>
      </trkpt>
      <trkpt lat="45.94603" lon="4.73876">
        <ele>187</ele>
        <time>2017-12-12T11:53:32Z</time>
      </trkpt>
      <trkpt lat="45.94599" lon="4.73872">
        <ele>187</ele>
        <time>2017-12-12T11:53:33Z</time>
      </trkpt>
      <trkpt lat="45.94594" lon="4.73867">
        <ele>187</ele>
        <time>2017-12-12T11:53:34Z</time>
      </trkpt>
      <trkpt lat="45.9459" lon="4.73861">
        <ele>187</ele>
        <time>2017-12-12T11:53:35Z</time>
      </trkpt>
      <trkpt lat="45.94586" lon="4.73858">
        <ele>187</ele>
        <time>2017-12-12T11:53:36Z</time>
      </trkpt>
      <trkpt lat="45.94581" lon="4.73855">
        <ele>186</ele>
        <time>2017-12-12T11:53:37Z</time>
      </trkpt>
      <trkpt lat="45.94576" lon="4.7385">
        <ele>186</ele>
        <time>2017-12-12T11:53:38Z</time>
      </trkpt>
      <trkpt lat="45.94572" lon="4.73845">
        <ele>186</ele>
        <time>2017-12-12T11:53:39Z</time>
      </trkpt>
      <trkpt lat="45.94568" lon="4.73841">
        <ele>186</ele>
        <time>2017-12-12T11:53:40Z</time>
      </trkpt>
      <trkpt lat="45.94564" lon="4.73837">
        <ele>186</ele>
        <time>2017-12-12T11:53:41Z</time>
      </trkpt>
      <trkpt lat="45.9456" lon="4.73833">
        <ele>186</ele>
        <time>2017-12-12T11:53:42Z</time>
      </trkpt>
      <trkpt lat="45.94555" lon="4.7383">
        <ele>186</ele>
        <time>2017-12-12T11:53:43Z</time>
      </trkpt>
      <trkpt lat="45.9455" lon="4.73826">
        <ele>186</ele>
        <time>2017-12-12T11:53:44Z</time>
      </trkpt>
      <trkpt lat="45.94545" lon="4.73821">
        <ele>186</ele>
        <time>2017-12-12T11:53:45Z</time>
      </trkpt>
      <trkpt lat="45.94541" lon="4.73817">
        <ele>186</ele>
        <time>2017-12-12T11:53:46Z</time>
      </trkpt>
      <trkpt lat="45.94536" lon="4.73812">
        <ele>186</ele>
        <time>2017-12-12T11:53:47Z</time>
      </trkpt>
      <trkpt lat="45.94531" lon="4.73807">
        <ele>186</ele>
        <time>2017-12-12T11:53:48Z</time>
      </trkpt>
      <trkpt lat="45.94525" lon="4.73802">
        <ele>186</ele>
        <time>2017-12-12T11:53:49Z</time>
      </trkpt>
      <trkpt lat="45.94521" lon="4.73797">
        <ele>186</ele>
        <time>2017-12-12T11:53:50Z</time>
      </trkpt>
      <trkpt lat="45.94516" lon="4.73791">
        <ele>186</ele>
        <time>2017-12-12T11:53:51Z</time>
      </trkpt>
      <trkpt lat="45.94511" lon="4.73786">
        <ele>186</ele>
        <time>2017-12-12T11:53:52Z</time>
      </trkpt>
      <trkpt lat="45.94507" lon="4.73782">
        <ele>186</ele>
        <time>2017-12-12T11:53:53Z</time>
      </trkpt>
      <trkpt lat="45.94502" lon="4.73777">
        <ele>186</ele>
        <time>2017-12-12T11:53:54Z</time>
      </trkpt>
      <trkpt lat="45.94498" lon="4.73772">
        <ele>186</ele>
        <time>2017-12-12T11:53:55Z</time>
      </trkpt>
      <trkpt lat="45.94495" lon="4.73765">
        <ele>186</ele>
        <time>2017-12-12T11:53:56Z</time>
      </trkpt>
      <trkpt lat="45.94492" lon="4.73759">
        <ele>186</ele>
        <time>2017-12-12T11:53:57Z</time>
      </trkpt>
      <trkpt lat="45.9449" lon="4.73752">
        <ele>186</ele>
        <time>2017-12-12T11:53:58Z</time>
      </trkpt>
      <trkpt lat="45.94489" lon="4.73745">
        <ele>186</ele>
        <time>2017-12-12T11:53:59Z</time>
      </trkpt>
      <trkpt lat="45.94489" lon="4.73736">
        <ele>186</ele>
        <time>2017-12-12T11:54:00Z</time>
      </trkpt>
      <trkpt lat="45.94489" lon="4.73728">
        <ele>186</ele>
        <time>2017-12-12T11:54:01Z</time>
      </trkpt>
      <trkpt lat="45.9449" lon="4.73719">
        <ele>186</ele>
        <time>2017-12-12T11:54:02Z</time>
      </trkpt>
      <trkpt lat="45.94491" lon="4.73711">
        <ele>186</ele>
        <time>2017-12-12T11:54:03Z</time>
      </trkpt>
      <trkpt lat="45.94492" lon="4.73703">
        <ele>186</ele>
        <time>2017-12-12T11:54:04Z</time>
      </trkpt>
      <trkpt lat="45.94494" lon="4.73695">
        <ele>186</ele>
        <time>2017-12-12T11:54:05Z</time>
      </trkpt>
      <trkpt lat="45.94495" lon="4.73687">
        <ele>186</ele>
        <time>2017-12-12T11:54:06Z</time>
      </trkpt>
      <trkpt lat="45.94495" lon="4.73679">
        <ele>185</ele>
        <time>2017-12-12T11:54:07Z</time>
      </trkpt>
      <trkpt lat="45.94496" lon="4.7367">
        <ele>185</ele>
        <time>2017-12-12T11:54:08Z</time>
      </trkpt>
      <trkpt lat="45.94497" lon="4.73663">
        <ele>185</ele>
        <time>2017-12-12T11:54:09Z</time>
      </trkpt>
      <trkpt lat="45.94498" lon="4.73656">
        <ele>185</ele>
        <time>2017-12-12T11:54:10Z</time>
      </trkpt>
      <trkpt lat="45.945" lon="4.73648">
        <ele>185</ele>
        <time>2017-12-12T11:54:11Z</time>
      </trkpt>
      <trkpt lat="45.94502" lon="4.73641">
        <ele>184</ele>
        <time>2017-12-12T11:54:12Z</time>
      </trkpt>
      <trkpt lat="45.94504" lon="4.73633">
        <ele>184</ele>
        <time>2017-12-12T11:54:13Z</time>
      </trkpt>
      <trkpt lat="45.94504" lon="4.73626">
        <ele>184</ele>
        <time>2017-12-12T11:54:14Z</time>
      </trkpt>
      <trkpt lat="45.94505" lon="4.73618">
        <ele>184</ele>
        <time>2017-12-12T11:54:15Z</time>
      </trkpt>
      <trkpt lat="45.94505" lon="4.7361">
        <ele>184</ele>
        <time>2017-12-12T11:54:16Z</time>
      </trkpt>
      <trkpt lat="45.94506" lon="4.736">
        <ele>184</ele>
        <time>2017-12-12T11:54:17Z</time>
      </trkpt>
      <trkpt lat="45.94507" lon="4.73592">
        <ele>184</ele>
        <time>2017-12-12T11:54:18Z</time>
      </trkpt>
      <trkpt lat="45.94506" lon="4.73584">
        <ele>185</ele>
        <time>2017-12-12T11:54:19Z</time>
      </trkpt>
      <trkpt lat="45.94507" lon="4.73577">
        <ele>184</ele>
        <time>2017-12-12T11:54:20Z</time>
      </trkpt>
      <trkpt lat="45.94507" lon="4.73569">
        <ele>184</ele>
        <time>2017-12-12T11:54:21Z</time>
      </trkpt>
      <trkpt lat="45.94508" lon="4.73559">
        <ele>184</ele>
        <time>2017-12-12T11:54:22Z</time>
      </trkpt>
      <trkpt lat="45.94508" lon="4.73551">
        <ele>183</ele>
        <time>2017-12-12T11:54:23Z</time>
      </trkpt>
      <trkpt lat="45.94509" lon="4.73542">
        <ele>183</ele>
        <time>2017-12-12T11:54:24Z</time>
      </trkpt>
      <trkpt lat="45.94509" lon="4.73534">
        <ele>183</ele>
        <time>2017-12-12T11:54:25Z</time>
      </trkpt>
      <trkpt lat="45.94509" lon="4.73526">
        <ele>183</ele>
        <time>2017-12-12T11:54:26Z</time>
      </trkpt>
      <trkpt lat="45.94509" lon="4.73518">
        <ele>183</ele>
        <time>2017-12-12T11:54:27Z</time>
      </trkpt>
      <trkpt lat="45.9451" lon="4.73509">
        <ele>183</ele>
        <time>2017-12-12T11:54:28Z</time>
      </trkpt>
      <trkpt lat="45.9451" lon="4.73501">
        <ele>183</ele>
        <time>2017-12-12T11:54:29Z</time>
      </trkpt>
      <trkpt lat="45.9451" lon="4.73491">
        <ele>182</ele>
        <time>2017-12-12T11:54:30Z</time>
      </trkpt>
      <trkpt lat="45.94509" lon="4.73482">
        <ele>182</ele>
        <time>2017-12-12T11:54:31Z</time>
      </trkpt>
      <trkpt lat="45.94509" lon="4.73473">
        <ele>182</ele>
        <time>2017-12-12T11:54:32Z</time>
      </trkpt>
      <trkpt lat="45.94509" lon="4.73464">
        <ele>181</ele>
        <time>2017-12-12T11:54:33Z</time>
      </trkpt>
      <trkpt lat="45.94509" lon="4.73455">
        <ele>181</ele>
        <time>2017-12-12T11:54:34Z</time>
      </trkpt>
      <trkpt lat="45.94508" lon="4.73447">
        <ele>181</ele>
        <time>2017-12-12T11:54:35Z</time>
      </trkpt>
      <trkpt lat="45.94508" lon="4.7344">
        <ele>181</ele>
        <time>2017-12-12T11:54:36Z</time>
      </trkpt>
      <trkpt lat="45.94508" lon="4.73433">
        <ele>181</ele>
        <time>2017-12-12T11:54:37Z</time>
      </trkpt>
      <trkpt lat="45.94508" lon="4.73422">
        <ele>180</ele>
        <time>2017-12-12T11:54:39Z</time>
      </trkpt>
      <trkpt lat="45.94507" lon="4.73419">
        <ele>180</ele>
        <time>2017-12-12T11:54:40Z</time>
      </trkpt>
      <trkpt lat="45.94506" lon="4.73407">
        <ele>179</ele>
        <time>2017-12-12T11:54:43Z</time>
      </trkpt>
      <trkpt lat="45.94506" lon="4.73403">
        <ele>179</ele>
        <time>2017-12-12T11:54:44Z</time>
      </trkpt>
      <trkpt lat="45.94506" lon="4.73394">
        <ele>179</ele>
        <time>2017-12-12T11:54:46Z</time>
      </trkpt>
      <trkpt lat="45.94505" lon="4.73389">
        <ele>179</ele>
        <time>2017-12-12T11:54:47Z</time>
      </trkpt>
      <trkpt lat="45.94503" lon="4.73377">
        <ele>178</ele>
        <time>2017-12-12T11:54:49Z</time>
      </trkpt>
      <trkpt lat="45.94502" lon="4.73371">
        <ele>178</ele>
        <time>2017-12-12T11:54:50Z</time>
      </trkpt>
      <trkpt lat="45.94501" lon="4.7336">
        <ele>178</ele>
        <time>2017-12-12T11:54:52Z</time>
      </trkpt>
      <trkpt lat="45.94501" lon="4.73356">
        <ele>178</ele>
        <time>2017-12-12T11:54:53Z</time>
      </trkpt>
      <trkpt lat="45.945" lon="4.73343">
        <ele>177</ele>
        <time>2017-12-12T11:56:12Z</time>
      </trkpt>
      <trkpt lat="45.945" lon="4.73341">
        <ele>177</ele>
        <time>2017-12-12T11:56:13Z</time>
      </trkpt>
      <trkpt lat="45.945" lon="4.73332">
        <ele>177</ele>
        <time>2017-12-12T11:56:16Z</time>
      </trkpt>
      <trkpt lat="45.945" lon="4.73328">
        <ele>177</ele>
        <time>2017-12-12T11:56:17Z</time>
      </trkpt>
      <trkpt lat="45.94499" lon="4.73318">
        <ele>177</ele>
        <time>2017-12-12T11:56:19Z</time>
      </trkpt>
      <trkpt lat="45.94498" lon="4.73312">
        <ele>177</ele>
        <time>2017-12-12T11:56:20Z</time>
      </trkpt>
      <trkpt lat="45.94497" lon="4.733">
        <ele>177</ele>
        <time>2017-12-12T11:56:22Z</time>
      </trkpt>
      <trkpt lat="45.94496" lon="4.73293">
        <ele>177</ele>
        <time>2017-12-12T11:56:23Z</time>
      </trkpt>
      <trkpt lat="45.94494" lon="4.73286">
        <ele>177</ele>
        <time>2017-12-12T11:56:24Z</time>
      </trkpt>
      <trkpt lat="45.94492" lon="4.7328">
        <ele>177</ele>
        <time>2017-12-12T11:56:25Z</time>
      </trkpt>
      <trkpt lat="45.94491" lon="4.73273">
        <ele>177</ele>
        <time>2017-12-12T11:56:26Z</time>
      </trkpt>
      <trkpt lat="45.94491" lon="4.73267">
        <ele>176</ele>
        <time>2017-12-12T11:56:27Z</time>
      </trkpt>
      <trkpt lat="45.9449" lon="4.7326">
        <ele>176</ele>
        <time>2017-12-12T11:56:28Z</time>
      </trkpt>
      <trkpt lat="45.94489" lon="4.73252">
        <ele>176</ele>
        <time>2017-12-12T11:56:29Z</time>
      </trkpt>
      <trkpt lat="45.94489" lon="4.73246">
        <ele>175</ele>
        <time>2017-12-12T11:56:30Z</time>
      </trkpt>
      <trkpt lat="45.94488" lon="4.73239">
        <ele>175</ele>
        <time>2017-12-12T11:56:31Z</time>
      </trkpt>
      <trkpt lat="45.94486" lon="4.73231">
        <ele>175</ele>
        <time>2017-12-12T11:56:32Z</time>
      </trkpt>
      <trkpt lat="45.94484" lon="4.73222">
        <ele>175</ele>
        <time>2017-12-12T11:56:33Z</time>
      </trkpt>
      <trkpt lat="45.94484" lon="4.73215">
        <ele>175</ele>
        <time>2017-12-12T11:56:34Z</time>
      </trkpt>
      <trkpt lat="45.94483" lon="4.73207">
        <ele>175</ele>
        <time>2017-12-12T11:56:35Z</time>
      </trkpt>
      <trkpt lat="45.94482" lon="4.73198">
        <ele>174</ele>
        <time>2017-12-12T11:56:36Z</time>
      </trkpt>
      <trkpt lat="45.9448" lon="4.73189">
        <ele>174</ele>
        <time>2017-12-12T11:56:37Z</time>
      </trkpt>
      <trkpt lat="45.94478" lon="4.73181">
        <ele>174</ele>
        <time>2017-12-12T11:56:38Z</time>
      </trkpt>
      <trkpt lat="45.94477" lon="4.73172">
        <ele>174</ele>
        <time>2017-12-12T11:56:39Z</time>
      </trkpt>
      <trkpt lat="45.94475" lon="4.73165">
        <ele>173</ele>
        <time>2017-12-12T11:56:40Z</time>
      </trkpt>
      <trkpt lat="45.94475" lon="4.73156">
        <ele>173</ele>
        <time>2017-12-12T11:56:41Z</time>
      </trkpt>
      <trkpt lat="45.94473" lon="4.73148">
        <ele>172</ele>
        <time>2017-12-12T11:56:42Z</time>
      </trkpt>
      <trkpt lat="45.94472" lon="4.73141">
        <ele>172</ele>
        <time>2017-12-12T11:56:43Z</time>
      </trkpt>
      <trkpt lat="45.94472" lon="4.73133">
        <ele>172</ele>
        <time>2017-12-12T11:56:44Z</time>
      </trkpt>
      <trkpt lat="45.94471" lon="4.73126">
        <ele>172</ele>
        <time>2017-12-12T11:56:45Z</time>
      </trkpt>
      <trkpt lat="45.94471" lon="4.73118">
        <ele>172</ele>
        <time>2017-12-12T11:56:46Z</time>
      </trkpt>
      <trkpt lat="45.9447" lon="4.73112">
        <ele>172</ele>
        <time>2017-12-12T11:56:47Z</time>
      </trkpt>
      <trkpt lat="45.94468" lon="4.73105">
        <ele>172</ele>
        <time>2017-12-12T11:56:48Z</time>
      </trkpt>
      <trkpt lat="45.94467" lon="4.73099">
        <ele>172</ele>
        <time>2017-12-12T11:56:49Z</time>
      </trkpt>
      <trkpt lat="45.94466" lon="4.7309">
        <ele>172</ele>
        <time>2017-12-12T11:56:50Z</time>
      </trkpt>
      <trkpt lat="45.94465" lon="4.73083">
        <ele>170</ele>
        <time>2017-12-12T11:56:51Z</time>
      </trkpt>
      <trkpt lat="45.94465" lon="4.73077">
        <ele>170</ele>
        <time>2017-12-12T11:56:52Z</time>
      </trkpt>
      <trkpt lat="45.94463" lon="4.73069">
        <ele>170</ele>
        <time>2017-12-12T11:56:53Z</time>
      </trkpt>
      <trkpt lat="45.94462" lon="4.73056">
        <ele>170</ele>
        <time>2017-12-12T11:56:55Z</time>
      </trkpt>
      <trkpt lat="45.94462" lon="4.73051">
        <ele>170</ele>
        <time>2017-12-12T11:56:56Z</time>
      </trkpt>
      <trkpt lat="45.94461" lon="4.7304">
        <ele>170</ele>
        <time>2017-12-12T11:56:58Z</time>
      </trkpt>
      <trkpt lat="45.9446" lon="4.73035">
        <ele>169</ele>
        <time>2017-12-12T11:56:59Z</time>
      </trkpt>
      <trkpt lat="45.94459" lon="4.73024">
        <ele>169</ele>
        <time>2017-12-12T11:57:01Z</time>
      </trkpt>
      <trkpt lat="45.94458" lon="4.73018">
        <ele>169</ele>
        <time>2017-12-12T11:57:02Z</time>
      </trkpt>
      <trkpt lat="45.94457" lon="4.73008">
        <ele>169</ele>
        <time>2017-12-12T11:57:04Z</time>
      </trkpt>
      <trkpt lat="45.94456" lon="4.73002">
        <ele>169</ele>
        <time>2017-12-12T11:57:05Z</time>
      </trkpt>
      <trkpt lat="45.94454" lon="4.72992">
        <ele>168</ele>
        <time>2017-12-12T11:57:07Z</time>
      </trkpt>
      <trkpt lat="45.94454" lon="4.72986">
        <ele>167</ele>
        <time>2017-12-12T11:57:08Z</time>
      </trkpt>
      <trkpt lat="45.94453" lon="4.72976">
        <ele>167</ele>
        <time>2017-12-12T11:57:10Z</time>
      </trkpt>
      <trkpt lat="45.94452" lon="4.7297">
        <ele>167</ele>
        <time>2017-12-12T11:57:11Z</time>
      </trkpt>
      <trkpt lat="45.94451" lon="4.72959">
        <ele>167</ele>
        <time>2017-12-12T11:57:13Z</time>
      </trkpt>
      <trkpt lat="45.9445" lon="4.72954">
        <ele>167</ele>
        <time>2017-12-12T11:57:14Z</time>
      </trkpt>
      <trkpt lat="45.94449" lon="4.72943">
        <ele>167</ele>
        <time>2017-12-12T11:57:16Z</time>
      </trkpt>
      <trkpt lat="45.94448" lon="4.72938">
        <ele>167</ele>
        <time>2017-12-12T11:57:17Z</time>
      </trkpt>
      <trkpt lat="45.94447" lon="4.72927">
        <ele>167</ele>
        <time>2017-12-12T11:57:19Z</time>
      </trkpt>
      <trkpt lat="45.94447" lon="4.72922">
        <ele>167</ele>
        <time>2017-12-12T11:57:20Z</time>
      </trkpt>
      <trkpt lat="45.94447" lon="4.72911">
        <ele>166</ele>
        <time>2017-12-12T11:57:22Z</time>
      </trkpt>
      <trkpt lat="45.94446" lon="4.72906">
        <ele>166</ele>
        <time>2017-12-12T11:57:23Z</time>
      </trkpt>
      <trkpt lat="45.94445" lon="4.72894">
        <ele>166</ele>
        <time>2017-12-12T11:57:25Z</time>
      </trkpt>
      <trkpt lat="45.94444" lon="4.72888">
        <ele>166</ele>
        <time>2017-12-12T11:57:26Z</time>
      </trkpt>
      <trkpt lat="45.94443" lon="4.72881">
        <ele>166</ele>
        <time>2017-12-12T11:57:27Z</time>
      </trkpt>
      <trkpt lat="45.94442" lon="4.72873">
        <ele>166</ele>
        <time>2017-12-12T11:57:28Z</time>
      </trkpt>
      <trkpt lat="45.94441" lon="4.72866">
        <ele>166</ele>
        <time>2017-12-12T11:57:29Z</time>
      </trkpt>
      <trkpt lat="45.94439" lon="4.72858">
        <ele>166</ele>
        <time>2017-12-12T11:57:30Z</time>
      </trkpt>
      <trkpt lat="45.94437" lon="4.7285">
        <ele>166</ele>
        <time>2017-12-12T11:57:31Z</time>
      </trkpt>
      <trkpt lat="45.94436" lon="4.72842">
        <ele>166</ele>
        <time>2017-12-12T11:57:32Z</time>
      </trkpt>
      <trkpt lat="45.94435" lon="4.72834">
        <ele>166</ele>
        <time>2017-12-12T11:57:33Z</time>
      </trkpt>
      <trkpt lat="45.94434" lon="4.72825">
        <ele>167</ele>
        <time>2017-12-12T11:57:34Z</time>
      </trkpt>
      <trkpt lat="45.94433" lon="4.72817">
        <ele>167</ele>
        <time>2017-12-12T11:57:35Z</time>
      </trkpt>
      <trkpt lat="45.94431" lon="4.72808">
        <ele>167</ele>
        <time>2017-12-12T11:57:36Z</time>
      </trkpt>
      <trkpt lat="45.94429" lon="4.728">
        <ele>167</ele>
        <time>2017-12-12T11:57:37Z</time>
      </trkpt>
      <trkpt lat="45.94428" lon="4.72791">
        <ele>168</ele>
        <time>2017-12-12T11:57:38Z</time>
      </trkpt>
      <trkpt lat="45.94426" lon="4.72782">
        <ele>168</ele>
        <time>2017-12-12T11:57:39Z</time>
      </trkpt>
      <trkpt lat="45.94425" lon="4.72773">
        <ele>169</ele>
        <time>2017-12-12T11:57:40Z</time>
      </trkpt>
      <trkpt lat="45.94424" lon="4.72764">
        <ele>169</ele>
        <time>2017-12-12T11:57:41Z</time>
      </trkpt>
      <trkpt lat="45.94423" lon="4.72756">
        <ele>170</ele>
        <time>2017-12-12T11:57:42Z</time>
      </trkpt>
      <trkpt lat="45.94422" lon="4.72747">
        <ele>171</ele>
        <time>2017-12-12T11:57:43Z</time>
      </trkpt>
      <trkpt lat="45.94421" lon="4.72738">
        <ele>171</ele>
        <time>2017-12-12T11:57:44Z</time>
      </trkpt>
      <trkpt lat="45.94421" lon="4.72727">
        <ele>171</ele>
        <time>2017-12-12T11:57:45Z</time>
      </trkpt>
      <trkpt lat="45.9442" lon="4.72718">
        <ele>171</ele>
        <time>2017-12-12T11:57:46Z</time>
      </trkpt>
      <trkpt lat="45.94419" lon="4.72709">
        <ele>172</ele>
        <time>2017-12-12T11:57:47Z</time>
      </trkpt>
      <trkpt lat="45.94419" lon="4.727">
        <ele>172</ele>
        <time>2017-12-12T11:57:48Z</time>
      </trkpt>
      <trkpt lat="45.94417" lon="4.72692">
        <ele>172</ele>
        <time>2017-12-12T11:57:49Z</time>
      </trkpt>
      <trkpt lat="45.94417" lon="4.72683">
        <ele>173</ele>
        <time>2017-12-12T11:57:50Z</time>
      </trkpt>
      <trkpt lat="45.94416" lon="4.72674">
        <ele>173</ele>
        <time>2017-12-12T11:57:51Z</time>
      </trkpt>
      <trkpt lat="45.94414" lon="4.72666">
        <ele>174</ele>
        <time>2017-12-12T11:57:52Z</time>
      </trkpt>
      <trkpt lat="45.94413" lon="4.72657">
        <ele>174</ele>
        <time>2017-12-12T11:57:53Z</time>
      </trkpt>
      <trkpt lat="45.94412" lon="4.72649">
        <ele>174</ele>
        <time>2017-12-12T11:57:54Z</time>
      </trkpt>
      <trkpt lat="45.94413" lon="4.72641">
        <ele>174</ele>
        <time>2017-12-12T11:57:55Z</time>
      </trkpt>
      <trkpt lat="45.94411" lon="4.72633">
        <ele>174</ele>
        <time>2017-12-12T11:57:56Z</time>
      </trkpt>
      <trkpt lat="45.94406" lon="4.72625">
        <ele>173</ele>
        <time>2017-12-12T11:57:57Z</time>
      </trkpt>
      <trkpt lat="45.94407" lon="4.72616">
        <ele>173</ele>
        <time>2017-12-12T11:57:58Z</time>
      </trkpt>
      <trkpt lat="45.94406" lon="4.72607">
        <ele>173</ele>
        <time>2017-12-12T11:57:59Z</time>
      </trkpt>
      <trkpt lat="45.94403" lon="4.72599">
        <ele>173</ele>
        <time>2017-12-12T11:58:00Z</time>
      </trkpt>
      <trkpt lat="45.94404" lon="4.7259">
        <ele>173</ele>
        <time>2017-12-12T11:58:01Z</time>
      </trkpt>
      <trkpt lat="45.94402" lon="4.72583">
        <ele>173</ele>
        <time>2017-12-12T11:58:02Z</time>
      </trkpt>
      <trkpt lat="45.94401" lon="4.72573">
        <ele>173</ele>
        <time>2017-12-12T11:58:03Z</time>
      </trkpt>
      <trkpt lat="45.944" lon="4.72565">
        <ele>173</ele>
        <time>2017-12-12T11:58:04Z</time>
      </trkpt>
      <trkpt lat="45.94398" lon="4.72556">
        <ele>173</ele>
        <time>2017-12-12T11:58:05Z</time>
      </trkpt>
      <trkpt lat="45.94396" lon="4.72548">
        <ele>173</ele>
        <time>2017-12-12T11:58:06Z</time>
      </trkpt>
      <trkpt lat="45.94395" lon="4.72538">
        <ele>174</ele>
        <time>2017-12-12T11:58:07Z</time>
      </trkpt>
      <trkpt lat="45.94393" lon="4.72528">
        <ele>174</ele>
        <time>2017-12-12T11:58:08Z</time>
      </trkpt>
      <trkpt lat="45.94391" lon="4.72519">
        <ele>174</ele>
        <time>2017-12-12T11:58:09Z</time>
      </trkpt>
      <trkpt lat="45.94388" lon="4.72511">
        <ele>174</ele>
        <time>2017-12-12T11:58:10Z</time>
      </trkpt>
      <trkpt lat="45.94386" lon="4.72504">
        <ele>174</ele>
        <time>2017-12-12T11:58:11Z</time>
      </trkpt>
      <trkpt lat="45.94384" lon="4.72496">
        <ele>173</ele>
        <time>2017-12-12T11:58:12Z</time>
      </trkpt>
      <trkpt lat="45.94381" lon="4.72487">
        <ele>173</ele>
        <time>2017-12-12T11:58:13Z</time>
      </trkpt>
      <trkpt lat="45.9438" lon="4.72481">
        <ele>173</ele>
        <time>2017-12-12T11:58:14Z</time>
      </trkpt>
      <trkpt lat="45.94377" lon="4.72474">
        <ele>173</ele>
        <time>2017-12-12T11:58:15Z</time>
      </trkpt>
      <trkpt lat="45.94373" lon="4.72468">
        <ele>173</ele>
        <time>2017-12-12T11:58:16Z</time>
      </trkpt>
      <trkpt lat="45.9437" lon="4.72461">
        <ele>173</ele>
        <time>2017-12-12T11:58:17Z</time>
      </trkpt>
      <trkpt lat="45.94368" lon="4.72455">
        <ele>173</ele>
        <time>2017-12-12T11:58:18Z</time>
      </trkpt>
      <trkpt lat="45.94365" lon="4.72448">
        <ele>173</ele>
        <time>2017-12-12T11:58:19Z</time>
      </trkpt>
      <trkpt lat="45.94361" lon="4.72441">
        <ele>173</ele>
        <time>2017-12-12T11:58:20Z</time>
      </trkpt>
      <trkpt lat="45.9436" lon="4.72433">
        <ele>173</ele>
        <time>2017-12-12T11:58:21Z</time>
      </trkpt>
      <trkpt lat="45.94356" lon="4.72425">
        <ele>173</ele>
        <time>2017-12-12T11:58:22Z</time>
      </trkpt>
      <trkpt lat="45.94353" lon="4.72417">
        <ele>173</ele>
        <time>2017-12-12T11:58:23Z</time>
      </trkpt>
      <trkpt lat="45.94352" lon="4.7241">
        <ele>172</ele>
        <time>2017-12-12T11:58:24Z</time>
      </trkpt>
      <trkpt lat="45.94348" lon="4.72403">
        <ele>172</ele>
        <time>2017-12-12T11:58:25Z</time>
      </trkpt>
      <trkpt lat="45.94345" lon="4.72395">
        <ele>172</ele>
        <time>2017-12-12T11:58:26Z</time>
      </trkpt>
      <trkpt lat="45.94341" lon="4.72387">
        <ele>172</ele>
        <time>2017-12-12T11:58:27Z</time>
      </trkpt>
      <trkpt lat="45.94339" lon="4.72378">
        <ele>172</ele>
        <time>2017-12-12T11:58:28Z</time>
      </trkpt>
      <trkpt lat="45.94335" lon="4.72369">
        <ele>172</ele>
        <time>2017-12-12T11:58:29Z</time>
      </trkpt>
      <trkpt lat="45.94331" lon="4.72361">
        <ele>172</ele>
        <time>2017-12-12T11:58:30Z</time>
      </trkpt>
      <trkpt lat="45.94328" lon="4.72354">
        <ele>172</ele>
        <time>2017-12-12T11:58:31Z</time>
      </trkpt>
      <trkpt lat="45.94324" lon="4.72346">
        <ele>172</ele>
        <time>2017-12-12T11:58:32Z</time>
      </trkpt>
      <trkpt lat="45.9432" lon="4.72339">
        <ele>172</ele>
        <time>2017-12-12T11:58:33Z</time>
      </trkpt>
      <trkpt lat="45.94316" lon="4.72332">
        <ele>172</ele>
        <time>2017-12-12T11:58:34Z</time>
      </trkpt>
      <trkpt lat="45.94314" lon="4.72325">
        <ele>172</ele>
        <time>2017-12-12T11:58:35Z</time>
      </trkpt>
      <trkpt lat="45.9431" lon="4.72319">
        <ele>171</ele>
        <time>2017-12-12T11:58:36Z</time>
      </trkpt>
      <trkpt lat="45.94306" lon="4.72312">
        <ele>171</ele>
        <time>2017-12-12T11:58:37Z</time>
      </trkpt>
      <trkpt lat="45.94302" lon="4.72305">
        <ele>171</ele>
        <time>2017-12-12T11:58:38Z</time>
      </trkpt>
      <trkpt lat="45.943" lon="4.72298">
        <ele>171</ele>
        <time>2017-12-12T11:58:39Z</time>
      </trkpt>
      <trkpt lat="45.94298" lon="4.72291">
        <ele>171</ele>
        <time>2017-12-12T11:58:40Z</time>
      </trkpt>
      <trkpt lat="45.94296" lon="4.72285">
        <ele>171</ele>
        <time>2017-12-12T11:58:41Z</time>
      </trkpt>
      <trkpt lat="45.94294" lon="4.72279">
        <ele>171</ele>
        <time>2017-12-12T11:58:42Z</time>
      </trkpt>
      <trkpt lat="45.94291" lon="4.72272">
        <ele>171</ele>
        <time>2017-12-12T11:58:43Z</time>
      </trkpt>
      <trkpt lat="45.94288" lon="4.72267">
        <ele>171</ele>
        <time>2017-12-12T11:58:44Z</time>
      </trkpt>
      <trkpt lat="45.94284" lon="4.72265">
        <ele>171</ele>
        <time>2017-12-12T11:58:45Z</time>
      </trkpt>
      <trkpt lat="45.94279" lon="4.72265">
        <ele>171</ele>
        <time>2017-12-12T11:58:46Z</time>
      </trkpt>
      <trkpt lat="45.94273" lon="4.72267">
        <ele>171</ele>
        <time>2017-12-12T11:58:47Z</time>
      </trkpt>
      <trkpt lat="45.94268" lon="4.7227">
        <ele>171</ele>
        <time>2017-12-12T11:58:48Z</time>
      </trkpt>
      <trkpt lat="45.94263" lon="4.72274">
        <ele>171</ele>
        <time>2017-12-12T11:58:49Z</time>
      </trkpt>
      <trkpt lat="45.94257" lon="4.72277">
        <ele>171</ele>
        <time>2017-12-12T11:58:50Z</time>
      </trkpt>
      <trkpt lat="45.94251" lon="4.7228">
        <ele>171</ele>
        <time>2017-12-12T11:58:51Z</time>
      </trkpt>
      <trkpt lat="45.94245" lon="4.72282">
        <ele>171</ele>
        <time>2017-12-12T11:58:52Z</time>
      </trkpt>
      <trkpt lat="45.9424" lon="4.72284">
        <ele>171</ele>
        <time>2017-12-12T11:58:53Z</time>
      </trkpt>
      <trkpt lat="45.94234" lon="4.72285">
        <ele>171</ele>
        <time>2017-12-12T11:58:54Z</time>
      </trkpt>
      <trkpt lat="45.94227" lon="4.72284">
        <ele>171</ele>
        <time>2017-12-12T11:58:55Z</time>
      </trkpt>
      <trkpt lat="45.94221" lon="4.72285">
        <ele>171</ele>
        <time>2017-12-12T11:58:56Z</time>
      </trkpt>
      <trkpt lat="45.94215" lon="4.72285">
        <ele>171</ele>
        <time>2017-12-12T11:58:57Z</time>
      </trkpt>
      <trkpt lat="45.94209" lon="4.72287">
        <ele>171</ele>
        <time>2017-12-12T11:58:58Z</time>
      </trkpt>
      <trkpt lat="45.94203" lon="4.72287">
        <ele>171</ele>
        <time>2017-12-12T11:58:59Z</time>
      </trkpt>
      <trkpt lat="45.94197" lon="4.72288">
        <ele>171</ele>
        <time>2017-12-12T11:59:00Z</time>
      </trkpt>
      <trkpt lat="45.9419" lon="4.72288">
        <ele>171</ele>
        <time>2017-12-12T11:59:01Z</time>
      </trkpt>
      <trkpt lat="45.94184" lon="4.72287">
        <ele>171</ele>
        <time>2017-12-12T11:59:02Z</time>
      </trkpt>
      <trkpt lat="45.94179" lon="4.72288">
        <ele>171</ele>
        <time>2017-12-12T11:59:03Z</time>
      </trkpt>
      <trkpt lat="45.94174" lon="4.72288">
        <ele>171</ele>
        <time>2017-12-12T11:59:04Z</time>
      </trkpt>
      <trkpt lat="45.94168" lon="4.72286">
        <ele>171</ele>
        <time>2017-12-12T11:59:05Z</time>
      </trkpt>
      <trkpt lat="45.94162" lon="4.72284">
        <ele>171</ele>
        <time>2017-12-12T11:59:06Z</time>
      </trkpt>
      <trkpt lat="45.94156" lon="4.72282">
        <ele>171</ele>
        <time>2017-12-12T11:59:07Z</time>
      </trkpt>
      <trkpt lat="45.9415" lon="4.7228">
        <ele>171</ele>
        <time>2017-12-12T11:59:08Z</time>
      </trkpt>
      <trkpt lat="45.94145" lon="4.72277">
        <ele>171</ele>
        <time>2017-12-12T11:59:09Z</time>
      </trkpt>
      <trkpt lat="45.9414" lon="4.72273">
        <ele>171</ele>
        <time>2017-12-12T11:59:10Z</time>
      </trkpt>
      <trkpt lat="45.94135" lon="4.72271">
        <ele>171</ele>
        <time>2017-12-12T11:59:11Z</time>
      </trkpt>
      <trkpt lat="45.94129" lon="4.72269">
        <ele>171</ele>
        <time>2017-12-12T11:59:12Z</time>
      </trkpt>
      <trkpt lat="45.94124" lon="4.72266">
        <ele>171</ele>
        <time>2017-12-12T11:59:13Z</time>
      </trkpt>
      <trkpt lat="45.94118" lon="4.72264">
        <ele>171</ele>
        <time>2017-12-12T11:59:14Z</time>
      </trkpt>
      <trkpt lat="45.94112" lon="4.72262">
        <ele>171</ele>
        <time>2017-12-12T11:59:15Z</time>
      </trkpt>
      <trkpt lat="45.94106" lon="4.72263">
        <ele>171</ele>
        <time>2017-12-12T11:59:16Z</time>
      </trkpt>
      <trkpt lat="45.941" lon="4.72263">
        <ele>171</ele>
        <time>2017-12-12T11:59:17Z</time>
      </trkpt>
      <trkpt lat="45.94094" lon="4.72264">
        <ele>171</ele>
        <time>2017-12-12T11:59:18Z</time>
      </trkpt>
      <trkpt lat="45.94087" lon="4.72267">
        <ele>171</ele>
        <time>2017-12-12T11:59:19Z</time>
      </trkpt>
      <trkpt lat="45.94081" lon="4.72272">
        <ele>171</ele>
        <time>2017-12-12T11:59:20Z</time>
      </trkpt>
      <trkpt lat="45.94075" lon="4.72276">
        <ele>171</ele>
        <time>2017-12-12T11:59:21Z</time>
      </trkpt>
      <trkpt lat="45.94069" lon="4.72281">
        <ele>171</ele>
        <time>2017-12-12T11:59:22Z</time>
      </trkpt>
      <trkpt lat="45.94065" lon="4.72287">
        <ele>171</ele>
        <time>2017-12-12T11:59:23Z</time>
      </trkpt>
      <trkpt lat="45.9406" lon="4.72293">
        <ele>171</ele>
        <time>2017-12-12T11:59:24Z</time>
      </trkpt>
      <trkpt lat="45.94055" lon="4.72299">
        <ele>171</ele>
        <time>2017-12-12T11:59:25Z</time>
      </trkpt>
      <trkpt lat="45.94051" lon="4.72305">
        <ele>171</ele>
        <time>2017-12-12T11:59:26Z</time>
      </trkpt>
      <trkpt lat="45.94046" lon="4.72311">
        <ele>171</ele>
        <time>2017-12-12T11:59:27Z</time>
      </trkpt>
      <trkpt lat="45.94041" lon="4.72316">
        <ele>171</ele>
        <time>2017-12-12T11:59:28Z</time>
      </trkpt>
      <trkpt lat="45.94037" lon="4.72322">
        <ele>171</ele>
        <time>2017-12-12T11:59:29Z</time>
      </trkpt>
      <trkpt lat="45.94032" lon="4.72327">
        <ele>171</ele>
        <time>2017-12-12T11:59:30Z</time>
      </trkpt>
      <trkpt lat="45.94027" lon="4.72335">
        <ele>171</ele>
        <time>2017-12-12T11:59:31Z</time>
      </trkpt>
      <trkpt lat="45.94022" lon="4.72341">
        <ele>171</ele>
        <time>2017-12-12T11:59:32Z</time>
      </trkpt>
      <trkpt lat="45.94017" lon="4.72348">
        <ele>171</ele>
        <time>2017-12-12T11:59:33Z</time>
      </trkpt>
      <trkpt lat="45.94012" lon="4.72355">
        <ele>171</ele>
        <time>2017-12-12T11:59:34Z</time>
      </trkpt>
      <trkpt lat="45.94007" lon="4.72362">
        <ele>171</ele>
        <time>2017-12-12T11:59:35Z</time>
      </trkpt>
      <trkpt lat="45.94001" lon="4.72368">
        <ele>171</ele>
        <time>2017-12-12T11:59:36Z</time>
      </trkpt>
      <trkpt lat="45.93996" lon="4.72374">
        <ele>171</ele>
        <time>2017-12-12T11:59:37Z</time>
      </trkpt>
      <trkpt lat="45.93991" lon="4.72381">
        <ele>171</ele>
        <time>2017-12-12T11:59:38Z</time>
      </trkpt>
      <trkpt lat="45.93986" lon="4.72387">
        <ele>171</ele>
        <time>2017-12-12T11:59:39Z</time>
      </trkpt>
      <trkpt lat="45.93981" lon="4.72393">
        <ele>171</ele>
        <time>2017-12-12T11:59:40Z</time>
      </trkpt>
      <trkpt lat="45.93977" lon="4.72399">
        <ele>171</ele>
        <time>2017-12-12T11:59:41Z</time>
      </trkpt>
      <trkpt lat="45.93972" lon="4.72404">
        <ele>171</ele>
        <time>2017-12-12T11:59:42Z</time>
      </trkpt>
      <trkpt lat="45.93967" lon="4.72408">
        <ele>171</ele>
        <time>2017-12-12T11:59:43Z</time>
      </trkpt>
      <trkpt lat="45.93962" lon="4.72413">
        <ele>171</ele>
        <time>2017-12-12T11:59:44Z</time>
      </trkpt>
      <trkpt lat="45.93959" lon="4.72419">
        <ele>171</ele>
        <time>2017-12-12T11:59:45Z</time>
      </trkpt>
      <trkpt lat="45.93955" lon="4.72423">
        <ele>171</ele>
        <time>2017-12-12T11:59:46Z</time>
      </trkpt>
      <trkpt lat="45.93951" lon="4.72429">
        <ele>171</ele>
        <time>2017-12-12T11:59:47Z</time>
      </trkpt>
      <trkpt lat="45.93946" lon="4.72434">
        <ele>171</ele>
        <time>2017-12-12T11:59:48Z</time>
      </trkpt>
      <trkpt lat="45.93942" lon="4.7244">
        <ele>171</ele>
        <time>2017-12-12T11:59:49Z</time>
      </trkpt>
      <trkpt lat="45.93938" lon="4.72446">
        <ele>171</ele>
        <time>2017-12-12T11:59:50Z</time>
      </trkpt>
      <trkpt lat="45.93933" lon="4.72451">
        <ele>171</ele>
        <time>2017-12-12T11:59:51Z</time>
      </trkpt>
      <trkpt lat="45.93929" lon="4.72457">
        <ele>171</ele>
        <time>2017-12-12T11:59:52Z</time>
      </trkpt>
      <trkpt lat="45.93925" lon="4.72462">
        <ele>171</ele>
        <time>2017-12-12T11:59:53Z</time>
      </trkpt>
      <trkpt lat="45.9392" lon="4.72468">
        <ele>171</ele>
        <time>2017-12-12T11:59:54Z</time>
      </trkpt>
      <trkpt lat="45.93916" lon="4.72473">
        <ele>172</ele>
        <time>2017-12-12T11:59:55Z</time>
      </trkpt>
      <trkpt lat="45.93911" lon="4.72478">
        <ele>172</ele>
        <time>2017-12-12T11:59:56Z</time>
      </trkpt>
      <trkpt lat="45.93907" lon="4.72483">
        <ele>172</ele>
        <time>2017-12-12T11:59:57Z</time>
      </trkpt>
      <trkpt lat="45.93902" lon="4.72487">
        <ele>172</ele>
        <time>2017-12-12T11:59:58Z</time>
      </trkpt>
      <trkpt lat="45.93898" lon="4.72493">
        <ele>172</ele>
        <time>2017-12-12T11:59:59Z</time>
      </trkpt>
      <trkpt lat="45.93893" lon="4.72498">
        <ele>172</ele>
        <time>2017-12-12T12:00:00Z</time>
      </trkpt>
      <trkpt lat="45.9389" lon="4.72503">
        <ele>173</ele>
        <time>2017-12-12T12:00:01Z</time>
      </trkpt>
      <trkpt lat="45.93886" lon="4.72508">
        <ele>173</ele>
        <time>2017-12-12T12:00:02Z</time>
      </trkpt>
      <trkpt lat="45.93879" lon="4.72516">
        <ele>173</ele>
        <time>2017-12-12T12:00:04Z</time>
      </trkpt>
      <trkpt lat="45.93874" lon="4.72517">
        <ele>173</ele>
        <time>2017-12-12T12:00:05Z</time>
      </trkpt>
      <trkpt lat="45.93868" lon="4.72516">
        <ele>173</ele>
        <time>2017-12-12T12:00:06Z</time>
      </trkpt>
      <trkpt lat="45.93863" lon="4.72512">
        <ele>173</ele>
        <time>2017-12-12T12:00:07Z</time>
      </trkpt>
      <trkpt lat="45.93858" lon="4.72509">
        <ele>173</ele>
        <time>2017-12-12T12:00:08Z</time>
      </trkpt>
      <trkpt lat="45.93854" lon="4.72505">
        <ele>173</ele>
        <time>2017-12-12T12:00:09Z</time>
      </trkpt>
      <trkpt lat="45.93849" lon="4.72501">
        <ele>174</ele>
        <time>2017-12-12T12:00:10Z</time>
      </trkpt>
      <trkpt lat="45.93844" lon="4.72497">
        <ele>173</ele>
        <time>2017-12-12T12:00:11Z</time>
      </trkpt>
      <trkpt lat="45.9384" lon="4.72493">
        <ele>173</ele>
        <time>2017-12-12T12:00:12Z</time>
      </trkpt>
      <trkpt lat="45.93836" lon="4.7249">
        <ele>173</ele>
        <time>2017-12-12T12:00:13Z</time>
      </trkpt>
      <trkpt lat="45.93832" lon="4.72491">
        <ele>173</ele>
        <time>2017-12-12T12:00:14Z</time>
      </trkpt>
      <trkpt lat="45.93827" lon="4.72475">
        <ele>173</ele>
        <time>2017-12-12T12:00:15Z</time>
      </trkpt>
      <trkpt lat="45.9382" lon="4.72474">
        <ele>172</ele>
        <time>2017-12-12T12:00:16Z</time>
      </trkpt>
      <trkpt lat="45.93815" lon="4.7247">
        <ele>172</ele>
        <time>2017-12-12T12:00:17Z</time>
      </trkpt>
      <trkpt lat="45.93811" lon="4.72466">
        <ele>172</ele>
        <time>2017-12-12T12:00:18Z</time>
      </trkpt>
      <trkpt lat="45.93806" lon="4.72462">
        <ele>172</ele>
        <time>2017-12-12T12:00:19Z</time>
      </trkpt>
      <trkpt lat="45.93802" lon="4.72456">
        <ele>172</ele>
        <time>2017-12-12T12:00:20Z</time>
      </trkpt>
      <trkpt lat="45.93796" lon="4.7245">
        <ele>172</ele>
        <time>2017-12-12T12:00:21Z</time>
      </trkpt>
      <trkpt lat="45.93792" lon="4.72446">
        <ele>172</ele>
        <time>2017-12-12T12:00:22Z</time>
      </trkpt>
      <trkpt lat="45.93786" lon="4.72442">
        <ele>172</ele>
        <time>2017-12-12T12:00:23Z</time>
      </trkpt>
      <trkpt lat="45.93782" lon="4.72438">
        <ele>172</ele>
        <time>2017-12-12T12:00:24Z</time>
      </trkpt>
      <trkpt lat="45.93777" lon="4.72435">
        <ele>172</ele>
        <time>2017-12-12T12:00:25Z</time>
      </trkpt>
      <trkpt lat="45.93772" lon="4.72426">
        <ele>171</ele>
        <time>2017-12-12T12:00:27Z</time>
      </trkpt>
      <trkpt lat="45.93767" lon="4.72422">
        <ele>171</ele>
        <time>2017-12-12T12:00:28Z</time>
      </trkpt>
      <trkpt lat="45.93764" lon="4.72417">
        <ele>171</ele>
        <time>2017-12-12T12:00:29Z</time>
      </trkpt>
      <trkpt lat="45.93759" lon="4.72412">
        <ele>171</ele>
        <time>2017-12-12T12:00:30Z</time>
      </trkpt>
      <trkpt lat="45.93755" lon="4.72408">
        <ele>171</ele>
        <time>2017-12-12T12:00:31Z</time>
      </trkpt>
      <trkpt lat="45.9375" lon="4.72403">
        <ele>171</ele>
        <time>2017-12-12T12:00:32Z</time>
      </trkpt>
      <trkpt lat="45.93746" lon="4.72399">
        <ele>171</ele>
        <time>2017-12-12T12:00:33Z</time>
      </trkpt>
      <trkpt lat="45.93741" lon="4.72395">
        <ele>171</ele>
        <time>2017-12-12T12:00:34Z</time>
      </trkpt>
      <trkpt lat="45.93737" lon="4.7239">
        <ele>171</ele>
        <time>2017-12-12T12:00:35Z</time>
      </trkpt>
      <trkpt lat="45.93732" lon="4.72385">
        <ele>171</ele>
        <time>2017-12-12T12:00:36Z</time>
      </trkpt>
      <trkpt lat="45.93726" lon="4.72381">
        <ele>171</ele>
        <time>2017-12-12T12:00:37Z</time>
      </trkpt>
      <trkpt lat="45.93722" lon="4.72377">
        <ele>171</ele>
        <time>2017-12-12T12:00:38Z</time>
      </trkpt>
      <trkpt lat="45.93717" lon="4.72372">
        <ele>172</ele>
        <time>2017-12-12T12:00:39Z</time>
      </trkpt>
      <trkpt lat="45.93713" lon="4.72368">
        <ele>172</ele>
        <time>2017-12-12T12:00:40Z</time>
      </trkpt>
      <trkpt lat="45.93708" lon="4.72363">
        <ele>171</ele>
        <time>2017-12-12T12:00:41Z</time>
      </trkpt>
      <trkpt lat="45.93702" lon="4.72358">
        <ele>171</ele>
        <time>2017-12-12T12:00:42Z</time>
      </trkpt>
      <trkpt lat="45.93695" lon="4.72355">
        <ele>171</ele>
        <time>2017-12-12T12:00:43Z</time>
      </trkpt>
      <trkpt lat="45.93691" lon="4.72354">
        <ele>171</ele>
        <time>2017-12-12T12:00:44Z</time>
      </trkpt>
      <trkpt lat="45.9369" lon="4.72348">
        <ele>171</ele>
        <time>2017-12-12T12:00:45Z</time>
      </trkpt>
      <trkpt lat="45.93688" lon="4.72342">
        <ele>171</ele>
        <time>2017-12-12T12:00:46Z</time>
      </trkpt>
      <trkpt lat="45.93683" lon="4.72337">
        <ele>171</ele>
        <time>2017-12-12T12:00:47Z</time>
      </trkpt>
      <trkpt lat="45.93679" lon="4.72333">
        <ele>171</ele>
        <time>2017-12-12T12:00:48Z</time>
      </trkpt>
      <trkpt lat="45.93675" lon="4.72329">
        <ele>171</ele>
        <time>2017-12-12T12:00:49Z</time>
      </trkpt>
      <trkpt lat="45.93669" lon="4.72324">
        <ele>171</ele>
        <time>2017-12-12T12:00:50Z</time>
      </trkpt>
      <trkpt lat="45.93667" lon="4.7232">
        <ele>172</ele>
        <time>2017-12-12T12:00:51Z</time>
      </trkpt>
      <trkpt lat="45.93662" lon="4.72316">
        <ele>172</ele>
        <time>2017-12-12T12:00:52Z</time>
      </trkpt>
      <trkpt lat="45.93658" lon="4.72312">
        <ele>172</ele>
        <time>2017-12-12T12:00:53Z</time>
      </trkpt>
      <trkpt lat="45.93653" lon="4.72308">
        <ele>172</ele>
        <time>2017-12-12T12:00:54Z</time>
      </trkpt>
      <trkpt lat="45.93648" lon="4.72304">
        <ele>172</ele>
        <time>2017-12-12T12:00:55Z</time>
      </trkpt>
      <trkpt lat="45.93644" lon="4.72299">
        <ele>172</ele>
        <time>2017-12-12T12:00:56Z</time>
      </trkpt>
      <trkpt lat="45.93638" lon="4.7229">
        <ele>172</ele>
        <time>2017-12-12T12:00:58Z</time>
      </trkpt>
      <trkpt lat="45.93635" lon="4.72286">
        <ele>172</ele>
        <time>2017-12-12T12:00:59Z</time>
      </trkpt>
      <trkpt lat="45.93628" lon="4.72279">
        <ele>172</ele>
        <time>2017-12-12T12:01:01Z</time>
      </trkpt>
      <trkpt lat="45.93626" lon="4.72278">
        <ele>172</ele>
        <time>2017-12-12T12:01:02Z</time>
      </trkpt>
      <trkpt lat="45.93623" lon="4.72276">
        <ele>172</ele>
        <time>2017-12-12T12:01:03Z</time>
      </trkpt>
      <trkpt lat="45.93618" lon="4.7227">
        <ele>172</ele>
        <time>2017-12-12T12:01:04Z</time>
      </trkpt>
      <trkpt lat="45.93613" lon="4.72267">
        <ele>172</ele>
        <time>2017-12-12T12:01:05Z</time>
      </trkpt>
      <trkpt lat="45.93609" lon="4.72264">
        <ele>172</ele>
        <time>2017-12-12T12:01:06Z</time>
      </trkpt>
      <trkpt lat="45.93603" lon="4.72257">
        <ele>173</ele>
        <time>2017-12-12T12:01:09Z</time>
      </trkpt>
      <trkpt lat="45.93601" lon="4.72255">
        <ele>173</ele>
        <time>2017-12-12T12:01:10Z</time>
      </trkpt>
      <trkpt lat="45.93594" lon="4.72249">
        <ele>173</ele>
        <time>2017-12-12T12:01:14Z</time>
      </trkpt>
      <trkpt lat="45.93592" lon="4.72247">
        <ele>173</ele>
        <time>2017-12-12T12:01:15Z</time>
      </trkpt>
      <trkpt lat="45.93585" lon="4.72244">
        <ele>173</ele>
        <time>2017-12-12T12:01:19Z</time>
      </trkpt>
      <trkpt lat="45.93583" lon="4.72243">
        <ele>173</ele>
        <time>2017-12-12T12:01:20Z</time>
      </trkpt>
      <trkpt lat="45.93578" lon="4.72233">
        <ele>173</ele>
        <time>2017-12-12T12:01:25Z</time>
      </trkpt>
      <trkpt lat="45.93575" lon="4.7223">
        <ele>173</ele>
        <time>2017-12-12T12:01:26Z</time>
      </trkpt>
      <trkpt lat="45.93567" lon="4.72226">
        <ele>173</ele>
        <time>2017-12-12T12:01:29Z</time>
      </trkpt>
      <trkpt lat="45.93565" lon="4.72226">
        <ele>173</ele>
        <time>2017-12-12T12:01:30Z</time>
      </trkpt>
      <trkpt lat="45.93557" lon="4.72224">
        <ele>173</ele>
        <time>2017-12-12T12:01:43Z</time>
      </trkpt>
      <trkpt lat="45.93555" lon="4.72224">
        <ele>173</ele>
        <time>2017-12-12T12:01:44Z</time>
      </trkpt>
      <trkpt lat="45.93549" lon="4.72231">
        <ele>172</ele>
        <time>2017-12-12T12:01:47Z</time>
      </trkpt>
      <trkpt lat="45.93548" lon="4.72235">
        <ele>172</ele>
        <time>2017-12-12T12:01:48Z</time>
      </trkpt>
      <trkpt lat="45.93544" lon="4.72242">
        <ele>172</ele>
        <time>2017-12-12T12:01:50Z</time>
      </trkpt>
      <trkpt lat="45.93542" lon="4.72246">
        <ele>172</ele>
        <time>2017-12-12T12:01:51Z</time>
      </trkpt>
      <trkpt lat="45.93537" lon="4.72253">
        <ele>172</ele>
        <time>2017-12-12T12:01:53Z</time>
      </trkpt>
      <trkpt lat="45.93535" lon="4.72258">
        <ele>172</ele>
        <time>2017-12-12T12:01:54Z</time>
      </trkpt>
      <trkpt lat="45.93533" lon="4.72263">
        <ele>172</ele>
        <time>2017-12-12T12:01:55Z</time>
      </trkpt>
      <trkpt lat="45.9353" lon="4.72268">
        <ele>172</ele>
        <time>2017-12-12T12:01:56Z</time>
      </trkpt>
      <trkpt lat="45.93527" lon="4.72274">
        <ele>172</ele>
        <time>2017-12-12T12:01:57Z</time>
      </trkpt>
      <trkpt lat="45.93525" lon="4.72281">
        <ele>172</ele>
        <time>2017-12-12T12:01:58Z</time>
      </trkpt>
      <trkpt lat="45.93523" lon="4.72287">
        <ele>172</ele>
        <time>2017-12-12T12:01:59Z</time>
      </trkpt>
      <trkpt lat="45.9352" lon="4.72294">
        <ele>172</ele>
        <time>2017-12-12T12:02:00Z</time>
      </trkpt>
      <trkpt lat="45.93516" lon="4.723">
        <ele>172</ele>
        <time>2017-12-12T12:02:01Z</time>
      </trkpt>
      <trkpt lat="45.93511" lon="4.72307">
        <ele>173</ele>
        <time>2017-12-12T12:02:02Z</time>
      </trkpt>
      <trkpt lat="45.93507" lon="4.72314">
        <ele>173</ele>
        <time>2017-12-12T12:02:03Z</time>
      </trkpt>
      <trkpt lat="45.93502" lon="4.7232">
        <ele>173</ele>
        <time>2017-12-12T12:02:04Z</time>
      </trkpt>
      <trkpt lat="45.93497" lon="4.72326">
        <ele>173</ele>
        <time>2017-12-12T12:02:05Z</time>
      </trkpt>
      <trkpt lat="45.93493" lon="4.72331">
        <ele>173</ele>
        <time>2017-12-12T12:02:06Z</time>
      </trkpt>
      <trkpt lat="45.93489" lon="4.72337">
        <ele>173</ele>
        <time>2017-12-12T12:02:07Z</time>
      </trkpt>
      <trkpt lat="45.93486" lon="4.72343">
        <ele>173</ele>
        <time>2017-12-12T12:02:08Z</time>
      </trkpt>
      <trkpt lat="45.93481" lon="4.72349">
        <ele>173</ele>
        <time>2017-12-12T12:02:09Z</time>
      </trkpt>
      <trkpt lat="45.93477" lon="4.72355">
        <ele>173</ele>
        <time>2017-12-12T12:02:10Z</time>
      </trkpt>
      <trkpt lat="45.93472" lon="4.7236">
        <ele>173</ele>
        <time>2017-12-12T12:02:11Z</time>
      </trkpt>
      <trkpt lat="45.9347" lon="4.72367">
        <ele>173</ele>
        <time>2017-12-12T12:02:12Z</time>
      </trkpt>
      <trkpt lat="45.93466" lon="4.72373">
        <ele>173</ele>
        <time>2017-12-12T12:02:13Z</time>
      </trkpt>
      <trkpt lat="45.93462" lon="4.72383">
        <ele>173</ele>
        <time>2017-12-12T12:02:14Z</time>
      </trkpt>
      <trkpt lat="45.93454" lon="4.72386">
        <ele>173</ele>
        <time>2017-12-12T12:02:15Z</time>
      </trkpt>
      <trkpt lat="45.93446" lon="4.7239">
        <ele>173</ele>
        <time>2017-12-12T12:02:16Z</time>
      </trkpt>
      <trkpt lat="45.9344" lon="4.72393">
        <ele>173</ele>
        <time>2017-12-12T12:02:17Z</time>
      </trkpt>
      <trkpt lat="45.93435" lon="4.72397">
        <ele>173</ele>
        <time>2017-12-12T12:02:18Z</time>
      </trkpt>
      <trkpt lat="45.9343" lon="4.724">
        <ele>174</ele>
        <time>2017-12-12T12:02:19Z</time>
      </trkpt>
      <trkpt lat="45.93425" lon="4.72403">
        <ele>174</ele>
        <time>2017-12-12T12:02:20Z</time>
      </trkpt>
      <trkpt lat="45.93419" lon="4.72405">
        <ele>174</ele>
        <time>2017-12-12T12:02:22Z</time>
      </trkpt>
      <trkpt lat="45.93415" lon="4.72408">
        <ele>174</ele>
        <time>2017-12-12T12:02:23Z</time>
      </trkpt>
      <trkpt lat="45.9341" lon="4.72409">
        <ele>174</ele>
        <time>2017-12-12T12:02:24Z</time>
      </trkpt>
      <trkpt lat="45.93405" lon="4.72408">
        <ele>174</ele>
        <time>2017-12-12T12:02:25Z</time>
      </trkpt>
      <trkpt lat="45.93401" lon="4.72407">
        <ele>174</ele>
        <time>2017-12-12T12:02:26Z</time>
      </trkpt>
      <trkpt lat="45.93396" lon="4.72407">
        <ele>174</ele>
        <time>2017-12-12T12:02:27Z</time>
      </trkpt>
      <trkpt lat="45.93391" lon="4.72411">
        <ele>174</ele>
        <time>2017-12-12T12:02:28Z</time>
      </trkpt>
      <trkpt lat="45.93389" lon="4.72417">
        <ele>173</ele>
        <time>2017-12-12T12:02:29Z</time>
      </trkpt>
      <trkpt lat="45.93389" lon="4.72425">
        <ele>173</ele>
        <time>2017-12-12T12:02:30Z</time>
      </trkpt>
      <trkpt lat="45.93391" lon="4.72431">
        <ele>173</ele>
        <time>2017-12-12T12:02:31Z</time>
      </trkpt>
      <trkpt lat="45.93393" lon="4.72438">
        <ele>173</ele>
        <time>2017-12-12T12:02:32Z</time>
      </trkpt>
      <trkpt lat="45.93395" lon="4.72446">
        <ele>173</ele>
        <time>2017-12-12T12:02:33Z</time>
      </trkpt>
      <trkpt lat="45.93396" lon="4.72454">
        <ele>173</ele>
        <time>2017-12-12T12:02:34Z</time>
      </trkpt>
      <trkpt lat="45.93394" lon="4.72461">
        <ele>173</ele>
        <time>2017-12-12T12:02:35Z</time>
      </trkpt>
      <trkpt lat="45.93391" lon="4.72468">
        <ele>173</ele>
        <time>2017-12-12T12:02:36Z</time>
      </trkpt>
      <trkpt lat="45.93388" lon="4.72473">
        <ele>173</ele>
        <time>2017-12-12T12:02:37Z</time>
      </trkpt>
      <trkpt lat="45.93384" lon="4.72477">
        <ele>173</ele>
        <time>2017-12-12T12:02:38Z</time>
      </trkpt>
      <trkpt lat="45.93379" lon="4.72482">
        <ele>173</ele>
        <time>2017-12-12T12:02:39Z</time>
      </trkpt>
      <trkpt lat="45.93374" lon="4.72487">
        <ele>173</ele>
        <time>2017-12-12T12:02:40Z</time>
      </trkpt>
      <trkpt lat="45.93369" lon="4.72492">
        <ele>173</ele>
        <time>2017-12-12T12:02:41Z</time>
      </trkpt>
      <trkpt lat="45.93365" lon="4.72497">
        <ele>173</ele>
        <time>2017-12-12T12:02:42Z</time>
      </trkpt>
      <trkpt lat="45.93361" lon="4.72502">
        <ele>172</ele>
        <time>2017-12-12T12:02:43Z</time>
      </trkpt>
      <trkpt lat="45.93356" lon="4.72507">
        <ele>172</ele>
        <time>2017-12-12T12:02:44Z</time>
      </trkpt>
      <trkpt lat="45.9335" lon="4.72514">
        <ele>172</ele>
        <time>2017-12-12T12:02:45Z</time>
      </trkpt>
      <trkpt lat="45.93345" lon="4.72519">
        <ele>172</ele>
        <time>2017-12-12T12:02:46Z</time>
      </trkpt>
      <trkpt lat="45.9334" lon="4.72525">
        <ele>172</ele>
        <time>2017-12-12T12:02:47Z</time>
      </trkpt>
      <trkpt lat="45.93337" lon="4.72528">
        <ele>172</ele>
        <time>2017-12-12T12:02:48Z</time>
      </trkpt>
      <trkpt lat="45.93332" lon="4.72533">
        <ele>172</ele>
        <time>2017-12-12T12:02:49Z</time>
      </trkpt>
      <trkpt lat="45.93327" lon="4.72537">
        <ele>172</ele>
        <time>2017-12-12T12:02:50Z</time>
      </trkpt>
      <trkpt lat="45.93323" lon="4.72542">
        <ele>172</ele>
        <time>2017-12-12T12:02:51Z</time>
      </trkpt>
      <trkpt lat="45.93317" lon="4.7255">
        <ele>172</ele>
        <time>2017-12-12T12:02:53Z</time>
      </trkpt>
      <trkpt lat="45.93313" lon="4.72555">
        <ele>172</ele>
        <time>2017-12-12T12:02:54Z</time>
      </trkpt>
      <trkpt lat="45.93307" lon="4.72563">
        <ele>171</ele>
        <time>2017-12-12T12:02:56Z</time>
      </trkpt>
      <trkpt lat="45.93302" lon="4.72568">
        <ele>171</ele>
        <time>2017-12-12T12:02:57Z</time>
      </trkpt>
      <trkpt lat="45.93297" lon="4.72574">
        <ele>171</ele>
        <time>2017-12-12T12:02:58Z</time>
      </trkpt>
      <trkpt lat="45.93292" lon="4.72579">
        <ele>171</ele>
        <time>2017-12-12T12:02:59Z</time>
      </trkpt>
      <trkpt lat="45.93288" lon="4.72587">
        <ele>170</ele>
        <time>2017-12-12T12:03:00Z</time>
      </trkpt>
      <trkpt lat="45.93283" lon="4.72592">
        <ele>170</ele>
        <time>2017-12-12T12:03:01Z</time>
      </trkpt>
      <trkpt lat="45.93277" lon="4.72598">
        <ele>170</ele>
        <time>2017-12-12T12:03:02Z</time>
      </trkpt>
      <trkpt lat="45.93272" lon="4.72604">
        <ele>170</ele>
        <time>2017-12-12T12:03:03Z</time>
      </trkpt>
      <trkpt lat="45.93267" lon="4.72609">
        <ele>170</ele>
        <time>2017-12-12T12:03:04Z</time>
      </trkpt>
      <trkpt lat="45.93263" lon="4.72613">
        <ele>170</ele>
        <time>2017-12-12T12:03:05Z</time>
      </trkpt>
      <trkpt lat="45.93258" lon="4.72618">
        <ele>170</ele>
        <time>2017-12-12T12:03:06Z</time>
      </trkpt>
      <trkpt lat="45.93254" lon="4.72623">
        <ele>170</ele>
        <time>2017-12-12T12:03:07Z</time>
      </trkpt>
      <trkpt lat="45.93251" lon="4.72627">
        <ele>170</ele>
        <time>2017-12-12T12:03:08Z</time>
      </trkpt>
      <trkpt lat="45.93247" lon="4.72632">
        <ele>170</ele>
        <time>2017-12-12T12:03:09Z</time>
      </trkpt>
      <trkpt lat="45.93242" lon="4.72636">
        <ele>170</ele>
        <time>2017-12-12T12:03:10Z</time>
      </trkpt>
      <trkpt lat="45.93238" lon="4.72641">
        <ele>170</ele>
        <time>2017-12-12T12:03:11Z</time>
      </trkpt>
      <trkpt lat="45.93233" lon="4.72647">
        <ele>170</ele>
        <time>2017-12-12T12:03:12Z</time>
      </trkpt>
      <trkpt lat="45.93228" lon="4.72651">
        <ele>170</ele>
        <time>2017-12-12T12:03:13Z</time>
      </trkpt>
      <trkpt lat="45.93224" lon="4.72655">
        <ele>170</ele>
        <time>2017-12-12T12:03:14Z</time>
      </trkpt>
      <trkpt lat="45.9322" lon="4.7266">
        <ele>170</ele>
        <time>2017-12-12T12:03:15Z</time>
      </trkpt>
      <trkpt lat="45.93216" lon="4.72665">
        <ele>170</ele>
        <time>2017-12-12T12:03:16Z</time>
      </trkpt>
      <trkpt lat="45.93212" lon="4.72671">
        <ele>169</ele>
        <time>2017-12-12T12:03:17Z</time>
      </trkpt>
      <trkpt lat="45.93209" lon="4.72676">
        <ele>169</ele>
        <time>2017-12-12T12:03:18Z</time>
      </trkpt>
      <trkpt lat="45.93204" lon="4.7268">
        <ele>169</ele>
        <time>2017-12-12T12:03:19Z</time>
      </trkpt>
      <trkpt lat="45.93199" lon="4.72685">
        <ele>169</ele>
        <time>2017-12-12T12:03:20Z</time>
      </trkpt>
      <trkpt lat="45.93194" lon="4.7269">
        <ele>169</ele>
        <time>2017-12-12T12:03:21Z</time>
      </trkpt>
      <trkpt lat="45.9319" lon="4.72695">
        <ele>169</ele>
        <time>2017-12-12T12:03:22Z</time>
      </trkpt>
      <trkpt lat="45.93186" lon="4.727">
        <ele>169</ele>
        <time>2017-12-12T12:03:23Z</time>
      </trkpt>
      <trkpt lat="45.93181" lon="4.72706">
        <ele>169</ele>
        <time>2017-12-12T12:03:24Z</time>
      </trkpt>
      <trkpt lat="45.93177" lon="4.72712">
        <ele>169</ele>
        <time>2017-12-12T12:03:25Z</time>
      </trkpt>
      <trkpt lat="45.93172" lon="4.72717">
        <ele>170</ele>
        <time>2017-12-12T12:03:26Z</time>
      </trkpt>
      <trkpt lat="45.93168" lon="4.72723">
        <ele>170</ele>
        <time>2017-12-12T12:03:27Z</time>
      </trkpt>
      <trkpt lat="45.93164" lon="4.72726">
        <ele>170</ele>
        <time>2017-12-12T12:03:28Z</time>
      </trkpt>
      <trkpt lat="45.9316" lon="4.72731">
        <ele>170</ele>
        <time>2017-12-12T12:03:29Z</time>
      </trkpt>
      <trkpt lat="45.93155" lon="4.72734">
        <ele>170</ele>
        <time>2017-12-12T12:03:30Z</time>
      </trkpt>
      <trkpt lat="45.93151" lon="4.72739">
        <ele>170</ele>
        <time>2017-12-12T12:03:31Z</time>
      </trkpt>
      <trkpt lat="45.93147" lon="4.72744">
        <ele>170</ele>
        <time>2017-12-12T12:03:32Z</time>
      </trkpt>
      <trkpt lat="45.93143" lon="4.7275">
        <ele>170</ele>
        <time>2017-12-12T12:03:33Z</time>
      </trkpt>
      <trkpt lat="45.9314" lon="4.72754">
        <ele>171</ele>
        <time>2017-12-12T12:03:34Z</time>
      </trkpt>
      <trkpt lat="45.93135" lon="4.7276">
        <ele>171</ele>
        <time>2017-12-12T12:03:35Z</time>
      </trkpt>
      <trkpt lat="45.93131" lon="4.72765">
        <ele>171</ele>
        <time>2017-12-12T12:03:36Z</time>
      </trkpt>
      <trkpt lat="45.93127" lon="4.72769">
        <ele>171</ele>
        <time>2017-12-12T12:03:37Z</time>
      </trkpt>
      <trkpt lat="45.93123" lon="4.72775">
        <ele>171</ele>
        <time>2017-12-12T12:03:38Z</time>
      </trkpt>
      <trkpt lat="45.93119" lon="4.7278">
        <ele>171</ele>
        <time>2017-12-12T12:03:39Z</time>
      </trkpt>
      <trkpt lat="45.93115" lon="4.72785">
        <ele>171</ele>
        <time>2017-12-12T12:03:40Z</time>
      </trkpt>
      <trkpt lat="45.9311" lon="4.7279">
        <ele>171</ele>
        <time>2017-12-12T12:03:41Z</time>
      </trkpt>
      <trkpt lat="45.93105" lon="4.72797">
        <ele>171</ele>
        <time>2017-12-12T12:03:42Z</time>
      </trkpt>
      <trkpt lat="45.93101" lon="4.72802">
        <ele>171</ele>
        <time>2017-12-12T12:03:43Z</time>
      </trkpt>
      <trkpt lat="45.93096" lon="4.72807">
        <ele>172</ele>
        <time>2017-12-12T12:03:44Z</time>
      </trkpt>
      <trkpt lat="45.93091" lon="4.72812">
        <ele>172</ele>
        <time>2017-12-12T12:03:45Z</time>
      </trkpt>
      <trkpt lat="45.93087" lon="4.72817">
        <ele>172</ele>
        <time>2017-12-12T12:03:46Z</time>
      </trkpt>
      <trkpt lat="45.93083" lon="4.72821">
        <ele>172</ele>
        <time>2017-12-12T12:03:47Z</time>
      </trkpt>
      <trkpt lat="45.93079" lon="4.72825">
        <ele>173</ele>
        <time>2017-12-12T12:03:50Z</time>
      </trkpt>
      <trkpt lat="45.93077" lon="4.72831">
        <ele>173</ele>
        <time>2017-12-12T12:03:51Z</time>
      </trkpt>
      <trkpt lat="45.93071" lon="4.72842">
        <ele>173</ele>
        <time>2017-12-12T12:03:52Z</time>
      </trkpt>
      <trkpt lat="45.93064" lon="4.72852">
        <ele>172</ele>
        <time>2017-12-12T12:03:53Z</time>
      </trkpt>
      <trkpt lat="45.93058" lon="4.72858">
        <ele>172</ele>
        <time>2017-12-12T12:03:54Z</time>
      </trkpt>
      <trkpt lat="45.93051" lon="4.72858">
        <ele>172</ele>
        <time>2017-12-12T12:03:55Z</time>
      </trkpt>
      <trkpt lat="45.93044" lon="4.72864">
        <ele>172</ele>
        <time>2017-12-12T12:03:56Z</time>
      </trkpt>
      <trkpt lat="45.93039" lon="4.72873">
        <ele>172</ele>
        <time>2017-12-12T12:03:57Z</time>
      </trkpt>
      <trkpt lat="45.93034" lon="4.7288">
        <ele>172</ele>
        <time>2017-12-12T12:03:58Z</time>
      </trkpt>
      <trkpt lat="45.9303" lon="4.72884">
        <ele>172</ele>
        <time>2017-12-12T12:03:59Z</time>
      </trkpt>
      <trkpt lat="45.93026" lon="4.72889">
        <ele>172</ele>
        <time>2017-12-12T12:04:00Z</time>
      </trkpt>
      <trkpt lat="45.93021" lon="4.72895">
        <ele>172</ele>
        <time>2017-12-12T12:04:01Z</time>
      </trkpt>
      <trkpt lat="45.93017" lon="4.729">
        <ele>172</ele>
        <time>2017-12-12T12:04:02Z</time>
      </trkpt>
      <trkpt lat="45.93013" lon="4.72904">
        <ele>172</ele>
        <time>2017-12-12T12:04:03Z</time>
      </trkpt>
      <trkpt lat="45.93008" lon="4.72909">
        <ele>171</ele>
        <time>2017-12-12T12:04:04Z</time>
      </trkpt>
      <trkpt lat="45.93004" lon="4.72913">
        <ele>171</ele>
        <time>2017-12-12T12:04:05Z</time>
      </trkpt>
      <trkpt lat="45.92999" lon="4.72917">
        <ele>171</ele>
        <time>2017-12-12T12:04:06Z</time>
      </trkpt>
      <trkpt lat="45.92995" lon="4.72923">
        <ele>171</ele>
        <time>2017-12-12T12:04:07Z</time>
      </trkpt>
      <trkpt lat="45.92991" lon="4.72928">
        <ele>171</ele>
        <time>2017-12-12T12:04:08Z</time>
      </trkpt>
      <trkpt lat="45.92986" lon="4.72933">
        <ele>171</ele>
        <time>2017-12-12T12:04:09Z</time>
      </trkpt>
      <trkpt lat="45.92983" lon="4.72938">
        <ele>171</ele>
        <time>2017-12-12T12:04:10Z</time>
      </trkpt>
      <trkpt lat="45.92979" lon="4.72943">
        <ele>171</ele>
        <time>2017-12-12T12:04:11Z</time>
      </trkpt>
      <trkpt lat="45.92975" lon="4.72948">
        <ele>171</ele>
        <time>2017-12-12T12:04:12Z</time>
      </trkpt>
      <trkpt lat="45.92971" lon="4.72953">
        <ele>171</ele>
        <time>2017-12-12T12:04:13Z</time>
      </trkpt>
      <trkpt lat="45.92967" lon="4.72958">
        <ele>171</ele>
        <time>2017-12-12T12:04:14Z</time>
      </trkpt>
      <trkpt lat="45.92963" lon="4.72962">
        <ele>171</ele>
        <time>2017-12-12T12:04:15Z</time>
      </trkpt>
      <trkpt lat="45.92959" lon="4.72967">
        <ele>171</ele>
        <time>2017-12-12T12:04:16Z</time>
      </trkpt>
      <trkpt lat="45.92955" lon="4.72973">
        <ele>171</ele>
        <time>2017-12-12T12:04:17Z</time>
      </trkpt>
      <trkpt lat="45.92949" lon="4.72978">
        <ele>171</ele>
        <time>2017-12-12T12:04:18Z</time>
      </trkpt>
      <trkpt lat="45.92946" lon="4.72982">
        <ele>171</ele>
        <time>2017-12-12T12:04:19Z</time>
      </trkpt>
      <trkpt lat="45.92942" lon="4.72987">
        <ele>171</ele>
        <time>2017-12-12T12:04:20Z</time>
      </trkpt>
      <trkpt lat="45.92938" lon="4.72992">
        <ele>171</ele>
        <time>2017-12-12T12:04:21Z</time>
      </trkpt>
      <trkpt lat="45.92934" lon="4.72997">
        <ele>172</ele>
        <time>2017-12-12T12:04:22Z</time>
      </trkpt>
      <trkpt lat="45.92931" lon="4.73002">
        <ele>172</ele>
        <time>2017-12-12T12:04:23Z</time>
      </trkpt>
      <trkpt lat="45.92926" lon="4.73006">
        <ele>172</ele>
        <time>2017-12-12T12:04:24Z</time>
      </trkpt>
      <trkpt lat="45.92923" lon="4.73009">
        <ele>172</ele>
        <time>2017-12-12T12:04:25Z</time>
      </trkpt>
      <trkpt lat="45.92919" lon="4.73014">
        <ele>172</ele>
        <time>2017-12-12T12:04:26Z</time>
      </trkpt>
      <trkpt lat="45.92915" lon="4.7302">
        <ele>172</ele>
        <time>2017-12-12T12:04:27Z</time>
      </trkpt>
      <trkpt lat="45.92911" lon="4.73025">
        <ele>172</ele>
        <time>2017-12-12T12:04:28Z</time>
      </trkpt>
      <trkpt lat="45.92908" lon="4.73031">
        <ele>172</ele>
        <time>2017-12-12T12:04:29Z</time>
      </trkpt>
      <trkpt lat="45.92904" lon="4.73036">
        <ele>172</ele>
        <time>2017-12-12T12:04:30Z</time>
      </trkpt>
      <trkpt lat="45.929" lon="4.73042">
        <ele>172</ele>
        <time>2017-12-12T12:04:31Z</time>
      </trkpt>
      <trkpt lat="45.92897" lon="4.73048">
        <ele>172</ele>
        <time>2017-12-12T12:04:32Z</time>
      </trkpt>
      <trkpt lat="45.92893" lon="4.73053">
        <ele>172</ele>
        <time>2017-12-12T12:04:33Z</time>
      </trkpt>
      <trkpt lat="45.9289" lon="4.73059">
        <ele>172</ele>
        <time>2017-12-12T12:04:34Z</time>
      </trkpt>
      <trkpt lat="45.92887" lon="4.73064">
        <ele>172</ele>
        <time>2017-12-12T12:04:35Z</time>
      </trkpt>
      <trkpt lat="45.92883" lon="4.7307">
        <ele>172</ele>
        <time>2017-12-12T12:04:36Z</time>
      </trkpt>
      <trkpt lat="45.9288" lon="4.73075">
        <ele>172</ele>
        <time>2017-12-12T12:04:37Z</time>
      </trkpt>
      <trkpt lat="45.92877" lon="4.73081">
        <ele>172</ele>
        <time>2017-12-12T12:04:38Z</time>
      </trkpt>
      <trkpt lat="45.92874" lon="4.73085">
        <ele>172</ele>
        <time>2017-12-12T12:04:39Z</time>
      </trkpt>
      <trkpt lat="45.92867" lon="4.73093">
        <ele>172</ele>
        <time>2017-12-12T12:04:41Z</time>
      </trkpt>
      <trkpt lat="45.92863" lon="4.73098">
        <ele>171</ele>
        <time>2017-12-12T12:04:42Z</time>
      </trkpt>
      <trkpt lat="45.92859" lon="4.73101">
        <ele>171</ele>
        <time>2017-12-12T12:04:43Z</time>
      </trkpt>
      <trkpt lat="45.92854" lon="4.73101">
        <ele>171</ele>
        <time>2017-12-12T12:04:44Z</time>
      </trkpt>
      <trkpt lat="45.92846" lon="4.73095">
        <ele>171</ele>
        <time>2017-12-12T12:04:46Z</time>
      </trkpt>
      <trkpt lat="45.92845" lon="4.73089">
        <ele>171</ele>
        <time>2017-12-12T12:04:47Z</time>
      </trkpt>
      <trkpt lat="45.92845" lon="4.73081">
        <ele>171</ele>
        <time>2017-12-12T12:04:48Z</time>
      </trkpt>
      <trkpt lat="45.92845" lon="4.73073">
        <ele>171</ele>
        <time>2017-12-12T12:04:49Z</time>
      </trkpt>
      <trkpt lat="45.92844" lon="4.73066">
        <ele>171</ele>
        <time>2017-12-12T12:04:50Z</time>
      </trkpt>
      <trkpt lat="45.92842" lon="4.73058">
        <ele>171</ele>
        <time>2017-12-12T12:04:51Z</time>
      </trkpt>
      <trkpt lat="45.92841" lon="4.73049">
        <ele>171</ele>
        <time>2017-12-12T12:04:52Z</time>
      </trkpt>
      <trkpt lat="45.92839" lon="4.7304">
        <ele>171</ele>
        <time>2017-12-12T12:04:53Z</time>
      </trkpt>
      <trkpt lat="45.92837" lon="4.73032">
        <ele>171</ele>
        <time>2017-12-12T12:04:54Z</time>
      </trkpt>
      <trkpt lat="45.92835" lon="4.73024">
        <ele>171</ele>
        <time>2017-12-12T12:04:55Z</time>
      </trkpt>
      <trkpt lat="45.92835" lon="4.73017">
        <ele>171</ele>
        <time>2017-12-12T12:04:56Z</time>
      </trkpt>
      <trkpt lat="45.92833" lon="4.7301">
        <ele>170</ele>
        <time>2017-12-12T12:04:57Z</time>
      </trkpt>
      <trkpt lat="45.92832" lon="4.73003">
        <ele>170</ele>
        <time>2017-12-12T12:04:58Z</time>
      </trkpt>
      <trkpt lat="45.92831" lon="4.72995">
        <ele>170</ele>
        <time>2017-12-12T12:04:59Z</time>
      </trkpt>
      <trkpt lat="45.9283" lon="4.72987">
        <ele>170</ele>
        <time>2017-12-12T12:05:00Z</time>
      </trkpt>
      <trkpt lat="45.9283" lon="4.7298">
        <ele>170</ele>
        <time>2017-12-12T12:05:01Z</time>
      </trkpt>
      <trkpt lat="45.9283" lon="4.72972">
        <ele>170</ele>
        <time>2017-12-12T12:05:02Z</time>
      </trkpt>
      <trkpt lat="45.92829" lon="4.72964">
        <ele>170</ele>
        <time>2017-12-12T12:05:03Z</time>
      </trkpt>
      <trkpt lat="45.92829" lon="4.72955">
        <ele>170</ele>
        <time>2017-12-12T12:05:04Z</time>
      </trkpt>
      <trkpt lat="45.92828" lon="4.72946">
        <ele>170</ele>
        <time>2017-12-12T12:05:05Z</time>
      </trkpt>
      <trkpt lat="45.92828" lon="4.72938">
        <ele>170</ele>
        <time>2017-12-12T12:05:06Z</time>
      </trkpt>
      <trkpt lat="45.92826" lon="4.72929">
        <ele>170</ele>
        <time>2017-12-12T12:05:07Z</time>
      </trkpt>
      <trkpt lat="45.92826" lon="4.7292">
        <ele>170</ele>
        <time>2017-12-12T12:05:08Z</time>
      </trkpt>
      <trkpt lat="45.92824" lon="4.72911">
        <ele>170</ele>
        <time>2017-12-12T12:05:09Z</time>
      </trkpt>
      <trkpt lat="45.92822" lon="4.72903">
        <ele>170</ele>
        <time>2017-12-12T12:05:10Z</time>
      </trkpt>
      <trkpt lat="45.92821" lon="4.72894">
        <ele>170</ele>
        <time>2017-12-12T12:05:11Z</time>
      </trkpt>
      <trkpt lat="45.9282" lon="4.72885">
        <ele>170</ele>
        <time>2017-12-12T12:05:12Z</time>
      </trkpt>
      <trkpt lat="45.9282" lon="4.72876">
        <ele>170</ele>
        <time>2017-12-12T12:05:13Z</time>
      </trkpt>
      <trkpt lat="45.92819" lon="4.72868">
        <ele>170</ele>
        <time>2017-12-12T12:05:14Z</time>
      </trkpt>
      <trkpt lat="45.92817" lon="4.7286">
        <ele>170</ele>
        <time>2017-12-12T12:05:15Z</time>
      </trkpt>
      <trkpt lat="45.92815" lon="4.72853">
        <ele>170</ele>
        <time>2017-12-12T12:05:16Z</time>
      </trkpt>
      <trkpt lat="45.92814" lon="4.72847">
        <ele>170</ele>
        <time>2017-12-12T12:05:17Z</time>
      </trkpt>
      <trkpt lat="45.92813" lon="4.72835">
        <ele>170</ele>
        <time>2017-12-12T12:05:19Z</time>
      </trkpt>
      <trkpt lat="45.9281" lon="4.72828">
        <ele>171</ele>
        <time>2017-12-12T12:05:20Z</time>
      </trkpt>
      <trkpt lat="45.92809" lon="4.72816">
        <ele>171</ele>
        <time>2017-12-12T12:05:22Z</time>
      </trkpt>
      <trkpt lat="45.92808" lon="4.72809">
        <ele>171</ele>
        <time>2017-12-12T12:05:23Z</time>
      </trkpt>
      <trkpt lat="45.92806" lon="4.72797">
        <ele>171</ele>
        <time>2017-12-12T12:05:25Z</time>
      </trkpt>
      <trkpt lat="45.92805" lon="4.7279">
        <ele>171</ele>
        <time>2017-12-12T12:05:26Z</time>
      </trkpt>
      <trkpt lat="45.92802" lon="4.72784">
        <ele>171</ele>
        <time>2017-12-12T12:05:27Z</time>
      </trkpt>
      <trkpt lat="45.92796" lon="4.72782">
        <ele>171</ele>
        <time>2017-12-12T12:05:28Z</time>
      </trkpt>
      <trkpt lat="45.92788" lon="4.72787">
        <ele>171</ele>
        <time>2017-12-12T12:05:30Z</time>
      </trkpt>
      <trkpt lat="45.92784" lon="4.72791">
        <ele>170</ele>
        <time>2017-12-12T12:05:31Z</time>
      </trkpt>
      <trkpt lat="45.9278" lon="4.72794">
        <ele>170</ele>
        <time>2017-12-12T12:05:32Z</time>
      </trkpt>
      <trkpt lat="45.92775" lon="4.72798">
        <ele>170</ele>
        <time>2017-12-12T12:05:33Z</time>
      </trkpt>
      <trkpt lat="45.92771" lon="4.72801">
        <ele>170</ele>
        <time>2017-12-12T12:05:34Z</time>
      </trkpt>
      <trkpt lat="45.92766" lon="4.72805">
        <ele>170</ele>
        <time>2017-12-12T12:05:35Z</time>
      </trkpt>
      <trkpt lat="45.9276" lon="4.72809">
        <ele>170</ele>
        <time>2017-12-12T12:05:36Z</time>
      </trkpt>
      <trkpt lat="45.92755" lon="4.72814">
        <ele>170</ele>
        <time>2017-12-12T12:05:37Z</time>
      </trkpt>
      <trkpt lat="45.9275" lon="4.72817">
        <ele>169</ele>
        <time>2017-12-12T12:05:38Z</time>
      </trkpt>
      <trkpt lat="45.92745" lon="4.7282">
        <ele>169</ele>
        <time>2017-12-12T12:05:39Z</time>
      </trkpt>
      <trkpt lat="45.92739" lon="4.72825">
        <ele>169</ele>
        <time>2017-12-12T12:05:40Z</time>
      </trkpt>
      <trkpt lat="45.92734" lon="4.72829">
        <ele>169</ele>
        <time>2017-12-12T12:05:41Z</time>
      </trkpt>
      <trkpt lat="45.92729" lon="4.72834">
        <ele>169</ele>
        <time>2017-12-12T12:05:42Z</time>
      </trkpt>
      <trkpt lat="45.92723" lon="4.72838">
        <ele>169</ele>
        <time>2017-12-12T12:05:43Z</time>
      </trkpt>
      <trkpt lat="45.92718" lon="4.72842">
        <ele>169</ele>
        <time>2017-12-12T12:05:44Z</time>
      </trkpt>
      <trkpt lat="45.92712" lon="4.72847">
        <ele>169</ele>
        <time>2017-12-12T12:05:45Z</time>
      </trkpt>
      <trkpt lat="45.92706" lon="4.72851">
        <ele>169</ele>
        <time>2017-12-12T12:05:46Z</time>
      </trkpt>
      <trkpt lat="45.92701" lon="4.72856">
        <ele>169</ele>
        <time>2017-12-12T12:05:47Z</time>
      </trkpt>
      <trkpt lat="45.92697" lon="4.72861">
        <ele>169</ele>
        <time>2017-12-12T12:05:48Z</time>
      </trkpt>
      <trkpt lat="45.92691" lon="4.72865">
        <ele>169</ele>
        <time>2017-12-12T12:05:49Z</time>
      </trkpt>
      <trkpt lat="45.92685" lon="4.7287">
        <ele>169</ele>
        <time>2017-12-12T12:05:50Z</time>
      </trkpt>
      <trkpt lat="45.92679" lon="4.72874">
        <ele>169</ele>
        <time>2017-12-12T12:05:51Z</time>
      </trkpt>
      <trkpt lat="45.92673" lon="4.72878">
        <ele>170</ele>
        <time>2017-12-12T12:05:52Z</time>
      </trkpt>
      <trkpt lat="45.92668" lon="4.72884">
        <ele>170</ele>
        <time>2017-12-12T12:05:53Z</time>
      </trkpt>
      <trkpt lat="45.92663" lon="4.72887">
        <ele>169</ele>
        <time>2017-12-12T12:05:54Z</time>
      </trkpt>
      <trkpt lat="45.92657" lon="4.72892">
        <ele>169</ele>
        <time>2017-12-12T12:05:55Z</time>
      </trkpt>
      <trkpt lat="45.92651" lon="4.72897">
        <ele>169</ele>
        <time>2017-12-12T12:05:56Z</time>
      </trkpt>
      <trkpt lat="45.92645" lon="4.72901">
        <ele>169</ele>
        <time>2017-12-12T12:05:57Z</time>
      </trkpt>
      <trkpt lat="45.9264" lon="4.72905">
        <ele>169</ele>
        <time>2017-12-12T12:05:58Z</time>
      </trkpt>
      <trkpt lat="45.92634" lon="4.7291">
        <ele>169</ele>
        <time>2017-12-12T12:05:59Z</time>
      </trkpt>
      <trkpt lat="45.92628" lon="4.72916">
        <ele>169</ele>
        <time>2017-12-12T12:06:00Z</time>
      </trkpt>
      <trkpt lat="45.92623" lon="4.7292">
        <ele>169</ele>
        <time>2017-12-12T12:06:01Z</time>
      </trkpt>
      <trkpt lat="45.92617" lon="4.72924">
        <ele>169</ele>
        <time>2017-12-12T12:06:02Z</time>
      </trkpt>
      <trkpt lat="45.92612" lon="4.7293">
        <ele>169</ele>
        <time>2017-12-12T12:06:03Z</time>
      </trkpt>
      <trkpt lat="45.92606" lon="4.72935">
        <ele>169</ele>
        <time>2017-12-12T12:06:04Z</time>
      </trkpt>
      <trkpt lat="45.92602" lon="4.72939">
        <ele>169</ele>
        <time>2017-12-12T12:06:05Z</time>
      </trkpt>
      <trkpt lat="45.92597" lon="4.72946">
        <ele>169</ele>
        <time>2017-12-12T12:06:06Z</time>
      </trkpt>
      <trkpt lat="45.92592" lon="4.72951">
        <ele>169</ele>
        <time>2017-12-12T12:06:07Z</time>
      </trkpt>
      <trkpt lat="45.92587" lon="4.72958">
        <ele>169</ele>
        <time>2017-12-12T12:06:08Z</time>
      </trkpt>
      <trkpt lat="45.92582" lon="4.72963">
        <ele>169</ele>
        <time>2017-12-12T12:06:09Z</time>
      </trkpt>
      <trkpt lat="45.92577" lon="4.72969">
        <ele>169</ele>
        <time>2017-12-12T12:06:10Z</time>
      </trkpt>
      <trkpt lat="45.92573" lon="4.72975">
        <ele>169</ele>
        <time>2017-12-12T12:06:11Z</time>
      </trkpt>
      <trkpt lat="45.92568" lon="4.7298">
        <ele>169</ele>
        <time>2017-12-12T12:06:12Z</time>
      </trkpt>
      <trkpt lat="45.92564" lon="4.72985">
        <ele>169</ele>
        <time>2017-12-12T12:06:13Z</time>
      </trkpt>
      <trkpt lat="45.92559" lon="4.7299">
        <ele>169</ele>
        <time>2017-12-12T12:06:14Z</time>
      </trkpt>
      <trkpt lat="45.92554" lon="4.72995">
        <ele>169</ele>
        <time>2017-12-12T12:06:15Z</time>
      </trkpt>
      <trkpt lat="45.9255" lon="4.73">
        <ele>169</ele>
        <time>2017-12-12T12:06:16Z</time>
      </trkpt>
      <trkpt lat="45.92546" lon="4.73004">
        <ele>169</ele>
        <time>2017-12-12T12:06:17Z</time>
      </trkpt>
      <trkpt lat="45.92541" lon="4.73009">
        <ele>169</ele>
        <time>2017-12-12T12:06:18Z</time>
      </trkpt>
      <trkpt lat="45.92536" lon="4.73013">
        <ele>169</ele>
        <time>2017-12-12T12:06:19Z</time>
      </trkpt>
      <trkpt lat="45.92531" lon="4.73017">
        <ele>169</ele>
        <time>2017-12-12T12:06:20Z</time>
      </trkpt>
      <trkpt lat="45.92526" lon="4.73022">
        <ele>169</ele>
        <time>2017-12-12T12:06:21Z</time>
      </trkpt>
      <trkpt lat="45.92523" lon="4.73025">
        <ele>169</ele>
        <time>2017-12-12T12:06:22Z</time>
      </trkpt>
      <trkpt lat="45.92518" lon="4.73029">
        <ele>169</ele>
        <time>2017-12-12T12:06:23Z</time>
      </trkpt>
      <trkpt lat="45.92513" lon="4.73033">
        <ele>169</ele>
        <time>2017-12-12T12:06:24Z</time>
      </trkpt>
      <trkpt lat="45.92509" lon="4.73037">
        <ele>169</ele>
        <time>2017-12-12T12:06:25Z</time>
      </trkpt>
      <trkpt lat="45.92504" lon="4.7304">
        <ele>169</ele>
        <time>2017-12-12T12:06:26Z</time>
      </trkpt>
      <trkpt lat="45.92499" lon="4.73044">
        <ele>170</ele>
        <time>2017-12-12T12:06:27Z</time>
      </trkpt>
      <trkpt lat="45.92494" lon="4.73047">
        <ele>170</ele>
        <time>2017-12-12T12:06:28Z</time>
      </trkpt>
      <trkpt lat="45.9249" lon="4.73051">
        <ele>170</ele>
        <time>2017-12-12T12:06:29Z</time>
      </trkpt>
      <trkpt lat="45.92486" lon="4.73055">
        <ele>170</ele>
        <time>2017-12-12T12:06:30Z</time>
      </trkpt>
      <trkpt lat="45.92481" lon="4.73059">
        <ele>170</ele>
        <time>2017-12-12T12:06:31Z</time>
      </trkpt>
      <trkpt lat="45.92476" lon="4.73063">
        <ele>170</ele>
        <time>2017-12-12T12:06:32Z</time>
      </trkpt>
      <trkpt lat="45.92472" lon="4.73066">
        <ele>170</ele>
        <time>2017-12-12T12:06:33Z</time>
      </trkpt>
      <trkpt lat="45.92466" lon="4.73071">
        <ele>170</ele>
        <time>2017-12-12T12:06:34Z</time>
      </trkpt>
      <trkpt lat="45.92461" lon="4.73075">
        <ele>170</ele>
        <time>2017-12-12T12:06:35Z</time>
      </trkpt>
      <trkpt lat="45.92457" lon="4.73078">
        <ele>170</ele>
        <time>2017-12-12T12:06:36Z</time>
      </trkpt>
      <trkpt lat="45.92452" lon="4.73082">
        <ele>170</ele>
        <time>2017-12-12T12:06:37Z</time>
      </trkpt>
      <trkpt lat="45.92448" lon="4.73086">
        <ele>170</ele>
        <time>2017-12-12T12:06:38Z</time>
      </trkpt>
      <trkpt lat="45.92443" lon="4.7309">
        <ele>170</ele>
        <time>2017-12-12T12:06:39Z</time>
      </trkpt>
      <trkpt lat="45.92438" lon="4.73093">
        <ele>171</ele>
        <time>2017-12-12T12:06:40Z</time>
      </trkpt>
      <trkpt lat="45.92434" lon="4.73097">
        <ele>171</ele>
        <time>2017-12-12T12:06:41Z</time>
      </trkpt>
      <trkpt lat="45.92427" lon="4.73104">
        <ele>171</ele>
        <time>2017-12-12T12:06:43Z</time>
      </trkpt>
      <trkpt lat="45.92423" lon="4.73107">
        <ele>171</ele>
        <time>2017-12-12T12:06:44Z</time>
      </trkpt>
      <trkpt lat="45.92419" lon="4.7311">
        <ele>170</ele>
        <time>2017-12-12T12:06:45Z</time>
      </trkpt>
      <trkpt lat="45.92414" lon="4.73115">
        <ele>171</ele>
        <time>2017-12-12T12:06:46Z</time>
      </trkpt>
      <trkpt lat="45.92411" lon="4.7312">
        <ele>171</ele>
        <time>2017-12-12T12:06:47Z</time>
      </trkpt>
      <trkpt lat="45.92409" lon="4.73127">
        <ele>171</ele>
        <time>2017-12-12T12:06:48Z</time>
      </trkpt>
      <trkpt lat="45.92408" lon="4.73135">
        <ele>171</ele>
        <time>2017-12-12T12:06:49Z</time>
      </trkpt>
      <trkpt lat="45.92407" lon="4.73143">
        <ele>171</ele>
        <time>2017-12-12T12:06:50Z</time>
      </trkpt>
      <trkpt lat="45.92407" lon="4.73151">
        <ele>171</ele>
        <time>2017-12-12T12:06:51Z</time>
      </trkpt>
      <trkpt lat="45.92407" lon="4.73158">
        <ele>170</ele>
        <time>2017-12-12T12:06:52Z</time>
      </trkpt>
      <trkpt lat="45.92407" lon="4.73166">
        <ele>170</ele>
        <time>2017-12-12T12:06:53Z</time>
      </trkpt>
      <trkpt lat="45.92407" lon="4.73173">
        <ele>170</ele>
        <time>2017-12-12T12:06:54Z</time>
      </trkpt>
      <trkpt lat="45.92407" lon="4.73181">
        <ele>171</ele>
        <time>2017-12-12T12:06:55Z</time>
      </trkpt>
      <trkpt lat="45.92407" lon="4.73188">
        <ele>171</ele>
        <time>2017-12-12T12:06:56Z</time>
      </trkpt>
      <trkpt lat="45.92408" lon="4.73196">
        <ele>171</ele>
        <time>2017-12-12T12:06:57Z</time>
      </trkpt>
      <trkpt lat="45.92408" lon="4.73203">
        <ele>171</ele>
        <time>2017-12-12T12:06:58Z</time>
      </trkpt>
      <trkpt lat="45.92408" lon="4.7321">
        <ele>171</ele>
        <time>2017-12-12T12:06:59Z</time>
      </trkpt>
      <trkpt lat="45.92409" lon="4.73218">
        <ele>171</ele>
        <time>2017-12-12T12:07:00Z</time>
      </trkpt>
      <trkpt lat="45.92409" lon="4.73225">
        <ele>171</ele>
        <time>2017-12-12T12:07:01Z</time>
      </trkpt>
      <trkpt lat="45.9241" lon="4.73232">
        <ele>171</ele>
        <time>2017-12-12T12:07:02Z</time>
      </trkpt>
      <trkpt lat="45.9241" lon="4.73239">
        <ele>171</ele>
        <time>2017-12-12T12:07:03Z</time>
      </trkpt>
      <trkpt lat="45.9241" lon="4.73246">
        <ele>171</ele>
        <time>2017-12-12T12:07:04Z</time>
      </trkpt>
      <trkpt lat="45.92411" lon="4.73259">
        <ele>171</ele>
        <time>2017-12-12T12:07:06Z</time>
      </trkpt>
      <trkpt lat="45.92412" lon="4.73266">
        <ele>171</ele>
        <time>2017-12-12T12:07:07Z</time>
      </trkpt>
      <trkpt lat="45.92412" lon="4.73273">
        <ele>171</ele>
        <time>2017-12-12T12:07:08Z</time>
      </trkpt>
      <trkpt lat="45.92412" lon="4.73282">
        <ele>171</ele>
        <time>2017-12-12T12:07:09Z</time>
      </trkpt>
      <trkpt lat="45.92413" lon="4.73288">
        <ele>171</ele>
        <time>2017-12-12T12:07:10Z</time>
      </trkpt>
      <trkpt lat="45.92413" lon="4.73295">
        <ele>171</ele>
        <time>2017-12-12T12:07:11Z</time>
      </trkpt>
      <trkpt lat="45.92414" lon="4.73303">
        <ele>171</ele>
        <time>2017-12-12T12:07:12Z</time>
      </trkpt>
      <trkpt lat="45.92414" lon="4.7331">
        <ele>171</ele>
        <time>2017-12-12T12:07:13Z</time>
      </trkpt>
      <trkpt lat="45.92415" lon="4.73318">
        <ele>171</ele>
        <time>2017-12-12T12:07:14Z</time>
      </trkpt>
      <trkpt lat="45.92415" lon="4.73325">
        <ele>171</ele>
        <time>2017-12-12T12:07:15Z</time>
      </trkpt>
      <trkpt lat="45.92415" lon="4.73332">
        <ele>171</ele>
        <time>2017-12-12T12:07:16Z</time>
      </trkpt>
      <trkpt lat="45.92417" lon="4.73338">
        <ele>171</ele>
        <time>2017-12-12T12:07:17Z</time>
      </trkpt>
      <trkpt lat="45.92418" lon="4.73346">
        <ele>171</ele>
        <time>2017-12-12T12:07:18Z</time>
      </trkpt>
      <trkpt lat="45.92419" lon="4.73354">
        <ele>171</ele>
        <time>2017-12-12T12:07:19Z</time>
      </trkpt>
      <trkpt lat="45.92419" lon="4.73361">
        <ele>172</ele>
        <time>2017-12-12T12:07:20Z</time>
      </trkpt>
      <trkpt lat="45.92421" lon="4.7337">
        <ele>172</ele>
        <time>2017-12-12T12:07:21Z</time>
      </trkpt>
      <trkpt lat="45.92422" lon="4.73377">
        <ele>172</ele>
        <time>2017-12-12T12:07:22Z</time>
      </trkpt>
      <trkpt lat="45.92423" lon="4.73384">
        <ele>172</ele>
        <time>2017-12-12T12:07:23Z</time>
      </trkpt>
      <trkpt lat="45.92425" lon="4.73391">
        <ele>172</ele>
        <time>2017-12-12T12:07:24Z</time>
      </trkpt>
      <trkpt lat="45.92427" lon="4.73397">
        <ele>172</ele>
        <time>2017-12-12T12:07:25Z</time>
      </trkpt>
      <trkpt lat="45.92431" lon="4.73404">
        <ele>172</ele>
        <time>2017-12-12T12:07:26Z</time>
      </trkpt>
      <trkpt lat="45.92434" lon="4.7341">
        <ele>172</ele>
        <time>2017-12-12T12:07:27Z</time>
      </trkpt>
      <trkpt lat="45.9244" lon="4.73414">
        <ele>172</ele>
        <time>2017-12-12T12:07:28Z</time>
      </trkpt>
      <trkpt lat="45.92444" lon="4.73418">
        <ele>173</ele>
        <time>2017-12-12T12:07:29Z</time>
      </trkpt>
      <trkpt lat="45.9245" lon="4.73422">
        <ele>173</ele>
        <time>2017-12-12T12:07:30Z</time>
      </trkpt>
      <trkpt lat="45.92454" lon="4.73423">
        <ele>173</ele>
        <time>2017-12-12T12:07:31Z</time>
      </trkpt>
      <trkpt lat="45.92458" lon="4.73427">
        <ele>173</ele>
        <time>2017-12-12T12:07:32Z</time>
      </trkpt>
      <trkpt lat="45.92462" lon="4.73434">
        <ele>173</ele>
        <time>2017-12-12T12:07:33Z</time>
      </trkpt>
      <trkpt lat="45.92465" lon="4.73439">
        <ele>173</ele>
        <time>2017-12-12T12:07:34Z</time>
      </trkpt>
      <trkpt lat="45.92468" lon="4.73447">
        <ele>173</ele>
        <time>2017-12-12T12:07:35Z</time>
      </trkpt>
      <trkpt lat="45.92469" lon="4.73454">
        <ele>173</ele>
        <time>2017-12-12T12:07:36Z</time>
      </trkpt>
      <trkpt lat="45.92469" lon="4.73462">
        <ele>173</ele>
        <time>2017-12-12T12:07:37Z</time>
      </trkpt>
      <trkpt lat="45.92469" lon="4.73469">
        <ele>173</ele>
        <time>2017-12-12T12:07:38Z</time>
      </trkpt>
      <trkpt lat="45.92469" lon="4.73477">
        <ele>173</ele>
        <time>2017-12-12T12:07:39Z</time>
      </trkpt>
      <trkpt lat="45.92469" lon="4.73485">
        <ele>173</ele>
        <time>2017-12-12T12:07:40Z</time>
      </trkpt>
      <trkpt lat="45.92469" lon="4.73494">
        <ele>173</ele>
        <time>2017-12-12T12:07:41Z</time>
      </trkpt>
      <trkpt lat="45.92469" lon="4.73503">
        <ele>174</ele>
        <time>2017-12-12T12:07:42Z</time>
      </trkpt>
      <trkpt lat="45.92468" lon="4.7351">
        <ele>174</ele>
        <time>2017-12-12T12:07:43Z</time>
      </trkpt>
      <trkpt lat="45.92468" lon="4.73518">
        <ele>174</ele>
        <time>2017-12-12T12:07:44Z</time>
      </trkpt>
      <trkpt lat="45.92468" lon="4.73524">
        <ele>174</ele>
        <time>2017-12-12T12:07:45Z</time>
      </trkpt>
      <trkpt lat="45.92468" lon="4.73531">
        <ele>174</ele>
        <time>2017-12-12T12:07:46Z</time>
      </trkpt>
      <trkpt lat="45.92468" lon="4.73539">
        <ele>174</ele>
        <time>2017-12-12T12:07:47Z</time>
      </trkpt>
      <trkpt lat="45.92468" lon="4.73546">
        <ele>173</ele>
        <time>2017-12-12T12:07:48Z</time>
      </trkpt>
      <trkpt lat="45.92468" lon="4.73554">
        <ele>173</ele>
        <time>2017-12-12T12:07:49Z</time>
      </trkpt>
      <trkpt lat="45.92468" lon="4.7356">
        <ele>173</ele>
        <time>2017-12-12T12:07:50Z</time>
      </trkpt>
      <trkpt lat="45.92468" lon="4.73569">
        <ele>173</ele>
        <time>2017-12-12T12:07:51Z</time>
      </trkpt>
      <trkpt lat="45.92469" lon="4.73576">
        <ele>173</ele>
        <time>2017-12-12T12:07:52Z</time>
      </trkpt>
      <trkpt lat="45.92471" lon="4.73585">
        <ele>174</ele>
        <time>2017-12-12T12:07:53Z</time>
      </trkpt>
      <trkpt lat="45.92471" lon="4.73594">
        <ele>174</ele>
        <time>2017-12-12T12:07:54Z</time>
      </trkpt>
      <trkpt lat="45.92472" lon="4.736">
        <ele>174</ele>
        <time>2017-12-12T12:07:55Z</time>
      </trkpt>
      <trkpt lat="45.92472" lon="4.73607">
        <ele>174</ele>
        <time>2017-12-12T12:07:56Z</time>
      </trkpt>
      <trkpt lat="45.92472" lon="4.73615">
        <ele>174</ele>
        <time>2017-12-12T12:07:57Z</time>
      </trkpt>
      <trkpt lat="45.92472" lon="4.73622">
        <ele>174</ele>
        <time>2017-12-12T12:07:58Z</time>
      </trkpt>
      <trkpt lat="45.92473" lon="4.73629">
        <ele>174</ele>
        <time>2017-12-12T12:07:59Z</time>
      </trkpt>
      <trkpt lat="45.92473" lon="4.73642">
        <ele>174</ele>
        <time>2017-12-12T12:08:01Z</time>
      </trkpt>
      <trkpt lat="45.92473" lon="4.73649">
        <ele>174</ele>
        <time>2017-12-12T12:08:02Z</time>
      </trkpt>
      <trkpt lat="45.92473" lon="4.73657">
        <ele>174</ele>
        <time>2017-12-12T12:08:03Z</time>
      </trkpt>
      <trkpt lat="45.92473" lon="4.73663">
        <ele>174</ele>
        <time>2017-12-12T12:08:04Z</time>
      </trkpt>
      <trkpt lat="45.92473" lon="4.73674">
        <ele>174</ele>
        <time>2017-12-12T12:08:06Z</time>
      </trkpt>
      <trkpt lat="45.92473" lon="4.73679">
        <ele>174</ele>
        <time>2017-12-12T12:08:07Z</time>
      </trkpt>
      <trkpt lat="45.92473" lon="4.7369">
        <ele>174</ele>
        <time>2017-12-12T12:08:09Z</time>
      </trkpt>
      <trkpt lat="45.92473" lon="4.73697">
        <ele>174</ele>
        <time>2017-12-12T12:08:10Z</time>
      </trkpt>
      <trkpt lat="45.92472" lon="4.73706">
        <ele>174</ele>
        <time>2017-12-12T12:08:13Z</time>
      </trkpt>
      <trkpt lat="45.92471" lon="4.73707">
        <ele>174</ele>
        <time>2017-12-12T12:08:14Z</time>
      </trkpt>
      <trkpt lat="45.92472" lon="4.73708">
        <ele>174</ele>
        <time>2017-12-12T12:08:21Z</time>
      </trkpt>
      <trkpt lat="45.92471" lon="4.73709">
        <ele>174</ele>
        <time>2017-12-12T12:08:22Z</time>
      </trkpt>
      <trkpt lat="45.92464" lon="4.73716">
        <ele>174</ele>
        <time>2017-12-12T12:08:36Z</time>
      </trkpt>
      <trkpt lat="45.92464" lon="4.73716">
        <ele>174</ele>
        <time>2017-12-12T12:08:37Z</time>
      </trkpt>
      <trkpt lat="45.92462" lon="4.73717">
        <ele>174</ele>
        <time>2017-12-12T12:08:55.285Z</time>
      </trkpt>
    </trkseg>
  </trk>
</gpx>